<?xml version='1.0' encoding='UTF-8'?><gpx version="1.1" creator="JPX - https://github.com/jenetics/jpx" xmlns="http://www.topografix.com/GPX/1/1"><trk><trkseg><trkpt lat="44.92421709315506" lon="11.988504775662504"><ele>-5.999999999999999</ele><time>2026-05-02T09:49:32.997Z</time></trkpt><trkpt lat="44.92429314185392" lon="11.98849956506117"><ele>-6.0</ele><time>2026-05-02T09:49:39.001Z</time></trkpt><trkpt lat="44.9243581016035" lon="11.988495960842807"><ele>-6.0</ele><time>2026-05-02T09:49:41.001Z</time></trkpt><trkpt lat="44.92441853512537" lon="11.98853376322611"><ele>-6.0</ele><time>2026-05-02T09:49:43Z</time></trkpt><trkpt lat="44.9244354164394" lon="11.988629689628256"><ele>-6.0</ele><time>2026-05-02T09:49:45Z</time></trkpt><trkpt lat="44.92443632062946" lon="11.988745891087463"><ele>-5.999999999999999</ele><time>2026-05-02T09:49:47Z</time></trkpt><trkpt lat="44.92443212968474" lon="11.98886533241628"><ele>-6.0</ele><time>2026-05-02T09:49:49Z</time></trkpt><trkpt lat="44.924425419002716" lon="11.988975614938186"><ele>-6.0</ele><time>2026-05-02T09:49:51Z</time></trkpt><trkpt lat="44.92442392124488" lon="11.989099496366904"><ele>-6.0</ele><time>2026-05-02T09:49:53Z</time></trkpt><trkpt lat="44.9244253778543" lon="11.989225611820423"><ele>-6.0</ele><time>2026-05-02T09:49:55Z</time></trkpt><trkpt lat="44.92442800186471" lon="11.98934865134623"><ele>-6.0</ele><time>2026-05-02T09:49:57Z</time></trkpt><trkpt lat="44.92442475073124" lon="11.989467659328003"><ele>-6.0</ele><time>2026-05-02T09:49:59Z</time></trkpt><trkpt lat="44.924426926339905" lon="11.989589988404507"><ele>-6.0</ele><time>2026-05-02T09:50:01Z</time></trkpt><trkpt lat="44.92443298924912" lon="11.989709189651585"><ele>-6.0</ele><time>2026-05-02T09:50:03Z</time></trkpt><trkpt lat="44.92443157803283" lon="11.989839717673753"><ele>-6.0</ele><time>2026-05-02T09:50:05Z</time></trkpt><trkpt lat="44.92443127873092" lon="11.989972027873552"><ele>-6.0</ele><time>2026-05-02T09:50:07Z</time></trkpt><trkpt lat="44.9244388274533" lon="11.990096345403987"><ele>-6.0</ele><time>2026-05-02T09:50:09Z</time></trkpt><trkpt lat="44.924437300291" lon="11.990212190517905"><ele>-6.0</ele><time>2026-05-02T09:50:11Z</time></trkpt><trkpt lat="44.92443853363698" lon="11.990340729026931"><ele>-6.0</ele><time>2026-05-02T09:50:13Z</time></trkpt><trkpt lat="44.92444760035363" lon="11.99047005286318"><ele>-6.0</ele><time>2026-05-02T09:50:15Z</time></trkpt><trkpt lat="44.92444674746678" lon="11.990588042432403"><ele>-6.0</ele><time>2026-05-02T09:50:17Z</time></trkpt><trkpt lat="44.92444761057852" lon="11.990700670314531"><ele>-6.0</ele><time>2026-05-02T09:50:19Z</time></trkpt><trkpt lat="44.92445231306862" lon="11.990822376003948"><ele>-6.0</ele><time>2026-05-02T09:50:21Z</time></trkpt><trkpt lat="44.92445662042057" lon="11.99094979354161"><ele>-6.0</ele><time>2026-05-02T09:50:23Z</time></trkpt><trkpt lat="44.924450372540825" lon="11.991071263474458"><ele>-6.0</ele><time>2026-05-02T09:50:25Z</time></trkpt><trkpt lat="44.924398293134054" lon="11.991172498059912"><ele>-6.199999999999999</ele><time>2026-05-02T09:50:27Z</time></trkpt><trkpt lat="44.92430447589751" lon="11.991189896630997"><ele>-6.3999999999999995</ele><time>2026-05-02T09:50:29Z</time></trkpt><trkpt lat="44.92421237154238" lon="11.991180402606627"><ele>-6.6</ele><time>2026-05-02T09:50:31Z</time></trkpt><trkpt lat="44.92411767583201" lon="11.991177866436773"><ele>-6.8</ele><time>2026-05-02T09:50:33Z</time></trkpt><trkpt lat="44.92402197346881" lon="11.991173282666741"><ele>-7.0</ele><time>2026-05-02T09:50:35Z</time></trkpt><trkpt lat="44.923924304424965" lon="11.991173977295515"><ele>-7.0</ele><time>2026-05-02T09:50:37Z</time></trkpt><trkpt lat="44.92382341945438" lon="11.991169496566805"><ele>-6.999999999999999</ele><time>2026-05-02T09:50:39Z</time></trkpt><trkpt lat="44.923727270859686" lon="11.99117034333677"><ele>-6.999999999999999</ele><time>2026-05-02T09:50:41Z</time></trkpt><trkpt lat="44.92363141951593" lon="11.991173047459922"><ele>-7.0</ele><time>2026-05-02T09:50:42.999Z</time></trkpt><trkpt lat="44.92353559531016" lon="11.991172963792575"><ele>-7.0</ele><time>2026-05-02T09:50:44.999Z</time></trkpt><trkpt lat="44.923439980021435" lon="11.991174813363862"><ele>-7.0</ele><time>2026-05-02T09:50:46.999Z</time></trkpt><trkpt lat="44.92334514529801" lon="11.99117841354308"><ele>-6.999999999999999</ele><time>2026-05-02T09:50:48.999Z</time></trkpt><trkpt lat="44.92324633339303" lon="11.991177990844163"><ele>-6.999999999999999</ele><time>2026-05-02T09:50:50.999Z</time></trkpt><trkpt lat="44.9231537299886" lon="11.991185533938948"><ele>-7.0</ele><time>2026-05-02T09:50:52.999Z</time></trkpt><trkpt lat="44.92305538624701" lon="11.9911922658229"><ele>-7.0</ele><time>2026-05-02T09:50:54.999Z</time></trkpt><trkpt lat="44.92295628651981" lon="11.991185768277006"><ele>-7.0</ele><time>2026-05-02T09:50:56.999Z</time></trkpt><trkpt lat="44.92285994672869" lon="11.99118938714149"><ele>-6.999999999999999</ele><time>2026-05-02T09:50:58.999Z</time></trkpt><trkpt lat="44.92276399642528" lon="11.991184869811757"><ele>-6.999999999999999</ele><time>2026-05-02T09:51:00.999Z</time></trkpt><trkpt lat="44.92266661812543" lon="11.991187116184511"><ele>-7.0</ele><time>2026-05-02T09:51:02.999Z</time></trkpt><trkpt lat="44.92256937474056" lon="11.991197071459876"><ele>-7.0</ele><time>2026-05-02T09:51:04.999Z</time></trkpt><trkpt lat="44.92247405864978" lon="11.99119226232"><ele>-6.8</ele><time>2026-05-02T09:51:06.999Z</time></trkpt><trkpt lat="44.92237867953615" lon="11.991187800567715"><ele>-6.6</ele><time>2026-05-02T09:51:08.999Z</time></trkpt><trkpt lat="44.92228805132287" lon="11.991190924359012"><ele>-6.3999999999999995</ele><time>2026-05-02T09:51:10.999Z</time></trkpt><trkpt lat="44.922196502309774" lon="11.991192616641941"><ele>-6.199999999999999</ele><time>2026-05-02T09:51:12.999Z</time></trkpt><trkpt lat="44.92209876260311" lon="11.991193420219627"><ele>-6.0</ele><time>2026-05-02T09:51:14.999Z</time></trkpt><trkpt lat="44.92200340860877" lon="11.99119229361256"><ele>-6.0</ele><time>2026-05-02T09:51:16.999Z</time></trkpt><trkpt lat="44.921904610596165" lon="11.991200197368311"><ele>-6.0</ele><time>2026-05-02T09:51:18.999Z</time></trkpt><trkpt lat="44.921808179869636" lon="11.99120336586065"><ele>-6.0</ele><time>2026-05-02T09:51:20.999Z</time></trkpt><trkpt lat="44.92171355300096" lon="11.991204436599817"><ele>-6.0</ele><time>2026-05-02T09:51:22.999Z</time></trkpt><trkpt lat="44.92162193571238" lon="11.99120796585499"><ele>-6.0</ele><time>2026-05-02T09:51:24.999Z</time></trkpt><trkpt lat="44.921525729861386" lon="11.991214702147682"><ele>-6.0</ele><time>2026-05-02T09:51:26.999Z</time></trkpt><trkpt lat="44.92143121524966" lon="11.991214129904373"><ele>-6.0</ele><time>2026-05-02T09:51:28.999Z</time></trkpt><trkpt lat="44.92133461189426" lon="11.991217897990712"><ele>-6.0</ele><time>2026-05-02T09:51:30.999Z</time></trkpt><trkpt lat="44.92124072786711" lon="11.99121862723399"><ele>-6.0</ele><time>2026-05-02T09:51:32.999Z</time></trkpt><trkpt lat="44.921157561038235" lon="11.991203912389489"><ele>-6.0</ele><time>2026-05-02T09:51:34.999Z</time></trkpt><trkpt lat="44.92108596910797" lon="11.991214539333248"><ele>-6.0</ele><time>2026-05-02T09:51:36.999Z</time></trkpt><trkpt lat="44.92101753729738" lon="11.99123106876112"><ele>-6.0</ele><time>2026-05-02T09:51:38.999Z</time></trkpt><trkpt lat="44.920921133333266" lon="11.991231798181733"><ele>-6.0</ele><time>2026-05-02T09:51:40.999Z</time></trkpt><trkpt lat="44.9208202868993" lon="11.991210077803322"><ele>-6.0</ele><time>2026-05-02T09:51:42.999Z</time></trkpt><trkpt lat="44.920720096525145" lon="11.991210942816961"><ele>-6.0</ele><time>2026-05-02T09:51:45Z</time></trkpt><trkpt lat="44.92061698795141" lon="11.991213085227345"><ele>-6.0</ele><time>2026-05-02T09:51:47Z</time></trkpt><trkpt lat="44.920522253996296" lon="11.991225281002615"><ele>-6.0</ele><time>2026-05-02T09:51:49Z</time></trkpt><trkpt lat="44.92042569338531" lon="11.991218177221509"><ele>-6.0</ele><time>2026-05-02T09:51:51Z</time></trkpt><trkpt lat="44.92032861332069" lon="11.99122209477074"><ele>-6.0</ele><time>2026-05-02T09:51:53Z</time></trkpt><trkpt lat="44.920233235488574" lon="11.991225966977508"><ele>-6.0</ele><time>2026-05-02T09:51:55Z</time></trkpt><trkpt lat="44.92013727781583" lon="11.99123511069626"><ele>-6.0</ele><time>2026-05-02T09:51:57Z</time></trkpt><trkpt lat="44.92004037365478" lon="11.991249312625182"><ele>-6.199999999999999</ele><time>2026-05-02T09:51:59Z</time></trkpt><trkpt lat="44.91994442724779" lon="11.991245894845301"><ele>-6.3999999999999995</ele><time>2026-05-02T09:52:01Z</time></trkpt><trkpt lat="44.91984316297276" lon="11.99124771901576"><ele>-6.6</ele><time>2026-05-02T09:52:03Z</time></trkpt><trkpt lat="44.919748836907026" lon="11.991242847456947"><ele>-6.8</ele><time>2026-05-02T09:52:05Z</time></trkpt><trkpt lat="44.91965593662905" lon="11.991233098039375"><ele>-7.0</ele><time>2026-05-02T09:52:07Z</time></trkpt><trkpt lat="44.919558672628305" lon="11.991252738894518"><ele>-7.0</ele><time>2026-05-02T09:52:09Z</time></trkpt><trkpt lat="44.91946068293827" lon="11.991255340141596"><ele>-6.999999999999999</ele><time>2026-05-02T09:52:11Z</time></trkpt><trkpt lat="44.91936624264586" lon="11.991252727572126"><ele>-6.999999999999999</ele><time>2026-05-02T09:52:13Z</time></trkpt><trkpt lat="44.91927116377767" lon="11.99123591453069"><ele>-7.0</ele><time>2026-05-02T09:52:15Z</time></trkpt><trkpt lat="44.91917622969335" lon="11.991238746960644"><ele>-7.0</ele><time>2026-05-02T09:52:17Z</time></trkpt><trkpt lat="44.91908105023339" lon="11.99124952606014"><ele>-6.8</ele><time>2026-05-02T09:52:19Z</time></trkpt><trkpt lat="44.918986640113495" lon="11.991252722616709"><ele>-6.6</ele><time>2026-05-02T09:52:21Z</time></trkpt><trkpt lat="44.91888892072796" lon="11.991255032837897"><ele>-6.3999999999999995</ele><time>2026-05-02T09:52:23Z</time></trkpt><trkpt lat="44.91879256617027" lon="11.991257907665675"><ele>-6.199999999999999</ele><time>2026-05-02T09:52:25Z</time></trkpt><trkpt lat="44.91870026468827" lon="11.991260104072746"><ele>-6.0</ele><time>2026-05-02T09:52:27Z</time></trkpt><trkpt lat="44.91861380293335" lon="11.991264197674528"><ele>-6.0</ele><time>2026-05-02T09:52:29Z</time></trkpt><trkpt lat="44.918527768477404" lon="11.991263693329552"><ele>-6.0</ele><time>2026-05-02T09:52:31Z</time></trkpt><trkpt lat="44.918435712781346" lon="11.991263272172166"><ele>-6.0</ele><time>2026-05-02T09:52:33Z</time></trkpt><trkpt lat="44.91834101392481" lon="11.991262015228704"><ele>-6.0</ele><time>2026-05-02T09:52:34.999Z</time></trkpt><trkpt lat="44.91824784126546" lon="11.991258197187703"><ele>-6.0</ele><time>2026-05-02T09:52:36.999Z</time></trkpt><trkpt lat="44.91815374103383" lon="11.991260298273358"><ele>-6.333333333333333</ele><time>2026-05-02T09:52:38.999Z</time></trkpt><trkpt lat="44.918059997177146" lon="11.99126416365055"><ele>-6.666666666666666</ele><time>2026-05-02T09:52:40.999Z</time></trkpt><trkpt lat="44.91797063449798" lon="11.991262637704857"><ele>-7.0</ele><time>2026-05-02T09:52:42.999Z</time></trkpt><trkpt lat="44.917882442361154" lon="11.991261469797278"><ele>-7.333333333333333</ele><time>2026-05-02T09:52:44.999Z</time></trkpt><trkpt lat="44.91780376330454" lon="11.991267786592735"><ele>-7.666666666666666</ele><time>2026-05-02T09:52:46.999Z</time></trkpt><trkpt lat="44.917716904071426" lon="11.99126585868285"><ele>-8.0</ele><time>2026-05-02T09:52:48.999Z</time></trkpt><trkpt lat="44.917626598335545" lon="11.99126385979496"><ele>-7.800000000000001</ele><time>2026-05-02T09:52:50.999Z</time></trkpt><trkpt lat="44.91753275693452" lon="11.991263027124829"><ele>-7.6000000000000005</ele><time>2026-05-02T09:52:52.999Z</time></trkpt><trkpt lat="44.917440026181545" lon="11.991272802764458"><ele>-7.3999999999999995</ele><time>2026-05-02T09:52:54.999Z</time></trkpt><trkpt lat="44.91734899170541" lon="11.991281551000048"><ele>-7.199999999999999</ele><time>2026-05-02T09:52:56.999Z</time></trkpt><trkpt lat="44.91725695255668" lon="11.991281211533812"><ele>-7.0</ele><time>2026-05-02T09:52:58.999Z</time></trkpt><trkpt lat="44.917169514513986" lon="11.991282093283877"><ele>-7.000000000000001</ele><time>2026-05-02T09:53:00.999Z</time></trkpt><trkpt lat="44.917087089342985" lon="11.991285851112663"><ele>-7.0</ele><time>2026-05-02T09:53:02.999Z</time></trkpt><trkpt lat="44.91700135043328" lon="11.991289917758301"><ele>-7.0</ele><time>2026-05-02T09:53:04.999Z</time></trkpt><trkpt lat="44.9169066422355" lon="11.991279658194438"><ele>-7.0</ele><time>2026-05-02T09:53:06.999Z</time></trkpt><trkpt lat="44.91682235572852" lon="11.991289769395785"><ele>-7.000000000000001</ele><time>2026-05-02T09:53:08.999Z</time></trkpt><trkpt lat="44.916733770083056" lon="11.99129132839735"><ele>-7.0</ele><time>2026-05-02T09:53:10.999Z</time></trkpt><trkpt lat="44.916641817934526" lon="11.99129331667681"><ele>-6.833333333333334</ele><time>2026-05-02T09:53:12.999Z</time></trkpt><trkpt lat="44.91654648590569" lon="11.99128647329315"><ele>-6.666666666666667</ele><time>2026-05-02T09:53:14.999Z</time></trkpt><trkpt lat="44.916456064578384" lon="11.9912876569486"><ele>-6.5</ele><time>2026-05-02T09:53:16.999Z</time></trkpt><trkpt lat="44.91637303142772" lon="11.991284907614753"><ele>-6.333333333333334</ele><time>2026-05-02T09:53:18.999Z</time></trkpt><trkpt lat="44.91628852830967" lon="11.991284062441968"><ele>-6.166666666666667</ele><time>2026-05-02T09:53:20.999Z</time></trkpt><trkpt lat="44.91619530269712" lon="11.99128515381413"><ele>-6.0</ele><time>2026-05-02T09:53:22.999Z</time></trkpt><trkpt lat="44.9161108086516" lon="11.991287299370214"><ele>-6.0</ele><time>2026-05-02T09:53:24.999Z</time></trkpt><trkpt lat="44.916031984481236" lon="11.991284104572797"><ele>-6.0</ele><time>2026-05-02T09:53:26.999Z</time></trkpt><trkpt lat="44.915951223992685" lon="11.99128530299582"><ele>-6.0</ele><time>2026-05-02T09:53:28.999Z</time></trkpt><trkpt lat="44.91585750405411" lon="11.991294413410756"><ele>-6.0</ele><time>2026-05-02T09:53:30.999Z</time></trkpt><trkpt lat="44.91576118351128" lon="11.991297510989039"><ele>-6.0</ele><time>2026-05-02T09:53:32.999Z</time></trkpt><trkpt lat="44.91566805715292" lon="11.99129406751245"><ele>-6.0</ele><time>2026-05-02T09:53:34.999Z</time></trkpt><trkpt lat="44.915573781056004" lon="11.99129579544497"><ele>-5.8</ele><time>2026-05-02T09:53:36.999Z</time></trkpt><trkpt lat="44.91547873219434" lon="11.991296827030197"><ele>-5.6</ele><time>2026-05-02T09:53:38.999Z</time></trkpt><trkpt lat="44.91538329248762" lon="11.99130330873983"><ele>-5.4</ele><time>2026-05-02T09:53:40.999Z</time></trkpt><trkpt lat="44.915287203577854" lon="11.991317068321695"><ele>-5.2</ele><time>2026-05-02T09:53:42.999Z</time></trkpt><trkpt lat="44.91518981079397" lon="11.991319214490959"><ele>-5.0</ele><time>2026-05-02T09:53:44.999Z</time></trkpt><trkpt lat="44.915096935122634" lon="11.991315996458649"><ele>-4.8</ele><time>2026-05-02T09:53:46.999Z</time></trkpt><trkpt lat="44.91500099662036" lon="11.991313278475442"><ele>-4.6</ele><time>2026-05-02T09:53:48.999Z</time></trkpt><trkpt lat="44.91490648591172" lon="11.991317203395893"><ele>-4.4</ele><time>2026-05-02T09:53:50.999Z</time></trkpt><trkpt lat="44.9148123234513" lon="11.99131879958432"><ele>-4.2</ele><time>2026-05-02T09:53:52.999Z</time></trkpt><trkpt lat="44.91471669348887" lon="11.991325542239444"><ele>-4.0</ele><time>2026-05-02T09:53:54.999Z</time></trkpt><trkpt lat="44.91462212124782" lon="11.991320787689322"><ele>-4.0</ele><time>2026-05-02T09:53:56.999Z</time></trkpt><trkpt lat="44.91452744758186" lon="11.991324115844874"><ele>-4.0</ele><time>2026-05-02T09:53:58.999Z</time></trkpt><trkpt lat="44.91443160640848" lon="11.991322474733403"><ele>-4.0</ele><time>2026-05-02T09:54:00.999Z</time></trkpt><trkpt lat="44.91434075902519" lon="11.991321466008605"><ele>-4.0</ele><time>2026-05-02T09:54:02.999Z</time></trkpt><trkpt lat="44.91424072083374" lon="11.991314864903336"><ele>-4.0</ele><time>2026-05-02T09:54:04.999Z</time></trkpt><trkpt lat="44.91414556963031" lon="11.991324061287923"><ele>-4.166666666666666</ele><time>2026-05-02T09:54:06.999Z</time></trkpt><trkpt lat="44.914050980861695" lon="11.99132409025674"><ele>-4.333333333333333</ele><time>2026-05-02T09:54:08.999Z</time></trkpt><trkpt lat="44.91395869039182" lon="11.991323380286588"><ele>-4.5</ele><time>2026-05-02T09:54:10.999Z</time></trkpt><trkpt lat="44.913866558940526" lon="11.991323932367699"><ele>-4.666666666666667</ele><time>2026-05-02T09:54:12.999Z</time></trkpt><trkpt lat="44.91378073544106" lon="11.9913240252768"><ele>-4.833333333333334</ele><time>2026-05-02T09:54:14.999Z</time></trkpt><trkpt lat="44.913700737780445" lon="11.991318009436757"><ele>-5.0</ele><time>2026-05-02T09:54:16.999Z</time></trkpt><trkpt lat="44.9136128821479" lon="11.99131948782617"><ele>-5.0</ele><time>2026-05-02T09:54:18.999Z</time></trkpt><trkpt lat="44.9135165605192" lon="11.99132259819694"><ele>-5.0</ele><time>2026-05-02T09:54:20.999Z</time></trkpt><trkpt lat="44.91342180883899" lon="11.991319818556882"><ele>-5.0</ele><time>2026-05-02T09:54:22.999Z</time></trkpt><trkpt lat="44.913329371836674" lon="11.991322454804253"><ele>-5.0</ele><time>2026-05-02T09:54:24.999Z</time></trkpt><trkpt lat="44.91324741626928" lon="11.991316566355868"><ele>-5.0</ele><time>2026-05-02T09:54:26.999Z</time></trkpt><trkpt lat="44.91317328412936" lon="11.99130814536173"><ele>-5.0</ele><time>2026-05-02T09:54:28.999Z</time></trkpt><trkpt lat="44.9130914607789" lon="11.991308005843086"><ele>-5.0</ele><time>2026-05-02T09:54:30.999Z</time></trkpt><trkpt lat="44.913011029243656" lon="11.991312651463177"><ele>-5.0</ele><time>2026-05-02T09:54:32.999Z</time></trkpt><trkpt lat="44.91292095330379" lon="11.99131218645649"><ele>-5.0</ele><time>2026-05-02T09:54:34.999Z</time></trkpt><trkpt lat="44.91282894422651" lon="11.991306576181294"><ele>-5.0</ele><time>2026-05-02T09:54:36.999Z</time></trkpt><trkpt lat="44.912736253627834" lon="11.991295063881061"><ele>-5.0</ele><time>2026-05-02T09:54:38.999Z</time></trkpt><trkpt lat="44.91264626133716" lon="11.991298161819037"><ele>-5.0</ele><time>2026-05-02T09:54:40.999Z</time></trkpt><trkpt lat="44.91256671818007" lon="11.991289377744852"><ele>-5.166666666666667</ele><time>2026-05-02T09:54:42.999Z</time></trkpt><trkpt lat="44.912492869251025" lon="11.991286256173078"><ele>-5.333333333333334</ele><time>2026-05-02T09:54:44.999Z</time></trkpt><trkpt lat="44.91242186146293" lon="11.991286793443937"><ele>-5.5</ele><time>2026-05-02T09:54:46.999Z</time></trkpt><trkpt lat="44.912339284802485" lon="11.99128181578386"><ele>-5.666666666666667</ele><time>2026-05-02T09:54:48.999Z</time></trkpt><trkpt lat="44.912247583411464" lon="11.991272005774254"><ele>-5.833333333333333</ele><time>2026-05-02T09:54:50.999Z</time></trkpt><trkpt lat="44.912158014997495" lon="11.99126680575984"><ele>-6.0</ele><time>2026-05-02T09:54:52.999Z</time></trkpt><trkpt lat="44.91207498917129" lon="11.991259428086959"><ele>-5.999999999999999</ele><time>2026-05-02T09:54:54.999Z</time></trkpt><trkpt lat="44.912004377319285" lon="11.991260740019253"><ele>-6.0</ele><time>2026-05-02T09:54:56.999Z</time></trkpt><trkpt lat="44.911938320243884" lon="11.991253479036603"><ele>-6.0</ele><time>2026-05-02T09:54:58.999Z</time></trkpt><trkpt lat="44.91185653983696" lon="11.991246263284197"><ele>-6.0</ele><time>2026-05-02T09:55:01.999Z</time></trkpt><trkpt lat="44.91178707022136" lon="11.991248993008599"><ele>-6.0</ele><time>2026-05-02T09:55:03.999Z</time></trkpt><trkpt lat="44.9117187171961" lon="11.99123771281583"><ele>-5.999999999999999</ele><time>2026-05-02T09:55:05.999Z</time></trkpt><trkpt lat="44.91165145245836" lon="11.991243106918331"><ele>-6.0</ele><time>2026-05-02T09:55:07.999Z</time></trkpt><trkpt lat="44.91156686214168" lon="11.99122808201608"><ele>-6.166666666666667</ele><time>2026-05-02T09:55:09.999Z</time></trkpt><trkpt lat="44.911476863793936" lon="11.991223190317916"><ele>-6.333333333333334</ele><time>2026-05-02T09:55:11.999Z</time></trkpt><trkpt lat="44.911384652580786" lon="11.991219945453443"><ele>-6.5</ele><time>2026-05-02T09:55:13.999Z</time></trkpt><trkpt lat="44.91129833691279" lon="11.991213807033365"><ele>-6.666666666666667</ele><time>2026-05-02T09:55:15.999Z</time></trkpt><trkpt lat="44.91121353927027" lon="11.991204279281735"><ele>-6.833333333333334</ele><time>2026-05-02T09:55:17.999Z</time></trkpt><trkpt lat="44.91112376293225" lon="11.991195044013486"><ele>-7.0</ele><time>2026-05-02T09:55:19.999Z</time></trkpt><trkpt lat="44.9110311103281" lon="11.991188469691751"><ele>-7.0</ele><time>2026-05-02T09:55:21.999Z</time></trkpt><trkpt lat="44.9109446171202" lon="11.991189526253635"><ele>-6.999999999999999</ele><time>2026-05-02T09:55:23.999Z</time></trkpt><trkpt lat="44.910855149337245" lon="11.99117824042668"><ele>-6.999999999999999</ele><time>2026-05-02T09:55:25.999Z</time></trkpt><trkpt lat="44.910765877833676" lon="11.99116905567508"><ele>-7.0</ele><time>2026-05-02T09:55:27.999Z</time></trkpt><trkpt lat="44.91067155870764" lon="11.99116631980765"><ele>-7.0</ele><time>2026-05-02T09:55:29.999Z</time></trkpt><trkpt lat="44.9105772954651" lon="11.991159071362276"><ele>-7.166666666666667</ele><time>2026-05-02T09:55:31.999Z</time></trkpt><trkpt lat="44.91048540465586" lon="11.991155020320734"><ele>-7.333333333333334</ele><time>2026-05-02T09:55:33.999Z</time></trkpt><trkpt lat="44.910398281782115" lon="11.991151259490728"><ele>-7.5</ele><time>2026-05-02T09:55:35.999Z</time></trkpt><trkpt lat="44.91031886169346" lon="11.991143205224189"><ele>-7.666666666666666</ele><time>2026-05-02T09:55:37.999Z</time></trkpt><trkpt lat="44.9102501002016" lon="11.991138724728044"><ele>-7.833333333333333</ele><time>2026-05-02T09:55:39.999Z</time></trkpt><trkpt lat="44.910181616411734" lon="11.991137202822484"><ele>-8.0</ele><time>2026-05-02T09:55:41.999Z</time></trkpt><trkpt lat="44.91009741157843" lon="11.991131916908861"><ele>-7.666666666666666</ele><time>2026-05-02T09:55:43.999Z</time></trkpt><trkpt lat="44.91000760507915" lon="11.9911257234439"><ele>-7.333333333333333</ele><time>2026-05-02T09:55:45.999Z</time></trkpt><trkpt lat="44.909914389102376" lon="11.991118859636604"><ele>-7.0</ele><time>2026-05-02T09:55:47.999Z</time></trkpt><trkpt lat="44.90982728893374" lon="11.991112248647461"><ele>-6.666666666666666</ele><time>2026-05-02T09:55:49.999Z</time></trkpt><trkpt lat="44.90974750359592" lon="11.991107762551483"><ele>-6.333333333333333</ele><time>2026-05-02T09:55:51.999Z</time></trkpt><trkpt lat="44.90967510267249" lon="11.991101013888594"><ele>-6.0</ele><time>2026-05-02T09:55:53.999Z</time></trkpt><trkpt lat="44.90960062331971" lon="11.991100498029185"><ele>-6.0</ele><time>2026-05-02T09:55:55.999Z</time></trkpt><trkpt lat="44.90951829249708" lon="11.991091479149722"><ele>-6.0</ele><time>2026-05-02T09:55:57.999Z</time></trkpt><trkpt lat="44.9094338949941" lon="11.991085430585711"><ele>-6.0</ele><time>2026-05-02T09:55:59.999Z</time></trkpt><trkpt lat="44.90934581138646" lon="11.991080768431074"><ele>-6.0</ele><time>2026-05-02T09:56:01.999Z</time></trkpt><trkpt lat="44.90925607732638" lon="11.991079671939511"><ele>-6.0</ele><time>2026-05-02T09:56:03.999Z</time></trkpt><trkpt lat="44.90916964048497" lon="11.991068121771965"><ele>-6.0</ele><time>2026-05-02T09:56:05.999Z</time></trkpt><trkpt lat="44.9090815041345" lon="11.9910654960233"><ele>-5.666666666666667</ele><time>2026-05-02T09:56:07.999Z</time></trkpt><trkpt lat="44.908986839524786" lon="11.991062920111588"><ele>-5.333333333333333</ele><time>2026-05-02T09:56:09.999Z</time></trkpt><trkpt lat="44.90889860524399" lon="11.991057865843338"><ele>-5.0</ele><time>2026-05-02T09:56:11.999Z</time></trkpt><trkpt lat="44.9088206993501" lon="11.991046423414273"><ele>-4.666666666666666</ele><time>2026-05-02T09:56:13.999Z</time></trkpt><trkpt lat="44.908736108516415" lon="11.991041019810092"><ele>-4.333333333333333</ele><time>2026-05-02T09:56:15.999Z</time></trkpt><trkpt lat="44.908642826710505" lon="11.991039656554117"><ele>-4.0</ele><time>2026-05-02T09:56:17.999Z</time></trkpt><trkpt lat="44.90856178356865" lon="11.991022280194752"><ele>-3.9999999999999996</ele><time>2026-05-02T09:56:19.999Z</time></trkpt><trkpt lat="44.908478793387516" lon="11.991025529497964"><ele>-4.0</ele><time>2026-05-02T09:56:21.999Z</time></trkpt><trkpt lat="44.90840595486391" lon="11.991018240104031"><ele>-4.0</ele><time>2026-05-02T09:56:23.999Z</time></trkpt><trkpt lat="44.908323368304885" lon="11.991029300342793"><ele>-4.0</ele><time>2026-05-02T09:56:26.999Z</time></trkpt><trkpt lat="44.90827223654462" lon="11.991115793115648"><ele>-3.9999999999999996</ele><time>2026-05-02T09:56:29.999Z</time></trkpt><trkpt lat="44.90829010984164" lon="11.991203224419994"><ele>-4.0</ele><time>2026-05-02T09:56:31.999Z</time></trkpt><trkpt lat="44.90830332287895" lon="11.991323014451815"><ele>-3.9999999999999996</ele><time>2026-05-02T09:56:33.999Z</time></trkpt><trkpt lat="44.908329352140974" lon="11.991439322700012"><ele>-4.0</ele><time>2026-05-02T09:56:35.999Z</time></trkpt><trkpt lat="44.90835152984626" lon="11.991543908749218"><ele>-4.0</ele><time>2026-05-02T09:56:37.999Z</time></trkpt><trkpt lat="44.908359559804964" lon="11.99163937483313"><ele>-4.0</ele><time>2026-05-02T09:56:39.999Z</time></trkpt><trkpt lat="44.908385156296525" lon="11.991752516185885"><ele>-3.9999999999999996</ele><time>2026-05-02T09:56:41.999Z</time></trkpt><trkpt lat="44.90840967786067" lon="11.991874677234739"><ele>-4.0</ele><time>2026-05-02T09:56:43.999Z</time></trkpt><trkpt lat="44.90843247631937" lon="11.991992259786658"><ele>-4.5</ele><time>2026-05-02T09:56:45.999Z</time></trkpt><trkpt lat="44.90845513353282" lon="11.992106171788853"><ele>-5.0</ele><time>2026-05-02T09:56:47.999Z</time></trkpt><trkpt lat="44.90846669587574" lon="11.992219462558799"><ele>-5.5</ele><time>2026-05-02T09:56:49.999Z</time></trkpt><trkpt lat="44.90849513585559" lon="11.99232740073812"><ele>-6.0</ele><time>2026-05-02T09:56:51.999Z</time></trkpt><trkpt lat="44.908512498196934" lon="11.992434045887181"><ele>-6.500000000000001</ele><time>2026-05-02T09:56:53.999Z</time></trkpt><trkpt lat="44.90852094520608" lon="11.992539364448788"><ele>-7.0</ele><time>2026-05-02T09:56:55.999Z</time></trkpt><trkpt lat="44.90854270303365" lon="11.99265227911652"><ele>-7.0</ele><time>2026-05-02T09:56:57.999Z</time></trkpt><trkpt lat="44.908563225287125" lon="11.992784132161011"><ele>-6.999999999999999</ele><time>2026-05-02T09:56:59.999Z</time></trkpt><trkpt lat="44.908592232794334" lon="11.992924461624478"><ele>-6.999999999999999</ele><time>2026-05-02T09:57:01.999Z</time></trkpt><trkpt lat="44.90861797497054" lon="11.993075541231782"><ele>-7.0</ele><time>2026-05-02T09:57:03.999Z</time></trkpt><trkpt lat="44.90864403111724" lon="11.99320983817141"><ele>-7.0</ele><time>2026-05-02T09:57:05.999Z</time></trkpt><trkpt lat="44.908658045984666" lon="11.993334700947559"><ele>-6.833333333333334</ele><time>2026-05-02T09:57:07.999Z</time></trkpt><trkpt lat="44.908684274572416" lon="11.993459008974664"><ele>-6.666666666666667</ele><time>2026-05-02T09:57:09.999Z</time></trkpt><trkpt lat="44.90870940555349" lon="11.993580974740832"><ele>-6.5</ele><time>2026-05-02T09:57:11.999Z</time></trkpt><trkpt lat="44.908728457992325" lon="11.993700843628567"><ele>-6.333333333333334</ele><time>2026-05-02T09:57:13.999Z</time></trkpt><trkpt lat="44.90874683690655" lon="11.99382529643632"><ele>-6.166666666666667</ele><time>2026-05-02T09:57:15.999Z</time></trkpt><trkpt lat="44.908769047494566" lon="11.993939072825203"><ele>-6.0</ele><time>2026-05-02T09:57:17.999Z</time></trkpt><trkpt lat="44.908791544743465" lon="11.994064349269996"><ele>-5.6</ele><time>2026-05-02T09:57:19.999Z</time></trkpt><trkpt lat="44.908818493550044" lon="11.99419297092924"><ele>-5.199999999999999</ele><time>2026-05-02T09:57:21.999Z</time></trkpt><trkpt lat="44.90883737160462" lon="11.994328165436908"><ele>-4.800000000000001</ele><time>2026-05-02T09:57:23.999Z</time></trkpt><trkpt lat="44.908858026614816" lon="11.99445626222704"><ele>-4.4</ele><time>2026-05-02T09:57:25.999Z</time></trkpt><trkpt lat="44.90889761705297" lon="11.994578117216392"><ele>-4.0</ele><time>2026-05-02T09:57:27.999Z</time></trkpt><trkpt lat="44.908936351939026" lon="11.994691124339024"><ele>-3.9999999999999996</ele><time>2026-05-02T09:57:29.999Z</time></trkpt><trkpt lat="44.908949773887464" lon="11.994810485186505"><ele>-4.0</ele><time>2026-05-02T09:57:31.999Z</time></trkpt><trkpt lat="44.908952181357115" lon="11.994930029710716"><ele>-4.0</ele><time>2026-05-02T09:57:33.999Z</time></trkpt><trkpt lat="44.90897086160159" lon="11.995045407731117"><ele>-4.0</ele><time>2026-05-02T09:57:35.999Z</time></trkpt><trkpt lat="44.908991120434685" lon="11.995147010554133"><ele>-3.9999999999999996</ele><time>2026-05-02T09:57:37.999Z</time></trkpt><trkpt lat="44.90900735049518" lon="11.995238234299645"><ele>-4.0</ele><time>2026-05-02T09:57:39.999Z</time></trkpt><trkpt lat="44.90902761787689" lon="11.995364253333216"><ele>-4.333333333333333</ele><time>2026-05-02T09:57:42.999Z</time></trkpt><trkpt lat="44.90903885347121" lon="11.995468914415747"><ele>-4.666666666666666</ele><time>2026-05-02T09:57:44.999Z</time></trkpt><trkpt lat="44.909063238769825" lon="11.995591630811216"><ele>-5.0</ele><time>2026-05-02T09:57:46.999Z</time></trkpt><trkpt lat="44.90908372593835" lon="11.995716368737375"><ele>-5.333333333333333</ele><time>2026-05-02T09:57:48.999Z</time></trkpt><trkpt lat="44.90910089644466" lon="11.99583289606716"><ele>-5.666666666666667</ele><time>2026-05-02T09:57:50.999Z</time></trkpt><trkpt lat="44.909120734382356" lon="11.995937544848015"><ele>-6.0</ele><time>2026-05-02T09:57:52.999Z</time></trkpt><trkpt lat="44.90913453372922" lon="11.996028797588767"><ele>-6.166666666666667</ele><time>2026-05-02T09:57:54.999Z</time></trkpt><trkpt lat="44.90915412080639" lon="11.996144671545201"><ele>-6.333333333333334</ele><time>2026-05-02T09:57:56.999Z</time></trkpt><trkpt lat="44.90917386699081" lon="11.99625633279863"><ele>-6.5</ele><time>2026-05-02T09:57:58.999Z</time></trkpt><trkpt lat="44.90919339439239" lon="11.996363249654653"><ele>-6.666666666666667</ele><time>2026-05-02T09:58:00.999Z</time></trkpt><trkpt lat="44.90921437598779" lon="11.996483882231473"><ele>-6.833333333333334</ele><time>2026-05-02T09:58:02.999Z</time></trkpt><trkpt lat="44.90923480463244" lon="11.996607930580588"><ele>-7.0</ele><time>2026-05-02T09:58:04.999Z</time></trkpt><trkpt lat="44.90925697113537" lon="11.996731707527143"><ele>-7.166666666666667</ele><time>2026-05-02T09:58:06.999Z</time></trkpt><trkpt lat="44.909280348461145" lon="11.996860751712834"><ele>-7.333333333333334</ele><time>2026-05-02T09:58:08.999Z</time></trkpt><trkpt lat="44.90930440417667" lon="11.996979177759892"><ele>-7.5</ele><time>2026-05-02T09:58:10.999Z</time></trkpt><trkpt lat="44.909327513498525" lon="11.997102906744155"><ele>-7.666666666666666</ele><time>2026-05-02T09:58:12.999Z</time></trkpt><trkpt lat="44.90935062569912" lon="11.997220456244307"><ele>-7.833333333333333</ele><time>2026-05-02T09:58:14.999Z</time></trkpt><trkpt lat="44.9093685034471" lon="11.99732525311656"><ele>-8.0</ele><time>2026-05-02T09:58:17Z</time></trkpt><trkpt lat="44.90938995026486" lon="11.997430916444944"><ele>-7.857142857142857</ele><time>2026-05-02T09:58:19Z</time></trkpt><trkpt lat="44.90940213659445" lon="11.997536311655313"><ele>-7.7142857142857135</ele><time>2026-05-02T09:58:21Z</time></trkpt><trkpt lat="44.9093428848301" lon="11.997595392770316"><ele>-7.571428571428571</ele><time>2026-05-02T09:58:24Z</time></trkpt><trkpt lat="44.90925881675149" lon="11.997581853110875"><ele>-7.428571428571429</ele><time>2026-05-02T09:58:27Z</time></trkpt><trkpt lat="44.909190336620036" lon="11.997572359300138"><ele>-7.285714285714286</ele><time>2026-05-02T09:58:29Z</time></trkpt><trkpt lat="44.90912417320403" lon="11.997575990081279"><ele>-7.142857142857142</ele><time>2026-05-02T09:58:31Z</time></trkpt><trkpt lat="44.90904324987498" lon="11.997577075601855"><ele>-7.0</ele><time>2026-05-02T09:58:33Z</time></trkpt><trkpt lat="44.908956213784364" lon="11.99758037611389"><ele>-6.833333333333334</ele><time>2026-05-02T09:58:35Z</time></trkpt><trkpt lat="44.90886956988172" lon="11.997584523697917"><ele>-6.666666666666667</ele><time>2026-05-02T09:58:37Z</time></trkpt><trkpt lat="44.90878273397868" lon="11.997586261137947"><ele>-6.5</ele><time>2026-05-02T09:58:39Z</time></trkpt><trkpt lat="44.90869405050914" lon="11.997591556607956"><ele>-6.333333333333334</ele><time>2026-05-02T09:58:41Z</time></trkpt><trkpt lat="44.9086037066194" lon="11.997591733584438"><ele>-6.166666666666667</ele><time>2026-05-02T09:58:43Z</time></trkpt><trkpt lat="44.90851242720043" lon="11.997594678621914"><ele>-6.0</ele><time>2026-05-02T09:58:45Z</time></trkpt><trkpt lat="44.90842020898725" lon="11.997596414876629"><ele>-6.0</ele><time>2026-05-02T09:58:47Z</time></trkpt><trkpt lat="44.90833155669574" lon="11.99759809774181"><ele>-6.0</ele><time>2026-05-02T09:58:49Z</time></trkpt><trkpt lat="44.908240606948574" lon="11.997596318867227"><ele>-6.0</ele><time>2026-05-02T09:58:51Z</time></trkpt><trkpt lat="44.90815025003336" lon="11.997602188694048"><ele>-6.0</ele><time>2026-05-02T09:58:53Z</time></trkpt><trkpt lat="44.90805804018592" lon="11.99760021493318"><ele>-6.0</ele><time>2026-05-02T09:58:55Z</time></trkpt><trkpt lat="44.90796884600748" lon="11.997605514161632"><ele>-6.0</ele><time>2026-05-02T09:58:57Z</time></trkpt><trkpt lat="44.90787694619116" lon="11.997609604970936"><ele>-6.0</ele><time>2026-05-02T09:58:59Z</time></trkpt><trkpt lat="44.90778387173805" lon="11.997610750027869"><ele>-6.0</ele><time>2026-05-02T09:59:01Z</time></trkpt><trkpt lat="44.907693051173446" lon="11.997609632914333"><ele>-6.0</ele><time>2026-05-02T09:59:03Z</time></trkpt><trkpt lat="44.907600797491966" lon="11.99760937287138"><ele>-6.0</ele><time>2026-05-02T09:59:05Z</time></trkpt><trkpt lat="44.90750733320996" lon="11.997615725698921"><ele>-6.0</ele><time>2026-05-02T09:59:07Z</time></trkpt><trkpt lat="44.90741624535332" lon="11.99761375950131"><ele>-6.0</ele><time>2026-05-02T09:59:09Z</time></trkpt><trkpt lat="44.90732451589126" lon="11.99761803744739"><ele>-6.0</ele><time>2026-05-02T09:59:11Z</time></trkpt><trkpt lat="44.9072314503553" lon="11.997624356453052"><ele>-6.0</ele><time>2026-05-02T09:59:13Z</time></trkpt><trkpt lat="44.90714075551693" lon="11.997623972913596"><ele>-6.0</ele><time>2026-05-02T09:59:15Z</time></trkpt><trkpt lat="44.90705264935687" lon="11.997624956664485"><ele>-6.0</ele><time>2026-05-02T09:59:17Z</time></trkpt><trkpt lat="44.906961523296225" lon="11.997624622022652"><ele>-6.0</ele><time>2026-05-02T09:59:19Z</time></trkpt><trkpt lat="44.90687184136781" lon="11.997628797714027"><ele>-6.0</ele><time>2026-05-02T09:59:21Z</time></trkpt><trkpt lat="44.90678412913009" lon="11.997630274729714"><ele>-6.0</ele><time>2026-05-02T09:59:23Z</time></trkpt><trkpt lat="44.90669505470418" lon="11.997633900731469"><ele>-6.0</ele><time>2026-05-02T09:59:25Z</time></trkpt><trkpt lat="44.906601583562725" lon="11.99763765870825"><ele>-5.8</ele><time>2026-05-02T09:59:27Z</time></trkpt><trkpt lat="44.90651409414557" lon="11.99763498958834"><ele>-5.6</ele><time>2026-05-02T09:59:29Z</time></trkpt><trkpt lat="44.90642482504652" lon="11.997640118714356"><ele>-5.4</ele><time>2026-05-02T09:59:31Z</time></trkpt><trkpt lat="44.90633433181178" lon="11.997644185471554"><ele>-5.2</ele><time>2026-05-02T09:59:33Z</time></trkpt><trkpt lat="44.906239478077936" lon="11.99764702160845"><ele>-5.0</ele><time>2026-05-02T09:59:35Z</time></trkpt><trkpt lat="44.906145346146694" lon="11.99764238455665"><ele>-5.0</ele><time>2026-05-02T09:59:37Z</time></trkpt><trkpt lat="44.90604899946225" lon="11.997649742983121"><ele>-5.0</ele><time>2026-05-02T09:59:38.999Z</time></trkpt><trkpt lat="44.905956215851354" lon="11.99764870654785"><ele>-5.0</ele><time>2026-05-02T09:59:40.999Z</time></trkpt><trkpt lat="44.905862978338845" lon="11.99765072193946"><ele>-5.0</ele><time>2026-05-02T09:59:42.999Z</time></trkpt><trkpt lat="44.9057712767459" lon="11.997652469970188"><ele>-5.0</ele><time>2026-05-02T09:59:44.999Z</time></trkpt><trkpt lat="44.90568418261248" lon="11.997655742485236"><ele>-5.2</ele><time>2026-05-02T09:59:46.999Z</time></trkpt><trkpt lat="44.90559365436782" lon="11.997659368031451"><ele>-5.4</ele><time>2026-05-02T09:59:48.999Z</time></trkpt><trkpt lat="44.90549912847361" lon="11.997660634186621"><ele>-5.6</ele><time>2026-05-02T09:59:50.999Z</time></trkpt><trkpt lat="44.905401851546706" lon="11.99766081474191"><ele>-5.8</ele><time>2026-05-02T09:59:52.999Z</time></trkpt><trkpt lat="44.90531352691668" lon="11.997668407755503"><ele>-6.0</ele><time>2026-05-02T09:59:54.999Z</time></trkpt><trkpt lat="44.90523184859401" lon="11.997666211841377"><ele>-6.0</ele><time>2026-05-02T09:59:56.999Z</time></trkpt><trkpt lat="44.90515744288837" lon="11.997673485370449"><ele>-6.0</ele><time>2026-05-02T09:59:58.999Z</time></trkpt><trkpt lat="44.905089232828004" lon="11.997676573361765"><ele>-6.0</ele><time>2026-05-02T10:00:00.999Z</time></trkpt><trkpt lat="44.905015371891174" lon="11.997679854918472"><ele>-6.0</ele><time>2026-05-02T10:00:02.999Z</time></trkpt><trkpt lat="44.904926440738556" lon="11.997677239473479"><ele>-6.0</ele><time>2026-05-02T10:00:04.999Z</time></trkpt><trkpt lat="44.90483427031627" lon="11.997682180440872"><ele>-6.0</ele><time>2026-05-02T10:00:06.999Z</time></trkpt><trkpt lat="44.9047436179373" lon="11.997681465234932"><ele>-5.833333333333333</ele><time>2026-05-02T10:00:09Z</time></trkpt><trkpt lat="44.904655249362975" lon="11.997683531021801"><ele>-5.666666666666667</ele><time>2026-05-02T10:00:11Z</time></trkpt><trkpt lat="44.90457104474878" lon="11.997685795089"><ele>-5.5</ele><time>2026-05-02T10:00:13Z</time></trkpt><trkpt lat="44.9044808477817" lon="11.99768388968655"><ele>-5.333333333333334</ele><time>2026-05-02T10:00:15Z</time></trkpt><trkpt lat="44.9043891500375" lon="11.997687349976882"><ele>-5.166666666666667</ele><time>2026-05-02T10:00:17Z</time></trkpt><trkpt lat="44.90430187573637" lon="11.997687727685426"><ele>-5.0</ele><time>2026-05-02T10:00:19Z</time></trkpt><trkpt lat="44.90421217320632" lon="11.997693176333009"><ele>-5.0</ele><time>2026-05-02T10:00:21Z</time></trkpt><trkpt lat="44.90412118422813" lon="11.997694971701156"><ele>-5.0</ele><time>2026-05-02T10:00:23Z</time></trkpt><trkpt lat="44.904032508783224" lon="11.997692966499955"><ele>-5.0</ele><time>2026-05-02T10:00:25Z</time></trkpt><trkpt lat="44.90395528126582" lon="11.997696318708764"><ele>-5.0</ele><time>2026-05-02T10:00:27Z</time></trkpt><trkpt lat="44.90387033314606" lon="11.99769843025249"><ele>-5.0</ele><time>2026-05-02T10:00:29Z</time></trkpt><trkpt lat="44.90377664345348" lon="11.997700693343694"><ele>-5.0</ele><time>2026-05-02T10:00:31Z</time></trkpt><trkpt lat="44.9036857424945" lon="11.9976987048478"><ele>-5.0</ele><time>2026-05-02T10:00:33Z</time></trkpt><trkpt lat="44.90359062206808" lon="11.997700354865158"><ele>-5.0</ele><time>2026-05-02T10:00:35Z</time></trkpt><trkpt lat="44.903498683233046" lon="11.99770545467407"><ele>-5.0</ele><time>2026-05-02T10:00:37Z</time></trkpt><trkpt lat="44.903405021928826" lon="11.997705665800412"><ele>-5.0</ele><time>2026-05-02T10:00:39Z</time></trkpt><trkpt lat="44.90331336565161" lon="11.99770827269324"><ele>-5.0</ele><time>2026-05-02T10:00:41Z</time></trkpt><trkpt lat="44.90321910316854" lon="11.997709485728814"><ele>-5.2</ele><time>2026-05-02T10:00:43Z</time></trkpt><trkpt lat="44.90312296042399" lon="11.997710621523769"><ele>-5.4</ele><time>2026-05-02T10:00:45Z</time></trkpt><trkpt lat="44.9030293615738" lon="11.997708600402042"><ele>-5.6</ele><time>2026-05-02T10:00:47Z</time></trkpt><trkpt lat="44.90293703897333" lon="11.997709813910182"><ele>-5.8</ele><time>2026-05-02T10:00:49Z</time></trkpt><trkpt lat="44.9028516805289" lon="11.997710045031772"><ele>-6.0</ele><time>2026-05-02T10:00:51Z</time></trkpt><trkpt lat="44.90276696138216" lon="11.997712611803655"><ele>-6.0</ele><time>2026-05-02T10:00:53Z</time></trkpt><trkpt lat="44.90267190851521" lon="11.997710464842447"><ele>-6.0</ele><time>2026-05-02T10:00:55Z</time></trkpt><trkpt lat="44.90257811204214" lon="11.997712505757159"><ele>-6.0</ele><time>2026-05-02T10:00:57Z</time></trkpt><trkpt lat="44.90248390624359" lon="11.99771875195114"><ele>-6.0</ele><time>2026-05-02T10:00:59Z</time></trkpt><trkpt lat="44.9023914463756" lon="11.997718914203729"><ele>-6.0</ele><time>2026-05-02T10:01:01Z</time></trkpt><trkpt lat="44.902299369561106" lon="11.997722422647257"><ele>-6.0</ele><time>2026-05-02T10:01:03Z</time></trkpt><trkpt lat="44.90220909172031" lon="11.997721911587231"><ele>-6.0</ele><time>2026-05-02T10:01:05Z</time></trkpt><trkpt lat="44.902124253161695" lon="11.997725504615063"><ele>-6.0</ele><time>2026-05-02T10:01:07Z</time></trkpt><trkpt lat="44.90203291159009" lon="11.997727271196844"><ele>-6.0</ele><time>2026-05-02T10:01:09Z</time></trkpt><trkpt lat="44.90193887775088" lon="11.997726360486237"><ele>-6.0</ele><time>2026-05-02T10:01:11Z</time></trkpt><trkpt lat="44.901846459619726" lon="11.997733895642297"><ele>-6.0</ele><time>2026-05-02T10:01:13Z</time></trkpt><trkpt lat="44.90175409922463" lon="11.997733290179283"><ele>-6.0</ele><time>2026-05-02T10:01:15Z</time></trkpt><trkpt lat="44.90166154887455" lon="11.997736485458937"><ele>-6.0</ele><time>2026-05-02T10:01:17Z</time></trkpt><trkpt lat="44.90156862329493" lon="11.997739071749821"><ele>-6.0</ele><time>2026-05-02T10:01:19Z</time></trkpt><trkpt lat="44.90147976142134" lon="11.997738298180787"><ele>-6.0</ele><time>2026-05-02T10:01:21Z</time></trkpt><trkpt lat="44.90138797511395" lon="11.997742019778544"><ele>-5.8</ele><time>2026-05-02T10:01:23Z</time></trkpt><trkpt lat="44.90129693025907" lon="11.997751380751021"><ele>-5.6</ele><time>2026-05-02T10:01:25Z</time></trkpt><trkpt lat="44.90120507057612" lon="11.997746791034151"><ele>-5.4</ele><time>2026-05-02T10:01:27Z</time></trkpt><trkpt lat="44.90111387996448" lon="11.997746300303788"><ele>-5.2</ele><time>2026-05-02T10:01:29Z</time></trkpt><trkpt lat="44.90101882743929" lon="11.997755472377358"><ele>-5.0</ele><time>2026-05-02T10:01:31Z</time></trkpt><trkpt lat="44.90092245045579" lon="11.997752250596212"><ele>-4.833333333333334</ele><time>2026-05-02T10:01:33Z</time></trkpt><trkpt lat="44.90083238575625" lon="11.99775289738244"><ele>-4.666666666666667</ele><time>2026-05-02T10:01:35Z</time></trkpt><trkpt lat="44.900748247322156" lon="11.997751372839904"><ele>-4.5</ele><time>2026-05-02T10:01:37Z</time></trkpt><trkpt lat="44.90067288288463" lon="11.997745628550716"><ele>-4.333333333333333</ele><time>2026-05-02T10:01:39Z</time></trkpt><trkpt lat="44.9005776625688" lon="11.99775554696479"><ele>-4.166666666666666</ele><time>2026-05-02T10:01:41Z</time></trkpt><trkpt lat="44.900489521818315" lon="11.997761874541858"><ele>-4.0</ele><time>2026-05-02T10:01:43Z</time></trkpt><trkpt lat="44.900407404330586" lon="11.997768770140807"><ele>-3.9999999999999996</ele><time>2026-05-02T10:01:45Z</time></trkpt><trkpt lat="44.900332449345484" lon="11.997766286238418"><ele>-4.0</ele><time>2026-05-02T10:01:47Z</time></trkpt><trkpt lat="44.90025119311022" lon="11.997773264051764"><ele>-4.0</ele><time>2026-05-02T10:01:49Z</time></trkpt><trkpt lat="44.90017103842374" lon="11.997770321667788"><ele>-4.0</ele><time>2026-05-02T10:01:51Z</time></trkpt><trkpt lat="44.90008981172516" lon="11.99777430228366"><ele>-3.9999999999999996</ele><time>2026-05-02T10:01:53Z</time></trkpt><trkpt lat="44.89999834968708" lon="11.997776968366482"><ele>-4.0</ele><time>2026-05-02T10:01:55Z</time></trkpt><trkpt lat="44.899914287973246" lon="11.997794613192854"><ele>-4.0</ele><time>2026-05-02T10:01:57Z</time></trkpt><trkpt lat="44.899838270768335" lon="11.997805521245997"><ele>-3.9999999999999996</ele><time>2026-05-02T10:01:59Z</time></trkpt><trkpt lat="44.89976757927533" lon="11.99780412335028"><ele>-4.0</ele><time>2026-05-02T10:02:01Z</time></trkpt><trkpt lat="44.89969942976193" lon="11.997804716455146"><ele>-4.0</ele><time>2026-05-02T10:02:03Z</time></trkpt><trkpt lat="44.899635878084844" lon="11.997804330461383"><ele>-3.9999999999999996</ele><time>2026-05-02T10:02:05Z</time></trkpt><trkpt lat="44.89954935961902" lon="11.997807531357166"><ele>-4.0</ele><time>2026-05-02T10:02:08Z</time></trkpt><trkpt lat="44.8994799988438" lon="11.997809009518273"><ele>-4.0</ele><time>2026-05-02T10:02:10Z</time></trkpt><trkpt lat="44.899391145578576" lon="11.997812153720878"><ele>-3.9999999999999996</ele><time>2026-05-02T10:02:12Z</time></trkpt><trkpt lat="44.89929942349554" lon="11.997811606420989"><ele>-4.0</ele><time>2026-05-02T10:02:14Z</time></trkpt><trkpt lat="44.89920688656721" lon="11.99781675691055"><ele>-4.0</ele><time>2026-05-02T10:02:16Z</time></trkpt><trkpt lat="44.89911964730547" lon="11.997814716355158"><ele>-4.0</ele><time>2026-05-02T10:02:18Z</time></trkpt><trkpt lat="44.8990307406442" lon="11.997819261104302"><ele>-3.9999999999999996</ele><time>2026-05-02T10:02:20Z</time></trkpt><trkpt lat="44.89895152684542" lon="11.997820474144955"><ele>-4.0</ele><time>2026-05-02T10:02:22Z</time></trkpt><trkpt lat="44.898871416211634" lon="11.997822849001635"><ele>-3.9999999999999996</ele><time>2026-05-02T10:02:24Z</time></trkpt><trkpt lat="44.89878285731136" lon="11.997824673121855"><ele>-4.0</ele><time>2026-05-02T10:02:26Z</time></trkpt><trkpt lat="44.89870014243908" lon="11.997827416531992"><ele>-4.0</ele><time>2026-05-02T10:02:28Z</time></trkpt><trkpt lat="44.89861414226462" lon="11.997829548438299"><ele>-4.0</ele><time>2026-05-02T10:02:30Z</time></trkpt><trkpt lat="44.89853090563493" lon="11.997831415767097"><ele>-3.9999999999999996</ele><time>2026-05-02T10:02:32Z</time></trkpt><trkpt lat="44.89845018234233" lon="11.997833395782637"><ele>-4.0</ele><time>2026-05-02T10:02:34Z</time></trkpt><trkpt lat="44.898374384694385" lon="11.99783821671772"><ele>-4.142857142857142</ele><time>2026-05-02T10:02:36Z</time></trkpt><trkpt lat="44.89829970638206" lon="11.997841305623496"><ele>-4.285714285714286</ele><time>2026-05-02T10:02:38Z</time></trkpt><trkpt lat="44.898228566608125" lon="11.997836955430152"><ele>-4.428571428571429</ele><time>2026-05-02T10:02:40Z</time></trkpt><trkpt lat="44.89816317299786" lon="11.997841638129511"><ele>-4.571428571428571</ele><time>2026-05-02T10:02:42Z</time></trkpt><trkpt lat="44.89809987902983" lon="11.997841791867478"><ele>-4.714285714285714</ele><time>2026-05-02T10:02:44Z</time></trkpt><trkpt lat="44.8980158405373" lon="11.997844206533733"><ele>-4.857142857142857</ele><time>2026-05-02T10:02:46Z</time></trkpt><trkpt lat="44.89794063988845" lon="11.997842815027083"><ele>-5.0</ele><time>2026-05-02T10:02:48Z</time></trkpt><trkpt lat="44.897874369466805" lon="11.997842784998474"><ele>-5.0</ele><time>2026-05-02T10:02:50Z</time></trkpt><trkpt lat="44.8978010472469" lon="11.997855739107028"><ele>-5.0</ele><time>2026-05-02T10:02:53Z</time></trkpt><trkpt lat="44.89779680023481" lon="11.997972075667594"><ele>-5.0</ele><time>2026-05-02T10:02:56Z</time></trkpt><trkpt lat="44.897808667945206" lon="11.998085879888668"><ele>-5.0</ele><time>2026-05-02T10:02:59Z</time></trkpt><trkpt lat="44.897804842224694" lon="11.998194957380672"><ele>-5.0</ele><time>2026-05-02T10:03:01Z</time></trkpt><trkpt lat="44.89780604288799" lon="11.998295614403125"><ele>-5.0</ele><time>2026-05-02T10:03:03Z</time></trkpt><trkpt lat="44.89780672666159" lon="11.998399853084795"><ele>-5.0</ele><time>2026-05-02T10:03:05Z</time></trkpt><trkpt lat="44.89780877026088" lon="11.998497640695298"><ele>-5.0</ele><time>2026-05-02T10:03:07Z</time></trkpt><trkpt lat="44.89780973704002" lon="11.998586868209202"><ele>-5.0</ele><time>2026-05-02T10:03:09Z</time></trkpt><trkpt lat="44.897809431080795" lon="11.998686039551007"><ele>-5.0</ele><time>2026-05-02T10:03:11Z</time></trkpt><trkpt lat="44.89781095607742" lon="11.99880928973632"><ele>-5.0</ele><time>2026-05-02T10:03:13Z</time></trkpt><trkpt lat="44.8978108266219" lon="11.998935807873202"><ele>-5.0</ele><time>2026-05-02T10:03:15Z</time></trkpt><trkpt lat="44.89781460892839" lon="11.999063005322322"><ele>-5.142857142857142</ele><time>2026-05-02T10:03:17Z</time></trkpt><trkpt lat="44.897813574627484" lon="11.999176767560115"><ele>-5.285714285714286</ele><time>2026-05-02T10:03:19Z</time></trkpt><trkpt lat="44.89781385785604" lon="11.999284191611785"><ele>-5.428571428571429</ele><time>2026-05-02T10:03:21Z</time></trkpt><trkpt lat="44.89781212410989" lon="11.999380739604925"><ele>-5.571428571428571</ele><time>2026-05-02T10:03:23Z</time></trkpt><trkpt lat="44.89781540871611" lon="11.999474795690922"><ele>-5.714285714285714</ele><time>2026-05-02T10:03:25Z</time></trkpt><trkpt lat="44.897812364301146" lon="11.999588018933123"><ele>-5.857142857142857</ele><time>2026-05-02T10:03:27Z</time></trkpt><trkpt lat="44.897814254488026" lon="11.999683266659458"><ele>-6.0</ele><time>2026-05-02T10:03:29Z</time></trkpt><trkpt lat="44.89781300570012" lon="11.999809965711297"><ele>-6.0</ele><time>2026-05-02T10:03:32Z</time></trkpt><trkpt lat="44.89781564028638" lon="11.999921041382677"><ele>-6.0</ele><time>2026-05-02T10:03:35Z</time></trkpt><trkpt lat="44.897814751343866" lon="12.000050207219044"><ele>-6.0</ele><time>2026-05-02T10:03:38Z</time></trkpt><trkpt lat="44.89781364432525" lon="12.000159320263004"><ele>-6.0</ele><time>2026-05-02T10:03:40Z</time></trkpt><trkpt lat="44.897817126803055" lon="12.000280998108437"><ele>-6.0</ele><time>2026-05-02T10:03:42Z</time></trkpt><trkpt lat="44.897818813536986" lon="12.000410575263118"><ele>-6.0</ele><time>2026-05-02T10:03:44Z</time></trkpt><trkpt lat="44.89781768025489" lon="12.000541106489754"><ele>-6.0</ele><time>2026-05-02T10:03:46Z</time></trkpt><trkpt lat="44.8978184714244" lon="12.000671142139074"><ele>-6.0</ele><time>2026-05-02T10:03:48Z</time></trkpt><trkpt lat="44.89782010093489" lon="12.000803938493158"><ele>-6.0</ele><time>2026-05-02T10:03:50Z</time></trkpt><trkpt lat="44.897817242089566" lon="12.000933215672982"><ele>-6.0</ele><time>2026-05-02T10:03:52Z</time></trkpt><trkpt lat="44.897817894702875" lon="12.00106190019655"><ele>-6.0</ele><time>2026-05-02T10:03:54Z</time></trkpt><trkpt lat="44.897816259238915" lon="12.001174325267838"><ele>-6.0</ele><time>2026-05-02T10:03:56Z</time></trkpt><trkpt lat="44.897819202576635" lon="12.001281687730769"><ele>-6.0</ele><time>2026-05-02T10:03:58Z</time></trkpt><trkpt lat="44.8978154741963" lon="12.00138101528334"><ele>-6.0</ele><time>2026-05-02T10:04:00Z</time></trkpt><trkpt lat="44.897814269993724" lon="12.001473351125592"><ele>-6.0</ele><time>2026-05-02T10:04:02Z</time></trkpt><trkpt lat="44.89781303163597" lon="12.001564637376818"><ele>-6.0</ele><time>2026-05-02T10:04:04Z</time></trkpt><trkpt lat="44.89781811473273" lon="12.001682248402863"><ele>-6.0</ele><time>2026-05-02T10:04:06Z</time></trkpt><trkpt lat="44.89782034077967" lon="12.001805000045982"><ele>-6.0</ele><time>2026-05-02T10:04:08Z</time></trkpt><trkpt lat="44.89782110262032" lon="12.001930685106016"><ele>-6.0</ele><time>2026-05-02T10:04:10Z</time></trkpt><trkpt lat="44.89780619562248" lon="12.002049458872921"><ele>-6.0</ele><time>2026-05-02T10:04:12Z</time></trkpt><trkpt lat="44.89781249198397" lon="12.002168024978928"><ele>-6.0</ele><time>2026-05-02T10:04:14Z</time></trkpt><trkpt lat="44.89780843832824" lon="12.002295202029295"><ele>-6.0</ele><time>2026-05-02T10:04:16Z</time></trkpt><trkpt lat="44.8978082951966" lon="12.002423557631985"><ele>-6.0</ele><time>2026-05-02T10:04:18Z</time></trkpt><trkpt lat="44.89781157961371" lon="12.002551042762658"><ele>-6.0</ele><time>2026-05-02T10:04:20Z</time></trkpt><trkpt lat="44.89781617915979" lon="12.002685052124393"><ele>-5.8</ele><time>2026-05-02T10:04:22Z</time></trkpt><trkpt lat="44.89781583033874" lon="12.00281988342315"><ele>-5.6</ele><time>2026-05-02T10:04:24Z</time></trkpt><trkpt lat="44.89781640278289" lon="12.002952630677783"><ele>-5.4</ele><time>2026-05-02T10:04:26Z</time></trkpt><trkpt lat="44.897816698657294" lon="12.003083139610458"><ele>-5.2</ele><time>2026-05-02T10:04:28Z</time></trkpt><trkpt lat="44.897814813702084" lon="12.003208874891142"><ele>-5.0</ele><time>2026-05-02T10:04:30Z</time></trkpt><trkpt lat="44.897819159855445" lon="12.003328041217737"><ele>-5.0</ele><time>2026-05-02T10:04:32Z</time></trkpt><trkpt lat="44.897820957646275" lon="12.003452091621694"><ele>-5.0</ele><time>2026-05-02T10:04:34Z</time></trkpt><trkpt lat="44.89781951899253" lon="12.00358215774061"><ele>-5.0</ele><time>2026-05-02T10:04:36Z</time></trkpt><trkpt lat="44.897821575295104" lon="12.003707369804522"><ele>-5.0</ele><time>2026-05-02T10:04:38Z</time></trkpt><trkpt lat="44.89782294344769" lon="12.003841580461962"><ele>-5.0</ele><time>2026-05-02T10:04:40Z</time></trkpt><trkpt lat="44.89782125614467" lon="12.003975159941097"><ele>-5.0</ele><time>2026-05-02T10:04:42Z</time></trkpt><trkpt lat="44.8978265573221" lon="12.004107234558523"><ele>-5.0</ele><time>2026-05-02T10:04:44Z</time></trkpt><trkpt lat="44.89782069698439" lon="12.004223356404012"><ele>-5.0</ele><time>2026-05-02T10:04:46Z</time></trkpt><trkpt lat="44.897825876124664" lon="12.004333579845323"><ele>-5.0</ele><time>2026-05-02T10:04:48Z</time></trkpt><trkpt lat="44.89781767065876" lon="12.004495468582865"><ele>-5.0</ele><time>2026-05-02T10:04:51Z</time></trkpt><trkpt lat="44.8978200609315" lon="12.004592557328126"><ele>-5.0</ele><time>2026-05-02T10:04:53Z</time></trkpt><trkpt lat="44.897828281640926" lon="12.004704516021356"><ele>-5.166666666666667</ele><time>2026-05-02T10:04:55Z</time></trkpt><trkpt lat="44.89786591723092" lon="12.004802315451276"><ele>-5.333333333333334</ele><time>2026-05-02T10:04:58Z</time></trkpt><trkpt lat="44.897849586546116" lon="12.004898526839462"><ele>-5.5</ele><time>2026-05-02T10:05:00Z</time></trkpt><trkpt lat="44.89784190341507" lon="12.005031425859103"><ele>-5.666666666666667</ele><time>2026-05-02T10:05:02Z</time></trkpt><trkpt lat="44.89785127770006" lon="12.005153978514128"><ele>-5.833333333333333</ele><time>2026-05-02T10:05:04Z</time></trkpt><trkpt lat="44.89785104901951" lon="12.005272823493362"><ele>-6.0</ele><time>2026-05-02T10:05:06Z</time></trkpt><trkpt lat="44.89786347906755" lon="12.00540553431453"><ele>-6.0</ele><time>2026-05-02T10:05:08Z</time></trkpt><trkpt lat="44.89786957191829" lon="12.005542346690481"><ele>-6.0</ele><time>2026-05-02T10:05:10Z</time></trkpt><trkpt lat="44.897872474412424" lon="12.00568052630868"><ele>-6.0</ele><time>2026-05-02T10:05:12Z</time></trkpt><trkpt lat="44.89786945652722" lon="12.005804464136842"><ele>-6.0</ele><time>2026-05-02T10:05:14Z</time></trkpt><trkpt lat="44.89786973652775" lon="12.005924719379797"><ele>-6.0</ele><time>2026-05-02T10:05:16Z</time></trkpt><trkpt lat="44.89786439630734" lon="12.006029267027378"><ele>-6.0</ele><time>2026-05-02T10:05:18Z</time></trkpt><trkpt lat="44.897855649408015" lon="12.006145271398832"><ele>-6.0</ele><time>2026-05-02T10:05:20Z</time></trkpt><trkpt lat="44.897854544308466" lon="12.006258825682824"><ele>-6.0</ele><time>2026-05-02T10:05:22Z</time></trkpt><trkpt lat="44.89784834598707" lon="12.006379670454926"><ele>-6.0</ele><time>2026-05-02T10:05:24Z</time></trkpt><trkpt lat="44.897849563530926" lon="12.006515738367897"><ele>-6.0</ele><time>2026-05-02T10:05:26Z</time></trkpt><trkpt lat="44.89785544335635" lon="12.006653471158069"><ele>-6.0</ele><time>2026-05-02T10:05:28Z</time></trkpt><trkpt lat="44.89785702315525" lon="12.00678331308448"><ele>-6.0</ele><time>2026-05-02T10:05:30Z</time></trkpt><trkpt lat="44.897851317463285" lon="12.006895046686644"><ele>-6.0</ele><time>2026-05-02T10:05:32Z</time></trkpt><trkpt lat="44.89785048091497" lon="12.006993499606436"><ele>-6.0</ele><time>2026-05-02T10:05:34Z</time></trkpt><trkpt lat="44.897863282229245" lon="12.007117616110902"><ele>-6.0</ele><time>2026-05-02T10:05:36Z</time></trkpt><trkpt lat="44.897874234367315" lon="12.007235404875109"><ele>-6.0</ele><time>2026-05-02T10:05:38Z</time></trkpt><trkpt lat="44.897878930131185" lon="12.00735760384164"><ele>-6.0</ele><time>2026-05-02T10:05:40Z</time></trkpt><trkpt lat="44.89787760786437" lon="12.007469806781787"><ele>-6.166666666666667</ele><time>2026-05-02T10:05:42Z</time></trkpt><trkpt lat="44.89786924956776" lon="12.007575548426884"><ele>-6.333333333333334</ele><time>2026-05-02T10:05:44Z</time></trkpt><trkpt lat="44.89786859868057" lon="12.007679153458673"><ele>-6.5</ele><time>2026-05-02T10:05:46Z</time></trkpt><trkpt lat="44.897875046219546" lon="12.007812024357555"><ele>-6.666666666666667</ele><time>2026-05-02T10:05:49Z</time></trkpt><trkpt lat="44.897872490632544" lon="12.007952472307709"><ele>-6.833333333333334</ele><time>2026-05-02T10:05:52Z</time></trkpt><trkpt lat="44.8978690923826" lon="12.008050416777493"><ele>-7.0</ele><time>2026-05-02T10:05:54Z</time></trkpt><trkpt lat="44.8978718667071" lon="12.008140545381787"><ele>-7.000000000000001</ele><time>2026-05-02T10:05:56Z</time></trkpt><trkpt lat="44.89786949921909" lon="12.008267572264954"><ele>-7.0</ele><time>2026-05-02T10:05:59Z</time></trkpt><trkpt lat="44.89786201053159" lon="12.008398340113734"><ele>-7.0</ele><time>2026-05-02T10:06:02Z</time></trkpt><trkpt lat="44.897869682171134" lon="12.008506226750098"><ele>-7.0</ele><time>2026-05-02T10:06:04Z</time></trkpt><trkpt lat="44.89786962683085" lon="12.008601334262694"><ele>-7.000000000000001</ele><time>2026-05-02T10:06:06Z</time></trkpt><trkpt lat="44.897858419282876" lon="12.00873833234621"><ele>-7.0</ele><time>2026-05-02T10:06:09Z</time></trkpt><trkpt lat="44.897861840512384" lon="12.008863247759809"><ele>-7.0</ele><time>2026-05-02T10:06:11Z</time></trkpt><trkpt lat="44.89787355773719" lon="12.008996251821888"><ele>-6.999999999999999</ele><time>2026-05-02T10:06:13Z</time></trkpt><trkpt lat="44.89786787722518" lon="12.009121812768239"><ele>-6.999999999999999</ele><time>2026-05-02T10:06:15Z</time></trkpt><trkpt lat="44.897865882863705" lon="12.00924941049449"><ele>-7.0</ele><time>2026-05-02T10:06:17Z</time></trkpt><trkpt lat="44.89787505492491" lon="12.009380886436983"><ele>-7.0</ele><time>2026-05-02T10:06:19Z</time></trkpt><trkpt lat="44.897874976290375" lon="12.00951045165202"><ele>-7.0</ele><time>2026-05-02T10:06:21Z</time></trkpt><trkpt lat="44.89786883657332" lon="12.009636929593524"><ele>-6.999999999999999</ele><time>2026-05-02T10:06:23Z</time></trkpt><trkpt lat="44.89787402937892" lon="12.009771082323995"><ele>-6.999999999999999</ele><time>2026-05-02T10:06:25Z</time></trkpt><trkpt lat="44.89788150307357" lon="12.009904204655967"><ele>-7.0</ele><time>2026-05-02T10:06:27Z</time></trkpt><trkpt lat="44.897885424570525" lon="12.010035564129684"><ele>-7.0</ele><time>2026-05-02T10:06:29Z</time></trkpt><trkpt lat="44.897877809721045" lon="12.010157987331368"><ele>-6.833333333333334</ele><time>2026-05-02T10:06:31Z</time></trkpt><trkpt lat="44.89787993941864" lon="12.01027502665788"><ele>-6.666666666666667</ele><time>2026-05-02T10:06:33Z</time></trkpt><trkpt lat="44.89788618694143" lon="12.010384385254385"><ele>-6.5</ele><time>2026-05-02T10:06:35Z</time></trkpt><trkpt lat="44.89789026972842" lon="12.010493625217084"><ele>-6.333333333333334</ele><time>2026-05-02T10:06:37Z</time></trkpt><trkpt lat="44.897884633778766" lon="12.010594883306291"><ele>-6.166666666666667</ele><time>2026-05-02T10:06:39Z</time></trkpt><trkpt lat="44.897882378515185" lon="12.010708899906543"><ele>-6.0</ele><time>2026-05-02T10:06:41Z</time></trkpt><trkpt lat="44.897882328993546" lon="12.010833730183496"><ele>-5.833333333333333</ele><time>2026-05-02T10:06:43Z</time></trkpt><trkpt lat="44.89787979478283" lon="12.010968080187773"><ele>-5.666666666666667</ele><time>2026-05-02T10:06:45Z</time></trkpt><trkpt lat="44.89787958187711" lon="12.011099211128474"><ele>-5.5</ele><time>2026-05-02T10:06:47Z</time></trkpt><trkpt lat="44.897885180526956" lon="12.011227167155331"><ele>-5.333333333333334</ele><time>2026-05-02T10:06:49Z</time></trkpt><trkpt lat="44.89788050115663" lon="12.011349110462197"><ele>-5.166666666666667</ele><time>2026-05-02T10:06:51Z</time></trkpt><trkpt lat="44.89788239239058" lon="12.01146534712567"><ele>-5.0</ele><time>2026-05-02T10:06:53Z</time></trkpt><trkpt lat="44.897881219896384" lon="12.011575747060748"><ele>-4.833333333333334</ele><time>2026-05-02T10:06:55Z</time></trkpt><trkpt lat="44.89788730278385" lon="12.011679456531905"><ele>-4.666666666666667</ele><time>2026-05-02T10:06:57Z</time></trkpt><trkpt lat="44.897883513557964" lon="12.011801341054271"><ele>-4.5</ele><time>2026-05-02T10:06:59Z</time></trkpt><trkpt lat="44.89788108791476" lon="12.011921995752902"><ele>-4.333333333333333</ele><time>2026-05-02T10:07:01Z</time></trkpt><trkpt lat="44.89788060909379" lon="12.012049318195935"><ele>-4.166666666666666</ele><time>2026-05-02T10:07:03Z</time></trkpt><trkpt lat="44.89788832970541" lon="12.012177941239093"><ele>-4.0</ele><time>2026-05-02T10:07:05Z</time></trkpt><trkpt lat="44.897891995964386" lon="12.012306686677919"><ele>-3.9999999999999996</ele><time>2026-05-02T10:07:07Z</time></trkpt><trkpt lat="44.8978917535791" lon="12.01243163961032"><ele>-4.0</ele><time>2026-05-02T10:07:09Z</time></trkpt><trkpt lat="44.89789662199316" lon="12.012539632580612"><ele>-4.0</ele><time>2026-05-02T10:07:11Z</time></trkpt><trkpt lat="44.89789420396369" lon="12.012641255983372"><ele>-4.0</ele><time>2026-05-02T10:07:13Z</time></trkpt><trkpt lat="44.89789306633614" lon="12.012751178633511"><ele>-3.9999999999999996</ele><time>2026-05-02T10:07:15Z</time></trkpt><trkpt lat="44.89789740293882" lon="12.012874359782465"><ele>-4.0</ele><time>2026-05-02T10:07:17Z</time></trkpt><trkpt lat="44.89789848285806" lon="12.01299063269359"><ele>-3.9999999999999996</ele><time>2026-05-02T10:07:19Z</time></trkpt><trkpt lat="44.89789121311328" lon="12.013107014877166"><ele>-4.0</ele><time>2026-05-02T10:07:21Z</time></trkpt><trkpt lat="44.89789072145886" lon="12.013216299778819"><ele>-4.0</ele><time>2026-05-02T10:07:23Z</time></trkpt><trkpt lat="44.89789366407817" lon="12.01332461419319"><ele>-4.0</ele><time>2026-05-02T10:07:25Z</time></trkpt><trkpt lat="44.8978985834154" lon="12.013444534488128"><ele>-3.9999999999999996</ele><time>2026-05-02T10:07:27Z</time></trkpt><trkpt lat="44.897901923873384" lon="12.013573384643609"><ele>-4.0</ele><time>2026-05-02T10:07:29Z</time></trkpt><trkpt lat="44.89789995631953" lon="12.01370461442255"><ele>-3.9999999999999996</ele><time>2026-05-02T10:07:31Z</time></trkpt><trkpt lat="44.897896585764194" lon="12.013834419578336"><ele>-4.0</ele><time>2026-05-02T10:07:33Z</time></trkpt><trkpt lat="44.89789887174507" lon="12.013953899654926"><ele>-4.0</ele><time>2026-05-02T10:07:35Z</time></trkpt><trkpt lat="44.897903066551414" lon="12.014067312190122"><ele>-4.0</ele><time>2026-05-02T10:07:37Z</time></trkpt><trkpt lat="44.897900369653264" lon="12.01417436449088"><ele>-3.9999999999999996</ele><time>2026-05-02T10:07:39Z</time></trkpt><trkpt lat="44.897895628367785" lon="12.01428267177647"><ele>-4.0</ele><time>2026-05-02T10:07:41Z</time></trkpt><trkpt lat="44.89790070798696" lon="12.014404060778755"><ele>-3.9999999999999996</ele><time>2026-05-02T10:07:43Z</time></trkpt><trkpt lat="44.89790136040878" lon="12.014509394045032"><ele>-4.0</ele><time>2026-05-02T10:07:45Z</time></trkpt><trkpt lat="44.897908602427876" lon="12.014618297881963"><ele>-4.0</ele><time>2026-05-02T10:07:47Z</time></trkpt><trkpt lat="44.89790781870456" lon="12.014724951639376"><ele>-4.0</ele><time>2026-05-02T10:07:49Z</time></trkpt><trkpt lat="44.897907139274565" lon="12.014833759975176"><ele>-3.9999999999999996</ele><time>2026-05-02T10:07:51Z</time></trkpt><trkpt lat="44.89790471327575" lon="12.01494415387592"><ele>-4.0</ele><time>2026-05-02T10:07:53Z</time></trkpt><trkpt lat="44.8979055518839" lon="12.015073515432164"><ele>-4.2</ele><time>2026-05-02T10:07:55Z</time></trkpt><trkpt lat="44.897908178235795" lon="12.015202974190583"><ele>-4.4</ele><time>2026-05-02T10:07:57Z</time></trkpt><trkpt lat="44.897903662975985" lon="12.015340389176675"><ele>-4.6</ele><time>2026-05-02T10:07:59Z</time></trkpt><trkpt lat="44.897909139884845" lon="12.015475131660507"><ele>-4.8</ele><time>2026-05-02T10:08:01Z</time></trkpt><trkpt lat="44.89790760238561" lon="12.015610145183883"><ele>-5.0</ele><time>2026-05-02T10:08:03Z</time></trkpt><trkpt lat="44.89790907431356" lon="12.015744752386588"><ele>-4.833333333333334</ele><time>2026-05-02T10:08:05Z</time></trkpt><trkpt lat="44.89790940631248" lon="12.015869168793929"><ele>-4.666666666666667</ele><time>2026-05-02T10:08:07Z</time></trkpt><trkpt lat="44.89791023017752" lon="12.01598566168928"><ele>-4.5</ele><time>2026-05-02T10:08:09Z</time></trkpt><trkpt lat="44.89791590585734" lon="12.016101094969729"><ele>-4.333333333333333</ele><time>2026-05-02T10:08:11Z</time></trkpt><trkpt lat="44.89791351312807" lon="12.016217615922667"><ele>-4.166666666666666</ele><time>2026-05-02T10:08:13Z</time></trkpt><trkpt lat="44.89791388339535" lon="12.016344215996293"><ele>-4.0</ele><time>2026-05-02T10:08:15Z</time></trkpt><trkpt lat="44.897916403272134" lon="12.016470931457624"><ele>-3.9999999999999996</ele><time>2026-05-02T10:08:17Z</time></trkpt><trkpt lat="44.897915970700545" lon="12.016593418646682"><ele>-4.0</ele><time>2026-05-02T10:08:19Z</time></trkpt><trkpt lat="44.89791779887985" lon="12.016704519089183"><ele>-4.0</ele><time>2026-05-02T10:08:21Z</time></trkpt><trkpt lat="44.897916368092474" lon="12.01682701837321"><ele>-4.0</ele><time>2026-05-02T10:08:23Z</time></trkpt><trkpt lat="44.89791860537174" lon="12.016939662034613"><ele>-3.9999999999999996</ele><time>2026-05-02T10:08:25Z</time></trkpt><trkpt lat="44.89792223334356" lon="12.01704242014233"><ele>-4.0</ele><time>2026-05-02T10:08:27Z</time></trkpt><trkpt lat="44.89791932832892" lon="12.017150437515529"><ele>-4.0</ele><time>2026-05-02T10:08:29Z</time></trkpt><trkpt lat="44.89791873747698" lon="12.017281185685384"><ele>-4.0</ele><time>2026-05-02T10:08:31Z</time></trkpt><trkpt lat="44.89792101743457" lon="12.017411409147853"><ele>-4.0</ele><time>2026-05-02T10:08:33Z</time></trkpt><trkpt lat="44.89792441115168" lon="12.017544815063621"><ele>-4.0</ele><time>2026-05-02T10:08:35Z</time></trkpt><trkpt lat="44.897925818270664" lon="12.017680494486461"><ele>-4.0</ele><time>2026-05-02T10:08:37Z</time></trkpt><trkpt lat="44.89792465572285" lon="12.017814049566882"><ele>-4.166666666666666</ele><time>2026-05-02T10:08:39Z</time></trkpt><trkpt lat="44.89792323299601" lon="12.017947570514766"><ele>-4.333333333333333</ele><time>2026-05-02T10:08:41Z</time></trkpt><trkpt lat="44.89792258379078" lon="12.018078379996009"><ele>-4.5</ele><time>2026-05-02T10:08:43Z</time></trkpt><trkpt lat="44.89792853694618" lon="12.018206660960272"><ele>-4.666666666666667</ele><time>2026-05-02T10:08:45Z</time></trkpt><trkpt lat="44.89792900191373" lon="12.018321499733242"><ele>-4.833333333333334</ele><time>2026-05-02T10:08:47Z</time></trkpt><trkpt lat="44.89793056627403" lon="12.01843292346799"><ele>-5.0</ele><time>2026-05-02T10:08:49Z</time></trkpt><trkpt lat="44.897929589707715" lon="12.018554748108013"><ele>-5.0</ele><time>2026-05-02T10:08:51Z</time></trkpt><trkpt lat="44.89793418246021" lon="12.018682931470696"><ele>-5.0</ele><time>2026-05-02T10:08:53Z</time></trkpt><trkpt lat="44.89793794235386" lon="12.018797362363687"><ele>-5.0</ele><time>2026-05-02T10:08:55Z</time></trkpt><trkpt lat="44.897938118781404" lon="12.018917434911035"><ele>-5.0</ele><time>2026-05-02T10:08:57Z</time></trkpt><trkpt lat="44.89793958692748" lon="12.019035528153072"><ele>-5.0</ele><time>2026-05-02T10:08:59Z</time></trkpt><trkpt lat="44.89793943978507" lon="12.019142084790085"><ele>-5.0</ele><time>2026-05-02T10:09:01Z</time></trkpt><trkpt lat="44.897939918948715" lon="12.019249379592472"><ele>-5.166666666666667</ele><time>2026-05-02T10:09:03Z</time></trkpt><trkpt lat="44.89793880278985" lon="12.01936674456202"><ele>-5.333333333333334</ele><time>2026-05-02T10:09:05Z</time></trkpt><trkpt lat="44.89793791750696" lon="12.019474490926589"><ele>-5.5</ele><time>2026-05-02T10:09:07Z</time></trkpt><trkpt lat="44.89794075290524" lon="12.019577316824575"><ele>-5.666666666666667</ele><time>2026-05-02T10:09:09Z</time></trkpt><trkpt lat="44.89794241023757" lon="12.01969832332505"><ele>-5.833333333333333</ele><time>2026-05-02T10:09:11Z</time></trkpt><trkpt lat="44.89794198506001" lon="12.01981814548488"><ele>-6.0</ele><time>2026-05-02T10:09:13Z</time></trkpt><trkpt lat="44.89794272942655" lon="12.019936446483023"><ele>-6.0</ele><time>2026-05-02T10:09:15Z</time></trkpt><trkpt lat="44.89794085140422" lon="12.02004984351478"><ele>-6.0</ele><time>2026-05-02T10:09:17Z</time></trkpt><trkpt lat="44.897944165004006" lon="12.020167059569614"><ele>-6.0</ele><time>2026-05-02T10:09:19Z</time></trkpt><trkpt lat="44.89794257051842" lon="12.020295138013894"><ele>-6.0</ele><time>2026-05-02T10:09:21Z</time></trkpt><trkpt lat="44.897938852882426" lon="12.020427556450363"><ele>-6.0</ele><time>2026-05-02T10:09:23Z</time></trkpt><trkpt lat="44.897944146777704" lon="12.020558538041517"><ele>-6.0</ele><time>2026-05-02T10:09:25Z</time></trkpt><trkpt lat="44.89794337332392" lon="12.020742899602652"><ele>-5.666666666666667</ele><time>2026-05-02T10:09:28Z</time></trkpt><trkpt lat="44.89794566538247" lon="12.020855620519301"><ele>-5.333333333333333</ele><time>2026-05-02T10:09:30Z</time></trkpt><trkpt lat="44.89794123175594" lon="12.020965734498414"><ele>-5.0</ele><time>2026-05-02T10:09:32Z</time></trkpt><trkpt lat="44.89794530826035" lon="12.021070700768226"><ele>-4.666666666666666</ele><time>2026-05-02T10:09:34Z</time></trkpt><trkpt lat="44.897949568764375" lon="12.021188420019419"><ele>-4.333333333333333</ele><time>2026-05-02T10:09:36Z</time></trkpt><trkpt lat="44.897946739328795" lon="12.021295007617155"><ele>-4.0</ele><time>2026-05-02T10:09:38Z</time></trkpt><trkpt lat="44.89794693681486" lon="12.021407712769955"><ele>-3.9999999999999996</ele><time>2026-05-02T10:09:40Z</time></trkpt><trkpt lat="44.89795530549459" lon="12.021523460130476"><ele>-4.0</ele><time>2026-05-02T10:09:42Z</time></trkpt><trkpt lat="44.89794865038513" lon="12.021620313801511"><ele>-4.0</ele><time>2026-05-02T10:09:44Z</time></trkpt><trkpt lat="44.89793502895776" lon="12.02174837685893"><ele>-4.0</ele><time>2026-05-02T10:09:47Z</time></trkpt><trkpt lat="44.897918938927155" lon="12.021834544436176"><ele>-3.9999999999999996</ele><time>2026-05-02T10:09:49Z</time></trkpt><trkpt lat="44.89786552424776" lon="12.021889463726612"><ele>-4.0</ele><time>2026-05-02T10:09:51Z</time></trkpt><trkpt lat="44.89777652161727" lon="12.021890809328179"><ele>-3.9999999999999996</ele><time>2026-05-02T10:09:53Z</time></trkpt><trkpt lat="44.89769644661455" lon="12.021819873310145"><ele>-4.0</ele><time>2026-05-02T10:09:55Z</time></trkpt><trkpt lat="44.89762282458695" lon="12.021756994018673"><ele>-4.0</ele><time>2026-05-02T10:09:57Z</time></trkpt><trkpt lat="44.897551235637856" lon="12.021710809837778"><ele>-4.0</ele><time>2026-05-02T10:09:59Z</time></trkpt><trkpt lat="44.897483482471394" lon="12.021674684132806"><ele>-3.9999999999999996</ele><time>2026-05-02T10:10:01Z</time></trkpt><trkpt lat="44.89740397218717" lon="12.021643321830044"><ele>-4.0</ele><time>2026-05-02T10:10:03Z</time></trkpt><trkpt lat="44.89731753207036" lon="12.021613962581226"><ele>-3.833333333333333</ele><time>2026-05-02T10:10:05Z</time></trkpt><trkpt lat="44.8972438292422" lon="12.02157678489031"><ele>-3.6666666666666665</ele><time>2026-05-02T10:10:07Z</time></trkpt><trkpt lat="44.897173687083644" lon="12.021544549871908"><ele>-3.5</ele><time>2026-05-02T10:10:09Z</time></trkpt><trkpt lat="44.8971006111371" lon="12.021543017320418"><ele>-3.333333333333333</ele><time>2026-05-02T10:10:11Z</time></trkpt><trkpt lat="44.89701765572316" lon="12.021512003779286"><ele>-3.1666666666666665</ele><time>2026-05-02T10:10:13Z</time></trkpt><trkpt lat="44.896934029434796" lon="12.021489928343199"><ele>-3.0</ele><time>2026-05-02T10:10:15Z</time></trkpt><trkpt lat="44.89685657301363" lon="12.021461900386488"><ele>-3.3333333333333335</ele><time>2026-05-02T10:10:17Z</time></trkpt><trkpt lat="44.896749721076205" lon="12.021452993156144"><ele>-3.666666666666667</ele><time>2026-05-02T10:10:20Z</time></trkpt><trkpt lat="44.896668603652884" lon="12.02145672737576"><ele>-4.0</ele><time>2026-05-02T10:10:22Z</time></trkpt><trkpt lat="44.89659453148517" lon="12.02148047945045"><ele>-4.333333333333334</ele><time>2026-05-02T10:10:24Z</time></trkpt><trkpt lat="44.89650063596558" lon="12.021483786965055"><ele>-4.666666666666667</ele><time>2026-05-02T10:10:27Z</time></trkpt><trkpt lat="44.896431136523795" lon="12.021465745821803"><ele>-5.0</ele><time>2026-05-02T10:10:29Z</time></trkpt><trkpt lat="44.896355868366754" lon="12.0214367282894"><ele>-5.0</ele><time>2026-05-02T10:10:31Z</time></trkpt><trkpt lat="44.89628652397" lon="12.021412942752281"><ele>-5.0</ele><time>2026-05-02T10:10:33Z</time></trkpt><trkpt lat="44.89621232072819" lon="12.021390556241668"><ele>-5.0</ele><time>2026-05-02T10:10:35Z</time></trkpt><trkpt lat="44.89614029445063" lon="12.021362689777945"><ele>-5.0</ele><time>2026-05-02T10:10:37Z</time></trkpt><trkpt lat="44.89605844388298" lon="12.021324764559536"><ele>-5.0</ele><time>2026-05-02T10:10:39Z</time></trkpt><trkpt lat="44.89597306756276" lon="12.02128258803243"><ele>-5.0</ele><time>2026-05-02T10:10:41Z</time></trkpt><trkpt lat="44.8958863230178" lon="12.021242292094072"><ele>-4.8</ele><time>2026-05-02T10:10:43Z</time></trkpt><trkpt lat="44.89580153076608" lon="12.021190964453215"><ele>-4.6</ele><time>2026-05-02T10:10:45Z</time></trkpt><trkpt lat="44.89571625146278" lon="12.02114109711779"><ele>-4.4</ele><time>2026-05-02T10:10:47Z</time></trkpt><trkpt lat="44.89563284315089" lon="12.021083998982851"><ele>-4.2</ele><time>2026-05-02T10:10:49Z</time></trkpt><trkpt lat="44.8955500702137" lon="12.021025310993823"><ele>-4.0</ele><time>2026-05-02T10:10:51Z</time></trkpt><trkpt lat="44.89546712194172" lon="12.020969303063499"><ele>-4.0</ele><time>2026-05-02T10:10:53Z</time></trkpt><trkpt lat="44.89538747069324" lon="12.020906994113455"><ele>-4.0</ele><time>2026-05-02T10:10:55Z</time></trkpt><trkpt lat="44.895310486195946" lon="12.020832923292058"><ele>-4.0</ele><time>2026-05-02T10:10:57Z</time></trkpt><trkpt lat="44.89523078414813" lon="12.020762251557766"><ele>-4.0</ele><time>2026-05-02T10:10:59Z</time></trkpt><trkpt lat="44.89515263579363" lon="12.020686165455102"><ele>-4.0</ele><time>2026-05-02T10:11:01Z</time></trkpt><trkpt lat="44.89507742057115" lon="12.020609157238173"><ele>-4.0</ele><time>2026-05-02T10:11:03Z</time></trkpt><trkpt lat="44.894998736052834" lon="12.020529568489858"><ele>-4.0</ele><time>2026-05-02T10:11:05Z</time></trkpt><trkpt lat="44.894921038655106" lon="12.02044917597473"><ele>-4.0</ele><time>2026-05-02T10:11:07Z</time></trkpt><trkpt lat="44.89484423531332" lon="12.020371133661806"><ele>-4.0</ele><time>2026-05-02T10:11:09Z</time></trkpt><trkpt lat="44.89476511649049" lon="12.02029137601426"><ele>-4.0</ele><time>2026-05-02T10:11:11Z</time></trkpt><trkpt lat="44.89468646883035" lon="12.020216924441462"><ele>-4.0</ele><time>2026-05-02T10:11:13Z</time></trkpt><trkpt lat="44.89461171241657" lon="12.020134761203455"><ele>-4.0</ele><time>2026-05-02T10:11:15Z</time></trkpt><trkpt lat="44.894535166842644" lon="12.020056043808344"><ele>-4.0</ele><time>2026-05-02T10:11:17Z</time></trkpt><trkpt lat="44.89445465637203" lon="12.019977676764425"><ele>-4.0</ele><time>2026-05-02T10:11:19Z</time></trkpt><trkpt lat="44.89437744623433" lon="12.019895891256935"><ele>-4.0</ele><time>2026-05-02T10:11:21Z</time></trkpt><trkpt lat="44.89429984823419" lon="12.019821853322265"><ele>-3.8000000000000003</ele><time>2026-05-02T10:11:23Z</time></trkpt><trkpt lat="44.894222429092395" lon="12.019746282203135"><ele>-3.6000000000000005</ele><time>2026-05-02T10:11:25Z</time></trkpt><trkpt lat="44.894148438553046" lon="12.019665214335442"><ele>-3.4</ele><time>2026-05-02T10:11:27Z</time></trkpt><trkpt lat="44.894071457455894" lon="12.019586219972242"><ele>-3.2</ele><time>2026-05-02T10:11:29Z</time></trkpt><trkpt lat="44.8939920807075" lon="12.019511846579956"><ele>-3.0</ele><time>2026-05-02T10:11:31Z</time></trkpt><trkpt lat="44.89391795731341" lon="12.019437074453894"><ele>-3.0</ele><time>2026-05-02T10:11:33Z</time></trkpt><trkpt lat="44.893842444000136" lon="12.019361655569606"><ele>-3.0</ele><time>2026-05-02T10:11:35Z</time></trkpt><trkpt lat="44.893767067028385" lon="12.019286745357386"><ele>-3.0</ele><time>2026-05-02T10:11:37Z</time></trkpt><trkpt lat="44.893689595633724" lon="12.019209371020962"><ele>-3.0</ele><time>2026-05-02T10:11:39Z</time></trkpt><trkpt lat="44.8936129407409" lon="12.01912944730451"><ele>-3.0</ele><time>2026-05-02T10:11:41Z</time></trkpt><trkpt lat="44.89353717510746" lon="12.019053962827794"><ele>-3.2</ele><time>2026-05-02T10:11:43Z</time></trkpt><trkpt lat="44.89346009467085" lon="12.018976613120568"><ele>-3.4</ele><time>2026-05-02T10:11:45Z</time></trkpt><trkpt lat="44.89338202834605" lon="12.018900247598026"><ele>-3.6000000000000005</ele><time>2026-05-02T10:11:47Z</time></trkpt><trkpt lat="44.89329988122109" lon="12.0188316104031"><ele>-3.8000000000000003</ele><time>2026-05-02T10:11:49Z</time></trkpt><trkpt lat="44.89322022498548" lon="12.018766706651366"><ele>-4.0</ele><time>2026-05-02T10:11:51Z</time></trkpt><trkpt lat="44.89313751092576" lon="12.018697326414472"><ele>-4.0</ele><time>2026-05-02T10:11:53Z</time></trkpt><trkpt lat="44.89304936678537" lon="12.018640893970588"><ele>-4.0</ele><time>2026-05-02T10:11:55Z</time></trkpt><trkpt lat="44.89296229069859" lon="12.018588710670347"><ele>-4.0</ele><time>2026-05-02T10:11:57Z</time></trkpt><trkpt lat="44.89286970002905" lon="12.018543578759669"><ele>-4.0</ele><time>2026-05-02T10:11:59Z</time></trkpt><trkpt lat="44.89277760206616" lon="12.018495404005325"><ele>-4.0</ele><time>2026-05-02T10:12:01Z</time></trkpt><trkpt lat="44.892688395436274" lon="12.018447088436432"><ele>-4.0</ele><time>2026-05-02T10:12:03Z</time></trkpt><trkpt lat="44.892598771910585" lon="12.018396428826735"><ele>-4.0</ele><time>2026-05-02T10:12:05Z</time></trkpt><trkpt lat="44.89251711143009" lon="12.018354176948685"><ele>-4.0</ele><time>2026-05-02T10:12:07Z</time></trkpt><trkpt lat="44.892428569731656" lon="12.01830698604812"><ele>-4.0</ele><time>2026-05-02T10:12:09Z</time></trkpt><trkpt lat="44.89233846759504" lon="12.018260363886855"><ele>-4.0</ele><time>2026-05-02T10:12:11Z</time></trkpt><trkpt lat="44.89224888401192" lon="12.01821109936869"><ele>-4.0</ele><time>2026-05-02T10:12:13Z</time></trkpt><trkpt lat="44.89215966734924" lon="12.018163456608782"><ele>-4.0</ele><time>2026-05-02T10:12:15Z</time></trkpt><trkpt lat="44.892071409598316" lon="12.01811509050044"><ele>-4.0</ele><time>2026-05-02T10:12:17Z</time></trkpt><trkpt lat="44.891981330287436" lon="12.018067811211376"><ele>-4.0</ele><time>2026-05-02T10:12:19Z</time></trkpt><trkpt lat="44.89189401932648" lon="12.018021217820207"><ele>-4.0</ele><time>2026-05-02T10:12:21Z</time></trkpt><trkpt lat="44.89180643683026" lon="12.017971471917575"><ele>-4.2</ele><time>2026-05-02T10:12:23Z</time></trkpt><trkpt lat="44.89171423431959" lon="12.01792492780621"><ele>-4.4</ele><time>2026-05-02T10:12:25Z</time></trkpt><trkpt lat="44.89162522986323" lon="12.017879015208962"><ele>-4.6</ele><time>2026-05-02T10:12:27Z</time></trkpt><trkpt lat="44.891536703563645" lon="12.01782962432053"><ele>-4.8</ele><time>2026-05-02T10:12:29Z</time></trkpt><trkpt lat="44.891445276078585" lon="12.017783960027785"><ele>-5.0</ele><time>2026-05-02T10:12:31Z</time></trkpt><trkpt lat="44.8913568219445" lon="12.017737471847695"><ele>-5.0</ele><time>2026-05-02T10:12:33Z</time></trkpt><trkpt lat="44.89126638045357" lon="12.01768821258341"><ele>-5.0</ele><time>2026-05-02T10:12:35Z</time></trkpt><trkpt lat="44.89117630082807" lon="12.017640324937615"><ele>-5.0</ele><time>2026-05-02T10:12:37Z</time></trkpt><trkpt lat="44.89108911108383" lon="12.017597145671125"><ele>-5.0</ele><time>2026-05-02T10:12:39Z</time></trkpt><trkpt lat="44.890995196674446" lon="12.017545488153575"><ele>-5.0</ele><time>2026-05-02T10:12:41Z</time></trkpt><trkpt lat="44.89090659366184" lon="12.017495169911223"><ele>-4.8</ele><time>2026-05-02T10:12:43Z</time></trkpt><trkpt lat="44.89081584814091" lon="12.017448754143397"><ele>-4.6</ele><time>2026-05-02T10:12:45Z</time></trkpt><trkpt lat="44.89072547845676" lon="12.01740245415932"><ele>-4.4</ele><time>2026-05-02T10:12:47Z</time></trkpt><trkpt lat="44.89063913836053" lon="12.017353914731885"><ele>-4.2</ele><time>2026-05-02T10:12:49Z</time></trkpt><trkpt lat="44.89054728678574" lon="12.017308840977694"><ele>-4.0</ele><time>2026-05-02T10:12:51Z</time></trkpt><trkpt lat="44.890455916078466" lon="12.017260656624874"><ele>-4.0</ele><time>2026-05-02T10:12:53Z</time></trkpt><trkpt lat="44.890366655767636" lon="12.017212780875223"><ele>-4.0</ele><time>2026-05-02T10:12:55Z</time></trkpt><trkpt lat="44.89028014945899" lon="12.017164947827027"><ele>-4.0</ele><time>2026-05-02T10:12:57Z</time></trkpt><trkpt lat="44.8901886162866" lon="12.017118298048125"><ele>-4.0</ele><time>2026-05-02T10:12:59Z</time></trkpt><trkpt lat="44.8900984130433" lon="12.01707412653708"><ele>-4.0</ele><time>2026-05-02T10:13:01Z</time></trkpt><trkpt lat="44.89000768296347" lon="12.01702734282664"><ele>-3.8000000000000003</ele><time>2026-05-02T10:13:03Z</time></trkpt><trkpt lat="44.88992303259066" lon="12.016967956823546"><ele>-3.6000000000000005</ele><time>2026-05-02T10:13:05Z</time></trkpt><trkpt lat="44.889828710898456" lon="12.016931505723756"><ele>-3.4</ele><time>2026-05-02T10:13:07Z</time></trkpt><trkpt lat="44.88973994504474" lon="12.016880624118842"><ele>-3.2</ele><time>2026-05-02T10:13:09Z</time></trkpt><trkpt lat="44.88964660282357" lon="12.016834555483474"><ele>-3.0</ele><time>2026-05-02T10:13:11Z</time></trkpt><trkpt lat="44.88955841900675" lon="12.01678642240374"><ele>-3.0</ele><time>2026-05-02T10:13:13Z</time></trkpt><trkpt lat="44.889466743158124" lon="12.016742110825247"><ele>-3.0</ele><time>2026-05-02T10:13:15Z</time></trkpt><trkpt lat="44.889378154409414" lon="12.016693673387504"><ele>-3.0</ele><time>2026-05-02T10:13:17Z</time></trkpt><trkpt lat="44.88928982196196" lon="12.016647469460532"><ele>-3.0</ele><time>2026-05-02T10:13:19Z</time></trkpt><trkpt lat="44.8891954300679" lon="12.01660281351625"><ele>-3.0</ele><time>2026-05-02T10:13:21Z</time></trkpt><trkpt lat="44.88910904130728" lon="12.016555188371022"><ele>-3.4</ele><time>2026-05-02T10:13:23Z</time></trkpt><trkpt lat="44.889026630033264" lon="12.016506239793424"><ele>-3.8</ele><time>2026-05-02T10:13:25Z</time></trkpt><trkpt lat="44.8889350364512" lon="12.0164622630541"><ele>-4.2</ele><time>2026-05-02T10:13:27Z</time></trkpt><trkpt lat="44.88884192469145" lon="12.016415748768575"><ele>-4.6</ele><time>2026-05-02T10:13:29Z</time></trkpt><trkpt lat="44.88875345794969" lon="12.016367886609842"><ele>-5.0</ele><time>2026-05-02T10:13:31Z</time></trkpt><trkpt lat="44.88866746514654" lon="12.016323734740459"><ele>-5.0</ele><time>2026-05-02T10:13:33Z</time></trkpt><trkpt lat="44.8885801297208" lon="12.016273171078169"><ele>-5.0</ele><time>2026-05-02T10:13:35Z</time></trkpt><trkpt lat="44.88849013744105" lon="12.016227257203083"><ele>-5.0</ele><time>2026-05-02T10:13:37Z</time></trkpt><trkpt lat="44.888406422459774" lon="12.016175076757667"><ele>-5.0</ele><time>2026-05-02T10:13:39Z</time></trkpt><trkpt lat="44.88835316746428" lon="12.016076253311223"><ele>-5.0</ele><time>2026-05-02T10:13:41Z</time></trkpt><trkpt lat="44.888307672593356" lon="12.015985688095594"><ele>-5.0</ele><time>2026-05-02T10:13:43Z</time></trkpt><trkpt lat="44.8882346147858" lon="12.01591305006743"><ele>-4.6</ele><time>2026-05-02T10:13:45Z</time></trkpt><trkpt lat="44.888140683221245" lon="12.015873987000715"><ele>-4.2</ele><time>2026-05-02T10:13:47Z</time></trkpt><trkpt lat="44.888043968226775" lon="12.01588529082777"><ele>-3.8</ele><time>2026-05-02T10:13:49Z</time></trkpt><trkpt lat="44.88794818394596" lon="12.015895460157509"><ele>-3.4</ele><time>2026-05-02T10:13:51Z</time></trkpt><trkpt lat="44.88785377041557" lon="12.015888068638317"><ele>-3.0</ele><time>2026-05-02T10:13:53Z</time></trkpt><trkpt lat="44.887767814653074" lon="12.015842872502727"><ele>-3.2</ele><time>2026-05-02T10:13:55Z</time></trkpt><trkpt lat="44.88768195770049" lon="12.015796352544138"><ele>-3.4</ele><time>2026-05-02T10:13:57Z</time></trkpt><trkpt lat="44.88759214345527" lon="12.015748033477298"><ele>-3.6000000000000005</ele><time>2026-05-02T10:13:59Z</time></trkpt><trkpt lat="44.88750452622603" lon="12.015700340582633"><ele>-3.8000000000000003</ele><time>2026-05-02T10:14:01Z</time></trkpt><trkpt lat="44.8874139551526" lon="12.015652610148349"><ele>-4.0</ele><time>2026-05-02T10:14:03Z</time></trkpt><trkpt lat="44.887324898677285" lon="12.015608544636846"><ele>-3.9999999999999996</ele><time>2026-05-02T10:14:05Z</time></trkpt><trkpt lat="44.88724148119503" lon="12.015568525449815"><ele>-4.0</ele><time>2026-05-02T10:14:07Z</time></trkpt><trkpt lat="44.8871602650605" lon="12.015528894881895"><ele>-4.0</ele><time>2026-05-02T10:14:09Z</time></trkpt><trkpt lat="44.88708810111877" lon="12.015497366461519"><ele>-4.0</ele><time>2026-05-02T10:14:11Z</time></trkpt><trkpt lat="44.88701645986502" lon="12.015461210713676"><ele>-3.9999999999999996</ele><time>2026-05-02T10:14:13Z</time></trkpt><trkpt lat="44.88694902476537" lon="12.015420965318894"><ele>-4.0</ele><time>2026-05-02T10:14:15Z</time></trkpt><trkpt lat="44.886877068508895" lon="12.015380081428274"><ele>-3.9999999999999996</ele><time>2026-05-02T10:14:17Z</time></trkpt><trkpt lat="44.88679354440011" lon="12.015333303591987"><ele>-4.0</ele><time>2026-05-02T10:14:19Z</time></trkpt><trkpt lat="44.886711736887456" lon="12.015293592007346"><ele>-4.0</ele><time>2026-05-02T10:14:21Z</time></trkpt><trkpt lat="44.886635949276275" lon="12.015256516564659"><ele>-4.0</ele><time>2026-05-02T10:14:23Z</time></trkpt><trkpt lat="44.886564331318034" lon="12.015219756068996"><ele>-3.9999999999999996</ele><time>2026-05-02T10:14:25Z</time></trkpt><trkpt lat="44.886497331427016" lon="12.015185745323583"><ele>-4.0</ele><time>2026-05-02T10:14:27Z</time></trkpt><trkpt lat="44.886439476845915" lon="12.015147836335673"><ele>-3.9999999999999996</ele><time>2026-05-02T10:14:29Z</time></trkpt><trkpt lat="44.88637947122486" lon="12.015110778287625"><ele>-4.0</ele><time>2026-05-02T10:14:31Z</time></trkpt><trkpt lat="44.88631734962694" lon="12.015059257215864"><ele>-4.0</ele><time>2026-05-02T10:14:33Z</time></trkpt><trkpt lat="44.886241018227935" lon="12.014998293355626"><ele>-4.0</ele><time>2026-05-02T10:14:35Z</time></trkpt><trkpt lat="44.88615922255735" lon="12.014934444363499"><ele>-3.9999999999999996</ele><time>2026-05-02T10:14:37Z</time></trkpt><trkpt lat="44.88607901660905" lon="12.01486147941763"><ele>-4.0</ele><time>2026-05-02T10:14:39Z</time></trkpt><trkpt lat="44.88600313021453" lon="12.014788520496163"><ele>-3.9999999999999996</ele><time>2026-05-02T10:14:41Z</time></trkpt><trkpt lat="44.885929172081305" lon="12.014714622437419"><ele>-4.0</ele><time>2026-05-02T10:14:43Z</time></trkpt><trkpt lat="44.88586100490705" lon="12.014640580021139"><ele>-4.0</ele><time>2026-05-02T10:14:45Z</time></trkpt><trkpt lat="44.88580108188633" lon="12.014574523229218"><ele>-4.0</ele><time>2026-05-02T10:14:47Z</time></trkpt><trkpt lat="44.88574365477515" lon="12.014503852585051"><ele>-3.9999999999999996</ele><time>2026-05-02T10:14:49Z</time></trkpt><trkpt lat="44.88569224382024" lon="12.014437301778356"><ele>-4.0</ele><time>2026-05-02T10:14:51Z</time></trkpt><trkpt lat="44.8856421013517" lon="12.01437145125874"><ele>-3.9999999999999996</ele><time>2026-05-02T10:14:53Z</time></trkpt><trkpt lat="44.88559416061409" lon="12.014301853853627"><ele>-4.0</ele><time>2026-05-02T10:14:55Z</time></trkpt><trkpt lat="44.8855312671815" lon="12.014219310522346"><ele>-4.0</ele><time>2026-05-02T10:14:57Z</time></trkpt><trkpt lat="44.88546576091723" lon="12.01412939826409"><ele>-4.0</ele><time>2026-05-02T10:14:59Z</time></trkpt><trkpt lat="44.88539637626252" lon="12.01404244476222"><ele>-3.9999999999999996</ele><time>2026-05-02T10:15:01Z</time></trkpt><trkpt lat="44.88533055320176" lon="12.013951743524723"><ele>-4.0</ele><time>2026-05-02T10:15:03Z</time></trkpt><trkpt lat="44.885259611014426" lon="12.013863042715508"><ele>-4.0</ele><time>2026-05-02T10:15:05Z</time></trkpt><trkpt lat="44.885190356519146" lon="12.013771954764419"><ele>-4.0</ele><time>2026-05-02T10:15:07Z</time></trkpt><trkpt lat="44.88512087501845" lon="12.013684138536448"><ele>-4.0</ele><time>2026-05-02T10:15:09Z</time></trkpt><trkpt lat="44.88504973784973" lon="12.013591112984205"><ele>-4.0</ele><time>2026-05-02T10:15:11Z</time></trkpt><trkpt lat="44.884980567102836" lon="12.013502558315382"><ele>-4.0</ele><time>2026-05-02T10:15:13Z</time></trkpt><trkpt lat="44.88491086891857" lon="12.013413648328294"><ele>-4.2</ele><time>2026-05-02T10:15:15Z</time></trkpt><trkpt lat="44.884842172421955" lon="12.01332020384469"><ele>-4.4</ele><time>2026-05-02T10:15:17Z</time></trkpt><trkpt lat="44.88476957354898" lon="12.013230004047216"><ele>-4.6</ele><time>2026-05-02T10:15:19Z</time></trkpt><trkpt lat="44.8846999048088" lon="12.01313913269103"><ele>-4.8</ele><time>2026-05-02T10:15:21Z</time></trkpt><trkpt lat="44.88463245495158" lon="12.013052181503625"><ele>-5.0</ele><time>2026-05-02T10:15:23Z</time></trkpt><trkpt lat="44.88455932955164" lon="12.012964509502556"><ele>-5.0</ele><time>2026-05-02T10:15:25Z</time></trkpt><trkpt lat="44.88449342077236" lon="12.012870980387703"><ele>-5.0</ele><time>2026-05-02T10:15:27Z</time></trkpt><trkpt lat="44.88442682423792" lon="12.012790450031417"><ele>-5.0</ele><time>2026-05-02T10:15:29Z</time></trkpt><trkpt lat="44.88436394739308" lon="12.012704927805297"><ele>-5.0</ele><time>2026-05-02T10:15:31Z</time></trkpt><trkpt lat="44.884294860402754" lon="12.012619220381998"><ele>-5.0</ele><time>2026-05-02T10:15:33Z</time></trkpt><trkpt lat="44.88422453195073" lon="12.012532286110684"><ele>-4.8</ele><time>2026-05-02T10:15:35Z</time></trkpt><trkpt lat="44.88415517961296" lon="12.012442121988535"><ele>-4.6</ele><time>2026-05-02T10:15:37Z</time></trkpt><trkpt lat="44.8840831803848" lon="12.012353638252996"><ele>-4.4</ele><time>2026-05-02T10:15:39Z</time></trkpt><trkpt lat="44.88401564032766" lon="12.012260150101332"><ele>-4.2</ele><time>2026-05-02T10:15:41Z</time></trkpt><trkpt lat="44.883944764249776" lon="12.012168967119536"><ele>-4.0</ele><time>2026-05-02T10:15:43Z</time></trkpt><trkpt lat="44.88387572385175" lon="12.012078175126488"><ele>-4.0</ele><time>2026-05-02T10:15:45Z</time></trkpt><trkpt lat="44.88380618542847" lon="12.011991691936883"><ele>-4.0</ele><time>2026-05-02T10:15:47Z</time></trkpt><trkpt lat="44.88373104158798" lon="12.011901786658107"><ele>-4.0</ele><time>2026-05-02T10:15:49Z</time></trkpt><trkpt lat="44.88365958326883" lon="12.01181653347774"><ele>-4.0</ele><time>2026-05-02T10:15:51Z</time></trkpt><trkpt lat="44.88358441938536" lon="12.01172112662049"><ele>-4.0</ele><time>2026-05-02T10:15:53Z</time></trkpt><trkpt lat="44.88351293661094" lon="12.011626796261835"><ele>-4.2</ele><time>2026-05-02T10:15:55Z</time></trkpt><trkpt lat="44.88344451844929" lon="12.011527704965326"><ele>-4.4</ele><time>2026-05-02T10:15:57Z</time></trkpt><trkpt lat="44.88337282665592" lon="12.011444357611666"><ele>-4.6</ele><time>2026-05-02T10:15:59Z</time></trkpt><trkpt lat="44.88330737901997" lon="12.011352301235119"><ele>-4.8</ele><time>2026-05-02T10:16:01Z</time></trkpt><trkpt lat="44.883238080844656" lon="12.011263687170151"><ele>-5.0</ele><time>2026-05-02T10:16:03Z</time></trkpt><trkpt lat="44.88316589184913" lon="12.011170988904707"><ele>-5.0</ele><time>2026-05-02T10:16:05Z</time></trkpt><trkpt lat="44.8830912573851" lon="12.011077774040704"><ele>-5.0</ele><time>2026-05-02T10:16:07Z</time></trkpt><trkpt lat="44.883017362890016" lon="12.010985770574225"><ele>-5.0</ele><time>2026-05-02T10:16:09Z</time></trkpt><trkpt lat="44.88294917052187" lon="12.010893070157143"><ele>-5.0</ele><time>2026-05-02T10:16:11Z</time></trkpt><trkpt lat="44.88288069767947" lon="12.010808249351768"><ele>-5.0</ele><time>2026-05-02T10:16:13Z</time></trkpt><trkpt lat="44.88281727174241" lon="12.010727325724144"><ele>-5.0</ele><time>2026-05-02T10:16:15Z</time></trkpt><trkpt lat="44.88275845192349" lon="12.010653802580487"><ele>-5.0</ele><time>2026-05-02T10:16:17Z</time></trkpt><trkpt lat="44.882707881849406" lon="12.010585933147025"><ele>-5.0</ele><time>2026-05-02T10:16:19Z</time></trkpt><trkpt lat="44.88265967447812" lon="12.010527004148035"><ele>-5.0</ele><time>2026-05-02T10:16:21Z</time></trkpt><trkpt lat="44.88260518984719" lon="12.010464533399789"><ele>-5.0</ele><time>2026-05-02T10:16:23Z</time></trkpt><trkpt lat="44.88254486423965" lon="12.010379101077183"><ele>-5.0</ele><time>2026-05-02T10:16:25Z</time></trkpt><trkpt lat="44.88248275330321" lon="12.010302591912717"><ele>-5.0</ele><time>2026-05-02T10:16:27Z</time></trkpt><trkpt lat="44.882425621800266" lon="12.010224608894605"><ele>-5.0</ele><time>2026-05-02T10:16:29Z</time></trkpt><trkpt lat="44.88236928205783" lon="12.010150822674538"><ele>-5.0</ele><time>2026-05-02T10:16:31Z</time></trkpt><trkpt lat="44.88231896306271" lon="12.010090540236908"><ele>-5.0</ele><time>2026-05-02T10:16:33Z</time></trkpt><trkpt lat="44.88226986841181" lon="12.010029247629785"><ele>-5.0</ele><time>2026-05-02T10:16:35Z</time></trkpt><trkpt lat="44.8822219508092" lon="12.00996236148356"><ele>-5.0</ele><time>2026-05-02T10:16:37Z</time></trkpt><trkpt lat="44.88216012790681" lon="12.009889925368444"><ele>-5.0</ele><time>2026-05-02T10:16:39Z</time></trkpt><trkpt lat="44.88210458136446" lon="12.009827546541473"><ele>-5.0</ele><time>2026-05-02T10:16:41Z</time></trkpt><trkpt lat="44.88203093600875" lon="12.00974848126636"><ele>-5.0</ele><time>2026-05-02T10:16:44Z</time></trkpt><trkpt lat="44.88196744790173" lon="12.009667254831522"><ele>-5.0</ele><time>2026-05-02T10:16:47Z</time></trkpt><trkpt lat="44.88190756664091" lon="12.009581291596408"><ele>-5.0</ele><time>2026-05-02T10:16:50Z</time></trkpt><trkpt lat="44.88185001582135" lon="12.009537087897556"><ele>-5.0</ele><time>2026-05-02T10:16:52Z</time></trkpt><trkpt lat="44.881781982569656" lon="12.009466843958677"><ele>-5.0</ele><time>2026-05-02T10:16:55Z</time></trkpt><trkpt lat="44.88171692360816" lon="12.00941451310749"><ele>-4.833333333333334</ele><time>2026-05-02T10:16:58Z</time></trkpt><trkpt lat="44.88165746332569" lon="12.009343453514308"><ele>-4.666666666666667</ele><time>2026-05-02T10:17:01Z</time></trkpt><trkpt lat="44.88158160388208" lon="12.009281711383881"><ele>-4.5</ele><time>2026-05-02T10:17:03Z</time></trkpt><trkpt lat="44.881500402332186" lon="12.009225361367061"><ele>-4.333333333333333</ele><time>2026-05-02T10:17:05Z</time></trkpt><trkpt lat="44.88142015066353" lon="12.009167172830313"><ele>-4.166666666666666</ele><time>2026-05-02T10:17:07Z</time></trkpt><trkpt lat="44.881333579932075" lon="12.009116435172523"><ele>-4.0</ele><time>2026-05-02T10:17:09Z</time></trkpt><trkpt lat="44.88124631469832" lon="12.00907276193986"><ele>-4.0</ele><time>2026-05-02T10:17:11Z</time></trkpt><trkpt lat="44.88116183392479" lon="12.009019368102388"><ele>-4.0</ele><time>2026-05-02T10:17:13Z</time></trkpt><trkpt lat="44.881075379355345" lon="12.008975778271914"><ele>-4.0</ele><time>2026-05-02T10:17:15Z</time></trkpt><trkpt lat="44.88098787324613" lon="12.008931946017878"><ele>-4.0</ele><time>2026-05-02T10:17:17Z</time></trkpt><trkpt lat="44.88090018745934" lon="12.008888678912912"><ele>-4.0</ele><time>2026-05-02T10:17:19Z</time></trkpt><trkpt lat="44.880811938320214" lon="12.008838916769395"><ele>-3.9999999999999996</ele><time>2026-05-02T10:17:21Z</time></trkpt><trkpt lat="44.88072484813909" lon="12.008793971477102"><ele>-4.0</ele><time>2026-05-02T10:17:23Z</time></trkpt><trkpt lat="44.88064113406526" lon="12.008743788748676"><ele>-4.0</ele><time>2026-05-02T10:17:25Z</time></trkpt><trkpt lat="44.88055305542719" lon="12.008703749372847"><ele>-4.0</ele><time>2026-05-02T10:17:27Z</time></trkpt><trkpt lat="44.88047427359686" lon="12.008666694995354"><ele>-3.9999999999999996</ele><time>2026-05-02T10:17:29Z</time></trkpt><trkpt lat="44.88041003917226" lon="12.008611613395942"><ele>-4.0</ele><time>2026-05-02T10:17:31Z</time></trkpt><trkpt lat="44.88034154236936" lon="12.008589359494836"><ele>-3.9999999999999996</ele><time>2026-05-02T10:17:33Z</time></trkpt><trkpt lat="44.88027705000962" lon="12.008614413297119"><ele>-4.0</ele><time>2026-05-02T10:17:35Z</time></trkpt><trkpt lat="44.88021585133252" lon="12.00867021437633"><ele>-4.0</ele><time>2026-05-02T10:17:37Z</time></trkpt><trkpt lat="44.88017441365527" lon="12.008784433802695"><ele>-4.0</ele><time>2026-05-02T10:17:39Z</time></trkpt><trkpt lat="44.88014021893225" lon="12.008909787554096"><ele>-3.9999999999999996</ele><time>2026-05-02T10:17:41Z</time></trkpt><trkpt lat="44.88010740372083" lon="12.009037020836114"><ele>-4.0</ele><time>2026-05-02T10:17:43Z</time></trkpt><trkpt lat="44.88007699758969" lon="12.009157831853537"><ele>-4.0</ele><time>2026-05-02T10:17:45Z</time></trkpt><trkpt lat="44.880046027516954" lon="12.009278839440661"><ele>-4.0</ele><time>2026-05-02T10:17:47Z</time></trkpt><trkpt lat="44.88000907859968" lon="12.009401615197847"><ele>-4.0</ele><time>2026-05-02T10:17:49Z</time></trkpt><trkpt lat="44.87997779605177" lon="12.00952911383737"><ele>-4.0</ele><time>2026-05-02T10:17:51Z</time></trkpt><trkpt lat="44.87994422251849" lon="12.00965392438706"><ele>-4.0</ele><time>2026-05-02T10:17:53Z</time></trkpt><trkpt lat="44.87991060509509" lon="12.009779952817597"><ele>-4.0</ele><time>2026-05-02T10:17:55Z</time></trkpt><trkpt lat="44.87987960230047" lon="12.009907670422175"><ele>-4.0</ele><time>2026-05-02T10:17:57Z</time></trkpt><trkpt lat="44.87984389378662" lon="12.010034965204877"><ele>-4.0</ele><time>2026-05-02T10:17:59Z</time></trkpt><trkpt lat="44.879807695365805" lon="12.010160390260687"><ele>-4.0</ele><time>2026-05-02T10:18:01Z</time></trkpt><trkpt lat="44.87977451154706" lon="12.010288789523509"><ele>-4.0</ele><time>2026-05-02T10:18:03Z</time></trkpt><trkpt lat="44.87974323639088" lon="12.010415698626787"><ele>-4.0</ele><time>2026-05-02T10:18:05Z</time></trkpt><trkpt lat="44.87971241285575" lon="12.010544330186892"><ele>-4.0</ele><time>2026-05-02T10:18:07Z</time></trkpt><trkpt lat="44.879677903188856" lon="12.010671697948084"><ele>-4.0</ele><time>2026-05-02T10:18:09Z</time></trkpt><trkpt lat="44.879642236060384" lon="12.0107980660787"><ele>-4.0</ele><time>2026-05-02T10:18:11Z</time></trkpt><trkpt lat="44.87960956447781" lon="12.010926962563147"><ele>-4.0</ele><time>2026-05-02T10:18:13Z</time></trkpt><trkpt lat="44.87957356055425" lon="12.011056840317659"><ele>-4.0</ele><time>2026-05-02T10:18:15Z</time></trkpt><trkpt lat="44.87954084789745" lon="12.011191404813776"><ele>-4.0</ele><time>2026-05-02T10:18:17Z</time></trkpt><trkpt lat="44.87950354761829" lon="12.011316650813104"><ele>-4.0</ele><time>2026-05-02T10:18:19Z</time></trkpt><trkpt lat="44.87947419161733" lon="12.011445525174642"><ele>-4.0</ele><time>2026-05-02T10:18:21Z</time></trkpt><trkpt lat="44.879440234503996" lon="12.011563970452162"><ele>-4.0</ele><time>2026-05-02T10:18:23Z</time></trkpt><trkpt lat="44.87940790020657" lon="12.011675359360632"><ele>-4.166666666666666</ele><time>2026-05-02T10:18:25Z</time></trkpt><trkpt lat="44.87937856262041" lon="12.011783331748886"><ele>-4.333333333333333</ele><time>2026-05-02T10:18:27Z</time></trkpt><trkpt lat="44.87935456174179" lon="12.011892674762102"><ele>-4.5</ele><time>2026-05-02T10:18:29Z</time></trkpt><trkpt lat="44.879320652408445" lon="12.012011113774397"><ele>-4.666666666666667</ele><time>2026-05-02T10:18:31Z</time></trkpt><trkpt lat="44.879287102579696" lon="12.012137506491708"><ele>-4.833333333333334</ele><time>2026-05-02T10:18:33Z</time></trkpt><trkpt lat="44.87925371400188" lon="12.012267597442971"><ele>-5.0</ele><time>2026-05-02T10:18:35Z</time></trkpt><trkpt lat="44.87922184941493" lon="12.012395669680545"><ele>-4.8</ele><time>2026-05-02T10:18:37Z</time></trkpt><trkpt lat="44.87918944035047" lon="12.012518687122181"><ele>-4.6</ele><time>2026-05-02T10:18:39Z</time></trkpt><trkpt lat="44.879156157642456" lon="12.012636608007837"><ele>-4.4</ele><time>2026-05-02T10:18:41Z</time></trkpt><trkpt lat="44.879125656908" lon="12.012760907507301"><ele>-4.2</ele><time>2026-05-02T10:18:43Z</time></trkpt><trkpt lat="44.879093813686715" lon="12.012883283540779"><ele>-4.0</ele><time>2026-05-02T10:18:45Z</time></trkpt><trkpt lat="44.879060567590905" lon="12.013003645573956"><ele>-4.0</ele><time>2026-05-02T10:18:47Z</time></trkpt><trkpt lat="44.87902807191076" lon="12.013122669467254"><ele>-4.0</ele><time>2026-05-02T10:18:49Z</time></trkpt><trkpt lat="44.87899618964418" lon="12.013247564231415"><ele>-4.0</ele><time>2026-05-02T10:18:51Z</time></trkpt><trkpt lat="44.878964069174636" lon="12.013371531514268"><ele>-4.0</ele><time>2026-05-02T10:18:53Z</time></trkpt><trkpt lat="44.87893272959744" lon="12.013494065914003"><ele>-4.0</ele><time>2026-05-02T10:18:55Z</time></trkpt><trkpt lat="44.878901227371756" lon="12.013615328538306"><ele>-4.2</ele><time>2026-05-02T10:18:57Z</time></trkpt><trkpt lat="44.878869294656994" lon="12.013737640475664"><ele>-4.4</ele><time>2026-05-02T10:18:59Z</time></trkpt><trkpt lat="44.87883719920172" lon="12.013861322691007"><ele>-4.6</ele><time>2026-05-02T10:19:01Z</time></trkpt><trkpt lat="44.8788030829403" lon="12.013985698329176"><ele>-4.8</ele><time>2026-05-02T10:19:03Z</time></trkpt><trkpt lat="44.878770986578665" lon="12.014114643006788"><ele>-5.0</ele><time>2026-05-02T10:19:05Z</time></trkpt><trkpt lat="44.878736523474565" lon="12.014241832996607"><ele>-5.0</ele><time>2026-05-02T10:19:07Z</time></trkpt><trkpt lat="44.878705353278924" lon="12.014371333234564"><ele>-5.0</ele><time>2026-05-02T10:19:09Z</time></trkpt><trkpt lat="44.878670613804545" lon="12.014499457646432"><ele>-5.0</ele><time>2026-05-02T10:19:11Z</time></trkpt><trkpt lat="44.87864003963439" lon="12.01462380004878"><ele>-5.0</ele><time>2026-05-02T10:19:13Z</time></trkpt><trkpt lat="44.87860873811449" lon="12.014742275673429"><ele>-5.0</ele><time>2026-05-02T10:19:15Z</time></trkpt><trkpt lat="44.87857662065472" lon="12.014860068282388"><ele>-5.0</ele><time>2026-05-02T10:19:17Z</time></trkpt><trkpt lat="44.878547277392656" lon="12.014979858262079"><ele>-5.0</ele><time>2026-05-02T10:19:19Z</time></trkpt><trkpt lat="44.878512226481256" lon="12.01510368116551"><ele>-5.0</ele><time>2026-05-02T10:19:21Z</time></trkpt><trkpt lat="44.87847739141597" lon="12.01522712283186"><ele>-5.0</ele><time>2026-05-02T10:19:23Z</time></trkpt><trkpt lat="44.878444311195366" lon="12.01535833474665"><ele>-5.0</ele><time>2026-05-02T10:19:25Z</time></trkpt><trkpt lat="44.87840975075579" lon="12.015487975988169"><ele>-4.8</ele><time>2026-05-02T10:19:27Z</time></trkpt><trkpt lat="44.878378427956065" lon="12.015611993476599"><ele>-4.6</ele><time>2026-05-02T10:19:29Z</time></trkpt><trkpt lat="44.87834578852127" lon="12.015740035265623"><ele>-4.4</ele><time>2026-05-02T10:19:31Z</time></trkpt><trkpt lat="44.878312909748324" lon="12.015860710399787"><ele>-4.2</ele><time>2026-05-02T10:19:33Z</time></trkpt><trkpt lat="44.87828545332866" lon="12.015979301156655"><ele>-4.0</ele><time>2026-05-02T10:19:35Z</time></trkpt><trkpt lat="44.87826319986503" lon="12.016097068658016"><ele>-3.833333333333333</ele><time>2026-05-02T10:19:37Z</time></trkpt><trkpt lat="44.87823728205348" lon="12.016210170507673"><ele>-3.6666666666666665</ele><time>2026-05-02T10:19:39Z</time></trkpt><trkpt lat="44.878210825550575" lon="12.01631982027205"><ele>-3.5</ele><time>2026-05-02T10:19:41Z</time></trkpt><trkpt lat="44.878183218865864" lon="12.01642071129408"><ele>-3.333333333333333</ele><time>2026-05-02T10:19:43Z</time></trkpt><trkpt lat="44.87815278012085" lon="12.016527433484312"><ele>-3.1666666666666665</ele><time>2026-05-02T10:19:45Z</time></trkpt><trkpt lat="44.87812576763501" lon="12.016627565704917"><ele>-3.0</ele><time>2026-05-02T10:19:47Z</time></trkpt><trkpt lat="44.8781034641003" lon="12.01672578731156"><ele>-2.6666666666666665</ele><time>2026-05-02T10:19:49Z</time></trkpt><trkpt lat="44.87807888365112" lon="12.016817594156365"><ele>-2.3333333333333335</ele><time>2026-05-02T10:19:51Z</time></trkpt><trkpt lat="44.878049839123435" lon="12.016904097232876"><ele>-2.0</ele><time>2026-05-02T10:19:53Z</time></trkpt><trkpt lat="44.87801338933847" lon="12.017009116323123"><ele>-1.6666666666666665</ele><time>2026-05-02T10:19:55Z</time></trkpt><trkpt lat="44.87798655298445" lon="12.017131840509915"><ele>-1.3333333333333333</ele><time>2026-05-02T10:19:57Z</time></trkpt><trkpt lat="44.87795530062097" lon="12.017251855127366"><ele>-1.0</ele><time>2026-05-02T10:19:59Z</time></trkpt><trkpt lat="44.87792297239005" lon="12.017366432343687"><ele>-0.9999999999999999</ele><time>2026-05-02T10:20:01Z</time></trkpt><trkpt lat="44.877902947182996" lon="12.017476751877625"><ele>-1.0</ele><time>2026-05-02T10:20:03Z</time></trkpt><trkpt lat="44.877876645159006" lon="12.0175810745261"><ele>-1.0</ele><time>2026-05-02T10:20:05Z</time></trkpt><trkpt lat="44.877853008775176" lon="12.0176782893458"><ele>-1.0</ele><time>2026-05-02T10:20:07Z</time></trkpt><trkpt lat="44.87783155448476" lon="12.017773344383631"><ele>-0.9999999999999999</ele><time>2026-05-02T10:20:09Z</time></trkpt><trkpt lat="44.87780227407813" lon="12.017865229913566"><ele>-1.0</ele><time>2026-05-02T10:20:11Z</time></trkpt><trkpt lat="44.87776469990353" lon="12.017967917067907"><ele>-1.2000000000000002</ele><time>2026-05-02T10:20:13Z</time></trkpt><trkpt lat="44.87773255278054" lon="12.018088401726617"><ele>-1.4000000000000001</ele><time>2026-05-02T10:20:15Z</time></trkpt><trkpt lat="44.877701307620185" lon="12.018212871036104"><ele>-1.6</ele><time>2026-05-02T10:20:17Z</time></trkpt><trkpt lat="44.877661128101444" lon="12.01833052013604"><ele>-1.8</ele><time>2026-05-02T10:20:19Z</time></trkpt><trkpt lat="44.87761453650688" lon="12.018443067889063"><ele>-2.0</ele><time>2026-05-02T10:20:21Z</time></trkpt><trkpt lat="44.87757139749147" lon="12.018548201808906"><ele>-2.2</ele><time>2026-05-02T10:20:23Z</time></trkpt><trkpt lat="44.87751635779939" lon="12.018635869995068"><ele>-2.4000000000000004</ele><time>2026-05-02T10:20:25Z</time></trkpt><trkpt lat="44.877458900328534" lon="12.018732139174318"><ele>-2.5999999999999996</ele><time>2026-05-02T10:20:27Z</time></trkpt><trkpt lat="44.8773948453179" lon="12.018827335548231"><ele>-2.8</ele><time>2026-05-02T10:20:29Z</time></trkpt><trkpt lat="44.87732199497935" lon="12.018920049193339"><ele>-3.0</ele><time>2026-05-02T10:20:31Z</time></trkpt><trkpt lat="44.87725012568952" lon="12.019005837410024"><ele>-3.0</ele><time>2026-05-02T10:20:33Z</time></trkpt><trkpt lat="44.8771733994821" lon="12.019085732761084"><ele>-3.0</ele><time>2026-05-02T10:20:35Z</time></trkpt><trkpt lat="44.87709641045559" lon="12.019168797934801"><ele>-3.0</ele><time>2026-05-02T10:20:37Z</time></trkpt><trkpt lat="44.87702156982443" lon="12.01924656202781"><ele>-3.0</ele><time>2026-05-02T10:20:39Z</time></trkpt><trkpt lat="44.876943291460336" lon="12.01932410589675"><ele>-3.0</ele><time>2026-05-02T10:20:41Z</time></trkpt><trkpt lat="44.87686492735103" lon="12.019399963287217"><ele>-3.0</ele><time>2026-05-02T10:20:43Z</time></trkpt><trkpt lat="44.87678691979033" lon="12.01947824208578"><ele>-3.0</ele><time>2026-05-02T10:20:45Z</time></trkpt><trkpt lat="44.87671012001986" lon="12.01955714668268"><ele>-3.0</ele><time>2026-05-02T10:20:47Z</time></trkpt><trkpt lat="44.876632289551225" lon="12.019634296609707"><ele>-3.0</ele><time>2026-05-02T10:20:49Z</time></trkpt><trkpt lat="44.8765621839208" lon="12.019711258965343"><ele>-3.0</ele><time>2026-05-02T10:20:51Z</time></trkpt><trkpt lat="44.87649312600993" lon="12.019786461155155"><ele>-3.0</ele><time>2026-05-02T10:20:53Z</time></trkpt><trkpt lat="44.87642723484464" lon="12.01985964331193"><ele>-3.0</ele><time>2026-05-02T10:20:55Z</time></trkpt><trkpt lat="44.876355651036384" lon="12.019920368416871"><ele>-3.0</ele><time>2026-05-02T10:20:57Z</time></trkpt><trkpt lat="44.87628056971714" lon="12.019978368986575"><ele>-3.0</ele><time>2026-05-02T10:20:59Z</time></trkpt><trkpt lat="44.876210286585206" lon="12.020051028406701"><ele>-3.0</ele><time>2026-05-02T10:21:01Z</time></trkpt><trkpt lat="44.876130742044126" lon="12.020129870530292"><ele>-3.0</ele><time>2026-05-02T10:21:03Z</time></trkpt><trkpt lat="44.87605734949417" lon="12.020213904755522"><ele>-3.1666666666666665</ele><time>2026-05-02T10:21:05Z</time></trkpt><trkpt lat="44.875983143068915" lon="12.02028710691301"><ele>-3.333333333333333</ele><time>2026-05-02T10:21:07Z</time></trkpt><trkpt lat="44.87591026252584" lon="12.02036084624982"><ele>-3.5</ele><time>2026-05-02T10:21:09Z</time></trkpt><trkpt lat="44.8758383142189" lon="12.0204306191643"><ele>-3.6666666666666665</ele><time>2026-05-02T10:21:11Z</time></trkpt><trkpt lat="44.87576772014835" lon="12.020494633915426"><ele>-3.833333333333333</ele><time>2026-05-02T10:21:13Z</time></trkpt><trkpt lat="44.87569625224708" lon="12.020567821020062"><ele>-4.0</ele><time>2026-05-02T10:21:15Z</time></trkpt><trkpt lat="44.875624737563975" lon="12.020644927891079"><ele>-3.833333333333333</ele><time>2026-05-02T10:21:17Z</time></trkpt><trkpt lat="44.875561855684424" lon="12.020728094933103"><ele>-3.6666666666666665</ele><time>2026-05-02T10:21:19Z</time></trkpt><trkpt lat="44.8754967006543" lon="12.020803617316476"><ele>-3.5</ele><time>2026-05-02T10:21:21Z</time></trkpt><trkpt lat="44.875437914227945" lon="12.020893059036231"><ele>-3.333333333333333</ele><time>2026-05-02T10:21:23Z</time></trkpt><trkpt lat="44.875383067287075" lon="12.020992541516174"><ele>-3.1666666666666665</ele><time>2026-05-02T10:21:25Z</time></trkpt><trkpt lat="44.875333758693486" lon="12.021101180700308"><ele>-3.0</ele><time>2026-05-02T10:21:27Z</time></trkpt><trkpt lat="44.87529671198727" lon="12.021218622560259"><ele>-3.0</ele><time>2026-05-02T10:21:29Z</time></trkpt><trkpt lat="44.87526468754716" lon="12.021339027254053"><ele>-3.0</ele><time>2026-05-02T10:21:31Z</time></trkpt><trkpt lat="44.87523857327449" lon="12.021461982444988"><ele>-3.0</ele><time>2026-05-02T10:21:33Z</time></trkpt><trkpt lat="44.87522320274132" lon="12.02158936694538"><ele>-3.0</ele><time>2026-05-02T10:21:35Z</time></trkpt><trkpt lat="44.87521547974126" lon="12.02171189139523"><ele>-3.0</ele><time>2026-05-02T10:21:37Z</time></trkpt><trkpt lat="44.87520609611953" lon="12.02182914292084"><ele>-3.0</ele><time>2026-05-02T10:21:39Z</time></trkpt><trkpt lat="44.87519868309596" lon="12.021956186358883"><ele>-3.0</ele><time>2026-05-02T10:21:41Z</time></trkpt><trkpt lat="44.87519049474103" lon="12.022085812172806"><ele>-3.0</ele><time>2026-05-02T10:21:43Z</time></trkpt><trkpt lat="44.875184709489965" lon="12.022216417855681"><ele>-3.0</ele><time>2026-05-02T10:21:45Z</time></trkpt><trkpt lat="44.875175380227326" lon="12.022350732066949"><ele>-3.0</ele><time>2026-05-02T10:21:47Z</time></trkpt><trkpt lat="44.875167047373644" lon="12.022483660226507"><ele>-3.0</ele><time>2026-05-02T10:21:49Z</time></trkpt><trkpt lat="44.875159498429184" lon="12.02261681869402"><ele>-3.2</ele><time>2026-05-02T10:21:51Z</time></trkpt><trkpt lat="44.87515342273711" lon="12.022750530567516"><ele>-3.4</ele><time>2026-05-02T10:21:53Z</time></trkpt><trkpt lat="44.87514514468879" lon="12.022889205379926"><ele>-3.6000000000000005</ele><time>2026-05-02T10:21:55Z</time></trkpt><trkpt lat="44.875137345492455" lon="12.023027189212767"><ele>-3.8000000000000003</ele><time>2026-05-02T10:21:57Z</time></trkpt><trkpt lat="44.87513022734961" lon="12.023167099321807"><ele>-4.0</ele><time>2026-05-02T10:21:59Z</time></trkpt><trkpt lat="44.87512235532821" lon="12.023307217370553"><ele>-4.2</ele><time>2026-05-02T10:22:01Z</time></trkpt><trkpt lat="44.87511611368127" lon="12.023452491804784"><ele>-4.4</ele><time>2026-05-02T10:22:03Z</time></trkpt><trkpt lat="44.875108872622846" lon="12.023596343054482"><ele>-4.6</ele><time>2026-05-02T10:22:05Z</time></trkpt><trkpt lat="44.87509921515711" lon="12.023736042634308"><ele>-4.8</ele><time>2026-05-02T10:22:07Z</time></trkpt><trkpt lat="44.87509235331535" lon="12.023873989393694"><ele>-5.0</ele><time>2026-05-02T10:22:09Z</time></trkpt><trkpt lat="44.87508606837003" lon="12.024008093144309"><ele>-4.6</ele><time>2026-05-02T10:22:11Z</time></trkpt><trkpt lat="44.87507934888263" lon="12.024139376334983"><ele>-4.2</ele><time>2026-05-02T10:22:13Z</time></trkpt><trkpt lat="44.875068575636995" lon="12.024271856060013"><ele>-3.8</ele><time>2026-05-02T10:22:15Z</time></trkpt><trkpt lat="44.875059578426146" lon="12.024402284155506"><ele>-3.4</ele><time>2026-05-02T10:22:17Z</time></trkpt><trkpt lat="44.875053014487506" lon="12.024536576210684"><ele>-3.0</ele><time>2026-05-02T10:22:19Z</time></trkpt><trkpt lat="44.875045568230334" lon="12.024668299360348"><ele>-3.0</ele><time>2026-05-02T10:22:21Z</time></trkpt><trkpt lat="44.87503948108413" lon="12.024802929127064"><ele>-3.0</ele><time>2026-05-02T10:22:23Z</time></trkpt><trkpt lat="44.875030233091195" lon="12.02493720361513"><ele>-3.0</ele><time>2026-05-02T10:22:25Z</time></trkpt><trkpt lat="44.8750232001661" lon="12.0250713687608"><ele>-3.0</ele><time>2026-05-02T10:22:27Z</time></trkpt><trkpt lat="44.87501822022783" lon="12.02520476556768"><ele>-3.0</ele><time>2026-05-02T10:22:29Z</time></trkpt><trkpt lat="44.87501047252302" lon="12.02533981442108"><ele>-3.0</ele><time>2026-05-02T10:22:31Z</time></trkpt><trkpt lat="44.87500083963632" lon="12.025477040983409"><ele>-3.0</ele><time>2026-05-02T10:22:33Z</time></trkpt><trkpt lat="44.874983244184634" lon="12.02560948323761"><ele>-3.0</ele><time>2026-05-02T10:22:35Z</time></trkpt><trkpt lat="44.87496482684369" lon="12.025741400670306"><ele>-3.0</ele><time>2026-05-02T10:22:37Z</time></trkpt><trkpt lat="44.874940065133366" lon="12.025875176416806"><ele>-3.0</ele><time>2026-05-02T10:22:39Z</time></trkpt><trkpt lat="44.87490224840429" lon="12.026002574268643"><ele>-3.0</ele><time>2026-05-02T10:22:41Z</time></trkpt><trkpt lat="44.87485871633518" lon="12.026124860613693"><ele>-3.0</ele><time>2026-05-02T10:22:43Z</time></trkpt><trkpt lat="44.87481042442287" lon="12.026248389167096"><ele>-3.0</ele><time>2026-05-02T10:22:45Z</time></trkpt><trkpt lat="44.874757040454234" lon="12.026361242514511"><ele>-3.0</ele><time>2026-05-02T10:22:47Z</time></trkpt><trkpt lat="44.87469438948813" lon="12.026469216350923"><ele>-3.0</ele><time>2026-05-02T10:22:49Z</time></trkpt><trkpt lat="44.87462610171968" lon="12.02656785120083"><ele>-3.4</ele><time>2026-05-02T10:22:51Z</time></trkpt><trkpt lat="44.87456019009051" lon="12.026666978176664"><ele>-3.8</ele><time>2026-05-02T10:22:53Z</time></trkpt><trkpt lat="44.87449201051242" lon="12.026765396284846"><ele>-4.2</ele><time>2026-05-02T10:22:55Z</time></trkpt><trkpt lat="44.87442237027862" lon="12.026864341951422"><ele>-4.6</ele><time>2026-05-02T10:22:57Z</time></trkpt><trkpt lat="44.87435467429493" lon="12.026960953494509"><ele>-5.0</ele><time>2026-05-02T10:22:59Z</time></trkpt><trkpt lat="44.87428892462033" lon="12.02705986279165"><ele>-5.0</ele><time>2026-05-02T10:23:01Z</time></trkpt><trkpt lat="44.87422380750373" lon="12.027153066874666"><ele>-5.0</ele><time>2026-05-02T10:23:03Z</time></trkpt><trkpt lat="44.87416144603863" lon="12.02724117228706"><ele>-5.0</ele><time>2026-05-02T10:23:05Z</time></trkpt><trkpt lat="44.87410512306129" lon="12.027314519724413"><ele>-5.0</ele><time>2026-05-02T10:23:07Z</time></trkpt><trkpt lat="44.87405387812323" lon="12.02739106667518"><ele>-5.0</ele><time>2026-05-02T10:23:09Z</time></trkpt><trkpt lat="44.873997121707006" lon="12.027483000265171"><ele>-5.0</ele><time>2026-05-02T10:23:11Z</time></trkpt><trkpt lat="44.8739343068472" lon="12.027570304113974"><ele>-5.0</ele><time>2026-05-02T10:23:13Z</time></trkpt><trkpt lat="44.873864713842295" lon="12.027669757400364"><ele>-5.0</ele><time>2026-05-02T10:23:15Z</time></trkpt><trkpt lat="44.87380162746153" lon="12.027771445446119"><ele>-5.0</ele><time>2026-05-02T10:23:17Z</time></trkpt><trkpt lat="44.87373545634002" lon="12.027864598624644"><ele>-5.0</ele><time>2026-05-02T10:23:19Z</time></trkpt><trkpt lat="44.87367557477942" lon="12.027954730428846"><ele>-5.0</ele><time>2026-05-02T10:23:21Z</time></trkpt><trkpt lat="44.87361491682084" lon="12.028036053008382"><ele>-5.0</ele><time>2026-05-02T10:23:23Z</time></trkpt><trkpt lat="44.873559252135756" lon="12.028120686887162"><ele>-5.0</ele><time>2026-05-02T10:23:25Z</time></trkpt><trkpt lat="44.873502159330116" lon="12.028204154958074"><ele>-5.0</ele><time>2026-05-02T10:23:27Z</time></trkpt><trkpt lat="44.8734462910094" lon="12.028287675771052"><ele>-5.0</ele><time>2026-05-02T10:23:29Z</time></trkpt><trkpt lat="44.8733859410522" lon="12.02836335924745"><ele>-5.0</ele><time>2026-05-02T10:23:31Z</time></trkpt><trkpt lat="44.87332746899636" lon="12.028443308007747"><ele>-5.0</ele><time>2026-05-02T10:23:33Z</time></trkpt><trkpt lat="44.87327613840868" lon="12.028521559854788"><ele>-4.8</ele><time>2026-05-02T10:23:35Z</time></trkpt><trkpt lat="44.873219382127665" lon="12.028597370041519"><ele>-4.6</ele><time>2026-05-02T10:23:37Z</time></trkpt><trkpt lat="44.873160792846264" lon="12.028687586939398"><ele>-4.4</ele><time>2026-05-02T10:23:39Z</time></trkpt><trkpt lat="44.87309342631024" lon="12.0287826932269"><ele>-4.2</ele><time>2026-05-02T10:23:41Z</time></trkpt><trkpt lat="44.87302795977046" lon="12.028884065121582"><ele>-4.0</ele><time>2026-05-02T10:23:43Z</time></trkpt><trkpt lat="44.87295868101199" lon="12.028986185344467"><ele>-4.0</ele><time>2026-05-02T10:23:45Z</time></trkpt><trkpt lat="44.87288687697026" lon="12.029087977255974"><ele>-4.0</ele><time>2026-05-02T10:23:47Z</time></trkpt><trkpt lat="44.872812865266084" lon="12.029194273592726"><ele>-4.0</ele><time>2026-05-02T10:23:49Z</time></trkpt><trkpt lat="44.87274594091838" lon="12.029298976856959"><ele>-4.0</ele><time>2026-05-02T10:23:51Z</time></trkpt><trkpt lat="44.87267472475868" lon="12.029404335040324"><ele>-4.0</ele><time>2026-05-02T10:23:53Z</time></trkpt><trkpt lat="44.87260227232277" lon="12.029501543792161"><ele>-4.0</ele><time>2026-05-02T10:23:55Z</time></trkpt><trkpt lat="44.8725355045804" lon="12.029607248827617"><ele>-4.0</ele><time>2026-05-02T10:23:57Z</time></trkpt><trkpt lat="44.87247350668426" lon="12.02971012759685"><ele>-4.0</ele><time>2026-05-02T10:23:59Z</time></trkpt><trkpt lat="44.87240680813211" lon="12.029808157379785"><ele>-4.0</ele><time>2026-05-02T10:24:01Z</time></trkpt><trkpt lat="44.87234262271514" lon="12.029905518784888"><ele>-4.0</ele><time>2026-05-02T10:24:03Z</time></trkpt><trkpt lat="44.87227938908719" lon="12.030002485826035"><ele>-3.9999999999999996</ele><time>2026-05-02T10:24:05Z</time></trkpt><trkpt lat="44.8722174761198" lon="12.030090016238372"><ele>-4.0</ele><time>2026-05-02T10:24:07Z</time></trkpt><trkpt lat="44.872153174287874" lon="12.030180042869835"><ele>-4.0</ele><time>2026-05-02T10:24:09Z</time></trkpt><trkpt lat="44.87209221108967" lon="12.030266757211875"><ele>-4.0</ele><time>2026-05-02T10:24:11Z</time></trkpt><trkpt lat="44.87203631296297" lon="12.030348480929623"><ele>-3.9999999999999996</ele><time>2026-05-02T10:24:13Z</time></trkpt><trkpt lat="44.87198160347954" lon="12.030426559332414"><ele>-4.0</ele><time>2026-05-02T10:24:15Z</time></trkpt><trkpt lat="44.871927692841574" lon="12.030496218333774"><ele>-3.9999999999999996</ele><time>2026-05-02T10:24:17Z</time></trkpt><trkpt lat="44.87187783590677" lon="12.03057102694653"><ele>-4.0</ele><time>2026-05-02T10:24:19Z</time></trkpt><trkpt lat="44.871820327864334" lon="12.030650278251485"><ele>-4.0</ele><time>2026-05-02T10:24:21Z</time></trkpt><trkpt lat="44.871761679353874" lon="12.03074214610791"><ele>-4.0</ele><time>2026-05-02T10:24:23Z</time></trkpt><trkpt lat="44.87169787143685" lon="12.030830666677872"><ele>-3.9999999999999996</ele><time>2026-05-02T10:24:25Z</time></trkpt><trkpt lat="44.871633643807314" lon="12.030915211525338"><ele>-4.0</ele><time>2026-05-02T10:24:27Z</time></trkpt><trkpt lat="44.871569931305004" lon="12.031009977645644"><ele>-3.6666666666666665</ele><time>2026-05-02T10:24:29Z</time></trkpt><trkpt lat="44.871506385587416" lon="12.0311051014843"><ele>-3.333333333333333</ele><time>2026-05-02T10:24:31Z</time></trkpt><trkpt lat="44.87144763139534" lon="12.031188175085251"><ele>-3.0</ele><time>2026-05-02T10:24:33Z</time></trkpt><trkpt lat="44.87138984167218" lon="12.0312772983206"><ele>-2.6666666666666665</ele><time>2026-05-02T10:24:35Z</time></trkpt><trkpt lat="44.87132181552634" lon="12.031367720466271"><ele>-2.333333333333333</ele><time>2026-05-02T10:24:37Z</time></trkpt><trkpt lat="44.87126026716827" lon="12.031461921887358"><ele>-2.0</ele><time>2026-05-02T10:24:39Z</time></trkpt><trkpt lat="44.871192030776164" lon="12.031556087914812"><ele>-2.4000000000000004</ele><time>2026-05-02T10:24:41Z</time></trkpt><trkpt lat="44.87112873582927" lon="12.031650910181876"><ele>-2.8000000000000003</ele><time>2026-05-02T10:24:43Z</time></trkpt><trkpt lat="44.87106915092347" lon="12.031750350648474"><ele>-3.2</ele><time>2026-05-02T10:24:45Z</time></trkpt><trkpt lat="44.87100730361538" lon="12.031846100983122"><ele>-3.6</ele><time>2026-05-02T10:24:47Z</time></trkpt><trkpt lat="44.87094597860025" lon="12.031944080103397"><ele>-4.0</ele><time>2026-05-02T10:24:49Z</time></trkpt><trkpt lat="44.87088185543856" lon="12.032040377961287"><ele>-3.9999999999999996</ele><time>2026-05-02T10:24:51Z</time></trkpt><trkpt lat="44.8708173021003" lon="12.032137317826697"><ele>-4.0</ele><time>2026-05-02T10:24:53Z</time></trkpt><trkpt lat="44.87075118498762" lon="12.032227149282976"><ele>-4.0</ele><time>2026-05-02T10:24:55Z</time></trkpt><trkpt lat="44.87069021916291" lon="12.032323668910998"><ele>-4.0</ele><time>2026-05-02T10:24:57Z</time></trkpt><trkpt lat="44.87062328830805" lon="12.032401254234568"><ele>-3.9999999999999996</ele><time>2026-05-02T10:24:59Z</time></trkpt><trkpt lat="44.870572748673034" lon="12.032489112843525"><ele>-4.0</ele><time>2026-05-02T10:25:01Z</time></trkpt><trkpt lat="44.870510343945675" lon="12.032571849564842"><ele>-3.9999999999999996</ele><time>2026-05-02T10:25:03Z</time></trkpt><trkpt lat="44.870447571143416" lon="12.032660329081725"><ele>-4.0</ele><time>2026-05-02T10:25:05Z</time></trkpt><trkpt lat="44.870390317991095" lon="12.032743200266571"><ele>-4.0</ele><time>2026-05-02T10:25:07Z</time></trkpt><trkpt lat="44.870329071651206" lon="12.032821370177794"><ele>-4.0</ele><time>2026-05-02T10:25:09Z</time></trkpt><trkpt lat="44.870264595961544" lon="12.032911585197494"><ele>-3.9999999999999996</ele><time>2026-05-02T10:25:11Z</time></trkpt><trkpt lat="44.870200029774736" lon="12.033010858265511"><ele>-4.0</ele><time>2026-05-02T10:25:13Z</time></trkpt><trkpt lat="44.87013364539103" lon="12.033105564705078"><ele>-4.2</ele><time>2026-05-02T10:25:15Z</time></trkpt><trkpt lat="44.87007011737859" lon="12.033203438400276"><ele>-4.4</ele><time>2026-05-02T10:25:17Z</time></trkpt><trkpt lat="44.87000417073079" lon="12.033296805150904"><ele>-4.6</ele><time>2026-05-02T10:25:19Z</time></trkpt><trkpt lat="44.869937236804454" lon="12.033386067149301"><ele>-4.8</ele><time>2026-05-02T10:25:21Z</time></trkpt><trkpt lat="44.86987672932838" lon="12.033478548785382"><ele>-5.0</ele><time>2026-05-02T10:25:23Z</time></trkpt><trkpt lat="44.8698167514706" lon="12.033573405588418"><ele>-4.666666666666667</ele><time>2026-05-02T10:25:25Z</time></trkpt><trkpt lat="44.869753742970396" lon="12.033654426411223"><ele>-4.333333333333334</ele><time>2026-05-02T10:25:27Z</time></trkpt><trkpt lat="44.869694399517705" lon="12.03374465468785"><ele>-4.0</ele><time>2026-05-02T10:25:29Z</time></trkpt><trkpt lat="44.86963272164441" lon="12.033829206424347"><ele>-3.666666666666667</ele><time>2026-05-02T10:25:31Z</time></trkpt><trkpt lat="44.86957286694105" lon="12.03391835434949"><ele>-3.3333333333333335</ele><time>2026-05-02T10:25:33Z</time></trkpt><trkpt lat="44.869505097845135" lon="12.03400897532519"><ele>-3.0</ele><time>2026-05-02T10:25:35Z</time></trkpt><trkpt lat="44.86944597486193" lon="12.034113458633158"><ele>-3.0</ele><time>2026-05-02T10:25:37Z</time></trkpt><trkpt lat="44.86938155580244" lon="12.034205247683206"><ele>-3.0</ele><time>2026-05-02T10:25:39Z</time></trkpt><trkpt lat="44.869316708968775" lon="12.03429010484553"><ele>-3.0</ele><time>2026-05-02T10:25:41Z</time></trkpt><trkpt lat="44.869255962764306" lon="12.03437902266954"><ele>-3.0</ele><time>2026-05-02T10:25:43Z</time></trkpt><trkpt lat="44.86919522894592" lon="12.034467086086964"><ele>-3.0</ele><time>2026-05-02T10:25:45Z</time></trkpt><trkpt lat="44.86912538929538" lon="12.034555269998135"><ele>-3.0</ele><time>2026-05-02T10:25:47Z</time></trkpt><trkpt lat="44.86905680508233" lon="12.034658711940304"><ele>-3.2</ele><time>2026-05-02T10:25:49Z</time></trkpt><trkpt lat="44.868993217954156" lon="12.03475542461925"><ele>-3.4</ele><time>2026-05-02T10:25:51Z</time></trkpt><trkpt lat="44.86892411250123" lon="12.034851236663561"><ele>-3.6000000000000005</ele><time>2026-05-02T10:25:53Z</time></trkpt><trkpt lat="44.868859210321915" lon="12.034946144356857"><ele>-3.8000000000000003</ele><time>2026-05-02T10:25:55Z</time></trkpt><trkpt lat="44.86879359874934" lon="12.035044930863089"><ele>-4.0</ele><time>2026-05-02T10:25:57Z</time></trkpt><trkpt lat="44.868724378478085" lon="12.035143725221404"><ele>-4.0</ele><time>2026-05-02T10:25:59Z</time></trkpt><trkpt lat="44.86865715510159" lon="12.035239009083167"><ele>-4.0</ele><time>2026-05-02T10:26:01Z</time></trkpt><trkpt lat="44.868586981834625" lon="12.035334379358071"><ele>-4.0</ele><time>2026-05-02T10:26:03Z</time></trkpt><trkpt lat="44.868520903335344" lon="12.035432171974751"><ele>-4.0</ele><time>2026-05-02T10:26:05Z</time></trkpt><trkpt lat="44.86845461232665" lon="12.03552701051127"><ele>-4.0</ele><time>2026-05-02T10:26:07Z</time></trkpt><trkpt lat="44.868392063577595" lon="12.035628017122097"><ele>-4.333333333333333</ele><time>2026-05-02T10:26:09Z</time></trkpt><trkpt lat="44.86832606357279" lon="12.035718294172076"><ele>-4.666666666666666</ele><time>2026-05-02T10:26:11Z</time></trkpt><trkpt lat="44.86826628430157" lon="12.035810683979186"><ele>-5.0</ele><time>2026-05-02T10:26:13Z</time></trkpt><trkpt lat="44.86820654018874" lon="12.035890042827855"><ele>-5.333333333333333</ele><time>2026-05-02T10:26:15Z</time></trkpt><trkpt lat="44.86815277142014" lon="12.035969380472165"><ele>-5.666666666666667</ele><time>2026-05-02T10:26:17Z</time></trkpt><trkpt lat="44.868111863647194" lon="12.036048330771893"><ele>-6.0</ele><time>2026-05-02T10:26:19Z</time></trkpt><trkpt lat="44.86806698631582" lon="12.036110981020084"><ele>-5.999999999999999</ele><time>2026-05-02T10:26:21Z</time></trkpt><trkpt lat="44.86802305615589" lon="12.03619790172297"><ele>-6.0</ele><time>2026-05-02T10:26:23Z</time></trkpt><trkpt lat="44.86798515884729" lon="12.036288104495812"><ele>-6.0</ele><time>2026-05-02T10:26:25Z</time></trkpt><trkpt lat="44.86795496803397" lon="12.036378000837843"><ele>-6.0</ele><time>2026-05-02T10:26:27Z</time></trkpt><trkpt lat="44.867931564946645" lon="12.03646325824076"><ele>-6.0</ele><time>2026-05-02T10:26:29Z</time></trkpt><trkpt lat="44.867908415137755" lon="12.03658118682903"><ele>-5.999999999999999</ele><time>2026-05-02T10:26:32Z</time></trkpt><trkpt lat="44.86788453268487" lon="12.036664162755851"><ele>-6.0</ele><time>2026-05-02T10:26:41Z</time></trkpt><trkpt lat="44.86788705530356" lon="12.036755118369252"><ele>-6.166666666666667</ele><time>2026-05-02T10:33:35Z</time></trkpt><trkpt lat="44.86788495631269" lon="12.036846525703096"><ele>-6.333333333333334</ele><time>2026-05-02T10:33:38Z</time></trkpt><trkpt lat="44.86787827691301" lon="12.036961694327587"><ele>-6.5</ele><time>2026-05-02T10:33:42Z</time></trkpt><trkpt lat="44.8678827880494" lon="12.037065126408848"><ele>-6.666666666666667</ele><time>2026-05-02T10:33:46Z</time></trkpt><trkpt lat="44.867872888475944" lon="12.037196846004345"><ele>-6.833333333333334</ele><time>2026-05-02T10:33:49Z</time></trkpt><trkpt lat="44.86787553533991" lon="12.037320430999097"><ele>-7.0</ele><time>2026-05-02T10:33:51Z</time></trkpt><trkpt lat="44.867876414145925" lon="12.03744855490766"><ele>-6.6</ele><time>2026-05-02T10:33:53Z</time></trkpt><trkpt lat="44.867875326241425" lon="12.037576542269507"><ele>-6.199999999999999</ele><time>2026-05-02T10:33:55Z</time></trkpt><trkpt lat="44.86787856245325" lon="12.037703402711976"><ele>-5.8</ele><time>2026-05-02T10:33:57Z</time></trkpt><trkpt lat="44.86788244115028" lon="12.037836075604085"><ele>-5.4</ele><time>2026-05-02T10:33:59Z</time></trkpt><trkpt lat="44.86788652351109" lon="12.037962951071624"><ele>-5.0</ele><time>2026-05-02T10:34:01Z</time></trkpt><trkpt lat="44.86788322818824" lon="12.038088812564457"><ele>-5.0</ele><time>2026-05-02T10:34:03Z</time></trkpt><trkpt lat="44.86787994611946" lon="12.038215797858147"><ele>-5.0</ele><time>2026-05-02T10:34:05Z</time></trkpt><trkpt lat="44.867880418796034" lon="12.038351457031919"><ele>-5.0</ele><time>2026-05-02T10:34:07Z</time></trkpt><trkpt lat="44.867883016469506" lon="12.03848511186362"><ele>-5.0</ele><time>2026-05-02T10:34:09Z</time></trkpt><trkpt lat="44.86788499925985" lon="12.038620211881607"><ele>-5.0</ele><time>2026-05-02T10:34:11Z</time></trkpt><trkpt lat="44.8678839498428" lon="12.038749986660152"><ele>-5.0</ele><time>2026-05-02T10:34:13Z</time></trkpt><trkpt lat="44.867885385612894" lon="12.038875323402701"><ele>-5.0</ele><time>2026-05-02T10:34:15Z</time></trkpt><trkpt lat="44.86788579244483" lon="12.039009791756659"><ele>-5.0</ele><time>2026-05-02T10:34:17Z</time></trkpt><trkpt lat="44.86788948625761" lon="12.039141254789914"><ele>-5.0</ele><time>2026-05-02T10:34:19Z</time></trkpt><trkpt lat="44.86789027415665" lon="12.039272353861179"><ele>-5.0</ele><time>2026-05-02T10:34:21Z</time></trkpt><trkpt lat="44.867891344417075" lon="12.039403886043825"><ele>-5.0</ele><time>2026-05-02T10:34:23Z</time></trkpt><trkpt lat="44.86789265775673" lon="12.039531130785763"><ele>-5.0</ele><time>2026-05-02T10:34:25Z</time></trkpt><trkpt lat="44.86789220252428" lon="12.039663348820643"><ele>-5.0</ele><time>2026-05-02T10:34:27Z</time></trkpt><trkpt lat="44.867895350376685" lon="12.039790864623203"><ele>-5.0</ele><time>2026-05-02T10:34:29Z</time></trkpt><trkpt lat="44.86789593867095" lon="12.039916604927344"><ele>-5.0</ele><time>2026-05-02T10:34:31Z</time></trkpt><trkpt lat="44.86789927097078" lon="12.040045530098958"><ele>-5.0</ele><time>2026-05-02T10:34:33Z</time></trkpt><trkpt lat="44.8678986490712" lon="12.040169891786013"><ele>-5.0</ele><time>2026-05-02T10:34:35Z</time></trkpt><trkpt lat="44.86790032232885" lon="12.040298121091784"><ele>-5.0</ele><time>2026-05-02T10:34:37Z</time></trkpt><trkpt lat="44.86790219279842" lon="12.040420679746335"><ele>-5.0</ele><time>2026-05-02T10:34:39Z</time></trkpt><trkpt lat="44.867902883414494" lon="12.04055177347446"><ele>-5.0</ele><time>2026-05-02T10:34:41Z</time></trkpt><trkpt lat="44.867904408935665" lon="12.040685357790615"><ele>-4.6</ele><time>2026-05-02T10:34:43Z</time></trkpt><trkpt lat="44.86790624972143" lon="12.0408170069012"><ele>-4.2</ele><time>2026-05-02T10:34:45Z</time></trkpt><trkpt lat="44.867909195650846" lon="12.040952495807685"><ele>-3.8</ele><time>2026-05-02T10:34:47Z</time></trkpt><trkpt lat="44.867912996216525" lon="12.04108476858459"><ele>-3.4</ele><time>2026-05-02T10:34:49Z</time></trkpt><trkpt lat="44.86791427979017" lon="12.041226623438517"><ele>-3.0</ele><time>2026-05-02T10:34:51Z</time></trkpt><trkpt lat="44.86791596177486" lon="12.041373869691324"><ele>-3.0</ele><time>2026-05-02T10:34:53Z</time></trkpt><trkpt lat="44.867917368205504" lon="12.041522937697646"><ele>-3.0</ele><time>2026-05-02T10:34:55Z</time></trkpt><trkpt lat="44.86791694628645" lon="12.041681664645633"><ele>-3.0</ele><time>2026-05-02T10:34:57Z</time></trkpt><trkpt lat="44.867917665251795" lon="12.041836080684428"><ele>-3.0</ele><time>2026-05-02T10:34:59Z</time></trkpt><trkpt lat="44.867920305918695" lon="12.041986845864166"><ele>-3.0</ele><time>2026-05-02T10:35:01Z</time></trkpt><trkpt lat="44.867919339020716" lon="12.04213630080189"><ele>-3.2</ele><time>2026-05-02T10:35:03Z</time></trkpt><trkpt lat="44.867921700810676" lon="12.042283475171011"><ele>-3.4</ele><time>2026-05-02T10:35:05Z</time></trkpt><trkpt lat="44.86792379809533" lon="12.042424111827179"><ele>-3.6000000000000005</ele><time>2026-05-02T10:35:07Z</time></trkpt><trkpt lat="44.8679229367522" lon="12.042557412419285"><ele>-3.8000000000000003</ele><time>2026-05-02T10:35:09Z</time></trkpt><trkpt lat="44.867925195423545" lon="12.042691302983618"><ele>-4.0</ele><time>2026-05-02T10:35:11Z</time></trkpt><trkpt lat="44.867927033951624" lon="12.042828132086441"><ele>-4.2</ele><time>2026-05-02T10:35:13Z</time></trkpt><trkpt lat="44.86792773172732" lon="12.042964639546058"><ele>-4.4</ele><time>2026-05-02T10:35:15Z</time></trkpt><trkpt lat="44.867934147567155" lon="12.043095940090002"><ele>-4.6</ele><time>2026-05-02T10:35:17Z</time></trkpt><trkpt lat="44.86793070419735" lon="12.043229799936611"><ele>-4.8</ele><time>2026-05-02T10:35:19Z</time></trkpt><trkpt lat="44.86793158179808" lon="12.043361493878244"><ele>-5.0</ele><time>2026-05-02T10:35:21Z</time></trkpt><trkpt lat="44.867928702642445" lon="12.043487200845194"><ele>-5.0</ele><time>2026-05-02T10:35:23Z</time></trkpt><trkpt lat="44.86793022882237" lon="12.043614998043736"><ele>-5.0</ele><time>2026-05-02T10:35:25Z</time></trkpt><trkpt lat="44.867923765355926" lon="12.043740872265358"><ele>-5.0</ele><time>2026-05-02T10:35:27Z</time></trkpt><trkpt lat="44.867920324471434" lon="12.043858857200552"><ele>-5.0</ele><time>2026-05-02T10:35:29Z</time></trkpt><trkpt lat="44.86790487232249" lon="12.043976613648685"><ele>-5.0</ele><time>2026-05-02T10:35:31Z</time></trkpt><trkpt lat="44.8678809164177" lon="12.044100415805758"><ele>-5.0</ele><time>2026-05-02T10:35:33Z</time></trkpt><trkpt lat="44.867847505807376" lon="12.044216103343306"><ele>-5.0</ele><time>2026-05-02T10:35:35Z</time></trkpt><trkpt lat="44.86780698967715" lon="12.044322607049322"><ele>-5.0</ele><time>2026-05-02T10:35:37Z</time></trkpt><trkpt lat="44.86775479597632" lon="12.044428357672949"><ele>-5.0</ele><time>2026-05-02T10:35:39Z</time></trkpt><trkpt lat="44.86768488497911" lon="12.044543115900682"><ele>-5.0</ele><time>2026-05-02T10:35:41Z</time></trkpt><trkpt lat="44.867602862633234" lon="12.044646160046156"><ele>-5.0</ele><time>2026-05-02T10:35:43Z</time></trkpt><trkpt lat="44.867509870687506" lon="12.044734485480976"><ele>-5.0</ele><time>2026-05-02T10:35:45Z</time></trkpt><trkpt lat="44.867410860538456" lon="12.04481879447203"><ele>-5.0</ele><time>2026-05-02T10:35:47Z</time></trkpt><trkpt lat="44.86731205363056" lon="12.044890250152445"><ele>-5.0</ele><time>2026-05-02T10:35:49Z</time></trkpt><trkpt lat="44.867217042628056" lon="12.044957910345625"><ele>-5.0</ele><time>2026-05-02T10:35:51Z</time></trkpt><trkpt lat="44.8671210015601" lon="12.04502596994501"><ele>-5.0</ele><time>2026-05-02T10:35:53Z</time></trkpt><trkpt lat="44.86702667157083" lon="12.045090470794204"><ele>-4.8</ele><time>2026-05-02T10:35:55Z</time></trkpt><trkpt lat="44.86693663752238" lon="12.045157474650608"><ele>-4.6</ele><time>2026-05-02T10:35:57Z</time></trkpt><trkpt lat="44.86684028897432" lon="12.04523128238017"><ele>-4.4</ele><time>2026-05-02T10:35:59Z</time></trkpt><trkpt lat="44.86674458175319" lon="12.04529903814063"><ele>-4.2</ele><time>2026-05-02T10:36:01Z</time></trkpt><trkpt lat="44.86664319712394" lon="12.04536745181536"><ele>-4.0</ele><time>2026-05-02T10:36:03Z</time></trkpt><trkpt lat="44.86653689654719" lon="12.045446164553082"><ele>-4.0</ele><time>2026-05-02T10:36:05Z</time></trkpt><trkpt lat="44.866430070290825" lon="12.045524960939575"><ele>-4.0</ele><time>2026-05-02T10:36:07Z</time></trkpt><trkpt lat="44.86632400921221" lon="12.045603112713046"><ele>-4.0</ele><time>2026-05-02T10:36:09Z</time></trkpt><trkpt lat="44.866219199270716" lon="12.04567402327856"><ele>-4.0</ele><time>2026-05-02T10:36:11Z</time></trkpt><trkpt lat="44.86611239986045" lon="12.045749392153347"><ele>-4.0</ele><time>2026-05-02T10:36:13Z</time></trkpt><trkpt lat="44.8660096360604" lon="12.045820851735941"><ele>-4.0</ele><time>2026-05-02T10:36:15Z</time></trkpt><trkpt lat="44.865909548404524" lon="12.045896279541259"><ele>-4.0</ele><time>2026-05-02T10:36:17Z</time></trkpt><trkpt lat="44.86581291344292" lon="12.04596531732367"><ele>-4.0</ele><time>2026-05-02T10:36:19Z</time></trkpt><trkpt lat="44.865717015869066" lon="12.04603049527168"><ele>-4.0</ele><time>2026-05-02T10:36:21Z</time></trkpt><trkpt lat="44.865624920480975" lon="12.046101682904204"><ele>-4.0</ele><time>2026-05-02T10:36:23Z</time></trkpt><trkpt lat="44.865535597417406" lon="12.046163815450639"><ele>-4.0</ele><time>2026-05-02T10:36:25Z</time></trkpt><trkpt lat="44.865447249972505" lon="12.046225778148614"><ele>-4.0</ele><time>2026-05-02T10:36:27Z</time></trkpt><trkpt lat="44.86536274200425" lon="12.04628641474206"><ele>-4.0</ele><time>2026-05-02T10:36:29Z</time></trkpt><trkpt lat="44.86527871153005" lon="12.046349262309242"><ele>-4.0</ele><time>2026-05-02T10:36:31Z</time></trkpt><trkpt lat="44.86519544534391" lon="12.046409337087741"><ele>-4.2</ele><time>2026-05-02T10:36:33Z</time></trkpt><trkpt lat="44.86510779580939" lon="12.046470027815612"><ele>-4.4</ele><time>2026-05-02T10:36:35Z</time></trkpt><trkpt lat="44.865022280649065" lon="12.046528622955323"><ele>-4.6</ele><time>2026-05-02T10:36:37Z</time></trkpt><trkpt lat="44.86493828158241" lon="12.046592544684358"><ele>-4.8</ele><time>2026-05-02T10:36:39Z</time></trkpt><trkpt lat="44.86485242239334" lon="12.046653041362514"><ele>-5.0</ele><time>2026-05-02T10:36:41Z</time></trkpt><trkpt lat="44.864766957630515" lon="12.046718751153367"><ele>-5.2</ele><time>2026-05-02T10:36:43Z</time></trkpt><trkpt lat="44.864683195372486" lon="12.046778928439977"><ele>-5.4</ele><time>2026-05-02T10:36:45Z</time></trkpt><trkpt lat="44.86459841639755" lon="12.046839157159345"><ele>-5.6</ele><time>2026-05-02T10:36:47Z</time></trkpt><trkpt lat="44.864514476331564" lon="12.046896813622867"><ele>-5.8</ele><time>2026-05-02T10:36:49Z</time></trkpt><trkpt lat="44.86442983688519" lon="12.046959622071588"><ele>-6.0</ele><time>2026-05-02T10:36:51Z</time></trkpt><trkpt lat="44.86434439458231" lon="12.047018126710414"><ele>-6.4</ele><time>2026-05-02T10:36:53Z</time></trkpt><trkpt lat="44.86426165434902" lon="12.047083790411401"><ele>-6.8</ele><time>2026-05-02T10:36:55Z</time></trkpt><trkpt lat="44.86417392717255" lon="12.047142292961258"><ele>-7.200000000000001</ele><time>2026-05-02T10:36:57Z</time></trkpt><trkpt lat="44.864087268613694" lon="12.047205962299488"><ele>-7.6000000000000005</ele><time>2026-05-02T10:36:59Z</time></trkpt><trkpt lat="44.8640072259758" lon="12.047268051882485"><ele>-8.0</ele><time>2026-05-02T10:37:01Z</time></trkpt><trkpt lat="44.863931455941625" lon="12.0473231555542"><ele>-8.0</ele><time>2026-05-02T10:37:03Z</time></trkpt><trkpt lat="44.863852618355985" lon="12.047381450229365"><ele>-8.0</ele><time>2026-05-02T10:37:05Z</time></trkpt><trkpt lat="44.86376931739006" lon="12.047434792686431"><ele>-8.0</ele><time>2026-05-02T10:37:07Z</time></trkpt><trkpt lat="44.863683707319396" lon="12.047494959500806"><ele>-8.0</ele><time>2026-05-02T10:37:09Z</time></trkpt><trkpt lat="44.863599103662395" lon="12.047557548603326"><ele>-8.0</ele><time>2026-05-02T10:37:11Z</time></trkpt><trkpt lat="44.86351619491056" lon="12.047618712138897"><ele>-7.6000000000000005</ele><time>2026-05-02T10:37:13Z</time></trkpt><trkpt lat="44.8634282198617" lon="12.04767991808366"><ele>-7.200000000000001</ele><time>2026-05-02T10:37:15Z</time></trkpt><trkpt lat="44.86334088603425" lon="12.04774132187878"><ele>-6.8</ele><time>2026-05-02T10:37:17Z</time></trkpt><trkpt lat="44.863255159896745" lon="12.047802498936036"><ele>-6.4</ele><time>2026-05-02T10:37:19Z</time></trkpt><trkpt lat="44.86316976922823" lon="12.047860665260162"><ele>-6.0</ele><time>2026-05-02T10:37:21Z</time></trkpt><trkpt lat="44.86308149438217" lon="12.047924763450993"><ele>-6.0</ele><time>2026-05-02T10:37:23Z</time></trkpt><trkpt lat="44.86299732433335" lon="12.047986126615147"><ele>-6.0</ele><time>2026-05-02T10:37:25Z</time></trkpt><trkpt lat="44.862910894191266" lon="12.048042945593295"><ele>-6.0</ele><time>2026-05-02T10:37:27Z</time></trkpt><trkpt lat="44.862827980636666" lon="12.048106261748487"><ele>-6.0</ele><time>2026-05-02T10:37:29Z</time></trkpt><trkpt lat="44.862743555450756" lon="12.04816332366509"><ele>-6.0</ele><time>2026-05-02T10:37:31Z</time></trkpt><trkpt lat="44.862658752780774" lon="12.048228565869792"><ele>-6.0</ele><time>2026-05-02T10:37:33Z</time></trkpt><trkpt lat="44.86257572986124" lon="12.048293562019541"><ele>-6.0</ele><time>2026-05-02T10:37:35Z</time></trkpt><trkpt lat="44.86249033880337" lon="12.048347513441207"><ele>-6.0</ele><time>2026-05-02T10:37:37Z</time></trkpt><trkpt lat="44.86240840287634" lon="12.048412250377561"><ele>-6.0</ele><time>2026-05-02T10:37:39Z</time></trkpt><trkpt lat="44.86232385467531" lon="12.048469120438146"><ele>-6.0</ele><time>2026-05-02T10:37:41Z</time></trkpt><trkpt lat="44.86224048151525" lon="12.048531030906004"><ele>-6.0</ele><time>2026-05-02T10:37:43Z</time></trkpt><trkpt lat="44.86215354125305" lon="12.048593077047675"><ele>-6.0</ele><time>2026-05-02T10:37:45Z</time></trkpt><trkpt lat="44.86207054209517" lon="12.048651594427552"><ele>-6.0</ele><time>2026-05-02T10:37:47Z</time></trkpt><trkpt lat="44.86198721578459" lon="12.048718821934811"><ele>-6.0</ele><time>2026-05-02T10:37:49Z</time></trkpt><trkpt lat="44.86190321574473" lon="12.0487771484751"><ele>-6.0</ele><time>2026-05-02T10:37:51Z</time></trkpt><trkpt lat="44.86181928874217" lon="12.048836251916534"><ele>-5.8</ele><time>2026-05-02T10:37:53Z</time></trkpt><trkpt lat="44.861735155769814" lon="12.048895617639406"><ele>-5.6</ele><time>2026-05-02T10:37:55Z</time></trkpt><trkpt lat="44.86165065754076" lon="12.048959384743812"><ele>-5.4</ele><time>2026-05-02T10:37:57Z</time></trkpt><trkpt lat="44.861567045250496" lon="12.04902276641549"><ele>-5.2</ele><time>2026-05-02T10:37:59Z</time></trkpt><trkpt lat="44.86148260324774" lon="12.049081785827164"><ele>-5.0</ele><time>2026-05-02T10:38:01Z</time></trkpt><trkpt lat="44.86140187120653" lon="12.049141791163258"><ele>-4.8</ele><time>2026-05-02T10:38:03Z</time></trkpt><trkpt lat="44.86131734890735" lon="12.049203240979942"><ele>-4.6</ele><time>2026-05-02T10:38:05Z</time></trkpt><trkpt lat="44.86123465298165" lon="12.049257914325345"><ele>-4.4</ele><time>2026-05-02T10:38:07Z</time></trkpt><trkpt lat="44.86115266514143" lon="12.049317882933522"><ele>-4.2</ele><time>2026-05-02T10:38:09Z</time></trkpt><trkpt lat="44.861065332099905" lon="12.049378014119085"><ele>-4.0</ele><time>2026-05-02T10:38:11Z</time></trkpt><trkpt lat="44.860980283320494" lon="12.049439359400159"><ele>-4.6</ele><time>2026-05-02T10:38:13Z</time></trkpt><trkpt lat="44.86089816619782" lon="12.049499882511892"><ele>-5.2</ele><time>2026-05-02T10:38:15Z</time></trkpt><trkpt lat="44.86081515966851" lon="12.049559399437484"><ele>-5.799999999999999</ele><time>2026-05-02T10:38:17Z</time></trkpt><trkpt lat="44.86073330580945" lon="12.04961254928674"><ele>-6.3999999999999995</ele><time>2026-05-02T10:38:19Z</time></trkpt><trkpt lat="44.86065253966769" lon="12.049672968164698"><ele>-7.0</ele><time>2026-05-02T10:38:21Z</time></trkpt><trkpt lat="44.86057077746559" lon="12.049730264851398"><ele>-7.0</ele><time>2026-05-02T10:38:23Z</time></trkpt><trkpt lat="44.860488229603874" lon="12.049789894078888"><ele>-6.999999999999999</ele><time>2026-05-02T10:38:25Z</time></trkpt><trkpt lat="44.86040586230986" lon="12.049853519804902"><ele>-6.999999999999999</ele><time>2026-05-02T10:38:27Z</time></trkpt><trkpt lat="44.860318873104575" lon="12.049913264423619"><ele>-7.0</ele><time>2026-05-02T10:38:29Z</time></trkpt><trkpt lat="44.860236128273336" lon="12.049971117654884"><ele>-7.0</ele><time>2026-05-02T10:38:31Z</time></trkpt><trkpt lat="44.86015467249737" lon="12.050034609554688"><ele>-7.0</ele><time>2026-05-02T10:38:33Z</time></trkpt><trkpt lat="44.8600711056525" lon="12.050096075122381"><ele>-6.999999999999999</ele><time>2026-05-02T10:38:35Z</time></trkpt><trkpt lat="44.85998814512758" lon="12.050151285216627"><ele>-6.999999999999999</ele><time>2026-05-02T10:38:37Z</time></trkpt><trkpt lat="44.85990701006996" lon="12.050210395129632"><ele>-7.0</ele><time>2026-05-02T10:38:39Z</time></trkpt><trkpt lat="44.85982389958804" lon="12.050269923759606"><ele>-7.0</ele><time>2026-05-02T10:38:41Z</time></trkpt><trkpt lat="44.859737246977126" lon="12.050328175897993"><ele>-7.0</ele><time>2026-05-02T10:38:43Z</time></trkpt><trkpt lat="44.85965146771179" lon="12.050389297435116"><ele>-6.999999999999999</ele><time>2026-05-02T10:38:45Z</time></trkpt><trkpt lat="44.8595621771079" lon="12.050452013492816"><ele>-6.999999999999999</ele><time>2026-05-02T10:38:47Z</time></trkpt><trkpt lat="44.85946867803103" lon="12.050527159343016"><ele>-7.0</ele><time>2026-05-02T10:38:49Z</time></trkpt><trkpt lat="44.85936526936761" lon="12.05059507162426"><ele>-7.0</ele><time>2026-05-02T10:38:51Z</time></trkpt><trkpt lat="44.85925879466594" lon="12.050666267875323"><ele>-6.75</ele><time>2026-05-02T10:38:53Z</time></trkpt><trkpt lat="44.85915212059777" lon="12.050742262532435"><ele>-6.5</ele><time>2026-05-02T10:38:55Z</time></trkpt><trkpt lat="44.85904575107231" lon="12.050818725409076"><ele>-6.25</ele><time>2026-05-02T10:38:57Z</time></trkpt><trkpt lat="44.85894411788114" lon="12.050898644834476"><ele>-6.0</ele><time>2026-05-02T10:38:59Z</time></trkpt><trkpt lat="44.85884292894868" lon="12.050973278498562"><ele>-6.0</ele><time>2026-05-02T10:39:01Z</time></trkpt><trkpt lat="44.85874897314574" lon="12.051053711238534"><ele>-6.0</ele><time>2026-05-02T10:39:03Z</time></trkpt><trkpt lat="44.85866636471252" lon="12.051149853850161"><ele>-6.0</ele><time>2026-05-02T10:39:05Z</time></trkpt><trkpt lat="44.8585848339214" lon="12.051236325397213"><ele>-6.0</ele><time>2026-05-02T10:39:07Z</time></trkpt><trkpt lat="44.858523670042345" lon="12.051326122636658"><ele>-6.0</ele><time>2026-05-02T10:39:09Z</time></trkpt><trkpt lat="44.85846781291334" lon="12.051420721151045"><ele>-6.0</ele><time>2026-05-02T10:39:11Z</time></trkpt><trkpt lat="44.85841764375359" lon="12.051523190500955"><ele>-6.0</ele><time>2026-05-02T10:39:13Z</time></trkpt><trkpt lat="44.85837570334395" lon="12.051631384462695"><ele>-6.0</ele><time>2026-05-02T10:39:15Z</time></trkpt><trkpt lat="44.85834288361693" lon="12.051734137977801"><ele>-6.0</ele><time>2026-05-02T10:39:17Z</time></trkpt><trkpt lat="44.85831468945749" lon="12.051859245471661"><ele>-6.0</ele><time>2026-05-02T10:39:19Z</time></trkpt><trkpt lat="44.85829288110441" lon="12.051993924060822"><ele>-6.0</ele><time>2026-05-02T10:39:21Z</time></trkpt><trkpt lat="44.85828748532354" lon="12.052131397026384"><ele>-6.0</ele><time>2026-05-02T10:39:23Z</time></trkpt><trkpt lat="44.85828340840778" lon="12.05226762041713"><ele>-6.0</ele><time>2026-05-02T10:39:25Z</time></trkpt><trkpt lat="44.85828712101525" lon="12.05240015036783"><ele>-6.0</ele><time>2026-05-02T10:39:27Z</time></trkpt><trkpt lat="44.85828697823306" lon="12.05253307594755"><ele>-6.0</ele><time>2026-05-02T10:39:29Z</time></trkpt><trkpt lat="44.85829106480841" lon="12.052665315720825"><ele>-6.0</ele><time>2026-05-02T10:39:31Z</time></trkpt><trkpt lat="44.85829599040631" lon="12.052801069631755"><ele>-6.0</ele><time>2026-05-02T10:39:33Z</time></trkpt><trkpt lat="44.85829699635684" lon="12.052933984047188"><ele>-6.0</ele><time>2026-05-02T10:39:35Z</time></trkpt><trkpt lat="44.858295767900564" lon="12.053070974146577"><ele>-6.0</ele><time>2026-05-02T10:39:37Z</time></trkpt><trkpt lat="44.858296538863875" lon="12.053206076772588"><ele>-6.0</ele><time>2026-05-02T10:39:39Z</time></trkpt><trkpt lat="44.8582958622603" lon="12.053342747850929"><ele>-6.0</ele><time>2026-05-02T10:39:41Z</time></trkpt><trkpt lat="44.858297382907715" lon="12.053478552151542"><ele>-6.0</ele><time>2026-05-02T10:39:43Z</time></trkpt><trkpt lat="44.858297821216446" lon="12.053613522234325"><ele>-6.0</ele><time>2026-05-02T10:39:45Z</time></trkpt><trkpt lat="44.858299054120494" lon="12.05375117944154"><ele>-6.0</ele><time>2026-05-02T10:39:47Z</time></trkpt><trkpt lat="44.858301215081056" lon="12.05388724457691"><ele>-6.0</ele><time>2026-05-02T10:39:49Z</time></trkpt><trkpt lat="44.858303322018784" lon="12.05402355057691"><ele>-6.0</ele><time>2026-05-02T10:39:51Z</time></trkpt><trkpt lat="44.85830207927338" lon="12.054158002670164"><ele>-6.0</ele><time>2026-05-02T10:39:53Z</time></trkpt><trkpt lat="44.85830654400293" lon="12.054294483702652"><ele>-6.0</ele><time>2026-05-02T10:39:55Z</time></trkpt><trkpt lat="44.8583039909889" lon="12.054430719558027"><ele>-6.0</ele><time>2026-05-02T10:39:57Z</time></trkpt><trkpt lat="44.858305590594185" lon="12.054566195186082"><ele>-6.0</ele><time>2026-05-02T10:39:59Z</time></trkpt><trkpt lat="44.858312337182134" lon="12.054700862245177"><ele>-6.0</ele><time>2026-05-02T10:40:01Z</time></trkpt><trkpt lat="44.858307121834805" lon="12.054838969440665"><ele>-6.0</ele><time>2026-05-02T10:40:03Z</time></trkpt><trkpt lat="44.85830865715837" lon="12.054973627224363"><ele>-6.0</ele><time>2026-05-02T10:40:05Z</time></trkpt><trkpt lat="44.858309260136885" lon="12.055110810660375"><ele>-6.0</ele><time>2026-05-02T10:40:07Z</time></trkpt><trkpt lat="44.85831039870857" lon="12.05524763693077"><ele>-6.0</ele><time>2026-05-02T10:40:09Z</time></trkpt><trkpt lat="44.85831177839405" lon="12.055378890557375"><ele>-6.0</ele><time>2026-05-02T10:40:11Z</time></trkpt><trkpt lat="44.85830869973673" lon="12.055515932756473"><ele>-6.0</ele><time>2026-05-02T10:40:13Z</time></trkpt><trkpt lat="44.85831224258669" lon="12.055646949700941"><ele>-6.0</ele><time>2026-05-02T10:40:15Z</time></trkpt><trkpt lat="44.85831327364832" lon="12.05577999504576"><ele>-6.0</ele><time>2026-05-02T10:40:17Z</time></trkpt><trkpt lat="44.85831460378613" lon="12.055907686473297"><ele>-6.0</ele><time>2026-05-02T10:40:19Z</time></trkpt><trkpt lat="44.8583200026809" lon="12.056022782009858"><ele>-6.0</ele><time>2026-05-02T10:40:21Z</time></trkpt><trkpt lat="44.858320163535815" lon="12.056132510506272"><ele>-6.0</ele><time>2026-05-02T10:40:23Z</time></trkpt><trkpt lat="44.85831952996292" lon="12.05623751961114"><ele>-6.0</ele><time>2026-05-02T10:40:25Z</time></trkpt><trkpt lat="44.85831730975279" lon="12.056339121611842"><ele>-6.0</ele><time>2026-05-02T10:40:27Z</time></trkpt><trkpt lat="44.85831437449021" lon="12.056456539099075"><ele>-6.0</ele><time>2026-05-02T10:40:29Z</time></trkpt><trkpt lat="44.858316256769065" lon="12.05658228370416"><ele>-6.0</ele><time>2026-05-02T10:40:31Z</time></trkpt><trkpt lat="44.858313236302216" lon="12.056713470545528"><ele>-6.0</ele><time>2026-05-02T10:40:33Z</time></trkpt><trkpt lat="44.85831541462335" lon="12.056846000249871"><ele>-6.0</ele><time>2026-05-02T10:40:35Z</time></trkpt><trkpt lat="44.85831503466751" lon="12.05698173401619"><ele>-6.0</ele><time>2026-05-02T10:40:37Z</time></trkpt><trkpt lat="44.85831816856656" lon="12.057113345040586"><ele>-6.0</ele><time>2026-05-02T10:40:39Z</time></trkpt><trkpt lat="44.85831688855213" lon="12.057247141920225"><ele>-6.0</ele><time>2026-05-02T10:40:41Z</time></trkpt><trkpt lat="44.85831977829674" lon="12.057380144958719"><ele>-6.0</ele><time>2026-05-02T10:40:43Z</time></trkpt><trkpt lat="44.858317969966436" lon="12.057511630463011"><ele>-6.0</ele><time>2026-05-02T10:40:45Z</time></trkpt><trkpt lat="44.858319415342145" lon="12.057645180431683"><ele>-5.8</ele><time>2026-05-02T10:40:47Z</time></trkpt><trkpt lat="44.858321917591105" lon="12.057775286824768"><ele>-5.6</ele><time>2026-05-02T10:40:49Z</time></trkpt><trkpt lat="44.8583204680843" lon="12.057906942964083"><ele>-5.4</ele><time>2026-05-02T10:40:51Z</time></trkpt><trkpt lat="44.85832032986249" lon="12.058038352128344"><ele>-5.2</ele><time>2026-05-02T10:40:53Z</time></trkpt><trkpt lat="44.8583203075793" lon="12.058166631549852"><ele>-5.0</ele><time>2026-05-02T10:40:55Z</time></trkpt><trkpt lat="44.85832243096285" lon="12.058292923808198"><ele>-5.0</ele><time>2026-05-02T10:40:57Z</time></trkpt><trkpt lat="44.85832347918419" lon="12.05842149068578"><ele>-5.0</ele><time>2026-05-02T10:40:59Z</time></trkpt><trkpt lat="44.85832609296442" lon="12.058551063890434"><ele>-5.0</ele><time>2026-05-02T10:41:01Z</time></trkpt><trkpt lat="44.85833046195574" lon="12.058676967099851"><ele>-5.0</ele><time>2026-05-02T10:41:03Z</time></trkpt><trkpt lat="44.85832770995695" lon="12.058799429510728"><ele>-5.0</ele><time>2026-05-02T10:41:05Z</time></trkpt><trkpt lat="44.858326856336824" lon="12.058929729143758"><ele>-5.0</ele><time>2026-05-02T10:41:07Z</time></trkpt><trkpt lat="44.858325357986914" lon="12.059069316334464"><ele>-5.0</ele><time>2026-05-02T10:41:09Z</time></trkpt><trkpt lat="44.85833139020595" lon="12.059211381495343"><ele>-5.0</ele><time>2026-05-02T10:41:11Z</time></trkpt><trkpt lat="44.85833096737109" lon="12.05935217791887"><ele>-5.0</ele><time>2026-05-02T10:41:13Z</time></trkpt><trkpt lat="44.85833064685391" lon="12.059489808966845"><ele>-5.0</ele><time>2026-05-02T10:41:15Z</time></trkpt><trkpt lat="44.85832978155573" lon="12.059625922136533"><ele>-5.0</ele><time>2026-05-02T10:41:17Z</time></trkpt><trkpt lat="44.85833018402011" lon="12.05976407781048"><ele>-5.0</ele><time>2026-05-02T10:41:19Z</time></trkpt><trkpt lat="44.85833166377007" lon="12.059899479453184"><ele>-5.0</ele><time>2026-05-02T10:41:21Z</time></trkpt><trkpt lat="44.85833651820701" lon="12.060031532243258"><ele>-5.0</ele><time>2026-05-02T10:41:23Z</time></trkpt><trkpt lat="44.858335525331704" lon="12.060157372194858"><ele>-5.0</ele><time>2026-05-02T10:41:25Z</time></trkpt><trkpt lat="44.85833448895722" lon="12.060289117538714"><ele>-4.8</ele><time>2026-05-02T10:41:27Z</time></trkpt><trkpt lat="44.85833293574401" lon="12.06042170320923"><ele>-4.6</ele><time>2026-05-02T10:41:29Z</time></trkpt><trkpt lat="44.85833237538754" lon="12.060557395790328"><ele>-4.4</ele><time>2026-05-02T10:41:31Z</time></trkpt><trkpt lat="44.85833109533376" lon="12.06069246152507"><ele>-4.2</ele><time>2026-05-02T10:41:33Z</time></trkpt><trkpt lat="44.858335696219285" lon="12.060830586965128"><ele>-4.0</ele><time>2026-05-02T10:41:35Z</time></trkpt><trkpt lat="44.858331795223854" lon="12.060965386164971"><ele>-4.0</ele><time>2026-05-02T10:41:37Z</time></trkpt><trkpt lat="44.85833016611161" lon="12.061102562055446"><ele>-4.0</ele><time>2026-05-02T10:41:39Z</time></trkpt><trkpt lat="44.85833245158465" lon="12.061242348408587"><ele>-4.0</ele><time>2026-05-02T10:41:41Z</time></trkpt><trkpt lat="44.858331231537434" lon="12.061380635135208"><ele>-4.0</ele><time>2026-05-02T10:41:43Z</time></trkpt><trkpt lat="44.85833393446277" lon="12.061514339853574"><ele>-4.0</ele><time>2026-05-02T10:41:45Z</time></trkpt><trkpt lat="44.85833330649718" lon="12.061645667893622"><ele>-4.2</ele><time>2026-05-02T10:41:47Z</time></trkpt><trkpt lat="44.85833616115383" lon="12.06178088849497"><ele>-4.4</ele><time>2026-05-02T10:41:49Z</time></trkpt><trkpt lat="44.85833962363083" lon="12.061914960584568"><ele>-4.6</ele><time>2026-05-02T10:41:51Z</time></trkpt><trkpt lat="44.858338925190566" lon="12.06205040054031"><ele>-4.8</ele><time>2026-05-02T10:41:53Z</time></trkpt><trkpt lat="44.85833968110255" lon="12.062182574385915"><ele>-5.0</ele><time>2026-05-02T10:41:55Z</time></trkpt><trkpt lat="44.85834075654578" lon="12.062315290137807"><ele>-4.8</ele><time>2026-05-02T10:41:57Z</time></trkpt><trkpt lat="44.858337704614144" lon="12.062451743504653"><ele>-4.6</ele><time>2026-05-02T10:41:59Z</time></trkpt><trkpt lat="44.85833836872605" lon="12.062585667149742"><ele>-4.4</ele><time>2026-05-02T10:42:01Z</time></trkpt><trkpt lat="44.85833950835132" lon="12.062721549133544"><ele>-4.2</ele><time>2026-05-02T10:42:03Z</time></trkpt><trkpt lat="44.85834170502864" lon="12.06285723017574"><ele>-4.0</ele><time>2026-05-02T10:42:05Z</time></trkpt><trkpt lat="44.85834467123894" lon="12.06299271603167"><ele>-4.0</ele><time>2026-05-02T10:42:07Z</time></trkpt><trkpt lat="44.85834498426766" lon="12.06313038767968"><ele>-4.0</ele><time>2026-05-02T10:42:09Z</time></trkpt><trkpt lat="44.85834296287885" lon="12.063267062849919"><ele>-4.0</ele><time>2026-05-02T10:42:11Z</time></trkpt><trkpt lat="44.85834177627758" lon="12.06340410555638"><ele>-4.0</ele><time>2026-05-02T10:42:13Z</time></trkpt><trkpt lat="44.85834239195243" lon="12.063546086793695"><ele>-4.0</ele><time>2026-05-02T10:42:15Z</time></trkpt><trkpt lat="44.85834430974753" lon="12.063681334456154"><ele>-4.4</ele><time>2026-05-02T10:42:17Z</time></trkpt><trkpt lat="44.85834469891003" lon="12.063816271305491"><ele>-4.800000000000001</ele><time>2026-05-02T10:42:19Z</time></trkpt><trkpt lat="44.858342585424055" lon="12.063951068505439"><ele>-5.199999999999999</ele><time>2026-05-02T10:42:21Z</time></trkpt><trkpt lat="44.858344533548895" lon="12.064086215835925"><ele>-5.6</ele><time>2026-05-02T10:42:23Z</time></trkpt><trkpt lat="44.85834356072979" lon="12.064223553284865"><ele>-6.0</ele><time>2026-05-02T10:42:25Z</time></trkpt><trkpt lat="44.85834571218078" lon="12.064360051151732"><ele>-6.199999999999999</ele><time>2026-05-02T10:42:27Z</time></trkpt><trkpt lat="44.85834556932976" lon="12.064495508610454"><ele>-6.3999999999999995</ele><time>2026-05-02T10:42:29Z</time></trkpt><trkpt lat="44.8583466350186" lon="12.064629684274326"><ele>-6.6</ele><time>2026-05-02T10:42:31Z</time></trkpt><trkpt lat="44.85834661006636" lon="12.064761244178818"><ele>-6.8</ele><time>2026-05-02T10:42:33Z</time></trkpt><trkpt lat="44.85834898678383" lon="12.064893631597988"><ele>-7.0</ele><time>2026-05-02T10:42:35Z</time></trkpt><trkpt lat="44.85835062978523" lon="12.065028131466367"><ele>-6.6</ele><time>2026-05-02T10:42:37Z</time></trkpt><trkpt lat="44.858350633118256" lon="12.065160492283786"><ele>-6.199999999999999</ele><time>2026-05-02T10:42:39Z</time></trkpt><trkpt lat="44.858350243422606" lon="12.065293628223197"><ele>-5.8</ele><time>2026-05-02T10:42:41Z</time></trkpt><trkpt lat="44.85835204358133" lon="12.06542953869876"><ele>-5.4</ele><time>2026-05-02T10:42:43Z</time></trkpt><trkpt lat="44.85835123498935" lon="12.065566134242555"><ele>-5.0</ele><time>2026-05-02T10:42:45Z</time></trkpt><trkpt lat="44.858353247692506" lon="12.065697261083143"><ele>-5.6</ele><time>2026-05-02T10:42:47Z</time></trkpt><trkpt lat="44.85835243987163" lon="12.0658304358527"><ele>-6.2</ele><time>2026-05-02T10:42:49Z</time></trkpt><trkpt lat="44.8583520471409" lon="12.065964569103098"><ele>-6.800000000000001</ele><time>2026-05-02T10:42:51Z</time></trkpt><trkpt lat="44.85835385882026" lon="12.066098235570054"><ele>-7.4</ele><time>2026-05-02T10:42:53Z</time></trkpt><trkpt lat="44.858354202898255" lon="12.066230621563497"><ele>-8.0</ele><time>2026-05-02T10:42:55Z</time></trkpt><trkpt lat="44.85835549937788" lon="12.066364602340915"><ele>-8.0</ele><time>2026-05-02T10:42:57Z</time></trkpt><trkpt lat="44.85835441298874" lon="12.066494815930504"><ele>-8.0</ele><time>2026-05-02T10:42:59Z</time></trkpt><trkpt lat="44.85835648056408" lon="12.066627069056777"><ele>-8.0</ele><time>2026-05-02T10:43:01Z</time></trkpt><trkpt lat="44.858357111810925" lon="12.066758178736668"><ele>-8.0</ele><time>2026-05-02T10:43:03Z</time></trkpt><trkpt lat="44.85835930611935" lon="12.066891948973241"><ele>-8.0</ele><time>2026-05-02T10:43:05Z</time></trkpt><trkpt lat="44.85835800418824" lon="12.06702455858172"><ele>-7.6000000000000005</ele><time>2026-05-02T10:43:07Z</time></trkpt><trkpt lat="44.85835980044707" lon="12.067158545902945"><ele>-7.200000000000001</ele><time>2026-05-02T10:43:09Z</time></trkpt><trkpt lat="44.85836001827956" lon="12.067289666089442"><ele>-6.8</ele><time>2026-05-02T10:43:11Z</time></trkpt><trkpt lat="44.85836075160837" lon="12.067421213342186"><ele>-6.4</ele><time>2026-05-02T10:43:13Z</time></trkpt><trkpt lat="44.85836190455204" lon="12.067552565117483"><ele>-6.0</ele><time>2026-05-02T10:43:15Z</time></trkpt><trkpt lat="44.858362229233684" lon="12.067682014071199"><ele>-5.6</ele><time>2026-05-02T10:43:17Z</time></trkpt><trkpt lat="44.85836329827834" lon="12.067813145084862"><ele>-5.199999999999999</ele><time>2026-05-02T10:43:19Z</time></trkpt><trkpt lat="44.858362889676194" lon="12.067946400922642"><ele>-4.800000000000001</ele><time>2026-05-02T10:43:21Z</time></trkpt><trkpt lat="44.858364545627744" lon="12.068080621912266"><ele>-4.4</ele><time>2026-05-02T10:43:23Z</time></trkpt><trkpt lat="44.858368311787174" lon="12.068208589587002"><ele>-4.0</ele><time>2026-05-02T10:43:25Z</time></trkpt><trkpt lat="44.858374251457214" lon="12.068336486201622"><ele>-4.0</ele><time>2026-05-02T10:43:27Z</time></trkpt><trkpt lat="44.8583712855267" lon="12.068459846311931"><ele>-4.0</ele><time>2026-05-02T10:43:29Z</time></trkpt><trkpt lat="44.85837332701577" lon="12.06859030469805"><ele>-4.0</ele><time>2026-05-02T10:43:31Z</time></trkpt><trkpt lat="44.85837354468046" lon="12.06872038555976"><ele>-4.0</ele><time>2026-05-02T10:43:33Z</time></trkpt><trkpt lat="44.85837410867056" lon="12.068849703867095"><ele>-4.0</ele><time>2026-05-02T10:43:35Z</time></trkpt><trkpt lat="44.85837474061618" lon="12.068982886884188"><ele>-4.2</ele><time>2026-05-02T10:43:37Z</time></trkpt><trkpt lat="44.85837717939259" lon="12.069115167354878"><ele>-4.4</ele><time>2026-05-02T10:43:39Z</time></trkpt><trkpt lat="44.858381012196" lon="12.06924639167991"><ele>-4.6</ele><time>2026-05-02T10:43:41Z</time></trkpt><trkpt lat="44.8583815458414" lon="12.069376006285705"><ele>-4.8</ele><time>2026-05-02T10:43:43Z</time></trkpt><trkpt lat="44.858380400377236" lon="12.069509894156608"><ele>-5.0</ele><time>2026-05-02T10:43:45Z</time></trkpt><trkpt lat="44.85838024371399" lon="12.069644621630417"><ele>-5.0</ele><time>2026-05-02T10:43:47Z</time></trkpt><trkpt lat="44.85838043921929" lon="12.069780517178005"><ele>-5.0</ele><time>2026-05-02T10:43:49Z</time></trkpt><trkpt lat="44.85838408117092" lon="12.069920736407466"><ele>-5.0</ele><time>2026-05-02T10:43:51Z</time></trkpt><trkpt lat="44.858383779875645" lon="12.070050023998537"><ele>-5.0</ele><time>2026-05-02T10:43:53Z</time></trkpt><trkpt lat="44.85838263896585" lon="12.070181846774176"><ele>-5.0</ele><time>2026-05-02T10:43:55Z</time></trkpt><trkpt lat="44.858383817632124" lon="12.070315204691477"><ele>-5.0</ele><time>2026-05-02T10:43:57Z</time></trkpt><trkpt lat="44.85838253192831" lon="12.07044938534095"><ele>-5.0</ele><time>2026-05-02T10:43:59Z</time></trkpt><trkpt lat="44.858384720376705" lon="12.07058138636684"><ele>-5.0</ele><time>2026-05-02T10:44:01Z</time></trkpt><trkpt lat="44.858387440208105" lon="12.070718356135783"><ele>-5.0</ele><time>2026-05-02T10:44:03Z</time></trkpt><trkpt lat="44.858391282237015" lon="12.070853202027722"><ele>-5.0</ele><time>2026-05-02T10:44:05Z</time></trkpt><trkpt lat="44.858388335011796" lon="12.07098765043935"><ele>-5.0</ele><time>2026-05-02T10:44:07Z</time></trkpt><trkpt lat="44.85838930432147" lon="12.071121772246887"><ele>-5.0</ele><time>2026-05-02T10:44:09Z</time></trkpt><trkpt lat="44.8583926495805" lon="12.071256181543935"><ele>-5.0</ele><time>2026-05-02T10:44:11Z</time></trkpt><trkpt lat="44.85839195738927" lon="12.071388006428739"><ele>-5.0</ele><time>2026-05-02T10:44:13Z</time></trkpt><trkpt lat="44.85839087524007" lon="12.071518501482323"><ele>-5.0</ele><time>2026-05-02T10:44:15Z</time></trkpt><trkpt lat="44.858391186006315" lon="12.071646824237547"><ele>-4.833333333333334</ele><time>2026-05-02T10:44:17Z</time></trkpt><trkpt lat="44.85839306490003" lon="12.071769720084468"><ele>-4.666666666666667</ele><time>2026-05-02T10:44:19Z</time></trkpt><trkpt lat="44.85839610796036" lon="12.071889208897918"><ele>-4.5</ele><time>2026-05-02T10:44:21Z</time></trkpt><trkpt lat="44.85839602446672" lon="12.072007270294076"><ele>-4.333333333333333</ele><time>2026-05-02T10:44:23Z</time></trkpt><trkpt lat="44.8583939002395" lon="12.072133450598184"><ele>-4.166666666666666</ele><time>2026-05-02T10:44:25Z</time></trkpt><trkpt lat="44.85839742167133" lon="12.072263389896426"><ele>-4.0</ele><time>2026-05-02T10:44:27Z</time></trkpt><trkpt lat="44.858396294163214" lon="12.072404552506354"><ele>-4.2</ele><time>2026-05-02T10:44:29Z</time></trkpt><trkpt lat="44.858400737203276" lon="12.072532924609352"><ele>-4.4</ele><time>2026-05-02T10:44:31Z</time></trkpt><trkpt lat="44.85839506898855" lon="12.072658073913159"><ele>-4.6</ele><time>2026-05-02T10:44:33Z</time></trkpt><trkpt lat="44.85839931066982" lon="12.072789135580239"><ele>-4.8</ele><time>2026-05-02T10:44:35Z</time></trkpt><trkpt lat="44.85839646100025" lon="12.0729225042275"><ele>-5.0</ele><time>2026-05-02T10:44:37Z</time></trkpt><trkpt lat="44.85839872068325" lon="12.073055953699143"><ele>-5.0</ele><time>2026-05-02T10:44:39Z</time></trkpt><trkpt lat="44.85839674699933" lon="12.073191442168923"><ele>-5.0</ele><time>2026-05-02T10:44:41Z</time></trkpt><trkpt lat="44.8584025184026" lon="12.07332558120287"><ele>-5.0</ele><time>2026-05-02T10:44:43Z</time></trkpt><trkpt lat="44.858406505641334" lon="12.073459044747294"><ele>-5.0</ele><time>2026-05-02T10:44:45Z</time></trkpt><trkpt lat="44.8584090476237" lon="12.073590542727098"><ele>-5.0</ele><time>2026-05-02T10:44:47Z</time></trkpt><trkpt lat="44.85840944910687" lon="12.073723572220274"><ele>-4.8</ele><time>2026-05-02T10:44:49Z</time></trkpt><trkpt lat="44.85840712616825" lon="12.073856122308573"><ele>-4.6</ele><time>2026-05-02T10:44:51Z</time></trkpt><trkpt lat="44.85840939091372" lon="12.07398853068655"><ele>-4.4</ele><time>2026-05-02T10:44:53Z</time></trkpt><trkpt lat="44.85841158109062" lon="12.0741199797596"><ele>-4.2</ele><time>2026-05-02T10:44:55Z</time></trkpt><trkpt lat="44.85841329576569" lon="12.074247110904896"><ele>-4.0</ele><time>2026-05-02T10:44:57Z</time></trkpt><trkpt lat="44.85841218224032" lon="12.0743765492699"><ele>-3.833333333333333</ele><time>2026-05-02T10:44:59Z</time></trkpt><trkpt lat="44.85841229825959" lon="12.074509404731836"><ele>-3.6666666666666665</ele><time>2026-05-02T10:45:01Z</time></trkpt><trkpt lat="44.85841234045734" lon="12.074640364476178"><ele>-3.5</ele><time>2026-05-02T10:45:03Z</time></trkpt><trkpt lat="44.858416176578594" lon="12.074762793399719"><ele>-3.333333333333333</ele><time>2026-05-02T10:45:05Z</time></trkpt><trkpt lat="44.858416146194" lon="12.07488422184307"><ele>-3.1666666666666665</ele><time>2026-05-02T10:45:07Z</time></trkpt><trkpt lat="44.85841985481066" lon="12.075004694540604"><ele>-3.0</ele><time>2026-05-02T10:45:09Z</time></trkpt><trkpt lat="44.85842090645118" lon="12.075130926266624"><ele>-3.2</ele><time>2026-05-02T10:45:11Z</time></trkpt><trkpt lat="44.85841756242725" lon="12.075265043430276"><ele>-3.4</ele><time>2026-05-02T10:45:13Z</time></trkpt><trkpt lat="44.858418822543456" lon="12.07540070750353"><ele>-3.6000000000000005</ele><time>2026-05-02T10:45:15Z</time></trkpt><trkpt lat="44.858420718883444" lon="12.075542347312982"><ele>-3.8000000000000003</ele><time>2026-05-02T10:45:17Z</time></trkpt><trkpt lat="44.85842688875303" lon="12.075682813771781"><ele>-4.0</ele><time>2026-05-02T10:45:19Z</time></trkpt><trkpt lat="44.85842723668829" lon="12.075825484878761"><ele>-4.0</ele><time>2026-05-02T10:45:21Z</time></trkpt><trkpt lat="44.85843012088256" lon="12.075962263116432"><ele>-4.0</ele><time>2026-05-02T10:45:23Z</time></trkpt><trkpt lat="44.85842790928896" lon="12.07610013504938"><ele>-4.0</ele><time>2026-05-02T10:45:25Z</time></trkpt><trkpt lat="44.85843464124586" lon="12.076234155257417"><ele>-4.0</ele><time>2026-05-02T10:45:27Z</time></trkpt><trkpt lat="44.858433400760916" lon="12.07636055306997"><ele>-4.0</ele><time>2026-05-02T10:45:29Z</time></trkpt><trkpt lat="44.858429602447856" lon="12.076481340925259"><ele>-4.2</ele><time>2026-05-02T10:45:31Z</time></trkpt><trkpt lat="44.858429841152315" lon="12.076617798522037"><ele>-4.4</ele><time>2026-05-02T10:45:33Z</time></trkpt><trkpt lat="44.85842800187768" lon="12.076752852697084"><ele>-4.6</ele><time>2026-05-02T10:45:35Z</time></trkpt><trkpt lat="44.858429649317394" lon="12.076885494063196"><ele>-4.8</ele><time>2026-05-02T10:45:37Z</time></trkpt><trkpt lat="44.85843164237939" lon="12.077016893342005"><ele>-5.0</ele><time>2026-05-02T10:45:39Z</time></trkpt><trkpt lat="44.858436072793815" lon="12.077148347972987"><ele>-5.0</ele><time>2026-05-02T10:45:41Z</time></trkpt><trkpt lat="44.85843788033748" lon="12.07728162394901"><ele>-5.0</ele><time>2026-05-02T10:45:43Z</time></trkpt><trkpt lat="44.858434636545034" lon="12.077412591477284"><ele>-5.0</ele><time>2026-05-02T10:45:45Z</time></trkpt><trkpt lat="44.858434275107385" lon="12.077547246123485"><ele>-5.0</ele><time>2026-05-02T10:45:47Z</time></trkpt><trkpt lat="44.85843461981772" lon="12.07767227671075"><ele>-5.0</ele><time>2026-05-02T10:45:49Z</time></trkpt><trkpt lat="44.85844000222803" lon="12.077805810843142"><ele>-4.8</ele><time>2026-05-02T10:45:51Z</time></trkpt><trkpt lat="44.85844071824422" lon="12.077933064667636"><ele>-4.6</ele><time>2026-05-02T10:45:53Z</time></trkpt><trkpt lat="44.8584378616949" lon="12.07806401118579"><ele>-4.4</ele><time>2026-05-02T10:45:55Z</time></trkpt><trkpt lat="44.85843981257334" lon="12.078197235708117"><ele>-4.2</ele><time>2026-05-02T10:45:57Z</time></trkpt><trkpt lat="44.85843852750354" lon="12.078327220751635"><ele>-4.0</ele><time>2026-05-02T10:45:59Z</time></trkpt><trkpt lat="44.85844123359229" lon="12.078460550943092"><ele>-4.0</ele><time>2026-05-02T10:46:01Z</time></trkpt><trkpt lat="44.858441603870375" lon="12.07859498366403"><ele>-4.0</ele><time>2026-05-02T10:46:03Z</time></trkpt><trkpt lat="44.85844277628294" lon="12.078728044601634"><ele>-4.0</ele><time>2026-05-02T10:46:05Z</time></trkpt><trkpt lat="44.858447538305484" lon="12.078862622248243"><ele>-4.0</ele><time>2026-05-02T10:46:07Z</time></trkpt><trkpt lat="44.85844582659742" lon="12.078994980895086"><ele>-4.0</ele><time>2026-05-02T10:46:09Z</time></trkpt><trkpt lat="44.85844607151941" lon="12.079132005207779"><ele>-4.2</ele><time>2026-05-02T10:46:11Z</time></trkpt><trkpt lat="44.85844644880214" lon="12.079267641188443"><ele>-4.4</ele><time>2026-05-02T10:46:13Z</time></trkpt><trkpt lat="44.85844806340842" lon="12.07940379022315"><ele>-4.6</ele><time>2026-05-02T10:46:15Z</time></trkpt><trkpt lat="44.85844850074973" lon="12.079541623966023"><ele>-4.8</ele><time>2026-05-02T10:46:17Z</time></trkpt><trkpt lat="44.85844927622934" lon="12.079680545581503"><ele>-5.0</ele><time>2026-05-02T10:46:19Z</time></trkpt><trkpt lat="44.858451199388064" lon="12.079822607495526"><ele>-5.0</ele><time>2026-05-02T10:46:21Z</time></trkpt><trkpt lat="44.858450343164584" lon="12.079968849850175"><ele>-5.0</ele><time>2026-05-02T10:46:23Z</time></trkpt><trkpt lat="44.858447837425565" lon="12.080114078825028"><ele>-5.0</ele><time>2026-05-02T10:46:25Z</time></trkpt><trkpt lat="44.85845000741236" lon="12.080254574639454"><ele>-5.0</ele><time>2026-05-02T10:46:27Z</time></trkpt><trkpt lat="44.85845174900615" lon="12.080392353304415"><ele>-5.0</ele><time>2026-05-02T10:46:29Z</time></trkpt><trkpt lat="44.85845534465494" lon="12.08052649689538"><ele>-5.0</ele><time>2026-05-02T10:46:31Z</time></trkpt><trkpt lat="44.85845366140978" lon="12.080656281391079"><ele>-5.0</ele><time>2026-05-02T10:46:33Z</time></trkpt><trkpt lat="44.85845427648982" lon="12.080781259261032"><ele>-5.0</ele><time>2026-05-02T10:46:35Z</time></trkpt><trkpt lat="44.85845620164852" lon="12.080905961471254"><ele>-5.0</ele><time>2026-05-02T10:46:37Z</time></trkpt><trkpt lat="44.85845553739897" lon="12.08103783872753"><ele>-5.0</ele><time>2026-05-02T10:46:39Z</time></trkpt><trkpt lat="44.85845525098406" lon="12.081174944586131"><ele>-5.0</ele><time>2026-05-02T10:46:41Z</time></trkpt><trkpt lat="44.858455553965165" lon="12.081311841282242"><ele>-5.0</ele><time>2026-05-02T10:46:43Z</time></trkpt><trkpt lat="44.8584572585684" lon="12.081450069293737"><ele>-5.0</ele><time>2026-05-02T10:46:45Z</time></trkpt><trkpt lat="44.85845973800992" lon="12.081584282520298"><ele>-5.0</ele><time>2026-05-02T10:46:47Z</time></trkpt><trkpt lat="44.858455318098265" lon="12.081715746378425"><ele>-5.0</ele><time>2026-05-02T10:46:49Z</time></trkpt><trkpt lat="44.85845448103335" lon="12.081848716199653"><ele>-4.8</ele><time>2026-05-02T10:46:51Z</time></trkpt><trkpt lat="44.85845594305152" lon="12.08198277383123"><ele>-4.6</ele><time>2026-05-02T10:46:53Z</time></trkpt><trkpt lat="44.858455619998544" lon="12.08211378309468"><ele>-4.4</ele><time>2026-05-02T10:46:55Z</time></trkpt><trkpt lat="44.858455774241236" lon="12.08224747094057"><ele>-4.2</ele><time>2026-05-02T10:46:57Z</time></trkpt><trkpt lat="44.8584583684861" lon="12.08238080689984"><ele>-4.0</ele><time>2026-05-02T10:46:59Z</time></trkpt><trkpt lat="44.85845797723386" lon="12.082512153590375"><ele>-4.0</ele><time>2026-05-02T10:47:01Z</time></trkpt><trkpt lat="44.85845803258347" lon="12.082641772401983"><ele>-4.0</ele><time>2026-05-02T10:47:03Z</time></trkpt><trkpt lat="44.85845869029149" lon="12.082775522057775"><ele>-4.0</ele><time>2026-05-02T10:47:05Z</time></trkpt><trkpt lat="44.85845755630814" lon="12.082908225152138"><ele>-4.0</ele><time>2026-05-02T10:47:07Z</time></trkpt><trkpt lat="44.85845812001379" lon="12.083041504674869"><ele>-4.0</ele><time>2026-05-02T10:47:09Z</time></trkpt><trkpt lat="44.85846195431742" lon="12.083173815950891"><ele>-3.9999999999999996</ele><time>2026-05-02T10:47:11Z</time></trkpt><trkpt lat="44.858463598705036" lon="12.083303270602972"><ele>-4.0</ele><time>2026-05-02T10:47:13Z</time></trkpt><trkpt lat="44.85846421572953" lon="12.083424582789291"><ele>-4.0</ele><time>2026-05-02T10:47:15Z</time></trkpt><trkpt lat="44.85847422027519" lon="12.083537548358473"><ele>-4.0</ele><time>2026-05-02T10:47:17Z</time></trkpt><trkpt lat="44.85847472208284" lon="12.083642475686167"><ele>-3.9999999999999996</ele><time>2026-05-02T10:47:19Z</time></trkpt><trkpt lat="44.858478392076314" lon="12.083737817159287"><ele>-4.0</ele><time>2026-05-02T10:47:21Z</time></trkpt><trkpt lat="44.85847553260902" lon="12.083868211224823"><ele>-3.9999999999999996</ele><time>2026-05-02T10:47:24Z</time></trkpt><trkpt lat="44.858477971146634" lon="12.083986813501767"><ele>-4.0</ele><time>2026-05-02T10:47:27Z</time></trkpt><trkpt lat="44.858481412366785" lon="12.084096503341717"><ele>-4.0</ele><time>2026-05-02T10:47:29Z</time></trkpt><trkpt lat="44.8584832407903" lon="12.084218858863078"><ele>-4.0</ele><time>2026-05-02T10:47:31Z</time></trkpt><trkpt lat="44.858474673185704" lon="12.084341696289638"><ele>-3.9999999999999996</ele><time>2026-05-02T10:47:33Z</time></trkpt><trkpt lat="44.85848058506387" lon="12.084457421355557"><ele>-4.0</ele><time>2026-05-02T10:47:35Z</time></trkpt><trkpt lat="44.85848022467277" lon="12.08454758070587"><ele>-3.6666666666666665</ele><time>2026-05-02T10:47:37Z</time></trkpt><trkpt lat="44.858479101490154" lon="12.08467272975595"><ele>-3.333333333333333</ele><time>2026-05-02T10:47:40Z</time></trkpt><trkpt lat="44.858477708970646" lon="12.084782435772789"><ele>-3.0</ele><time>2026-05-02T10:47:42Z</time></trkpt><trkpt lat="44.858475890394075" lon="12.084893782423777"><ele>-2.6666666666666665</ele><time>2026-05-02T10:47:44Z</time></trkpt><trkpt lat="44.85847703641389" lon="12.085009041628382"><ele>-2.333333333333333</ele><time>2026-05-02T10:47:46Z</time></trkpt><trkpt lat="44.85848381494056" lon="12.08511822820365"><ele>-2.0</ele><time>2026-05-02T10:47:48Z</time></trkpt><trkpt lat="44.85848891471374" lon="12.085222111577295"><ele>-1.9999999999999998</ele><time>2026-05-02T10:47:50Z</time></trkpt><trkpt lat="44.85848638000709" lon="12.085318558523772"><ele>-2.0</ele><time>2026-05-02T10:47:52Z</time></trkpt><trkpt lat="44.858480617955024" lon="12.085408014909568"><ele>-2.0</ele><time>2026-05-02T10:47:55Z</time></trkpt><trkpt lat="44.85851925429113" lon="12.085504967506882"><ele>-2.0</ele><time>2026-05-02T10:48:06Z</time></trkpt><trkpt lat="44.8586044891642" lon="12.085500617529647"><ele>-1.9999999999999998</ele><time>2026-05-02T10:48:08Z</time></trkpt><trkpt lat="44.858691201356436" lon="12.085463537678445"><ele>-2.0</ele><time>2026-05-02T10:48:10Z</time></trkpt><trkpt lat="44.858779339331285" lon="12.085433256744192"><ele>-2.0</ele><time>2026-05-02T10:48:12Z</time></trkpt><trkpt lat="44.858873889813154" lon="12.085407863366319"><ele>-2.0</ele><time>2026-05-02T10:48:14Z</time></trkpt><trkpt lat="44.85896516154334" lon="12.085374540297803"><ele>-2.0</ele><time>2026-05-02T10:48:16Z</time></trkpt><trkpt lat="44.85905574724603" lon="12.085345490018733"><ele>-2.0</ele><time>2026-05-02T10:48:18Z</time></trkpt><trkpt lat="44.859146518991835" lon="12.08532267185771"><ele>-2.0</ele><time>2026-05-02T10:48:20Z</time></trkpt><trkpt lat="44.85923978477036" lon="12.085299883590244"><ele>-1.8</ele><time>2026-05-02T10:48:22Z</time></trkpt><trkpt lat="44.85933146581515" lon="12.085271606496317"><ele>-1.6</ele><time>2026-05-02T10:48:24Z</time></trkpt><trkpt lat="44.859421797658754" lon="12.085242931544137"><ele>-1.4000000000000001</ele><time>2026-05-02T10:48:26Z</time></trkpt><trkpt lat="44.859516676376856" lon="12.085216758752436"><ele>-1.2000000000000002</ele><time>2026-05-02T10:48:28Z</time></trkpt><trkpt lat="44.85960967431872" lon="12.085190155169798"><ele>-1.0</ele><time>2026-05-02T10:48:30Z</time></trkpt><trkpt lat="44.85970105242224" lon="12.085163899502529"><ele>-1.0</ele><time>2026-05-02T10:48:32Z</time></trkpt><trkpt lat="44.85979223327122" lon="12.08514171095119"><ele>-1.0</ele><time>2026-05-02T10:48:34Z</time></trkpt><trkpt lat="44.85988374349378" lon="12.08511287132507"><ele>-1.0</ele><time>2026-05-02T10:48:36Z</time></trkpt><trkpt lat="44.859976706783435" lon="12.085080136794433"><ele>-1.0</ele><time>2026-05-02T10:48:38Z</time></trkpt><trkpt lat="44.860069800624515" lon="12.085058387951117"><ele>-1.0</ele><time>2026-05-02T10:48:40Z</time></trkpt><trkpt lat="44.86016128440591" lon="12.085028140542828"><ele>-1.2000000000000002</ele><time>2026-05-02T10:48:42Z</time></trkpt><trkpt lat="44.860252088140314" lon="12.084994496397607"><ele>-1.4000000000000001</ele><time>2026-05-02T10:48:44Z</time></trkpt><trkpt lat="44.86034604157027" lon="12.084968070878066"><ele>-1.6</ele><time>2026-05-02T10:48:46Z</time></trkpt><trkpt lat="44.86043773359072" lon="12.084939829315998"><ele>-1.8</ele><time>2026-05-02T10:48:48Z</time></trkpt><trkpt lat="44.860531031293604" lon="12.08491288309045"><ele>-2.0</ele><time>2026-05-02T10:48:50Z</time></trkpt><trkpt lat="44.86062128835278" lon="12.084876937813297"><ele>-2.0</ele><time>2026-05-02T10:48:52Z</time></trkpt><trkpt lat="44.860712496415886" lon="12.084843358625749"><ele>-2.0</ele><time>2026-05-02T10:48:54Z</time></trkpt><trkpt lat="44.860801465653246" lon="12.084804682796031"><ele>-2.0</ele><time>2026-05-02T10:48:56Z</time></trkpt><trkpt lat="44.86089182557174" lon="12.084762798991548"><ele>-2.0</ele><time>2026-05-02T10:48:58Z</time></trkpt><trkpt lat="44.86098068313228" lon="12.084717635435492"><ele>-2.0</ele><time>2026-05-02T10:49:00Z</time></trkpt><trkpt lat="44.861067894382884" lon="12.084673837406145"><ele>-1.6</ele><time>2026-05-02T10:49:02Z</time></trkpt><trkpt lat="44.86115516873638" lon="12.084626121113422"><ele>-1.2000000000000002</ele><time>2026-05-02T10:49:04Z</time></trkpt><trkpt lat="44.86124336947597" lon="12.084580137443178"><ele>-0.8</ele><time>2026-05-02T10:49:06Z</time></trkpt><trkpt lat="44.86132962770576" lon="12.084531986508823"><ele>-0.4</ele><time>2026-05-02T10:49:08Z</time></trkpt><trkpt lat="44.86141827193756" lon="12.08448252225836"><ele>0.0</ele><time>2026-05-02T10:49:10Z</time></trkpt><trkpt lat="44.861505852020436" lon="12.084433974226592"><ele>0.0</ele><time>2026-05-02T10:49:12Z</time></trkpt><trkpt lat="44.861593957143334" lon="12.08438916156798"><ele>0.0</ele><time>2026-05-02T10:49:14Z</time></trkpt><trkpt lat="44.86168247556719" lon="12.084341843194998"><ele>0.0</ele><time>2026-05-02T10:49:16Z</time></trkpt><trkpt lat="44.861769434520106" lon="12.084294821203752"><ele>0.0</ele><time>2026-05-02T10:49:18Z</time></trkpt><trkpt lat="44.86185804268781" lon="12.084248087467298"><ele>0.0</ele><time>2026-05-02T10:49:20Z</time></trkpt><trkpt lat="44.861946101800385" lon="12.084204638853153"><ele>0.0</ele><time>2026-05-02T10:49:22Z</time></trkpt><trkpt lat="44.86203477596126" lon="12.084154501918903"><ele>0.0</ele><time>2026-05-02T10:49:24Z</time></trkpt><trkpt lat="44.862122333151746" lon="12.084109329319077"><ele>0.0</ele><time>2026-05-02T10:49:26Z</time></trkpt><trkpt lat="44.862208667357" lon="12.084060929305139"><ele>0.0</ele><time>2026-05-02T10:49:28Z</time></trkpt><trkpt lat="44.86229547770514" lon="12.08401559732598"><ele>0.0</ele><time>2026-05-02T10:49:30Z</time></trkpt><trkpt lat="44.862384528524714" lon="12.083968852831488"><ele>0.0</ele><time>2026-05-02T10:49:32Z</time></trkpt><trkpt lat="44.8624719790788" lon="12.083922487629707"><ele>0.0</ele><time>2026-05-02T10:49:34Z</time></trkpt><trkpt lat="44.86256016253628" lon="12.08387825734236"><ele>0.0</ele><time>2026-05-02T10:49:36Z</time></trkpt><trkpt lat="44.86264829067671" lon="12.08382993293959"><ele>0.0</ele><time>2026-05-02T10:49:38Z</time></trkpt><trkpt lat="44.86273648191165" lon="12.083783337334497"><ele>0.0</ele><time>2026-05-02T10:49:40Z</time></trkpt><trkpt lat="44.86281570801984" lon="12.083737763764015"><ele>-0.16666666666666666</ele><time>2026-05-02T10:49:42Z</time></trkpt><trkpt lat="44.86289188255213" lon="12.083695455184785"><ele>-0.3333333333333333</ele><time>2026-05-02T10:49:44Z</time></trkpt><trkpt lat="44.86296937418834" lon="12.083661404059596"><ele>-0.5</ele><time>2026-05-02T10:49:46Z</time></trkpt><trkpt lat="44.863053010070466" lon="12.083611185904157"><ele>-0.6666666666666666</ele><time>2026-05-02T10:49:48Z</time></trkpt><trkpt lat="44.863141158505584" lon="12.08356563968298"><ele>-0.8333333333333333</ele><time>2026-05-02T10:49:50Z</time></trkpt><trkpt lat="44.863230992943386" lon="12.083521289700121"><ele>-1.0</ele><time>2026-05-02T10:49:52Z</time></trkpt><trkpt lat="44.86331972336344" lon="12.08347182704572"><ele>-1.0</ele><time>2026-05-02T10:49:54Z</time></trkpt><trkpt lat="44.86340678170949" lon="12.083420513573103"><ele>-1.0</ele><time>2026-05-02T10:49:56Z</time></trkpt><trkpt lat="44.8634948100792" lon="12.083372621874695"><ele>-1.0</ele><time>2026-05-02T10:49:58Z</time></trkpt><trkpt lat="44.863583695214565" lon="12.083323036715752"><ele>-1.0</ele><time>2026-05-02T10:50:00Z</time></trkpt><trkpt lat="44.86367199330367" lon="12.083275306781463"><ele>-1.0</ele><time>2026-05-02T10:50:02Z</time></trkpt><trkpt lat="44.863759450629274" lon="12.083229874419079"><ele>-1.2000000000000002</ele><time>2026-05-02T10:50:04Z</time></trkpt><trkpt lat="44.86384980140686" lon="12.08318592643078"><ele>-1.4000000000000001</ele><time>2026-05-02T10:50:06Z</time></trkpt><trkpt lat="44.86394220213975" lon="12.083147774268559"><ele>-1.6</ele><time>2026-05-02T10:50:08Z</time></trkpt><trkpt lat="44.86403302634102" lon="12.083115446525428"><ele>-1.8</ele><time>2026-05-02T10:50:10Z</time></trkpt><trkpt lat="44.864121726023505" lon="12.083088471618035"><ele>-2.0</ele><time>2026-05-02T10:50:12Z</time></trkpt><trkpt lat="44.86421372753954" lon="12.083069113869014"><ele>-1.6</ele><time>2026-05-02T10:50:14Z</time></trkpt><trkpt lat="44.864309116875525" lon="12.083051647788858"><ele>-1.2000000000000002</ele><time>2026-05-02T10:50:16Z</time></trkpt><trkpt lat="44.864404070955615" lon="12.08304444915018"><ele>-0.8</ele><time>2026-05-02T10:50:18Z</time></trkpt><trkpt lat="44.864499512502924" lon="12.083048805587428"><ele>-0.4</ele><time>2026-05-02T10:50:20Z</time></trkpt><trkpt lat="44.864593748484076" lon="12.08304736954379"><ele>0.0</ele><time>2026-05-02T10:50:22Z</time></trkpt><trkpt lat="44.86468674906526" lon="12.083058278330773"><ele>0.0</ele><time>2026-05-02T10:50:24Z</time></trkpt><trkpt lat="44.864780633168415" lon="12.083075483539417"><ele>0.0</ele><time>2026-05-02T10:50:26Z</time></trkpt><trkpt lat="44.86487337180488" lon="12.083092224155445"><ele>0.0</ele><time>2026-05-02T10:50:28Z</time></trkpt><trkpt lat="44.86497022334833" lon="12.083108213269476"><ele>0.0</ele><time>2026-05-02T10:50:30Z</time></trkpt><trkpt lat="44.86506388844444" lon="12.083128811650164"><ele>0.0</ele><time>2026-05-02T10:50:32Z</time></trkpt><trkpt lat="44.865157939477825" lon="12.083143482637588"><ele>-0.4</ele><time>2026-05-02T10:50:34Z</time></trkpt><trkpt lat="44.86524987974048" lon="12.083156189849717"><ele>-0.8</ele><time>2026-05-02T10:50:36Z</time></trkpt><trkpt lat="44.86534747616177" lon="12.083172512140038"><ele>-1.2000000000000002</ele><time>2026-05-02T10:50:38Z</time></trkpt><trkpt lat="44.865440698074295" lon="12.083194095816502"><ele>-1.6</ele><time>2026-05-02T10:50:40Z</time></trkpt><trkpt lat="44.86553486424377" lon="12.083212046539986"><ele>-2.0</ele><time>2026-05-02T10:50:42Z</time></trkpt><trkpt lat="44.865625462792906" lon="12.083227311877561"><ele>-2.0</ele><time>2026-05-02T10:50:44Z</time></trkpt><trkpt lat="44.86571464282251" lon="12.083242357797944"><ele>-2.0</ele><time>2026-05-02T10:50:46Z</time></trkpt><trkpt lat="44.865806285179374" lon="12.083256105891897"><ele>-2.0</ele><time>2026-05-02T10:50:48Z</time></trkpt><trkpt lat="44.86590036387381" lon="12.083274159273001"><ele>-2.0</ele><time>2026-05-02T10:50:50Z</time></trkpt><trkpt lat="44.86598930106913" lon="12.083292085296572"><ele>-2.0</ele><time>2026-05-02T10:50:52Z</time></trkpt><trkpt lat="44.86608585499946" lon="12.083305756324922"><ele>-1.8</ele><time>2026-05-02T10:50:54Z</time></trkpt><trkpt lat="44.866178516197905" lon="12.083325496695556"><ele>-1.6</ele><time>2026-05-02T10:50:56Z</time></trkpt><trkpt lat="44.866272758642445" lon="12.083341859322305"><ele>-1.4000000000000001</ele><time>2026-05-02T10:50:58Z</time></trkpt><trkpt lat="44.86636490845642" lon="12.083355964092629"><ele>-1.2000000000000002</ele><time>2026-05-02T10:51:00Z</time></trkpt><trkpt lat="44.8664556282792" lon="12.08336995607929"><ele>-1.0</ele><time>2026-05-02T10:51:02Z</time></trkpt><trkpt lat="44.866542529571255" lon="12.083383765872684"><ele>-0.9999999999999999</ele><time>2026-05-02T10:51:04Z</time></trkpt><trkpt lat="44.86662498325016" lon="12.08340091198927"><ele>-1.0</ele><time>2026-05-02T10:51:06Z</time></trkpt><trkpt lat="44.866707212823854" lon="12.083414899000513"><ele>-1.0</ele><time>2026-05-02T10:51:08Z</time></trkpt><trkpt lat="44.86678189450563" lon="12.083432491062213"><ele>-1.0</ele><time>2026-05-02T10:51:10Z</time></trkpt><trkpt lat="44.86687239800136" lon="12.0834538135686"><ele>-0.9999999999999999</ele><time>2026-05-02T10:51:12Z</time></trkpt><trkpt lat="44.86696365402321" lon="12.083483687753377"><ele>-1.0</ele><time>2026-05-02T10:51:14Z</time></trkpt><trkpt lat="44.86705803749543" lon="12.083513530510036"><ele>-1.4</ele><time>2026-05-02T10:51:16Z</time></trkpt><trkpt lat="44.86715102519645" lon="12.083550603823111"><ele>-1.8</ele><time>2026-05-02T10:51:18Z</time></trkpt><trkpt lat="44.86723981081384" lon="12.08358521322264"><ele>-2.1999999999999997</ele><time>2026-05-02T10:51:20Z</time></trkpt><trkpt lat="44.86733196839787" lon="12.083625473648539"><ele>-2.6</ele><time>2026-05-02T10:51:22Z</time></trkpt><trkpt lat="44.86741773488615" lon="12.083668529995661"><ele>-3.0</ele><time>2026-05-02T10:51:24Z</time></trkpt><trkpt lat="44.867505019601055" lon="12.083717772318984"><ele>-3.0</ele><time>2026-05-02T10:51:26Z</time></trkpt><trkpt lat="44.8675895401888" lon="12.083764805651738"><ele>-3.0</ele><time>2026-05-02T10:51:28Z</time></trkpt><trkpt lat="44.86767941947774" lon="12.083813746181066"><ele>-3.0</ele><time>2026-05-02T10:51:30Z</time></trkpt><trkpt lat="44.86776839692807" lon="12.083867104401612"><ele>-3.0</ele><time>2026-05-02T10:51:32Z</time></trkpt><trkpt lat="44.867852592668434" lon="12.083916754186356"><ele>-3.0</ele><time>2026-05-02T10:51:34Z</time></trkpt><trkpt lat="44.86794273841115" lon="12.083962639452581"><ele>-3.2</ele><time>2026-05-02T10:51:36Z</time></trkpt><trkpt lat="44.86802712836616" lon="12.08401102545322"><ele>-3.4</ele><time>2026-05-02T10:51:38Z</time></trkpt><trkpt lat="44.86811142257936" lon="12.084060006904254"><ele>-3.6000000000000005</ele><time>2026-05-02T10:51:40Z</time></trkpt><trkpt lat="44.8681996516414" lon="12.084106674974553"><ele>-3.8000000000000003</ele><time>2026-05-02T10:51:42Z</time></trkpt><trkpt lat="44.86828259126419" lon="12.084150926356505"><ele>-4.0</ele><time>2026-05-02T10:51:44Z</time></trkpt><trkpt lat="44.868363936221755" lon="12.08419132643946"><ele>-3.4000000000000004</ele><time>2026-05-02T10:51:46Z</time></trkpt><trkpt lat="44.86844015132414" lon="12.084234104660037"><ele>-2.8000000000000003</ele><time>2026-05-02T10:51:48Z</time></trkpt><trkpt lat="44.8684988307768" lon="12.084305812656012"><ele>-2.2</ele><time>2026-05-02T10:51:50Z</time></trkpt><trkpt lat="44.86848160941946" lon="12.084449436121044"><ele>-1.6</ele><time>2026-05-02T10:51:52Z</time></trkpt><trkpt lat="44.86844859528781" lon="12.08457431678656"><ele>-1.0</ele><time>2026-05-02T10:51:54Z</time></trkpt><trkpt lat="44.86843031743652" lon="12.084707307347285"><ele>-1.0</ele><time>2026-05-02T10:51:56Z</time></trkpt><trkpt lat="44.86840547751102" lon="12.084841888357104"><ele>-1.0</ele><time>2026-05-02T10:51:58Z</time></trkpt><trkpt lat="44.86838241777282" lon="12.084979786241636"><ele>-1.0</ele><time>2026-05-02T10:52:00Z</time></trkpt><trkpt lat="44.86837115695594" lon="12.08511770472857"><ele>-1.0</ele><time>2026-05-02T10:52:02Z</time></trkpt><trkpt lat="44.86836497011226" lon="12.085261428428684"><ele>-1.0</ele><time>2026-05-02T10:52:04Z</time></trkpt><trkpt lat="44.86834116322972" lon="12.085401899953093"><ele>-0.8</ele><time>2026-05-02T10:52:06Z</time></trkpt><trkpt lat="44.868335269739966" lon="12.085547151171015"><ele>-0.6000000000000001</ele><time>2026-05-02T10:52:08Z</time></trkpt><trkpt lat="44.86829871149931" lon="12.085691175273325"><ele>-0.4</ele><time>2026-05-02T10:52:10Z</time></trkpt><trkpt lat="44.86826610096918" lon="12.085836009219852"><ele>-0.2</ele><time>2026-05-02T10:52:12Z</time></trkpt><trkpt lat="44.868248623703394" lon="12.085987086177239"><ele>0.0</ele><time>2026-05-02T10:52:14Z</time></trkpt><trkpt lat="44.86823172956914" lon="12.086138434786188"><ele>-0.6</ele><time>2026-05-02T10:52:16Z</time></trkpt><trkpt lat="44.86822473371882" lon="12.086288862441608"><ele>-1.2</ele><time>2026-05-02T10:52:18Z</time></trkpt><trkpt lat="44.86821428439189" lon="12.086434046414178"><ele>-1.7999999999999998</ele><time>2026-05-02T10:52:20Z</time></trkpt><trkpt lat="44.86820104953071" lon="12.086579486823835"><ele>-2.4</ele><time>2026-05-02T10:52:22Z</time></trkpt><trkpt lat="44.86818515560166" lon="12.086722823534222"><ele>-3.0</ele><time>2026-05-02T10:52:24Z</time></trkpt><trkpt lat="44.86816788443914" lon="12.08686438520568"><ele>-3.0</ele><time>2026-05-02T10:52:26Z</time></trkpt><trkpt lat="44.868153399381725" lon="12.087003596629527"><ele>-3.0</ele><time>2026-05-02T10:52:28Z</time></trkpt><trkpt lat="44.86814026890729" lon="12.087145130655928"><ele>-3.0</ele><time>2026-05-02T10:52:30Z</time></trkpt><trkpt lat="44.86810410380315" lon="12.08727609869762"><ele>-3.0</ele><time>2026-05-02T10:52:32Z</time></trkpt><trkpt lat="44.86809004096086" lon="12.087412919033088"><ele>-3.0</ele><time>2026-05-02T10:52:34Z</time></trkpt><trkpt lat="44.86807675692709" lon="12.087542161756184"><ele>-3.0</ele><time>2026-05-02T10:52:36Z</time></trkpt><trkpt lat="44.86807799873088" lon="12.087672046231697"><ele>-3.0</ele><time>2026-05-02T10:52:38Z</time></trkpt><trkpt lat="44.868061829052756" lon="12.087806511423734"><ele>-3.0</ele><time>2026-05-02T10:52:40Z</time></trkpt><trkpt lat="44.868051137050344" lon="12.087935036038806"><ele>-3.0</ele><time>2026-05-02T10:52:42Z</time></trkpt><trkpt lat="44.8680233281207" lon="12.088061984930667"><ele>-3.0</ele><time>2026-05-02T10:52:44Z</time></trkpt><trkpt lat="44.868015555053155" lon="12.088193971208993"><ele>-3.3333333333333335</ele><time>2026-05-02T10:52:46Z</time></trkpt><trkpt lat="44.86800214027002" lon="12.088313176972346"><ele>-3.666666666666667</ele><time>2026-05-02T10:52:48Z</time></trkpt><trkpt lat="44.86798967516837" lon="12.08842981805355"><ele>-4.0</ele><time>2026-05-02T10:52:50Z</time></trkpt><trkpt lat="44.86798053708672" lon="12.088544029427467"><ele>-4.333333333333334</ele><time>2026-05-02T10:52:52Z</time></trkpt><trkpt lat="44.86797051273605" lon="12.088644960701213"><ele>-4.666666666666667</ele><time>2026-05-02T10:52:54Z</time></trkpt><trkpt lat="44.86796333709027" lon="12.08875328562213"><ele>-5.0</ele><time>2026-05-02T10:52:56Z</time></trkpt><trkpt lat="44.86795185089302" lon="12.088869216120784"><ele>-5.0</ele><time>2026-05-02T10:52:58Z</time></trkpt><trkpt lat="44.867937959972124" lon="12.08898871944628"><ele>-5.0</ele><time>2026-05-02T10:53:00Z</time></trkpt><trkpt lat="44.867927022063654" lon="12.089099716345835"><ele>-5.0</ele><time>2026-05-02T10:53:02Z</time></trkpt><trkpt lat="44.86791925210602" lon="12.089200834006057"><ele>-5.0</ele><time>2026-05-02T10:53:04Z</time></trkpt><trkpt lat="44.867902652506935" lon="12.089312257977243"><ele>-5.0</ele><time>2026-05-02T10:53:06Z</time></trkpt><trkpt lat="44.867891450988594" lon="12.089434427237219"><ele>-5.0</ele><time>2026-05-02T10:53:08Z</time></trkpt><trkpt lat="44.86788102316844" lon="12.089553302857192"><ele>-5.0</ele><time>2026-05-02T10:53:10Z</time></trkpt><trkpt lat="44.86786302962268" lon="12.089662541287526"><ele>-5.0</ele><time>2026-05-02T10:53:12Z</time></trkpt><trkpt lat="44.86785962657959" lon="12.089763347716957"><ele>-5.0</ele><time>2026-05-02T10:53:14Z</time></trkpt><trkpt lat="44.86785101796143" lon="12.08985747694352"><ele>-5.0</ele><time>2026-05-02T10:53:16Z</time></trkpt><trkpt lat="44.867839081067835" lon="12.089952816991161"><ele>-5.0</ele><time>2026-05-02T10:53:18Z</time></trkpt><trkpt lat="44.86782947425211" lon="12.090074895313425"><ele>-5.0</ele><time>2026-05-02T10:53:20Z</time></trkpt><trkpt lat="44.8678178769784" lon="12.090186215587615"><ele>-5.0</ele><time>2026-05-02T10:53:22Z</time></trkpt><trkpt lat="44.86780887429151" lon="12.090292613537416"><ele>-5.0</ele><time>2026-05-02T10:53:24Z</time></trkpt><trkpt lat="44.8677967213281" lon="12.090411475071168"><ele>-5.0</ele><time>2026-05-02T10:53:26Z</time></trkpt><trkpt lat="44.86778149285707" lon="12.09052307485669"><ele>-5.0</ele><time>2026-05-02T10:53:28Z</time></trkpt><trkpt lat="44.86777049392731" lon="12.090628047411776"><ele>-5.0</ele><time>2026-05-02T10:53:30Z</time></trkpt><trkpt lat="44.867760770950085" lon="12.090730444804091"><ele>-5.0</ele><time>2026-05-02T10:53:32Z</time></trkpt><trkpt lat="44.8677546992775" lon="12.090822880051345"><ele>-4.833333333333334</ele><time>2026-05-02T10:53:34Z</time></trkpt><trkpt lat="44.86773153245978" lon="12.090925123400034"><ele>-4.666666666666667</ele><time>2026-05-02T10:53:36Z</time></trkpt><trkpt lat="44.86771884318539" lon="12.091052114048772"><ele>-4.5</ele><time>2026-05-02T10:53:38Z</time></trkpt><trkpt lat="44.86770729175559" lon="12.091167717375653"><ele>-4.333333333333333</ele><time>2026-05-02T10:53:40Z</time></trkpt><trkpt lat="44.867696290339666" lon="12.091277816552084"><ele>-4.166666666666666</ele><time>2026-05-02T10:53:42Z</time></trkpt><trkpt lat="44.867700712689874" lon="12.091377275520815"><ele>-4.0</ele><time>2026-05-02T10:53:44Z</time></trkpt><trkpt lat="44.86768808143042" lon="12.091477596425225"><ele>-4.2</ele><time>2026-05-02T10:53:46Z</time></trkpt><trkpt lat="44.867675168415246" lon="12.091598345981684"><ele>-4.4</ele><time>2026-05-02T10:53:48Z</time></trkpt><trkpt lat="44.8676534978169" lon="12.091721550095933"><ele>-4.6</ele><time>2026-05-02T10:53:50Z</time></trkpt><trkpt lat="44.86763537246297" lon="12.091845226608502"><ele>-4.8</ele><time>2026-05-02T10:53:52Z</time></trkpt><trkpt lat="44.867623605903205" lon="12.091973363090007"><ele>-5.0</ele><time>2026-05-02T10:53:54Z</time></trkpt><trkpt lat="44.86761292383043" lon="12.092102609570478"><ele>-5.2</ele><time>2026-05-02T10:53:56Z</time></trkpt><trkpt lat="44.86760485691964" lon="12.0922334856911"><ele>-5.4</ele><time>2026-05-02T10:53:58Z</time></trkpt><trkpt lat="44.867592781068424" lon="12.09236268943042"><ele>-5.6</ele><time>2026-05-02T10:54:00Z</time></trkpt><trkpt lat="44.86757145035669" lon="12.09249538827554"><ele>-5.8</ele><time>2026-05-02T10:54:02Z</time></trkpt><trkpt lat="44.86755592983858" lon="12.092624921813245"><ele>-6.0</ele><time>2026-05-02T10:54:04Z</time></trkpt><trkpt lat="44.867545640136164" lon="12.092757143468177"><ele>-6.199999999999999</ele><time>2026-05-02T10:54:06Z</time></trkpt><trkpt lat="44.86753059994534" lon="12.092884036062243"><ele>-6.3999999999999995</ele><time>2026-05-02T10:54:08Z</time></trkpt><trkpt lat="44.867520072358495" lon="12.093009384272468"><ele>-6.6</ele><time>2026-05-02T10:54:10Z</time></trkpt><trkpt lat="44.867510068625236" lon="12.093144361704763"><ele>-6.8</ele><time>2026-05-02T10:54:12Z</time></trkpt><trkpt lat="44.86749241605894" lon="12.093273034051833"><ele>-7.0</ele><time>2026-05-02T10:54:14Z</time></trkpt><trkpt lat="44.86748470411777" lon="12.093402027236655"><ele>-7.0</ele><time>2026-05-02T10:54:16Z</time></trkpt><trkpt lat="44.86745962893989" lon="12.093527574746748"><ele>-6.999999999999999</ele><time>2026-05-02T10:54:18Z</time></trkpt><trkpt lat="44.86744686856055" lon="12.093658232347714"><ele>-6.999999999999999</ele><time>2026-05-02T10:54:20Z</time></trkpt><trkpt lat="44.86743416844311" lon="12.09379022724029"><ele>-7.0</ele><time>2026-05-02T10:54:22Z</time></trkpt><trkpt lat="44.86742160387574" lon="12.093920813711271"><ele>-7.0</ele><time>2026-05-02T10:54:24Z</time></trkpt><trkpt lat="44.86741859981965" lon="12.094050431974177"><ele>-6.8</ele><time>2026-05-02T10:54:26Z</time></trkpt><trkpt lat="44.86740530567063" lon="12.09418101199167"><ele>-6.6</ele><time>2026-05-02T10:54:28Z</time></trkpt><trkpt lat="44.86739584709406" lon="12.094309378710086"><ele>-6.3999999999999995</ele><time>2026-05-02T10:54:30Z</time></trkpt><trkpt lat="44.86738496867646" lon="12.094441122849016"><ele>-6.199999999999999</ele><time>2026-05-02T10:54:32Z</time></trkpt><trkpt lat="44.86737205791587" lon="12.094572930366082"><ele>-6.0</ele><time>2026-05-02T10:54:34Z</time></trkpt><trkpt lat="44.86735660674188" lon="12.094702284721265"><ele>-6.0</ele><time>2026-05-02T10:54:36Z</time></trkpt><trkpt lat="44.86734764502249" lon="12.094832156717468"><ele>-6.0</ele><time>2026-05-02T10:54:38Z</time></trkpt><trkpt lat="44.867333722444044" lon="12.094962774951963"><ele>-6.0</ele><time>2026-05-02T10:54:40Z</time></trkpt><trkpt lat="44.86732177919353" lon="12.095094487366058"><ele>-6.0</ele><time>2026-05-02T10:54:42Z</time></trkpt><trkpt lat="44.86731165893056" lon="12.095225551673717"><ele>-6.0</ele><time>2026-05-02T10:54:44Z</time></trkpt><trkpt lat="44.86729626321774" lon="12.095358644691233"><ele>-6.0</ele><time>2026-05-02T10:54:46Z</time></trkpt><trkpt lat="44.86727871582826" lon="12.095493943271489"><ele>-6.0</ele><time>2026-05-02T10:54:48Z</time></trkpt><trkpt lat="44.8672673073866" lon="12.095627627548437"><ele>-6.0</ele><time>2026-05-02T10:54:50Z</time></trkpt><trkpt lat="44.86725173881255" lon="12.09576215000907"><ele>-6.0</ele><time>2026-05-02T10:54:52Z</time></trkpt><trkpt lat="44.86723402126492" lon="12.095889001492747"><ele>-6.0</ele><time>2026-05-02T10:54:54Z</time></trkpt><trkpt lat="44.86722205500335" lon="12.096019728465572"><ele>-6.0</ele><time>2026-05-02T10:54:56Z</time></trkpt><trkpt lat="44.867211667413315" lon="12.096151827857494"><ele>-6.0</ele><time>2026-05-02T10:54:58Z</time></trkpt><trkpt lat="44.8671939419235" lon="12.096285210239435"><ele>-6.0</ele><time>2026-05-02T10:55:00Z</time></trkpt><trkpt lat="44.86718211166083" lon="12.096416163734887"><ele>-6.0</ele><time>2026-05-02T10:55:02Z</time></trkpt><trkpt lat="44.86716574571667" lon="12.096546535205071"><ele>-6.0</ele><time>2026-05-02T10:55:04Z</time></trkpt><trkpt lat="44.8671506323929" lon="12.0966750533183"><ele>-6.0</ele><time>2026-05-02T10:55:06Z</time></trkpt><trkpt lat="44.86713868546974" lon="12.096810510918303"><ele>-6.0</ele><time>2026-05-02T10:55:08Z</time></trkpt><trkpt lat="44.86712652332264" lon="12.096938773361714"><ele>-6.0</ele><time>2026-05-02T10:55:10Z</time></trkpt><trkpt lat="44.86710979121531" lon="12.097068167283311"><ele>-6.0</ele><time>2026-05-02T10:55:12Z</time></trkpt><trkpt lat="44.86709753732482" lon="12.097198436269938"><ele>-6.0</ele><time>2026-05-02T10:55:14Z</time></trkpt><trkpt lat="44.867084624623935" lon="12.097328213831874"><ele>-6.0</ele><time>2026-05-02T10:55:16Z</time></trkpt><trkpt lat="44.86707380017195" lon="12.097461375338547"><ele>-6.0</ele><time>2026-05-02T10:55:18Z</time></trkpt><trkpt lat="44.8670651721608" lon="12.097593858001513"><ele>-6.0</ele><time>2026-05-02T10:55:20Z</time></trkpt><trkpt lat="44.86703640782829" lon="12.097721269860156"><ele>-6.0</ele><time>2026-05-02T10:55:22Z</time></trkpt><trkpt lat="44.86702359692764" lon="12.097844622224276"><ele>-6.0</ele><time>2026-05-02T10:55:24Z</time></trkpt><trkpt lat="44.86701212745826" lon="12.097965514337501"><ele>-6.0</ele><time>2026-05-02T10:55:26Z</time></trkpt><trkpt lat="44.86701580821812" lon="12.098085132474337"><ele>-6.0</ele><time>2026-05-02T10:55:28Z</time></trkpt><trkpt lat="44.86700418838596" lon="12.098196583415836"><ele>-6.0</ele><time>2026-05-02T10:55:30Z</time></trkpt><trkpt lat="44.86698752822061" lon="12.098303137039734"><ele>-6.0</ele><time>2026-05-02T10:55:32Z</time></trkpt><trkpt lat="44.86697165595802" lon="12.098420347762728"><ele>-6.0</ele><time>2026-05-02T10:55:34Z</time></trkpt><trkpt lat="44.86696329970899" lon="12.098545325039773"><ele>-6.0</ele><time>2026-05-02T10:55:36Z</time></trkpt><trkpt lat="44.86695781760098" lon="12.09865813113866"><ele>-6.0</ele><time>2026-05-02T10:55:38Z</time></trkpt><trkpt lat="44.86693104623681" lon="12.0987622781813"><ele>-6.0</ele><time>2026-05-02T10:55:40Z</time></trkpt><trkpt lat="44.866919616258926" lon="12.098865339076594"><ele>-6.0</ele><time>2026-05-02T10:55:42Z</time></trkpt><trkpt lat="44.86691718332978" lon="12.098981490221094"><ele>-6.0</ele><time>2026-05-02T10:55:44Z</time></trkpt><trkpt lat="44.86690360898691" lon="12.099093961654036"><ele>-6.0</ele><time>2026-05-02T10:55:46Z</time></trkpt><trkpt lat="44.86689803144372" lon="12.099196794688186"><ele>-6.0</ele><time>2026-05-02T10:55:48Z</time></trkpt><trkpt lat="44.8668877237351" lon="12.099300142477624"><ele>-5.999999999999999</ele><time>2026-05-02T10:55:50Z</time></trkpt><trkpt lat="44.86687525995596" lon="12.099395439194447"><ele>-6.0</ele><time>2026-05-02T10:55:52Z</time></trkpt><trkpt lat="44.866860064084555" lon="12.099486927518464"><ele>-6.0</ele><time>2026-05-02T10:55:54Z</time></trkpt><trkpt lat="44.86686195642992" lon="12.099580306207558"><ele>-6.0</ele><time>2026-05-02T10:55:56Z</time></trkpt><trkpt lat="44.86684938252953" lon="12.099686836075406"><ele>-6.0</ele><time>2026-05-02T10:55:58Z</time></trkpt><trkpt lat="44.86684009297915" lon="12.099778361491722"><ele>-5.999999999999999</ele><time>2026-05-02T10:56:00Z</time></trkpt><trkpt lat="44.866822880420905" lon="12.099880588664174"><ele>-6.0</ele><time>2026-05-02T10:56:02Z</time></trkpt><trkpt lat="44.866810883432365" lon="12.099981436746159"><ele>-5.999999999999999</ele><time>2026-05-02T10:56:04Z</time></trkpt><trkpt lat="44.866800441069124" lon="12.100078647797678"><ele>-6.0</ele><time>2026-05-02T10:56:06Z</time></trkpt><trkpt lat="44.86679112509434" lon="12.100171377153307"><ele>-6.0</ele><time>2026-05-02T10:56:08Z</time></trkpt><trkpt lat="44.86678312362545" lon="12.100269864449647"><ele>-6.0</ele><time>2026-05-02T10:56:10Z</time></trkpt><trkpt lat="44.86677068758353" lon="12.100392433055946"><ele>-6.0</ele><time>2026-05-02T10:56:12Z</time></trkpt><trkpt lat="44.86675874667132" lon="12.100492321501832"><ele>-5.999999999999999</ele><time>2026-05-02T10:56:14Z</time></trkpt><trkpt lat="44.866750104590736" lon="12.100589807954693"><ele>-6.0</ele><time>2026-05-02T10:56:16Z</time></trkpt><trkpt lat="44.866741421305335" lon="12.100697389665482"><ele>-6.0</ele><time>2026-05-02T10:56:18Z</time></trkpt><trkpt lat="44.86673022121514" lon="12.100813336066825"><ele>-6.0</ele><time>2026-05-02T10:56:20Z</time></trkpt><trkpt lat="44.86671908427581" lon="12.100928771730299"><ele>-6.0</ele><time>2026-05-02T10:56:22Z</time></trkpt><trkpt lat="44.86670848392405" lon="12.101033982573016"><ele>-6.0</ele><time>2026-05-02T10:56:24Z</time></trkpt><trkpt lat="44.86669737819048" lon="12.101133002540998"><ele>-6.0</ele><time>2026-05-02T10:56:26Z</time></trkpt><trkpt lat="44.866686992936984" lon="12.101243438208252"><ele>-6.0</ele><time>2026-05-02T10:56:28Z</time></trkpt><trkpt lat="44.866674900533916" lon="12.101364967803097"><ele>-6.0</ele><time>2026-05-02T10:56:30Z</time></trkpt><trkpt lat="44.86666481701588" lon="12.101472968024403"><ele>-6.0</ele><time>2026-05-02T10:56:32Z</time></trkpt><trkpt lat="44.86664973705825" lon="12.101576049955698"><ele>-6.0</ele><time>2026-05-02T10:56:34Z</time></trkpt><trkpt lat="44.866639618623246" lon="12.101698730242557"><ele>-6.0</ele><time>2026-05-02T10:56:36Z</time></trkpt><trkpt lat="44.8666283024247" lon="12.10182669303342"><ele>-6.0</ele><time>2026-05-02T10:56:38Z</time></trkpt><trkpt lat="44.866612737303385" lon="12.1019398507731"><ele>-6.0</ele><time>2026-05-02T10:56:40Z</time></trkpt><trkpt lat="44.866599099913635" lon="12.102049379305296"><ele>-5.999999999999999</ele><time>2026-05-02T10:56:42Z</time></trkpt><trkpt lat="44.866585772594064" lon="12.102153965164181"><ele>-6.0</ele><time>2026-05-02T10:56:44Z</time></trkpt><trkpt lat="44.86657835259829" lon="12.10224793097779"><ele>-6.0</ele><time>2026-05-02T10:56:46Z</time></trkpt><trkpt lat="44.8665671042498" lon="12.102350192516543"><ele>-6.0</ele><time>2026-05-02T10:56:48Z</time></trkpt><trkpt lat="44.86656555453993" lon="12.102464833558974"><ele>-6.0</ele><time>2026-05-02T10:56:50Z</time></trkpt><trkpt lat="44.86655670330316" lon="12.102566025242755"><ele>-5.999999999999999</ele><time>2026-05-02T10:56:52Z</time></trkpt><trkpt lat="44.8665411405837" lon="12.102669327088021"><ele>-6.0</ele><time>2026-05-02T10:56:54Z</time></trkpt><trkpt lat="44.866529706734894" lon="12.10278084453335"><ele>-6.0</ele><time>2026-05-02T10:56:56Z</time></trkpt><trkpt lat="44.86652010983693" lon="12.102885090150922"><ele>-6.0</ele><time>2026-05-02T10:56:58Z</time></trkpt><trkpt lat="44.86650735384785" lon="12.102978726440254"><ele>-6.0</ele><time>2026-05-02T10:57:00Z</time></trkpt><trkpt lat="44.86649542435517" lon="12.103077977849718"><ele>-6.0</ele><time>2026-05-02T10:57:02Z</time></trkpt><trkpt lat="44.86648858093446" lon="12.103185690759409"><ele>-6.0</ele><time>2026-05-02T10:57:04Z</time></trkpt><trkpt lat="44.866482669044885" lon="12.103278482099768"><ele>-6.0</ele><time>2026-05-02T10:57:06Z</time></trkpt><trkpt lat="44.86646206353286" lon="12.103413553225986"><ele>-5.833333333333333</ele><time>2026-05-02T10:57:09Z</time></trkpt><trkpt lat="44.866445258527776" lon="12.103532051601611"><ele>-5.666666666666667</ele><time>2026-05-02T10:57:11Z</time></trkpt><trkpt lat="44.866436809310926" lon="12.103659754130524"><ele>-5.5</ele><time>2026-05-02T10:57:13Z</time></trkpt><trkpt lat="44.866426820147865" lon="12.103784220083252"><ele>-5.333333333333334</ele><time>2026-05-02T10:57:15Z</time></trkpt><trkpt lat="44.86641809249917" lon="12.103898396982624"><ele>-5.166666666666667</ele><time>2026-05-02T10:57:17Z</time></trkpt><trkpt lat="44.86640391170811" lon="12.104016667127462"><ele>-5.0</ele><time>2026-05-02T10:57:19Z</time></trkpt><trkpt lat="44.86639423481263" lon="12.104149646917826"><ele>-4.833333333333334</ele><time>2026-05-02T10:57:21Z</time></trkpt><trkpt lat="44.866397091968736" lon="12.104280611365457"><ele>-4.666666666666667</ele><time>2026-05-02T10:57:23Z</time></trkpt><trkpt lat="44.86639603259871" lon="12.104409459122941"><ele>-4.5</ele><time>2026-05-02T10:57:25Z</time></trkpt><trkpt lat="44.866391139949634" lon="12.104532121726491"><ele>-4.333333333333333</ele><time>2026-05-02T10:57:27Z</time></trkpt><trkpt lat="44.86638607906819" lon="12.104653315859494"><ele>-4.166666666666666</ele><time>2026-05-02T10:57:29Z</time></trkpt><trkpt lat="44.86637834865762" lon="12.104777937308953"><ele>-4.0</ele><time>2026-05-02T10:57:31Z</time></trkpt><trkpt lat="44.86636446754316" lon="12.104906338404438"><ele>-3.9999999999999996</ele><time>2026-05-02T10:57:33Z</time></trkpt><trkpt lat="44.86635678212797" lon="12.105036729855238"><ele>-4.0</ele><time>2026-05-02T10:57:35Z</time></trkpt><trkpt lat="44.86634401389503" lon="12.105166493006546"><ele>-4.0</ele><time>2026-05-02T10:57:37Z</time></trkpt><trkpt lat="44.86632715956789" lon="12.10529379153136"><ele>-4.0</ele><time>2026-05-02T10:57:39Z</time></trkpt><trkpt lat="44.86632328691268" lon="12.105418240402066"><ele>-3.9999999999999996</ele><time>2026-05-02T10:57:41Z</time></trkpt><trkpt lat="44.86630967283636" lon="12.105532372167024"><ele>-4.0</ele><time>2026-05-02T10:57:43Z</time></trkpt><trkpt lat="44.86629639062929" lon="12.105636266666792"><ele>-4.166666666666666</ele><time>2026-05-02T10:57:45Z</time></trkpt><trkpt lat="44.86628472484747" lon="12.105746968308027"><ele>-4.333333333333333</ele><time>2026-05-02T10:57:47Z</time></trkpt><trkpt lat="44.86627665150197" lon="12.10587054648253"><ele>-4.5</ele><time>2026-05-02T10:57:49Z</time></trkpt><trkpt lat="44.866260879044255" lon="12.105993055559019"><ele>-4.666666666666667</ele><time>2026-05-02T10:57:51Z</time></trkpt><trkpt lat="44.86624983540278" lon="12.106119960171052"><ele>-4.833333333333334</ele><time>2026-05-02T10:57:53Z</time></trkpt><trkpt lat="44.86623527438059" lon="12.106254628140443"><ele>-5.0</ele><time>2026-05-02T10:57:55Z</time></trkpt><trkpt lat="44.86621703865448" lon="12.106381935277119"><ele>-5.0</ele><time>2026-05-02T10:57:57Z</time></trkpt><trkpt lat="44.86619720775042" lon="12.106507110851418"><ele>-5.0</ele><time>2026-05-02T10:57:59Z</time></trkpt><trkpt lat="44.86619105801812" lon="12.106632471001413"><ele>-5.0</ele><time>2026-05-02T10:58:01Z</time></trkpt><trkpt lat="44.86618075557148" lon="12.106749331012592"><ele>-5.0</ele><time>2026-05-02T10:58:03Z</time></trkpt><trkpt lat="44.86616609865277" lon="12.106858659128694"><ele>-5.0</ele><time>2026-05-02T10:58:05Z</time></trkpt><trkpt lat="44.866148616031744" lon="12.106979561846313"><ele>-5.0</ele><time>2026-05-02T10:58:07Z</time></trkpt><trkpt lat="44.86614935894158" lon="12.1071054336875"><ele>-5.0</ele><time>2026-05-02T10:58:09Z</time></trkpt><trkpt lat="44.86614629612538" lon="12.107211182208117"><ele>-5.0</ele><time>2026-05-02T10:58:11Z</time></trkpt><trkpt lat="44.86612344164645" lon="12.107304921931894"><ele>-5.0</ele><time>2026-05-02T10:58:13Z</time></trkpt><trkpt lat="44.86611456417033" lon="12.107393401619728"><ele>-5.0</ele><time>2026-05-02T10:58:17Z</time></trkpt><trkpt lat="44.866105320741184" lon="12.107484347074976"><ele>-5.0</ele><time>2026-05-02T11:01:41Z</time></trkpt><trkpt lat="44.86609472005232" lon="12.107574784508826"><ele>-5.0</ele><time>2026-05-02T11:01:45Z</time></trkpt><trkpt lat="44.86609263088821" lon="12.107691497622062"><ele>-5.0</ele><time>2026-05-02T11:01:49Z</time></trkpt><trkpt lat="44.866085009913256" lon="12.107791942014298"><ele>-4.833333333333334</ele><time>2026-05-02T11:01:52Z</time></trkpt><trkpt lat="44.866065427200894" lon="12.10788989389063"><ele>-4.666666666666667</ele><time>2026-05-02T11:01:56Z</time></trkpt><trkpt lat="44.86605694568741" lon="12.108009468635629"><ele>-4.5</ele><time>2026-05-02T11:01:59Z</time></trkpt><trkpt lat="44.866052779234934" lon="12.108115750229251"><ele>-4.333333333333333</ele><time>2026-05-02T11:02:02Z</time></trkpt><trkpt lat="44.866030659053344" lon="12.108245215502706"><ele>-4.166666666666666</ele><time>2026-05-02T11:02:05Z</time></trkpt><trkpt lat="44.866022515826245" lon="12.108364374536437"><ele>-4.0</ele><time>2026-05-02T11:02:07Z</time></trkpt><trkpt lat="44.86601273556525" lon="12.108467142001498"><ele>-3.9999999999999996</ele><time>2026-05-02T11:02:09Z</time></trkpt><trkpt lat="44.86599723767118" lon="12.108571210244035"><ele>-4.0</ele><time>2026-05-02T11:02:11Z</time></trkpt><trkpt lat="44.86598912940375" lon="12.108680314390961"><ele>-4.0</ele><time>2026-05-02T11:02:13Z</time></trkpt><trkpt lat="44.86598047202117" lon="12.108771800104313"><ele>-4.0</ele><time>2026-05-02T11:02:15Z</time></trkpt><trkpt lat="44.86597064382391" lon="12.108908556217077"><ele>-3.9999999999999996</ele><time>2026-05-02T11:02:18Z</time></trkpt><trkpt lat="44.86595417475426" lon="12.109005557677952"><ele>-4.0</ele><time>2026-05-02T11:02:20Z</time></trkpt><trkpt lat="44.86594721052866" lon="12.109102419868801"><ele>-3.833333333333333</ele><time>2026-05-02T11:02:22Z</time></trkpt><trkpt lat="44.86593574083174" lon="12.10918979218188"><ele>-3.6666666666666665</ele><time>2026-05-02T11:02:24Z</time></trkpt><trkpt lat="44.86592688112556" lon="12.109323559865736"><ele>-3.5</ele><time>2026-05-02T11:02:27Z</time></trkpt><trkpt lat="44.865909226215315" lon="12.109439153633925"><ele>-3.333333333333333</ele><time>2026-05-02T11:02:29Z</time></trkpt><trkpt lat="44.86589905609714" lon="12.109555981387249"><ele>-3.1666666666666665</ele><time>2026-05-02T11:02:31Z</time></trkpt><trkpt lat="44.86588798718329" lon="12.109667457428223"><ele>-3.0</ele><time>2026-05-02T11:02:33Z</time></trkpt><trkpt lat="44.865880878278965" lon="12.109776928690238"><ele>-3.0</ele><time>2026-05-02T11:02:35Z</time></trkpt><trkpt lat="44.86587173655612" lon="12.109888314431995"><ele>-3.0</ele><time>2026-05-02T11:02:37Z</time></trkpt><trkpt lat="44.86585961340812" lon="12.110004039000028"><ele>-3.0</ele><time>2026-05-02T11:02:39Z</time></trkpt><trkpt lat="44.86584258390842" lon="12.110127974942685"><ele>-3.0</ele><time>2026-05-02T11:02:41Z</time></trkpt><trkpt lat="44.86583519640763" lon="12.11024671056253"><ele>-3.0</ele><time>2026-05-02T11:02:43Z</time></trkpt><trkpt lat="44.8658209126349" lon="12.110358182882745"><ele>-3.0</ele><time>2026-05-02T11:02:45Z</time></trkpt><trkpt lat="44.86580955359611" lon="12.110462486780758"><ele>-3.0</ele><time>2026-05-02T11:02:47Z</time></trkpt><trkpt lat="44.86579735401996" lon="12.11055718847817"><ele>-3.0</ele><time>2026-05-02T11:02:49Z</time></trkpt><trkpt lat="44.86578714643331" lon="12.11066139200917"><ele>-3.0</ele><time>2026-05-02T11:02:51Z</time></trkpt><trkpt lat="44.865776058712605" lon="12.110774599528929"><ele>-3.0</ele><time>2026-05-02T11:02:53Z</time></trkpt><trkpt lat="44.86576965069359" lon="12.110889220267365"><ele>-3.0</ele><time>2026-05-02T11:02:55Z</time></trkpt><trkpt lat="44.865750872170025" lon="12.110994487585279"><ele>-3.0</ele><time>2026-05-02T11:02:57Z</time></trkpt><trkpt lat="44.86574469952413" lon="12.111103453286747"><ele>-3.0</ele><time>2026-05-02T11:02:59Z</time></trkpt><trkpt lat="44.86572948545156" lon="12.111215255601389"><ele>-3.0</ele><time>2026-05-02T11:03:01Z</time></trkpt><trkpt lat="44.865719606410806" lon="12.111320566295968"><ele>-3.0</ele><time>2026-05-02T11:03:03Z</time></trkpt><trkpt lat="44.86571084621851" lon="12.11142412701548"><ele>-3.0</ele><time>2026-05-02T11:03:05Z</time></trkpt><trkpt lat="44.865695632108114" lon="12.111536502073841"><ele>-3.0</ele><time>2026-05-02T11:03:07Z</time></trkpt><trkpt lat="44.86567612729539" lon="12.11165807429175"><ele>-3.0</ele><time>2026-05-02T11:03:09Z</time></trkpt><trkpt lat="44.86566031664973" lon="12.111766793595024"><ele>-3.1666666666666665</ele><time>2026-05-02T11:03:11Z</time></trkpt><trkpt lat="44.86565033291367" lon="12.11187888054407"><ele>-3.333333333333333</ele><time>2026-05-02T11:03:13Z</time></trkpt><trkpt lat="44.865635532737656" lon="12.11198428941235"><ele>-3.5</ele><time>2026-05-02T11:03:15Z</time></trkpt><trkpt lat="44.86562519887829" lon="12.112084621886076"><ele>-3.6666666666666665</ele><time>2026-05-02T11:03:17Z</time></trkpt><trkpt lat="44.86561304886111" lon="12.112199649044072"><ele>-3.833333333333333</ele><time>2026-05-02T11:03:19Z</time></trkpt><trkpt lat="44.865605040632445" lon="12.112302808680612"><ele>-4.0</ele><time>2026-05-02T11:03:21Z</time></trkpt><trkpt lat="44.86559301668697" lon="12.112408043677577"><ele>-4.5</ele><time>2026-05-02T11:03:23Z</time></trkpt><trkpt lat="44.86557775805859" lon="12.112529062259156"><ele>-5.0</ele><time>2026-05-02T11:03:25Z</time></trkpt><trkpt lat="44.86556814789141" lon="12.112656166461292"><ele>-5.5</ele><time>2026-05-02T11:03:27Z</time></trkpt><trkpt lat="44.865554614191204" lon="12.112775142111404"><ele>-6.0</ele><time>2026-05-02T11:03:29Z</time></trkpt><trkpt lat="44.86554652682866" lon="12.112891588533776"><ele>-6.500000000000001</ele><time>2026-05-02T11:03:31Z</time></trkpt><trkpt lat="44.865533629176234" lon="12.1129970362528"><ele>-7.0</ele><time>2026-05-02T11:03:33Z</time></trkpt><trkpt lat="44.86551891356097" lon="12.113100723391636"><ele>-7.000000000000001</ele><time>2026-05-02T11:03:35Z</time></trkpt><trkpt lat="44.865510635127634" lon="12.113224615055108"><ele>-7.0</ele><time>2026-05-02T11:03:37Z</time></trkpt><trkpt lat="44.86549804120791" lon="12.113354938402516"><ele>-7.0</ele><time>2026-05-02T11:03:39Z</time></trkpt><trkpt lat="44.8654825014555" lon="12.113470447530053"><ele>-7.0</ele><time>2026-05-02T11:03:41Z</time></trkpt><trkpt lat="44.86547174677557" lon="12.113576963647347"><ele>-7.000000000000001</ele><time>2026-05-02T11:03:43Z</time></trkpt><trkpt lat="44.86546392469727" lon="12.11367130398349"><ele>-7.0</ele><time>2026-05-02T11:03:45Z</time></trkpt><trkpt lat="44.86544975529867" lon="12.113782220408348"><ele>-7.000000000000001</ele><time>2026-05-02T11:03:47Z</time></trkpt><trkpt lat="44.86543914342549" lon="12.113878057263278"><ele>-7.0</ele><time>2026-05-02T11:03:49Z</time></trkpt><trkpt lat="44.865428406163694" lon="12.113976408640804"><ele>-7.0</ele><time>2026-05-02T11:03:51Z</time></trkpt><trkpt lat="44.865409511652544" lon="12.11410708715535"><ele>-7.0</ele><time>2026-05-02T11:03:54Z</time></trkpt><trkpt lat="44.8654002983462" lon="12.114204151646332"><ele>-7.000000000000001</ele><time>2026-05-02T11:03:56Z</time></trkpt><trkpt lat="44.865386102877686" lon="12.114336810385844"><ele>-7.0</ele><time>2026-05-02T11:03:59Z</time></trkpt><trkpt lat="44.86538170616658" lon="12.11443522509482"><ele>-7.000000000000001</ele><time>2026-05-02T11:04:01Z</time></trkpt><trkpt lat="44.86536830272491" lon="12.114542075032466"><ele>-7.0</ele><time>2026-05-02T11:04:03Z</time></trkpt><trkpt lat="44.86536225352082" lon="12.114639699657552"><ele>-7.0</ele><time>2026-05-02T11:04:05Z</time></trkpt><trkpt lat="44.865350038066204" lon="12.114746821634803"><ele>-7.0</ele><time>2026-05-02T11:04:07Z</time></trkpt><trkpt lat="44.86533686296127" lon="12.11486047760127"><ele>-7.000000000000001</ele><time>2026-05-02T11:04:09Z</time></trkpt><trkpt lat="44.86532591583447" lon="12.114966157775443"><ele>-7.0</ele><time>2026-05-02T11:04:11Z</time></trkpt><trkpt lat="44.86531547356005" lon="12.11506588315277"><ele>-6.833333333333334</ele><time>2026-05-02T11:04:13Z</time></trkpt><trkpt lat="44.86530184986313" lon="12.11517011058212"><ele>-6.666666666666667</ele><time>2026-05-02T11:04:15Z</time></trkpt><trkpt lat="44.86529336180489" lon="12.115279975422778"><ele>-6.5</ele><time>2026-05-02T11:04:17Z</time></trkpt><trkpt lat="44.86528389059229" lon="12.115382307221664"><ele>-6.333333333333334</ele><time>2026-05-02T11:04:19Z</time></trkpt><trkpt lat="44.86527228214228" lon="12.115496784691013"><ele>-6.166666666666667</ele><time>2026-05-02T11:04:21Z</time></trkpt><trkpt lat="44.865260251944264" lon="12.115619265640564"><ele>-6.0</ele><time>2026-05-02T11:04:23Z</time></trkpt><trkpt lat="44.86524911673043" lon="12.115731996901362"><ele>-6.166666666666667</ele><time>2026-05-02T11:04:25Z</time></trkpt><trkpt lat="44.865238184471984" lon="12.115832574394254"><ele>-6.333333333333334</ele><time>2026-05-02T11:04:27Z</time></trkpt><trkpt lat="44.865226736356284" lon="12.115948315740678"><ele>-6.5</ele><time>2026-05-02T11:04:29Z</time></trkpt><trkpt lat="44.8652082406376" lon="12.116062660461719"><ele>-6.666666666666667</ele><time>2026-05-02T11:04:31Z</time></trkpt><trkpt lat="44.8651982801711" lon="12.116161326641592"><ele>-6.833333333333334</ele><time>2026-05-02T11:04:33Z</time></trkpt><trkpt lat="44.865192136728915" lon="12.116250738334697"><ele>-7.0</ele><time>2026-05-02T11:04:35Z</time></trkpt><trkpt lat="44.86517845420909" lon="12.11636393185422"><ele>-7.000000000000001</ele><time>2026-05-02T11:04:37Z</time></trkpt><trkpt lat="44.86516525997343" lon="12.116465613557898"><ele>-7.0</ele><time>2026-05-02T11:04:39Z</time></trkpt><trkpt lat="44.86516067700849" lon="12.116557922029205"><ele>-7.0</ele><time>2026-05-02T11:04:41Z</time></trkpt><trkpt lat="44.86514569894088" lon="12.11667035083929"><ele>-7.0</ele><time>2026-05-02T11:04:43Z</time></trkpt><trkpt lat="44.865130838903646" lon="12.116790792285046"><ele>-7.000000000000001</ele><time>2026-05-02T11:04:45Z</time></trkpt><trkpt lat="44.86511662999882" lon="12.11690024290321"><ele>-7.0</ele><time>2026-05-02T11:04:47Z</time></trkpt><trkpt lat="44.8651046059173" lon="12.11699727884935"><ele>-6.833333333333334</ele><time>2026-05-02T11:04:49Z</time></trkpt><trkpt lat="44.865091316026486" lon="12.117089605907566"><ele>-6.666666666666667</ele><time>2026-05-02T11:04:51Z</time></trkpt><trkpt lat="44.86507526048192" lon="12.117205450534286"><ele>-6.5</ele><time>2026-05-02T11:04:53Z</time></trkpt><trkpt lat="44.865066679287416" lon="12.11732568722985"><ele>-6.333333333333334</ele><time>2026-05-02T11:04:55Z</time></trkpt><trkpt lat="44.86506238100181" lon="12.117454324433831"><ele>-6.166666666666667</ele><time>2026-05-02T11:04:57Z</time></trkpt><trkpt lat="44.86504537074474" lon="12.117575381646342"><ele>-6.0</ele><time>2026-05-02T11:04:59Z</time></trkpt><trkpt lat="44.86502209163605" lon="12.117685555419055"><ele>-6.0</ele><time>2026-05-02T11:05:01Z</time></trkpt><trkpt lat="44.865012844421166" lon="12.117793026835981"><ele>-6.0</ele><time>2026-05-02T11:05:03Z</time></trkpt><trkpt lat="44.86500163826148" lon="12.117915252373466"><ele>-6.0</ele><time>2026-05-02T11:05:05Z</time></trkpt><trkpt lat="44.86498823626335" lon="12.118039232992478"><ele>-6.0</ele><time>2026-05-02T11:05:07Z</time></trkpt><trkpt lat="44.86497302514712" lon="12.118166557399675"><ele>-6.0</ele><time>2026-05-02T11:05:09Z</time></trkpt><trkpt lat="44.864960081962415" lon="12.118294273215836"><ele>-6.0</ele><time>2026-05-02T11:05:11Z</time></trkpt><trkpt lat="44.864947578332604" lon="12.118422088898283"><ele>-6.4</ele><time>2026-05-02T11:05:13Z</time></trkpt><trkpt lat="44.864944909433056" lon="12.118551686771477"><ele>-6.8</ele><time>2026-05-02T11:05:15Z</time></trkpt><trkpt lat="44.86493546600769" lon="12.118682630802253"><ele>-7.200000000000001</ele><time>2026-05-02T11:05:17Z</time></trkpt><trkpt lat="44.86491963594296" lon="12.118811510506537"><ele>-7.6000000000000005</ele><time>2026-05-02T11:05:19Z</time></trkpt><trkpt lat="44.864903043846205" lon="12.118941524289513"><ele>-8.0</ele><time>2026-05-02T11:05:21Z</time></trkpt><trkpt lat="44.86489013550898" lon="12.119067006445404"><ele>-7.833333333333333</ele><time>2026-05-02T11:05:23Z</time></trkpt><trkpt lat="44.86488133885735" lon="12.11919576578464"><ele>-7.666666666666666</ele><time>2026-05-02T11:05:25Z</time></trkpt><trkpt lat="44.86486556419723" lon="12.119321837445664"><ele>-7.5</ele><time>2026-05-02T11:05:27Z</time></trkpt><trkpt lat="44.864845852864654" lon="12.119443054938332"><ele>-7.333333333333334</ele><time>2026-05-02T11:05:29Z</time></trkpt><trkpt lat="44.86483928174091" lon="12.119562128841105"><ele>-7.166666666666667</ele><time>2026-05-02T11:05:31Z</time></trkpt><trkpt lat="44.864824617108034" lon="12.119674263731547"><ele>-7.0</ele><time>2026-05-02T11:05:33Z</time></trkpt><trkpt lat="44.86480814310795" lon="12.119783353896462"><ele>-6.6</ele><time>2026-05-02T11:05:35Z</time></trkpt><trkpt lat="44.86479927898058" lon="12.119910308390144"><ele>-6.199999999999999</ele><time>2026-05-02T11:05:37Z</time></trkpt><trkpt lat="44.864781378744546" lon="12.120040877461607"><ele>-5.8</ele><time>2026-05-02T11:05:39Z</time></trkpt><trkpt lat="44.86477113365541" lon="12.120171962815393"><ele>-5.4</ele><time>2026-05-02T11:05:41Z</time></trkpt><trkpt lat="44.86475771352778" lon="12.120296265908964"><ele>-5.0</ele><time>2026-05-02T11:05:43Z</time></trkpt><trkpt lat="44.86475064160044" lon="12.120413296028788"><ele>-5.0</ele><time>2026-05-02T11:05:45Z</time></trkpt><trkpt lat="44.86474107581827" lon="12.120525521989896"><ele>-5.0</ele><time>2026-05-02T11:05:47Z</time></trkpt><trkpt lat="44.864720333421054" lon="12.120647245561072"><ele>-5.0</ele><time>2026-05-02T11:05:49Z</time></trkpt><trkpt lat="44.86470347057063" lon="12.12077383509642"><ele>-5.0</ele><time>2026-05-02T11:05:51Z</time></trkpt><trkpt lat="44.86468985862812" lon="12.120905253732156"><ele>-5.0</ele><time>2026-05-02T11:05:53Z</time></trkpt><trkpt lat="44.86467520531839" lon="12.121025050018636"><ele>-5.0</ele><time>2026-05-02T11:05:55Z</time></trkpt><trkpt lat="44.864667148163996" lon="12.121133547807663"><ele>-5.0</ele><time>2026-05-02T11:05:57Z</time></trkpt><trkpt lat="44.86465492974857" lon="12.121241970333513"><ele>-5.0</ele><time>2026-05-02T11:05:59Z</time></trkpt><trkpt lat="44.86464195638149" lon="12.121328991121556"><ele>-5.0</ele><time>2026-05-02T11:06:01Z</time></trkpt><trkpt lat="44.86463179916233" lon="12.121434040168804"><ele>-5.0</ele><time>2026-05-02T11:06:03Z</time></trkpt><trkpt lat="44.86461784561339" lon="12.121543301759148"><ele>-5.0</ele><time>2026-05-02T11:06:05Z</time></trkpt><trkpt lat="44.864613055510326" lon="12.121641976560326"><ele>-5.0</ele><time>2026-05-02T11:06:07Z</time></trkpt><trkpt lat="44.86459994017602" lon="12.121749910771776"><ele>-5.0</ele><time>2026-05-02T11:06:09Z</time></trkpt><trkpt lat="44.864590477497366" lon="12.121859399182103"><ele>-4.833333333333334</ele><time>2026-05-02T11:06:11Z</time></trkpt><trkpt lat="44.86458111457378" lon="12.121957591183927"><ele>-4.666666666666667</ele><time>2026-05-02T11:06:13Z</time></trkpt><trkpt lat="44.864569738218655" lon="12.12205289280533"><ele>-4.5</ele><time>2026-05-02T11:06:15Z</time></trkpt><trkpt lat="44.86455970635753" lon="12.122158158259627"><ele>-4.333333333333333</ele><time>2026-05-02T11:06:17Z</time></trkpt><trkpt lat="44.864543946320765" lon="12.122286365952831"><ele>-4.166666666666666</ele><time>2026-05-02T11:06:19Z</time></trkpt><trkpt lat="44.86453254944849" lon="12.122402899081374"><ele>-4.0</ele><time>2026-05-02T11:06:21Z</time></trkpt><trkpt lat="44.86452269090102" lon="12.122505800227032"><ele>-3.9999999999999996</ele><time>2026-05-02T11:06:23Z</time></trkpt><trkpt lat="44.86451379577555" lon="12.122601634951554"><ele>-4.0</ele><time>2026-05-02T11:06:25Z</time></trkpt><trkpt lat="44.864500968338014" lon="12.122691617614926"><ele>-4.0</ele><time>2026-05-02T11:06:27Z</time></trkpt><trkpt lat="44.86449205120513" lon="12.12279982050767"><ele>-4.0</ele><time>2026-05-02T11:06:29Z</time></trkpt><trkpt lat="44.86448115273899" lon="12.122906755184836"><ele>-3.9999999999999996</ele><time>2026-05-02T11:06:31Z</time></trkpt><trkpt lat="44.86446990698146" lon="12.12301416493759"><ele>-4.0</ele><time>2026-05-02T11:06:33Z</time></trkpt><trkpt lat="44.86445862244223" lon="12.123139656068838"><ele>-4.333333333333333</ele><time>2026-05-02T11:06:35Z</time></trkpt><trkpt lat="44.86444126451855" lon="12.123254490924602"><ele>-4.666666666666666</ele><time>2026-05-02T11:06:37Z</time></trkpt><trkpt lat="44.86443107679152" lon="12.123365993353952"><ele>-5.0</ele><time>2026-05-02T11:06:39Z</time></trkpt><trkpt lat="44.86442673225561" lon="12.123469865375007"><ele>-5.333333333333333</ele><time>2026-05-02T11:06:41Z</time></trkpt><trkpt lat="44.86441774019994" lon="12.123574494777483"><ele>-5.666666666666667</ele><time>2026-05-02T11:06:43Z</time></trkpt><trkpt lat="44.86440842145155" lon="12.123698122624292"><ele>-6.0</ele><time>2026-05-02T11:06:45Z</time></trkpt><trkpt lat="44.8643975205852" lon="12.123815243158141"><ele>-6.0</ele><time>2026-05-02T11:06:47Z</time></trkpt><trkpt lat="44.86438842940319" lon="12.123926494176944"><ele>-6.0</ele><time>2026-05-02T11:06:49Z</time></trkpt><trkpt lat="44.8643744251442" lon="12.124029889485413"><ele>-6.0</ele><time>2026-05-02T11:06:51Z</time></trkpt><trkpt lat="44.8643734811495" lon="12.124140038917867"><ele>-6.0</ele><time>2026-05-02T11:06:53Z</time></trkpt><trkpt lat="44.86435810585543" lon="12.124267562631523"><ele>-6.0</ele><time>2026-05-02T11:06:55Z</time></trkpt><trkpt lat="44.86433302739729" lon="12.124395866112339"><ele>-6.0</ele><time>2026-05-02T11:06:57Z</time></trkpt><trkpt lat="44.86432318949608" lon="12.124510722321437"><ele>-6.0</ele><time>2026-05-02T11:06:59Z</time></trkpt><trkpt lat="44.86431704848551" lon="12.124620905741882"><ele>-6.0</ele><time>2026-05-02T11:07:01Z</time></trkpt><trkpt lat="44.86431005960621" lon="12.124725004619425"><ele>-6.0</ele><time>2026-05-02T11:07:03Z</time></trkpt><trkpt lat="44.86429690717329" lon="12.124830354015248"><ele>-6.0</ele><time>2026-05-02T11:07:05Z</time></trkpt><trkpt lat="44.864278352335894" lon="12.124952012324036"><ele>-6.0</ele><time>2026-05-02T11:07:07Z</time></trkpt><trkpt lat="44.86426902472201" lon="12.125077981601589"><ele>-6.0</ele><time>2026-05-02T11:07:09Z</time></trkpt><trkpt lat="44.864254505300536" lon="12.125204803965511"><ele>-6.0</ele><time>2026-05-02T11:07:11Z</time></trkpt><trkpt lat="44.86424318925887" lon="12.125332335916134"><ele>-6.0</ele><time>2026-05-02T11:07:13Z</time></trkpt><trkpt lat="44.86422750835348" lon="12.125457246443265"><ele>-6.0</ele><time>2026-05-02T11:07:15Z</time></trkpt><trkpt lat="44.86421683890795" lon="12.125567312218644"><ele>-6.0</ele><time>2026-05-02T11:07:17Z</time></trkpt><trkpt lat="44.864207442874154" lon="12.125672056546627"><ele>-6.0</ele><time>2026-05-02T11:07:19Z</time></trkpt><trkpt lat="44.864192973704384" lon="12.125788288775263"><ele>-6.0</ele><time>2026-05-02T11:07:21Z</time></trkpt><trkpt lat="44.86417819189133" lon="12.125909916095383"><ele>-6.0</ele><time>2026-05-02T11:07:23Z</time></trkpt><trkpt lat="44.86416691356213" lon="12.126031589052602"><ele>-6.0</ele><time>2026-05-02T11:07:25Z</time></trkpt><trkpt lat="44.864159431844215" lon="12.126144050107468"><ele>-6.0</ele><time>2026-05-02T11:07:27Z</time></trkpt><trkpt lat="44.86414378842389" lon="12.126255673685147"><ele>-6.0</ele><time>2026-05-02T11:07:29Z</time></trkpt><trkpt lat="44.86413125517846" lon="12.12637614053514"><ele>-6.0</ele><time>2026-05-02T11:07:31Z</time></trkpt><trkpt lat="44.86412216489926" lon="12.126486948013271"><ele>-6.0</ele><time>2026-05-02T11:07:33Z</time></trkpt><trkpt lat="44.864106842110466" lon="12.12659825663145"><ele>-6.333333333333333</ele><time>2026-05-02T11:07:35Z</time></trkpt><trkpt lat="44.86409511239475" lon="12.126723760831737"><ele>-6.666666666666666</ele><time>2026-05-02T11:07:37Z</time></trkpt><trkpt lat="44.86408125991461" lon="12.126842752065976"><ele>-7.0</ele><time>2026-05-02T11:07:39Z</time></trkpt><trkpt lat="44.86406908316327" lon="12.126947190038976"><ele>-7.333333333333333</ele><time>2026-05-02T11:07:41Z</time></trkpt><trkpt lat="44.86405854298464" lon="12.127045949927858"><ele>-7.666666666666666</ele><time>2026-05-02T11:07:43Z</time></trkpt><trkpt lat="44.864058009350494" lon="12.127138544531018"><ele>-8.0</ele><time>2026-05-02T11:07:45Z</time></trkpt><trkpt lat="44.86404368478377" lon="12.12723843091343"><ele>-7.999999999999999</ele><time>2026-05-02T11:07:47Z</time></trkpt><trkpt lat="44.86402590102737" lon="12.127350920513363"><ele>-8.0</ele><time>2026-05-02T11:07:49Z</time></trkpt><trkpt lat="44.86401144023732" lon="12.127451764486915"><ele>-8.0</ele><time>2026-05-02T11:07:51Z</time></trkpt><trkpt lat="44.86400301525948" lon="12.127559550575247"><ele>-8.0</ele><time>2026-05-02T11:07:53Z</time></trkpt><trkpt lat="44.86399904765104" lon="12.127674778345193"><ele>-7.999999999999999</ele><time>2026-05-02T11:07:55Z</time></trkpt><trkpt lat="44.863984616198586" lon="12.127774927143346"><ele>-8.0</ele><time>2026-05-02T11:07:57Z</time></trkpt><trkpt lat="44.86397516844018" lon="12.12787151079343"><ele>-7.833333333333333</ele><time>2026-05-02T11:07:59Z</time></trkpt><trkpt lat="44.86397701789606" lon="12.12798231751442"><ele>-7.666666666666666</ele><time>2026-05-02T11:08:01Z</time></trkpt><trkpt lat="44.86395820251226" lon="12.128104704459076"><ele>-7.5</ele><time>2026-05-02T11:08:03Z</time></trkpt><trkpt lat="44.863946143320675" lon="12.12822900740294"><ele>-7.333333333333334</ele><time>2026-05-02T11:08:05Z</time></trkpt><trkpt lat="44.86392650180051" lon="12.128341021804593"><ele>-7.166666666666667</ele><time>2026-05-02T11:08:07Z</time></trkpt><trkpt lat="44.863920619156275" lon="12.128443961147287"><ele>-7.0</ele><time>2026-05-02T11:08:09Z</time></trkpt><trkpt lat="44.86391946849885" lon="12.12853492328814"><ele>-6.500000000000001</ele><time>2026-05-02T11:08:11Z</time></trkpt><trkpt lat="44.86389733246332" lon="12.12864638629267"><ele>-6.0</ele><time>2026-05-02T11:08:13Z</time></trkpt><trkpt lat="44.863891731961644" lon="12.128763673025734"><ele>-5.5</ele><time>2026-05-02T11:08:15Z</time></trkpt><trkpt lat="44.86388722099505" lon="12.128864818611836"><ele>-5.0</ele><time>2026-05-02T11:08:17Z</time></trkpt><trkpt lat="44.86386298332116" lon="12.128970379361323"><ele>-4.5</ele><time>2026-05-02T11:08:19Z</time></trkpt><trkpt lat="44.86384859627353" lon="12.129080425295992"><ele>-4.0</ele><time>2026-05-02T11:08:21Z</time></trkpt><trkpt lat="44.863836263144584" lon="12.12919934820356"><ele>-3.833333333333333</ele><time>2026-05-02T11:08:23Z</time></trkpt><trkpt lat="44.8638251406054" lon="12.129310862337565"><ele>-3.6666666666666665</ele><time>2026-05-02T11:08:25Z</time></trkpt><trkpt lat="44.863816997870565" lon="12.129416789673506"><ele>-3.5</ele><time>2026-05-02T11:08:27Z</time></trkpt><trkpt lat="44.863820146277526" lon="12.129528876591436"><ele>-3.333333333333333</ele><time>2026-05-02T11:08:29Z</time></trkpt><trkpt lat="44.86384128451432" lon="12.129644143822338"><ele>-3.1666666666666665</ele><time>2026-05-02T11:08:31Z</time></trkpt><trkpt lat="44.86387064991407" lon="12.129756666569435"><ele>-3.0</ele><time>2026-05-02T11:08:33Z</time></trkpt><trkpt lat="44.86390143249138" lon="12.129870790799776"><ele>-3.3333333333333335</ele><time>2026-05-02T11:08:35Z</time></trkpt><trkpt lat="44.8639680650557" lon="12.12995009790109"><ele>-3.666666666666667</ele><time>2026-05-02T11:08:37Z</time></trkpt><trkpt lat="44.864021814790036" lon="12.13003727815027"><ele>-4.0</ele><time>2026-05-02T11:08:39Z</time></trkpt><trkpt lat="44.86406747015409" lon="12.130138269804108"><ele>-4.333333333333334</ele><time>2026-05-02T11:08:42Z</time></trkpt><trkpt lat="44.864098244734286" lon="12.130231250255871"><ele>-4.666666666666667</ele><time>2026-05-02T11:08:45Z</time></trkpt><trkpt lat="44.86405318684966" lon="12.13030852061854"><ele>-5.0</ele><time>2026-05-02T11:08:47Z</time></trkpt><trkpt lat="44.86399618394885" lon="12.130392216806392"><ele>-5.0</ele><time>2026-05-02T11:08:49Z</time></trkpt><trkpt lat="44.86394735735213" lon="12.13046165215137"><ele>-5.0</ele><time>2026-05-02T11:08:51Z</time></trkpt><trkpt lat="44.86390667765826" lon="12.130531701284921"><ele>-5.0</ele><time>2026-05-02T11:08:53Z</time></trkpt><trkpt lat="44.86386546145654" lon="12.130602476428933"><ele>-5.0</ele><time>2026-05-02T11:08:55Z</time></trkpt><trkpt lat="44.86382353220808" lon="12.1306793291075"><ele>-5.0</ele><time>2026-05-02T11:08:57Z</time></trkpt><trkpt lat="44.86376809015611" lon="12.130761598583655"><ele>-5.0</ele><time>2026-05-02T11:08:59Z</time></trkpt><trkpt lat="44.8637092703887" lon="12.1308487197314"><ele>-5.0</ele><time>2026-05-02T11:09:01Z</time></trkpt><trkpt lat="44.86365365823642" lon="12.130964267537827"><ele>-5.2</ele><time>2026-05-02T11:09:03Z</time></trkpt><trkpt lat="44.86360061935662" lon="12.131097901142248"><ele>-5.4</ele><time>2026-05-02T11:09:05Z</time></trkpt><trkpt lat="44.863572109912816" lon="12.131252442410204"><ele>-5.6</ele><time>2026-05-02T11:09:07Z</time></trkpt><trkpt lat="44.86355012765866" lon="12.131412298005339"><ele>-5.8</ele><time>2026-05-02T11:09:09Z</time></trkpt><trkpt lat="44.86353007045239" lon="12.13156734432647"><ele>-6.0</ele><time>2026-05-02T11:09:11Z</time></trkpt><trkpt lat="44.863515132492346" lon="12.131713590806955"><ele>-5.6</ele><time>2026-05-02T11:09:13Z</time></trkpt><trkpt lat="44.86350253699467" lon="12.131857974899615"><ele>-5.199999999999999</ele><time>2026-05-02T11:09:15Z</time></trkpt><trkpt lat="44.86349067278582" lon="12.13199728921939"><ele>-4.800000000000001</ele><time>2026-05-02T11:09:17Z</time></trkpt><trkpt lat="44.863473846132514" lon="12.132128474699163"><ele>-4.4</ele><time>2026-05-02T11:09:19Z</time></trkpt><trkpt lat="44.863458154066805" lon="12.132254033757524"><ele>-4.0</ele><time>2026-05-02T11:09:21Z</time></trkpt><trkpt lat="44.863447272195145" lon="12.132378571495092"><ele>-4.6</ele><time>2026-05-02T11:09:23Z</time></trkpt><trkpt lat="44.86343055986107" lon="12.132508132361957"><ele>-5.2</ele><time>2026-05-02T11:09:25Z</time></trkpt><trkpt lat="44.863416232737976" lon="12.132634978716212"><ele>-5.799999999999999</ele><time>2026-05-02T11:09:27Z</time></trkpt><trkpt lat="44.86340502051072" lon="12.13276661514839"><ele>-6.3999999999999995</ele><time>2026-05-02T11:09:29Z</time></trkpt><trkpt lat="44.86338800268042" lon="12.132898583981342"><ele>-7.0</ele><time>2026-05-02T11:09:31Z</time></trkpt><trkpt lat="44.86337588586771" lon="12.133026885912729"><ele>-7.000000000000001</ele><time>2026-05-02T11:09:33Z</time></trkpt><trkpt lat="44.86336309068322" lon="12.133151292354173"><ele>-7.0</ele><time>2026-05-02T11:09:35Z</time></trkpt><trkpt lat="44.86335630872406" lon="12.133269692438976"><ele>-7.0</ele><time>2026-05-02T11:09:37Z</time></trkpt><trkpt lat="44.86334730546933" lon="12.133386091799"><ele>-7.0</ele><time>2026-05-02T11:09:39Z</time></trkpt><trkpt lat="44.86333230342701" lon="12.133490894053207"><ele>-7.000000000000001</ele><time>2026-05-02T11:09:41Z</time></trkpt><trkpt lat="44.86331393613135" lon="12.133607566306985"><ele>-7.0</ele><time>2026-05-02T11:09:43Z</time></trkpt><trkpt lat="44.86329403546854" lon="12.133729657718288"><ele>-7.166666666666667</ele><time>2026-05-02T11:09:45Z</time></trkpt><trkpt lat="44.86328326492542" lon="12.133855116411508"><ele>-7.333333333333334</ele><time>2026-05-02T11:09:47Z</time></trkpt><trkpt lat="44.86327259000963" lon="12.133974322979954"><ele>-7.5</ele><time>2026-05-02T11:09:49Z</time></trkpt><trkpt lat="44.86326029273959" lon="12.13408312541491"><ele>-7.666666666666666</ele><time>2026-05-02T11:09:51Z</time></trkpt><trkpt lat="44.86324980606998" lon="12.134198929775676"><ele>-7.833333333333333</ele><time>2026-05-02T11:09:53Z</time></trkpt><trkpt lat="44.86323917335931" lon="12.134318533643174"><ele>-8.0</ele><time>2026-05-02T11:09:55Z</time></trkpt><trkpt lat="44.86322467953697" lon="12.134426426404005"><ele>-7.666666666666666</ele><time>2026-05-02T11:09:57Z</time></trkpt><trkpt lat="44.8632162863021" lon="12.134534908210235"><ele>-7.333333333333333</ele><time>2026-05-02T11:09:59Z</time></trkpt><trkpt lat="44.863207108266806" lon="12.134647987745886"><ele>-7.0</ele><time>2026-05-02T11:10:01Z</time></trkpt><trkpt lat="44.863191627770995" lon="12.134776065555538"><ele>-6.666666666666666</ele><time>2026-05-02T11:10:03Z</time></trkpt><trkpt lat="44.86317623417931" lon="12.13489868753851"><ele>-6.333333333333333</ele><time>2026-05-02T11:10:05Z</time></trkpt><trkpt lat="44.86316067126223" lon="12.135013573542578"><ele>-6.0</ele><time>2026-05-02T11:10:07Z</time></trkpt><trkpt lat="44.86314753751744" lon="12.135125454855709"><ele>-6.0</ele><time>2026-05-02T11:10:09Z</time></trkpt><trkpt lat="44.86313784966855" lon="12.135231590244619"><ele>-6.0</ele><time>2026-05-02T11:10:11Z</time></trkpt><trkpt lat="44.863124356656606" lon="12.135332018257113"><ele>-6.0</ele><time>2026-05-02T11:10:13Z</time></trkpt><trkpt lat="44.863115759065394" lon="12.135445470268293"><ele>-6.0</ele><time>2026-05-02T11:10:15Z</time></trkpt><trkpt lat="44.863105140941045" lon="12.135565864109322"><ele>-6.0</ele><time>2026-05-02T11:10:17Z</time></trkpt><trkpt lat="44.863090079452334" lon="12.135676380636266"><ele>-6.0</ele><time>2026-05-02T11:10:19Z</time></trkpt><trkpt lat="44.863078310854554" lon="12.135780192681722"><ele>-5.857142857142857</ele><time>2026-05-02T11:10:21Z</time></trkpt><trkpt lat="44.863066541117476" lon="12.135882191690824"><ele>-5.714285714285714</ele><time>2026-05-02T11:10:23Z</time></trkpt><trkpt lat="44.86305722141761" lon="12.135998839171041"><ele>-5.571428571428571</ele><time>2026-05-02T11:10:25Z</time></trkpt><trkpt lat="44.86304053538418" lon="12.136105514556323"><ele>-5.428571428571429</ele><time>2026-05-02T11:10:27Z</time></trkpt><trkpt lat="44.86303168988957" lon="12.136205037132035"><ele>-5.285714285714286</ele><time>2026-05-02T11:10:29Z</time></trkpt><trkpt lat="44.86302297251191" lon="12.13630286392596"><ele>-5.142857142857142</ele><time>2026-05-02T11:10:31Z</time></trkpt><trkpt lat="44.86301561591606" lon="12.136404716438213"><ele>-5.0</ele><time>2026-05-02T11:10:33Z</time></trkpt><trkpt lat="44.86299941159004" lon="12.136503486618816"><ele>-5.333333333333334</ele><time>2026-05-02T11:10:35Z</time></trkpt><trkpt lat="44.86298314361971" lon="12.1366142845422"><ele>-5.666666666666667</ele><time>2026-05-02T11:10:37Z</time></trkpt><trkpt lat="44.8629727873433" lon="12.136719410879747"><ele>-6.0</ele><time>2026-05-02T11:10:39Z</time></trkpt><trkpt lat="44.862963151316386" lon="12.13681452975772"><ele>-6.333333333333334</ele><time>2026-05-02T11:10:41Z</time></trkpt><trkpt lat="44.86295553278361" lon="12.13691626119979"><ele>-6.666666666666667</ele><time>2026-05-02T11:10:43Z</time></trkpt><trkpt lat="44.862940312721115" lon="12.137036483553606"><ele>-7.0</ele><time>2026-05-02T11:10:45Z</time></trkpt><trkpt lat="44.86292451874511" lon="12.137163221547283"><ele>-7.000000000000001</ele><time>2026-05-02T11:10:47Z</time></trkpt><trkpt lat="44.86291147407123" lon="12.137287253593042"><ele>-7.0</ele><time>2026-05-02T11:10:49Z</time></trkpt><trkpt lat="44.86289920177954" lon="12.137403137683417"><ele>-7.0</ele><time>2026-05-02T11:10:51Z</time></trkpt><trkpt lat="44.86288807179339" lon="12.137512682151128"><ele>-7.0</ele><time>2026-05-02T11:10:53Z</time></trkpt><trkpt lat="44.862876288906406" lon="12.137624160279518"><ele>-7.000000000000001</ele><time>2026-05-02T11:10:55Z</time></trkpt><trkpt lat="44.86287083462205" lon="12.137747543791237"><ele>-7.0</ele><time>2026-05-02T11:10:57Z</time></trkpt><trkpt lat="44.86285451643425" lon="12.13786203625998"><ele>-6.833333333333334</ele><time>2026-05-02T11:10:59Z</time></trkpt><trkpt lat="44.86284376152501" lon="12.13796795883362"><ele>-6.666666666666667</ele><time>2026-05-02T11:11:01Z</time></trkpt><trkpt lat="44.86283465198261" lon="12.138065328837682"><ele>-6.5</ele><time>2026-05-02T11:11:03Z</time></trkpt><trkpt lat="44.86282387752351" lon="12.138155100812266"><ele>-6.333333333333334</ele><time>2026-05-02T11:11:05Z</time></trkpt><trkpt lat="44.86280883257844" lon="12.138272543239463"><ele>-6.166666666666667</ele><time>2026-05-02T11:11:07Z</time></trkpt><trkpt lat="44.862794216362914" lon="12.138387942551143"><ele>-6.0</ele><time>2026-05-02T11:11:09Z</time></trkpt><trkpt lat="44.86278262935617" lon="12.138506890602526"><ele>-6.0</ele><time>2026-05-02T11:11:11Z</time></trkpt><trkpt lat="44.862766538815514" lon="12.138627401468364"><ele>-6.0</ele><time>2026-05-02T11:11:13Z</time></trkpt><trkpt lat="44.86275457702316" lon="12.138749866408896"><ele>-6.0</ele><time>2026-05-02T11:11:15Z</time></trkpt><trkpt lat="44.862742286976264" lon="12.138873951265362"><ele>-6.0</ele><time>2026-05-02T11:11:17Z</time></trkpt><trkpt lat="44.86273071708882" lon="12.13900148712398"><ele>-6.0</ele><time>2026-05-02T11:11:19Z</time></trkpt><trkpt lat="44.86271340255324" lon="12.139120465219099"><ele>-6.0</ele><time>2026-05-02T11:11:21Z</time></trkpt><trkpt lat="44.86270434381625" lon="12.139230627500162"><ele>-6.0</ele><time>2026-05-02T11:11:23Z</time></trkpt><trkpt lat="44.86268902351385" lon="12.139333761645945"><ele>-6.0</ele><time>2026-05-02T11:11:25Z</time></trkpt><trkpt lat="44.86268543801378" lon="12.139433614459122"><ele>-6.0</ele><time>2026-05-02T11:11:27Z</time></trkpt><trkpt lat="44.862676980710056" lon="12.139537359986097"><ele>-6.0</ele><time>2026-05-02T11:11:29Z</time></trkpt><trkpt lat="44.8626545305445" lon="12.139653870540117"><ele>-6.0</ele><time>2026-05-02T11:11:31Z</time></trkpt><trkpt lat="44.86265223190893" lon="12.139762019014054"><ele>-6.0</ele><time>2026-05-02T11:11:33Z</time></trkpt><trkpt lat="44.86263855693372" lon="12.139862622248351"><ele>-5.7142857142857135</ele><time>2026-05-02T11:11:35Z</time></trkpt><trkpt lat="44.8626287352809" lon="12.139957475516349"><ele>-5.428571428571429</ele><time>2026-05-02T11:11:37Z</time></trkpt><trkpt lat="44.862619381115735" lon="12.140048350662019"><ele>-5.142857142857142</ele><time>2026-05-02T11:11:39Z</time></trkpt><trkpt lat="44.86260078518086" lon="12.140175808111145"><ele>-4.857142857142857</ele><time>2026-05-02T11:11:42Z</time></trkpt><trkpt lat="44.86259567743996" lon="12.140270515980257"><ele>-4.571428571428571</ele><time>2026-05-02T11:11:44Z</time></trkpt><trkpt lat="44.862583429195915" lon="12.140363145482516"><ele>-4.285714285714286</ele><time>2026-05-02T11:11:46Z</time></trkpt><trkpt lat="44.86257675378344" lon="12.14045226333781"><ele>-4.0</ele><time>2026-05-02T11:11:48Z</time></trkpt><trkpt lat="44.86255856227023" lon="12.140574165588939"><ele>-3.9999999999999996</ele><time>2026-05-02T11:11:51Z</time></trkpt><trkpt lat="44.86255279597627" lon="12.140708622041986"><ele>-4.0</ele><time>2026-05-02T11:11:54Z</time></trkpt><trkpt lat="44.86253722939913" lon="12.14082681399969"><ele>-4.0</ele><time>2026-05-02T11:11:56Z</time></trkpt><trkpt lat="44.86251858434292" lon="12.14094166175913"><ele>-4.0</ele><time>2026-05-02T11:11:58Z</time></trkpt><trkpt lat="44.86250591748036" lon="12.141052234234621"><ele>-3.9999999999999996</ele><time>2026-05-02T11:12:00Z</time></trkpt><trkpt lat="44.86249662317506" lon="12.141150249122026"><ele>-4.0</ele><time>2026-05-02T11:12:02Z</time></trkpt><trkpt lat="44.86249309540897" lon="12.14124552722524"><ele>-4.333333333333333</ele><time>2026-05-02T11:12:04Z</time></trkpt><trkpt lat="44.862472796052934" lon="12.141357912984327"><ele>-4.666666666666666</ele><time>2026-05-02T11:12:06Z</time></trkpt><trkpt lat="44.86245962757109" lon="12.141481760807727"><ele>-5.0</ele><time>2026-05-02T11:12:08Z</time></trkpt><trkpt lat="44.86244456455138" lon="12.141596671214408"><ele>-5.333333333333333</ele><time>2026-05-02T11:12:10Z</time></trkpt><trkpt lat="44.86243755817659" lon="12.141703974737709"><ele>-5.666666666666667</ele><time>2026-05-02T11:12:12Z</time></trkpt><trkpt lat="44.86242024700063" lon="12.141808654074875"><ele>-6.0</ele><time>2026-05-02T11:12:14Z</time></trkpt><trkpt lat="44.86241200298309" lon="12.141910213281442"><ele>-6.0</ele><time>2026-05-02T11:12:16Z</time></trkpt><trkpt lat="44.862399055027254" lon="12.142010690806915"><ele>-6.0</ele><time>2026-05-02T11:12:18Z</time></trkpt><trkpt lat="44.86238040825135" lon="12.142129134204506"><ele>-6.0</ele><time>2026-05-02T11:12:20Z</time></trkpt><trkpt lat="44.86237263796582" lon="12.142250087042452"><ele>-6.0</ele><time>2026-05-02T11:12:22Z</time></trkpt><trkpt lat="44.86235909453726" lon="12.142362803466021"><ele>-6.0</ele><time>2026-05-02T11:12:24Z</time></trkpt><trkpt lat="44.86234952501793" lon="12.142468922876748"><ele>-6.0</ele><time>2026-05-02T11:12:26Z</time></trkpt><trkpt lat="44.862340070877266" lon="12.142573009550535"><ele>-6.0</ele><time>2026-05-02T11:12:28Z</time></trkpt><trkpt lat="44.86233236700633" lon="12.142687027222063"><ele>-6.0</ele><time>2026-05-02T11:12:30Z</time></trkpt><trkpt lat="44.86231616502643" lon="12.142805963739917"><ele>-6.0</ele><time>2026-05-02T11:12:32Z</time></trkpt><trkpt lat="44.86230203828869" lon="12.14291775325684"><ele>-6.0</ele><time>2026-05-02T11:12:34Z</time></trkpt><trkpt lat="44.86229604234227" lon="12.143026033275584"><ele>-6.0</ele><time>2026-05-02T11:12:36Z</time></trkpt><trkpt lat="44.862280723550306" lon="12.14312647243536"><ele>-6.0</ele><time>2026-05-02T11:12:38Z</time></trkpt><trkpt lat="44.86226286873974" lon="12.143223289125649"><ele>-5.999999999999999</ele><time>2026-05-02T11:12:40Z</time></trkpt><trkpt lat="44.862251939984546" lon="12.143338996985799"><ele>-6.0</ele><time>2026-05-02T11:12:42Z</time></trkpt><trkpt lat="44.86224157488499" lon="12.143449062349402"><ele>-6.0</ele><time>2026-05-02T11:12:44Z</time></trkpt><trkpt lat="44.86223115223884" lon="12.143549974553856"><ele>-6.0</ele><time>2026-05-02T11:12:46Z</time></trkpt><trkpt lat="44.862219328302274" lon="12.143645723347147"><ele>-6.0</ele><time>2026-05-02T11:12:48Z</time></trkpt><trkpt lat="44.86221620472133" lon="12.143737651921706"><ele>-5.999999999999999</ele><time>2026-05-02T11:12:50Z</time></trkpt><trkpt lat="44.86220763693621" lon="12.143830350970193"><ele>-6.0</ele><time>2026-05-02T11:12:52Z</time></trkpt><trkpt lat="44.862189603052634" lon="12.14393316159223"><ele>-6.0</ele><time>2026-05-02T11:12:54Z</time></trkpt><trkpt lat="44.8621801568606" lon="12.144042152334206"><ele>-6.0</ele><time>2026-05-02T11:12:56Z</time></trkpt><trkpt lat="44.86215557687738" lon="12.14416912985125"><ele>-6.0</ele><time>2026-05-02T11:12:58Z</time></trkpt><trkpt lat="44.862144107895475" lon="12.14429433621928"><ele>-6.0</ele><time>2026-05-02T11:13:00Z</time></trkpt><trkpt lat="44.862132737034855" lon="12.14440620520035"><ele>-6.0</ele><time>2026-05-02T11:13:02Z</time></trkpt><trkpt lat="44.86212043811975" lon="12.144515962387944"><ele>-6.0</ele><time>2026-05-02T11:13:04Z</time></trkpt><trkpt lat="44.86210334545945" lon="12.144628084457535"><ele>-5.857142857142857</ele><time>2026-05-02T11:13:06Z</time></trkpt><trkpt lat="44.86209544817206" lon="12.144724155522265"><ele>-5.714285714285714</ele><time>2026-05-02T11:13:08Z</time></trkpt><trkpt lat="44.86208388501441" lon="12.144813109509636"><ele>-5.571428571428571</ele><time>2026-05-02T11:13:10Z</time></trkpt><trkpt lat="44.86207275142268" lon="12.144916584719008"><ele>-5.428571428571429</ele><time>2026-05-02T11:13:12Z</time></trkpt><trkpt lat="44.86205847271287" lon="12.145005366436768"><ele>-5.285714285714286</ele><time>2026-05-02T11:13:14Z</time></trkpt><trkpt lat="44.86204917827859" lon="12.145101650904438"><ele>-5.142857142857142</ele><time>2026-05-02T11:13:16Z</time></trkpt><trkpt lat="44.862036468344044" lon="12.14522225430793"><ele>-5.0</ele><time>2026-05-02T11:13:18Z</time></trkpt><trkpt lat="44.862026441113386" lon="12.145327484592984"><ele>-4.5</ele><time>2026-05-02T11:13:20Z</time></trkpt><trkpt lat="44.86201927766876" lon="12.145429684403895"><ele>-4.0</ele><time>2026-05-02T11:13:22Z</time></trkpt><trkpt lat="44.86200629238252" lon="12.145549930350892"><ele>-3.5</ele><time>2026-05-02T11:13:24Z</time></trkpt><trkpt lat="44.86199417783261" lon="12.1456700055004"><ele>-3.0</ele><time>2026-05-02T11:13:26Z</time></trkpt><trkpt lat="44.86198974955349" lon="12.145781840172441"><ele>-2.5</ele><time>2026-05-02T11:13:28Z</time></trkpt><trkpt lat="44.86198123372716" lon="12.145886594219407"><ele>-2.0</ele><time>2026-05-02T11:13:30Z</time></trkpt><trkpt lat="44.86196249899811" lon="12.145986506531546"><ele>-1.9999999999999998</ele><time>2026-05-02T11:13:32Z</time></trkpt><trkpt lat="44.8619557800682" lon="12.146085832370545"><ele>-2.0</ele><time>2026-05-02T11:13:34Z</time></trkpt><trkpt lat="44.861951955338135" lon="12.14621272456694"><ele>-2.0</ele><time>2026-05-02T11:13:36Z</time></trkpt><trkpt lat="44.86193600490954" lon="12.146333312151226"><ele>-2.0</ele><time>2026-05-02T11:13:38Z</time></trkpt><trkpt lat="44.861927840562714" lon="12.146447314622426"><ele>-1.9999999999999998</ele><time>2026-05-02T11:13:40Z</time></trkpt><trkpt lat="44.86192068519681" lon="12.1465550955812"><ele>-2.0</ele><time>2026-05-02T11:13:42Z</time></trkpt><trkpt lat="44.861898928821354" lon="12.146660035890552"><ele>-1.9999999999999998</ele><time>2026-05-02T11:13:44Z</time></trkpt><trkpt lat="44.86188980561806" lon="12.146771977502317"><ele>-2.0</ele><time>2026-05-02T11:13:46Z</time></trkpt><trkpt lat="44.86188063356674" lon="12.146899624998753"><ele>-2.0</ele><time>2026-05-02T11:13:48Z</time></trkpt><trkpt lat="44.861868189457674" lon="12.147026496165367"><ele>-2.0</ele><time>2026-05-02T11:13:50Z</time></trkpt><trkpt lat="44.861858018543515" lon="12.14715151853394"><ele>-1.9999999999999998</ele><time>2026-05-02T11:13:52Z</time></trkpt><trkpt lat="44.861843119516934" lon="12.14727807570322"><ele>-2.0</ele><time>2026-05-02T11:13:54Z</time></trkpt><trkpt lat="44.86183859395779" lon="12.147404158454039"><ele>-1.9999999999999998</ele><time>2026-05-02T11:13:56Z</time></trkpt><trkpt lat="44.86182467846684" lon="12.14752843067235"><ele>-2.0</ele><time>2026-05-02T11:13:58Z</time></trkpt><trkpt lat="44.861813708225654" lon="12.1476527387159"><ele>-2.0</ele><time>2026-05-02T11:14:00Z</time></trkpt><trkpt lat="44.861798266897566" lon="12.147778764360648"><ele>-2.0</ele><time>2026-05-02T11:14:02Z</time></trkpt><trkpt lat="44.86177901359275" lon="12.147901957046487"><ele>-1.9999999999999998</ele><time>2026-05-02T11:14:04Z</time></trkpt><trkpt lat="44.861766287379204" lon="12.148016965774291"><ele>-2.0</ele><time>2026-05-02T11:14:06Z</time></trkpt><trkpt lat="44.86175867444188" lon="12.148120434658836"><ele>-1.9999999999999998</ele><time>2026-05-02T11:14:08Z</time></trkpt><trkpt lat="44.861754772589634" lon="12.148216775203165"><ele>-2.0</ele><time>2026-05-02T11:14:10Z</time></trkpt><trkpt lat="44.86174613560412" lon="12.148332580553236"><ele>-2.0</ele><time>2026-05-02T11:14:12Z</time></trkpt><trkpt lat="44.86173076171807" lon="12.148446344140298"><ele>-2.0</ele><time>2026-05-02T11:14:14Z</time></trkpt><trkpt lat="44.8617148574653" lon="12.148564210897188"><ele>-1.9999999999999998</ele><time>2026-05-02T11:14:16Z</time></trkpt><trkpt lat="44.86170749247574" lon="12.148682278139194"><ele>-2.0</ele><time>2026-05-02T11:14:18Z</time></trkpt><trkpt lat="44.86169946535392" lon="12.148795299730537"><ele>-2.0</ele><time>2026-05-02T11:14:20Z</time></trkpt><trkpt lat="44.86168675937373" lon="12.148890662891517"><ele>-1.9999999999999998</ele><time>2026-05-02T11:14:22Z</time></trkpt><trkpt lat="44.861682195063175" lon="12.148990498504459"><ele>-2.0</ele><time>2026-05-02T11:14:24Z</time></trkpt><trkpt lat="44.86167400362434" lon="12.149082597600287"><ele>-2.0</ele><time>2026-05-02T11:14:26Z</time></trkpt><trkpt lat="44.86167081186059" lon="12.149171387745197"><ele>-1.9999999999999998</ele><time>2026-05-02T11:14:29Z</time></trkpt><trkpt lat="44.8617088959352" lon="12.149278609156488"><ele>-2.0</ele><time>2026-05-02T11:14:32Z</time></trkpt><trkpt lat="44.86178316432863" lon="12.149292656250456"><ele>-2.0</ele><time>2026-05-02T11:14:34Z</time></trkpt><trkpt lat="44.86184885342354" lon="12.149316105906303"><ele>-1.6666666666666665</ele><time>2026-05-02T11:14:36Z</time></trkpt><trkpt lat="44.86193176467923" lon="12.149318811543733"><ele>-1.3333333333333333</ele><time>2026-05-02T11:14:38Z</time></trkpt><trkpt lat="44.86201082317702" lon="12.149308597502092"><ele>-1.0</ele><time>2026-05-02T11:14:40Z</time></trkpt><trkpt lat="44.862107784655706" lon="12.149289072833987"><ele>-0.6666666666666666</ele><time>2026-05-02T11:14:43Z</time></trkpt><trkpt lat="44.862197396633974" lon="12.149255941467132"><ele>-0.3333333333333333</ele><time>2026-05-02T11:14:46Z</time></trkpt><trkpt lat="44.862265953643316" lon="12.149234396900232"><ele>0.0</ele><time>2026-05-02T11:14:48Z</time></trkpt><trkpt lat="44.86233242969585" lon="12.149205400623412"><ele>0.0</ele><time>2026-05-02T11:14:50Z</time></trkpt><trkpt lat="44.8623936603315" lon="12.149176707922901"><ele>0.0</ele><time>2026-05-02T11:14:52Z</time></trkpt><trkpt lat="44.862478779735035" lon="12.149122198236267"><ele>0.0</ele><time>2026-05-02T11:14:55Z</time></trkpt><trkpt lat="44.862561779630404" lon="12.149060312933953"><ele>0.0</ele><time>2026-05-02T11:14:58Z</time></trkpt><trkpt lat="44.86264429058935" lon="12.149021264708761"><ele>0.0</ele><time>2026-05-02T11:15:01Z</time></trkpt><trkpt lat="44.86270993988421" lon="12.148962827864647"><ele>0.0</ele><time>2026-05-02T11:15:03Z</time></trkpt><trkpt lat="44.86277266385706" lon="12.148930025157359"><ele>-0.14285714285714285</ele><time>2026-05-02T11:15:05Z</time></trkpt><trkpt lat="44.86283834258351" lon="12.148891301620123"><ele>-0.2857142857142857</ele><time>2026-05-02T11:15:07Z</time></trkpt><trkpt lat="44.86290680644148" lon="12.148851365816801"><ele>-0.42857142857142855</ele><time>2026-05-02T11:15:09Z</time></trkpt><trkpt lat="44.86297140966091" lon="12.148819166101012"><ele>-0.5714285714285714</ele><time>2026-05-02T11:15:11Z</time></trkpt><trkpt lat="44.86303934574769" lon="12.148780062545299"><ele>-0.7142857142857142</ele><time>2026-05-02T11:15:13Z</time></trkpt><trkpt lat="44.863117225637595" lon="12.148743166189318"><ele>-0.8571428571428571</ele><time>2026-05-02T11:15:15Z</time></trkpt><trkpt lat="44.86318267728465" lon="12.148705725860044"><ele>-1.0</ele><time>2026-05-02T11:15:17Z</time></trkpt><trkpt lat="44.863243972636894" lon="12.148673980247446"><ele>-0.9999999999999999</ele><time>2026-05-02T11:15:19Z</time></trkpt><trkpt lat="44.86331214540868" lon="12.14864222491075"><ele>-1.0</ele><time>2026-05-02T11:15:21Z</time></trkpt><trkpt lat="44.863379691826" lon="12.148612936770247"><ele>-1.0</ele><time>2026-05-02T11:15:23Z</time></trkpt><trkpt lat="44.86346069281749" lon="12.14858406577979"><ele>-1.0</ele><time>2026-05-02T11:15:25Z</time></trkpt><trkpt lat="44.8635384636334" lon="12.148563137483844"><ele>-0.9999999999999999</ele><time>2026-05-02T11:15:27Z</time></trkpt><trkpt lat="44.86362742414454" lon="12.148556990287526"><ele>-1.0</ele><time>2026-05-02T11:15:29Z</time></trkpt><trkpt lat="44.8637059348844" lon="12.148556522337213"><ele>-0.8333333333333333</ele><time>2026-05-02T11:15:31Z</time></trkpt><trkpt lat="44.86379257100222" lon="12.14856780976517"><ele>-0.6666666666666666</ele><time>2026-05-02T11:15:33Z</time></trkpt><trkpt lat="44.86387917779594" lon="12.148581932236171"><ele>-0.5</ele><time>2026-05-02T11:15:35Z</time></trkpt><trkpt lat="44.86395997304822" lon="12.14860543110859"><ele>-0.3333333333333333</ele><time>2026-05-02T11:15:37Z</time></trkpt><trkpt lat="44.864038468399436" lon="12.14863400918602"><ele>-0.16666666666666666</ele><time>2026-05-02T11:15:39Z</time></trkpt><trkpt lat="44.864122735145706" lon="12.148666937157522"><ele>0.0</ele><time>2026-05-02T11:15:41Z</time></trkpt><trkpt lat="44.864202900412074" lon="12.148698738197456"><ele>0.0</ele><time>2026-05-02T11:15:43Z</time></trkpt><trkpt lat="44.86428340831848" lon="12.148730595028832"><ele>0.0</ele><time>2026-05-02T11:15:45Z</time></trkpt><trkpt lat="44.86436588573617" lon="12.148771154234604"><ele>0.0</ele><time>2026-05-02T11:15:47Z</time></trkpt><trkpt lat="44.86445211388937" lon="12.148804660911658"><ele>0.0</ele><time>2026-05-02T11:15:49Z</time></trkpt><trkpt lat="44.864538255709554" lon="12.14884202952586"><ele>0.0</ele><time>2026-05-02T11:15:51Z</time></trkpt><trkpt lat="44.86462421847065" lon="12.148877058404384"><ele>0.0</ele><time>2026-05-02T11:15:53Z</time></trkpt><trkpt lat="44.86471257205866" lon="12.148917091661446"><ele>0.0</ele><time>2026-05-02T11:15:55Z</time></trkpt><trkpt lat="44.864801879412056" lon="12.148954417244424"><ele>0.0</ele><time>2026-05-02T11:15:57Z</time></trkpt><trkpt lat="44.86488860779259" lon="12.14898286548009"><ele>0.0</ele><time>2026-05-02T11:15:59Z</time></trkpt><trkpt lat="44.86497204313986" lon="12.149018694087392"><ele>0.0</ele><time>2026-05-02T11:16:01Z</time></trkpt><trkpt lat="44.865053262632614" lon="12.149053864696567"><ele>0.0</ele><time>2026-05-02T11:16:03Z</time></trkpt><trkpt lat="44.865138532177326" lon="12.14909055618551"><ele>0.0</ele><time>2026-05-02T11:16:05Z</time></trkpt><trkpt lat="44.865227508237155" lon="12.149127924870111"><ele>0.0</ele><time>2026-05-02T11:16:07Z</time></trkpt><trkpt lat="44.865320980273445" lon="12.149155154263958"><ele>0.0</ele><time>2026-05-02T11:16:09Z</time></trkpt><trkpt lat="44.86539744173449" lon="12.149191681190581"><ele>0.0</ele><time>2026-05-02T11:16:11Z</time></trkpt><trkpt lat="44.86544346610319" lon="12.149262186212182"><ele>0.0</ele><time>2026-05-02T11:16:13Z</time></trkpt><trkpt lat="44.86544786808194" lon="12.14937042756374"><ele>0.0</ele><time>2026-05-02T11:16:15Z</time></trkpt><trkpt lat="44.86542201298462" lon="12.14948035867041"><ele>0.0</ele><time>2026-05-02T11:16:17Z</time></trkpt><trkpt lat="44.86540521113253" lon="12.149598412100701"><ele>0.0</ele><time>2026-05-02T11:16:19Z</time></trkpt><trkpt lat="44.86539049389317" lon="12.14973154408354"><ele>0.0</ele><time>2026-05-02T11:16:21Z</time></trkpt><trkpt lat="44.86537500355391" lon="12.149866641481303"><ele>0.0</ele><time>2026-05-02T11:16:23Z</time></trkpt><trkpt lat="44.86536051567683" lon="12.15000785450876"><ele>0.0</ele><time>2026-05-02T11:16:25Z</time></trkpt><trkpt lat="44.86534715688389" lon="12.150141024101828"><ele>0.0</ele><time>2026-05-02T11:16:27Z</time></trkpt><trkpt lat="44.865335105873626" lon="12.150255817501987"><ele>-0.16666666666666666</ele><time>2026-05-02T11:16:29Z</time></trkpt><trkpt lat="44.86532165109197" lon="12.150391229758664"><ele>-0.3333333333333333</ele><time>2026-05-02T11:16:31Z</time></trkpt><trkpt lat="44.86530783888147" lon="12.150513102152988"><ele>-0.5</ele><time>2026-05-02T11:16:33Z</time></trkpt><trkpt lat="44.86529384544487" lon="12.150639075154233"><ele>-0.6666666666666666</ele><time>2026-05-02T11:16:35Z</time></trkpt><trkpt lat="44.86527785643746" lon="12.150755304647788"><ele>-0.8333333333333333</ele><time>2026-05-02T11:16:37Z</time></trkpt><trkpt lat="44.86526164736796" lon="12.15087318767952"><ele>-1.0</ele><time>2026-05-02T11:16:39Z</time></trkpt><trkpt lat="44.865243675011676" lon="12.151004263352599"><ele>-0.9999999999999999</ele><time>2026-05-02T11:16:41Z</time></trkpt><trkpt lat="44.865231103104314" lon="12.151129065894139"><ele>-1.0</ele><time>2026-05-02T11:16:43Z</time></trkpt><trkpt lat="44.865212936877676" lon="12.151247957021436"><ele>-1.0</ele><time>2026-05-02T11:16:45Z</time></trkpt><trkpt lat="44.86519624500145" lon="12.151360298846956"><ele>-1.0</ele><time>2026-05-02T11:16:47Z</time></trkpt><trkpt lat="44.86518751266281" lon="12.151478049771457"><ele>-0.9999999999999999</ele><time>2026-05-02T11:16:49Z</time></trkpt><trkpt lat="44.86516352735933" lon="12.151593979679834"><ele>-1.0</ele><time>2026-05-02T11:16:51Z</time></trkpt><trkpt lat="44.86515331533256" lon="12.15170500996437"><ele>-0.9999999999999999</ele><time>2026-05-02T11:16:53Z</time></trkpt><trkpt lat="44.86513654757065" lon="12.151830797219136"><ele>-1.0</ele><time>2026-05-02T11:16:55Z</time></trkpt><trkpt lat="44.86512274056529" lon="12.151954751860561"><ele>-1.0</ele><time>2026-05-02T11:16:57Z</time></trkpt><trkpt lat="44.865110842216396" lon="12.152071200477325"><ele>-1.0</ele><time>2026-05-02T11:16:59Z</time></trkpt><trkpt lat="44.865090772914925" lon="12.152179972392748"><ele>-0.9999999999999999</ele><time>2026-05-02T11:17:01Z</time></trkpt><trkpt lat="44.865075653863606" lon="12.152290471674405"><ele>-1.0</ele><time>2026-05-02T11:17:03Z</time></trkpt><trkpt lat="44.865062360697415" lon="12.1524203811808"><ele>-1.0</ele><time>2026-05-02T11:17:05Z</time></trkpt><trkpt lat="44.8650494036402" lon="12.152546757399605"><ele>-1.0</ele><time>2026-05-02T11:17:07Z</time></trkpt><trkpt lat="44.86503119618779" lon="12.152677864818383"><ele>-1.0</ele><time>2026-05-02T11:17:09Z</time></trkpt><trkpt lat="44.86502068959597" lon="12.15280225606786"><ele>-1.0</ele><time>2026-05-02T11:17:11Z</time></trkpt><trkpt lat="44.864992252664365" lon="12.152923299178378"><ele>-1.0</ele><time>2026-05-02T11:17:13Z</time></trkpt><trkpt lat="44.864966839113194" lon="12.153043939967564"><ele>-0.9999999999999999</ele><time>2026-05-02T11:17:15Z</time></trkpt><trkpt lat="44.86494034494139" lon="12.15315657633463"><ele>-1.0</ele><time>2026-05-02T11:17:17Z</time></trkpt><trkpt lat="44.86491437932352" lon="12.153267497285286"><ele>-1.0</ele><time>2026-05-02T11:17:19Z</time></trkpt><trkpt lat="44.864881639522146" lon="12.153378583034055"><ele>-1.0</ele><time>2026-05-02T11:17:21Z</time></trkpt><trkpt lat="44.864853036879126" lon="12.153501011180982"><ele>-0.9999999999999999</ele><time>2026-05-02T11:17:23Z</time></trkpt><trkpt lat="44.86482585114099" lon="12.153619031196586"><ele>-1.0</ele><time>2026-05-02T11:17:25Z</time></trkpt><trkpt lat="44.864791864580056" lon="12.153728880106632"><ele>-1.5</ele><time>2026-05-02T11:17:27Z</time></trkpt><trkpt lat="44.86476485655952" lon="12.153837264411496"><ele>-2.0</ele><time>2026-05-02T11:17:29Z</time></trkpt><trkpt lat="44.86472674074213" lon="12.153948731468784"><ele>-2.5</ele><time>2026-05-02T11:17:31Z</time></trkpt><trkpt lat="44.864692677071794" lon="12.154062803001223"><ele>-3.0</ele><time>2026-05-02T11:17:33Z</time></trkpt><trkpt lat="44.86465817894971" lon="12.154169799634412"><ele>-3.4999999999999996</ele><time>2026-05-02T11:17:35Z</time></trkpt><trkpt lat="44.864624824601556" lon="12.154269629245285"><ele>-4.0</ele><time>2026-05-02T11:17:37Z</time></trkpt><trkpt lat="44.86459289710406" lon="12.154383025468762"><ele>-4.0</ele><time>2026-05-02T11:17:39Z</time></trkpt><trkpt lat="44.86455115720893" lon="12.154503572413418"><ele>-4.0</ele><time>2026-05-02T11:17:41Z</time></trkpt><trkpt lat="44.864509519342754" lon="12.15461875903485"><ele>-4.0</ele><time>2026-05-02T11:17:43Z</time></trkpt><trkpt lat="44.86446024786835" lon="12.154729195400124"><ele>-4.0</ele><time>2026-05-02T11:17:45Z</time></trkpt><trkpt lat="44.86441785572562" lon="12.154843908626086"><ele>-4.0</ele><time>2026-05-02T11:17:47Z</time></trkpt><trkpt lat="44.86437744794391" lon="12.154953618625067"><ele>-3.9999999999999996</ele><time>2026-05-02T11:17:49Z</time></trkpt><trkpt lat="44.86434671570687" lon="12.155068057548311"><ele>-4.0</ele><time>2026-05-02T11:17:51Z</time></trkpt><trkpt lat="44.86430825952457" lon="12.155163297185537"><ele>-4.0</ele><time>2026-05-02T11:17:53Z</time></trkpt><trkpt lat="44.864275420913785" lon="12.155261596257949"><ele>-4.0</ele><time>2026-05-02T11:17:55Z</time></trkpt><trkpt lat="44.8642399311154" lon="12.155375711344472"><ele>-3.9999999999999996</ele><time>2026-05-02T11:17:57Z</time></trkpt><trkpt lat="44.86420346207323" lon="12.155491847460569"><ele>-4.0</ele><time>2026-05-02T11:17:59Z</time></trkpt><trkpt lat="44.8641593695305" lon="12.155605764040807"><ele>-4.0</ele><time>2026-05-02T11:18:01Z</time></trkpt><trkpt lat="44.86411509001509" lon="12.155716998969131"><ele>-4.0</ele><time>2026-05-02T11:18:03Z</time></trkpt><trkpt lat="44.86408691969485" lon="12.155830886573076"><ele>-4.0</ele><time>2026-05-02T11:18:05Z</time></trkpt><trkpt lat="44.864043265874855" lon="12.155948627672522"><ele>-4.0</ele><time>2026-05-02T11:18:07Z</time></trkpt><trkpt lat="44.86399065991737" lon="12.156061084679608"><ele>-4.0</ele><time>2026-05-02T11:18:09Z</time></trkpt><trkpt lat="44.863946403471004" lon="12.15617642690538"><ele>-3.9999999999999996</ele><time>2026-05-02T11:18:11Z</time></trkpt><trkpt lat="44.86390345099413" lon="12.156283281596362"><ele>-4.0</ele><time>2026-05-02T11:18:13Z</time></trkpt><trkpt lat="44.863863373879" lon="12.156383106967262"><ele>-4.0</ele><time>2026-05-02T11:18:15Z</time></trkpt><trkpt lat="44.863823296439605" lon="12.156478447523613"><ele>-4.0</ele><time>2026-05-02T11:18:17Z</time></trkpt><trkpt lat="44.86378324302294" lon="12.156568465894363"><ele>-3.9999999999999996</ele><time>2026-05-02T11:18:19Z</time></trkpt><trkpt lat="44.86374591684632" lon="12.156665522268355"><ele>-4.0</ele><time>2026-05-02T11:18:21Z</time></trkpt><trkpt lat="44.863721647575275" lon="12.156761632712342"><ele>-3.9999999999999996</ele><time>2026-05-02T11:18:23Z</time></trkpt><trkpt lat="44.86370114595458" lon="12.156850416552302"><ele>-4.0</ele><time>2026-05-02T11:18:25Z</time></trkpt><trkpt lat="44.86367117150791" lon="12.156946490877562"><ele>-4.0</ele><time>2026-05-02T11:18:27Z</time></trkpt><trkpt lat="44.863646838029155" lon="12.157031338246425"><ele>-4.0</ele><time>2026-05-02T11:18:29Z</time></trkpt><trkpt lat="44.863617763052034" lon="12.157169637094064"><ele>-3.9999999999999996</ele><time>2026-05-02T11:18:32Z</time></trkpt><trkpt lat="44.86359643293386" lon="12.157264934975863"><ele>-4.0</ele><time>2026-05-02T11:18:34Z</time></trkpt><trkpt lat="44.863587959081215" lon="12.157375416108051"><ele>-3.4999999999999996</ele><time>2026-05-02T11:18:36Z</time></trkpt><trkpt lat="44.86358293056169" lon="12.157475416077185"><ele>-3.0</ele><time>2026-05-02T11:18:38Z</time></trkpt><trkpt lat="44.86358340804281" lon="12.157568391542876"><ele>-2.5</ele><time>2026-05-02T11:18:40Z</time></trkpt><trkpt lat="44.86358470792688" lon="12.157674928774382"><ele>-2.0</ele><time>2026-05-02T11:18:42Z</time></trkpt><trkpt lat="44.863583295230725" lon="12.15779509229899"><ele>-1.5</ele><time>2026-05-02T11:18:44Z</time></trkpt><trkpt lat="44.86359517391748" lon="12.157910213209336"><ele>-1.0</ele><time>2026-05-02T11:18:46Z</time></trkpt><trkpt lat="44.86361091372744" lon="12.158026499540785"><ele>-0.9999999999999999</ele><time>2026-05-02T11:18:48Z</time></trkpt><trkpt lat="44.863635215877295" lon="12.158124011598563"><ele>-1.0</ele><time>2026-05-02T11:18:50Z</time></trkpt><trkpt lat="44.86366199616993" lon="12.158238696576527"><ele>-1.0</ele><time>2026-05-02T11:18:53Z</time></trkpt><trkpt lat="44.863688029072286" lon="12.15834556644422"><ele>-1.0</ele><time>2026-05-02T11:18:55Z</time></trkpt><trkpt lat="44.86372097333679" lon="12.158452261493625"><ele>-0.9999999999999999</ele><time>2026-05-02T11:18:57Z</time></trkpt><trkpt lat="44.86374962558438" lon="12.158554743159865"><ele>-1.0</ele><time>2026-05-02T11:18:59Z</time></trkpt><trkpt lat="44.86377481363147" lon="12.158661909450077"><ele>-1.0</ele><time>2026-05-02T11:19:01Z</time></trkpt><trkpt lat="44.86380730622054" lon="12.15875205590271"><ele>-0.9999999999999999</ele><time>2026-05-02T11:19:03Z</time></trkpt><trkpt lat="44.863797261477295" lon="12.15884452003267"><ele>-1.0</ele><time>2026-05-02T11:19:06Z</time></trkpt><trkpt lat="44.863793232003" lon="12.158944884201691"><ele>-1.0</ele><time>2026-05-02T11:19:08Z</time></trkpt><trkpt lat="44.863758412711725" lon="12.159040230474684"><ele>-0.9999999999999999</ele><time>2026-05-02T11:19:10Z</time></trkpt><trkpt lat="44.86371846335144" lon="12.159140098600664"><ele>-1.0</ele><time>2026-05-02T11:19:12Z</time></trkpt><trkpt lat="44.863679052725914" lon="12.15923789221736"><ele>-1.0</ele><time>2026-05-02T11:19:14Z</time></trkpt><trkpt lat="44.86364390071044" lon="12.159331517422252"><ele>-0.9999999999999999</ele><time>2026-05-02T11:19:16Z</time></trkpt><trkpt lat="44.86360449825072" lon="12.159428869480577"><ele>-1.0</ele><time>2026-05-02T11:19:18Z</time></trkpt><trkpt lat="44.86356580514438" lon="12.159522298319885"><ele>-1.0</ele><time>2026-05-02T11:19:20Z</time></trkpt><trkpt lat="44.8635429108174" lon="12.159606539999857"><ele>-1.0</ele><time>2026-05-02T11:19:22Z</time></trkpt><trkpt lat="44.8635767690776" lon="12.159693254624628"><ele>-0.9999999999999999</ele><time>2026-05-02T11:19:24Z</time></trkpt><trkpt lat="44.86365213163279" lon="12.159731775041205"><ele>-1.0</ele><time>2026-05-02T11:19:26Z</time></trkpt><trkpt lat="44.863734929804714" lon="12.159787637181267"><ele>-0.9999999999999999</ele><time>2026-05-02T11:19:29Z</time></trkpt><trkpt lat="44.86380754003314" lon="12.159836293989764"><ele>-1.0</ele><time>2026-05-02T11:19:31Z</time></trkpt><trkpt lat="44.86388353856569" lon="12.159895132952755"><ele>-1.0</ele><time>2026-05-02T11:19:33Z</time></trkpt><trkpt lat="44.86395243556928" lon="12.159944281230464"><ele>-1.0</ele><time>2026-05-02T11:19:35Z</time></trkpt><trkpt lat="44.864014415426496" lon="12.159989875895938"><ele>-0.9999999999999999</ele><time>2026-05-02T11:19:37Z</time></trkpt><trkpt lat="44.86408387344364" lon="12.160042537501292"><ele>-1.0</ele><time>2026-05-02T11:19:39Z</time></trkpt><trkpt lat="44.86414570280617" lon="12.16011262830503"><ele>-1.1666666666666665</ele><time>2026-05-02T11:19:41Z</time></trkpt><trkpt lat="44.86413947199272" lon="12.160239790937919"><ele>-1.3333333333333333</ele><time>2026-05-02T11:19:44Z</time></trkpt><trkpt lat="44.86410480548839" lon="12.160354364844475"><ele>-1.5</ele><time>2026-05-02T11:19:47Z</time></trkpt><trkpt lat="44.86406455990961" lon="12.160472680204137"><ele>-1.6666666666666665</ele><time>2026-05-02T11:19:50Z</time></trkpt><trkpt lat="44.864033095255245" lon="12.16055864372195"><ele>-1.8333333333333333</ele><time>2026-05-02T11:19:52Z</time></trkpt><trkpt lat="44.86399585160087" lon="12.160675846345244"><ele>-2.0</ele><time>2026-05-02T11:19:55Z</time></trkpt><trkpt lat="44.86396784786788" lon="12.16076288322127"><ele>-1.9999999999999998</ele><time>2026-05-02T11:19:57Z</time></trkpt><trkpt lat="44.86394070836748" lon="12.160853928705228"><ele>-2.0</ele><time>2026-05-02T11:19:59Z</time></trkpt><trkpt lat="44.8639170709924" lon="12.160956474526664"><ele>-2.0</ele><time>2026-05-02T11:20:02Z</time></trkpt><trkpt lat="44.86390534429131" lon="12.161072028011388"><ele>-2.0</ele><time>2026-05-02T11:20:05Z</time></trkpt><trkpt lat="44.86390057388791" lon="12.161170306792451"><ele>-1.9999999999999998</ele><time>2026-05-02T11:20:07Z</time></trkpt><trkpt lat="44.86390812528168" lon="12.161290448253295"><ele>-2.0</ele><time>2026-05-02T11:20:10Z</time></trkpt><trkpt lat="44.86392480999656" lon="12.161418541734026"><ele>-1.9999999999999998</ele><time>2026-05-02T11:20:13Z</time></trkpt><trkpt lat="44.86395277308926" lon="12.16155499993303"><ele>-2.0</ele><time>2026-05-02T11:20:16Z</time></trkpt><trkpt lat="44.863975387181505" lon="12.161651370155973"><ele>-2.0</ele><time>2026-05-02T11:20:18Z</time></trkpt><trkpt lat="44.864000251831534" lon="12.161736731600683"><ele>-2.0</ele><time>2026-05-02T11:20:20Z</time></trkpt><trkpt lat="44.86404125284398" lon="12.161849602863562"><ele>-1.9999999999999998</ele><time>2026-05-02T11:20:23Z</time></trkpt><trkpt lat="44.86407303776523" lon="12.161947749997678"><ele>-2.0</ele><time>2026-05-02T11:20:25Z</time></trkpt><trkpt lat="44.86409944467781" lon="12.162059106276985"><ele>-2.0</ele><time>2026-05-02T11:20:27Z</time></trkpt><trkpt lat="44.86411279629721" lon="12.16215842504676"><ele>-1.9999999999999998</ele><time>2026-05-02T11:20:29Z</time></trkpt><trkpt lat="44.864112670449174" lon="12.162262341230768"><ele>-2.0</ele><time>2026-05-02T11:20:31Z</time></trkpt><trkpt lat="44.864099536920904" lon="12.162362911152375"><ele>-2.0</ele><time>2026-05-02T11:20:33Z</time></trkpt><trkpt lat="44.86407863576653" lon="12.16245254715948"><ele>-1.9999999999999998</ele><time>2026-05-02T11:20:35Z</time></trkpt><trkpt lat="44.864047612272245" lon="12.162557211703183"><ele>-2.0</ele><time>2026-05-02T11:20:37Z</time></trkpt><trkpt lat="44.8640188349718" lon="12.162646752496661"><ele>-2.0</ele><time>2026-05-02T11:20:39Z</time></trkpt><trkpt lat="44.863981931765544" lon="12.162754811954775"><ele>-2.1666666666666665</ele><time>2026-05-02T11:20:42Z</time></trkpt><trkpt lat="44.863948030820445" lon="12.162846946589745"><ele>-2.333333333333333</ele><time>2026-05-02T11:20:44Z</time></trkpt><trkpt lat="44.86391172757927" lon="12.162954669139175"><ele>-2.5</ele><time>2026-05-02T11:20:46Z</time></trkpt><trkpt lat="44.863897693910815" lon="12.163050898942902"><ele>-2.6666666666666665</ele><time>2026-05-02T11:20:48Z</time></trkpt><trkpt lat="44.86391781401071" lon="12.1631541284433"><ele>-2.8333333333333335</ele><time>2026-05-02T11:20:50Z</time></trkpt><trkpt lat="44.863947988976214" lon="12.163265352658426"><ele>-3.0</ele><time>2026-05-02T11:20:52Z</time></trkpt><trkpt lat="44.86394834890037" lon="12.163372850400368"><ele>-3.0</ele><time>2026-05-02T11:20:54Z</time></trkpt><trkpt lat="44.86393694783894" lon="12.163488365795057"><ele>-3.0</ele><time>2026-05-02T11:20:56Z</time></trkpt><trkpt lat="44.863907496769016" lon="12.163605373596921"><ele>-3.0</ele><time>2026-05-02T11:20:58Z</time></trkpt><trkpt lat="44.86389972280439" lon="12.16371586445374"><ele>-3.0</ele><time>2026-05-02T11:21:00Z</time></trkpt><trkpt lat="44.8638803568144" lon="12.16382980749432"><ele>-3.0</ele><time>2026-05-02T11:21:02Z</time></trkpt><trkpt lat="44.86386827216388" lon="12.163937321220663"><ele>-3.0</ele><time>2026-05-02T11:21:04Z</time></trkpt><trkpt lat="44.86385205595503" lon="12.16403888497397"><ele>-3.1666666666666665</ele><time>2026-05-02T11:21:06Z</time></trkpt><trkpt lat="44.86383847044399" lon="12.164131798181407"><ele>-3.333333333333333</ele><time>2026-05-02T11:21:08Z</time></trkpt><trkpt lat="44.863875778392945" lon="12.164228010991879"><ele>-3.5</ele><time>2026-05-02T11:21:11Z</time></trkpt><trkpt lat="44.863963315542684" lon="12.164242306168655"><ele>-3.6666666666666665</ele><time>2026-05-02T11:21:14Z</time></trkpt><trkpt lat="44.864031750575144" lon="12.164280795923611"><ele>-3.833333333333333</ele><time>2026-05-02T11:21:16Z</time></trkpt><trkpt lat="44.864129537641" lon="12.164320574863966"><ele>-4.0</ele><time>2026-05-02T11:21:19Z</time></trkpt><trkpt lat="44.864212706922615" lon="12.164357102969328"><ele>-3.6666666666666665</ele><time>2026-05-02T11:21:21Z</time></trkpt><trkpt lat="44.86428546708688" lon="12.164392195185306"><ele>-3.333333333333333</ele><time>2026-05-02T11:21:23Z</time></trkpt><trkpt lat="44.864351191408524" lon="12.164422301647647"><ele>-3.0</ele><time>2026-05-02T11:21:25Z</time></trkpt><trkpt lat="44.86442608942682" lon="12.164453490583732"><ele>-2.6666666666666665</ele><time>2026-05-02T11:21:27Z</time></trkpt><trkpt lat="44.86451253290339" lon="12.164492672787835"><ele>-2.333333333333333</ele><time>2026-05-02T11:21:29Z</time></trkpt><trkpt lat="44.86458854292437" lon="12.164523390593658"><ele>-2.0</ele><time>2026-05-02T11:21:31Z</time></trkpt><trkpt lat="44.86465957610089" lon="12.164552746944544"><ele>-2.0</ele><time>2026-05-02T11:21:33Z</time></trkpt><trkpt lat="44.86471696242771" lon="12.164602087481711"><ele>-1.9999999999999998</ele><time>2026-05-02T11:21:35Z</time></trkpt><trkpt lat="44.86475747712581" lon="12.164691545702654"><ele>-2.0</ele><time>2026-05-02T11:21:37Z</time></trkpt><trkpt lat="44.86475871369047" lon="12.164787105933549"><ele>-2.0</ele><time>2026-05-02T11:21:39Z</time></trkpt><trkpt lat="44.86472780182191" lon="12.164917972998412"><ele>-1.9999999999999998</ele><time>2026-05-02T11:21:42Z</time></trkpt><trkpt lat="44.864712243700424" lon="12.165017193810733"><ele>-2.0</ele><time>2026-05-02T11:21:44Z</time></trkpt><trkpt lat="44.864701587374455" lon="12.16511141718677"><ele>-2.0</ele><time>2026-05-02T11:21:46Z</time></trkpt><trkpt lat="44.86468302397547" lon="12.165216831528872"><ele>-2.142857142857143</ele><time>2026-05-02T11:21:48Z</time></trkpt><trkpt lat="44.86467213501383" lon="12.165329113126573"><ele>-2.2857142857142856</ele><time>2026-05-02T11:21:50Z</time></trkpt><trkpt lat="44.86466184098591" lon="12.165426650794277"><ele>-2.4285714285714284</ele><time>2026-05-02T11:21:52Z</time></trkpt><trkpt lat="44.86465132010963" lon="12.165533991191273"><ele>-2.571428571428571</ele><time>2026-05-02T11:21:54Z</time></trkpt><trkpt lat="44.86464473556482" lon="12.165626138860722"><ele>-2.7142857142857144</ele><time>2026-05-02T11:21:56Z</time></trkpt><trkpt lat="44.864630101480294" lon="12.165715274048086"><ele>-2.8571428571428568</ele><time>2026-05-02T11:21:58Z</time></trkpt><trkpt lat="44.864611313190714" lon="12.165812213258594"><ele>-3.0</ele><time>2026-05-02T11:22:00Z</time></trkpt><trkpt lat="44.86459533150032" lon="12.165906507264975"><ele>-2.6666666666666665</ele><time>2026-05-02T11:22:02Z</time></trkpt><trkpt lat="44.864584903453064" lon="12.166010670896725"><ele>-2.3333333333333335</ele><time>2026-05-02T11:22:04Z</time></trkpt><trkpt lat="44.8645674166778" lon="12.166124999907725"><ele>-2.0</ele><time>2026-05-02T11:22:06Z</time></trkpt><trkpt lat="44.864550388428654" lon="12.166230108736848"><ele>-1.6666666666666665</ele><time>2026-05-02T11:22:08Z</time></trkpt><trkpt lat="44.864535519397464" lon="12.166334045449565"><ele>-1.3333333333333333</ele><time>2026-05-02T11:22:10Z</time></trkpt><trkpt lat="44.86451307352981" lon="12.166450148883724"><ele>-1.0</ele><time>2026-05-02T11:22:12Z</time></trkpt><trkpt lat="44.86449502635977" lon="12.166581221478323"><ele>-0.9999999999999999</ele><time>2026-05-02T11:22:14Z</time></trkpt><trkpt lat="44.864475750985534" lon="12.166700423125441"><ele>-1.0</ele><time>2026-05-02T11:22:16Z</time></trkpt><trkpt lat="44.864460963639104" lon="12.166809864693308"><ele>-1.0</ele><time>2026-05-02T11:22:18Z</time></trkpt><trkpt lat="44.864445000232166" lon="12.166906453325609"><ele>-1.0</ele><time>2026-05-02T11:22:20Z</time></trkpt><trkpt lat="44.86443350541708" lon="12.167005021632118"><ele>-0.9999999999999999</ele><time>2026-05-02T11:22:22Z</time></trkpt><trkpt lat="44.86441561465951" lon="12.167118426052397"><ele>-1.0</ele><time>2026-05-02T11:22:24Z</time></trkpt><trkpt lat="44.864397027995466" lon="12.167222682528658"><ele>-1.0</ele><time>2026-05-02T11:22:26Z</time></trkpt><trkpt lat="44.864378735689805" lon="12.167332277155767"><ele>-0.9999999999999999</ele><time>2026-05-02T11:22:28Z</time></trkpt><trkpt lat="44.86436389316559" lon="12.167436588873661"><ele>-1.0</ele><time>2026-05-02T11:22:30Z</time></trkpt><trkpt lat="44.864354238452805" lon="12.167530210169566"><ele>-1.0</ele><time>2026-05-02T11:22:32Z</time></trkpt><trkpt lat="44.86434005534273" lon="12.167618572177687"><ele>-0.9999999999999999</ele><time>2026-05-02T11:22:35Z</time></trkpt><trkpt lat="44.86437838271786" lon="12.167690144203828"><ele>-1.0</ele><time>2026-05-02T11:22:38Z</time></trkpt><trkpt lat="44.86445127124138" lon="12.167697514434225"><ele>-1.0</ele><time>2026-05-02T11:22:40Z</time></trkpt><trkpt lat="44.864531617564346" lon="12.167725047922806"><ele>-0.9999999999999999</ele><time>2026-05-02T11:22:42Z</time></trkpt><trkpt lat="44.86461529950972" lon="12.167749643864834"><ele>-1.0</ele><time>2026-05-02T11:22:44Z</time></trkpt><trkpt lat="44.8647015121151" lon="12.167780238554021"><ele>-1.0</ele><time>2026-05-02T11:22:46Z</time></trkpt><trkpt lat="44.86479223328998" lon="12.167805225120487"><ele>-1.0</ele><time>2026-05-02T11:22:48Z</time></trkpt><trkpt lat="44.86488284655726" lon="12.167827419371656"><ele>-0.9999999999999999</ele><time>2026-05-02T11:22:50Z</time></trkpt><trkpt lat="44.86496758351964" lon="12.167850606561327"><ele>-1.0</ele><time>2026-05-02T11:22:52Z</time></trkpt><trkpt lat="44.8650555805882" lon="12.167879527966553"><ele>-0.8333333333333333</ele><time>2026-05-02T11:22:54Z</time></trkpt><trkpt lat="44.86514952992355" lon="12.167906929623438"><ele>-0.6666666666666666</ele><time>2026-05-02T11:22:56Z</time></trkpt><trkpt lat="44.86524441657672" lon="12.167920602771664"><ele>-0.5</ele><time>2026-05-02T11:22:58Z</time></trkpt><trkpt lat="44.86532864218281" lon="12.167945742890538"><ele>-0.3333333333333333</ele><time>2026-05-02T11:23:00Z</time></trkpt><trkpt lat="44.86540823833993" lon="12.167973586511527"><ele>-0.16666666666666666</ele><time>2026-05-02T11:23:02Z</time></trkpt><trkpt lat="44.86548782622993" lon="12.167991549035701"><ele>0.0</ele><time>2026-05-02T11:23:04Z</time></trkpt><trkpt lat="44.86556476784252" lon="12.168017041151344"><ele>0.0</ele><time>2026-05-02T11:23:06Z</time></trkpt><trkpt lat="44.865653905887754" lon="12.168032239458098"><ele>0.0</ele><time>2026-05-02T11:23:08Z</time></trkpt><trkpt lat="44.86574841570027" lon="12.168054564022492"><ele>0.0</ele><time>2026-05-02T11:23:10Z</time></trkpt><trkpt lat="44.86583962535053" lon="12.168073971099895"><ele>0.0</ele><time>2026-05-02T11:23:12Z</time></trkpt><trkpt lat="44.86592459408366" lon="12.16809425680359"><ele>0.0</ele><time>2026-05-02T11:23:14Z</time></trkpt><trkpt lat="44.86599880267539" lon="12.168124832501938"><ele>0.0</ele><time>2026-05-02T11:23:16Z</time></trkpt><trkpt lat="44.8660768748443" lon="12.168149773308341"><ele>-0.16666666666666666</ele><time>2026-05-02T11:23:18Z</time></trkpt><trkpt lat="44.86616350766915" lon="12.168165126856904"><ele>-0.3333333333333333</ele><time>2026-05-02T11:23:20Z</time></trkpt><trkpt lat="44.866255609748286" lon="12.168178939448948"><ele>-0.5</ele><time>2026-05-02T11:23:22Z</time></trkpt><trkpt lat="44.866331785792255" lon="12.168193767280101"><ele>-0.6666666666666666</ele><time>2026-05-02T11:23:24Z</time></trkpt><trkpt lat="44.86641578837102" lon="12.168216412762428"><ele>-0.8333333333333333</ele><time>2026-05-02T11:23:26Z</time></trkpt><trkpt lat="44.86649694682971" lon="12.168234742993175"><ele>-1.0</ele><time>2026-05-02T11:23:28Z</time></trkpt><trkpt lat="44.86658647105054" lon="12.168255134760443"><ele>-0.9999999999999999</ele><time>2026-05-02T11:23:30Z</time></trkpt><trkpt lat="44.86667015993186" lon="12.168274173456242"><ele>-1.0</ele><time>2026-05-02T11:23:32Z</time></trkpt><trkpt lat="44.86674954332025" lon="12.168294649378105"><ele>-1.0</ele><time>2026-05-02T11:23:34Z</time></trkpt><trkpt lat="44.86682890864664" lon="12.168315469158964"><ele>-1.0</ele><time>2026-05-02T11:23:36Z</time></trkpt><trkpt lat="44.866923642860144" lon="12.168335346637658"><ele>-0.9999999999999999</ele><time>2026-05-02T11:23:38Z</time></trkpt><trkpt lat="44.867015200905726" lon="12.168356930108605"><ele>-1.0</ele><time>2026-05-02T11:23:40Z</time></trkpt><trkpt lat="44.86710391418367" lon="12.168379484872137"><ele>-0.8333333333333333</ele><time>2026-05-02T11:23:42Z</time></trkpt><trkpt lat="44.8671910005787" lon="12.16839405329596"><ele>-0.6666666666666666</ele><time>2026-05-02T11:23:44Z</time></trkpt><trkpt lat="44.86727104560933" lon="12.168411038702741"><ele>-0.5</ele><time>2026-05-02T11:23:46Z</time></trkpt><trkpt lat="44.86735172974591" lon="12.168427781014808"><ele>-0.3333333333333333</ele><time>2026-05-02T11:23:48Z</time></trkpt><trkpt lat="44.867444515402894" lon="12.16844521366179"><ele>-0.16666666666666666</ele><time>2026-05-02T11:23:50Z</time></trkpt><trkpt lat="44.86753875323609" lon="12.168467308360846"><ele>0.0</ele><time>2026-05-02T11:23:52Z</time></trkpt><trkpt lat="44.8676241439156" lon="12.168478598319462"><ele>0.16666666666666666</ele><time>2026-05-02T11:23:54Z</time></trkpt><trkpt lat="44.86770323812058" lon="12.16850374716278"><ele>0.3333333333333333</ele><time>2026-05-02T11:23:56Z</time></trkpt><trkpt lat="44.867786020602146" lon="12.168517437970895"><ele>0.5</ele><time>2026-05-02T11:23:58Z</time></trkpt><trkpt lat="44.8678735043933" lon="12.168538175610122"><ele>0.6666666666666666</ele><time>2026-05-02T11:24:00Z</time></trkpt><trkpt lat="44.8679599633997" lon="12.168562123725657"><ele>0.8333333333333333</ele><time>2026-05-02T11:24:02Z</time></trkpt><trkpt lat="44.86805433140795" lon="12.168562545442839"><ele>1.0</ele><time>2026-05-02T11:24:04Z</time></trkpt><trkpt lat="44.86814068381091" lon="12.16857601495041"><ele>0.9999999999999999</ele><time>2026-05-02T11:24:06Z</time></trkpt><trkpt lat="44.868229844842475" lon="12.168603126647998"><ele>1.0</ele><time>2026-05-02T11:24:08Z</time></trkpt><trkpt lat="44.86831705067392" lon="12.168618555014026"><ele>1.0</ele><time>2026-05-02T11:24:10Z</time></trkpt><trkpt lat="44.868399110239736" lon="12.168636318147001"><ele>1.0</ele><time>2026-05-02T11:24:12Z</time></trkpt><trkpt lat="44.868484163632054" lon="12.168647815101197"><ele>0.9999999999999999</ele><time>2026-05-02T11:24:14Z</time></trkpt><trkpt lat="44.86858088944567" lon="12.168663086266337"><ele>1.0</ele><time>2026-05-02T11:24:16Z</time></trkpt><trkpt lat="44.86867475674242" lon="12.168673209231663"><ele>0.8333333333333333</ele><time>2026-05-02T11:24:18Z</time></trkpt><trkpt lat="44.86876555018055" lon="12.168676728068883"><ele>0.6666666666666666</ele><time>2026-05-02T11:24:20Z</time></trkpt><trkpt lat="44.868856005248674" lon="12.16868518604057"><ele>0.5</ele><time>2026-05-02T11:24:22Z</time></trkpt><trkpt lat="44.86894285775062" lon="12.168694745046938"><ele>0.3333333333333333</ele><time>2026-05-02T11:24:24Z</time></trkpt><trkpt lat="44.86902503384062" lon="12.168693865977126"><ele>0.16666666666666666</ele><time>2026-05-02T11:24:26Z</time></trkpt><trkpt lat="44.86911644324474" lon="12.16870099949762"><ele>0.0</ele><time>2026-05-02T11:24:28Z</time></trkpt><trkpt lat="44.86920268001631" lon="12.168709407832178"><ele>-0.3333333333333333</ele><time>2026-05-02T11:24:30Z</time></trkpt><trkpt lat="44.86928127482108" lon="12.168714457782041"><ele>-0.6666666666666666</ele><time>2026-05-02T11:24:32Z</time></trkpt><trkpt lat="44.86936220692624" lon="12.168725481621166"><ele>-1.0</ele><time>2026-05-02T11:24:34Z</time></trkpt><trkpt lat="44.86944540706326" lon="12.168738893473408"><ele>-1.3333333333333333</ele><time>2026-05-02T11:24:36Z</time></trkpt><trkpt lat="44.86953405722569" lon="12.168759768394672"><ele>-1.6666666666666665</ele><time>2026-05-02T11:24:38Z</time></trkpt><trkpt lat="44.869625594619656" lon="12.168785178663642"><ele>-2.0</ele><time>2026-05-02T11:24:40Z</time></trkpt><trkpt lat="44.869719643176325" lon="12.168801221635382"><ele>-1.9999999999999998</ele><time>2026-05-02T11:24:42Z</time></trkpt><trkpt lat="44.86980657644634" lon="12.168821064448336"><ele>-2.0</ele><time>2026-05-02T11:24:44Z</time></trkpt><trkpt lat="44.86988990301021" lon="12.168839480600873"><ele>-2.0</ele><time>2026-05-02T11:24:46Z</time></trkpt><trkpt lat="44.86997078074684" lon="12.16885991128678"><ele>-2.0</ele><time>2026-05-02T11:24:48Z</time></trkpt><trkpt lat="44.87005901313609" lon="12.16888737641152"><ele>-1.9999999999999998</ele><time>2026-05-02T11:24:50Z</time></trkpt><trkpt lat="44.87014941200281" lon="12.168913453214792"><ele>-2.0</ele><time>2026-05-02T11:24:52Z</time></trkpt><trkpt lat="44.870237543453875" lon="12.168933917140984"><ele>-2.0</ele><time>2026-05-02T11:24:54Z</time></trkpt><trkpt lat="44.87032443709505" lon="12.168946802066678"><ele>-2.0</ele><time>2026-05-02T11:24:56Z</time></trkpt><trkpt lat="44.870412944357504" lon="12.168979465535994"><ele>-2.0</ele><time>2026-05-02T11:24:58Z</time></trkpt><trkpt lat="44.87050777384916" lon="12.169000308226924"><ele>-2.0</ele><time>2026-05-02T11:25:00Z</time></trkpt><trkpt lat="44.87059949968802" lon="12.169025296696253"><ele>-2.0</ele><time>2026-05-02T11:25:02Z</time></trkpt><trkpt lat="44.87069438083625" lon="12.169051068045148"><ele>-1.8</ele><time>2026-05-02T11:25:04Z</time></trkpt><trkpt lat="44.87078893346925" lon="12.169072048737192"><ele>-1.6</ele><time>2026-05-02T11:25:06Z</time></trkpt><trkpt lat="44.870878050457215" lon="12.169098588249877"><ele>-1.4000000000000001</ele><time>2026-05-02T11:25:08Z</time></trkpt><trkpt lat="44.87096593112461" lon="12.169131749566636"><ele>-1.2000000000000002</ele><time>2026-05-02T11:25:10Z</time></trkpt><trkpt lat="44.87105994312319" lon="12.169147872905524"><ele>-1.0</ele><time>2026-05-02T11:25:12Z</time></trkpt><trkpt lat="44.871148603507535" lon="12.169173629159468"><ele>-0.9999999999999999</ele><time>2026-05-02T11:25:14Z</time></trkpt><trkpt lat="44.871228299350186" lon="12.169191761211904"><ele>-1.0</ele><time>2026-05-02T11:25:16Z</time></trkpt><trkpt lat="44.87130986774477" lon="12.169217960295718"><ele>-1.0</ele><time>2026-05-02T11:25:18Z</time></trkpt><trkpt lat="44.87138515882668" lon="12.169238027618835"><ele>-1.0</ele><time>2026-05-02T11:25:20Z</time></trkpt><trkpt lat="44.8714735953262" lon="12.169268712060177"><ele>-0.9999999999999999</ele><time>2026-05-02T11:25:22Z</time></trkpt><trkpt lat="44.87156967994419" lon="12.169285641570864"><ele>-1.0</ele><time>2026-05-02T11:25:24Z</time></trkpt><trkpt lat="44.87166346870092" lon="12.16930918731435"><ele>-0.9999999999999999</ele><time>2026-05-02T11:25:26Z</time></trkpt><trkpt lat="44.87175351104007" lon="12.169331626423002"><ele>-1.0</ele><time>2026-05-02T11:25:28Z</time></trkpt><trkpt lat="44.87184616756992" lon="12.169352554855678"><ele>-1.0</ele><time>2026-05-02T11:25:30Z</time></trkpt><trkpt lat="44.87192836345057" lon="12.169375169226129"><ele>-1.0</ele><time>2026-05-02T11:25:32Z</time></trkpt><trkpt lat="44.872008234515434" lon="12.169394809437165"><ele>-0.9999999999999999</ele><time>2026-05-02T11:25:34Z</time></trkpt><trkpt lat="44.87208117195888" lon="12.16942102968868"><ele>-1.0</ele><time>2026-05-02T11:25:36Z</time></trkpt><trkpt lat="44.87216463784249" lon="12.169441482580089"><ele>-1.0</ele><time>2026-05-02T11:25:38Z</time></trkpt><trkpt lat="44.87225679340603" lon="12.169472045220038"><ele>-1.0</ele><time>2026-05-02T11:25:40Z</time></trkpt><trkpt lat="44.87234626738827" lon="12.16949297962476"><ele>-1.0</ele><time>2026-05-02T11:25:42Z</time></trkpt><trkpt lat="44.872437145591505" lon="12.169520384058789"><ele>-1.0</ele><time>2026-05-02T11:25:44Z</time></trkpt><trkpt lat="44.872527921300126" lon="12.169549674109733"><ele>-1.0</ele><time>2026-05-02T11:25:46Z</time></trkpt><trkpt lat="44.872617949083555" lon="12.169570586464344"><ele>-0.8333333333333333</ele><time>2026-05-02T11:25:48Z</time></trkpt><trkpt lat="44.87270434869503" lon="12.16960028561714"><ele>-0.6666666666666666</ele><time>2026-05-02T11:25:50Z</time></trkpt><trkpt lat="44.8727871598545" lon="12.169627073389028"><ele>-0.5</ele><time>2026-05-02T11:25:52Z</time></trkpt><trkpt lat="44.87286710099134" lon="12.16964707901684"><ele>-0.3333333333333333</ele><time>2026-05-02T11:25:54Z</time></trkpt><trkpt lat="44.87295523473209" lon="12.169678557704232"><ele>-0.16666666666666666</ele><time>2026-05-02T11:25:56Z</time></trkpt><trkpt lat="44.873049025294996" lon="12.169700518879457"><ele>0.0</ele><time>2026-05-02T11:25:58Z</time></trkpt><trkpt lat="44.87313774623182" lon="12.169718309452605"><ele>0.0</ele><time>2026-05-02T11:26:00Z</time></trkpt><trkpt lat="44.87321690539361" lon="12.169750149986871"><ele>0.0</ele><time>2026-05-02T11:26:02Z</time></trkpt><trkpt lat="44.873294952954545" lon="12.169777111826267"><ele>0.0</ele><time>2026-05-02T11:26:04Z</time></trkpt><trkpt lat="44.87337584619224" lon="12.169808696225795"><ele>0.0</ele><time>2026-05-02T11:26:06Z</time></trkpt><trkpt lat="44.87345582494102" lon="12.169833686179095"><ele>0.0</ele><time>2026-05-02T11:26:08Z</time></trkpt><trkpt lat="44.87352760276337" lon="12.16986080109088"><ele>0.0</ele><time>2026-05-02T11:26:10Z</time></trkpt><trkpt lat="44.87360384270128" lon="12.169887852392856"><ele>0.16666666666666666</ele><time>2026-05-02T11:26:12Z</time></trkpt><trkpt lat="44.87369100630286" lon="12.169932145684234"><ele>0.3333333333333333</ele><time>2026-05-02T11:26:14Z</time></trkpt><trkpt lat="44.87377645667692" lon="12.16996067819591"><ele>0.5</ele><time>2026-05-02T11:26:16Z</time></trkpt><trkpt lat="44.87385834678594" lon="12.169993176520714"><ele>0.6666666666666666</ele><time>2026-05-02T11:26:18Z</time></trkpt><trkpt lat="44.873941352184616" lon="12.170018775053828"><ele>0.8333333333333333</ele><time>2026-05-02T11:26:20Z</time></trkpt><trkpt lat="44.874023345016404" lon="12.170044861426945"><ele>1.0</ele><time>2026-05-02T11:26:22Z</time></trkpt><trkpt lat="44.874107429132465" lon="12.170078125180941"><ele>0.9999999999999999</ele><time>2026-05-02T11:26:24Z</time></trkpt><trkpt lat="44.874179430022146" lon="12.170144748899096"><ele>1.0</ele><time>2026-05-02T11:26:26Z</time></trkpt><trkpt lat="44.87418829674351" lon="12.17023529568342"><ele>1.0</ele><time>2026-05-02T11:26:28Z</time></trkpt><trkpt lat="44.87415718608503" lon="12.170316586955565"><ele>1.0</ele><time>2026-05-02T11:26:30Z</time></trkpt><trkpt lat="44.87412944623496" lon="12.170409867907074"><ele>0.9999999999999999</ele><time>2026-05-02T11:26:32Z</time></trkpt><trkpt lat="44.874097922317624" lon="12.170527070261796"><ele>1.0</ele><time>2026-05-02T11:26:35Z</time></trkpt><trkpt lat="44.8740864091393" lon="12.170669631137613"><ele>0.9999999999999999</ele><time>2026-05-02T11:26:38Z</time></trkpt><trkpt lat="44.87409377135805" lon="12.170786153379185"><ele>1.0</ele><time>2026-05-02T11:26:40Z</time></trkpt><trkpt lat="44.874098336624286" lon="12.170897473420753"><ele>1.0</ele><time>2026-05-02T11:26:42Z</time></trkpt><trkpt lat="44.87409465912122" lon="12.17100693565997"><ele>1.0</ele><time>2026-05-02T11:26:44Z</time></trkpt><trkpt lat="44.87409489683522" lon="12.171110919952532"><ele>0.9999999999999999</ele><time>2026-05-02T11:26:46Z</time></trkpt><trkpt lat="44.87409833425426" lon="12.171220183128193"><ele>1.0</ele><time>2026-05-02T11:26:48Z</time></trkpt><trkpt lat="44.87409259383069" lon="12.171325688675232"><ele>1.0</ele><time>2026-05-02T11:26:50Z</time></trkpt><trkpt lat="44.874080762478336" lon="12.171452990830442"><ele>0.9999999999999999</ele><time>2026-05-02T11:26:53Z</time></trkpt><trkpt lat="44.87406775932003" lon="12.171541370515355"><ele>1.0</ele><time>2026-05-02T11:26:55Z</time></trkpt><trkpt lat="44.87406931827912" lon="12.171635418937122"><ele>1.0</ele><time>2026-05-02T11:26:57Z</time></trkpt><trkpt lat="44.8740729033304" lon="12.171734673504421"><ele>0.9999999999999999</ele><time>2026-05-02T11:27:00Z</time></trkpt><trkpt lat="44.8740652638126" lon="12.171830362008963"><ele>1.0</ele><time>2026-05-02T11:27:02Z</time></trkpt><trkpt lat="44.87404616939946" lon="12.171929108785802"><ele>1.0</ele><time>2026-05-02T11:27:04Z</time></trkpt><trkpt lat="44.874025179375494" lon="12.172060860202402"><ele>0.8333333333333333</ele><time>2026-05-02T11:27:07Z</time></trkpt><trkpt lat="44.87401046463436" lon="12.172176528252782"><ele>0.6666666666666666</ele><time>2026-05-02T11:27:09Z</time></trkpt><trkpt lat="44.8739981424103" lon="12.172284843028695"><ele>0.5</ele><time>2026-05-02T11:27:11Z</time></trkpt><trkpt lat="44.87397565236296" lon="12.17240250152063"><ele>0.3333333333333333</ele><time>2026-05-02T11:27:13Z</time></trkpt><trkpt lat="44.873959333807626" lon="12.172522074780142"><ele>0.16666666666666666</ele><time>2026-05-02T11:27:15Z</time></trkpt><trkpt lat="44.87394761980146" lon="12.172635184740864"><ele>0.0</ele><time>2026-05-02T11:27:17Z</time></trkpt><trkpt lat="44.87392533066867" lon="12.172755875358972"><ele>-0.3333333333333333</ele><time>2026-05-02T11:27:20Z</time></trkpt><trkpt lat="44.87390963606554" lon="12.1728644340448"><ele>-0.6666666666666666</ele><time>2026-05-02T11:27:22Z</time></trkpt><trkpt lat="44.87389847786644" lon="12.172987519318502"><ele>-1.0</ele><time>2026-05-02T11:27:24Z</time></trkpt><trkpt lat="44.873885708917506" lon="12.173095120169338"><ele>-1.3333333333333333</ele><time>2026-05-02T11:27:26Z</time></trkpt><trkpt lat="44.87386934721776" lon="12.173197098375594"><ele>-1.6666666666666665</ele><time>2026-05-02T11:27:28Z</time></trkpt><trkpt lat="44.87385276478343" lon="12.173300138111717"><ele>-2.0</ele><time>2026-05-02T11:27:30Z</time></trkpt><trkpt lat="44.8738368244569" lon="12.173439856506254"><ele>-1.9999999999999998</ele><time>2026-05-02T11:27:33Z</time></trkpt><trkpt lat="44.87382253576398" lon="12.173543078087034"><ele>-2.0</ele><time>2026-05-02T11:27:35Z</time></trkpt><trkpt lat="44.87380512856365" lon="12.17363668285787"><ele>-2.0</ele><time>2026-05-02T11:27:37Z</time></trkpt><trkpt lat="44.87379690785641" lon="12.173734158377188"><ele>-2.0</ele><time>2026-05-02T11:27:39Z</time></trkpt><trkpt lat="44.87379326322109" lon="12.17385396091578"><ele>-1.9999999999999998</ele><time>2026-05-02T11:27:41Z</time></trkpt><trkpt lat="44.873786211185404" lon="12.173974004060408"><ele>-2.0</ele><time>2026-05-02T11:27:43Z</time></trkpt><trkpt lat="44.87376613296633" lon="12.17408699858419"><ele>-1.9999999999999998</ele><time>2026-05-02T11:27:45Z</time></trkpt><trkpt lat="44.873737818938594" lon="12.174200066566177"><ele>-2.0</ele><time>2026-05-02T11:27:47Z</time></trkpt><trkpt lat="44.87372023923478" lon="12.17429995979644"><ele>-2.0</ele><time>2026-05-02T11:27:49Z</time></trkpt><trkpt lat="44.87370720871141" lon="12.174394599168526"><ele>-2.0</ele><time>2026-05-02T11:27:51Z</time></trkpt><trkpt lat="44.87369218719972" lon="12.17448776161994"><ele>-1.9999999999999998</ele><time>2026-05-02T11:27:53Z</time></trkpt><trkpt lat="44.87367764391201" lon="12.17460018892185"><ele>-2.0</ele><time>2026-05-02T11:27:55Z</time></trkpt><trkpt lat="44.873666655192544" lon="12.174716453344573"><ele>-1.9999999999999998</ele><time>2026-05-02T11:27:57Z</time></trkpt><trkpt lat="44.873652090101224" lon="12.174822636394566"><ele>-2.0</ele><time>2026-05-02T11:27:59Z</time></trkpt><trkpt lat="44.87363624623528" lon="12.17492373160739"><ele>-2.0</ele><time>2026-05-02T11:28:01Z</time></trkpt><trkpt lat="44.87362390907441" lon="12.17503443759748"><ele>-2.0</ele><time>2026-05-02T11:28:03Z</time></trkpt><trkpt lat="44.87360509829602" lon="12.175153833639499"><ele>-1.9999999999999998</ele><time>2026-05-02T11:28:05Z</time></trkpt><trkpt lat="44.873594420321496" lon="12.175265208735732"><ele>-2.0</ele><time>2026-05-02T11:28:07Z</time></trkpt><trkpt lat="44.87357444446825" lon="12.175363896053682"><ele>-2.1666666666666665</ele><time>2026-05-02T11:28:09Z</time></trkpt><trkpt lat="44.87355876989543" lon="12.175497773398016"><ele>-2.333333333333333</ele><time>2026-05-02T11:28:12Z</time></trkpt><trkpt lat="44.87354142685871" lon="12.175596343444338"><ele>-2.5</ele><time>2026-05-02T11:28:14Z</time></trkpt><trkpt lat="44.8735183241815" lon="12.175695954902126"><ele>-2.6666666666666665</ele><time>2026-05-02T11:28:16Z</time></trkpt><trkpt lat="44.873506685312826" lon="12.175808163877438"><ele>-2.8333333333333335</ele><time>2026-05-02T11:28:18Z</time></trkpt><trkpt lat="44.87350061453856" lon="12.175923670892864"><ele>-3.0</ele><time>2026-05-02T11:28:20Z</time></trkpt><trkpt lat="44.873499411730634" lon="12.176027334968188"><ele>-3.0</ele><time>2026-05-02T11:28:22Z</time></trkpt><trkpt lat="44.8734910968111" lon="12.176143248167502"><ele>-3.0</ele><time>2026-05-02T11:28:25Z</time></trkpt><trkpt lat="44.87347431699919" lon="12.176244123675227"><ele>-3.0</ele><time>2026-05-02T11:28:27Z</time></trkpt><trkpt lat="44.87344737356535" lon="12.176361618188071"><ele>-3.0</ele><time>2026-05-02T11:28:29Z</time></trkpt><trkpt lat="44.87342470779847" lon="12.176475931490225"><ele>-3.0</ele><time>2026-05-02T11:28:31Z</time></trkpt><trkpt lat="44.8734023855523" lon="12.176597001894827"><ele>-3.0</ele><time>2026-05-02T11:28:33Z</time></trkpt><trkpt lat="44.8733910615885" lon="12.176713498705055"><ele>-2.9999999999999996</ele><time>2026-05-02T11:28:35Z</time></trkpt><trkpt lat="44.87338030933695" lon="12.176818105698047"><ele>-3.0</ele><time>2026-05-02T11:28:37Z</time></trkpt><trkpt lat="44.87336812943132" lon="12.176916104751282"><ele>-3.0</ele><time>2026-05-02T11:28:39Z</time></trkpt><trkpt lat="44.87335573831204" lon="12.177005492132714"><ele>-3.0</ele><time>2026-05-02T11:28:41Z</time></trkpt><trkpt lat="44.873335689166396" lon="12.177114643514008"><ele>-3.0</ele><time>2026-05-02T11:28:43Z</time></trkpt><trkpt lat="44.87331065352431" lon="12.17721655837797"><ele>-2.9999999999999996</ele><time>2026-05-02T11:28:45Z</time></trkpt><trkpt lat="44.873290285089546" lon="12.177309062861834"><ele>-3.0</ele><time>2026-05-02T11:28:47Z</time></trkpt><trkpt lat="44.87327221192106" lon="12.17741269472297"><ele>-2.8333333333333335</ele><time>2026-05-02T11:28:49Z</time></trkpt><trkpt lat="44.873253287807785" lon="12.177506059040734"><ele>-2.6666666666666665</ele><time>2026-05-02T11:28:51Z</time></trkpt><trkpt lat="44.873225471212955" lon="12.177626505680635"><ele>-2.5</ele><time>2026-05-02T11:28:54Z</time></trkpt><trkpt lat="44.87320444192888" lon="12.177754568892539"><ele>-2.333333333333333</ele><time>2026-05-02T11:28:57Z</time></trkpt><trkpt lat="44.87318577900091" lon="12.177855498148322"><ele>-2.1666666666666665</ele><time>2026-05-02T11:28:59Z</time></trkpt><trkpt lat="44.873168460782075" lon="12.1779776457119"><ele>-2.0</ele><time>2026-05-02T11:29:01Z</time></trkpt><trkpt lat="44.87316523750583" lon="12.17809968081632"><ele>-1.857142857142857</ele><time>2026-05-02T11:29:03Z</time></trkpt><trkpt lat="44.87317702378119" lon="12.17820952760841"><ele>-1.714285714285714</ele><time>2026-05-02T11:29:05Z</time></trkpt><trkpt lat="44.87318780516546" lon="12.178314911796045"><ele>-1.5714285714285714</ele><time>2026-05-02T11:29:07Z</time></trkpt><trkpt lat="44.873206869945676" lon="12.178424615821251"><ele>-1.4285714285714284</ele><time>2026-05-02T11:29:09Z</time></trkpt><trkpt lat="44.87322110699455" lon="12.178512946112926"><ele>-1.2857142857142856</ele><time>2026-05-02T11:29:11Z</time></trkpt><trkpt lat="44.873238112730554" lon="12.178628046287995"><ele>-1.1428571428571428</ele><time>2026-05-02T11:29:14Z</time></trkpt><trkpt lat="44.87323571389317" lon="12.178717108439528"><ele>-1.0</ele><time>2026-05-02T11:29:16Z</time></trkpt><trkpt lat="44.87323129120324" lon="12.178847721882645"><ele>-0.9999999999999999</ele><time>2026-05-02T11:29:19Z</time></trkpt><trkpt lat="44.87321081165308" lon="12.178945652223243"><ele>-1.0</ele><time>2026-05-02T11:29:21Z</time></trkpt><trkpt lat="44.87318907938729" lon="12.179064143838552"><ele>-1.0</ele><time>2026-05-02T11:29:24Z</time></trkpt><trkpt lat="44.87316949075099" lon="12.179160388222158"><ele>-1.0</ele><time>2026-05-02T11:29:26Z</time></trkpt><trkpt lat="44.873146095176565" lon="12.17927230758189"><ele>-0.9999999999999999</ele><time>2026-05-02T11:29:29Z</time></trkpt><trkpt lat="44.873106936473356" lon="12.179379330413846"><ele>-1.0</ele><time>2026-05-02T11:29:33Z</time></trkpt><trkpt lat="44.873085443970126" lon="12.179477714361628"><ele>-1.3333333333333333</ele><time>2026-05-02T11:29:35Z</time></trkpt><trkpt lat="44.87306678560088" lon="12.179574186845493"><ele>-1.6666666666666665</ele><time>2026-05-02T11:29:37Z</time></trkpt><trkpt lat="44.87304722725731" lon="12.179660216261356"><ele>-2.0</ele><time>2026-05-02T11:29:39Z</time></trkpt><trkpt lat="44.87302122989571" lon="12.179780876379287"><ele>-2.3333333333333335</ele><time>2026-05-02T11:29:42Z</time></trkpt><trkpt lat="44.8729971010288" lon="12.17989098594048"><ele>-2.6666666666666665</ele><time>2026-05-02T11:29:45Z</time></trkpt><trkpt lat="44.872964409759696" lon="12.180021074332828"><ele>-3.0</ele><time>2026-05-02T11:29:48Z</time></trkpt><trkpt lat="44.87294289246476" lon="12.180119024842812"><ele>-2.9999999999999996</ele><time>2026-05-02T11:29:50Z</time></trkpt><trkpt lat="44.87292481308728" lon="12.18020640161829"><ele>-3.0</ele><time>2026-05-02T11:29:52Z</time></trkpt><trkpt lat="44.87289432486653" lon="12.180339677770906"><ele>-3.0</ele><time>2026-05-02T11:29:55Z</time></trkpt><trkpt lat="44.87286770837858" lon="12.180449120243892"><ele>-3.0</ele><time>2026-05-02T11:29:57Z</time></trkpt><trkpt lat="44.87284843396341" lon="12.180545510900796"><ele>-3.0</ele><time>2026-05-02T11:29:59Z</time></trkpt><trkpt lat="44.87282579636091" lon="12.180633036952846"><ele>-2.9999999999999996</ele><time>2026-05-02T11:30:01Z</time></trkpt><trkpt lat="44.8728053220133" lon="12.180717660067021"><ele>-3.0</ele><time>2026-05-02T11:30:03Z</time></trkpt><trkpt lat="44.87278208696795" lon="12.180811468094085"><ele>-2.9999999999999996</ele><time>2026-05-02T11:30:05Z</time></trkpt><trkpt lat="44.87275949574206" lon="12.18090984245027"><ele>-3.0</ele><time>2026-05-02T11:30:07Z</time></trkpt><trkpt lat="44.87273959517473" lon="12.180996340521217"><ele>-3.0</ele><time>2026-05-02T11:30:10Z</time></trkpt><trkpt lat="44.872721061972165" lon="12.181111102570389"><ele>-3.0</ele><time>2026-05-02T11:30:13Z</time></trkpt><trkpt lat="44.872689766374855" lon="12.181228186472756"><ele>-3.0</ele><time>2026-05-02T11:30:16Z</time></trkpt><trkpt lat="44.872670554965715" lon="12.18131950512067"><ele>-2.9999999999999996</ele><time>2026-05-02T11:30:18Z</time></trkpt><trkpt lat="44.87264783240385" lon="12.181414879601832"><ele>-3.0</ele><time>2026-05-02T11:30:20Z</time></trkpt><trkpt lat="44.87262558421939" lon="12.181512518068276"><ele>-2.6666666666666665</ele><time>2026-05-02T11:30:22Z</time></trkpt><trkpt lat="44.87260300750054" lon="12.181609047424782"><ele>-2.3333333333333335</ele><time>2026-05-02T11:30:24Z</time></trkpt><trkpt lat="44.87258224976012" lon="12.181735895976459"><ele>-2.0</ele><time>2026-05-02T11:30:27Z</time></trkpt><trkpt lat="44.87257481573058" lon="12.18184552172567"><ele>-1.6666666666666665</ele><time>2026-05-02T11:30:30Z</time></trkpt><trkpt lat="44.87259255986594" lon="12.181954536898925"><ele>-1.3333333333333333</ele><time>2026-05-02T11:30:33Z</time></trkpt><trkpt lat="44.87260979901844" lon="12.182071151507946"><ele>-1.0</ele><time>2026-05-02T11:30:36Z</time></trkpt><trkpt lat="44.8726127662834" lon="12.182202397192214"><ele>-0.9999999999999999</ele><time>2026-05-02T11:30:39Z</time></trkpt><trkpt lat="44.87260596244043" lon="12.18229363048975"><ele>-1.0</ele><time>2026-05-02T11:30:41Z</time></trkpt><trkpt lat="44.87259372483989" lon="12.182406106592934"><ele>-1.0</ele><time>2026-05-02T11:30:44Z</time></trkpt><trkpt lat="44.872571579979635" lon="12.182527855666576"><ele>-1.0</ele><time>2026-05-02T11:30:47Z</time></trkpt><trkpt lat="44.87254343557673" lon="12.182658133658318"><ele>-0.9999999999999999</ele><time>2026-05-02T11:30:50Z</time></trkpt><trkpt lat="44.872519053966826" lon="12.182766753236978"><ele>-1.0</ele><time>2026-05-02T11:30:52Z</time></trkpt><trkpt lat="44.87249190461004" lon="12.18288681499727"><ele>-0.9999999999999999</ele><time>2026-05-02T11:30:55Z</time></trkpt><trkpt lat="44.872467341421434" lon="12.182998136938012"><ele>-1.0</ele><time>2026-05-02T11:30:58Z</time></trkpt><trkpt lat="44.872448436704644" lon="12.183098175170766"><ele>-1.0</ele><time>2026-05-02T11:31:00Z</time></trkpt><trkpt lat="44.872423397517885" lon="12.183194731864711"><ele>-1.0</ele><time>2026-05-02T11:31:02Z</time></trkpt><trkpt lat="44.87239327721563" lon="12.183317960295744"><ele>-0.9999999999999999</ele><time>2026-05-02T11:31:05Z</time></trkpt><trkpt lat="44.872365986997984" lon="12.183404759991639"><ele>-1.0</ele><time>2026-05-02T11:31:07Z</time></trkpt><trkpt lat="44.87235114791078" lon="12.183493828299445"><ele>-0.9999999999999999</ele><time>2026-05-02T11:33:38Z</time></trkpt><trkpt lat="44.872329025982104" lon="12.183589901950713"><ele>-1.0</ele><time>2026-05-02T11:33:42Z</time></trkpt><trkpt lat="44.872287546905106" lon="12.183685739622634"><ele>-1.0</ele><time>2026-05-02T11:33:45Z</time></trkpt><trkpt lat="44.872277140520865" lon="12.183778682378072"><ele>-1.0</ele><time>2026-05-02T11:33:48Z</time></trkpt><trkpt lat="44.872250956129584" lon="12.183881515225009"><ele>-0.9999999999999999</ele><time>2026-05-02T11:33:51Z</time></trkpt><trkpt lat="44.872231951391036" lon="12.18397347161369"><ele>-1.0</ele><time>2026-05-02T11:33:53Z</time></trkpt><trkpt lat="44.87220046169668" lon="12.184095563572052"><ele>-1.0</ele><time>2026-05-02T11:33:56Z</time></trkpt><trkpt lat="44.87217497168354" lon="12.184203092050776"><ele>-0.9999999999999999</ele><time>2026-05-02T11:33:59Z</time></trkpt><trkpt lat="44.87215859390245" lon="12.184295726555652"><ele>-1.0</ele><time>2026-05-02T11:34:02Z</time></trkpt><trkpt lat="44.87213993563684" lon="12.184397923582383"><ele>-1.0</ele><time>2026-05-02T11:34:05Z</time></trkpt><trkpt lat="44.872116873927034" lon="12.184504916098591"><ele>-0.9999999999999999</ele><time>2026-05-02T11:34:19Z</time></trkpt><trkpt lat="44.87209949704419" lon="12.184595418172208"><ele>-1.0</ele><time>2026-05-02T11:34:22Z</time></trkpt><trkpt lat="44.87206199728075" lon="12.184693097664924"><ele>-1.0</ele><time>2026-05-02T11:34:25Z</time></trkpt><trkpt lat="44.8720329380719" lon="12.18481641069782"><ele>-1.0</ele><time>2026-05-02T11:34:28Z</time></trkpt><trkpt lat="44.87199632927989" lon="12.18490231366201"><ele>-0.9999999999999999</ele><time>2026-05-02T11:34:30Z</time></trkpt><trkpt lat="44.871971252922634" lon="12.18498811097948"><ele>-1.0</ele><time>2026-05-02T11:34:32Z</time></trkpt><trkpt lat="44.871958142450126" lon="12.18507757632674"><ele>-1.0</ele><time>2026-05-02T11:34:34Z</time></trkpt><trkpt lat="44.871939865299126" lon="12.18516812621081"><ele>-0.9999999999999999</ele><time>2026-05-02T11:34:36Z</time></trkpt><trkpt lat="44.871921272730745" lon="12.185277880922499"><ele>-1.0</ele><time>2026-05-02T11:34:38Z</time></trkpt><trkpt lat="44.87189597973343" lon="12.18540108124103"><ele>-1.0</ele><time>2026-05-02T11:34:41Z</time></trkpt><trkpt lat="44.87187673739262" lon="12.185486970506208"><ele>-0.9999999999999999</ele><time>2026-05-02T11:34:43Z</time></trkpt><trkpt lat="44.87184639118233" lon="12.185588840596962"><ele>-1.0</ele><time>2026-05-02T11:34:45Z</time></trkpt><trkpt lat="44.871819717572244" lon="12.18568833158128"><ele>-1.0</ele><time>2026-05-02T11:34:47Z</time></trkpt><trkpt lat="44.87178951524404" lon="12.185799261712367"><ele>-1.0</ele><time>2026-05-02T11:34:50Z</time></trkpt><trkpt lat="44.87176565924854" lon="12.185900663124496"><ele>-0.9999999999999999</ele><time>2026-05-02T11:34:52Z</time></trkpt><trkpt lat="44.871741567224326" lon="12.185987222453665"><ele>-1.0</ele><time>2026-05-02T11:34:54Z</time></trkpt><trkpt lat="44.87172507676137" lon="12.18609573701318"><ele>-1.3333333333333333</ele><time>2026-05-02T11:34:57Z</time></trkpt><trkpt lat="44.87169925576764" lon="12.18621277158771"><ele>-1.6666666666666665</ele><time>2026-05-02T11:35:00Z</time></trkpt><trkpt lat="44.871671593818114" lon="12.186319179881892"><ele>-2.0</ele><time>2026-05-02T11:35:03Z</time></trkpt><trkpt lat="44.87164792915473" lon="12.186438489171262"><ele>-2.3333333333333335</ele><time>2026-05-02T11:35:06Z</time></trkpt><trkpt lat="44.87162293428236" lon="12.186534602964088"><ele>-2.6666666666666665</ele><time>2026-05-02T11:35:08Z</time></trkpt><trkpt lat="44.871595370130386" lon="12.186641952715213"><ele>-3.0</ele><time>2026-05-02T11:35:10Z</time></trkpt><trkpt lat="44.87157422815275" lon="12.186731755831167"><ele>-3.3333333333333335</ele><time>2026-05-02T11:35:12Z</time></trkpt><trkpt lat="44.87154861029326" lon="12.186827662793956"><ele>-3.666666666666667</ele><time>2026-05-02T11:35:14Z</time></trkpt><trkpt lat="44.87153177685968" lon="12.186923758485701"><ele>-4.0</ele><time>2026-05-02T11:35:16Z</time></trkpt><trkpt lat="44.871508573106986" lon="12.187027849213623"><ele>-4.333333333333334</ele><time>2026-05-02T11:35:19Z</time></trkpt><trkpt lat="44.871483186287556" lon="12.187126402035664"><ele>-4.666666666666667</ele><time>2026-05-02T11:35:21Z</time></trkpt><trkpt lat="44.87145872502054" lon="12.187226676841322"><ele>-5.0</ele><time>2026-05-02T11:35:23Z</time></trkpt><trkpt lat="44.8714304529902" lon="12.18733346265987"><ele>-4.857142857142857</ele><time>2026-05-02T11:35:26Z</time></trkpt><trkpt lat="44.871409840362915" lon="12.187473261800688"><ele>-4.714285714285714</ele><time>2026-05-02T11:35:29Z</time></trkpt><trkpt lat="44.871387930424476" lon="12.187568639387795"><ele>-4.571428571428571</ele><time>2026-05-02T11:35:31Z</time></trkpt><trkpt lat="44.87136729666501" lon="12.187658213344898"><ele>-4.428571428571429</ele><time>2026-05-02T11:35:33Z</time></trkpt><trkpt lat="44.87134394477379" lon="12.187751423062684"><ele>-4.285714285714286</ele><time>2026-05-02T11:35:35Z</time></trkpt><trkpt lat="44.87132271446454" lon="12.187844464355212"><ele>-4.142857142857142</ele><time>2026-05-02T11:35:37Z</time></trkpt><trkpt lat="44.871304904215336" lon="12.187933210653858"><ele>-4.0</ele><time>2026-05-02T11:35:39Z</time></trkpt><trkpt lat="44.871289630915236" lon="12.18804905989496"><ele>-3.9999999999999996</ele><time>2026-05-02T11:35:41Z</time></trkpt><trkpt lat="44.87126418972099" lon="12.188150222134063"><ele>-4.0</ele><time>2026-05-02T11:35:43Z</time></trkpt><trkpt lat="44.87123468152512" lon="12.18823633446666"><ele>-4.0</ele><time>2026-05-02T11:35:45Z</time></trkpt><trkpt lat="44.871208300327275" lon="12.188335121923027"><ele>-4.0</ele><time>2026-05-02T11:35:47Z</time></trkpt><trkpt lat="44.871179124622685" lon="12.188434599402097"><ele>-3.9999999999999996</ele><time>2026-05-02T11:35:49Z</time></trkpt><trkpt lat="44.87115102992987" lon="12.188528498711548"><ele>-4.0</ele><time>2026-05-02T11:35:51Z</time></trkpt><trkpt lat="44.87112713446801" lon="12.188653576751628"><ele>-3.833333333333333</ele><time>2026-05-02T11:35:54Z</time></trkpt><trkpt lat="44.87111384026417" lon="12.188767790887528"><ele>-3.6666666666666665</ele><time>2026-05-02T11:35:56Z</time></trkpt><trkpt lat="44.8711027341518" lon="12.188877662108514"><ele>-3.5</ele><time>2026-05-02T11:35:58Z</time></trkpt><trkpt lat="44.871076764799554" lon="12.189009773258096"><ele>-3.333333333333333</ele><time>2026-05-02T11:36:01Z</time></trkpt><trkpt lat="44.871050585392524" lon="12.189124924218165"><ele>-3.1666666666666665</ele><time>2026-05-02T11:36:03Z</time></trkpt><trkpt lat="44.87102314826651" lon="12.189245388432983"><ele>-3.0</ele><time>2026-05-02T11:36:05Z</time></trkpt><trkpt lat="44.87099480423457" lon="12.189360179858795"><ele>-3.0</ele><time>2026-05-02T11:36:07Z</time></trkpt><trkpt lat="44.870966870136556" lon="12.189484937493113"><ele>-3.0</ele><time>2026-05-02T11:36:09Z</time></trkpt><trkpt lat="44.87093742829294" lon="12.189606756771742"><ele>-3.0</ele><time>2026-05-02T11:36:11Z</time></trkpt><trkpt lat="44.87090535815239" lon="12.1897233934756"><ele>-3.0</ele><time>2026-05-02T11:36:13Z</time></trkpt><trkpt lat="44.870872633229574" lon="12.189838783629297"><ele>-3.0</ele><time>2026-05-02T11:36:15Z</time></trkpt><trkpt lat="44.870841213005335" lon="12.18994371772018"><ele>-3.0</ele><time>2026-05-02T11:36:17Z</time></trkpt><trkpt lat="44.87080304284724" lon="12.19002852419608"><ele>-2.8333333333333335</ele><time>2026-05-02T11:36:19Z</time></trkpt><trkpt lat="44.87077770409791" lon="12.190111881589951"><ele>-2.6666666666666665</ele><time>2026-05-02T11:36:21Z</time></trkpt><trkpt lat="44.87075166380776" lon="12.1902269257559"><ele>-2.5</ele><time>2026-05-02T11:36:23Z</time></trkpt><trkpt lat="44.87072747758938" lon="12.190333536624257"><ele>-2.333333333333333</ele><time>2026-05-02T11:36:25Z</time></trkpt><trkpt lat="44.87071378126393" lon="12.19043707372978"><ele>-2.1666666666666665</ele><time>2026-05-02T11:36:27Z</time></trkpt><trkpt lat="44.87068840420551" lon="12.190540025384742"><ele>-2.0</ele><time>2026-05-02T11:36:29Z</time></trkpt><trkpt lat="44.87068251718438" lon="12.190648700159883"><ele>-1.8333333333333333</ele><time>2026-05-02T11:36:32Z</time></trkpt><trkpt lat="44.87066627151298" lon="12.190735340966526"><ele>-1.6666666666666665</ele><time>2026-05-02T11:36:35Z</time></trkpt><trkpt lat="44.87062365492969" lon="12.190852707416402"><ele>-1.5</ele><time>2026-05-02T11:36:39Z</time></trkpt><trkpt lat="44.8705852101755" lon="12.190960230248574"><ele>-1.3333333333333333</ele><time>2026-05-02T11:36:41Z</time></trkpt><trkpt lat="44.8705280692579" lon="12.191072209637056"><ele>-1.1666666666666665</ele><time>2026-05-02T11:36:43Z</time></trkpt><trkpt lat="44.87048247798663" lon="12.191187835415878"><ele>-1.0</ele><time>2026-05-02T11:36:45Z</time></trkpt><trkpt lat="44.870453166821825" lon="12.19130994927169"><ele>-0.9999999999999999</ele><time>2026-05-02T11:36:47Z</time></trkpt><trkpt lat="44.87041058322791" lon="12.191423614235902"><ele>-1.0</ele><time>2026-05-02T11:36:49Z</time></trkpt><trkpt lat="44.87037543863262" lon="12.191534123672707"><ele>-1.0</ele><time>2026-05-02T11:36:51Z</time></trkpt><trkpt lat="44.870343360218016" lon="12.191642516815168"><ele>-1.0</ele><time>2026-05-02T11:36:53Z</time></trkpt><trkpt lat="44.8703102343875" lon="12.191745562349542"><ele>-0.9999999999999999</ele><time>2026-05-02T11:36:55Z</time></trkpt><trkpt lat="44.87027460519585" lon="12.19185659939333"><ele>-1.0</ele><time>2026-05-02T11:36:57Z</time></trkpt><trkpt lat="44.87023830131759" lon="12.19196584424076"><ele>-1.1666666666666665</ele><time>2026-05-02T11:36:59Z</time></trkpt><trkpt lat="44.87019769231295" lon="12.19207560374354"><ele>-1.3333333333333333</ele><time>2026-05-02T11:37:01Z</time></trkpt><trkpt lat="44.87016679789104" lon="12.192179161984438"><ele>-1.5</ele><time>2026-05-02T11:37:03Z</time></trkpt><trkpt lat="44.870133612175536" lon="12.192282928949112"><ele>-1.6666666666666665</ele><time>2026-05-02T11:37:05Z</time></trkpt><trkpt lat="44.87010049200616" lon="12.19238116366744"><ele>-1.8333333333333333</ele><time>2026-05-02T11:37:07Z</time></trkpt><trkpt lat="44.87006768797317" lon="12.19247816697179"><ele>-2.0</ele><time>2026-05-02T11:37:09Z</time></trkpt><trkpt lat="44.870037400744195" lon="12.192569718825958"><ele>-2.1666666666666665</ele><time>2026-05-02T11:37:11Z</time></trkpt><trkpt lat="44.87001600224982" lon="12.19266336103431"><ele>-2.333333333333333</ele><time>2026-05-02T11:37:13Z</time></trkpt><trkpt lat="44.86998519845298" lon="12.192750545064612"><ele>-2.5</ele><time>2026-05-02T11:37:15Z</time></trkpt><trkpt lat="44.86994155731344" lon="12.192863581512817"><ele>-2.6666666666666665</ele><time>2026-05-02T11:37:18Z</time></trkpt><trkpt lat="44.86991661505915" lon="12.192949408982745"><ele>-2.8333333333333335</ele><time>2026-05-02T11:37:20Z</time></trkpt><trkpt lat="44.86987738608112" lon="12.193066914856251"><ele>-3.0</ele><time>2026-05-02T11:37:23Z</time></trkpt><trkpt lat="44.86984680529254" lon="12.193157993670734"><ele>-3.0</ele><time>2026-05-02T11:37:25Z</time></trkpt><trkpt lat="44.86981343448762" lon="12.193274321811911"><ele>-3.0</ele><time>2026-05-02T11:37:27Z</time></trkpt><trkpt lat="44.869771359039774" lon="12.193386140184526"><ele>-3.0</ele><time>2026-05-02T11:37:29Z</time></trkpt><trkpt lat="44.86973088704471" lon="12.193504871232118"><ele>-3.0</ele><time>2026-05-02T11:37:31Z</time></trkpt><trkpt lat="44.869692671170895" lon="12.193624503810778"><ele>-3.0</ele><time>2026-05-02T11:37:33Z</time></trkpt><trkpt lat="44.86965761044942" lon="12.193738474502991"><ele>-3.0</ele><time>2026-05-02T11:37:35Z</time></trkpt><trkpt lat="44.86961984163777" lon="12.193847999339496"><ele>-3.0</ele><time>2026-05-02T11:37:37Z</time></trkpt><trkpt lat="44.86958626180986" lon="12.193951904584525"><ele>-3.0</ele><time>2026-05-02T11:37:39Z</time></trkpt><trkpt lat="44.86955828657153" lon="12.194055541447009"><ele>-3.0</ele><time>2026-05-02T11:37:41Z</time></trkpt><trkpt lat="44.86952333423569" lon="12.19414968464606"><ele>-3.0</ele><time>2026-05-02T11:37:43Z</time></trkpt><trkpt lat="44.86949470948405" lon="12.194245955320008"><ele>-3.0</ele><time>2026-05-02T11:37:45Z</time></trkpt><trkpt lat="44.86945602692993" lon="12.194339802631845"><ele>-3.0</ele><time>2026-05-02T11:37:47Z</time></trkpt><trkpt lat="44.869416243371234" lon="12.194454346917842"><ele>-3.0</ele><time>2026-05-02T11:37:49Z</time></trkpt><trkpt lat="44.869384189557266" lon="12.194571731361771"><ele>-3.0</ele><time>2026-05-02T11:37:51Z</time></trkpt><trkpt lat="44.869344957419834" lon="12.194677820541921"><ele>-3.0</ele><time>2026-05-02T11:37:53Z</time></trkpt><trkpt lat="44.869316591636924" lon="12.194784068921642"><ele>-3.0</ele><time>2026-05-02T11:37:55Z</time></trkpt><trkpt lat="44.86928350185832" lon="12.194888417572615"><ele>-3.0</ele><time>2026-05-02T11:37:57Z</time></trkpt><trkpt lat="44.8692448523407" lon="12.195001557271944"><ele>-3.2</ele><time>2026-05-02T11:37:59Z</time></trkpt><trkpt lat="44.86920570243328" lon="12.195116398201444"><ele>-3.4</ele><time>2026-05-02T11:38:01Z</time></trkpt><trkpt lat="44.86916462130096" lon="12.195228988426125"><ele>-3.6000000000000005</ele><time>2026-05-02T11:38:03Z</time></trkpt><trkpt lat="44.869124177210765" lon="12.195345351611987"><ele>-3.8000000000000003</ele><time>2026-05-02T11:38:05Z</time></trkpt><trkpt lat="44.86908683474805" lon="12.195465319267127"><ele>-4.0</ele><time>2026-05-02T11:38:07Z</time></trkpt><trkpt lat="44.869048239772724" lon="12.195583352451713"><ele>-3.9999999999999996</ele><time>2026-05-02T11:38:09Z</time></trkpt><trkpt lat="44.869012814486005" lon="12.195701585695291"><ele>-4.0</ele><time>2026-05-02T11:38:11Z</time></trkpt><trkpt lat="44.86897327784904" lon="12.195818064258082"><ele>-4.0</ele><time>2026-05-02T11:38:13Z</time></trkpt><trkpt lat="44.86893702784363" lon="12.195934547946564"><ele>-4.0</ele><time>2026-05-02T11:38:15Z</time></trkpt><trkpt lat="44.86889961342031" lon="12.196044596805832"><ele>-3.9999999999999996</ele><time>2026-05-02T11:38:17Z</time></trkpt><trkpt lat="44.86886699651923" lon="12.196154975611032"><ele>-4.0</ele><time>2026-05-02T11:38:19Z</time></trkpt><trkpt lat="44.86882867016568" lon="12.196258929343726"><ele>-4.0</ele><time>2026-05-02T11:38:21Z</time></trkpt><trkpt lat="44.86878885234955" lon="12.196372947147465"><ele>-4.0</ele><time>2026-05-02T11:38:23Z</time></trkpt><trkpt lat="44.86875356975776" lon="12.196493951673226"><ele>-4.0</ele><time>2026-05-02T11:38:25Z</time></trkpt><trkpt lat="44.8687102260971" lon="12.196611989611382"><ele>-4.0</ele><time>2026-05-02T11:38:27Z</time></trkpt><trkpt lat="44.86867288128287" lon="12.196734024133745"><ele>-4.0</ele><time>2026-05-02T11:38:29Z</time></trkpt><trkpt lat="44.86863130807772" lon="12.196855568367669"><ele>-4.0</ele><time>2026-05-02T11:38:31Z</time></trkpt><trkpt lat="44.868592991137284" lon="12.196971726746128"><ele>-4.0</ele><time>2026-05-02T11:38:33Z</time></trkpt><trkpt lat="44.86855335057744" lon="12.197091580547823"><ele>-4.0</ele><time>2026-05-02T11:38:35Z</time></trkpt><trkpt lat="44.86851596075846" lon="12.197214079820917"><ele>-4.0</ele><time>2026-05-02T11:38:37Z</time></trkpt><trkpt lat="44.868474784521865" lon="12.197335392396468"><ele>-4.0</ele><time>2026-05-02T11:38:39Z</time></trkpt><trkpt lat="44.86843704510327" lon="12.19745596513265"><ele>-4.0</ele><time>2026-05-02T11:38:41Z</time></trkpt><trkpt lat="44.86839505791693" lon="12.197577605619982"><ele>-4.0</ele><time>2026-05-02T11:38:43Z</time></trkpt><trkpt lat="44.86835540637616" lon="12.19770024935071"><ele>-4.0</ele><time>2026-05-02T11:38:45Z</time></trkpt><trkpt lat="44.86831449114427" lon="12.197823411685986"><ele>-4.0</ele><time>2026-05-02T11:38:47Z</time></trkpt><trkpt lat="44.86827129834115" lon="12.197945850206922"><ele>-4.0</ele><time>2026-05-02T11:38:49Z</time></trkpt><trkpt lat="44.868230917982906" lon="12.198073263073352"><ele>-3.8000000000000003</ele><time>2026-05-02T11:38:51Z</time></trkpt><trkpt lat="44.86819365748129" lon="12.198192280984383"><ele>-3.6000000000000005</ele><time>2026-05-02T11:38:53Z</time></trkpt><trkpt lat="44.86815239430454" lon="12.198319486240592"><ele>-3.4</ele><time>2026-05-02T11:38:55Z</time></trkpt><trkpt lat="44.86811654263968" lon="12.198436263143634"><ele>-3.2</ele><time>2026-05-02T11:38:57Z</time></trkpt><trkpt lat="44.86807300838923" lon="12.198552664806003"><ele>-3.0</ele><time>2026-05-02T11:38:59Z</time></trkpt><trkpt lat="44.86803771275981" lon="12.198671141188596"><ele>-3.0</ele><time>2026-05-02T11:39:01Z</time></trkpt><trkpt lat="44.86800091646156" lon="12.198791169431049"><ele>-3.0</ele><time>2026-05-02T11:39:03Z</time></trkpt><trkpt lat="44.867959045088554" lon="12.198904673186783"><ele>-3.0</ele><time>2026-05-02T11:39:05Z</time></trkpt><trkpt lat="44.86792029550016" lon="12.199023859730113"><ele>-3.0</ele><time>2026-05-02T11:39:07Z</time></trkpt><trkpt lat="44.867880529205166" lon="12.199144438298406"><ele>-3.0</ele><time>2026-05-02T11:39:09Z</time></trkpt><trkpt lat="44.86784771762158" lon="12.19926443902407"><ele>-3.0</ele><time>2026-05-02T11:39:11Z</time></trkpt><trkpt lat="44.86780673732505" lon="12.19938458397986"><ele>-3.0</ele><time>2026-05-02T11:39:13Z</time></trkpt><trkpt lat="44.867767987045454" lon="12.199503849369892"><ele>-3.0</ele><time>2026-05-02T11:39:15Z</time></trkpt><trkpt lat="44.86772727551759" lon="12.199621935407803"><ele>-3.0</ele><time>2026-05-02T11:39:17Z</time></trkpt><trkpt lat="44.86769469192125" lon="12.199747124070008"><ele>-3.0</ele><time>2026-05-02T11:39:19Z</time></trkpt><trkpt lat="44.86766342023698" lon="12.199871530103954"><ele>-3.0</ele><time>2026-05-02T11:39:21Z</time></trkpt><trkpt lat="44.867626719377306" lon="12.199991202175557"><ele>-3.0</ele><time>2026-05-02T11:39:23Z</time></trkpt><trkpt lat="44.867581907502" lon="12.200107383197945"><ele>-3.0</ele><time>2026-05-02T11:39:25Z</time></trkpt><trkpt lat="44.86754196162109" lon="12.200225188120278"><ele>-3.0</ele><time>2026-05-02T11:39:27Z</time></trkpt><trkpt lat="44.86750667150257" lon="12.20033438028432"><ele>-3.0</ele><time>2026-05-02T11:39:29Z</time></trkpt><trkpt lat="44.86747428338541" lon="12.200444296518707"><ele>-3.0</ele><time>2026-05-02T11:39:31Z</time></trkpt><trkpt lat="44.867441283330685" lon="12.2005469111243"><ele>-3.1666666666666665</ele><time>2026-05-02T11:39:33Z</time></trkpt><trkpt lat="44.86740613567823" lon="12.20064409994799"><ele>-3.333333333333333</ele><time>2026-05-02T11:39:35Z</time></trkpt><trkpt lat="44.867371855696035" lon="12.20073339693054"><ele>-3.5</ele><time>2026-05-02T11:39:37Z</time></trkpt><trkpt lat="44.867347452426166" lon="12.200822002373354"><ele>-3.6666666666666665</ele><time>2026-05-02T11:39:39Z</time></trkpt><trkpt lat="44.8673073337753" lon="12.200936901550154"><ele>-3.833333333333333</ele><time>2026-05-02T11:39:42Z</time></trkpt><trkpt lat="44.867268742382635" lon="12.201044749911299"><ele>-4.0</ele><time>2026-05-02T11:39:44Z</time></trkpt><trkpt lat="44.86722752806781" lon="12.201152658659298"><ele>-4.2</ele><time>2026-05-02T11:39:46Z</time></trkpt><trkpt lat="44.86719446522854" lon="12.201269881314976"><ele>-4.4</ele><time>2026-05-02T11:39:48Z</time></trkpt><trkpt lat="44.86715195632664" lon="12.201388161668605"><ele>-4.6</ele><time>2026-05-02T11:39:50Z</time></trkpt><trkpt lat="44.86711817770364" lon="12.201509809259322"><ele>-4.8</ele><time>2026-05-02T11:39:52Z</time></trkpt><trkpt lat="44.86707147322129" lon="12.201629688888234"><ele>-5.0</ele><time>2026-05-02T11:39:54Z</time></trkpt><trkpt lat="44.86703161442583" lon="12.201753232669919"><ele>-5.2</ele><time>2026-05-02T11:39:56Z</time></trkpt><trkpt lat="44.86698895838843" lon="12.201870936132716"><ele>-5.4</ele><time>2026-05-02T11:39:58Z</time></trkpt><trkpt lat="44.86695119040555" lon="12.201991855337111"><ele>-5.6</ele><time>2026-05-02T11:40:00Z</time></trkpt><trkpt lat="44.86691571476203" lon="12.202112639140724"><ele>-5.8</ele><time>2026-05-02T11:40:02Z</time></trkpt><trkpt lat="44.86686994303849" lon="12.202222006609755"><ele>-6.0</ele><time>2026-05-02T11:40:04Z</time></trkpt><trkpt lat="44.866833112376234" lon="12.202342099183488"><ele>-5.833333333333333</ele><time>2026-05-02T11:40:06Z</time></trkpt><trkpt lat="44.86679477298177" lon="12.202460271069388"><ele>-5.666666666666667</ele><time>2026-05-02T11:40:08Z</time></trkpt><trkpt lat="44.866757002899554" lon="12.202576843343104"><ele>-5.5</ele><time>2026-05-02T11:40:10Z</time></trkpt><trkpt lat="44.86672119347572" lon="12.20268830536844"><ele>-5.333333333333334</ele><time>2026-05-02T11:40:12Z</time></trkpt><trkpt lat="44.86668799043552" lon="12.202795964932188"><ele>-5.166666666666667</ele><time>2026-05-02T11:40:14Z</time></trkpt><trkpt lat="44.86665439482183" lon="12.202894863722896"><ele>-5.0</ele><time>2026-05-02T11:40:16Z</time></trkpt><trkpt lat="44.866623024042276" lon="12.202994430295796"><ele>-5.0</ele><time>2026-05-02T11:40:18Z</time></trkpt><trkpt lat="44.8665842317956" lon="12.203103922322203"><ele>-5.0</ele><time>2026-05-02T11:40:20Z</time></trkpt><trkpt lat="44.866548388289694" lon="12.203213250858267"><ele>-5.0</ele><time>2026-05-02T11:40:22Z</time></trkpt><trkpt lat="44.86651942894719" lon="12.2033123517037"><ele>-5.0</ele><time>2026-05-02T11:40:24Z</time></trkpt><trkpt lat="44.866486200774446" lon="12.203406691228883"><ele>-5.0</ele><time>2026-05-02T11:40:26Z</time></trkpt><trkpt lat="44.86645312042591" lon="12.203496235223987"><ele>-5.0</ele><time>2026-05-02T11:40:28Z</time></trkpt><trkpt lat="44.86642235313525" lon="12.203591834753505"><ele>-4.833333333333334</ele><time>2026-05-02T11:40:30Z</time></trkpt><trkpt lat="44.866392064622424" lon="12.203699392518752"><ele>-4.666666666666667</ele><time>2026-05-02T11:40:32Z</time></trkpt><trkpt lat="44.86635331287994" lon="12.203794137627163"><ele>-4.5</ele><time>2026-05-02T11:40:34Z</time></trkpt><trkpt lat="44.866326580770355" lon="12.203885196740538"><ele>-4.333333333333333</ele><time>2026-05-02T11:40:36Z</time></trkpt><trkpt lat="44.866295411823565" lon="12.20397029054102"><ele>-4.166666666666666</ele><time>2026-05-02T11:40:38Z</time></trkpt><trkpt lat="44.86625464412276" lon="12.204090340141699"><ele>-4.0</ele><time>2026-05-02T11:40:41Z</time></trkpt><trkpt lat="44.866227116077596" lon="12.204175867645114"><ele>-3.9999999999999996</ele><time>2026-05-02T11:40:43Z</time></trkpt><trkpt lat="44.86618994400352" lon="12.20429162329881"><ele>-4.0</ele><time>2026-05-02T11:40:46Z</time></trkpt><trkpt lat="44.86616271440269" lon="12.204379135578975"><ele>-4.0</ele><time>2026-05-02T11:40:48Z</time></trkpt><trkpt lat="44.86612562734944" lon="12.204484190314686"><ele>-4.0</ele><time>2026-05-02T11:40:50Z</time></trkpt><trkpt lat="44.86609170935833" lon="12.20459757681295"><ele>-3.9999999999999996</ele><time>2026-05-02T11:40:52Z</time></trkpt><trkpt lat="44.8660625994989" lon="12.204703592298493"><ele>-4.0</ele><time>2026-05-02T11:40:54Z</time></trkpt><trkpt lat="44.8660278794396" lon="12.20480693379064"><ele>-3.833333333333333</ele><time>2026-05-02T11:40:56Z</time></trkpt><trkpt lat="44.865996808440016" lon="12.204906187711359"><ele>-3.6666666666666665</ele><time>2026-05-02T11:40:58Z</time></trkpt><trkpt lat="44.86596449966028" lon="12.20499769713203"><ele>-3.5</ele><time>2026-05-02T11:41:00Z</time></trkpt><trkpt lat="44.86592920138282" lon="12.205091892099617"><ele>-3.333333333333333</ele><time>2026-05-02T11:41:02Z</time></trkpt><trkpt lat="44.86589409153165" lon="12.205190557774165"><ele>-3.1666666666666665</ele><time>2026-05-02T11:41:04Z</time></trkpt><trkpt lat="44.865855428707675" lon="12.205295639585552"><ele>-3.0</ele><time>2026-05-02T11:41:06Z</time></trkpt><trkpt lat="44.865814898164274" lon="12.205400336180361"><ele>-2.8333333333333335</ele><time>2026-05-02T11:41:08Z</time></trkpt><trkpt lat="44.86578851494801" lon="12.205496992638391"><ele>-2.6666666666666665</ele><time>2026-05-02T11:41:10Z</time></trkpt><trkpt lat="44.86576860429096" lon="12.205593165720499"><ele>-2.5</ele><time>2026-05-02T11:41:12Z</time></trkpt><trkpt lat="44.86573141288684" lon="12.205677138765873"><ele>-2.333333333333333</ele><time>2026-05-02T11:41:14Z</time></trkpt><trkpt lat="44.8656976232634" lon="12.205808055019293"><ele>-2.1666666666666665</ele><time>2026-05-02T11:41:17Z</time></trkpt><trkpt lat="44.86565816877407" lon="12.205914733103636"><ele>-2.0</ele><time>2026-05-02T11:41:19Z</time></trkpt><trkpt lat="44.86563137758858" lon="12.206017484836028"><ele>-2.0</ele><time>2026-05-02T11:41:21Z</time></trkpt><trkpt lat="44.865614885958585" lon="12.206113965211165"><ele>-1.9999999999999998</ele><time>2026-05-02T11:41:23Z</time></trkpt><trkpt lat="44.86557951350711" lon="12.206222504507606"><ele>-2.0</ele><time>2026-05-02T11:41:25Z</time></trkpt><trkpt lat="44.86555694323548" lon="12.20632783592923"><ele>-2.0</ele><time>2026-05-02T11:41:27Z</time></trkpt><trkpt lat="44.86553276462239" lon="12.206424922252884"><ele>-1.9999999999999998</ele><time>2026-05-02T11:41:29Z</time></trkpt><trkpt lat="44.865502879848584" lon="12.206510142160258"><ele>-2.0</ele><time>2026-05-02T11:41:31Z</time></trkpt><trkpt lat="44.865477740205556" lon="12.206608830139258"><ele>-2.0</ele><time>2026-05-02T11:41:33Z</time></trkpt><trkpt lat="44.86544571969416" lon="12.206714564560643"><ele>-2.1666666666666665</ele><time>2026-05-02T11:41:35Z</time></trkpt><trkpt lat="44.86540952255279" lon="12.206820055031795"><ele>-2.333333333333333</ele><time>2026-05-02T11:41:37Z</time></trkpt><trkpt lat="44.86537740585142" lon="12.206933405821042"><ele>-2.5</ele><time>2026-05-02T11:41:39Z</time></trkpt><trkpt lat="44.86533889125998" lon="12.207038384087816"><ele>-2.6666666666666665</ele><time>2026-05-02T11:41:41Z</time></trkpt><trkpt lat="44.86531444062213" lon="12.207126647193814"><ele>-2.8333333333333335</ele><time>2026-05-02T11:41:43Z</time></trkpt><trkpt lat="44.86528349496891" lon="12.207223894068958"><ele>-3.0</ele><time>2026-05-02T11:41:45Z</time></trkpt><trkpt lat="44.86524705393231" lon="12.207330285347597"><ele>-3.0</ele><time>2026-05-02T11:41:47Z</time></trkpt><trkpt lat="44.86521202190383" lon="12.207435535697046"><ele>-3.0</ele><time>2026-05-02T11:41:49Z</time></trkpt><trkpt lat="44.86517536167055" lon="12.207549646087045"><ele>-3.0</ele><time>2026-05-02T11:41:51Z</time></trkpt><trkpt lat="44.865141275893386" lon="12.207661913286957"><ele>-3.0</ele><time>2026-05-02T11:41:53Z</time></trkpt><trkpt lat="44.86510435205917" lon="12.207775027153126"><ele>-3.0</ele><time>2026-05-02T11:41:55Z</time></trkpt><trkpt lat="44.86506469733227" lon="12.207893202814187"><ele>-3.0</ele><time>2026-05-02T11:41:57Z</time></trkpt><trkpt lat="44.86502594462303" lon="12.208002547271995"><ele>-3.0</ele><time>2026-05-02T11:41:59Z</time></trkpt><trkpt lat="44.864990282798644" lon="12.208121103810239"><ele>-3.0</ele><time>2026-05-02T11:42:01Z</time></trkpt><trkpt lat="44.864950840911554" lon="12.20823875848453"><ele>-3.0</ele><time>2026-05-02T11:42:03Z</time></trkpt><trkpt lat="44.86491233613448" lon="12.20835808178594"><ele>-3.0</ele><time>2026-05-02T11:42:05Z</time></trkpt><trkpt lat="44.8648745890067" lon="12.208471212931956"><ele>-3.0</ele><time>2026-05-02T11:42:07Z</time></trkpt><trkpt lat="44.8648431635889" lon="12.208574879865138"><ele>-3.0</ele><time>2026-05-02T11:42:09Z</time></trkpt><trkpt lat="44.86480678745455" lon="12.20867624427351"><ele>-3.1666666666666665</ele><time>2026-05-02T11:42:11Z</time></trkpt><trkpt lat="44.86476714175493" lon="12.208794271391174"><ele>-3.333333333333333</ele><time>2026-05-02T11:42:13Z</time></trkpt><trkpt lat="44.86472973206486" lon="12.20890788146939"><ele>-3.5</ele><time>2026-05-02T11:42:15Z</time></trkpt><trkpt lat="44.864691474349776" lon="12.209027420935563"><ele>-3.6666666666666665</ele><time>2026-05-02T11:42:17Z</time></trkpt><trkpt lat="44.86465814994129" lon="12.209133859427775"><ele>-3.833333333333333</ele><time>2026-05-02T11:42:19Z</time></trkpt><trkpt lat="44.864630840321595" lon="12.209233455293106"><ele>-4.0</ele><time>2026-05-02T11:42:21Z</time></trkpt><trkpt lat="44.86460274021164" lon="12.209321775485408"><ele>-3.6666666666666665</ele><time>2026-05-02T11:42:23Z</time></trkpt><trkpt lat="44.86457176320312" lon="12.209428645476175"><ele>-3.333333333333333</ele><time>2026-05-02T11:42:26Z</time></trkpt><trkpt lat="44.864532812396135" lon="12.209535768511792"><ele>-3.0</ele><time>2026-05-02T11:42:29Z</time></trkpt><trkpt lat="44.86449844916579" lon="12.209648103003234"><ele>-2.6666666666666665</ele><time>2026-05-02T11:42:31Z</time></trkpt><trkpt lat="44.86446407048368" lon="12.209762765609097"><ele>-2.333333333333333</ele><time>2026-05-02T11:42:33Z</time></trkpt><trkpt lat="44.86442255555977" lon="12.209869634763127"><ele>-2.0</ele><time>2026-05-02T11:42:35Z</time></trkpt><trkpt lat="44.86438420259106" lon="12.209991255874195"><ele>-1.9999999999999998</ele><time>2026-05-02T11:42:37Z</time></trkpt><trkpt lat="44.86434825263402" lon="12.210107260927414"><ele>-2.0</ele><time>2026-05-02T11:42:39Z</time></trkpt><trkpt lat="44.86431023008164" lon="12.210228327369823"><ele>-2.0</ele><time>2026-05-02T11:42:41Z</time></trkpt><trkpt lat="44.864271607306044" lon="12.210328937369281"><ele>-2.0</ele><time>2026-05-02T11:42:43Z</time></trkpt><trkpt lat="44.86423766003226" lon="12.210436598077765"><ele>-1.9999999999999998</ele><time>2026-05-02T11:42:45Z</time></trkpt><trkpt lat="44.86420632128704" lon="12.210538606587216"><ele>-2.0</ele><time>2026-05-02T11:42:47Z</time></trkpt><trkpt lat="44.86417119891731" lon="12.210644329649314"><ele>-2.333333333333333</ele><time>2026-05-02T11:42:49Z</time></trkpt><trkpt lat="44.86413176149898" lon="12.210755540681532"><ele>-2.6666666666666665</ele><time>2026-05-02T11:42:51Z</time></trkpt><trkpt lat="44.8640896855577" lon="12.210854990548984"><ele>-3.0</ele><time>2026-05-02T11:42:53Z</time></trkpt><trkpt lat="44.86405556826536" lon="12.210952746937846"><ele>-3.333333333333333</ele><time>2026-05-02T11:42:55Z</time></trkpt><trkpt lat="44.864016043001556" lon="12.211043071646753"><ele>-3.6666666666666665</ele><time>2026-05-02T11:42:57Z</time></trkpt><trkpt lat="44.863986695734965" lon="12.211129533719228"><ele>-4.0</ele><time>2026-05-02T11:42:59Z</time></trkpt><trkpt lat="44.86395588752313" lon="12.211229765862731"><ele>-3.9999999999999996</ele><time>2026-05-02T11:43:01Z</time></trkpt><trkpt lat="44.86391076104491" lon="12.211328955814071"><ele>-4.0</ele><time>2026-05-02T11:43:03Z</time></trkpt><trkpt lat="44.86387663163855" lon="12.211424974535719"><ele>-4.0</ele><time>2026-05-02T11:43:05Z</time></trkpt><trkpt lat="44.863839651339795" lon="12.21151368079646"><ele>-4.0</ele><time>2026-05-02T11:43:07Z</time></trkpt><trkpt lat="44.86381680052242" lon="12.211603208621739"><ele>-3.9999999999999996</ele><time>2026-05-02T11:43:09Z</time></trkpt><trkpt lat="44.86377315422168" lon="12.211712855925585"><ele>-4.0</ele><time>2026-05-02T11:43:12Z</time></trkpt><trkpt lat="44.8637528983728" lon="12.211801204746623"><ele>-3.8571428571428568</ele><time>2026-05-02T11:43:14Z</time></trkpt><trkpt lat="44.86372134505515" lon="12.211885638311662"><ele>-3.714285714285714</ele><time>2026-05-02T11:43:16Z</time></trkpt><trkpt lat="44.86369809253266" lon="12.21198122298051"><ele>-3.571428571428571</ele><time>2026-05-02T11:43:18Z</time></trkpt><trkpt lat="44.86367494631122" lon="12.212075692173975"><ele>-3.4285714285714284</ele><time>2026-05-02T11:43:20Z</time></trkpt><trkpt lat="44.86365102729684" lon="12.212178444594551"><ele>-3.2857142857142856</ele><time>2026-05-02T11:43:22Z</time></trkpt><trkpt lat="44.863627602323625" lon="12.212277740042692"><ele>-3.1428571428571423</ele><time>2026-05-02T11:43:24Z</time></trkpt><trkpt lat="44.86359961648489" lon="12.21237173764318"><ele>-3.0</ele><time>2026-05-02T11:43:26Z</time></trkpt><trkpt lat="44.86357697483328" lon="12.21246693477874"><ele>-3.0</ele><time>2026-05-02T11:43:28Z</time></trkpt><trkpt lat="44.86354364254347" lon="12.212575337891057"><ele>-3.0</ele><time>2026-05-02T11:43:30Z</time></trkpt><trkpt lat="44.863510242754536" lon="12.212685320200345"><ele>-3.0</ele><time>2026-05-02T11:43:32Z</time></trkpt><trkpt lat="44.86347107481938" lon="12.212802183814054"><ele>-3.0</ele><time>2026-05-02T11:43:34Z</time></trkpt><trkpt lat="44.86344058745114" lon="12.21290500253045"><ele>-3.0</ele><time>2026-05-02T11:43:36Z</time></trkpt><trkpt lat="44.863402500440245" lon="12.213011426817335"><ele>-3.0</ele><time>2026-05-02T11:43:38Z</time></trkpt><trkpt lat="44.86336191174381" lon="12.213104600047567"><ele>-2.9999999999999996</ele><time>2026-05-02T11:43:40Z</time></trkpt><trkpt lat="44.863334935246264" lon="12.213193137130945"><ele>-3.0</ele><time>2026-05-02T11:43:42Z</time></trkpt><trkpt lat="44.86330989627141" lon="12.213279249221124"><ele>-3.0</ele><time>2026-05-02T11:43:44Z</time></trkpt><trkpt lat="44.863281038187345" lon="12.213374403797363"><ele>-3.0</ele><time>2026-05-02T11:43:46Z</time></trkpt><trkpt lat="44.86325026535576" lon="12.213470151836844"><ele>-3.0</ele><time>2026-05-02T11:43:48Z</time></trkpt><trkpt lat="44.863215595375344" lon="12.213559789062586"><ele>-2.9999999999999996</ele><time>2026-05-02T11:43:51Z</time></trkpt><trkpt lat="44.86318528309878" lon="12.21365433675088"><ele>-3.0</ele><time>2026-05-02T11:43:53Z</time></trkpt><trkpt lat="44.86315619306987" lon="12.21375195350177"><ele>-3.0</ele><time>2026-05-02T11:43:55Z</time></trkpt><trkpt lat="44.86312199821186" lon="12.213845664588609"><ele>-3.0</ele><time>2026-05-02T11:43:57Z</time></trkpt><trkpt lat="44.86309713783579" lon="12.21393375107647"><ele>-3.0</ele><time>2026-05-02T11:43:59Z</time></trkpt><trkpt lat="44.863064661086916" lon="12.21403283351014"><ele>-3.0</ele><time>2026-05-02T11:44:01Z</time></trkpt><trkpt lat="44.863026118352785" lon="12.214143311156095"><ele>-3.0</ele><time>2026-05-02T11:44:04Z</time></trkpt><trkpt lat="44.86299675712409" lon="12.214238851467309"><ele>-3.0</ele><time>2026-05-02T11:44:06Z</time></trkpt><trkpt lat="44.86296107639636" lon="12.214342220260004"><ele>-2.9999999999999996</ele><time>2026-05-02T11:44:08Z</time></trkpt><trkpt lat="44.86292794666902" lon="12.214435472891626"><ele>-3.0</ele><time>2026-05-02T11:44:10Z</time></trkpt><trkpt lat="44.8629036233151" lon="12.214523611948268"><ele>-3.0</ele><time>2026-05-02T11:44:12Z</time></trkpt><trkpt lat="44.862869470500534" lon="12.214620537879927"><ele>-3.0</ele><time>2026-05-02T11:44:14Z</time></trkpt><trkpt lat="44.86284040794073" lon="12.21471598377851"><ele>-3.0</ele><time>2026-05-02T11:44:16Z</time></trkpt><trkpt lat="44.862806883082555" lon="12.214809365323955"><ele>-2.9999999999999996</ele><time>2026-05-02T11:44:18Z</time></trkpt><trkpt lat="44.86277365981153" lon="12.21491192067662"><ele>-3.0</ele><time>2026-05-02T11:44:20Z</time></trkpt><trkpt lat="44.86274226376724" lon="12.215013922736825"><ele>-3.0</ele><time>2026-05-02T11:44:22Z</time></trkpt><trkpt lat="44.86270716039336" lon="12.215123912571846"><ele>-3.0</ele><time>2026-05-02T11:44:24Z</time></trkpt><trkpt lat="44.862675005005016" lon="12.215217616475073"><ele>-3.0</ele><time>2026-05-02T11:44:26Z</time></trkpt><trkpt lat="44.86264665412071" lon="12.215310664827838"><ele>-3.0</ele><time>2026-05-02T11:44:28Z</time></trkpt><trkpt lat="44.86261370619973" lon="12.21541199935869"><ele>-3.0</ele><time>2026-05-02T11:44:30Z</time></trkpt><trkpt lat="44.86257775826232" lon="12.215512992172659"><ele>-3.0</ele><time>2026-05-02T11:44:32Z</time></trkpt><trkpt lat="44.862546877116486" lon="12.215611020878425"><ele>-3.0</ele><time>2026-05-02T11:44:34Z</time></trkpt><trkpt lat="44.86251687288716" lon="12.2157076457569"><ele>-3.0</ele><time>2026-05-02T11:44:36Z</time></trkpt><trkpt lat="44.86248304049732" lon="12.215808203246537"><ele>-3.0</ele><time>2026-05-02T11:44:38Z</time></trkpt><trkpt lat="44.86245987817637" lon="12.21591310092263"><ele>-3.0</ele><time>2026-05-02T11:44:40Z</time></trkpt><trkpt lat="44.86242747900924" lon="12.216031612306383"><ele>-3.0</ele><time>2026-05-02T11:44:43Z</time></trkpt><trkpt lat="44.862380608996325" lon="12.216108510871779"><ele>-3.0</ele><time>2026-05-02T11:44:47Z</time></trkpt><trkpt lat="44.862363243434245" lon="12.216211064279912"><ele>-3.0</ele><time>2026-05-02T11:46:13Z</time></trkpt><trkpt lat="44.86232045650065" lon="12.216324795877453"><ele>-3.0</ele><time>2026-05-02T11:46:16Z</time></trkpt><trkpt lat="44.86228150122367" lon="12.21643883643787"><ele>-3.0</ele><time>2026-05-02T11:46:19Z</time></trkpt><trkpt lat="44.86225213082222" lon="12.216521309159667"><ele>-3.0</ele><time>2026-05-02T11:46:22Z</time></trkpt><trkpt lat="44.86221167444572" lon="12.216637569308585"><ele>-3.0</ele><time>2026-05-02T11:46:25Z</time></trkpt><trkpt lat="44.862180179354944" lon="12.21672977004802"><ele>-3.0</ele><time>2026-05-02T11:46:27Z</time></trkpt><trkpt lat="44.86215073674838" lon="12.21682647857135"><ele>-2.6666666666666665</ele><time>2026-05-02T11:46:29Z</time></trkpt><trkpt lat="44.86211564176492" lon="12.216929376209462"><ele>-2.3333333333333335</ele><time>2026-05-02T11:46:31Z</time></trkpt><trkpt lat="44.86208393662324" lon="12.217018774596147"><ele>-2.0</ele><time>2026-05-02T11:46:33Z</time></trkpt><trkpt lat="44.8620526827453" lon="12.217117164721571"><ele>-1.6666666666666665</ele><time>2026-05-02T11:46:36Z</time></trkpt><trkpt lat="44.862016591800874" lon="12.217203439847367"><ele>-1.3333333333333333</ele><time>2026-05-02T11:46:38Z</time></trkpt><trkpt lat="44.86198676275234" lon="12.217296232087989"><ele>-1.0</ele><time>2026-05-02T11:46:40Z</time></trkpt><trkpt lat="44.86194757221129" lon="12.217402654986088"><ele>-0.9999999999999999</ele><time>2026-05-02T11:46:42Z</time></trkpt><trkpt lat="44.861907692628485" lon="12.217497556425881"><ele>-1.0</ele><time>2026-05-02T11:46:44Z</time></trkpt><trkpt lat="44.861867138835024" lon="12.217610481135695"><ele>-1.0</ele><time>2026-05-02T11:46:47Z</time></trkpt><trkpt lat="44.86183950685617" lon="12.217703061506967"><ele>-1.0</ele><time>2026-05-02T11:46:49Z</time></trkpt><trkpt lat="44.8618074789359" lon="12.217803152870568"><ele>-0.9999999999999999</ele><time>2026-05-02T11:46:51Z</time></trkpt><trkpt lat="44.861776063128" lon="12.217898976020164"><ele>-1.0</ele><time>2026-05-02T11:46:53Z</time></trkpt><trkpt lat="44.86175397997943" lon="12.217985583805127"><ele>-1.1666666666666665</ele><time>2026-05-02T11:46:55Z</time></trkpt><trkpt lat="44.861717681182725" lon="12.218069643806459"><ele>-1.3333333333333333</ele><time>2026-05-02T11:46:57Z</time></trkpt><trkpt lat="44.8616816321997" lon="12.218167989409745"><ele>-1.5</ele><time>2026-05-02T11:46:59Z</time></trkpt><trkpt lat="44.86165027402194" lon="12.218278985426807"><ele>-1.6666666666666665</ele><time>2026-05-02T11:47:01Z</time></trkpt><trkpt lat="44.86162013048295" lon="12.218373295457441"><ele>-1.8333333333333333</ele><time>2026-05-02T11:47:03Z</time></trkpt><trkpt lat="44.86158024403122" lon="12.218496714730254"><ele>-2.0</ele><time>2026-05-02T11:47:06Z</time></trkpt><trkpt lat="44.86154329809362" lon="12.21859883941019"><ele>-2.1666666666666665</ele><time>2026-05-02T11:47:08Z</time></trkpt><trkpt lat="44.86151420205437" lon="12.218691260080519"><ele>-2.333333333333333</ele><time>2026-05-02T11:47:10Z</time></trkpt><trkpt lat="44.861480737251426" lon="12.218789724861768"><ele>-2.5</ele><time>2026-05-02T11:47:12Z</time></trkpt><trkpt lat="44.861448572639816" lon="12.218892407423377"><ele>-2.6666666666666665</ele><time>2026-05-02T11:47:14.001Z</time></trkpt><trkpt lat="44.86141688615433" lon="12.218994608593132"><ele>-2.8333333333333335</ele><time>2026-05-02T11:47:16.001Z</time></trkpt><trkpt lat="44.86138255950824" lon="12.21909659974809"><ele>-3.0</ele><time>2026-05-02T11:47:18.001Z</time></trkpt><trkpt lat="44.86134761071693" lon="12.219199340269002"><ele>-3.1666666666666665</ele><time>2026-05-02T11:47:20.001Z</time></trkpt><trkpt lat="44.86131928068352" lon="12.219287946283456"><ele>-3.333333333333333</ele><time>2026-05-02T11:47:22.001Z</time></trkpt><trkpt lat="44.8612899205935" lon="12.219381639061032"><ele>-3.5</ele><time>2026-05-02T11:47:24.001Z</time></trkpt><trkpt lat="44.861251674873316" lon="12.219487027926759"><ele>-3.6666666666666665</ele><time>2026-05-02T11:47:26.001Z</time></trkpt><trkpt lat="44.86121821342338" lon="12.219584951462377"><ele>-3.833333333333333</ele><time>2026-05-02T11:47:28.001Z</time></trkpt><trkpt lat="44.86119180984883" lon="12.219670225731948"><ele>-4.0</ele><time>2026-05-02T11:47:30.001Z</time></trkpt><trkpt lat="44.861153979748295" lon="12.21978656015901"><ele>-3.6666666666666665</ele><time>2026-05-02T11:47:33Z</time></trkpt><trkpt lat="44.86111833213849" lon="12.219883976998897"><ele>-3.333333333333333</ele><time>2026-05-02T11:47:35Z</time></trkpt><trkpt lat="44.86108234901986" lon="12.219980417638427"><ele>-3.0</ele><time>2026-05-02T11:47:37Z</time></trkpt><trkpt lat="44.86105467012442" lon="12.220064986255164"><ele>-2.6666666666666665</ele><time>2026-05-02T11:47:39Z</time></trkpt><trkpt lat="44.86101657299732" lon="12.220185785392523"><ele>-2.333333333333333</ele><time>2026-05-02T11:47:42Z</time></trkpt><trkpt lat="44.861016407229656" lon="12.220286236295523"><ele>-2.0</ele><time>2026-05-02T11:47:44Z</time></trkpt><trkpt lat="44.86105579572661" lon="12.22038923064594"><ele>-1.9999999999999998</ele><time>2026-05-02T11:47:47Z</time></trkpt><trkpt lat="44.86113984599643" lon="12.220422109225783"><ele>-2.0</ele><time>2026-05-02T11:47:50Z</time></trkpt><trkpt lat="44.86121361987078" lon="12.220416225411837"><ele>-2.0</ele><time>2026-05-02T11:48:12Z</time></trkpt><trkpt lat="44.861316188943306" lon="12.220410520359652"><ele>-2.0</ele><time>2026-05-02T11:48:15Z</time></trkpt><trkpt lat="44.86140245587051" lon="12.220396369084531"><ele>-1.9999999999999998</ele><time>2026-05-02T11:48:17Z</time></trkpt><trkpt lat="44.861481449892196" lon="12.22038937855019"><ele>-2.0</ele><time>2026-05-02T11:48:19Z</time></trkpt><trkpt lat="44.86155883007433" lon="12.220380617434962"><ele>-1.9999999999999998</ele><time>2026-05-02T11:48:21Z</time></trkpt><trkpt lat="44.86163027237297" lon="12.220374085024249"><ele>-2.0</ele><time>2026-05-02T11:48:23Z</time></trkpt><trkpt lat="44.861702841976275" lon="12.220366643175081"><ele>-2.0</ele><time>2026-05-02T11:48:25Z</time></trkpt><trkpt lat="44.86177349699366" lon="12.220362015878882"><ele>-2.0</ele><time>2026-05-02T11:48:27Z</time></trkpt><trkpt lat="44.861846698378095" lon="12.220357096592924"><ele>-1.9999999999999998</ele><time>2026-05-02T11:48:29Z</time></trkpt><trkpt lat="44.86193100412679" lon="12.22034753653199"><ele>-2.0</ele><time>2026-05-02T11:48:31Z</time></trkpt><trkpt lat="44.86200958094822" lon="12.220338590431616"><ele>-2.0</ele><time>2026-05-02T11:48:33Z</time></trkpt><trkpt lat="44.86208337018913" lon="12.220331492877518"><ele>-1.9999999999999998</ele><time>2026-05-02T11:48:35Z</time></trkpt><trkpt lat="44.86215692655376" lon="12.220329298486682"><ele>-2.0</ele><time>2026-05-02T11:48:37Z</time></trkpt><trkpt lat="44.862239750455196" lon="12.220318346559797"><ele>-2.0</ele><time>2026-05-02T11:48:39Z</time></trkpt><trkpt lat="44.86231663237844" lon="12.220314470853245"><ele>-1.9999999999999998</ele><time>2026-05-02T11:48:41Z</time></trkpt><trkpt lat="44.86238398883804" lon="12.220310859051384"><ele>-2.0</ele><time>2026-05-02T11:48:43Z</time></trkpt><trkpt lat="44.86244886361397" lon="12.22031061705402"><ele>-2.0</ele><time>2026-05-02T11:48:45Z</time></trkpt><trkpt lat="44.862529407815636" lon="12.22030396466939"><ele>-2.333333333333333</ele><time>2026-05-02T11:48:47Z</time></trkpt><trkpt lat="44.862614500888" lon="12.220296542480268"><ele>-2.6666666666666665</ele><time>2026-05-02T11:48:49Z</time></trkpt><trkpt lat="44.862692139948315" lon="12.220301116186363"><ele>-3.0</ele><time>2026-05-02T11:48:51Z</time></trkpt><trkpt lat="44.86279353666707" lon="12.220291840076586"><ele>-3.333333333333333</ele><time>2026-05-02T11:48:54Z</time></trkpt><trkpt lat="44.86287475668305" lon="12.220286640160893"><ele>-3.6666666666666665</ele><time>2026-05-02T11:48:56Z</time></trkpt><trkpt lat="44.86296073244519" lon="12.220279891897025"><ele>-4.0</ele><time>2026-05-02T11:48:58Z</time></trkpt><trkpt lat="44.863046137209096" lon="12.22027447868608"><ele>-3.9999999999999996</ele><time>2026-05-02T11:49:00Z</time></trkpt><trkpt lat="44.86313079847336" lon="12.220268221521012"><ele>-4.0</ele><time>2026-05-02T11:49:02Z</time></trkpt><trkpt lat="44.863215816873584" lon="12.220262114227797"><ele>-4.0</ele><time>2026-05-02T11:49:04Z</time></trkpt><trkpt lat="44.863299454845276" lon="12.220253226030112"><ele>-4.0</ele><time>2026-05-02T11:49:06Z</time></trkpt><trkpt lat="44.86337798947342" lon="12.220240641640055"><ele>-3.9999999999999996</ele><time>2026-05-02T11:49:08Z</time></trkpt><trkpt lat="44.86344262655742" lon="12.220230953798108"><ele>-4.0</ele><time>2026-05-02T11:49:10Z</time></trkpt><trkpt lat="44.8635162404956" lon="12.220216954729537"><ele>-3.8571428571428568</ele><time>2026-05-02T11:49:12Z</time></trkpt><trkpt lat="44.86360127563507" lon="12.220204962659212"><ele>-3.714285714285714</ele><time>2026-05-02T11:49:14Z</time></trkpt><trkpt lat="44.86366930198041" lon="12.220181242658306"><ele>-3.571428571428571</ele><time>2026-05-02T11:49:16Z</time></trkpt><trkpt lat="44.863747433545264" lon="12.220165593193437"><ele>-3.4285714285714284</ele><time>2026-05-02T11:49:19Z</time></trkpt><trkpt lat="44.86380584992021" lon="12.220207292656937"><ele>-3.2857142857142856</ele><time>2026-05-02T11:49:24Z</time></trkpt><trkpt lat="44.863801972996704" lon="12.220301147580761"><ele>-3.1428571428571423</ele><time>2026-05-02T11:49:35Z</time></trkpt><trkpt lat="44.8638419637911" lon="12.22037524597245"><ele>-3.0</ele><time>2026-05-02T11:49:46Z</time></trkpt><trkpt lat="44.86391338826897" lon="12.220357602846438"><ele>-3.0</ele><time>2026-05-02T11:50:08Z</time></trkpt><trkpt lat="44.863984619234955" lon="12.220319820625454"><ele>-3.0</ele><time>2026-05-02T11:50:11Z</time></trkpt><trkpt lat="44.86407258592122" lon="12.220327101852122"><ele>-3.0</ele><time>2026-05-02T11:50:14Z</time></trkpt><trkpt lat="44.86415801053869" lon="12.22030086797601"><ele>-3.0</ele><time>2026-05-02T11:50:17Z</time></trkpt><trkpt lat="44.8642248102477" lon="12.220315539673095"><ele>-3.0</ele><time>2026-05-02T11:50:19Z</time></trkpt><trkpt lat="44.864303742119404" lon="12.220323901886093"><ele>-3.0</ele><time>2026-05-02T11:50:21Z</time></trkpt><trkpt lat="44.86439494729465" lon="12.220309996777901"><ele>-3.0</ele><time>2026-05-02T11:50:23Z</time></trkpt><trkpt lat="44.864482748097025" lon="12.220301536771084"><ele>-3.0</ele><time>2026-05-02T11:50:25Z</time></trkpt><trkpt lat="44.86457207508447" lon="12.220290667166905"><ele>-3.0</ele><time>2026-05-02T11:50:27Z</time></trkpt><trkpt lat="44.86465653661173" lon="12.220279463607723"><ele>-3.0</ele><time>2026-05-02T11:50:29Z</time></trkpt><trkpt lat="44.86473734064971" lon="12.22028653989605"><ele>-3.0</ele><time>2026-05-02T11:50:31Z</time></trkpt><trkpt lat="44.86481185609744" lon="12.22027719315327"><ele>-3.0</ele><time>2026-05-02T11:50:33Z</time></trkpt><trkpt lat="44.86487994793339" lon="12.220299115403368"><ele>-3.0</ele><time>2026-05-02T11:50:35Z</time></trkpt><trkpt lat="44.86492976246981" lon="12.220372572461622"><ele>-3.0</ele><time>2026-05-02T11:50:37Z</time></trkpt><trkpt lat="44.86493770899608" lon="12.22049144675493"><ele>-3.0</ele><time>2026-05-02T11:50:39Z</time></trkpt><trkpt lat="44.864907000333844" lon="12.220582563917622"><ele>-3.0</ele><time>2026-05-02T11:50:41Z</time></trkpt><trkpt lat="44.864858189693344" lon="12.220670812738868"><ele>-3.0</ele><time>2026-05-02T11:50:43Z</time></trkpt><trkpt lat="44.86481259436219" lon="12.220779850800502"><ele>-3.0</ele><time>2026-05-02T11:50:45Z</time></trkpt><trkpt lat="44.86477177718768" lon="12.220887497434104"><ele>-2.6666666666666665</ele><time>2026-05-02T11:50:47Z</time></trkpt><trkpt lat="44.86474060719439" lon="12.221005911827003"><ele>-2.3333333333333335</ele><time>2026-05-02T11:50:49Z</time></trkpt><trkpt lat="44.8647020003425" lon="12.221118520412158"><ele>-2.0</ele><time>2026-05-02T11:50:51Z</time></trkpt><trkpt lat="44.86466309924527" lon="12.221228911340697"><ele>-1.6666666666666665</ele><time>2026-05-02T11:50:53Z</time></trkpt><trkpt lat="44.864630194062244" lon="12.22134336141132"><ele>-1.3333333333333333</ele><time>2026-05-02T11:50:55Z</time></trkpt><trkpt lat="44.86458994874594" lon="12.221455853914007"><ele>-1.0</ele><time>2026-05-02T11:50:57Z</time></trkpt><trkpt lat="44.86455200196464" lon="12.221570658471345"><ele>-0.8333333333333333</ele><time>2026-05-02T11:50:59Z</time></trkpt><trkpt lat="44.8645191422664" lon="12.221686591224476"><ele>-0.6666666666666666</ele><time>2026-05-02T11:51:01Z</time></trkpt><trkpt lat="44.86447616169564" lon="12.22179544963959"><ele>-0.5</ele><time>2026-05-02T11:51:03Z</time></trkpt><trkpt lat="44.8644408028272" lon="12.221909855423213"><ele>-0.3333333333333333</ele><time>2026-05-02T11:51:05Z</time></trkpt><trkpt lat="44.86440318805247" lon="12.222027064471757"><ele>-0.16666666666666666</ele><time>2026-05-02T11:51:07Z</time></trkpt><trkpt lat="44.864369681397235" lon="12.222145850652243"><ele>0.0</ele><time>2026-05-02T11:51:09Z</time></trkpt><trkpt lat="44.86432744136579" lon="12.222259007201785"><ele>0.0</ele><time>2026-05-02T11:51:11Z</time></trkpt><trkpt lat="44.864299580457924" lon="12.222375560448619"><ele>0.0</ele><time>2026-05-02T11:51:13Z</time></trkpt><trkpt lat="44.86426895311913" lon="12.222480736858637"><ele>0.0</ele><time>2026-05-02T11:51:15Z</time></trkpt><trkpt lat="44.864227911242864" lon="12.222585943815167"><ele>0.0</ele><time>2026-05-02T11:51:17Z</time></trkpt><trkpt lat="44.864192980319714" lon="12.222699550673465"><ele>0.0</ele><time>2026-05-02T11:51:19Z</time></trkpt><trkpt lat="44.86415188081507" lon="12.222813853610571"><ele>0.0</ele><time>2026-05-02T11:51:21Z</time></trkpt><trkpt lat="44.86411182337744" lon="12.22292912067142"><ele>-0.4</ele><time>2026-05-02T11:51:23Z</time></trkpt><trkpt lat="44.86407299692646" lon="12.2230444410342"><ele>-0.8</ele><time>2026-05-02T11:51:25Z</time></trkpt><trkpt lat="44.86403458887823" lon="12.223157210187955"><ele>-1.2000000000000002</ele><time>2026-05-02T11:51:27Z</time></trkpt><trkpt lat="44.86399363243026" lon="12.22327018693361"><ele>-1.6</ele><time>2026-05-02T11:51:29Z</time></trkpt><trkpt lat="44.863955220596864" lon="12.223384630774314"><ele>-2.0</ele><time>2026-05-02T11:51:31Z</time></trkpt><trkpt lat="44.86389069435826" lon="12.223544403046935"><ele>-2.1666666666666665</ele><time>2026-05-02T11:51:34Z</time></trkpt><trkpt lat="44.863853566199666" lon="12.223653238527195"><ele>-2.333333333333333</ele><time>2026-05-02T11:51:36Z</time></trkpt><trkpt lat="44.86386232858319" lon="12.22374997737382"><ele>-2.5</ele><time>2026-05-02T11:51:38Z</time></trkpt><trkpt lat="44.86391582939795" lon="12.223823828660382"><ele>-2.6666666666666665</ele><time>2026-05-02T11:51:40Z</time></trkpt><trkpt lat="44.86399841682713" lon="12.223878102675865"><ele>-2.8333333333333335</ele><time>2026-05-02T11:51:43Z</time></trkpt><trkpt lat="44.86409460532127" lon="12.223892375900295"><ele>-3.0</ele><time>2026-05-02T11:51:46Z</time></trkpt><trkpt lat="44.86416770982209" lon="12.223902687822214"><ele>-3.0</ele><time>2026-05-02T11:51:48Z</time></trkpt><trkpt lat="44.86424161303965" lon="12.22388190714969"><ele>-3.0</ele><time>2026-05-02T11:51:50Z</time></trkpt><trkpt lat="44.86430821162881" lon="12.22385346184928"><ele>-3.0</ele><time>2026-05-02T11:51:52Z</time></trkpt><trkpt lat="44.864376043776225" lon="12.22384631670766"><ele>-3.0</ele><time>2026-05-02T11:51:54Z</time></trkpt><trkpt lat="44.86446714169243" lon="12.223810359958055"><ele>-3.0</ele><time>2026-05-02T11:51:57Z</time></trkpt><trkpt lat="44.86455707634757" lon="12.223806016329265"><ele>-3.0</ele><time>2026-05-02T11:52:00Z</time></trkpt><trkpt lat="44.86465117631521" lon="12.223774331663948"><ele>-2.714285714285714</ele><time>2026-05-02T11:52:03Z</time></trkpt><trkpt lat="44.864719887808675" lon="12.22376690456284"><ele>-2.4285714285714284</ele><time>2026-05-02T11:52:05Z</time></trkpt><trkpt lat="44.86478049526817" lon="12.223737465362545"><ele>-2.142857142857143</ele><time>2026-05-02T11:52:07Z</time></trkpt><trkpt lat="44.86484403061133" lon="12.22373357275521"><ele>-1.857142857142857</ele><time>2026-05-02T11:52:09Z</time></trkpt><trkpt lat="44.86493490382165" lon="12.223739931625925"><ele>-1.5714285714285712</ele><time>2026-05-02T11:52:12Z</time></trkpt><trkpt lat="44.865029723351356" lon="12.223728537623076"><ele>-1.2857142857142856</ele><time>2026-05-02T11:52:15Z</time></trkpt><trkpt lat="44.86509427405099" lon="12.223708226029082"><ele>-1.0</ele><time>2026-05-02T11:52:17Z</time></trkpt><trkpt lat="44.86517777264481" lon="12.223677630846474"><ele>-1.0</ele><time>2026-05-02T11:52:19Z</time></trkpt><trkpt lat="44.86525420095447" lon="12.223646050139218"><ele>-0.9999999999999999</ele><time>2026-05-02T11:52:21Z</time></trkpt><trkpt lat="44.865327816345534" lon="12.223622824089498"><ele>-1.0</ele><time>2026-05-02T11:52:23Z</time></trkpt><trkpt lat="44.865403465666994" lon="12.223606560647776"><ele>-1.0</ele><time>2026-05-02T11:52:25Z</time></trkpt><trkpt lat="44.86547166330634" lon="12.223583750003527"><ele>-0.9999999999999999</ele><time>2026-05-02T11:52:27Z</time></trkpt><trkpt lat="44.86553940874701" lon="12.22357973045433"><ele>-1.0</ele><time>2026-05-02T11:52:29Z</time></trkpt><trkpt lat="44.86556442410386" lon="12.223673779495536"><ele>-1.0</ele><time>2026-05-02T11:53:14Z</time></trkpt><trkpt lat="44.86555582189738" lon="12.223797283585139"><ele>-0.9999999999999999</ele><time>2026-05-02T11:53:17Z</time></trkpt><trkpt lat="44.8655493257373" lon="12.223911020761633"><ele>-1.0</ele><time>2026-05-02T11:53:19Z</time></trkpt><trkpt lat="44.86555778556246" lon="12.224027188080186"><ele>-1.0</ele><time>2026-05-02T11:53:21Z</time></trkpt><trkpt lat="44.86555956047497" lon="12.224130108982106"><ele>-1.0</ele><time>2026-05-02T11:53:23Z</time></trkpt><trkpt lat="44.86556191026801" lon="12.22422771724314"><ele>-0.9999999999999999</ele><time>2026-05-02T11:53:25Z</time></trkpt><trkpt lat="44.86556879496634" lon="12.22433098616696"><ele>-1.0</ele><time>2026-05-02T11:53:27Z</time></trkpt><trkpt lat="44.86557337695881" lon="12.224444570214208"><ele>-1.1428571428571428</ele><time>2026-05-02T11:53:29Z</time></trkpt><trkpt lat="44.865589897906844" lon="12.224537209135033"><ele>-1.2857142857142856</ele><time>2026-05-02T11:53:31Z</time></trkpt><trkpt lat="44.86559435832148" lon="12.224628014767733"><ele>-1.4285714285714284</ele><time>2026-05-02T11:53:33Z</time></trkpt><trkpt lat="44.86559595464795" lon="12.224745691748682"><ele>-1.5714285714285714</ele><time>2026-05-02T11:53:35Z</time></trkpt><trkpt lat="44.865601413422354" lon="12.224847245119262"><ele>-1.714285714285714</ele><time>2026-05-02T11:53:37Z</time></trkpt><trkpt lat="44.86560256441764" lon="12.224939774496347"><ele>-1.857142857142857</ele><time>2026-05-02T11:53:39Z</time></trkpt><trkpt lat="44.865594777873696" lon="12.225052056952707"><ele>-2.0</ele><time>2026-05-02T11:53:42Z</time></trkpt><trkpt lat="44.86560085922126" lon="12.225154162830213"><ele>-2.2857142857142856</ele><time>2026-05-02T11:53:44Z</time></trkpt><trkpt lat="44.86560328524727" lon="12.22525738702002"><ele>-2.571428571428571</ele><time>2026-05-02T11:53:46Z</time></trkpt><trkpt lat="44.86560869599897" lon="12.225360904187962"><ele>-2.8571428571428568</ele><time>2026-05-02T11:53:48Z</time></trkpt><trkpt lat="44.865625519555145" lon="12.225447692721223"><ele>-3.142857142857143</ele><time>2026-05-02T11:53:50Z</time></trkpt><trkpt lat="44.865623634058245" lon="12.225555490263975"><ele>-3.428571428571428</ele><time>2026-05-02T11:53:52Z</time></trkpt><trkpt lat="44.86562689938206" lon="12.225644396947553"><ele>-3.714285714285714</ele><time>2026-05-02T11:53:54Z</time></trkpt><trkpt lat="44.865630735723094" lon="12.225758631155013"><ele>-4.0</ele><time>2026-05-02T11:53:56Z</time></trkpt><trkpt lat="44.865636448859185" lon="12.225875666299748"><ele>-3.9999999999999996</ele><time>2026-05-02T11:53:58Z</time></trkpt><trkpt lat="44.86564752295681" lon="12.22600031738523"><ele>-4.0</ele><time>2026-05-02T11:54:00Z</time></trkpt><trkpt lat="44.86566748698049" lon="12.226102690573137"><ele>-4.0</ele><time>2026-05-02T11:54:02Z</time></trkpt><trkpt lat="44.865688464857804" lon="12.226200855094216"><ele>-4.0</ele><time>2026-05-02T11:54:04Z</time></trkpt><trkpt lat="44.86571026592793" lon="12.22630147202487"><ele>-3.9999999999999996</ele><time>2026-05-02T11:54:06Z</time></trkpt><trkpt lat="44.865732210329966" lon="12.226414935195658"><ele>-4.0</ele><time>2026-05-02T11:54:08Z</time></trkpt><trkpt lat="44.86576033733666" lon="12.22653017439524"><ele>-3.833333333333333</ele><time>2026-05-02T11:54:10Z</time></trkpt><trkpt lat="44.865781491297305" lon="12.226643073415225"><ele>-3.6666666666666665</ele><time>2026-05-02T11:54:12Z</time></trkpt><trkpt lat="44.86580926363212" lon="12.226762758675857"><ele>-3.5</ele><time>2026-05-02T11:54:14Z</time></trkpt><trkpt lat="44.86583502284406" lon="12.226883631457943"><ele>-3.333333333333333</ele><time>2026-05-02T11:54:16Z</time></trkpt><trkpt lat="44.865864474115725" lon="12.227004964938505"><ele>-3.1666666666666665</ele><time>2026-05-02T11:54:18Z</time></trkpt><trkpt lat="44.86589138540045" lon="12.227113458768214"><ele>-3.0</ele><time>2026-05-02T11:54:20Z</time></trkpt><trkpt lat="44.86591483509185" lon="12.227216806973622"><ele>-3.0</ele><time>2026-05-02T11:54:22Z</time></trkpt><trkpt lat="44.86594360623572" lon="12.227332270074488"><ele>-3.0</ele><time>2026-05-02T11:54:24Z</time></trkpt><trkpt lat="44.8659691536124" lon="12.227441363911144"><ele>-3.0</ele><time>2026-05-02T11:54:26Z</time></trkpt><trkpt lat="44.86599957190275" lon="12.227549194493198"><ele>-3.0</ele><time>2026-05-02T11:54:28Z</time></trkpt><trkpt lat="44.8660272324232" lon="12.227656775841064"><ele>-3.0</ele><time>2026-05-02T11:54:31Z</time></trkpt><trkpt lat="44.86606365936771" lon="12.22778014121872"><ele>-3.0</ele><time>2026-05-02T11:54:34Z</time></trkpt><trkpt lat="44.866086132011326" lon="12.22790939060701"><ele>-3.0</ele><time>2026-05-02T11:54:36Z</time></trkpt><trkpt lat="44.8661104589724" lon="12.2280389294785"><ele>-3.0</ele><time>2026-05-02T11:54:38Z</time></trkpt><trkpt lat="44.866136016314165" lon="12.228150896292552"><ele>-3.0</ele><time>2026-05-02T11:54:40Z</time></trkpt><trkpt lat="44.866160369529844" lon="12.228259959698072"><ele>-3.0</ele><time>2026-05-02T11:54:42Z</time></trkpt><trkpt lat="44.86618479104852" lon="12.2283637626559"><ele>-3.0</ele><time>2026-05-02T11:54:44Z</time></trkpt><trkpt lat="44.86621012344668" lon="12.228476350942096"><ele>-3.0</ele><time>2026-05-02T11:54:46Z</time></trkpt><trkpt lat="44.86623459715737" lon="12.228587519493594"><ele>-3.0</ele><time>2026-05-02T11:54:48Z</time></trkpt><trkpt lat="44.86625672301102" lon="12.22869589088377"><ele>-3.0</ele><time>2026-05-02T11:54:50Z</time></trkpt><trkpt lat="44.86628581910985" lon="12.228811687964079"><ele>-3.0</ele><time>2026-05-02T11:54:52Z</time></trkpt><trkpt lat="44.86630958937119" lon="12.228921680276734"><ele>-3.0</ele><time>2026-05-02T11:54:54Z</time></trkpt><trkpt lat="44.86632985859393" lon="12.229021188418317"><ele>-3.0</ele><time>2026-05-02T11:54:56Z</time></trkpt><trkpt lat="44.86635376892875" lon="12.22913160738268"><ele>-3.0</ele><time>2026-05-02T11:54:58Z</time></trkpt><trkpt lat="44.866379084293804" lon="12.229248762352244"><ele>-2.8333333333333335</ele><time>2026-05-02T11:55:00Z</time></trkpt><trkpt lat="44.86640423379088" lon="12.229362131088862"><ele>-2.6666666666666665</ele><time>2026-05-02T11:55:02Z</time></trkpt><trkpt lat="44.86642544793761" lon="12.229463284081307"><ele>-2.5</ele><time>2026-05-02T11:55:04Z</time></trkpt><trkpt lat="44.86644615250313" lon="12.229554483471839"><ele>-2.333333333333333</ele><time>2026-05-02T11:55:06Z</time></trkpt><trkpt lat="44.86646611748879" lon="12.229659391945063"><ele>-2.1666666666666665</ele><time>2026-05-02T11:55:08Z</time></trkpt><trkpt lat="44.86649084768479" lon="12.229772750909897"><ele>-2.0</ele><time>2026-05-02T11:55:10Z</time></trkpt><trkpt lat="44.86651905309665" lon="12.229885830855318"><ele>-2.333333333333333</ele><time>2026-05-02T11:55:12Z</time></trkpt><trkpt lat="44.86654540610435" lon="12.23000502180035"><ele>-2.6666666666666665</ele><time>2026-05-02T11:55:14Z</time></trkpt><trkpt lat="44.866570379137606" lon="12.230122954279421"><ele>-3.0</ele><time>2026-05-02T11:55:16Z</time></trkpt><trkpt lat="44.86659539933219" lon="12.230239902839545"><ele>-3.333333333333333</ele><time>2026-05-02T11:55:18Z</time></trkpt><trkpt lat="44.86661993111436" lon="12.230341789005099"><ele>-3.6666666666666665</ele><time>2026-05-02T11:55:20Z</time></trkpt><trkpt lat="44.866643328923665" lon="12.230447528257642"><ele>-4.0</ele><time>2026-05-02T11:55:22Z</time></trkpt><trkpt lat="44.866668151090096" lon="12.230562522478037"><ele>-3.833333333333333</ele><time>2026-05-02T11:55:24Z</time></trkpt><trkpt lat="44.866690948394265" lon="12.230673111441892"><ele>-3.6666666666666665</ele><time>2026-05-02T11:55:26Z</time></trkpt><trkpt lat="44.8667176952295" lon="12.230790481656712"><ele>-3.5</ele><time>2026-05-02T11:55:28Z</time></trkpt><trkpt lat="44.86674267518425" lon="12.230907365972222"><ele>-3.333333333333333</ele><time>2026-05-02T11:55:30Z</time></trkpt><trkpt lat="44.86676439099696" lon="12.23101112293788"><ele>-3.1666666666666665</ele><time>2026-05-02T11:55:32Z</time></trkpt><trkpt lat="44.866784755100035" lon="12.231104114551341"><ele>-3.0</ele><time>2026-05-02T11:55:34Z</time></trkpt><trkpt lat="44.866805742719286" lon="12.231197763679155"><ele>-2.8333333333333335</ele><time>2026-05-02T11:55:36Z</time></trkpt><trkpt lat="44.866825642358556" lon="12.231312048710008"><ele>-2.6666666666666665</ele><time>2026-05-02T11:55:37.999Z</time></trkpt><trkpt lat="44.866849682803405" lon="12.231426868677163"><ele>-2.5</ele><time>2026-05-02T11:55:39.999Z</time></trkpt><trkpt lat="44.86687400889033" lon="12.231537158492602"><ele>-2.333333333333333</ele><time>2026-05-02T11:55:41.999Z</time></trkpt><trkpt lat="44.86689763459511" lon="12.231647703547205"><ele>-2.1666666666666665</ele><time>2026-05-02T11:55:44Z</time></trkpt><trkpt lat="44.8669290536516" lon="12.231753260478474"><ele>-2.0</ele><time>2026-05-02T11:55:46Z</time></trkpt><trkpt lat="44.866971058867584" lon="12.231854628050174"><ele>-1.9999999999999998</ele><time>2026-05-02T11:55:49Z</time></trkpt><trkpt lat="44.866945383865676" lon="12.231968220460008"><ele>-2.0</ele><time>2026-05-02T11:55:53Z</time></trkpt><trkpt lat="44.86688123684721" lon="12.231973671844743"><ele>-2.0</ele><time>2026-05-02T11:55:55Z</time></trkpt><trkpt lat="44.86680498083208" lon="12.231985026333255"><ele>-2.0</ele><time>2026-05-02T11:55:57Z</time></trkpt><trkpt lat="44.866716985701146" lon="12.231991344541298"><ele>-1.9999999999999998</ele><time>2026-05-02T11:55:59Z</time></trkpt><trkpt lat="44.86663258540696" lon="12.232002020215763"><ele>-2.0</ele><time>2026-05-02T11:56:01Z</time></trkpt><trkpt lat="44.866547093221186" lon="12.232021009220071"><ele>-2.1666666666666665</ele><time>2026-05-02T11:56:03Z</time></trkpt><trkpt lat="44.86647039864091" lon="12.23204364864513"><ele>-2.333333333333333</ele><time>2026-05-02T11:56:05Z</time></trkpt><trkpt lat="44.86638823235528" lon="12.232058470140636"><ele>-2.5</ele><time>2026-05-02T11:56:07Z</time></trkpt><trkpt lat="44.86631133895197" lon="12.232073553116942"><ele>-2.6666666666666665</ele><time>2026-05-02T11:56:09Z</time></trkpt><trkpt lat="44.86623945804668" lon="12.232099705868892"><ele>-2.8333333333333335</ele><time>2026-05-02T11:56:11Z</time></trkpt><trkpt lat="44.86616854604526" lon="12.232115355669517"><ele>-3.0</ele><time>2026-05-02T11:56:13Z</time></trkpt><trkpt lat="44.86608177427399" lon="12.232129719260051"><ele>-3.0</ele><time>2026-05-02T11:56:15Z</time></trkpt><trkpt lat="44.86599739157705" lon="12.23216605351082"><ele>-3.0</ele><time>2026-05-02T11:56:17Z</time></trkpt><trkpt lat="44.86590850919102" lon="12.232172104535966"><ele>-3.0</ele><time>2026-05-02T11:56:19Z</time></trkpt><trkpt lat="44.865820948377426" lon="12.232194831075484"><ele>-3.0</ele><time>2026-05-02T11:56:21Z</time></trkpt><trkpt lat="44.86573133400277" lon="12.232220020278602"><ele>-3.0</ele><time>2026-05-02T11:56:23Z</time></trkpt><trkpt lat="44.86564091626307" lon="12.232229023800526"><ele>-3.0</ele><time>2026-05-02T11:56:25Z</time></trkpt><trkpt lat="44.86555382514049" lon="12.23225356134058"><ele>-2.4</ele><time>2026-05-02T11:56:27Z</time></trkpt><trkpt lat="44.86546348634721" lon="12.232275287086361"><ele>-1.7999999999999998</ele><time>2026-05-02T11:56:29Z</time></trkpt><trkpt lat="44.865372156979575" lon="12.232294049974303"><ele>-1.2</ele><time>2026-05-02T11:56:31Z</time></trkpt><trkpt lat="44.86528428699586" lon="12.232327858107553"><ele>-0.6</ele><time>2026-05-02T11:56:33Z</time></trkpt><trkpt lat="44.865193352687164" lon="12.232337456867391"><ele>0.0</ele><time>2026-05-02T11:56:35Z</time></trkpt><trkpt lat="44.86510297368767" lon="12.232353878442858"><ele>0.0</ele><time>2026-05-02T11:56:37Z</time></trkpt><trkpt lat="44.86501356908368" lon="12.232380677044631"><ele>0.0</ele><time>2026-05-02T11:56:39Z</time></trkpt><trkpt lat="44.864922315027" lon="12.23239148333754"><ele>0.0</ele><time>2026-05-02T11:56:41Z</time></trkpt><trkpt lat="44.86483207502288" lon="12.232418772743204"><ele>0.0</ele><time>2026-05-02T11:56:43Z</time></trkpt><trkpt lat="44.86474569532527" lon="12.232438364220886"><ele>0.0</ele><time>2026-05-02T11:56:45Z</time></trkpt><trkpt lat="44.86466735546778" lon="12.232451233220086"><ele>0.0</ele><time>2026-05-02T11:56:47Z</time></trkpt><trkpt lat="44.86458315542531" lon="12.232472266279455"><ele>0.0</ele><time>2026-05-02T11:56:49Z</time></trkpt><trkpt lat="44.864494877437" lon="12.232503942035741"><ele>0.0</ele><time>2026-05-02T11:56:51Z</time></trkpt><trkpt lat="44.86440267595562" lon="12.232514727744324"><ele>0.0</ele><time>2026-05-02T11:56:53Z</time></trkpt><trkpt lat="44.864315769156065" lon="12.232536850723173"><ele>0.0</ele><time>2026-05-02T11:56:55Z</time></trkpt><trkpt lat="44.86423567895726" lon="12.232557003250314"><ele>0.0</ele><time>2026-05-02T11:56:57Z</time></trkpt><trkpt lat="44.864162435241624" lon="12.232575963180608"><ele>0.0</ele><time>2026-05-02T11:56:59Z</time></trkpt><trkpt lat="44.86409547948232" lon="12.232595495382794"><ele>-0.3333333333333333</ele><time>2026-05-02T11:57:01Z</time></trkpt><trkpt lat="44.86403042462569" lon="12.232595523699299"><ele>-0.6666666666666666</ele><time>2026-05-02T11:57:03Z</time></trkpt><trkpt lat="44.863959658812945" lon="12.232622124035272"><ele>-1.0</ele><time>2026-05-02T11:57:05Z</time></trkpt><trkpt lat="44.863893864159635" lon="12.232633001736488"><ele>-1.3333333333333333</ele><time>2026-05-02T11:57:07Z</time></trkpt><trkpt lat="44.86380861163957" lon="12.232650297891311"><ele>-1.6666666666666665</ele><time>2026-05-02T11:57:10Z</time></trkpt><trkpt lat="44.86384337458877" lon="12.232761270790343"><ele>-2.0</ele><time>2026-05-02T11:57:14Z</time></trkpt><trkpt lat="44.863910091946195" lon="12.232825055780445"><ele>-2.0</ele><time>2026-05-02T11:57:16Z</time></trkpt><trkpt lat="44.86390214953149" lon="12.23294828451304"><ele>-2.0</ele><time>2026-05-02T11:57:18Z</time></trkpt><trkpt lat="44.86391592062538" lon="12.233067524942399"><ele>-2.0</ele><time>2026-05-02T11:57:20Z</time></trkpt><trkpt lat="44.86392442521542" lon="12.23319552080736"><ele>-2.0</ele><time>2026-05-02T11:57:22Z</time></trkpt><trkpt lat="44.86393112714602" lon="12.233326204611663"><ele>-2.0</ele><time>2026-05-02T11:57:24Z</time></trkpt><trkpt lat="44.86393303523824" lon="12.233461475994453"><ele>-2.2</ele><time>2026-05-02T11:57:26Z</time></trkpt><trkpt lat="44.8639263339331" lon="12.233599764252872"><ele>-2.4000000000000004</ele><time>2026-05-02T11:57:28Z</time></trkpt><trkpt lat="44.86390853017108" lon="12.233736739419697"><ele>-2.5999999999999996</ele><time>2026-05-02T11:57:30Z</time></trkpt><trkpt lat="44.86387893469486" lon="12.233867591014935"><ele>-2.8</ele><time>2026-05-02T11:57:32Z</time></trkpt><trkpt lat="44.86384639098125" lon="12.233996381286204"><ele>-3.0</ele><time>2026-05-02T11:57:34Z</time></trkpt><trkpt lat="44.863818736996954" lon="12.23411943490237"><ele>-3.2</ele><time>2026-05-02T11:57:36Z</time></trkpt><trkpt lat="44.86379489281655" lon="12.23424794257914"><ele>-3.4</ele><time>2026-05-02T11:57:38Z</time></trkpt><trkpt lat="44.86376281184158" lon="12.234378202830772"><ele>-3.6000000000000005</ele><time>2026-05-02T11:57:40Z</time></trkpt><trkpt lat="44.86374057554337" lon="12.234510600309765"><ele>-3.8000000000000003</ele><time>2026-05-02T11:57:42Z</time></trkpt><trkpt lat="44.8637217976526" lon="12.234643358957575"><ele>-4.0</ele><time>2026-05-02T11:57:44Z</time></trkpt><trkpt lat="44.86370955676977" lon="12.234782407829407"><ele>-4.0</ele><time>2026-05-02T11:57:46Z</time></trkpt><trkpt lat="44.863709574618895" lon="12.234923072266636"><ele>-4.0</ele><time>2026-05-02T11:57:48Z</time></trkpt><trkpt lat="44.86370561680998" lon="12.235061749194156"><ele>-4.0</ele><time>2026-05-02T11:57:50Z</time></trkpt><trkpt lat="44.863708273937334" lon="12.235195005634559"><ele>-4.0</ele><time>2026-05-02T11:57:52Z</time></trkpt><trkpt lat="44.86371051113615" lon="12.235329548854962"><ele>-4.0</ele><time>2026-05-02T11:57:54Z</time></trkpt><trkpt lat="44.86371886363558" lon="12.23545693884251"><ele>-3.9999999999999996</ele><time>2026-05-02T11:57:56Z</time></trkpt><trkpt lat="44.863728531264265" lon="12.235581671209694"><ele>-4.0</ele><time>2026-05-02T11:57:58Z</time></trkpt><trkpt lat="44.86373953531628" lon="12.235700546657505"><ele>-4.0</ele><time>2026-05-02T11:58:00Z</time></trkpt><trkpt lat="44.863746390554304" lon="12.23581062240421"><ele>-4.0</ele><time>2026-05-02T11:58:02Z</time></trkpt><trkpt lat="44.863758138935545" lon="12.235929675464758"><ele>-3.9999999999999996</ele><time>2026-05-02T11:58:04Z</time></trkpt><trkpt lat="44.8637777993387" lon="12.236052914379606"><ele>-4.0</ele><time>2026-05-02T11:58:06Z</time></trkpt><trkpt lat="44.86380283720375" lon="12.236175984112181"><ele>-3.8000000000000003</ele><time>2026-05-02T11:58:08Z</time></trkpt><trkpt lat="44.86383517392913" lon="12.236300153744912"><ele>-3.6000000000000005</ele><time>2026-05-02T11:58:10Z</time></trkpt><trkpt lat="44.863865703755735" lon="12.236426302760268"><ele>-3.4</ele><time>2026-05-02T11:58:12Z</time></trkpt><trkpt lat="44.86389502413384" lon="12.23655181665213"><ele>-3.2</ele><time>2026-05-02T11:58:14Z</time></trkpt><trkpt lat="44.86391996396266" lon="12.236673300671367"><ele>-3.0</ele><time>2026-05-02T11:58:16Z</time></trkpt><trkpt lat="44.86395129165661" lon="12.23678945412935"><ele>-3.0</ele><time>2026-05-02T11:58:18Z</time></trkpt><trkpt lat="44.8639776763119" lon="12.236906302296763"><ele>-3.0</ele><time>2026-05-02T11:58:20Z</time></trkpt><trkpt lat="44.86400610581825" lon="12.237015450623293"><ele>-3.0</ele><time>2026-05-02T11:58:22Z</time></trkpt><trkpt lat="44.86403068476463" lon="12.23712465738095"><ele>-3.0</ele><time>2026-05-02T11:58:24Z</time></trkpt><trkpt lat="44.86405632374102" lon="12.23723819034708"><ele>-3.0</ele><time>2026-05-02T11:58:26Z</time></trkpt><trkpt lat="44.864090664596844" lon="12.23735668503548"><ele>-3.0</ele><time>2026-05-02T11:58:28Z</time></trkpt><trkpt lat="44.864121209427616" lon="12.237480977675139"><ele>-3.0</ele><time>2026-05-02T11:58:30Z</time></trkpt><trkpt lat="44.8641469283057" lon="12.237605939886398"><ele>-3.0</ele><time>2026-05-02T11:58:32Z</time></trkpt><trkpt lat="44.864180190325726" lon="12.23771899938169"><ele>-3.0</ele><time>2026-05-02T11:58:34Z</time></trkpt><trkpt lat="44.86421598644694" lon="12.237832052826244"><ele>-3.0</ele><time>2026-05-02T11:58:36Z</time></trkpt><trkpt lat="44.864239208805195" lon="12.237943851965024"><ele>-3.0</ele><time>2026-05-02T11:58:38Z</time></trkpt><trkpt lat="44.86426188537895" lon="12.238049400728311"><ele>-3.0</ele><time>2026-05-02T11:58:40Z</time></trkpt><trkpt lat="44.86428554099633" lon="12.238150597362635"><ele>-2.8333333333333335</ele><time>2026-05-02T11:58:42Z</time></trkpt><trkpt lat="44.864308755523204" lon="12.238264373455221"><ele>-2.6666666666666665</ele><time>2026-05-02T11:58:44Z</time></trkpt><trkpt lat="44.86433171114718" lon="12.238386274407924"><ele>-2.5</ele><time>2026-05-02T11:58:46Z</time></trkpt><trkpt lat="44.8643615716194" lon="12.238510399444271"><ele>-2.333333333333333</ele><time>2026-05-02T11:58:48Z</time></trkpt><trkpt lat="44.86438913979506" lon="12.238632825988327"><ele>-2.1666666666666665</ele><time>2026-05-02T11:58:50Z</time></trkpt><trkpt lat="44.864419456567546" lon="12.23875398173801"><ele>-2.0</ele><time>2026-05-02T11:58:52Z</time></trkpt><trkpt lat="44.86445471262868" lon="12.238876527394309"><ele>-2.2</ele><time>2026-05-02T11:58:54Z</time></trkpt><trkpt lat="44.86448910476772" lon="12.23899962163834"><ele>-2.4000000000000004</ele><time>2026-05-02T11:58:56Z</time></trkpt><trkpt lat="44.86451945450437" lon="12.239125003847299"><ele>-2.5999999999999996</ele><time>2026-05-02T11:58:58Z</time></trkpt><trkpt lat="44.86457134068679" lon="12.239232702884797"><ele>-2.8</ele><time>2026-05-02T11:59:00Z</time></trkpt><trkpt lat="44.864646988894314" lon="12.239300191661956"><ele>-3.0</ele><time>2026-05-02T11:59:02Z</time></trkpt><trkpt lat="44.8647307357819" lon="12.239331006633659"><ele>-3.0</ele><time>2026-05-02T11:59:04Z</time></trkpt><trkpt lat="44.864815177348405" lon="12.23934106343927"><ele>-3.0</ele><time>2026-05-02T11:59:06Z</time></trkpt><trkpt lat="44.86489554035544" lon="12.2393478994511"><ele>-3.0</ele><time>2026-05-02T11:59:08Z</time></trkpt><trkpt lat="44.8649691360351" lon="12.239344491694117"><ele>-3.0</ele><time>2026-05-02T11:59:10Z</time></trkpt><trkpt lat="44.865039593457276" lon="12.239362981966309"><ele>-3.0</ele><time>2026-05-02T11:59:12Z</time></trkpt><trkpt lat="44.865091092308944" lon="12.239433364671248"><ele>-3.0</ele><time>2026-05-02T11:59:14Z</time></trkpt><trkpt lat="44.8651056071628" lon="12.239548763738595"><ele>-3.0</ele><time>2026-05-02T11:59:16Z</time></trkpt><trkpt lat="44.86510659154627" lon="12.239676544916595"><ele>-3.0</ele><time>2026-05-02T11:59:18Z</time></trkpt><trkpt lat="44.86511381057181" lon="12.239800094877928"><ele>-3.0</ele><time>2026-05-02T11:59:20Z</time></trkpt><trkpt lat="44.865125234671815" lon="12.239915595193429"><ele>-3.0</ele><time>2026-05-02T11:59:22Z</time></trkpt><trkpt lat="44.86513687909456" lon="12.240027565813795"><ele>-3.0</ele><time>2026-05-02T11:59:24Z</time></trkpt><trkpt lat="44.8651339413518" lon="12.240142096050786"><ele>-3.0</ele><time>2026-05-02T11:59:26Z</time></trkpt><trkpt lat="44.865143981984154" lon="12.2402705041221"><ele>-3.0</ele><time>2026-05-02T11:59:28Z</time></trkpt><trkpt lat="44.865159437379205" lon="12.240386976122466"><ele>-3.0</ele><time>2026-05-02T11:59:30Z</time></trkpt><trkpt lat="44.86516935959681" lon="12.240511285261393"><ele>-3.0</ele><time>2026-05-02T11:59:32Z</time></trkpt><trkpt lat="44.86517922100398" lon="12.24064100429555"><ele>-3.0</ele><time>2026-05-02T11:59:34Z</time></trkpt><trkpt lat="44.865186330883276" lon="12.240769806911235"><ele>-3.0</ele><time>2026-05-02T11:59:36Z</time></trkpt><trkpt lat="44.865197475257034" lon="12.240901672374525"><ele>-3.0</ele><time>2026-05-02T11:59:38Z</time></trkpt><trkpt lat="44.86520358684777" lon="12.241034074269978"><ele>-3.0</ele><time>2026-05-02T11:59:40Z</time></trkpt><trkpt lat="44.86521123067287" lon="12.24115926117236"><ele>-3.0</ele><time>2026-05-02T11:59:42Z</time></trkpt><trkpt lat="44.8652195096059" lon="12.241280911872341"><ele>-3.0</ele><time>2026-05-02T11:59:44Z</time></trkpt><trkpt lat="44.865231449803154" lon="12.241400716219735"><ele>-3.0</ele><time>2026-05-02T11:59:46Z</time></trkpt><trkpt lat="44.865241450507405" lon="12.241519190264237"><ele>-3.0</ele><time>2026-05-02T11:59:48Z</time></trkpt><trkpt lat="44.865250997013284" lon="12.241650222620656"><ele>-3.0</ele><time>2026-05-02T11:59:50Z</time></trkpt><trkpt lat="44.865254647988195" lon="12.24177557830776"><ele>-3.0</ele><time>2026-05-02T11:59:52Z</time></trkpt><trkpt lat="44.86526631613707" lon="12.241910402254549"><ele>-3.0</ele><time>2026-05-02T11:59:54Z</time></trkpt><trkpt lat="44.86527801011136" lon="12.242041631374313"><ele>-3.0</ele><time>2026-05-02T11:59:56Z</time></trkpt><trkpt lat="44.86528667974877" lon="12.24217328698868"><ele>-3.0</ele><time>2026-05-02T11:59:58Z</time></trkpt><trkpt lat="44.86529679933851" lon="12.242306587030244"><ele>-2.8</ele><time>2026-05-02T12:00:00Z</time></trkpt><trkpt lat="44.86531109520311" lon="12.24243697345633"><ele>-2.5999999999999996</ele><time>2026-05-02T12:00:02Z</time></trkpt><trkpt lat="44.86532012274067" lon="12.242569096180787"><ele>-2.4000000000000004</ele><time>2026-05-02T12:00:04Z</time></trkpt><trkpt lat="44.86532817058039" lon="12.242697325183387"><ele>-2.2</ele><time>2026-05-02T12:00:06Z</time></trkpt><trkpt lat="44.86533775441097" lon="12.24282948890031"><ele>-2.0</ele><time>2026-05-02T12:00:08Z</time></trkpt><trkpt lat="44.86535118981221" lon="12.2429585129784"><ele>-2.0</ele><time>2026-05-02T12:00:10Z</time></trkpt><trkpt lat="44.86536731564051" lon="12.243085767713469"><ele>-2.0</ele><time>2026-05-02T12:00:12Z</time></trkpt><trkpt lat="44.865373558930415" lon="12.243213704430945"><ele>-2.0</ele><time>2026-05-02T12:00:14Z</time></trkpt><trkpt lat="44.86537935760721" lon="12.243343437348843"><ele>-2.0</ele><time>2026-05-02T12:00:16Z</time></trkpt><trkpt lat="44.86538909857104" lon="12.243477152161079"><ele>-2.0</ele><time>2026-05-02T12:00:18Z</time></trkpt><trkpt lat="44.86539994003144" lon="12.2436095077048"><ele>-2.0</ele><time>2026-05-02T12:00:20Z</time></trkpt><trkpt lat="44.865414181632346" lon="12.24374443781398"><ele>-2.0</ele><time>2026-05-02T12:00:22Z</time></trkpt><trkpt lat="44.86541692308162" lon="12.24387684192006"><ele>-2.0</ele><time>2026-05-02T12:00:24Z</time></trkpt><trkpt lat="44.86543184056728" lon="12.24401056720111"><ele>-2.0</ele><time>2026-05-02T12:00:26Z</time></trkpt><trkpt lat="44.86544233289974" lon="12.244137286065158"><ele>-2.0</ele><time>2026-05-02T12:00:28Z</time></trkpt><trkpt lat="44.865445361828456" lon="12.244260261741521"><ele>-1.9999999999999998</ele><time>2026-05-02T12:00:30Z</time></trkpt><trkpt lat="44.86545357397584" lon="12.244381478797878"><ele>-2.0</ele><time>2026-05-02T12:00:32Z</time></trkpt><trkpt lat="44.86546753851418" lon="12.24449697611199"><ele>-2.0</ele><time>2026-05-02T12:00:34Z</time></trkpt><trkpt lat="44.86548623441062" lon="12.244608158203306"><ele>-2.0</ele><time>2026-05-02T12:00:36Z</time></trkpt><trkpt lat="44.865494283255295" lon="12.244729156133873"><ele>-1.9999999999999998</ele><time>2026-05-02T12:00:38Z</time></trkpt><trkpt lat="44.865495772941856" lon="12.244859580781776"><ele>-2.0</ele><time>2026-05-02T12:00:40Z</time></trkpt><trkpt lat="44.86550477370508" lon="12.244990362205948"><ele>-2.0</ele><time>2026-05-02T12:00:42Z</time></trkpt><trkpt lat="44.86551455236614" lon="12.245120531140534"><ele>-2.0</ele><time>2026-05-02T12:00:44Z</time></trkpt><trkpt lat="44.865525449685585" lon="12.245251691837284"><ele>-2.0</ele><time>2026-05-02T12:00:46Z</time></trkpt><trkpt lat="44.8655352648246" lon="12.24538568333149"><ele>-2.0</ele><time>2026-05-02T12:00:48Z</time></trkpt><trkpt lat="44.86555233920217" lon="12.24551078937856"><ele>-2.0</ele><time>2026-05-02T12:00:50Z</time></trkpt><trkpt lat="44.86555504136537" lon="12.24562721787463"><ele>-1.9999999999999998</ele><time>2026-05-02T12:00:52Z</time></trkpt><trkpt lat="44.8655561981752" lon="12.245736493125328"><ele>-2.0</ele><time>2026-05-02T12:00:54Z</time></trkpt><trkpt lat="44.86557001071387" lon="12.245847688669619"><ele>-2.0</ele><time>2026-05-02T12:00:56Z</time></trkpt><trkpt lat="44.86557159161899" lon="12.245961819426483"><ele>-2.0</ele><time>2026-05-02T12:00:58Z</time></trkpt><trkpt lat="44.86558243658653" lon="12.24609077994387"><ele>-1.9999999999999998</ele><time>2026-05-02T12:01:00Z</time></trkpt><trkpt lat="44.86560168200763" lon="12.246214702277017"><ele>-2.0</ele><time>2026-05-02T12:01:02Z</time></trkpt><trkpt lat="44.865606680069675" lon="12.246337427164315"><ele>-1.9999999999999998</ele><time>2026-05-02T12:01:04Z</time></trkpt><trkpt lat="44.86561339555541" lon="12.246456513406796"><ele>-2.0</ele><time>2026-05-02T12:01:06Z</time></trkpt><trkpt lat="44.86561512360367" lon="12.246563963363375"><ele>-2.0</ele><time>2026-05-02T12:01:08Z</time></trkpt><trkpt lat="44.86561795909968" lon="12.246664133505618"><ele>-2.0</ele><time>2026-05-02T12:01:10Z</time></trkpt><trkpt lat="44.86563163348369" lon="12.24676086165631"><ele>-1.9999999999999998</ele><time>2026-05-02T12:01:12Z</time></trkpt><trkpt lat="44.86565383593083" lon="12.246850240708815"><ele>-2.0</ele><time>2026-05-02T12:01:14Z</time></trkpt><trkpt lat="44.86569047290793" lon="12.24698285638908"><ele>-1.9999999999999998</ele><time>2026-05-02T12:01:17Z</time></trkpt><trkpt lat="44.865781534034" lon="12.247011980586127"><ele>-2.0</ele><time>2026-05-02T12:01:19Z</time></trkpt><trkpt lat="44.86586887068478" lon="12.247031409365086"><ele>-2.0</ele><time>2026-05-02T12:01:21Z</time></trkpt><trkpt lat="44.865956229222405" lon="12.247053201278375"><ele>-2.0</ele><time>2026-05-02T12:01:23Z</time></trkpt><trkpt lat="44.86604604787388" lon="12.24706981363666"><ele>-1.9999999999999998</ele><time>2026-05-02T12:01:25Z</time></trkpt><trkpt lat="44.86613053620059" lon="12.24708141142116"><ele>-2.0</ele><time>2026-05-02T12:01:27Z</time></trkpt><trkpt lat="44.866206122311524" lon="12.247096952360707"><ele>-1.9999999999999998</ele><time>2026-05-02T12:01:29Z</time></trkpt><trkpt lat="44.86627863366989" lon="12.2471141306245"><ele>-2.0</ele><time>2026-05-02T12:01:31Z</time></trkpt><trkpt lat="44.866349235529704" lon="12.247117966201214"><ele>-2.0</ele><time>2026-05-02T12:01:33Z</time></trkpt><trkpt lat="44.866422588956546" lon="12.247153016563628"><ele>-2.0</ele><time>2026-05-02T12:01:35Z</time></trkpt><trkpt lat="44.86651144226891" lon="12.24715879830256"><ele>-1.9999999999999998</ele><time>2026-05-02T12:01:37Z</time></trkpt><trkpt lat="44.86660164706536" lon="12.247182379471147"><ele>-2.0</ele><time>2026-05-02T12:01:39Z</time></trkpt><trkpt lat="44.86668882920619" lon="12.24720764705563"><ele>-2.2</ele><time>2026-05-02T12:01:41Z</time></trkpt><trkpt lat="44.86677926364433" lon="12.247224070758383"><ele>-2.4000000000000004</ele><time>2026-05-02T12:01:43Z</time></trkpt><trkpt lat="44.86686728184558" lon="12.247246955834047"><ele>-2.5999999999999996</ele><time>2026-05-02T12:01:45Z</time></trkpt><trkpt lat="44.86695571111582" lon="12.247265351672132"><ele>-2.8</ele><time>2026-05-02T12:01:47Z</time></trkpt><trkpt lat="44.86704569537053" lon="12.247281641341358"><ele>-3.0</ele><time>2026-05-02T12:01:49Z</time></trkpt><trkpt lat="44.86713423216267" lon="12.247299910240788"><ele>-3.0</ele><time>2026-05-02T12:01:51Z</time></trkpt><trkpt lat="44.86722338047887" lon="12.247321581752757"><ele>-3.0</ele><time>2026-05-02T12:01:53Z</time></trkpt><trkpt lat="44.867315045753614" lon="12.24733922037832"><ele>-3.0</ele><time>2026-05-02T12:01:55Z</time></trkpt><trkpt lat="44.86740272849887" lon="12.247356026033264"><ele>-3.0</ele><time>2026-05-02T12:01:57Z</time></trkpt><trkpt lat="44.86749585540524" lon="12.247370446887464"><ele>-3.0</ele><time>2026-05-02T12:01:59Z</time></trkpt><trkpt lat="44.86758462245269" lon="12.24738855557596"><ele>-3.0</ele><time>2026-05-02T12:02:01Z</time></trkpt><trkpt lat="44.867676383305934" lon="12.247414531881319"><ele>-3.0</ele><time>2026-05-02T12:02:03Z</time></trkpt><trkpt lat="44.86776673863026" lon="12.247438363351664"><ele>-3.0</ele><time>2026-05-02T12:02:05Z</time></trkpt><trkpt lat="44.86785639593094" lon="12.2474551507532"><ele>-3.0</ele><time>2026-05-02T12:02:07Z</time></trkpt><trkpt lat="44.86794942571877" lon="12.24746592647957"><ele>-3.0</ele><time>2026-05-02T12:02:09Z</time></trkpt><trkpt lat="44.868040771458034" lon="12.247482808398987"><ele>-3.0</ele><time>2026-05-02T12:02:11Z</time></trkpt><trkpt lat="44.86813050890073" lon="12.247503941945455"><ele>-3.0</ele><time>2026-05-02T12:02:13Z</time></trkpt><trkpt lat="44.86821658471412" lon="12.24752805946498"><ele>-3.0</ele><time>2026-05-02T12:02:15Z</time></trkpt><trkpt lat="44.86830564989187" lon="12.247542672824869"><ele>-3.0</ele><time>2026-05-02T12:02:17Z</time></trkpt><trkpt lat="44.86840033833323" lon="12.24755510368595"><ele>-3.0</ele><time>2026-05-02T12:02:19Z</time></trkpt><trkpt lat="44.86849004813899" lon="12.247586976219667"><ele>-3.0</ele><time>2026-05-02T12:02:21Z</time></trkpt><trkpt lat="44.86857998635452" lon="12.247613656366427"><ele>-3.0</ele><time>2026-05-02T12:02:23Z</time></trkpt><trkpt lat="44.868668875911006" lon="12.247643653398997"><ele>-3.0</ele><time>2026-05-02T12:02:25Z</time></trkpt><trkpt lat="44.86875874142598" lon="12.247683819170541"><ele>-3.0</ele><time>2026-05-02T12:02:27Z</time></trkpt><trkpt lat="44.868847664627026" lon="12.247712907988229"><ele>-3.0</ele><time>2026-05-02T12:02:29Z</time></trkpt><trkpt lat="44.86893761942052" lon="12.247748316954821"><ele>-3.0</ele><time>2026-05-02T12:02:31Z</time></trkpt><trkpt lat="44.86902368003922" lon="12.247781652395751"><ele>-3.0</ele><time>2026-05-02T12:02:33Z</time></trkpt><trkpt lat="44.869112878517896" lon="12.24781003509443"><ele>-3.0</ele><time>2026-05-02T12:02:35Z</time></trkpt><trkpt lat="44.8691920304353" lon="12.24785030472671"><ele>-3.0</ele><time>2026-05-02T12:02:37Z</time></trkpt><trkpt lat="44.86927311452733" lon="12.247878237874936"><ele>-3.0</ele><time>2026-05-02T12:02:39Z</time></trkpt><trkpt lat="44.86934947869042" lon="12.24791119965906"><ele>-3.0</ele><time>2026-05-02T12:02:41Z</time></trkpt><trkpt lat="44.86942305852724" lon="12.247931645495894"><ele>-3.0</ele><time>2026-05-02T12:02:43Z</time></trkpt><trkpt lat="44.869495400871855" lon="12.247976291081729"><ele>-3.0</ele><time>2026-05-02T12:02:46Z</time></trkpt><trkpt lat="44.86953225394771" lon="12.248061427924979"><ele>-3.0</ele><time>2026-05-02T12:02:49Z</time></trkpt><trkpt lat="44.869487454345915" lon="12.24813796718838"><ele>-3.0</ele><time>2026-05-02T12:02:51Z</time></trkpt><trkpt lat="44.869442224370154" lon="12.248208613726751"><ele>-3.0</ele><time>2026-05-02T12:02:53Z</time></trkpt><trkpt lat="44.869388543643446" lon="12.248300021517803"><ele>-3.0</ele><time>2026-05-02T12:02:55Z</time></trkpt><trkpt lat="44.86933103756353" lon="12.248397372072654"><ele>-3.2</ele><time>2026-05-02T12:02:57Z</time></trkpt><trkpt lat="44.86927164949551" lon="12.248497287980223"><ele>-3.4</ele><time>2026-05-02T12:02:59Z</time></trkpt><trkpt lat="44.86921213310551" lon="12.248591530368492"><ele>-3.6000000000000005</ele><time>2026-05-02T12:03:01Z</time></trkpt><trkpt lat="44.86915631095414" lon="12.248690395941853"><ele>-3.8000000000000003</ele><time>2026-05-02T12:03:03Z</time></trkpt><trkpt lat="44.86909959161765" lon="12.24878880268811"><ele>-4.0</ele><time>2026-05-02T12:03:05Z</time></trkpt><trkpt lat="44.86904203478699" lon="12.248890133951319"><ele>-4.166666666666666</ele><time>2026-05-02T12:03:07Z</time></trkpt><trkpt lat="44.86898765338532" lon="12.24898383635349"><ele>-4.333333333333333</ele><time>2026-05-02T12:03:09Z</time></trkpt><trkpt lat="44.868935320224516" lon="12.24907343047586"><ele>-4.5</ele><time>2026-05-02T12:03:11Z</time></trkpt><trkpt lat="44.86888390950144" lon="12.249159143456106"><ele>-4.666666666666667</ele><time>2026-05-02T12:03:13Z</time></trkpt><trkpt lat="44.86883438508988" lon="12.24923855382959"><ele>-4.833333333333334</ele><time>2026-05-02T12:03:15Z</time></trkpt><trkpt lat="44.86877775971539" lon="12.249316115475633"><ele>-5.0</ele><time>2026-05-02T12:03:17Z</time></trkpt><trkpt lat="44.86872053766181" lon="12.249418238147246"><ele>-5.0</ele><time>2026-05-02T12:03:19Z</time></trkpt><trkpt lat="44.86866603072845" lon="12.249514201178533"><ele>-5.0</ele><time>2026-05-02T12:03:21Z</time></trkpt><trkpt lat="44.868608633260166" lon="12.249611061051972"><ele>-5.0</ele><time>2026-05-02T12:03:23Z</time></trkpt><trkpt lat="44.868553890926435" lon="12.249703403458966"><ele>-5.0</ele><time>2026-05-02T12:03:25Z</time></trkpt><trkpt lat="44.86850389955202" lon="12.249791129344962"><ele>-5.0</ele><time>2026-05-02T12:03:27Z</time></trkpt><trkpt lat="44.86846013210941" lon="12.249880610696836"><ele>-5.0</ele><time>2026-05-02T12:03:29Z</time></trkpt><trkpt lat="44.868403177074526" lon="12.249967235859147"><ele>-4.833333333333334</ele><time>2026-05-02T12:03:31Z</time></trkpt><trkpt lat="44.86834825096466" lon="12.25006008715154"><ele>-4.666666666666667</ele><time>2026-05-02T12:03:33Z</time></trkpt><trkpt lat="44.86829518915761" lon="12.250150551129773"><ele>-4.5</ele><time>2026-05-02T12:03:35Z</time></trkpt><trkpt lat="44.868245643128695" lon="12.250231375912556"><ele>-4.333333333333333</ele><time>2026-05-02T12:03:37Z</time></trkpt><trkpt lat="44.86818991441747" lon="12.25032361835324"><ele>-4.166666666666666</ele><time>2026-05-02T12:03:39Z</time></trkpt><trkpt lat="44.868134111735266" lon="12.250426409500616"><ele>-4.0</ele><time>2026-05-02T12:03:41Z</time></trkpt><trkpt lat="44.868073777118525" lon="12.250519815567468"><ele>-4.0</ele><time>2026-05-02T12:03:43Z</time></trkpt><trkpt lat="44.868017461172016" lon="12.250617288533704"><ele>-4.0</ele><time>2026-05-02T12:03:45Z</time></trkpt><trkpt lat="44.867963907775525" lon="12.250718383709241"><ele>-4.0</ele><time>2026-05-02T12:03:47Z</time></trkpt><trkpt lat="44.867903445753875" lon="12.250813433520515"><ele>-4.0</ele><time>2026-05-02T12:03:49Z</time></trkpt><trkpt lat="44.867848716203184" lon="12.250913160342325"><ele>-4.0</ele><time>2026-05-02T12:03:51Z</time></trkpt><trkpt lat="44.86778611160469" lon="12.25101086141754"><ele>-3.8000000000000003</ele><time>2026-05-02T12:03:53Z</time></trkpt><trkpt lat="44.867728965918175" lon="12.251110114526323"><ele>-3.6000000000000005</ele><time>2026-05-02T12:03:55Z</time></trkpt><trkpt lat="44.867668077655644" lon="12.251206051267292"><ele>-3.4</ele><time>2026-05-02T12:03:57Z</time></trkpt><trkpt lat="44.867612546428475" lon="12.25130507312755"><ele>-3.2</ele><time>2026-05-02T12:03:59Z</time></trkpt><trkpt lat="44.86755484915786" lon="12.251408025899138"><ele>-3.0</ele><time>2026-05-02T12:04:01Z</time></trkpt><trkpt lat="44.86749544397744" lon="12.251505564696023"><ele>-3.0</ele><time>2026-05-02T12:04:03Z</time></trkpt><trkpt lat="44.8674355050122" lon="12.251602243619937"><ele>-3.0</ele><time>2026-05-02T12:04:05Z</time></trkpt><trkpt lat="44.867376613895146" lon="12.251701400004716"><ele>-3.0</ele><time>2026-05-02T12:04:07Z</time></trkpt><trkpt lat="44.867320390862446" lon="12.251798115267878"><ele>-3.0</ele><time>2026-05-02T12:04:09Z</time></trkpt><trkpt lat="44.86726266537757" lon="12.251898245465277"><ele>-3.0</ele><time>2026-05-02T12:04:11Z</time></trkpt><trkpt lat="44.86720177460915" lon="12.251991870274889"><ele>-3.0</ele><time>2026-05-02T12:04:13Z</time></trkpt><trkpt lat="44.867146459555975" lon="12.25209165345661"><ele>-3.0</ele><time>2026-05-02T12:04:15Z</time></trkpt><trkpt lat="44.867087694568575" lon="12.25218894593969"><ele>-3.0</ele><time>2026-05-02T12:04:17Z</time></trkpt><trkpt lat="44.86703393397069" lon="12.252287605198239"><ele>-3.0</ele><time>2026-05-02T12:04:19Z</time></trkpt><trkpt lat="44.86698235624073" lon="12.25238948831377"><ele>-3.0</ele><time>2026-05-02T12:04:21Z</time></trkpt><trkpt lat="44.866933755887466" lon="12.25246544341653"><ele>-3.0</ele><time>2026-05-02T12:04:23Z</time></trkpt><trkpt lat="44.86689300178098" lon="12.252558885509798"><ele>-2.4285714285714284</ele><time>2026-05-02T12:04:25Z</time></trkpt><trkpt lat="44.86685741509233" lon="12.252647861756175"><ele>-1.8571428571428572</ele><time>2026-05-02T12:04:27Z</time></trkpt><trkpt lat="44.86681966134678" lon="12.252742856579554"><ele>-1.2857142857142856</ele><time>2026-05-02T12:04:29Z</time></trkpt><trkpt lat="44.86679552025357" lon="12.25282974905717"><ele>-0.7142857142857142</ele><time>2026-05-02T12:04:31Z</time></trkpt><trkpt lat="44.866769431676296" lon="12.252919472083683"><ele>-0.1428571428571429</ele><time>2026-05-02T12:04:33Z</time></trkpt><trkpt lat="44.86674096159999" lon="12.253002923997945"><ele>0.42857142857142855</ele><time>2026-05-02T12:04:35Z</time></trkpt><trkpt lat="44.86671711713515" lon="12.253121912363653"><ele>1.0</ele><time>2026-05-02T12:04:38Z</time></trkpt><trkpt lat="44.866693406666975" lon="12.253230814055227"><ele>1.2857142857142856</ele><time>2026-05-02T12:04:41Z</time></trkpt><trkpt lat="44.86667620841616" lon="12.253320701698467"><ele>1.5714285714285712</ele><time>2026-05-02T12:08:18Z</time></trkpt><trkpt lat="44.866661673900786" lon="12.25341652910874"><ele>1.857142857142857</ele><time>2026-05-02T12:08:21Z</time></trkpt><trkpt lat="44.86664750242813" lon="12.253524427748767"><ele>2.142857142857143</ele><time>2026-05-02T12:08:25Z</time></trkpt><trkpt lat="44.866640561110934" lon="12.25362713850587"><ele>2.4285714285714284</ele><time>2026-05-02T12:08:30Z</time></trkpt><trkpt lat="44.86663551076835" lon="12.253728912609795"><ele>2.714285714285714</ele><time>2026-05-02T12:08:33Z</time></trkpt><trkpt lat="44.86663411271816" lon="12.253838700005076"><ele>3.0</ele><time>2026-05-02T12:08:35Z</time></trkpt><trkpt lat="44.866644278858274" lon="12.25395111915228"><ele>3.1666666666666665</ele><time>2026-05-02T12:08:37Z</time></trkpt><trkpt lat="44.86664564846144" lon="12.254055662817073"><ele>3.333333333333333</ele><time>2026-05-02T12:08:39Z</time></trkpt><trkpt lat="44.866649943261436" lon="12.254161066979012"><ele>3.5</ele><time>2026-05-02T12:08:41Z</time></trkpt><trkpt lat="44.86666691652155" lon="12.254261879121174"><ele>3.6666666666666665</ele><time>2026-05-02T12:08:43Z</time></trkpt><trkpt lat="44.86667926910828" lon="12.254382029577448"><ele>3.833333333333333</ele><time>2026-05-02T12:08:45Z</time></trkpt><trkpt lat="44.86668953340893" lon="12.254484034858203"><ele>4.0</ele><time>2026-05-02T12:08:47Z</time></trkpt><trkpt lat="44.866715034662924" lon="12.254598442167651"><ele>4.0</ele><time>2026-05-02T12:08:49Z</time></trkpt><trkpt lat="44.8667333242687" lon="12.254701493031192"><ele>3.9999999999999996</ele><time>2026-05-02T12:08:51Z</time></trkpt><trkpt lat="44.86675660878954" lon="12.254799073773597"><ele>4.0</ele><time>2026-05-02T12:08:53Z</time></trkpt><trkpt lat="44.866773748671285" lon="12.25489400618003"><ele>4.0</ele><time>2026-05-02T12:08:55Z</time></trkpt><trkpt lat="44.86678672403538" lon="12.254985876449433"><ele>3.9999999999999996</ele><time>2026-05-02T12:08:57Z</time></trkpt><trkpt lat="44.86680418138892" lon="12.25508032507192"><ele>4.0</ele><time>2026-05-02T12:08:59Z</time></trkpt><trkpt lat="44.86682509747974" lon="12.255199796589098"><ele>4.0</ele><time>2026-05-02T12:09:01Z</time></trkpt><trkpt lat="44.866840465716436" lon="12.255310519968813"><ele>4.333333333333333</ele><time>2026-05-02T12:09:03Z</time></trkpt><trkpt lat="44.866864571368694" lon="12.25541757112655"><ele>4.666666666666666</ele><time>2026-05-02T12:09:05Z</time></trkpt><trkpt lat="44.8668890115588" lon="12.255536662479384"><ele>5.0</ele><time>2026-05-02T12:09:07Z</time></trkpt><trkpt lat="44.866910294383" lon="12.255659656835263"><ele>5.333333333333333</ele><time>2026-05-02T12:09:09Z</time></trkpt><trkpt lat="44.866931977144326" lon="12.255783931775749"><ele>5.666666666666667</ele><time>2026-05-02T12:09:11Z</time></trkpt><trkpt lat="44.86695063208584" lon="12.255911157866526"><ele>6.0</ele><time>2026-05-02T12:09:13Z</time></trkpt><trkpt lat="44.866974706981125" lon="12.256032930703718"><ele>6.0</ele><time>2026-05-02T12:09:15Z</time></trkpt><trkpt lat="44.866997904694855" lon="12.256158144833412"><ele>6.0</ele><time>2026-05-02T12:09:17Z</time></trkpt><trkpt lat="44.86702132447395" lon="12.256280985244612"><ele>6.0</ele><time>2026-05-02T12:09:19Z</time></trkpt><trkpt lat="44.86704245995284" lon="12.25640807716984"><ele>6.0</ele><time>2026-05-02T12:09:21Z</time></trkpt><trkpt lat="44.867065722990944" lon="12.256533920545067"><ele>6.0</ele><time>2026-05-02T12:09:23Z</time></trkpt><trkpt lat="44.86708819146305" lon="12.25665497103959"><ele>6.0</ele><time>2026-05-02T12:09:25Z</time></trkpt><trkpt lat="44.86711040852258" lon="12.256783061971124"><ele>6.0</ele><time>2026-05-02T12:09:27Z</time></trkpt><trkpt lat="44.8671324095042" lon="12.256901776948009"><ele>6.0</ele><time>2026-05-02T12:09:29Z</time></trkpt><trkpt lat="44.86715848444627" lon="12.257024940290613"><ele>6.0</ele><time>2026-05-02T12:09:31Z</time></trkpt><trkpt lat="44.867178092248714" lon="12.257148164059803"><ele>6.0</ele><time>2026-05-02T12:09:33Z</time></trkpt><trkpt lat="44.86720115142926" lon="12.257271499515207"><ele>5.6</ele><time>2026-05-02T12:09:35Z</time></trkpt><trkpt lat="44.867222674253085" lon="12.257393895404817"><ele>5.199999999999999</ele><time>2026-05-02T12:09:37Z</time></trkpt><trkpt lat="44.86724590225626" lon="12.257517330588776"><ele>4.800000000000001</ele><time>2026-05-02T12:09:39Z</time></trkpt><trkpt lat="44.867267475261556" lon="12.257637078878242"><ele>4.4</ele><time>2026-05-02T12:09:41Z</time></trkpt><trkpt lat="44.86729212484287" lon="12.257767970627459"><ele>4.0</ele><time>2026-05-02T12:09:43Z</time></trkpt><trkpt lat="44.86731211808433" lon="12.257890303825647"><ele>4.0</ele><time>2026-05-02T12:09:45Z</time></trkpt><trkpt lat="44.86733558999133" lon="12.258009830980496"><ele>4.0</ele><time>2026-05-02T12:09:47Z</time></trkpt><trkpt lat="44.867357171309784" lon="12.25813628117407"><ele>4.0</ele><time>2026-05-02T12:09:49Z</time></trkpt><trkpt lat="44.867383183932574" lon="12.258256870483562"><ele>4.0</ele><time>2026-05-02T12:09:51Z</time></trkpt><trkpt lat="44.86740319038894" lon="12.25837917972407"><ele>4.0</ele><time>2026-05-02T12:09:53Z</time></trkpt><trkpt lat="44.86742823521882" lon="12.258503847597044"><ele>4.2</ele><time>2026-05-02T12:09:55Z</time></trkpt><trkpt lat="44.867454315335216" lon="12.25862792889894"><ele>4.4</ele><time>2026-05-02T12:09:57Z</time></trkpt><trkpt lat="44.867476314758235" lon="12.25875558899239"><ele>4.6</ele><time>2026-05-02T12:09:59Z</time></trkpt><trkpt lat="44.86749738054153" lon="12.258881424561451"><ele>4.8</ele><time>2026-05-02T12:10:01Z</time></trkpt><trkpt lat="44.867525662740974" lon="12.259012019511964"><ele>5.0</ele><time>2026-05-02T12:10:03Z</time></trkpt><trkpt lat="44.86754863882557" lon="12.259133826805492"><ele>5.0</ele><time>2026-05-02T12:10:05Z</time></trkpt><trkpt lat="44.86757032254014" lon="12.2592630099233"><ele>5.0</ele><time>2026-05-02T12:10:07Z</time></trkpt><trkpt lat="44.867591866618" lon="12.259390552699939"><ele>5.0</ele><time>2026-05-02T12:10:09Z</time></trkpt><trkpt lat="44.86761458851751" lon="12.259515188847685"><ele>5.0</ele><time>2026-05-02T12:10:11Z</time></trkpt><trkpt lat="44.86763619397104" lon="12.259638663235812"><ele>5.0</ele><time>2026-05-02T12:10:13Z</time></trkpt><trkpt lat="44.867658658063746" lon="12.259769936199477"><ele>5.0</ele><time>2026-05-02T12:10:15Z</time></trkpt><trkpt lat="44.86767950049109" lon="12.2598940836767"><ele>5.0</ele><time>2026-05-02T12:10:17Z</time></trkpt><trkpt lat="44.86770529864046" lon="12.260017003240666"><ele>5.0</ele><time>2026-05-02T12:10:19Z</time></trkpt><trkpt lat="44.86772167568333" lon="12.260141422094575"><ele>5.0</ele><time>2026-05-02T12:10:21Z</time></trkpt><trkpt lat="44.86774992904959" lon="12.260263448520721"><ele>5.0</ele><time>2026-05-02T12:10:23Z</time></trkpt><trkpt lat="44.867775399237246" lon="12.260387501736592"><ele>5.0</ele><time>2026-05-02T12:10:25Z</time></trkpt><trkpt lat="44.86779548524263" lon="12.26051232127022"><ele>5.0</ele><time>2026-05-02T12:10:27Z</time></trkpt><trkpt lat="44.86781894252106" lon="12.260637106690996"><ele>5.0</ele><time>2026-05-02T12:10:29Z</time></trkpt><trkpt lat="44.86784228586408" lon="12.260761667225664"><ele>5.0</ele><time>2026-05-02T12:10:31Z</time></trkpt><trkpt lat="44.86786412987453" lon="12.260883673388076"><ele>5.0</ele><time>2026-05-02T12:10:33Z</time></trkpt><trkpt lat="44.86788165592498" lon="12.261006472931928"><ele>5.2</ele><time>2026-05-02T12:10:35Z</time></trkpt><trkpt lat="44.867905804774324" lon="12.2611320498334"><ele>5.4</ele><time>2026-05-02T12:10:37Z</time></trkpt><trkpt lat="44.867930791435384" lon="12.261253772665182"><ele>5.6</ele><time>2026-05-02T12:10:39Z</time></trkpt><trkpt lat="44.86794543778044" lon="12.261380296931216"><ele>5.8</ele><time>2026-05-02T12:10:41Z</time></trkpt><trkpt lat="44.86797287857544" lon="12.261501114043266"><ele>6.0</ele><time>2026-05-02T12:10:43Z</time></trkpt><trkpt lat="44.867997940199835" lon="12.261625442005371"><ele>6.0</ele><time>2026-05-02T12:10:45Z</time></trkpt><trkpt lat="44.86801582415455" lon="12.26175292545491"><ele>6.0</ele><time>2026-05-02T12:10:47Z</time></trkpt><trkpt lat="44.868040048295" lon="12.261880765524992"><ele>6.0</ele><time>2026-05-02T12:10:49Z</time></trkpt><trkpt lat="44.8680658481428" lon="12.262000846190022"><ele>6.0</ele><time>2026-05-02T12:10:51Z</time></trkpt><trkpt lat="44.868087315110195" lon="12.262130936579204"><ele>6.0</ele><time>2026-05-02T12:10:53Z</time></trkpt><trkpt lat="44.86810627461769" lon="12.262255302771463"><ele>6.0</ele><time>2026-05-02T12:10:55Z</time></trkpt><trkpt lat="44.86813265113823" lon="12.262377175871194"><ele>6.0</ele><time>2026-05-02T12:10:57Z</time></trkpt><trkpt lat="44.868155091287555" lon="12.262501393569693"><ele>6.0</ele><time>2026-05-02T12:10:59Z</time></trkpt><trkpt lat="44.86817787149306" lon="12.262626341678251"><ele>6.0</ele><time>2026-05-02T12:11:01Z</time></trkpt><trkpt lat="44.86819694673399" lon="12.262748121579353"><ele>6.0</ele><time>2026-05-02T12:11:03Z</time></trkpt><trkpt lat="44.86822092919526" lon="12.26287462128236"><ele>6.0</ele><time>2026-05-02T12:11:05Z</time></trkpt><trkpt lat="44.868245955805286" lon="12.263000697362967"><ele>6.0</ele><time>2026-05-02T12:11:07Z</time></trkpt><trkpt lat="44.86826409744951" lon="12.263124030376934"><ele>6.0</ele><time>2026-05-02T12:11:09Z</time></trkpt><trkpt lat="44.86829396798172" lon="12.263249349020397"><ele>6.0</ele><time>2026-05-02T12:11:11Z</time></trkpt><trkpt lat="44.86831387164141" lon="12.263372019585312"><ele>6.0</ele><time>2026-05-02T12:11:13Z</time></trkpt><trkpt lat="44.8683342112769" lon="12.263495860052723"><ele>6.199999999999999</ele><time>2026-05-02T12:11:15Z</time></trkpt><trkpt lat="44.8683603050722" lon="12.263619010816765"><ele>6.3999999999999995</ele><time>2026-05-02T12:11:17Z</time></trkpt><trkpt lat="44.86838040432803" lon="12.263743380487496"><ele>6.6</ele><time>2026-05-02T12:11:19Z</time></trkpt><trkpt lat="44.86840852882017" lon="12.263874702802406"><ele>6.8</ele><time>2026-05-02T12:11:21Z</time></trkpt><trkpt lat="44.86843503749357" lon="12.263993874530795"><ele>7.0</ele><time>2026-05-02T12:11:23Z</time></trkpt><trkpt lat="44.868454069827294" lon="12.264120960715703"><ele>7.0</ele><time>2026-05-02T12:11:25Z</time></trkpt><trkpt lat="44.86848068832627" lon="12.264243505169762"><ele>6.999999999999999</ele><time>2026-05-02T12:11:27Z</time></trkpt><trkpt lat="44.8684997154664" lon="12.264368724554869"><ele>6.999999999999999</ele><time>2026-05-02T12:11:29Z</time></trkpt><trkpt lat="44.86852182599351" lon="12.26449717022805"><ele>7.0</ele><time>2026-05-02T12:11:31Z</time></trkpt><trkpt lat="44.86854485131977" lon="12.26462087388836"><ele>7.0</ele><time>2026-05-02T12:11:33Z</time></trkpt><trkpt lat="44.86856955565958" lon="12.264745807043026"><ele>7.199999999999999</ele><time>2026-05-02T12:11:35Z</time></trkpt><trkpt lat="44.86859165038197" lon="12.264875159787799"><ele>7.3999999999999995</ele><time>2026-05-02T12:11:37Z</time></trkpt><trkpt lat="44.868614084685476" lon="12.26500025675949"><ele>7.6000000000000005</ele><time>2026-05-02T12:11:39Z</time></trkpt><trkpt lat="44.86863308510634" lon="12.265121107809302"><ele>7.800000000000001</ele><time>2026-05-02T12:11:41Z</time></trkpt><trkpt lat="44.86865975069365" lon="12.26524235893509"><ele>8.0</ele><time>2026-05-02T12:11:43Z</time></trkpt><trkpt lat="44.86868077715596" lon="12.265362331670282"><ele>8.0</ele><time>2026-05-02T12:11:45Z</time></trkpt><trkpt lat="44.8687033894559" lon="12.265485119638155"><ele>8.0</ele><time>2026-05-02T12:11:47Z</time></trkpt><trkpt lat="44.868726558046895" lon="12.265610436829105"><ele>8.0</ele><time>2026-05-02T12:11:49Z</time></trkpt><trkpt lat="44.868750140856044" lon="12.265738676136975"><ele>8.0</ele><time>2026-05-02T12:11:51Z</time></trkpt><trkpt lat="44.86877005293296" lon="12.265858388340956"><ele>8.0</ele><time>2026-05-02T12:11:53Z</time></trkpt><trkpt lat="44.86879247065489" lon="12.265985922529396"><ele>7.6000000000000005</ele><time>2026-05-02T12:11:55Z</time></trkpt><trkpt lat="44.86881775518198" lon="12.26611237704363"><ele>7.200000000000001</ele><time>2026-05-02T12:11:57Z</time></trkpt><trkpt lat="44.86883510588984" lon="12.26624387934208"><ele>6.8</ele><time>2026-05-02T12:11:59Z</time></trkpt><trkpt lat="44.868859487196566" lon="12.26636720089313"><ele>6.4</ele><time>2026-05-02T12:12:01Z</time></trkpt><trkpt lat="44.86888001016861" lon="12.266495870514873"><ele>6.0</ele><time>2026-05-02T12:12:03Z</time></trkpt><trkpt lat="44.86890391203403" lon="12.26661677093808"><ele>4.833333333333333</ele><time>2026-05-02T12:12:05Z</time></trkpt><trkpt lat="44.86892053347168" lon="12.266727825198014"><ele>3.6666666666666665</ele><time>2026-05-02T12:12:07Z</time></trkpt><trkpt lat="44.868939222808855" lon="12.266814806690721"><ele>2.5</ele><time>2026-05-02T12:12:09Z</time></trkpt><trkpt lat="44.868956915228466" lon="12.266903532432913"><ele>1.3333333333333335</ele><time>2026-05-02T12:12:11Z</time></trkpt><trkpt lat="44.86897712928267" lon="12.266997962944057"><ele>0.16666666666666674</ele><time>2026-05-02T12:12:13Z</time></trkpt><trkpt lat="44.86899954603136" lon="12.267114182448726"><ele>-1.0</ele><time>2026-05-02T12:12:15Z</time></trkpt><trkpt lat="44.86901876684387" lon="12.267236374048233"><ele>-1.2000000000000002</ele><time>2026-05-02T12:12:17Z</time></trkpt><trkpt lat="44.869044947482465" lon="12.267360212086862"><ele>-1.4000000000000001</ele><time>2026-05-02T12:12:19Z</time></trkpt><trkpt lat="44.86906452018883" lon="12.26748412392913"><ele>-1.6</ele><time>2026-05-02T12:12:21Z</time></trkpt><trkpt lat="44.86908525362806" lon="12.267610489625266"><ele>-1.8</ele><time>2026-05-02T12:12:23Z</time></trkpt><trkpt lat="44.869108989432654" lon="12.267730374878347"><ele>-2.0</ele><time>2026-05-02T12:12:25Z</time></trkpt><trkpt lat="44.869128689349544" lon="12.267856042633811"><ele>-2.0</ele><time>2026-05-02T12:12:27Z</time></trkpt><trkpt lat="44.869151248993354" lon="12.267976697200567"><ele>-2.0</ele><time>2026-05-02T12:12:29Z</time></trkpt><trkpt lat="44.869174138535854" lon="12.268098004639977"><ele>-2.0</ele><time>2026-05-02T12:12:31Z</time></trkpt><trkpt lat="44.869199136099" lon="12.268220123881301"><ele>-2.0</ele><time>2026-05-02T12:12:33Z</time></trkpt><trkpt lat="44.869221262296605" lon="12.268344745658403"><ele>-2.0</ele><time>2026-05-02T12:12:35Z</time></trkpt><trkpt lat="44.86924451137839" lon="12.268471939396873"><ele>-1.9999999999999998</ele><time>2026-05-02T12:12:37Z</time></trkpt><trkpt lat="44.8692663920273" lon="12.268594085656622"><ele>-2.0</ele><time>2026-05-02T12:12:39Z</time></trkpt><trkpt lat="44.86928618970521" lon="12.268718838522565"><ele>-2.0</ele><time>2026-05-02T12:12:41Z</time></trkpt><trkpt lat="44.869307814493276" lon="12.268838775334622"><ele>-2.0</ele><time>2026-05-02T12:12:43Z</time></trkpt><trkpt lat="44.869324071179705" lon="12.268948594197367"><ele>-1.9999999999999998</ele><time>2026-05-02T12:12:45Z</time></trkpt><trkpt lat="44.86935577994662" lon="12.269048389663448"><ele>-2.0</ele><time>2026-05-02T12:12:47Z</time></trkpt><trkpt lat="44.869384635366956" lon="12.269161291493711"><ele>-2.1666666666666665</ele><time>2026-05-02T12:12:49Z</time></trkpt><trkpt lat="44.86940817248288" lon="12.269279022833437"><ele>-2.333333333333333</ele><time>2026-05-02T12:12:51Z</time></trkpt><trkpt lat="44.86943162940449" lon="12.269401764282046"><ele>-2.5</ele><time>2026-05-02T12:12:53Z</time></trkpt><trkpt lat="44.86945181562362" lon="12.26952609698455"><ele>-2.6666666666666665</ele><time>2026-05-02T12:12:55Z</time></trkpt><trkpt lat="44.869474652520935" lon="12.269640398796346"><ele>-2.8333333333333335</ele><time>2026-05-02T12:12:57Z</time></trkpt><trkpt lat="44.86949407939768" lon="12.269762803355666"><ele>-3.0</ele><time>2026-05-02T12:12:59Z</time></trkpt><trkpt lat="44.86951663231695" lon="12.269880578768475"><ele>-3.1666666666666665</ele><time>2026-05-02T12:13:01Z</time></trkpt><trkpt lat="44.869533039004274" lon="12.269987410377254"><ele>-3.333333333333333</ele><time>2026-05-02T12:13:03Z</time></trkpt><trkpt lat="44.869552546168215" lon="12.270102685160786"><ele>-3.5</ele><time>2026-05-02T12:13:05Z</time></trkpt><trkpt lat="44.869572936320125" lon="12.270225542457277"><ele>-3.6666666666666665</ele><time>2026-05-02T12:13:07Z</time></trkpt><trkpt lat="44.86959361391182" lon="12.270351677034068"><ele>-3.833333333333333</ele><time>2026-05-02T12:13:09Z</time></trkpt><trkpt lat="44.86961748124014" lon="12.270476333198042"><ele>-4.0</ele><time>2026-05-02T12:13:11Z</time></trkpt><trkpt lat="44.869636290632705" lon="12.270603021910631"><ele>-3.833333333333333</ele><time>2026-05-02T12:13:13Z</time></trkpt><trkpt lat="44.86965714276426" lon="12.270728900895573"><ele>-3.6666666666666665</ele><time>2026-05-02T12:13:15Z</time></trkpt><trkpt lat="44.869679143076475" lon="12.270852137009179"><ele>-3.5</ele><time>2026-05-02T12:13:17Z</time></trkpt><trkpt lat="44.86970001629265" lon="12.270968797996055"><ele>-3.333333333333333</ele><time>2026-05-02T12:13:19Z</time></trkpt><trkpt lat="44.86971651458321" lon="12.271074387841129"><ele>-3.1666666666666665</ele><time>2026-05-02T12:13:21Z</time></trkpt><trkpt lat="44.869737369429295" lon="12.271186610477578"><ele>-3.0</ele><time>2026-05-02T12:13:23Z</time></trkpt><trkpt lat="44.869758154404074" lon="12.271303580163888"><ele>-3.0</ele><time>2026-05-02T12:13:25Z</time></trkpt><trkpt lat="44.8697758698223" lon="12.271419394554915"><ele>-3.0</ele><time>2026-05-02T12:13:27Z</time></trkpt><trkpt lat="44.869796088468185" lon="12.271535256284519"><ele>-3.0</ele><time>2026-05-02T12:13:29Z</time></trkpt><trkpt lat="44.869818518054785" lon="12.271655733395018"><ele>-3.0</ele><time>2026-05-02T12:13:31Z</time></trkpt><trkpt lat="44.869839745207656" lon="12.271770777393684"><ele>-3.0</ele><time>2026-05-02T12:13:33Z</time></trkpt><trkpt lat="44.869856729485186" lon="12.271878400602338"><ele>-3.0</ele><time>2026-05-02T12:13:35Z</time></trkpt><trkpt lat="44.869879945453796" lon="12.271978514560626"><ele>-3.0</ele><time>2026-05-02T12:13:37Z</time></trkpt><trkpt lat="44.86989785506242" lon="12.27206776083394"><ele>-3.0</ele><time>2026-05-02T12:13:39Z</time></trkpt><trkpt lat="44.86992214313616" lon="12.272192896833582"><ele>-3.0</ele><time>2026-05-02T12:13:42Z</time></trkpt><trkpt lat="44.86993935632251" lon="12.272297295693104"><ele>-3.0</ele><time>2026-05-02T12:13:44Z</time></trkpt><trkpt lat="44.86995346804495" lon="12.272405168779873"><ele>-3.0</ele><time>2026-05-02T12:13:46Z</time></trkpt><trkpt lat="44.869980312028176" lon="12.272519893247637"><ele>-3.0</ele><time>2026-05-02T12:13:48Z</time></trkpt><trkpt lat="44.869953188608335" lon="12.272628746630676"><ele>-3.0</ele><time>2026-05-02T12:13:50Z</time></trkpt><trkpt lat="44.86987998900065" lon="12.272710069902613"><ele>-3.0</ele><time>2026-05-02T12:13:52Z</time></trkpt><trkpt lat="44.86978146258953" lon="12.272748808168595"><ele>-3.0</ele><time>2026-05-02T12:13:54Z</time></trkpt><trkpt lat="44.86967999207327" lon="12.272779107447006"><ele>-3.0</ele><time>2026-05-02T12:13:56Z</time></trkpt><trkpt lat="44.86956771829446" lon="12.272812361540618"><ele>-3.0</ele><time>2026-05-02T12:13:58Z</time></trkpt><trkpt lat="44.86945964385104" lon="12.272848010765381"><ele>-3.0</ele><time>2026-05-02T12:14:00Z</time></trkpt><trkpt lat="44.869354622855234" lon="12.27288139994193"><ele>-3.0</ele><time>2026-05-02T12:14:02Z</time></trkpt><trkpt lat="44.869247118007316" lon="12.272912265620146"><ele>-3.0</ele><time>2026-05-02T12:14:04Z</time></trkpt><trkpt lat="44.8691468946157" lon="12.272944928352274"><ele>-3.0</ele><time>2026-05-02T12:14:06Z</time></trkpt><trkpt lat="44.86905351962984" lon="12.272982230024452"><ele>-3.0</ele><time>2026-05-02T12:14:08Z</time></trkpt><trkpt lat="44.868965565445876" lon="12.273005193197271"><ele>-3.0</ele><time>2026-05-02T12:14:10Z</time></trkpt><trkpt lat="44.86888528153551" lon="12.273032061336362"><ele>-3.0</ele><time>2026-05-02T12:14:12Z</time></trkpt><trkpt lat="44.868806880791766" lon="12.273048509586674"><ele>-3.0</ele><time>2026-05-02T12:14:14Z</time></trkpt><trkpt lat="44.86873783316669" lon="12.273065709502221"><ele>-3.0</ele><time>2026-05-02T12:14:16Z</time></trkpt><trkpt lat="44.868655339111605" lon="12.273092467290887"><ele>-3.0</ele><time>2026-05-02T12:14:18Z</time></trkpt><trkpt lat="44.86856765768534" lon="12.27312295614707"><ele>-3.0</ele><time>2026-05-02T12:14:20Z</time></trkpt><trkpt lat="44.86847960908069" lon="12.273145737798787"><ele>-3.0</ele><time>2026-05-02T12:14:22Z</time></trkpt><trkpt lat="44.86839176645733" lon="12.2731735134543"><ele>-3.0</ele><time>2026-05-02T12:14:24Z</time></trkpt><trkpt lat="44.8683051144231" lon="12.273203255612035"><ele>-3.0</ele><time>2026-05-02T12:14:26Z</time></trkpt><trkpt lat="44.86821791872963" lon="12.273237476596684"><ele>-3.0</ele><time>2026-05-02T12:14:28Z</time></trkpt><trkpt lat="44.86813543394751" lon="12.273270007919287"><ele>-3.0</ele><time>2026-05-02T12:14:30Z</time></trkpt><trkpt lat="44.86804804208481" lon="12.273284169345972"><ele>-3.0</ele><time>2026-05-02T12:14:32Z</time></trkpt><trkpt lat="44.86796105140881" lon="12.273303987452651"><ele>-3.0</ele><time>2026-05-02T12:14:34Z</time></trkpt><trkpt lat="44.86787688869452" lon="12.273336125605704"><ele>-3.0</ele><time>2026-05-02T12:14:36Z</time></trkpt><trkpt lat="44.8677949552089" lon="12.273368148794537"><ele>-3.0</ele><time>2026-05-02T12:14:38Z</time></trkpt><trkpt lat="44.86771107255984" lon="12.273388370513258"><ele>-3.0</ele><time>2026-05-02T12:14:40Z</time></trkpt><trkpt lat="44.86762490189433" lon="12.27341624240476"><ele>-3.0</ele><time>2026-05-02T12:14:42Z</time></trkpt><trkpt lat="44.86754317630129" lon="12.27344478251793"><ele>-3.0</ele><time>2026-05-02T12:14:44Z</time></trkpt><trkpt lat="44.86746376785054" lon="12.273476656897305"><ele>-2.8333333333333335</ele><time>2026-05-02T12:14:46Z</time></trkpt><trkpt lat="44.8673768798958" lon="12.273495053661279"><ele>-2.6666666666666665</ele><time>2026-05-02T12:14:48Z</time></trkpt><trkpt lat="44.867291175331125" lon="12.27352390141281"><ele>-2.5</ele><time>2026-05-02T12:14:50Z</time></trkpt><trkpt lat="44.86720641122904" lon="12.273555469520579"><ele>-2.333333333333333</ele><time>2026-05-02T12:14:52Z</time></trkpt><trkpt lat="44.86713052118095" lon="12.273579966452717"><ele>-2.1666666666666665</ele><time>2026-05-02T12:14:54Z</time></trkpt><trkpt lat="44.86705807627174" lon="12.273601995657543"><ele>-2.0</ele><time>2026-05-02T12:14:56Z</time></trkpt><trkpt lat="44.866992236718794" lon="12.273618833564033"><ele>-1.9999999999999998</ele><time>2026-05-02T12:14:58Z</time></trkpt><trkpt lat="44.86692973815256" lon="12.273644258308753"><ele>-2.0</ele><time>2026-05-02T12:15:00Z</time></trkpt><trkpt lat="44.86686682004621" lon="12.273668558176308"><ele>-2.0</ele><time>2026-05-02T12:15:02Z</time></trkpt><trkpt lat="44.86678546780373" lon="12.273691159077744"><ele>-2.0</ele><time>2026-05-02T12:15:05Z</time></trkpt><trkpt lat="44.866711667977754" lon="12.273716801944431"><ele>-1.9999999999999998</ele><time>2026-05-02T12:15:08Z</time></trkpt><trkpt lat="44.866625009832006" lon="12.273750309300748"><ele>-2.0</ele><time>2026-05-02T12:15:11Z</time></trkpt><trkpt lat="44.86654067523827" lon="12.273769510105915"><ele>-2.142857142857143</ele><time>2026-05-02T12:15:13Z</time></trkpt><trkpt lat="44.86646520323711" lon="12.27379390803364"><ele>-2.2857142857142856</ele><time>2026-05-02T12:15:15Z</time></trkpt><trkpt lat="44.866394047982915" lon="12.273815553644095"><ele>-2.4285714285714284</ele><time>2026-05-02T12:15:17Z</time></trkpt><trkpt lat="44.866326702017474" lon="12.273836112513262"><ele>-2.571428571428571</ele><time>2026-05-02T12:15:19Z</time></trkpt><trkpt lat="44.866243790176874" lon="12.273865771734044"><ele>-2.7142857142857144</ele><time>2026-05-02T12:15:22Z</time></trkpt><trkpt lat="44.8661701203864" lon="12.273887546228785"><ele>-2.8571428571428568</ele><time>2026-05-02T12:15:25Z</time></trkpt><trkpt lat="44.86610494570271" lon="12.273906838558686"><ele>-3.0</ele><time>2026-05-02T12:15:27Z</time></trkpt><trkpt lat="44.86603803027207" lon="12.27392176665743"><ele>-3.3333333333333335</ele><time>2026-05-02T12:15:29Z</time></trkpt><trkpt lat="44.86595445682887" lon="12.273947425672045"><ele>-3.666666666666667</ele><time>2026-05-02T12:15:32Z</time></trkpt><trkpt lat="44.86587993870254" lon="12.273972365919603"><ele>-4.0</ele><time>2026-05-02T12:15:34Z</time></trkpt><trkpt lat="44.86580282822866" lon="12.27399781190984"><ele>-4.333333333333334</ele><time>2026-05-02T12:15:36Z</time></trkpt><trkpt lat="44.86573631307826" lon="12.274012743838616"><ele>-4.666666666666667</ele><time>2026-05-02T12:15:38Z</time></trkpt><trkpt lat="44.86564751011046" lon="12.274046295178595"><ele>-5.0</ele><time>2026-05-02T12:15:41Z</time></trkpt><trkpt lat="44.86558511650183" lon="12.27406271757322"><ele>-5.0</ele><time>2026-05-02T12:15:43Z</time></trkpt><trkpt lat="44.865508959911864" lon="12.274079446193541"><ele>-5.0</ele><time>2026-05-02T12:15:45Z</time></trkpt><trkpt lat="44.86544296396967" lon="12.27410327508144"><ele>-5.0</ele><time>2026-05-02T12:15:47Z</time></trkpt><trkpt lat="44.8653523606821" lon="12.274136923010946"><ele>-5.0</ele><time>2026-05-02T12:15:50Z</time></trkpt><trkpt lat="44.865264012282296" lon="12.274154099917014"><ele>-5.0</ele><time>2026-05-02T12:15:53Z</time></trkpt><trkpt lat="44.86519931539807" lon="12.274183381416274"><ele>-5.0</ele><time>2026-05-02T12:15:55Z</time></trkpt><trkpt lat="44.86513615642754" lon="12.274199176207002"><ele>-4.857142857142857</ele><time>2026-05-02T12:15:57Z</time></trkpt><trkpt lat="44.86506176529736" lon="12.274220441121418"><ele>-4.714285714285714</ele><time>2026-05-02T12:15:59Z</time></trkpt><trkpt lat="44.864982837957875" lon="12.274247716980573"><ele>-4.571428571428571</ele><time>2026-05-02T12:16:01Z</time></trkpt><trkpt lat="44.86491462607873" lon="12.274272438658327"><ele>-4.428571428571429</ele><time>2026-05-02T12:16:03Z</time></trkpt><trkpt lat="44.86485090877069" lon="12.274291901468173"><ele>-4.285714285714286</ele><time>2026-05-02T12:16:05Z</time></trkpt><trkpt lat="44.864781044385644" lon="12.274310358180372"><ele>-4.142857142857142</ele><time>2026-05-02T12:16:07Z</time></trkpt><trkpt lat="44.864715845941404" lon="12.274329496477765"><ele>-4.0</ele><time>2026-05-02T12:16:09Z</time></trkpt><trkpt lat="44.86465471237777" lon="12.274351847765283"><ele>-3.9999999999999996</ele><time>2026-05-02T12:16:11Z</time></trkpt><trkpt lat="44.864570447934575" lon="12.274374774683485"><ele>-4.0</ele><time>2026-05-02T12:16:14Z</time></trkpt><trkpt lat="44.86449423250544" lon="12.274408035397864"><ele>-4.0</ele><time>2026-05-02T12:16:17Z</time></trkpt><trkpt lat="44.86442380902045" lon="12.274424710202016"><ele>-4.0</ele><time>2026-05-02T12:16:19Z</time></trkpt><trkpt lat="44.86436065909712" lon="12.27443787803702"><ele>-3.9999999999999996</ele><time>2026-05-02T12:16:21Z</time></trkpt><trkpt lat="44.86427692347497" lon="12.274467644503424"><ele>-4.0</ele><time>2026-05-02T12:16:24Z</time></trkpt><trkpt lat="44.86420341338262" lon="12.274492470156371"><ele>-3.9999999999999996</ele><time>2026-05-02T12:16:27Z</time></trkpt><trkpt lat="44.86411789526015" lon="12.274516358668121"><ele>-4.0</ele><time>2026-05-02T12:16:30Z</time></trkpt><trkpt lat="44.86404309555102" lon="12.27454457867412"><ele>-4.0</ele><time>2026-05-02T12:16:32Z</time></trkpt><trkpt lat="44.86397637558417" lon="12.274567514248321"><ele>-4.0</ele><time>2026-05-02T12:16:34Z</time></trkpt><trkpt lat="44.86391159904275" lon="12.274590441829016"><ele>-3.9999999999999996</ele><time>2026-05-02T12:16:36Z</time></trkpt><trkpt lat="44.86383592161124" lon="12.274609247496883"><ele>-4.0</ele><time>2026-05-02T12:16:38Z</time></trkpt><trkpt lat="44.863761190673586" lon="12.274630197474089"><ele>-3.9999999999999996</ele><time>2026-05-02T12:16:40Z</time></trkpt><trkpt lat="44.86369921698284" lon="12.274650784499945"><ele>-4.0</ele><time>2026-05-02T12:16:42Z</time></trkpt><trkpt lat="44.86363661014475" lon="12.274667244879415"><ele>-4.0</ele><time>2026-05-02T12:16:44Z</time></trkpt><trkpt lat="44.86355271160441" lon="12.274698113235377"><ele>-4.0</ele><time>2026-05-02T12:16:47Z</time></trkpt><trkpt lat="44.86347125198561" lon="12.274719039671382"><ele>-3.9999999999999996</ele><time>2026-05-02T12:16:50Z</time></trkpt><trkpt lat="44.86339597494254" lon="12.274744298422892"><ele>-4.0</ele><time>2026-05-02T12:16:52Z</time></trkpt><trkpt lat="44.863311815266485" lon="12.274769704863864"><ele>-3.9999999999999996</ele><time>2026-05-02T12:16:54Z</time></trkpt><trkpt lat="44.8632266271758" lon="12.274791321271644"><ele>-4.0</ele><time>2026-05-02T12:16:56Z</time></trkpt><trkpt lat="44.863143970095834" lon="12.274819631373212"><ele>-4.0</ele><time>2026-05-02T12:16:58Z</time></trkpt><trkpt lat="44.86305871580438" lon="12.274849138074892"><ele>-4.0</ele><time>2026-05-02T12:17:00Z</time></trkpt><trkpt lat="44.862978578002775" lon="12.274878205544995"><ele>-3.9999999999999996</ele><time>2026-05-02T12:17:02Z</time></trkpt><trkpt lat="44.862904259317254" lon="12.274892435715962"><ele>-4.0</ele><time>2026-05-02T12:17:04Z</time></trkpt><trkpt lat="44.862835851282824" lon="12.274916981899473"><ele>-3.9999999999999996</ele><time>2026-05-02T12:17:06Z</time></trkpt><trkpt lat="44.86277122320889" lon="12.27493442901134"><ele>-4.0</ele><time>2026-05-02T12:17:08Z</time></trkpt><trkpt lat="44.86268714802375" lon="12.27496619959115"><ele>-4.0</ele><time>2026-05-02T12:17:11Z</time></trkpt><trkpt lat="44.86262404812225" lon="12.27497986373913"><ele>-4.0</ele><time>2026-05-02T12:17:13Z</time></trkpt><trkpt lat="44.86255764814524" lon="12.275000366632542"><ele>-3.9999999999999996</ele><time>2026-05-02T12:17:15Z</time></trkpt><trkpt lat="44.86246391678874" lon="12.275027200701912"><ele>-4.0</ele><time>2026-05-02T12:17:18Z</time></trkpt><trkpt lat="44.862382261123834" lon="12.275063791221367"><ele>-3.9999999999999996</ele><time>2026-05-02T12:17:20Z</time></trkpt><trkpt lat="44.862296567197916" lon="12.275093110482905"><ele>-4.0</ele><time>2026-05-02T12:17:22Z</time></trkpt><trkpt lat="44.86221922257576" lon="12.275107651053226"><ele>-4.0</ele><time>2026-05-02T12:17:24Z</time></trkpt><trkpt lat="44.86213919704572" lon="12.275134029011575"><ele>-4.0</ele><time>2026-05-02T12:17:26Z</time></trkpt><trkpt lat="44.862057373492455" lon="12.275169485682168"><ele>-3.9999999999999996</ele><time>2026-05-02T12:17:28Z</time></trkpt><trkpt lat="44.86196941076567" lon="12.275185455309432"><ele>-4.0</ele><time>2026-05-02T12:17:30Z</time></trkpt><trkpt lat="44.86188520736495" lon="12.275214697287131"><ele>-3.9999999999999996</ele><time>2026-05-02T12:17:32Z</time></trkpt><trkpt lat="44.86180237790697" lon="12.275242613067842"><ele>-4.0</ele><time>2026-05-02T12:17:34Z</time></trkpt><trkpt lat="44.86171457908863" lon="12.275270815356466"><ele>-4.0</ele><time>2026-05-02T12:17:36Z</time></trkpt><trkpt lat="44.86162999877419" lon="12.275291783765535"><ele>-4.0</ele><time>2026-05-02T12:17:38Z</time></trkpt><trkpt lat="44.86154416419237" lon="12.275316853378087"><ele>-3.9999999999999996</ele><time>2026-05-02T12:17:40Z</time></trkpt><trkpt lat="44.86145953403957" lon="12.275345913760752"><ele>-4.0</ele><time>2026-05-02T12:17:42Z</time></trkpt><trkpt lat="44.86137860557509" lon="12.27537521095887"><ele>-3.9999999999999996</ele><time>2026-05-02T12:17:44Z</time></trkpt><trkpt lat="44.86129144693829" lon="12.27539880893285"><ele>-4.0</ele><time>2026-05-02T12:17:46Z</time></trkpt><trkpt lat="44.86120432878428" lon="12.275427506557985"><ele>-4.0</ele><time>2026-05-02T12:17:48Z</time></trkpt><trkpt lat="44.861119843637866" lon="12.27545648292569"><ele>-4.0</ele><time>2026-05-02T12:17:50Z</time></trkpt><trkpt lat="44.86103284278634" lon="12.275479584005009"><ele>-3.9999999999999996</ele><time>2026-05-02T12:17:52Z</time></trkpt><trkpt lat="44.86094586988349" lon="12.275506247082262"><ele>-4.0</ele><time>2026-05-02T12:17:54Z</time></trkpt><trkpt lat="44.86086025256572" lon="12.275533736729741"><ele>-3.833333333333333</ele><time>2026-05-02T12:17:56Z</time></trkpt><trkpt lat="44.860770569796415" lon="12.275562537693752"><ele>-3.6666666666666665</ele><time>2026-05-02T12:17:58Z</time></trkpt><trkpt lat="44.860692249056335" lon="12.275589707377172"><ele>-3.5</ele><time>2026-05-02T12:18:00Z</time></trkpt><trkpt lat="44.8606072023749" lon="12.275611525996657"><ele>-3.333333333333333</ele><time>2026-05-02T12:18:02Z</time></trkpt><trkpt lat="44.860522817212996" lon="12.275631727435243"><ele>-3.1666666666666665</ele><time>2026-05-02T12:18:04Z</time></trkpt><trkpt lat="44.86043647635957" lon="12.275670382687464"><ele>-3.0</ele><time>2026-05-02T12:18:06Z</time></trkpt><trkpt lat="44.86035241095237" lon="12.275697748870956"><ele>-3.0</ele><time>2026-05-02T12:18:08Z</time></trkpt><trkpt lat="44.860268636454464" lon="12.27572175519204"><ele>-3.0</ele><time>2026-05-02T12:18:10Z</time></trkpt><trkpt lat="44.86018455785709" lon="12.275745483499154"><ele>-3.0</ele><time>2026-05-02T12:18:12Z</time></trkpt><trkpt lat="44.860113980732" lon="12.27576800810496"><ele>-3.0</ele><time>2026-05-02T12:18:14Z</time></trkpt><trkpt lat="44.860044310119996" lon="12.275792742676725"><ele>-3.0</ele><time>2026-05-02T12:18:16Z</time></trkpt><trkpt lat="44.85996546962998" lon="12.27581450280892"><ele>-3.0</ele><time>2026-05-02T12:18:18Z</time></trkpt><trkpt lat="44.85988387379328" lon="12.2758447179303"><ele>-3.1666666666666665</ele><time>2026-05-02T12:18:20Z</time></trkpt><trkpt lat="44.85979706369805" lon="12.275864396820017"><ele>-3.333333333333333</ele><time>2026-05-02T12:18:22Z</time></trkpt><trkpt lat="44.85971193773079" lon="12.275896620455004"><ele>-3.5</ele><time>2026-05-02T12:18:24Z</time></trkpt><trkpt lat="44.85962604686928" lon="12.275926754487603"><ele>-3.6666666666666665</ele><time>2026-05-02T12:18:26Z</time></trkpt><trkpt lat="44.85953865720543" lon="12.275944891756279"><ele>-3.833333333333333</ele><time>2026-05-02T12:18:28Z</time></trkpt><trkpt lat="44.859452422006974" lon="12.275976574391088"><ele>-4.0</ele><time>2026-05-02T12:18:30Z</time></trkpt><trkpt lat="44.859367154398605" lon="12.27600439853356"><ele>-3.833333333333333</ele><time>2026-05-02T12:18:32Z</time></trkpt><trkpt lat="44.85928337055133" lon="12.276031661740985"><ele>-3.6666666666666665</ele><time>2026-05-02T12:18:34Z</time></trkpt><trkpt lat="44.85919642241116" lon="12.276056943976558"><ele>-3.5</ele><time>2026-05-02T12:18:36Z</time></trkpt><trkpt lat="44.85911297207363" lon="12.276084886466377"><ele>-3.333333333333333</ele><time>2026-05-02T12:18:38Z</time></trkpt><trkpt lat="44.85902418626859" lon="12.276110940295416"><ele>-3.1666666666666665</ele><time>2026-05-02T12:18:40Z</time></trkpt><trkpt lat="44.858939195003785" lon="12.276149377746476"><ele>-3.0</ele><time>2026-05-02T12:18:42Z</time></trkpt><trkpt lat="44.85885184342446" lon="12.276167029541062"><ele>-3.0</ele><time>2026-05-02T12:18:44Z</time></trkpt><trkpt lat="44.85877470041583" lon="12.276199786988586"><ele>-3.0</ele><time>2026-05-02T12:18:46Z</time></trkpt><trkpt lat="44.85869672626311" lon="12.276220297333852"><ele>-3.0</ele><time>2026-05-02T12:18:48Z</time></trkpt><trkpt lat="44.85861091357355" lon="12.276237999223362"><ele>-3.0</ele><time>2026-05-02T12:18:50Z</time></trkpt><trkpt lat="44.85852539681732" lon="12.276264110151777"><ele>-3.0</ele><time>2026-05-02T12:18:52Z</time></trkpt><trkpt lat="44.85844003506445" lon="12.276292278503893"><ele>-3.0</ele><time>2026-05-02T12:18:54Z</time></trkpt><trkpt lat="44.85835381679403" lon="12.27631849861689"><ele>-3.1666666666666665</ele><time>2026-05-02T12:18:56Z</time></trkpt><trkpt lat="44.858266716308115" lon="12.276346940849942"><ele>-3.333333333333333</ele><time>2026-05-02T12:18:58Z</time></trkpt><trkpt lat="44.8581814615584" lon="12.27637069118924"><ele>-3.5</ele><time>2026-05-02T12:19:00Z</time></trkpt><trkpt lat="44.85809661176513" lon="12.276400322760978"><ele>-3.6666666666666665</ele><time>2026-05-02T12:19:02Z</time></trkpt><trkpt lat="44.85801179368876" lon="12.276426345006575"><ele>-3.833333333333333</ele><time>2026-05-02T12:19:04Z</time></trkpt><trkpt lat="44.857926383903106" lon="12.276460756017661"><ele>-4.0</ele><time>2026-05-02T12:19:06Z</time></trkpt><trkpt lat="44.857841636622744" lon="12.276490156609277"><ele>-3.9999999999999996</ele><time>2026-05-02T12:19:08Z</time></trkpt><trkpt lat="44.85775547399555" lon="12.276520143814672"><ele>-4.0</ele><time>2026-05-02T12:19:10Z</time></trkpt><trkpt lat="44.85766673655928" lon="12.276538640482775"><ele>-4.0</ele><time>2026-05-02T12:19:12Z</time></trkpt><trkpt lat="44.85758497331123" lon="12.276563244583592"><ele>-4.0</ele><time>2026-05-02T12:19:14Z</time></trkpt><trkpt lat="44.85750346916053" lon="12.276581643658346"><ele>-3.9999999999999996</ele><time>2026-05-02T12:19:16Z</time></trkpt><trkpt lat="44.8574182356756" lon="12.276611738262037"><ele>-4.0</ele><time>2026-05-02T12:19:18Z</time></trkpt><trkpt lat="44.857332505207495" lon="12.276639615401686"><ele>-3.9999999999999996</ele><time>2026-05-02T12:19:20Z</time></trkpt><trkpt lat="44.85724477175029" lon="12.276665057789831"><ele>-4.0</ele><time>2026-05-02T12:19:22Z</time></trkpt><trkpt lat="44.85716266122882" lon="12.276693240493609"><ele>-4.0</ele><time>2026-05-02T12:19:24Z</time></trkpt><trkpt lat="44.85708655515987" lon="12.276715909637618"><ele>-4.0</ele><time>2026-05-02T12:19:26Z</time></trkpt><trkpt lat="44.85701976071561" lon="12.276754540027234"><ele>-3.9999999999999996</ele><time>2026-05-02T12:19:28Z</time></trkpt><trkpt lat="44.85693838537722" lon="12.276773960138945"><ele>-4.0</ele><time>2026-05-02T12:19:30Z</time></trkpt><trkpt lat="44.8568601351261" lon="12.27678621674361"><ele>-3.9999999999999996</ele><time>2026-05-02T12:19:32Z</time></trkpt><trkpt lat="44.8567886665889" lon="12.276811974756924"><ele>-4.0</ele><time>2026-05-02T12:19:34Z</time></trkpt><trkpt lat="44.85672285940617" lon="12.276829707613457"><ele>-4.0</ele><time>2026-05-02T12:19:36Z</time></trkpt><trkpt lat="44.856633304955" lon="12.276865035137822"><ele>-4.0</ele><time>2026-05-02T12:19:39Z</time></trkpt><trkpt lat="44.856570030314245" lon="12.276881766110085"><ele>-3.9999999999999996</ele><time>2026-05-02T12:19:41Z</time></trkpt><trkpt lat="44.85650462043924" lon="12.276898536793825"><ele>-4.0</ele><time>2026-05-02T12:19:43Z</time></trkpt><trkpt lat="44.85641595137378" lon="12.276929932296177"><ele>-3.9999999999999996</ele><time>2026-05-02T12:19:46Z</time></trkpt><trkpt lat="44.85631925433774" lon="12.27695408185329"><ele>-4.0</ele><time>2026-05-02T12:19:49Z</time></trkpt><trkpt lat="44.85624998745026" lon="12.276978914506707"><ele>-4.0</ele><time>2026-05-02T12:19:51Z</time></trkpt><trkpt lat="44.856161611006456" lon="12.277006738552096"><ele>-4.0</ele><time>2026-05-02T12:19:54Z</time></trkpt><trkpt lat="44.85609644193989" lon="12.277027888410682"><ele>-3.9999999999999996</ele><time>2026-05-02T12:19:56Z</time></trkpt><trkpt lat="44.856006051718445" lon="12.277058434583974"><ele>-4.0</ele><time>2026-05-02T12:19:59Z</time></trkpt><trkpt lat="44.85592765588732" lon="12.277087937153421"><ele>-3.9999999999999996</ele><time>2026-05-02T12:20:02Z</time></trkpt><trkpt lat="44.85583476514143" lon="12.277108875575104"><ele>-4.0</ele><time>2026-05-02T12:20:05Z</time></trkpt><trkpt lat="44.85576890922047" lon="12.27713060715948"><ele>-4.0</ele><time>2026-05-02T12:20:07Z</time></trkpt><trkpt lat="44.85568227277543" lon="12.277161813807997"><ele>-4.0</ele><time>2026-05-02T12:20:10Z</time></trkpt><trkpt lat="44.855601794794445" lon="12.277185150228163"><ele>-3.9999999999999996</ele><time>2026-05-02T12:20:13Z</time></trkpt><trkpt lat="44.855532668127466" lon="12.277210325774709"><ele>-4.0</ele><time>2026-05-02T12:20:16Z</time></trkpt><trkpt lat="44.85544005983122" lon="12.277238478568842"><ele>-3.9999999999999996</ele><time>2026-05-02T12:20:19Z</time></trkpt><trkpt lat="44.85535775296058" lon="12.2772630753019"><ele>-4.0</ele><time>2026-05-02T12:20:22Z</time></trkpt><trkpt lat="44.8552909877742" lon="12.277299816530645"><ele>-4.0</ele><time>2026-05-02T12:20:25Z</time></trkpt><trkpt lat="44.85521299322976" lon="12.277306166163804"><ele>-4.0</ele><time>2026-05-02T12:20:28Z</time></trkpt><trkpt lat="44.855137030849484" lon="12.27733123710867"><ele>-3.9999999999999996</ele><time>2026-05-02T12:20:30Z</time></trkpt><trkpt lat="44.85506469977359" lon="12.277351658725813"><ele>-4.0</ele><time>2026-05-02T12:20:32Z</time></trkpt><trkpt lat="44.85499057779039" lon="12.27737572551229"><ele>-4.0</ele><time>2026-05-02T12:20:34Z</time></trkpt><trkpt lat="44.854922647412764" lon="12.277396261036989"><ele>-3.9999999999999996</ele><time>2026-05-02T12:20:36Z</time></trkpt><trkpt lat="44.85484156993634" lon="12.277424967196245"><ele>-4.0</ele><time>2026-05-02T12:20:38Z</time></trkpt><trkpt lat="44.85476645147546" lon="12.27745004215672"><ele>-4.0</ele><time>2026-05-02T12:20:40Z</time></trkpt><trkpt lat="44.85469810059466" lon="12.277471405201174"><ele>-3.9999999999999996</ele><time>2026-05-02T12:20:42Z</time></trkpt><trkpt lat="44.8546329433149" lon="12.277490054023405"><ele>-4.0</ele><time>2026-05-02T12:20:44Z</time></trkpt><trkpt lat="44.85456927968142" lon="12.277516538925463"><ele>-4.0</ele><time>2026-05-02T12:20:46Z</time></trkpt><trkpt lat="44.85448936353256" lon="12.277537017189339"><ele>-3.9999999999999996</ele><time>2026-05-02T12:20:48Z</time></trkpt><trkpt lat="44.854403109014264" lon="12.277557241680027"><ele>-4.0</ele><time>2026-05-02T12:20:50.001Z</time></trkpt><trkpt lat="44.854316584734086" lon="12.277591634095561"><ele>-4.0</ele><time>2026-05-02T12:20:52.001Z</time></trkpt><trkpt lat="44.85423138091461" lon="12.277615499628041"><ele>-4.0</ele><time>2026-05-02T12:20:54.001Z</time></trkpt><trkpt lat="44.854144459243706" lon="12.277646562688883"><ele>-3.9999999999999996</ele><time>2026-05-02T12:20:56.001Z</time></trkpt><trkpt lat="44.854057883360404" lon="12.277671493844515"><ele>-4.0</ele><time>2026-05-02T12:20:58.001Z</time></trkpt><trkpt lat="44.85397106225871" lon="12.27769619979211"><ele>-3.9999999999999996</ele><time>2026-05-02T12:21:00.001Z</time></trkpt><trkpt lat="44.8538863398258" lon="12.277725381435657"><ele>-4.0</ele><time>2026-05-02T12:21:02.001Z</time></trkpt><trkpt lat="44.85380118872355" lon="12.277752773293587"><ele>-4.0</ele><time>2026-05-02T12:21:04Z</time></trkpt><trkpt lat="44.8537192790881" lon="12.27778906474233"><ele>-4.0</ele><time>2026-05-02T12:21:06Z</time></trkpt><trkpt lat="44.8536406102981" lon="12.277814309047967"><ele>-3.9999999999999996</ele><time>2026-05-02T12:21:08Z</time></trkpt><trkpt lat="44.85356981188335" lon="12.277828610914767"><ele>-4.0</ele><time>2026-05-02T12:21:10Z</time></trkpt><trkpt lat="44.85348907743569" lon="12.277851613906028"><ele>-3.6666666666666665</ele><time>2026-05-02T12:21:12Z</time></trkpt><trkpt lat="44.85340364732423" lon="12.277875004246281"><ele>-3.333333333333333</ele><time>2026-05-02T12:21:14Z</time></trkpt><trkpt lat="44.85331617004916" lon="12.277899085905402"><ele>-3.0</ele><time>2026-05-02T12:21:16Z</time></trkpt><trkpt lat="44.85323301009512" lon="12.277935617618574"><ele>-2.6666666666666665</ele><time>2026-05-02T12:21:18Z</time></trkpt><trkpt lat="44.8531445632993" lon="12.277960959859605"><ele>-2.333333333333333</ele><time>2026-05-02T12:21:20Z</time></trkpt><trkpt lat="44.85305785393018" lon="12.277985792986309"><ele>-2.0</ele><time>2026-05-02T12:21:22Z</time></trkpt><trkpt lat="44.85297117237982" lon="12.27801234239265"><ele>-1.9999999999999998</ele><time>2026-05-02T12:21:24Z</time></trkpt><trkpt lat="44.85288355735942" lon="12.278037566703455"><ele>-2.0</ele><time>2026-05-02T12:21:26Z</time></trkpt><trkpt lat="44.85279761605563" lon="12.278077483372874"><ele>-2.0</ele><time>2026-05-02T12:21:28Z</time></trkpt><trkpt lat="44.85271061672961" lon="12.27810505743508"><ele>-2.0</ele><time>2026-05-02T12:21:30Z</time></trkpt><trkpt lat="44.852625243786505" lon="12.278126935600996"><ele>-1.9999999999999998</ele><time>2026-05-02T12:21:32Z</time></trkpt><trkpt lat="44.85254003065957" lon="12.278155631967786"><ele>-2.0</ele><time>2026-05-02T12:21:34Z</time></trkpt><trkpt lat="44.85245134921235" lon="12.27817223496199"><ele>-2.1666666666666665</ele><time>2026-05-02T12:21:36Z</time></trkpt><trkpt lat="44.85236617963481" lon="12.278201588412047"><ele>-2.333333333333333</ele><time>2026-05-02T12:21:38Z</time></trkpt><trkpt lat="44.852280275503496" lon="12.278230036404052"><ele>-2.5</ele><time>2026-05-02T12:21:40Z</time></trkpt><trkpt lat="44.85220075940052" lon="12.278256080844388"><ele>-2.6666666666666665</ele><time>2026-05-02T12:21:42Z</time></trkpt><trkpt lat="44.852128233327505" lon="12.278279967987093"><ele>-2.8333333333333335</ele><time>2026-05-02T12:21:44Z</time></trkpt><trkpt lat="44.852058797232665" lon="12.278303515906538"><ele>-3.0</ele><time>2026-05-02T12:21:46Z</time></trkpt><trkpt lat="44.85197796538752" lon="12.278318656849448"><ele>-3.0</ele><time>2026-05-02T12:21:48Z</time></trkpt><trkpt lat="44.85189227770632" lon="12.278350195481705"><ele>-3.0</ele><time>2026-05-02T12:21:50Z</time></trkpt><trkpt lat="44.851808544657835" lon="12.278382108885367"><ele>-3.0</ele><time>2026-05-02T12:21:52Z</time></trkpt><trkpt lat="44.85173341055735" lon="12.278413847526693"><ele>-3.0</ele><time>2026-05-02T12:21:54Z</time></trkpt><trkpt lat="44.85166341823887" lon="12.2784385426996"><ele>-3.0</ele><time>2026-05-02T12:21:56Z</time></trkpt><trkpt lat="44.851585623845736" lon="12.278446381627703"><ele>-3.0</ele><time>2026-05-02T12:21:58Z</time></trkpt><trkpt lat="44.85150265704341" lon="12.278476399376556"><ele>-3.0</ele><time>2026-05-02T12:22:00Z</time></trkpt><trkpt lat="44.85141729061458" lon="12.27850378643242"><ele>-3.0</ele><time>2026-05-02T12:22:02Z</time></trkpt><trkpt lat="44.851330668987984" lon="12.278520083373186"><ele>-3.0</ele><time>2026-05-02T12:22:04Z</time></trkpt><trkpt lat="44.85124559753806" lon="12.278545004975276"><ele>-3.0</ele><time>2026-05-02T12:22:06Z</time></trkpt><trkpt lat="44.85115975454888" lon="12.278574687818407"><ele>-3.0</ele><time>2026-05-02T12:22:08Z</time></trkpt><trkpt lat="44.85108268475283" lon="12.278603933757546"><ele>-3.0</ele><time>2026-05-02T12:22:10Z</time></trkpt><trkpt lat="44.851002150865334" lon="12.278618003307008"><ele>-3.3333333333333335</ele><time>2026-05-02T12:22:12Z</time></trkpt><trkpt lat="44.85091597203778" lon="12.278648063832591"><ele>-3.666666666666667</ele><time>2026-05-02T12:22:14Z</time></trkpt><trkpt lat="44.85083084956609" lon="12.278682913487987"><ele>-4.0</ele><time>2026-05-02T12:22:16Z</time></trkpt><trkpt lat="44.85074614561445" lon="12.278712027564229"><ele>-4.333333333333334</ele><time>2026-05-02T12:22:18Z</time></trkpt><trkpt lat="44.85065967494609" lon="12.278740046125424"><ele>-4.666666666666667</ele><time>2026-05-02T12:22:20Z</time></trkpt><trkpt lat="44.85057172740142" lon="12.278758800869056"><ele>-5.0</ele><time>2026-05-02T12:22:22Z</time></trkpt><trkpt lat="44.85048753188088" lon="12.278795263310924"><ele>-5.0</ele><time>2026-05-02T12:22:24Z</time></trkpt><trkpt lat="44.85040355009014" lon="12.278813218713797"><ele>-5.0</ele><time>2026-05-02T12:22:26Z</time></trkpt><trkpt lat="44.85031876784772" lon="12.27884589397303"><ele>-5.0</ele><time>2026-05-02T12:22:28Z</time></trkpt><trkpt lat="44.850232032786664" lon="12.27886758485364"><ele>-5.0</ele><time>2026-05-02T12:22:30Z</time></trkpt><trkpt lat="44.850144553682526" lon="12.278895528347823"><ele>-5.0</ele><time>2026-05-02T12:22:32Z</time></trkpt><trkpt lat="44.8500614336998" lon="12.278934817937333"><ele>-5.0</ele><time>2026-05-02T12:22:34Z</time></trkpt><trkpt lat="44.849978438768716" lon="12.278953284306933"><ele>-4.833333333333334</ele><time>2026-05-02T12:22:36Z</time></trkpt><trkpt lat="44.84989416945803" lon="12.278977836671393"><ele>-4.666666666666667</ele><time>2026-05-02T12:22:38Z</time></trkpt><trkpt lat="44.849808168270975" lon="12.279001441703837"><ele>-4.5</ele><time>2026-05-02T12:22:40Z</time></trkpt><trkpt lat="44.84972118129327" lon="12.279027453437825"><ele>-4.333333333333333</ele><time>2026-05-02T12:22:42Z</time></trkpt><trkpt lat="44.84963332088477" lon="12.279052753235629"><ele>-4.166666666666666</ele><time>2026-05-02T12:22:44Z</time></trkpt><trkpt lat="44.8495454577278" lon="12.279078641444638"><ele>-4.0</ele><time>2026-05-02T12:22:46Z</time></trkpt><trkpt lat="44.8494672989025" lon="12.27910177069955"><ele>-3.9999999999999996</ele><time>2026-05-02T12:22:48Z</time></trkpt><trkpt lat="44.849391647242015" lon="12.279122899775023"><ele>-4.0</ele><time>2026-05-02T12:22:50Z</time></trkpt><trkpt lat="44.84932280301699" lon="12.279147088917874"><ele>-4.0</ele><time>2026-05-02T12:22:52Z</time></trkpt><trkpt lat="44.849259153523434" lon="12.279169734113934"><ele>-4.0</ele><time>2026-05-02T12:22:54Z</time></trkpt><trkpt lat="44.84918269369584" lon="12.279189166606303"><ele>-3.9999999999999996</ele><time>2026-05-02T12:22:56Z</time></trkpt><trkpt lat="44.849098213313646" lon="12.279219455672385"><ele>-4.0</ele><time>2026-05-02T12:22:58Z</time></trkpt><trkpt lat="44.849013881325206" lon="12.279245821236964"><ele>-3.9999999999999996</ele><time>2026-05-02T12:23:00Z</time></trkpt><trkpt lat="44.84892839779532" lon="12.279274950650231"><ele>-4.0</ele><time>2026-05-02T12:23:02Z</time></trkpt><trkpt lat="44.84884393359758" lon="12.279305010650265"><ele>-4.0</ele><time>2026-05-02T12:23:04Z</time></trkpt><trkpt lat="44.84877025165123" lon="12.279329871027732"><ele>-4.0</ele><time>2026-05-02T12:23:06Z</time></trkpt><trkpt lat="44.84869805206464" lon="12.279348477812533"><ele>-3.9999999999999996</ele><time>2026-05-02T12:23:08Z</time></trkpt><trkpt lat="44.84863294184873" lon="12.27937036511403"><ele>-4.0</ele><time>2026-05-02T12:23:10Z</time></trkpt><trkpt lat="44.848544883371616" lon="12.27939899388021"><ele>-4.0</ele><time>2026-05-02T12:23:13Z</time></trkpt><trkpt lat="44.84846809509944" lon="12.279421803847923"><ele>-3.9999999999999996</ele><time>2026-05-02T12:23:16Z</time></trkpt><trkpt lat="44.84840411208968" lon="12.279440909778193"><ele>-4.0</ele><time>2026-05-02T12:23:19Z</time></trkpt><trkpt lat="44.84831707290622" lon="12.279469325497375"><ele>-4.0</ele><time>2026-05-02T12:23:23Z</time></trkpt><trkpt lat="44.84824852362924" lon="12.279498035420861"><ele>-3.9999999999999996</ele><time>2026-05-02T12:23:25Z</time></trkpt><trkpt lat="44.848181929938775" lon="12.27951670726535"><ele>-4.0</ele><time>2026-05-02T12:23:27Z</time></trkpt><trkpt lat="44.8481127589682" lon="12.279533677825828"><ele>-4.0</ele><time>2026-05-02T12:23:29Z</time></trkpt><trkpt lat="44.84803671413165" lon="12.27956152035904"><ele>-3.9999999999999996</ele><time>2026-05-02T12:23:31Z</time></trkpt><trkpt lat="44.847970654165124" lon="12.279588191458942"><ele>-4.0</ele><time>2026-05-02T12:23:33Z</time></trkpt><trkpt lat="44.84790644148864" lon="12.279602525849274"><ele>-4.0</ele><time>2026-05-02T12:23:35Z</time></trkpt><trkpt lat="44.84782213309809" lon="12.279628534414275"><ele>-4.0</ele><time>2026-05-02T12:23:38Z</time></trkpt><trkpt lat="44.84772793347134" lon="12.2796569551042"><ele>-3.9999999999999996</ele><time>2026-05-02T12:23:41Z</time></trkpt><trkpt lat="44.847657129146086" lon="12.27967829152851"><ele>-4.0</ele><time>2026-05-02T12:23:43Z</time></trkpt><trkpt lat="44.84759298731791" lon="12.279703081254917"><ele>-3.9999999999999996</ele><time>2026-05-02T12:23:45Z</time></trkpt><trkpt lat="44.84750664151162" lon="12.279724740842028"><ele>-4.0</ele><time>2026-05-02T12:23:48Z</time></trkpt><trkpt lat="44.84743303295153" lon="12.279738411726852"><ele>-4.0</ele><time>2026-05-02T12:23:51Z</time></trkpt><trkpt lat="44.84734773574095" lon="12.279781904484878"><ele>-4.0</ele><time>2026-05-02T12:23:54Z</time></trkpt><trkpt lat="44.84726165058875" lon="12.279804720966155"><ele>-3.9999999999999996</ele><time>2026-05-02T12:23:57Z</time></trkpt><trkpt lat="44.84719389621126" lon="12.279815291391769"><ele>-4.0</ele><time>2026-05-02T12:23:59Z</time></trkpt><trkpt lat="44.84712474595689" lon="12.279839164089703"><ele>-3.833333333333333</ele><time>2026-05-02T12:24:01Z</time></trkpt><trkpt lat="44.84704171432634" lon="12.279867727741047"><ele>-3.6666666666666665</ele><time>2026-05-02T12:24:03Z</time></trkpt><trkpt lat="44.846958089337726" lon="12.27989252692428"><ele>-3.5</ele><time>2026-05-02T12:24:05Z</time></trkpt><trkpt lat="44.84688173049799" lon="12.279918848747855"><ele>-3.333333333333333</ele><time>2026-05-02T12:24:07Z</time></trkpt><trkpt lat="44.846809819973416" lon="12.27994192609684"><ele>-3.1666666666666665</ele><time>2026-05-02T12:24:09Z</time></trkpt><trkpt lat="44.846742333657254" lon="12.279963179012086"><ele>-3.0</ele><time>2026-05-02T12:24:11Z</time></trkpt><trkpt lat="44.84665609999262" lon="12.279999745422865"><ele>-3.0</ele><time>2026-05-02T12:24:14Z</time></trkpt><trkpt lat="44.84657016268584" lon="12.280017447660875"><ele>-3.0</ele><time>2026-05-02T12:24:17Z</time></trkpt><trkpt lat="44.84650677495689" lon="12.279996333685418"><ele>-3.0</ele><time>2026-05-02T12:24:19Z</time></trkpt><trkpt lat="44.84647106337478" lon="12.279875225991233"><ele>-3.0</ele><time>2026-05-02T12:24:22Z</time></trkpt><trkpt lat="44.846458393120386" lon="12.27978408703859"><ele>-3.0</ele><time>2026-05-02T12:24:24Z</time></trkpt><trkpt lat="44.84643540277034" lon="12.279673161741687"><ele>-3.0</ele><time>2026-05-02T12:24:26Z</time></trkpt><trkpt lat="44.84642287774248" lon="12.279550439058614"><ele>-3.2</ele><time>2026-05-02T12:24:28Z</time></trkpt><trkpt lat="44.84639947582373" lon="12.279424089241138"><ele>-3.4</ele><time>2026-05-02T12:24:30Z</time></trkpt><trkpt lat="44.84637104172534" lon="12.27930676596906"><ele>-3.6000000000000005</ele><time>2026-05-02T12:24:32Z</time></trkpt><trkpt lat="44.846359147747805" lon="12.279176226275826"><ele>-3.8000000000000003</ele><time>2026-05-02T12:24:34Z</time></trkpt><trkpt lat="44.846338510377606" lon="12.279056966159125"><ele>-4.0</ele><time>2026-05-02T12:24:36Z</time></trkpt><trkpt lat="44.846320412513975" lon="12.278932263587928"><ele>-3.9999999999999996</ele><time>2026-05-02T12:24:38Z</time></trkpt><trkpt lat="44.84630363128628" lon="12.278812360801512"><ele>-4.0</ele><time>2026-05-02T12:24:40Z</time></trkpt><trkpt lat="44.84628197113079" lon="12.27869610608907"><ele>-4.0</ele><time>2026-05-02T12:24:42Z</time></trkpt><trkpt lat="44.84626618555078" lon="12.27857932543534"><ele>-4.0</ele><time>2026-05-02T12:24:44Z</time></trkpt><trkpt lat="44.8462395695756" lon="12.27846603536134"><ele>-3.9999999999999996</ele><time>2026-05-02T12:24:46Z</time></trkpt><trkpt lat="44.84622585067976" lon="12.278352631377604"><ele>-4.0</ele><time>2026-05-02T12:24:48Z</time></trkpt><trkpt lat="44.846203367810624" lon="12.278241412743204"><ele>-3.9999999999999996</ele><time>2026-05-02T12:24:50Z</time></trkpt><trkpt lat="44.846170409116226" lon="12.278141106305155"><ele>-4.0</ele><time>2026-05-02T12:24:52Z</time></trkpt><trkpt lat="44.84612028775182" lon="12.27805062272178"><ele>-4.0</ele><time>2026-05-02T12:24:54Z</time></trkpt><trkpt lat="44.846069071421276" lon="12.277962559562233"><ele>-4.0</ele><time>2026-05-02T12:24:56Z</time></trkpt><trkpt lat="44.84601677743501" lon="12.27788113414947"><ele>-3.9999999999999996</ele><time>2026-05-02T12:24:58Z</time></trkpt><trkpt lat="44.845955187332194" lon="12.277809328283636"><ele>-4.0</ele><time>2026-05-02T12:25:00Z</time></trkpt><trkpt lat="44.84590097012849" lon="12.277735981374208"><ele>-3.714285714285714</ele><time>2026-05-02T12:25:02Z</time></trkpt><trkpt lat="44.84584194771425" lon="12.277659253203657"><ele>-3.428571428571428</ele><time>2026-05-02T12:25:05Z</time></trkpt><trkpt lat="44.845801526190975" lon="12.277586406028819"><ele>-3.142857142857143</ele><time>2026-05-02T12:25:07Z</time></trkpt><trkpt lat="44.84575324779786" lon="12.27749289715234"><ele>-2.8571428571428568</ele><time>2026-05-02T12:25:10Z</time></trkpt><trkpt lat="44.84571107931429" lon="12.277412930325484"><ele>-2.571428571428571</ele><time>2026-05-02T12:25:13Z</time></trkpt><trkpt lat="44.845662608179566" lon="12.27748599205857"><ele>-2.2857142857142856</ele><time>2026-05-02T12:25:35Z</time></trkpt><trkpt lat="44.845615365619935" lon="12.277546372080383"><ele>-2.0</ele><time>2026-05-02T12:25:38Z</time></trkpt><trkpt lat="44.84554963705056" lon="12.277619502325312"><ele>-1.9999999999999998</ele><time>2026-05-02T12:25:41Z</time></trkpt><trkpt lat="44.845484999691216" lon="12.27770048705218"><ele>-2.0</ele><time>2026-05-02T12:25:44Z</time></trkpt><trkpt lat="44.84543789870049" lon="12.277768743586352"><ele>-2.0</ele><time>2026-05-02T12:25:47Z</time></trkpt><trkpt lat="44.8453820754758" lon="12.277842871136052"><ele>-2.0</ele><time>2026-05-02T12:25:50Z</time></trkpt><trkpt lat="44.8453238526252" lon="12.277915127539085"><ele>-1.9999999999999998</ele><time>2026-05-02T12:25:52Z</time></trkpt><trkpt lat="44.845261615582174" lon="12.277993894449663"><ele>-2.0</ele><time>2026-05-02T12:25:54Z</time></trkpt><trkpt lat="44.84520136405512" lon="12.278074498767499"><ele>-2.1666666666666665</ele><time>2026-05-02T12:25:56Z</time></trkpt><trkpt lat="44.84514455750618" lon="12.27814150359854"><ele>-2.333333333333333</ele><time>2026-05-02T12:25:58Z</time></trkpt><trkpt lat="44.845086370185996" lon="12.278219713785429"><ele>-2.5</ele><time>2026-05-02T12:26:00Z</time></trkpt><trkpt lat="44.84502199864303" lon="12.278297946838022"><ele>-2.6666666666666665</ele><time>2026-05-02T12:26:02Z</time></trkpt><trkpt lat="44.844961318217216" lon="12.278382156414205"><ele>-2.8333333333333335</ele><time>2026-05-02T12:26:04Z</time></trkpt><trkpt lat="44.84489738499376" lon="12.27845867305131"><ele>-3.0</ele><time>2026-05-02T12:26:06Z</time></trkpt><trkpt lat="44.844831682251225" lon="12.278543077932634"><ele>-3.0</ele><time>2026-05-02T12:26:08Z</time></trkpt><trkpt lat="44.84477285191311" lon="12.278619846289253"><ele>-3.0</ele><time>2026-05-02T12:26:10Z</time></trkpt><trkpt lat="44.84470908390187" lon="12.278702711237617"><ele>-3.0</ele><time>2026-05-02T12:26:12Z</time></trkpt><trkpt lat="44.84464437732384" lon="12.278787570843086"><ele>-3.0</ele><time>2026-05-02T12:26:14Z</time></trkpt><trkpt lat="44.844577786115934" lon="12.278871969558686"><ele>-3.0</ele><time>2026-05-02T12:26:16Z</time></trkpt><trkpt lat="44.84451305988994" lon="12.278956915853522"><ele>-3.0</ele><time>2026-05-02T12:26:18Z</time></trkpt><trkpt lat="44.84444742793785" lon="12.279035160807751"><ele>-3.0</ele><time>2026-05-02T12:26:20Z</time></trkpt><trkpt lat="44.84438938886755" lon="12.279122198432567"><ele>-3.0</ele><time>2026-05-02T12:26:22Z</time></trkpt><trkpt lat="44.84434042250082" lon="12.279194140813875"><ele>-3.0</ele><time>2026-05-02T12:26:24Z</time></trkpt><trkpt lat="44.84428529593402" lon="12.279261361662211"><ele>-3.0</ele><time>2026-05-02T12:26:26Z</time></trkpt><trkpt lat="44.844223080599164" lon="12.279344779932984"><ele>-3.0</ele><time>2026-05-02T12:26:28Z</time></trkpt><trkpt lat="44.844159892066266" lon="12.27942528368929"><ele>-3.0</ele><time>2026-05-02T12:26:30Z</time></trkpt><trkpt lat="44.84409618966242" lon="12.279507040384974"><ele>-3.0</ele><time>2026-05-02T12:26:32Z</time></trkpt><trkpt lat="44.844032575401044" lon="12.279588315353044"><ele>-3.0</ele><time>2026-05-02T12:26:34Z</time></trkpt><trkpt lat="44.84397049105232" lon="12.279666429770314"><ele>-3.0</ele><time>2026-05-02T12:26:36Z</time></trkpt><trkpt lat="44.84390603363157" lon="12.279733064979892"><ele>-3.0</ele><time>2026-05-02T12:26:38Z</time></trkpt><trkpt lat="44.84385560170095" lon="12.279794601066701"><ele>-3.0</ele><time>2026-05-02T12:26:40Z</time></trkpt><trkpt lat="44.84380397800208" lon="12.279886747425094"><ele>-3.0</ele><time>2026-05-02T12:26:43Z</time></trkpt><trkpt lat="44.84374181393478" lon="12.279958586883595"><ele>-3.1666666666666665</ele><time>2026-05-02T12:26:45Z</time></trkpt><trkpt lat="44.84369504195248" lon="12.28003147191811"><ele>-3.333333333333333</ele><time>2026-05-02T12:26:47Z</time></trkpt><trkpt lat="44.84365963018917" lon="12.28011125019647"><ele>-3.5</ele><time>2026-05-02T12:26:49Z</time></trkpt><trkpt lat="44.84360879418234" lon="12.280191746982029"><ele>-3.6666666666666665</ele><time>2026-05-02T12:26:51Z</time></trkpt><trkpt lat="44.84353702692486" lon="12.280245248593358"><ele>-3.833333333333333</ele><time>2026-05-02T12:26:53Z</time></trkpt><trkpt lat="44.84346697618601" lon="12.280316831224855"><ele>-4.0</ele><time>2026-05-02T12:26:55Z</time></trkpt><trkpt lat="44.84340274849125" lon="12.2803918026921"><ele>-3.9999999999999996</ele><time>2026-05-02T12:26:57Z</time></trkpt><trkpt lat="44.843337392305536" lon="12.280471676531972"><ele>-4.0</ele><time>2026-05-02T12:26:59Z</time></trkpt><trkpt lat="44.84327256717697" lon="12.280556950467961"><ele>-4.0</ele><time>2026-05-02T12:27:01Z</time></trkpt><trkpt lat="44.84321083917036" lon="12.280627182267422"><ele>-4.0</ele><time>2026-05-02T12:27:03Z</time></trkpt><trkpt lat="44.84314981245896" lon="12.280687239710995"><ele>-3.9999999999999996</ele><time>2026-05-02T12:27:05Z</time></trkpt><trkpt lat="44.843088347997956" lon="12.280775059435712"><ele>-4.0</ele><time>2026-05-02T12:27:07Z</time></trkpt><trkpt lat="44.84303535775897" lon="12.280844101442286"><ele>-4.0</ele><time>2026-05-02T12:27:09Z</time></trkpt><trkpt lat="44.84298309109639" lon="12.280909668354791"><ele>-3.9999999999999996</ele><time>2026-05-02T12:27:11Z</time></trkpt><trkpt lat="44.84292083346081" lon="12.280983524188848"><ele>-4.0</ele><time>2026-05-02T12:27:13Z</time></trkpt><trkpt lat="44.842866679821405" lon="12.281053906887179"><ele>-4.0</ele><time>2026-05-02T12:27:15Z</time></trkpt><trkpt lat="44.84281608098934" lon="12.281118697398007"><ele>-3.9999999999999996</ele><time>2026-05-02T12:27:17Z</time></trkpt><trkpt lat="44.842765474587544" lon="12.281171601094007"><ele>-4.0</ele><time>2026-05-02T12:27:19Z</time></trkpt><trkpt lat="44.842707381762345" lon="12.281220005603005"><ele>-4.0</ele><time>2026-05-02T12:27:21Z</time></trkpt><trkpt lat="44.8426346229267" lon="12.281290255676797"><ele>-3.833333333333333</ele><time>2026-05-02T12:27:23Z</time></trkpt><trkpt lat="44.84256198153616" lon="12.28134778217051"><ele>-3.6666666666666665</ele><time>2026-05-02T12:27:25Z</time></trkpt><trkpt lat="44.842495206695425" lon="12.281369199289587"><ele>-3.5</ele><time>2026-05-02T12:27:27Z</time></trkpt><trkpt lat="44.84243336747242" lon="12.28141642009774"><ele>-3.333333333333333</ele><time>2026-05-02T12:27:30Z</time></trkpt><trkpt lat="44.842352141864794" lon="12.281455376091015"><ele>-3.1666666666666665</ele><time>2026-05-02T12:27:33Z</time></trkpt><trkpt lat="44.8422902615426" lon="12.281532067914705"><ele>-3.0</ele><time>2026-05-02T12:28:08Z</time></trkpt><trkpt lat="44.842240035762615" lon="12.281614504110982"><ele>-2.8333333333333335</ele><time>2026-05-02T12:28:10Z</time></trkpt><trkpt lat="44.84217539627307" lon="12.281673559864606"><ele>-2.6666666666666665</ele><time>2026-05-02T12:28:12Z</time></trkpt><trkpt lat="44.8421025464097" lon="12.28173865000349"><ele>-2.5</ele><time>2026-05-02T12:28:14Z</time></trkpt><trkpt lat="44.842045067287096" lon="12.281827164456018"><ele>-2.333333333333333</ele><time>2026-05-02T12:28:16Z</time></trkpt><trkpt lat="44.841986375702" lon="12.281910311236215"><ele>-2.1666666666666665</ele><time>2026-05-02T12:28:18Z</time></trkpt><trkpt lat="44.84193095858103" lon="12.281982509090625"><ele>-2.0</ele><time>2026-05-02T12:28:20Z</time></trkpt><trkpt lat="44.84187932455426" lon="12.282048759104928"><ele>-1.9999999999999998</ele><time>2026-05-02T12:28:22Z</time></trkpt><trkpt lat="44.84182589984882" lon="12.28215780757034"><ele>-2.0</ele><time>2026-05-02T12:28:25Z</time></trkpt><trkpt lat="44.84175061121505" lon="12.282248880142582"><ele>-2.0</ele><time>2026-05-02T12:28:28Z</time></trkpt><trkpt lat="44.841699736616924" lon="12.282334286800035"><ele>-2.0</ele><time>2026-05-02T12:28:30Z</time></trkpt><trkpt lat="44.84165305008389" lon="12.282413608831648"><ele>-1.9999999999999998</ele><time>2026-05-02T12:28:32Z</time></trkpt><trkpt lat="44.84159486904929" lon="12.282495717397664"><ele>-2.0</ele><time>2026-05-02T12:28:34Z</time></trkpt><trkpt lat="44.84154242175351" lon="12.282581223386162"><ele>-1.9999999999999998</ele><time>2026-05-02T12:28:36Z</time></trkpt><trkpt lat="44.84149785638294" lon="12.28265180429049"><ele>-2.0</ele><time>2026-05-02T12:28:38Z</time></trkpt><trkpt lat="44.84145485668799" lon="12.282719355624668"><ele>-2.0</ele><time>2026-05-02T12:28:40Z</time></trkpt><trkpt lat="44.84140791757004" lon="12.28282317505082"><ele>-2.0</ele><time>2026-05-02T12:28:43Z</time></trkpt><trkpt lat="44.84136194385947" lon="12.282920227559641"><ele>-1.9999999999999998</ele><time>2026-05-02T12:28:46Z</time></trkpt><trkpt lat="44.84131213297917" lon="12.282990046109923"><ele>-2.0</ele><time>2026-05-02T12:28:48Z</time></trkpt><trkpt lat="44.84124285500324" lon="12.283064616186596"><ele>-1.8333333333333333</ele><time>2026-05-02T12:28:50Z</time></trkpt><trkpt lat="44.84118420772065" lon="12.283140613952826"><ele>-1.6666666666666665</ele><time>2026-05-02T12:28:52Z</time></trkpt><trkpt lat="44.84113422426966" lon="12.28321426064932"><ele>-1.5</ele><time>2026-05-02T12:28:54Z</time></trkpt><trkpt lat="44.84108260379702" lon="12.28327063950429"><ele>-1.3333333333333333</ele><time>2026-05-02T12:28:56Z</time></trkpt><trkpt lat="44.84102361945027" lon="12.283346947194062"><ele>-1.1666666666666665</ele><time>2026-05-02T12:28:58Z</time></trkpt><trkpt lat="44.84096859475199" lon="12.28341150664025"><ele>-1.0</ele><time>2026-05-02T12:29:00Z</time></trkpt><trkpt lat="44.840901517160084" lon="12.283499180169256"><ele>-0.9999999999999999</ele><time>2026-05-02T12:29:03Z</time></trkpt><trkpt lat="44.84083266720792" lon="12.283584477751933"><ele>-1.0</ele><time>2026-05-02T12:29:06Z</time></trkpt><trkpt lat="44.84076874100568" lon="12.283657900440781"><ele>-1.0</ele><time>2026-05-02T12:29:08Z</time></trkpt><trkpt lat="44.84071583543557" lon="12.283719548984804"><ele>-1.0</ele><time>2026-05-02T12:29:10Z</time></trkpt><trkpt lat="44.84064648130558" lon="12.283801333040909"><ele>-0.9999999999999999</ele><time>2026-05-02T12:29:13Z</time></trkpt><trkpt lat="44.840582252271076" lon="12.283879512657217"><ele>-1.0</ele><time>2026-05-02T12:29:16Z</time></trkpt><trkpt lat="44.84051385867293" lon="12.28396513117965"><ele>-0.8571428571428571</ele><time>2026-05-02T12:29:19Z</time></trkpt><trkpt lat="44.84045134024865" lon="12.284040397001572"><ele>-0.7142857142857142</ele><time>2026-05-02T12:29:22Z</time></trkpt><trkpt lat="44.840395947661484" lon="12.284108084513154"><ele>-0.5714285714285714</ele><time>2026-05-02T12:29:25Z</time></trkpt><trkpt lat="44.84034769301747" lon="12.28416855930231"><ele>-0.42857142857142855</ele><time>2026-05-02T12:29:27Z</time></trkpt><trkpt lat="44.84028556537889" lon="12.284241175506425"><ele>-0.2857142857142857</ele><time>2026-05-02T12:29:30Z</time></trkpt><trkpt lat="44.840236887855106" lon="12.284304456434876"><ele>-0.14285714285714285</ele><time>2026-05-02T12:29:32Z</time></trkpt><trkpt lat="44.84017923509799" lon="12.2843697887096"><ele>0.0</ele><time>2026-05-02T12:29:34Z</time></trkpt><trkpt lat="44.84012775380546" lon="12.28443586870492"><ele>0.0</ele><time>2026-05-02T12:29:36Z</time></trkpt><trkpt lat="44.840062873748856" lon="12.28451723262848"><ele>0.0</ele><time>2026-05-02T12:29:39Z</time></trkpt><trkpt lat="44.839998565042606" lon="12.284599338697541"><ele>0.0</ele><time>2026-05-02T12:29:42Z</time></trkpt><trkpt lat="44.83994811134944" lon="12.284658515514638"><ele>0.0</ele><time>2026-05-02T12:29:44Z</time></trkpt><trkpt lat="44.839886648901576" lon="12.284735329502514"><ele>0.0</ele><time>2026-05-02T12:29:47Z</time></trkpt><trkpt lat="44.83983175560262" lon="12.284816534170242"><ele>0.0</ele><time>2026-05-02T12:29:50Z</time></trkpt><trkpt lat="44.83977681826426" lon="12.284874252906864"><ele>-0.14285714285714285</ele><time>2026-05-02T12:29:52Z</time></trkpt><trkpt lat="44.83972659322368" lon="12.28493981357931"><ele>-0.2857142857142857</ele><time>2026-05-02T12:29:54Z</time></trkpt><trkpt lat="44.83967180062176" lon="12.28500282420602"><ele>-0.42857142857142855</ele><time>2026-05-02T12:29:56Z</time></trkpt><trkpt lat="44.83959738466166" lon="12.285071792913445"><ele>-0.5714285714285714</ele><time>2026-05-02T12:29:59Z</time></trkpt><trkpt lat="44.8395380548486" lon="12.285105689493923"><ele>-0.7142857142857142</ele><time>2026-05-02T12:30:01Z</time></trkpt><trkpt lat="44.83946744157804" lon="12.28512452426968"><ele>-0.8571428571428571</ele><time>2026-05-02T12:30:03Z</time></trkpt><trkpt lat="44.83939944783391" lon="12.285117552710776"><ele>-1.0</ele><time>2026-05-02T12:30:05Z</time></trkpt><trkpt lat="44.83932548988204" lon="12.285098221149056"><ele>-0.9999999999999999</ele><time>2026-05-02T12:30:07Z</time></trkpt><trkpt lat="44.839257080693955" lon="12.28507819071173"><ele>-1.0</ele><time>2026-05-02T12:30:09Z</time></trkpt><trkpt lat="44.83916792417062" lon="12.285057263693133"><ele>-1.0</ele><time>2026-05-02T12:30:12Z</time></trkpt><trkpt lat="44.83908299305316" lon="12.28502997718548"><ele>-1.0</ele><time>2026-05-02T12:30:15Z</time></trkpt><trkpt lat="44.83900811493963" lon="12.285007673028796"><ele>-0.9999999999999999</ele><time>2026-05-02T12:30:17Z</time></trkpt><trkpt lat="44.838942853772025" lon="12.28499151332857"><ele>-1.0</ele><time>2026-05-02T12:30:19Z</time></trkpt><trkpt lat="44.838860640010516" lon="12.28496963258639"><ele>-0.9999999999999999</ele><time>2026-05-02T12:30:22Z</time></trkpt><trkpt lat="44.83877469639271" lon="12.284949363405955"><ele>-1.0</ele><time>2026-05-02T12:30:25Z</time></trkpt><trkpt lat="44.83869910427863" lon="12.284928997904856"><ele>-1.0</ele><time>2026-05-02T12:30:27Z</time></trkpt><trkpt lat="44.83863661188599" lon="12.284914478376978"><ele>-1.0</ele><time>2026-05-02T12:30:29Z</time></trkpt><trkpt lat="44.83854559891783" lon="12.284887071053417"><ele>-0.9999999999999999</ele><time>2026-05-02T12:30:32Z</time></trkpt><trkpt lat="44.8384735487507" lon="12.28486624386712"><ele>-1.0</ele><time>2026-05-02T12:30:34Z</time></trkpt><trkpt lat="44.8384054576763" lon="12.284849788182877"><ele>-0.8333333333333333</ele><time>2026-05-02T12:30:36Z</time></trkpt><trkpt lat="44.83834131205472" lon="12.284826713964675"><ele>-0.6666666666666666</ele><time>2026-05-02T12:30:38Z</time></trkpt><trkpt lat="44.838262094252364" lon="12.284783637497846"><ele>-0.5</ele><time>2026-05-02T12:30:40Z</time></trkpt><trkpt lat="44.838187683552924" lon="12.284732250354939"><ele>-0.3333333333333333</ele><time>2026-05-02T12:30:42Z</time></trkpt><trkpt lat="44.83812271767179" lon="12.284686371463684"><ele>-0.16666666666666666</ele><time>2026-05-02T12:30:44Z</time></trkpt><trkpt lat="44.83805270522188" lon="12.28464978312231"><ele>0.0</ele><time>2026-05-02T12:30:46Z</time></trkpt><trkpt lat="44.83797194102215" lon="12.28461336745512"><ele>-0.16666666666666666</ele><time>2026-05-02T12:30:48Z</time></trkpt><trkpt lat="44.83789034191621" lon="12.284591140978007"><ele>-0.3333333333333333</ele><time>2026-05-02T12:30:50Z</time></trkpt><trkpt lat="44.837816642879424" lon="12.284582972877837"><ele>-0.5</ele><time>2026-05-02T12:30:52Z</time></trkpt><trkpt lat="44.83775103487525" lon="12.284566130894202"><ele>-0.6666666666666666</ele><time>2026-05-02T12:30:54Z</time></trkpt><trkpt lat="44.83767380986082" lon="12.2845456678836"><ele>-0.8333333333333333</ele><time>2026-05-02T12:30:56Z</time></trkpt><trkpt lat="44.83759089545152" lon="12.28450521386674"><ele>-1.0</ele><time>2026-05-02T12:30:58Z</time></trkpt><trkpt lat="44.837511613799755" lon="12.28445543455625"><ele>-0.9999999999999999</ele><time>2026-05-02T12:31:00Z</time></trkpt><trkpt lat="44.83743839144941" lon="12.28439367713028"><ele>-1.0</ele><time>2026-05-02T12:31:02Z</time></trkpt><trkpt lat="44.837362278929085" lon="12.284331496448866"><ele>-1.0</ele><time>2026-05-02T12:31:04Z</time></trkpt><trkpt lat="44.83728703023882" lon="12.284262307805387"><ele>-1.0</ele><time>2026-05-02T12:31:06Z</time></trkpt><trkpt lat="44.83721128251354" lon="12.284204053570791"><ele>-0.9999999999999999</ele><time>2026-05-02T12:31:08Z</time></trkpt><trkpt lat="44.83713747311196" lon="12.284142168217075"><ele>-1.0</ele><time>2026-05-02T12:31:10Z</time></trkpt><trkpt lat="44.83706429883072" lon="12.284073044061003"><ele>-0.9999999999999999</ele><time>2026-05-02T12:31:12Z</time></trkpt><trkpt lat="44.83698987037234" lon="12.28401515708346"><ele>-1.0</ele><time>2026-05-02T12:31:14Z</time></trkpt><trkpt lat="44.836914195645676" lon="12.283949085473168"><ele>-1.0</ele><time>2026-05-02T12:31:16Z</time></trkpt><trkpt lat="44.83684238380751" lon="12.283880974021494"><ele>-1.0</ele><time>2026-05-02T12:31:18Z</time></trkpt><trkpt lat="44.83677110718657" lon="12.2838110226766"><ele>-0.9999999999999999</ele><time>2026-05-02T12:31:20Z</time></trkpt><trkpt lat="44.83670654844117" lon="12.283736063437797"><ele>-1.0</ele><time>2026-05-02T12:31:22Z</time></trkpt><trkpt lat="44.83664910295305" lon="12.28366996789922"><ele>-1.3333333333333333</ele><time>2026-05-02T12:31:24Z</time></trkpt><trkpt lat="44.83659441396393" lon="12.283616904991781"><ele>-1.6666666666666665</ele><time>2026-05-02T12:31:26Z</time></trkpt><trkpt lat="44.83653290400965" lon="12.283534750617608"><ele>-2.0</ele><time>2026-05-02T12:31:29Z</time></trkpt><trkpt lat="44.836482054162886" lon="12.2834343003384"><ele>-2.3333333333333335</ele><time>2026-05-02T12:31:33Z</time></trkpt><trkpt lat="44.836432020823814" lon="12.283367448510424"><ele>-2.6666666666666665</ele><time>2026-05-02T12:31:35Z</time></trkpt><trkpt lat="44.83638108901155" lon="12.28329449440651"><ele>-3.0</ele><time>2026-05-02T12:31:37Z</time></trkpt><trkpt lat="44.836320405123274" lon="12.283205409043546"><ele>-3.0</ele><time>2026-05-02T12:31:51Z</time></trkpt><trkpt lat="44.83626462520931" lon="12.283139076511333"><ele>-3.0</ele><time>2026-05-02T12:31:53Z</time></trkpt><trkpt lat="44.83621015127952" lon="12.283055059440974"><ele>-3.0</ele><time>2026-05-02T12:31:55Z</time></trkpt><trkpt lat="44.836151531212046" lon="12.282970856055824"><ele>-3.0</ele><time>2026-05-02T12:31:57Z</time></trkpt><trkpt lat="44.8360915458837" lon="12.282892009281223"><ele>-3.0</ele><time>2026-05-02T12:31:59Z</time></trkpt><trkpt lat="44.83603868220997" lon="12.282818218463825"><ele>-3.0</ele><time>2026-05-02T12:32:01Z</time></trkpt><trkpt lat="44.83599370488137" lon="12.282752600212467"><ele>-2.6666666666666665</ele><time>2026-05-02T12:32:03Z</time></trkpt><trkpt lat="44.83593501614901" lon="12.282663035036968"><ele>-2.3333333333333335</ele><time>2026-05-02T12:32:06Z</time></trkpt><trkpt lat="44.83589261988149" lon="12.282579027520189"><ele>-2.0</ele><time>2026-05-02T12:35:56Z</time></trkpt><trkpt lat="44.83584560521932" lon="12.282462813921827"><ele>-1.6666666666666665</ele><time>2026-05-02T12:35:59Z</time></trkpt><trkpt lat="44.83580475055775" lon="12.282333364670283"><ele>-1.3333333333333333</ele><time>2026-05-02T12:36:02Z</time></trkpt><trkpt lat="44.83577446894063" lon="12.282232187834985"><ele>-1.0</ele><time>2026-05-02T12:36:04Z</time></trkpt><trkpt lat="44.83574806868544" lon="12.282148701556666"><ele>-1.0</ele><time>2026-05-02T12:36:06Z</time></trkpt><trkpt lat="44.83572296192199" lon="12.282058995616627"><ele>-0.9999999999999999</ele><time>2026-05-02T12:36:08Z</time></trkpt><trkpt lat="44.835691090069204" lon="12.281955988278986"><ele>-1.0</ele><time>2026-05-02T12:36:10Z</time></trkpt><trkpt lat="44.83565609939132" lon="12.281869648619264"><ele>-1.0</ele><time>2026-05-02T12:36:12Z</time></trkpt><trkpt lat="44.8356242740138" lon="12.281786977408288"><ele>-0.9999999999999999</ele><time>2026-05-02T12:36:14Z</time></trkpt><trkpt lat="44.835575180258445" lon="12.281692370023052"><ele>-1.0</ele><time>2026-05-02T12:36:16Z</time></trkpt><trkpt lat="44.83552749413788" lon="12.281616889643663"><ele>-1.0</ele><time>2026-05-02T12:36:18Z</time></trkpt><trkpt lat="44.83548500498038" lon="12.281549787465343"><ele>-0.9999999999999999</ele><time>2026-05-02T12:36:20Z</time></trkpt><trkpt lat="44.83543999799273" lon="12.281483596008526"><ele>-1.0</ele><time>2026-05-02T12:36:22Z</time></trkpt><trkpt lat="44.83539049241068" lon="12.281400791086767"><ele>-1.0</ele><time>2026-05-02T12:36:24Z</time></trkpt><trkpt lat="44.83534819514057" lon="12.28132296966246"><ele>-1.0</ele><time>2026-05-02T12:36:26Z</time></trkpt><trkpt lat="44.835302730629586" lon="12.281243247585902"><ele>-0.9999999999999999</ele><time>2026-05-02T12:36:28Z</time></trkpt><trkpt lat="44.835246840008345" lon="12.281151229271373"><ele>-1.0</ele><time>2026-05-02T12:36:30Z</time></trkpt><trkpt lat="44.8351928252583" lon="12.28105602501745"><ele>-0.9999999999999999</ele><time>2026-05-02T12:36:32Z</time></trkpt><trkpt lat="44.83513896775389" lon="12.28096519007697"><ele>-1.0</ele><time>2026-05-02T12:36:34Z</time></trkpt><trkpt lat="44.83508587011329" lon="12.2808767129726"><ele>-1.0</ele><time>2026-05-02T12:36:36Z</time></trkpt><trkpt lat="44.83503116200645" lon="12.280784003233109"><ele>-1.0</ele><time>2026-05-02T12:36:38Z</time></trkpt><trkpt lat="44.83497862175018" lon="12.280694428586077"><ele>-0.9999999999999999</ele><time>2026-05-02T12:36:40Z</time></trkpt><trkpt lat="44.8349209660255" lon="12.280606254712165"><ele>-1.0</ele><time>2026-05-02T12:36:42Z</time></trkpt><trkpt lat="44.83487012248562" lon="12.280514629793615"><ele>-0.6666666666666666</ele><time>2026-05-02T12:36:44Z</time></trkpt><trkpt lat="44.8348181648137" lon="12.280420664749169"><ele>-0.3333333333333333</ele><time>2026-05-02T12:36:46Z</time></trkpt><trkpt lat="44.83476000944113" lon="12.280331674729934"><ele>0.0</ele><time>2026-05-02T12:36:48Z</time></trkpt><trkpt lat="44.834702950032955" lon="12.28024729659627"><ele>0.3333333333333333</ele><time>2026-05-02T12:36:50Z</time></trkpt><trkpt lat="44.83464900335241" lon="12.280154784840446"><ele>0.6666666666666666</ele><time>2026-05-02T12:36:52Z</time></trkpt><trkpt lat="44.83458773162301" lon="12.280066429899824"><ele>1.0</ele><time>2026-05-02T12:36:54Z</time></trkpt><trkpt lat="44.83452916138954" lon="12.279975297278321"><ele>0.9999999999999999</ele><time>2026-05-02T12:36:56Z</time></trkpt><trkpt lat="44.83446798782797" lon="12.279885307592622"><ele>1.0</ele><time>2026-05-02T12:36:58Z</time></trkpt><trkpt lat="44.834407020804" lon="12.279800359367234"><ele>1.0</ele><time>2026-05-02T12:37:00Z</time></trkpt><trkpt lat="44.83435072297536" lon="12.279710540062618"><ele>1.0</ele><time>2026-05-02T12:37:02Z</time></trkpt><trkpt lat="44.83429075377334" lon="12.279621971228005"><ele>0.9999999999999999</ele><time>2026-05-02T12:37:04Z</time></trkpt><trkpt lat="44.8342327696089" lon="12.279533798569405"><ele>1.0</ele><time>2026-05-02T12:37:06Z</time></trkpt><trkpt lat="44.83417571353178" lon="12.27944503333064"><ele>0.6666666666666666</ele><time>2026-05-02T12:37:08Z</time></trkpt><trkpt lat="44.83411697178651" lon="12.279355445170665"><ele>0.3333333333333333</ele><time>2026-05-02T12:37:10Z</time></trkpt><trkpt lat="44.834058034489" lon="12.279269846927601"><ele>0.0</ele><time>2026-05-02T12:37:12Z</time></trkpt><trkpt lat="44.83400048411568" lon="12.279183971924844"><ele>-0.3333333333333333</ele><time>2026-05-02T12:37:14Z</time></trkpt><trkpt lat="44.833940539284605" lon="12.279096175851805"><ele>-0.6666666666666666</ele><time>2026-05-02T12:37:16Z</time></trkpt><trkpt lat="44.83388108487499" lon="12.279011340923297"><ele>-1.0</ele><time>2026-05-02T12:37:18Z</time></trkpt><trkpt lat="44.83382224849158" lon="12.27892339863623"><ele>-1.1666666666666665</ele><time>2026-05-02T12:37:20Z</time></trkpt><trkpt lat="44.83376859816085" lon="12.278837606781902"><ele>-1.3333333333333333</ele><time>2026-05-02T12:37:22Z</time></trkpt><trkpt lat="44.83371262702822" lon="12.278744665727457"><ele>-1.5</ele><time>2026-05-02T12:37:24Z</time></trkpt><trkpt lat="44.8336531207094" lon="12.27864919886453"><ele>-1.6666666666666665</ele><time>2026-05-02T12:37:26Z</time></trkpt><trkpt lat="44.833599718395895" lon="12.278548950221447"><ele>-1.8333333333333333</ele><time>2026-05-02T12:37:28Z</time></trkpt><trkpt lat="44.83354931778787" lon="12.278459117592895"><ele>-2.0</ele><time>2026-05-02T12:37:30Z</time></trkpt><trkpt lat="44.833506062725135" lon="12.27836949058506"><ele>-1.4999999999999998</ele><time>2026-05-02T12:37:32Z</time></trkpt><trkpt lat="44.833455033669" lon="12.278275352782627"><ele>-1.0</ele><time>2026-05-02T12:37:34Z</time></trkpt><trkpt lat="44.83340852841633" lon="12.278171618046729"><ele>-0.5</ele><time>2026-05-02T12:37:36Z</time></trkpt><trkpt lat="44.833361602733525" lon="12.278065331823539"><ele>0.0</ele><time>2026-05-02T12:37:38Z</time></trkpt><trkpt lat="44.833315286007334" lon="12.277968847333396"><ele>0.49999999999999994</ele><time>2026-05-02T12:37:40Z</time></trkpt><trkpt lat="44.83326332313428" lon="12.27786903747348"><ele>1.0</ele><time>2026-05-02T12:37:42Z</time></trkpt><trkpt lat="44.83321373684308" lon="12.277770991862933"><ele>0.9999999999999999</ele><time>2026-05-02T12:37:44Z</time></trkpt><trkpt lat="44.83316114105449" lon="12.277675402583235"><ele>1.0</ele><time>2026-05-02T12:37:46Z</time></trkpt><trkpt lat="44.83310712813388" lon="12.277583888799205"><ele>1.0</ele><time>2026-05-02T12:37:48Z</time></trkpt><trkpt lat="44.83305658873261" lon="12.277488059205584"><ele>1.0</ele><time>2026-05-02T12:37:50Z</time></trkpt><trkpt lat="44.83300522043372" lon="12.277392971318273"><ele>0.9999999999999999</ele><time>2026-05-02T12:37:52Z</time></trkpt><trkpt lat="44.832956239041074" lon="12.277291721031336"><ele>1.0</ele><time>2026-05-02T12:37:54Z</time></trkpt><trkpt lat="44.83290565638723" lon="12.277192879264232"><ele>0.9999999999999999</ele><time>2026-05-02T12:37:56Z</time></trkpt><trkpt lat="44.832858176170916" lon="12.27709556051952"><ele>1.0</ele><time>2026-05-02T12:37:58Z</time></trkpt><trkpt lat="44.8328102708616" lon="12.27699486785804"><ele>1.0</ele><time>2026-05-02T12:38:00Z</time></trkpt><trkpt lat="44.83275747582985" lon="12.276902671149701"><ele>1.0</ele><time>2026-05-02T12:38:02Z</time></trkpt><trkpt lat="44.83271105666531" lon="12.27680516535623"><ele>0.9999999999999999</ele><time>2026-05-02T12:38:04Z</time></trkpt><trkpt lat="44.83265845191995" lon="12.276708167085534"><ele>1.0</ele><time>2026-05-02T12:38:06Z</time></trkpt><trkpt lat="44.83260088126729" lon="12.276612443201296"><ele>0.9999999999999999</ele><time>2026-05-02T12:38:08Z</time></trkpt><trkpt lat="44.832546234901656" lon="12.276515565738325"><ele>1.0</ele><time>2026-05-02T12:38:10Z</time></trkpt><trkpt lat="44.8324920849246" lon="12.276422423786236"><ele>1.0</ele><time>2026-05-02T12:38:12Z</time></trkpt><trkpt lat="44.832436424954466" lon="12.276328782471705"><ele>1.0</ele><time>2026-05-02T12:38:14Z</time></trkpt><trkpt lat="44.83238029019887" lon="12.276235759095089"><ele>0.9999999999999999</ele><time>2026-05-02T12:38:16Z</time></trkpt><trkpt lat="44.83232553474228" lon="12.276144194054648"><ele>1.0</ele><time>2026-05-02T12:38:18Z</time></trkpt><trkpt lat="44.83226674313002" lon="12.276056194931522"><ele>0.9999999999999999</ele><time>2026-05-02T12:38:20Z</time></trkpt><trkpt lat="44.83220167279998" lon="12.275970508166726"><ele>1.0</ele><time>2026-05-02T12:38:22Z</time></trkpt><trkpt lat="44.83213985566356" lon="12.27588465611147"><ele>1.0</ele><time>2026-05-02T12:38:24Z</time></trkpt><trkpt lat="44.83207781369945" lon="12.275803817067533"><ele>1.0</ele><time>2026-05-02T12:38:26Z</time></trkpt><trkpt lat="44.83201436918827" lon="12.275721775651608"><ele>0.9999999999999999</ele><time>2026-05-02T12:38:28Z</time></trkpt><trkpt lat="44.83195290141123" lon="12.275636162812267"><ele>1.0</ele><time>2026-05-02T12:38:30Z</time></trkpt><trkpt lat="44.831889986044914" lon="12.275556263068335"><ele>1.1428571428571428</ele><time>2026-05-02T12:38:32Z</time></trkpt><trkpt lat="44.831822181928004" lon="12.275481409758882"><ele>1.2857142857142856</ele><time>2026-05-02T12:38:34Z</time></trkpt><trkpt lat="44.83175767050044" lon="12.275400299788044"><ele>1.4285714285714284</ele><time>2026-05-02T12:38:36Z</time></trkpt><trkpt lat="44.83170229132945" lon="12.275328699688417"><ele>1.5714285714285714</ele><time>2026-05-02T12:38:38Z</time></trkpt><trkpt lat="44.83165004520165" lon="12.275259184476834"><ele>1.714285714285714</ele><time>2026-05-02T12:38:40Z</time></trkpt><trkpt lat="44.83160337564101" lon="12.275197293772383"><ele>1.857142857142857</ele><time>2026-05-02T12:38:42Z</time></trkpt><trkpt lat="44.831550439267964" lon="12.275144540254823"><ele>2.0</ele><time>2026-05-02T12:38:44Z</time></trkpt><trkpt lat="44.8314935718629" lon="12.275067204414853"><ele>2.1666666666666665</ele><time>2026-05-02T12:38:46Z</time></trkpt><trkpt lat="44.83144098192114" lon="12.275003344108473"><ele>2.333333333333333</ele><time>2026-05-02T12:38:48Z</time></trkpt><trkpt lat="44.831373254261194" lon="12.274918406376887"><ele>2.5</ele><time>2026-05-02T12:38:51Z</time></trkpt><trkpt lat="44.8313127359135" lon="12.274838890410956"><ele>2.6666666666666665</ele><time>2026-05-02T12:38:54Z</time></trkpt><trkpt lat="44.831258502786106" lon="12.274773278242602"><ele>2.8333333333333335</ele><time>2026-05-02T12:38:57Z</time></trkpt><trkpt lat="44.831199328023075" lon="12.274713849993464"><ele>3.0</ele><time>2026-05-02T12:39:23Z</time></trkpt><trkpt lat="44.831140458486146" lon="12.274624613462072"><ele>2.9999999999999996</ele><time>2026-05-02T12:39:26Z</time></trkpt><trkpt lat="44.831080714408216" lon="12.274547500234442"><ele>3.0</ele><time>2026-05-02T12:39:28Z</time></trkpt><trkpt lat="44.83102500366036" lon="12.274477039062772"><ele>3.0</ele><time>2026-05-02T12:39:30Z</time></trkpt><trkpt lat="44.83096502252119" lon="12.274401319936185"><ele>3.0</ele><time>2026-05-02T12:39:32Z</time></trkpt><trkpt lat="44.830908932823405" lon="12.274327245801123"><ele>3.0</ele><time>2026-05-02T12:39:34Z</time></trkpt><trkpt lat="44.83085716704554" lon="12.274260242915009"><ele>2.9999999999999996</ele><time>2026-05-02T12:39:36Z</time></trkpt><trkpt lat="44.83081057986629" lon="12.27419609533006"><ele>3.0</ele><time>2026-05-02T12:39:38Z</time></trkpt><trkpt lat="44.83075827029009" lon="12.274126287134923"><ele>2.8333333333333335</ele><time>2026-05-02T12:39:40Z</time></trkpt><trkpt lat="44.83069530641067" lon="12.274048165365041"><ele>2.6666666666666665</ele><time>2026-05-02T12:39:42Z</time></trkpt><trkpt lat="44.83063506181746" lon="12.273970830198124"><ele>2.5</ele><time>2026-05-02T12:39:44Z</time></trkpt><trkpt lat="44.830570207352835" lon="12.273896237453922"><ele>2.333333333333333</ele><time>2026-05-02T12:39:46Z</time></trkpt><trkpt lat="44.83050689265961" lon="12.273815347253525"><ele>2.1666666666666665</ele><time>2026-05-02T12:39:48Z</time></trkpt><trkpt lat="44.83044312117573" lon="12.273737534641592"><ele>2.0</ele><time>2026-05-02T12:39:50Z</time></trkpt><trkpt lat="44.830382664802514" lon="12.273654241158539"><ele>1.9999999999999998</ele><time>2026-05-02T12:39:52Z</time></trkpt><trkpt lat="44.83031528558163" lon="12.273571714985598"><ele>2.0</ele><time>2026-05-02T12:39:54Z</time></trkpt><trkpt lat="44.83025325302298" lon="12.273486415857873"><ele>2.0</ele><time>2026-05-02T12:39:56Z</time></trkpt><trkpt lat="44.830194261423046" lon="12.273396667337785"><ele>2.0</ele><time>2026-05-02T12:39:58Z</time></trkpt><trkpt lat="44.83012901683619" lon="12.273309716364999"><ele>1.9999999999999998</ele><time>2026-05-02T12:40:00Z</time></trkpt><trkpt lat="44.83007424609" lon="12.273217145176384"><ele>2.0</ele><time>2026-05-02T12:40:02Z</time></trkpt><trkpt lat="44.830013182011086" lon="12.273130195212486"><ele>1.4999999999999998</ele><time>2026-05-02T12:40:04Z</time></trkpt><trkpt lat="44.82995989421485" lon="12.273038474868429"><ele>1.0</ele><time>2026-05-02T12:40:06Z</time></trkpt><trkpt lat="44.829902759829785" lon="12.272945725335587"><ele>0.5</ele><time>2026-05-02T12:40:08Z</time></trkpt><trkpt lat="44.82984436482413" lon="12.272849685267978"><ele>0.0</ele><time>2026-05-02T12:40:10Z</time></trkpt><trkpt lat="44.82979053368039" lon="12.272757919510381"><ele>-0.49999999999999994</ele><time>2026-05-02T12:40:12Z</time></trkpt><trkpt lat="44.82973399506493" lon="12.272666428297407"><ele>-1.0</ele><time>2026-05-02T12:40:14Z</time></trkpt><trkpt lat="44.82967766758239" lon="12.272571389172995"><ele>-0.9999999999999999</ele><time>2026-05-02T12:40:16Z</time></trkpt><trkpt lat="44.82962153535535" lon="12.272477383566725"><ele>-1.0</ele><time>2026-05-02T12:40:18Z</time></trkpt><trkpt lat="44.829563614155866" lon="12.27238615446625"><ele>-1.0</ele><time>2026-05-02T12:40:20Z</time></trkpt><trkpt lat="44.82950364117792" lon="12.27229914367971"><ele>-1.0</ele><time>2026-05-02T12:40:22Z</time></trkpt><trkpt lat="44.8294463333477" lon="12.272204780507401"><ele>-0.9999999999999999</ele><time>2026-05-02T12:40:24Z</time></trkpt><trkpt lat="44.829389664790604" lon="12.272113067519717"><ele>-1.0</ele><time>2026-05-02T12:40:26Z</time></trkpt><trkpt lat="44.82933356971839" lon="12.272018858227732"><ele>-0.8333333333333333</ele><time>2026-05-02T12:40:28Z</time></trkpt><trkpt lat="44.82927364499537" lon="12.271927002065794"><ele>-0.6666666666666666</ele><time>2026-05-02T12:40:30Z</time></trkpt><trkpt lat="44.829216008515466" lon="12.271833542049412"><ele>-0.5</ele><time>2026-05-02T12:40:32Z</time></trkpt><trkpt lat="44.82915941618828" lon="12.271745006908565"><ele>-0.3333333333333333</ele><time>2026-05-02T12:40:34Z</time></trkpt><trkpt lat="44.82910146466269" lon="12.27165125256669"><ele>-0.16666666666666666</ele><time>2026-05-02T12:40:36Z</time></trkpt><trkpt lat="44.82904586439902" lon="12.271558192708268"><ele>0.0</ele><time>2026-05-02T12:40:38Z</time></trkpt><trkpt lat="44.82898932729341" lon="12.271468194034599"><ele>0.16666666666666666</ele><time>2026-05-02T12:40:40Z</time></trkpt><trkpt lat="44.82893612283899" lon="12.271377124213716"><ele>0.3333333333333333</ele><time>2026-05-02T12:40:42Z</time></trkpt><trkpt lat="44.82887263783044" lon="12.27128658700875"><ele>0.5</ele><time>2026-05-02T12:40:44Z</time></trkpt><trkpt lat="44.828815362307" lon="12.271197798706487"><ele>0.6666666666666666</ele><time>2026-05-02T12:40:46Z</time></trkpt><trkpt lat="44.828756967789985" lon="12.271102261441348"><ele>0.8333333333333333</ele><time>2026-05-02T12:40:48Z</time></trkpt><trkpt lat="44.82869898810369" lon="12.271014052417803"><ele>1.0</ele><time>2026-05-02T12:40:50Z</time></trkpt><trkpt lat="44.82864224642025" lon="12.270921523613296"><ele>0.9999999999999999</ele><time>2026-05-02T12:40:52Z</time></trkpt><trkpt lat="44.828585296816954" lon="12.270831450682788"><ele>1.0</ele><time>2026-05-02T12:40:54Z</time></trkpt><trkpt lat="44.828527203581366" lon="12.270743995872133"><ele>1.0</ele><time>2026-05-02T12:40:56Z</time></trkpt><trkpt lat="44.828467891217905" lon="12.270655178184137"><ele>1.0</ele><time>2026-05-02T12:40:58Z</time></trkpt><trkpt lat="44.82841175921183" lon="12.270562087416709"><ele>0.9999999999999999</ele><time>2026-05-02T12:41:00Z</time></trkpt><trkpt lat="44.82835486664149" lon="12.27047364674076"><ele>1.0</ele><time>2026-05-02T12:41:02Z</time></trkpt><trkpt lat="44.82829580496275" lon="12.270381816835544"><ele>1.3333333333333333</ele><time>2026-05-02T12:41:04Z</time></trkpt><trkpt lat="44.82824020064672" lon="12.270289728912815"><ele>1.6666666666666665</ele><time>2026-05-02T12:41:06Z</time></trkpt><trkpt lat="44.82818383455852" lon="12.270200317121548"><ele>2.0</ele><time>2026-05-02T12:41:08Z</time></trkpt><trkpt lat="44.82812571850953" lon="12.270108312707269"><ele>2.3333333333333335</ele><time>2026-05-02T12:41:10Z</time></trkpt><trkpt lat="44.82807226484605" lon="12.27001689744155"><ele>2.6666666666666665</ele><time>2026-05-02T12:41:12Z</time></trkpt><trkpt lat="44.82801400822085" lon="12.269926909668525"><ele>3.0</ele><time>2026-05-02T12:41:14Z</time></trkpt><trkpt lat="44.827956821510504" lon="12.26983535799374"><ele>2.8333333333333335</ele><time>2026-05-02T12:41:16Z</time></trkpt><trkpt lat="44.827898622360124" lon="12.269740868301058"><ele>2.6666666666666665</ele><time>2026-05-02T12:41:18Z</time></trkpt><trkpt lat="44.82784596357105" lon="12.269647581089288"><ele>2.5</ele><time>2026-05-02T12:41:20Z</time></trkpt><trkpt lat="44.827795185853006" lon="12.269551761281246"><ele>2.333333333333333</ele><time>2026-05-02T12:41:22Z</time></trkpt><trkpt lat="44.827740849986625" lon="12.26945699294013"><ele>2.1666666666666665</ele><time>2026-05-02T12:41:24Z</time></trkpt><trkpt lat="44.82768722682325" lon="12.269359406526767"><ele>2.0</ele><time>2026-05-02T12:41:26Z</time></trkpt><trkpt lat="44.82762520355924" lon="12.269278396171703"><ele>1.9999999999999998</ele><time>2026-05-02T12:41:28Z</time></trkpt><trkpt lat="44.827563688033095" lon="12.269191615455787"><ele>2.0</ele><time>2026-05-02T12:41:30Z</time></trkpt><trkpt lat="44.82750177606384" lon="12.269103202896797"><ele>2.0</ele><time>2026-05-02T12:41:32Z</time></trkpt><trkpt lat="44.82743726707592" lon="12.269012544305621"><ele>2.0</ele><time>2026-05-02T12:41:34Z</time></trkpt><trkpt lat="44.82737770999616" lon="12.26891793976517"><ele>1.9999999999999998</ele><time>2026-05-02T12:41:36Z</time></trkpt><trkpt lat="44.8273186163699" lon="12.26882623971819"><ele>2.0</ele><time>2026-05-02T12:41:38Z</time></trkpt><trkpt lat="44.82726330365478" lon="12.268733250572506"><ele>1.8333333333333333</ele><time>2026-05-02T12:41:40Z</time></trkpt><trkpt lat="44.82720696583355" lon="12.268649075588764"><ele>1.6666666666666665</ele><time>2026-05-02T12:41:42Z</time></trkpt><trkpt lat="44.82715673854597" lon="12.268570080845343"><ele>1.5</ele><time>2026-05-02T12:41:44Z</time></trkpt><trkpt lat="44.8271032607168" lon="12.268478874197653"><ele>1.3333333333333333</ele><time>2026-05-02T12:41:46Z</time></trkpt><trkpt lat="44.827047072221845" lon="12.268389550079632"><ele>1.1666666666666665</ele><time>2026-05-02T12:41:48Z</time></trkpt><trkpt lat="44.82699115722514" lon="12.268296572396547"><ele>1.0</ele><time>2026-05-02T12:41:50.001Z</time></trkpt><trkpt lat="44.82693152945094" lon="12.268210611874412"><ele>0.9999999999999999</ele><time>2026-05-02T12:41:52.001Z</time></trkpt><trkpt lat="44.826869571840454" lon="12.26811940490246"><ele>1.0</ele><time>2026-05-02T12:41:54.001Z</time></trkpt><trkpt lat="44.82681459537511" lon="12.268027785417749"><ele>1.0</ele><time>2026-05-02T12:41:56.001Z</time></trkpt><trkpt lat="44.826757301448836" lon="12.267939892777706"><ele>1.0</ele><time>2026-05-02T12:41:58Z</time></trkpt><trkpt lat="44.82669842576145" lon="12.267848037662223"><ele>0.9999999999999999</ele><time>2026-05-02T12:42:00Z</time></trkpt><trkpt lat="44.826639991878764" lon="12.267758585110716"><ele>1.0</ele><time>2026-05-02T12:42:02Z</time></trkpt><trkpt lat="44.82658442492392" lon="12.267660228999201"><ele>0.9999999999999999</ele><time>2026-05-02T12:42:04Z</time></trkpt><trkpt lat="44.82652455462655" lon="12.267569936095148"><ele>1.0</ele><time>2026-05-02T12:42:06Z</time></trkpt><trkpt lat="44.82646741618055" lon="12.26747473030984"><ele>1.0</ele><time>2026-05-02T12:42:08Z</time></trkpt><trkpt lat="44.82640706431458" lon="12.267389213580019"><ele>1.0</ele><time>2026-05-02T12:42:10Z</time></trkpt><trkpt lat="44.82635100398032" lon="12.267294390997186"><ele>0.9999999999999999</ele><time>2026-05-02T12:42:12Z</time></trkpt><trkpt lat="44.82629748133772" lon="12.267201350198897"><ele>1.0</ele><time>2026-05-02T12:42:14Z</time></trkpt><trkpt lat="44.82623847643252" lon="12.26711157769067"><ele>1.1666666666666665</ele><time>2026-05-02T12:42:16Z</time></trkpt><trkpt lat="44.826178000487964" lon="12.267021419772302"><ele>1.3333333333333333</ele><time>2026-05-02T12:42:18Z</time></trkpt><trkpt lat="44.82611979046507" lon="12.266931424634928"><ele>1.5</ele><time>2026-05-02T12:42:20Z</time></trkpt><trkpt lat="44.826065970640684" lon="12.26684058666331"><ele>1.6666666666666665</ele><time>2026-05-02T12:42:22Z</time></trkpt><trkpt lat="44.82601479363819" lon="12.266758433949647"><ele>1.8333333333333333</ele><time>2026-05-02T12:42:24Z</time></trkpt><trkpt lat="44.825962287196525" lon="12.266680623063294"><ele>2.0</ele><time>2026-05-02T12:42:26Z</time></trkpt><trkpt lat="44.825914350593735" lon="12.266603328681462"><ele>1.9999999999999998</ele><time>2026-05-02T12:42:28Z</time></trkpt><trkpt lat="44.82585621263406" lon="12.266513258463341"><ele>2.0</ele><time>2026-05-02T12:42:30Z</time></trkpt><trkpt lat="44.825799144469954" lon="12.26641895203976"><ele>2.0</ele><time>2026-05-02T12:42:32Z</time></trkpt><trkpt lat="44.825742058576125" lon="12.266327992407378"><ele>2.0</ele><time>2026-05-02T12:42:34Z</time></trkpt><trkpt lat="44.82568292753614" lon="12.266239321800589"><ele>1.9999999999999998</ele><time>2026-05-02T12:42:36Z</time></trkpt><trkpt lat="44.82562642630098" lon="12.26614411951449"><ele>2.0</ele><time>2026-05-02T12:42:38Z</time></trkpt><trkpt lat="44.82556920384737" lon="12.266053186631694"><ele>2.6666666666666665</ele><time>2026-05-02T12:42:40Z</time></trkpt><trkpt lat="44.825513189628886" lon="12.265963389248924"><ele>3.333333333333333</ele><time>2026-05-02T12:42:42Z</time></trkpt><trkpt lat="44.82545624018672" lon="12.265869824904028"><ele>4.0</ele><time>2026-05-02T12:42:44Z</time></trkpt><trkpt lat="44.825400652897095" lon="12.265782347258238"><ele>4.666666666666667</ele><time>2026-05-02T12:42:46Z</time></trkpt><trkpt lat="44.82534710167836" lon="12.265708062958186"><ele>5.333333333333333</ele><time>2026-05-02T12:42:48Z</time></trkpt><trkpt lat="44.82529664752185" lon="12.265637480297151"><ele>6.0</ele><time>2026-05-02T12:42:50Z</time></trkpt><trkpt lat="44.82524137935863" lon="12.265535178313156"><ele>6.0</ele><time>2026-05-02T12:42:53Z</time></trkpt><trkpt lat="44.82517551916858" lon="12.26545667334171"><ele>6.0</ele><time>2026-05-02T12:42:56Z</time></trkpt><trkpt lat="44.82510190046392" lon="12.265403764144123"><ele>6.0</ele><time>2026-05-02T12:42:59Z</time></trkpt><trkpt lat="44.82502896226769" lon="12.265369435345079"><ele>6.0</ele><time>2026-05-02T12:43:02Z</time></trkpt><trkpt lat="44.82509396604206" lon="12.265416531351791"><ele>6.0</ele><time>2026-05-02T13:35:49Z</time></trkpt><trkpt lat="44.82514763118746" lon="12.265464266470271"><ele>6.0</ele><time>2026-05-02T13:35:52Z</time></trkpt><trkpt lat="44.825225382345494" lon="12.26550177365656"><ele>5.999999999999999</ele><time>2026-05-02T13:35:56Z</time></trkpt><trkpt lat="44.82529763217855" lon="12.265554618688089"><ele>6.0</ele><time>2026-05-02T13:36:00Z</time></trkpt><trkpt lat="44.825367247983536" lon="12.265610316977897"><ele>6.0</ele><time>2026-05-02T13:36:04Z</time></trkpt><trkpt lat="44.82542813897627" lon="12.265651275687278"><ele>6.0</ele><time>2026-05-02T13:36:08Z</time></trkpt><trkpt lat="44.82539597235439" lon="12.265562008475687"><ele>6.0</ele><time>2026-05-02T13:36:12Z</time></trkpt><trkpt lat="44.82533275358626" lon="12.265526533907694"><ele>5.999999999999999</ele><time>2026-05-02T13:36:15Z</time></trkpt><trkpt lat="44.825276910291606" lon="12.265446898903331"><ele>6.0</ele><time>2026-05-02T13:36:18.999Z</time></trkpt><trkpt lat="44.82523100379279" lon="12.265380233571138"><ele>5.999999999999999</ele><time>2026-05-02T13:36:20.999Z</time></trkpt><trkpt lat="44.82518845915434" lon="12.265309718364177"><ele>6.0</ele><time>2026-05-02T13:36:22.999Z</time></trkpt><trkpt lat="44.82513436174947" lon="12.265249414671144"><ele>6.0</ele><time>2026-05-02T13:36:26Z</time></trkpt><trkpt lat="44.82508563985687" lon="12.26517953092707"><ele>6.0</ele><time>2026-05-02T13:36:31Z</time></trkpt><trkpt lat="44.82506744140277" lon="12.265077877351846"><ele>6.0</ele><time>2026-05-02T13:36:35Z</time></trkpt><trkpt lat="44.825009455032614" lon="12.265039143193075"><ele>5.999999999999999</ele><time>2026-05-02T13:37:15Z</time></trkpt><trkpt lat="44.82494569506967" lon="12.265031006194823"><ele>6.0</ele><time>2026-05-02T13:37:53Z</time></trkpt><trkpt lat="44.824876867727845" lon="12.26496941529676"><ele>6.0</ele><time>2026-05-02T13:37:57Z</time></trkpt><trkpt lat="44.82481252990503" lon="12.264942788714679"><ele>6.0</ele><time>2026-05-02T13:38:00Z</time></trkpt><trkpt lat="44.8247349294736" lon="12.264889587397967"><ele>6.0</ele><time>2026-05-02T13:38:03Z</time></trkpt><trkpt lat="44.82466996564537" lon="12.26485258448948"><ele>6.0</ele><time>2026-05-02T13:38:06Z</time></trkpt><trkpt lat="44.82460980115476" lon="12.264819401452405"><ele>6.0</ele><time>2026-05-02T13:38:09Z</time></trkpt><trkpt lat="44.82454004267018" lon="12.264783189753231"><ele>6.0</ele><time>2026-05-02T13:38:12Z</time></trkpt><trkpt lat="44.824457045141635" lon="12.264718171401782"><ele>5.999999999999999</ele><time>2026-05-02T13:38:14.999Z</time></trkpt><trkpt lat="44.82439648985248" lon="12.264687442815314"><ele>6.0</ele><time>2026-05-02T13:38:16.999Z</time></trkpt><trkpt lat="44.824333612672554" lon="12.264654809126883"><ele>6.0</ele><time>2026-05-02T13:38:18.999Z</time></trkpt><trkpt lat="44.82427757184867" lon="12.26460536856178"><ele>6.0</ele><time>2026-05-02T13:38:20.999Z</time></trkpt><trkpt lat="44.824218774362706" lon="12.264568593815051"><ele>6.0</ele><time>2026-05-02T13:38:22.999Z</time></trkpt><trkpt lat="44.824140085782254" lon="12.264525170422303"><ele>5.999999999999999</ele><time>2026-05-02T13:38:25.999Z</time></trkpt><trkpt lat="44.824083892739445" lon="12.264477986739571"><ele>6.0</ele><time>2026-05-02T13:38:28.999Z</time></trkpt><trkpt lat="44.82401043766109" lon="12.264422872103525"><ele>6.166666666666667</ele><time>2026-05-02T13:38:30.999Z</time></trkpt><trkpt lat="44.8239308261824" lon="12.264387699469939"><ele>6.333333333333334</ele><time>2026-05-02T13:38:33Z</time></trkpt><trkpt lat="44.82385485176439" lon="12.264325030791927"><ele>6.5</ele><time>2026-05-02T13:38:35Z</time></trkpt><trkpt lat="44.82377889970175" lon="12.264277275493418"><ele>6.666666666666667</ele><time>2026-05-02T13:38:37Z</time></trkpt><trkpt lat="44.823703108071925" lon="12.264241339064002"><ele>6.833333333333334</ele><time>2026-05-02T13:38:39Z</time></trkpt><trkpt lat="44.82363281386218" lon="12.264186602941773"><ele>7.0</ele><time>2026-05-02T13:38:41Z</time></trkpt><trkpt lat="44.82356628788747" lon="12.264128544572845"><ele>7.000000000000001</ele><time>2026-05-02T13:38:43Z</time></trkpt><trkpt lat="44.82350900253099" lon="12.2640726573344"><ele>7.0</ele><time>2026-05-02T13:38:45Z</time></trkpt><trkpt lat="44.82343176916909" lon="12.264048196109853"><ele>7.0</ele><time>2026-05-02T13:38:47Z</time></trkpt><trkpt lat="44.823346637129404" lon="12.263995742281933"><ele>7.0</ele><time>2026-05-02T13:38:49Z</time></trkpt><trkpt lat="44.82327805034465" lon="12.263936021624195"><ele>7.000000000000001</ele><time>2026-05-02T13:38:51Z</time></trkpt><trkpt lat="44.82320822512932" lon="12.263891839256944"><ele>7.0</ele><time>2026-05-02T13:38:53Z</time></trkpt><trkpt lat="44.82312871375648" lon="12.263847824129355"><ele>7.000000000000001</ele><time>2026-05-02T13:38:55Z</time></trkpt><trkpt lat="44.82305895815596" lon="12.263817552326486"><ele>7.0</ele><time>2026-05-02T13:38:57Z</time></trkpt><trkpt lat="44.8229906601166" lon="12.263767541930035"><ele>7.0</ele><time>2026-05-02T13:38:59Z</time></trkpt><trkpt lat="44.82292239939614" lon="12.263742508054003"><ele>7.0</ele><time>2026-05-02T13:39:01Z</time></trkpt><trkpt lat="44.82284729115255" lon="12.263668520652766"><ele>7.000000000000001</ele><time>2026-05-02T13:39:03Z</time></trkpt><trkpt lat="44.82277639783939" lon="12.263624262917412"><ele>7.0</ele><time>2026-05-02T13:39:05Z</time></trkpt><trkpt lat="44.82268931913991" lon="12.263569483504718"><ele>7.333333333333334</ele><time>2026-05-02T13:39:07Z</time></trkpt><trkpt lat="44.82262181783143" lon="12.263538273041442"><ele>7.666666666666667</ele><time>2026-05-02T13:39:09Z</time></trkpt><trkpt lat="44.822555793042675" lon="12.26349835474025"><ele>8.0</ele><time>2026-05-02T13:39:11Z</time></trkpt><trkpt lat="44.82248897970482" lon="12.263467643164766"><ele>8.333333333333334</ele><time>2026-05-02T13:39:13Z</time></trkpt><trkpt lat="44.822412675637175" lon="12.263403161530071"><ele>8.666666666666666</ele><time>2026-05-02T13:39:15Z</time></trkpt><trkpt lat="44.82230503888725" lon="12.263331660700594"><ele>9.0</ele><time>2026-05-02T13:39:18Z</time></trkpt><trkpt lat="44.82224411964221" lon="12.263287731268797"><ele>9.0</ele><time>2026-05-02T13:39:20Z</time></trkpt><trkpt lat="44.82216929839467" lon="12.26323559263217"><ele>9.0</ele><time>2026-05-02T13:39:22Z</time></trkpt><trkpt lat="44.82209921059249" lon="12.26318691729101"><ele>9.0</ele><time>2026-05-02T13:39:24Z</time></trkpt><trkpt lat="44.822016860005775" lon="12.263129848432728"><ele>9.0</ele><time>2026-05-02T13:39:26Z</time></trkpt><trkpt lat="44.82193702260093" lon="12.263097472455929"><ele>9.0</ele><time>2026-05-02T13:39:28Z</time></trkpt><trkpt lat="44.82187013157305" lon="12.263046096809454"><ele>9.0</ele><time>2026-05-02T13:39:30Z</time></trkpt><trkpt lat="44.821804703833934" lon="12.263000117041505"><ele>8.5</ele><time>2026-05-02T13:39:32Z</time></trkpt><trkpt lat="44.82174487282304" lon="12.262956148545852"><ele>8.0</ele><time>2026-05-02T13:39:34Z</time></trkpt><trkpt lat="44.8216800602307" lon="12.262915336777928"><ele>7.5</ele><time>2026-05-02T13:39:36Z</time></trkpt><trkpt lat="44.82159362024409" lon="12.26286702452018"><ele>7.0</ele><time>2026-05-02T13:39:39Z</time></trkpt><trkpt lat="44.821515234914315" lon="12.26281013094761"><ele>6.5</ele><time>2026-05-02T13:39:42Z</time></trkpt><trkpt lat="44.8214460016617" lon="12.262762992135581"><ele>6.0</ele><time>2026-05-02T13:39:45Z</time></trkpt><trkpt lat="44.821386879151305" lon="12.262709655758298"><ele>6.0</ele><time>2026-05-02T13:39:47Z</time></trkpt><trkpt lat="44.82130943547133" lon="12.26267510630044"><ele>6.0</ele><time>2026-05-02T13:39:49Z</time></trkpt><trkpt lat="44.821253377471734" lon="12.262628579332288"><ele>6.0</ele><time>2026-05-02T13:39:51Z</time></trkpt><trkpt lat="44.82118894070062" lon="12.26259283599141"><ele>6.0</ele><time>2026-05-02T13:39:53Z</time></trkpt><trkpt lat="44.821111749583274" lon="12.262535376462544"><ele>6.0</ele><time>2026-05-02T13:39:55Z</time></trkpt><trkpt lat="44.82104516897501" lon="12.262487673842111"><ele>6.0</ele><time>2026-05-02T13:39:57Z</time></trkpt><trkpt lat="44.82096724261286" lon="12.26242738529033"><ele>6.0</ele><time>2026-05-02T13:40:00Z</time></trkpt><trkpt lat="44.820885222591016" lon="12.262379778792384"><ele>6.0</ele><time>2026-05-02T13:40:02Z</time></trkpt><trkpt lat="44.82081208760808" lon="12.262329145179821"><ele>6.0</ele><time>2026-05-02T13:40:03.999Z</time></trkpt><trkpt lat="44.82074433120866" lon="12.26228169415975"><ele>6.0</ele><time>2026-05-02T13:40:05.999Z</time></trkpt><trkpt lat="44.82067795354097" lon="12.262227270683395"><ele>6.0</ele><time>2026-05-02T13:40:07.999Z</time></trkpt><trkpt lat="44.82060664489959" lon="12.262181823384486"><ele>6.0</ele><time>2026-05-02T13:40:09.999Z</time></trkpt><trkpt lat="44.820537852395105" lon="12.262137659432817"><ele>6.333333333333333</ele><time>2026-05-02T13:40:11.999Z</time></trkpt><trkpt lat="44.82046698674193" lon="12.26207657803198"><ele>6.666666666666666</ele><time>2026-05-02T13:40:13.999Z</time></trkpt><trkpt lat="44.82040556924718" lon="12.262039366523425"><ele>7.0</ele><time>2026-05-02T13:40:15.999Z</time></trkpt><trkpt lat="44.82032563516584" lon="12.261986484876934"><ele>7.333333333333333</ele><time>2026-05-02T13:40:18.999Z</time></trkpt><trkpt lat="44.820248755903094" lon="12.261934002705795"><ele>7.666666666666666</ele><time>2026-05-02T13:40:20.999Z</time></trkpt><trkpt lat="44.82019091433471" lon="12.261881844321953"><ele>8.0</ele><time>2026-05-02T13:40:22.999Z</time></trkpt><trkpt lat="44.820105061397044" lon="12.26183009408126"><ele>8.166666666666666</ele><time>2026-05-02T13:40:25.999Z</time></trkpt><trkpt lat="44.82004306478361" lon="12.261798347829988"><ele>8.333333333333332</ele><time>2026-05-02T13:40:27.999Z</time></trkpt><trkpt lat="44.819974646280315" lon="12.26172107067135"><ele>8.5</ele><time>2026-05-02T13:40:30.999Z</time></trkpt><trkpt lat="44.81990404172194" lon="12.26169134290162"><ele>8.666666666666666</ele><time>2026-05-02T13:40:32.999Z</time></trkpt><trkpt lat="44.819839928506816" lon="12.26165963044763"><ele>8.833333333333334</ele><time>2026-05-02T13:40:35.999Z</time></trkpt><trkpt lat="44.81975860513506" lon="12.261590686641002"><ele>9.0</ele><time>2026-05-02T13:40:39Z</time></trkpt><trkpt lat="44.81969924678008" lon="12.261531798975579"><ele>9.0</ele><time>2026-05-02T13:40:41Z</time></trkpt><trkpt lat="44.81963519656997" lon="12.261508654598284"><ele>9.0</ele><time>2026-05-02T13:40:43Z</time></trkpt><trkpt lat="44.819572754637235" lon="12.261469555995268"><ele>9.0</ele><time>2026-05-02T13:40:45Z</time></trkpt><trkpt lat="44.81949091825077" lon="12.261423182624327"><ele>9.0</ele><time>2026-05-02T13:40:48Z</time></trkpt><trkpt lat="44.819426898429654" lon="12.261367543871936"><ele>9.0</ele><time>2026-05-02T13:40:51Z</time></trkpt><trkpt lat="44.81936251922452" lon="12.261310215205656"><ele>9.0</ele><time>2026-05-02T13:40:56Z</time></trkpt><trkpt lat="44.81928762162947" lon="12.261267568574256"><ele>8.857142857142858</ele><time>2026-05-02T13:41:00Z</time></trkpt><trkpt lat="44.81921883111608" lon="12.261230414057712"><ele>8.714285714285715</ele><time>2026-05-02T13:41:03Z</time></trkpt><trkpt lat="44.8191554166526" lon="12.261219583614718"><ele>8.571428571428571</ele><time>2026-05-02T13:41:06Z</time></trkpt><trkpt lat="44.819088084122114" lon="12.261174414224888"><ele>8.428571428571429</ele><time>2026-05-02T13:41:08Z</time></trkpt><trkpt lat="44.81902177928022" lon="12.261142936854153"><ele>8.285714285714285</ele><time>2026-05-02T13:41:10Z</time></trkpt><trkpt lat="44.81894812446715" lon="12.26108688701793"><ele>8.142857142857142</ele><time>2026-05-02T13:41:13Z</time></trkpt><trkpt lat="44.818885687047405" lon="12.261058826207329"><ele>8.0</ele><time>2026-05-02T13:41:16Z</time></trkpt><trkpt lat="44.81882687806718" lon="12.261010593528525"><ele>7.999999999999999</ele><time>2026-05-02T13:41:19Z</time></trkpt><trkpt lat="44.81876216523838" lon="12.2609543033923"><ele>8.0</ele><time>2026-05-02T13:41:23Z</time></trkpt><trkpt lat="44.81870265200516" lon="12.26091747939112"><ele>8.0</ele><time>2026-05-02T13:41:26Z</time></trkpt><trkpt lat="44.81861688530909" lon="12.260854828003515"><ele>8.0</ele><time>2026-05-02T13:41:44Z</time></trkpt><trkpt lat="44.818562876696724" lon="12.260800333829598"><ele>7.999999999999999</ele><time>2026-05-02T13:41:54Z</time></trkpt><trkpt lat="44.818484595030675" lon="12.260753209827834"><ele>8.0</ele><time>2026-05-02T13:42:25.999Z</time></trkpt><trkpt lat="44.81841637160829" lon="12.260738177540448"><ele>7.499999999999999</ele><time>2026-05-02T13:42:28.999Z</time></trkpt><trkpt lat="44.8183330489259" lon="12.260763755130645"><ele>7.0</ele><time>2026-05-02T13:42:32.999Z</time></trkpt><trkpt lat="44.818260699053376" lon="12.26073426510878"><ele>6.5</ele><time>2026-05-02T13:42:34.999Z</time></trkpt><trkpt lat="44.81820953836634" lon="12.260673966767488"><ele>6.0</ele><time>2026-05-02T13:42:36.999Z</time></trkpt><trkpt lat="44.81813422598846" lon="12.26064298352162"><ele>5.5</ele><time>2026-05-02T13:42:39.999Z</time></trkpt><trkpt lat="44.81806080200881" lon="12.260597145050482"><ele>5.0</ele><time>2026-05-02T13:42:41.999Z</time></trkpt><trkpt lat="44.81798070849017" lon="12.260544539920112"><ele>5.0</ele><time>2026-05-02T13:42:45Z</time></trkpt><trkpt lat="44.81789822396925" lon="12.260500814644749"><ele>5.0</ele><time>2026-05-02T13:42:48Z</time></trkpt><trkpt lat="44.81783161311537" lon="12.260453098861847"><ele>5.0</ele><time>2026-05-02T13:42:50Z</time></trkpt><trkpt lat="44.81776319225746" lon="12.260407679384064"><ele>5.0</ele><time>2026-05-02T13:42:53Z</time></trkpt><trkpt lat="44.81767944716374" lon="12.260368562813571"><ele>5.0</ele><time>2026-05-02T13:42:57Z</time></trkpt><trkpt lat="44.817607279984436" lon="12.260332627750634"><ele>5.0</ele><time>2026-05-02T13:43:00Z</time></trkpt><trkpt lat="44.81754480609237" lon="12.2602846468809"><ele>5.142857142857142</ele><time>2026-05-02T13:43:05Z</time></trkpt><trkpt lat="44.81748183310726" lon="12.260245945894061"><ele>5.285714285714286</ele><time>2026-05-02T13:43:16Z</time></trkpt><trkpt lat="44.817417952924" lon="12.260209069709308"><ele>5.428571428571429</ele><time>2026-05-02T13:43:24Z</time></trkpt><trkpt lat="44.81736058372745" lon="12.26016419875595"><ele>5.571428571428571</ele><time>2026-05-02T13:43:32Z</time></trkpt><trkpt lat="44.8172989635067" lon="12.260116510986055"><ele>5.714285714285714</ele><time>2026-05-02T13:43:40Z</time></trkpt><trkpt lat="44.8172368149769" lon="12.260084323756908"><ele>5.857142857142857</ele><time>2026-05-02T13:43:47Z</time></trkpt><trkpt lat="44.81715788172699" lon="12.26006146913873"><ele>6.0</ele><time>2026-05-02T13:44:14.999Z</time></trkpt><trkpt lat="44.8170965940088" lon="12.260031666305732"><ele>5.999999999999999</ele><time>2026-05-02T13:44:17.999Z</time></trkpt><trkpt lat="44.81703264677272" lon="12.260020492969335"><ele>6.0</ele><time>2026-05-02T13:44:20.999Z</time></trkpt><trkpt lat="44.81697493713085" lon="12.25998271721615"><ele>6.0</ele><time>2026-05-02T13:44:23.999Z</time></trkpt><trkpt lat="44.816917279586384" lon="12.25992733553613"><ele>6.0</ele><time>2026-05-02T13:44:26.999Z</time></trkpt><trkpt lat="44.816869400213726" lon="12.25986693387596"><ele>6.0</ele><time>2026-05-02T13:44:29.999Z</time></trkpt><trkpt lat="44.8167922588325" lon="12.259796182521894"><ele>5.999999999999999</ele><time>2026-05-02T13:44:33.999Z</time></trkpt><trkpt lat="44.81675025201211" lon="12.259725408768054"><ele>6.0</ele><time>2026-05-02T13:44:35.999Z</time></trkpt><trkpt lat="44.81670241291824" lon="12.259660403166652"><ele>5.833333333333333</ele><time>2026-05-02T13:44:37.999Z</time></trkpt><trkpt lat="44.81663355705904" lon="12.259590163914824"><ele>5.666666666666667</ele><time>2026-05-02T13:44:40.999Z</time></trkpt><trkpt lat="44.81655829436482" lon="12.259509007375465"><ele>5.5</ele><time>2026-05-02T13:44:43.999Z</time></trkpt><trkpt lat="44.81648056493002" lon="12.25944221236355"><ele>5.333333333333334</ele><time>2026-05-02T13:44:46.999Z</time></trkpt><trkpt lat="44.81642606721416" lon="12.25939163984069"><ele>5.166666666666667</ele><time>2026-05-02T13:44:49Z</time></trkpt><trkpt lat="44.816350524976286" lon="12.259320097544007"><ele>5.0</ele><time>2026-05-02T13:44:52Z</time></trkpt><trkpt lat="44.81628870691446" lon="12.259275167209337"><ele>5.0</ele><time>2026-05-02T13:44:54Z</time></trkpt><trkpt lat="44.816220828816434" lon="12.259215794895855"><ele>5.0</ele><time>2026-05-02T13:44:56Z</time></trkpt><trkpt lat="44.81615743893757" lon="12.259147806732198"><ele>5.0</ele><time>2026-05-02T13:44:58Z</time></trkpt><trkpt lat="44.816103419653096" lon="12.259061146464829"><ele>5.0</ele><time>2026-05-02T13:45:01Z</time></trkpt><trkpt lat="44.81604924163861" lon="12.25898796201415"><ele>5.0</ele><time>2026-05-02T13:45:04Z</time></trkpt><trkpt lat="44.81604287384671" lon="12.258892158228875"><ele>5.0</ele><time>2026-05-02T13:45:09Z</time></trkpt><trkpt lat="44.81604254723972" lon="12.258771712151436"><ele>4.666666666666667</ele><time>2026-05-02T13:45:12Z</time></trkpt><trkpt lat="44.81604160577347" lon="12.258639583226532"><ele>4.333333333333334</ele><time>2026-05-02T13:45:14Z</time></trkpt><trkpt lat="44.81605928508567" lon="12.258540559784223"><ele>4.0</ele><time>2026-05-02T13:45:16Z</time></trkpt><trkpt lat="44.816108868903" lon="12.25844972599547"><ele>3.666666666666667</ele><time>2026-05-02T13:45:20Z</time></trkpt><trkpt lat="44.81614136045109" lon="12.258354611190796"><ele>3.3333333333333335</ele><time>2026-05-02T13:45:24Z</time></trkpt><trkpt lat="44.81616524039615" lon="12.258266134510546"><ele>3.0</ele><time>2026-05-02T13:45:26Z</time></trkpt><trkpt lat="44.81609796145785" lon="12.25822359898748"><ele>2.9999999999999996</ele><time>2026-05-02T13:46:22.999Z</time></trkpt><trkpt lat="44.81602490326483" lon="12.258245927644381"><ele>3.0</ele><time>2026-05-02T13:46:53.999Z</time></trkpt><trkpt lat="44.81594767889411" lon="12.258208332947042"><ele>3.0</ele><time>2026-05-02T13:46:57Z</time></trkpt><trkpt lat="44.81586252502867" lon="12.258183710090442"><ele>3.0</ele><time>2026-05-02T13:47:01Z</time></trkpt><trkpt lat="44.815803429602234" lon="12.25814813136795"><ele>3.0</ele><time>2026-05-02T13:47:04Z</time></trkpt><trkpt lat="44.81573382935033" lon="12.258112148228042"><ele>2.9999999999999996</ele><time>2026-05-02T13:47:06Z</time></trkpt><trkpt lat="44.81567390326021" lon="12.2580779675419"><ele>3.0</ele><time>2026-05-02T13:47:09Z</time></trkpt><trkpt lat="44.815634088803534" lon="12.25797657842737"><ele>2.571428571428571</ele><time>2026-05-02T13:47:13Z</time></trkpt><trkpt lat="44.8155918302273" lon="12.257870839854343"><ele>2.142857142857143</ele><time>2026-05-02T13:47:18Z</time></trkpt><trkpt lat="44.81554923127897" lon="12.257789872484912"><ele>1.7142857142857142</ele><time>2026-05-02T13:47:21Z</time></trkpt><trkpt lat="44.81550399922406" lon="12.257713900776928"><ele>1.2857142857142856</ele><time>2026-05-02T13:47:25Z</time></trkpt><trkpt lat="44.81546343224255" lon="12.257644622989964"><ele>0.8571428571428571</ele><time>2026-05-02T13:47:28Z</time></trkpt><trkpt lat="44.8154322145729" lon="12.257554210076572"><ele>0.42857142857142855</ele><time>2026-05-02T13:47:31Z</time></trkpt><trkpt lat="44.81539536500288" lon="12.257470900926332"><ele>0.0</ele><time>2026-05-02T13:47:35Z</time></trkpt><trkpt lat="44.81537361187299" lon="12.257384314887874"><ele>0.0</ele><time>2026-05-02T13:47:37Z</time></trkpt><trkpt lat="44.815348709844685" lon="12.257301435296757"><ele>0.0</ele><time>2026-05-02T13:47:39Z</time></trkpt><trkpt lat="44.81532350845284" lon="12.257171494114974"><ele>0.0</ele><time>2026-05-02T13:47:42Z</time></trkpt><trkpt lat="44.815296449986015" lon="12.257072564639962"><ele>0.0</ele><time>2026-05-02T13:47:44Z</time></trkpt><trkpt lat="44.81526368913109" lon="12.256959827116852"><ele>0.0</ele><time>2026-05-02T13:47:46Z</time></trkpt><trkpt lat="44.81524371506867" lon="12.256845374194441"><ele>0.0</ele><time>2026-05-02T13:47:48Z</time></trkpt><trkpt lat="44.815201256208375" lon="12.256760811021467"><ele>-0.3333333333333333</ele><time>2026-05-02T13:47:50Z</time></trkpt><trkpt lat="44.8151524558812" lon="12.256694994962261"><ele>-0.6666666666666666</ele><time>2026-05-02T13:47:52Z</time></trkpt><trkpt lat="44.81511310999686" lon="12.256603387393216"><ele>-1.0</ele><time>2026-05-02T13:47:54Z</time></trkpt><trkpt lat="44.81506216754117" lon="12.256503656350732"><ele>-1.3333333333333333</ele><time>2026-05-02T13:47:56Z</time></trkpt><trkpt lat="44.81503346664103" lon="12.256385166600504"><ele>-1.6666666666666665</ele><time>2026-05-02T13:47:58Z</time></trkpt><trkpt lat="44.81499003354815" lon="12.256286711464982"><ele>-2.0</ele><time>2026-05-02T13:48:00Z</time></trkpt><trkpt lat="44.814949626585346" lon="12.256179577620332"><ele>-1.9999999999999998</ele><time>2026-05-02T13:48:02Z</time></trkpt><trkpt lat="44.81491259219886" lon="12.256071855423999"><ele>-2.0</ele><time>2026-05-02T13:48:04Z</time></trkpt><trkpt lat="44.814872927626276" lon="12.255965843108235"><ele>-2.0</ele><time>2026-05-02T13:48:06Z</time></trkpt><trkpt lat="44.814841176833475" lon="12.255848698812011"><ele>-2.0</ele><time>2026-05-02T13:48:08Z</time></trkpt><trkpt lat="44.81479702609548" lon="12.255745111180406"><ele>-1.9999999999999998</ele><time>2026-05-02T13:48:09.999Z</time></trkpt><trkpt lat="44.814761669967986" lon="12.25563919211685"><ele>-2.0</ele><time>2026-05-02T13:48:11.999Z</time></trkpt><trkpt lat="44.81472390804005" lon="12.255528546136304"><ele>-2.1666666666666665</ele><time>2026-05-02T13:48:13.999Z</time></trkpt><trkpt lat="44.81468256995548" lon="12.25541664506549"><ele>-2.333333333333333</ele><time>2026-05-02T13:48:15.999Z</time></trkpt><trkpt lat="44.81464892122484" lon="12.255304544873109"><ele>-2.5</ele><time>2026-05-02T13:48:17.999Z</time></trkpt><trkpt lat="44.81460809022858" lon="12.25519696078808"><ele>-2.6666666666666665</ele><time>2026-05-02T13:48:19.999Z</time></trkpt><trkpt lat="44.814572246980994" lon="12.255087282442316"><ele>-2.8333333333333335</ele><time>2026-05-02T13:48:21.999Z</time></trkpt><trkpt lat="44.814534902129225" lon="12.254975994668033"><ele>-3.0</ele><time>2026-05-02T13:48:23.999Z</time></trkpt><trkpt lat="44.81450311923775" lon="12.254863896983391"><ele>-3.0</ele><time>2026-05-02T13:48:25.999Z</time></trkpt><trkpt lat="44.81446980338378" lon="12.2547587703265"><ele>-3.0</ele><time>2026-05-02T13:48:27.999Z</time></trkpt><trkpt lat="44.81443866602678" lon="12.25464646819904"><ele>-3.0</ele><time>2026-05-02T13:48:29.999Z</time></trkpt><trkpt lat="44.81440926490952" lon="12.25453851823326"><ele>-3.0</ele><time>2026-05-02T13:48:31.999Z</time></trkpt><trkpt lat="44.814375627451874" lon="12.254440758280518"><ele>-3.0</ele><time>2026-05-02T13:48:33.999Z</time></trkpt><trkpt lat="44.814334974759674" lon="12.25434068799185"><ele>-3.0</ele><time>2026-05-02T13:48:35.999Z</time></trkpt><trkpt lat="44.814292472671205" lon="12.254239502234695"><ele>-2.8333333333333335</ele><time>2026-05-02T13:48:37.999Z</time></trkpt><trkpt lat="44.8142431707593" lon="12.254135726630137"><ele>-2.6666666666666665</ele><time>2026-05-02T13:48:39.999Z</time></trkpt><trkpt lat="44.814203826346" lon="12.254027602196883"><ele>-2.5</ele><time>2026-05-02T13:48:41.999Z</time></trkpt><trkpt lat="44.81416931306354" lon="12.253918772985113"><ele>-2.333333333333333</ele><time>2026-05-02T13:48:43.999Z</time></trkpt><trkpt lat="44.81413400015284" lon="12.253817441053855"><ele>-2.1666666666666665</ele><time>2026-05-02T13:48:45.999Z</time></trkpt><trkpt lat="44.814100806413734" lon="12.253725291593177"><ele>-2.0</ele><time>2026-05-02T13:48:47.999Z</time></trkpt><trkpt lat="44.81407154466218" lon="12.253635864824176"><ele>-2.0</ele><time>2026-05-02T13:48:49.999Z</time></trkpt><trkpt lat="44.81404593083816" lon="12.253549084623762"><ele>-1.9999999999999998</ele><time>2026-05-02T13:48:51.999Z</time></trkpt><trkpt lat="44.814021849614726" lon="12.253461104082236"><ele>-2.0</ele><time>2026-05-02T13:48:53.999Z</time></trkpt><trkpt lat="44.81398242890729" lon="12.253372316839394"><ele>-2.0</ele><time>2026-05-02T13:48:55.999Z</time></trkpt><trkpt lat="44.81395155977628" lon="12.253286561832082"><ele>-1.9999999999999998</ele><time>2026-05-02T13:48:57.999Z</time></trkpt><trkpt lat="44.81392115773838" lon="12.253181708540861"><ele>-2.0</ele><time>2026-05-02T13:48:59.999Z</time></trkpt><trkpt lat="44.81388325257684" lon="12.253074033171142"><ele>-2.0</ele><time>2026-05-02T13:49:02Z</time></trkpt><trkpt lat="44.813845900179594" lon="12.252966390630547"><ele>-1.8333333333333333</ele><time>2026-05-02T13:49:04Z</time></trkpt><trkpt lat="44.813807093591834" lon="12.252856611150111"><ele>-1.6666666666666665</ele><time>2026-05-02T13:49:06Z</time></trkpt><trkpt lat="44.813768326610464" lon="12.252749752744021"><ele>-1.5</ele><time>2026-05-02T13:49:08Z</time></trkpt><trkpt lat="44.81373226596995" lon="12.252638429137633"><ele>-1.3333333333333333</ele><time>2026-05-02T13:49:10Z</time></trkpt><trkpt lat="44.81368838385618" lon="12.252533594938916"><ele>-1.1666666666666665</ele><time>2026-05-02T13:49:12Z</time></trkpt><trkpt lat="44.81365449907874" lon="12.252430872052678"><ele>-1.0</ele><time>2026-05-02T13:49:14Z</time></trkpt><trkpt lat="44.813619602490085" lon="12.252333660090025"><ele>-1.1428571428571428</ele><time>2026-05-02T13:49:16Z</time></trkpt><trkpt lat="44.81358582371863" lon="12.252243476798567"><ele>-1.2857142857142856</ele><time>2026-05-02T13:49:18Z</time></trkpt><trkpt lat="44.81355971119521" lon="12.252155533891942"><ele>-1.4285714285714284</ele><time>2026-05-02T13:49:20Z</time></trkpt><trkpt lat="44.81353101785777" lon="12.252068980678953"><ele>-1.5714285714285714</ele><time>2026-05-02T13:49:22Z</time></trkpt><trkpt lat="44.81350159915525" lon="12.251973959624785"><ele>-1.714285714285714</ele><time>2026-05-02T13:49:24Z</time></trkpt><trkpt lat="44.81347258803984" lon="12.251882543993101"><ele>-1.857142857142857</ele><time>2026-05-02T13:49:26Z</time></trkpt><trkpt lat="44.81343864237208" lon="12.251793470540663"><ele>-2.0</ele><time>2026-05-02T13:49:28Z</time></trkpt><trkpt lat="44.813402349179135" lon="12.251681602406657"><ele>-1.8333333333333333</ele><time>2026-05-02T13:49:30Z</time></trkpt><trkpt lat="44.813370213800624" lon="12.251576503929842"><ele>-1.6666666666666665</ele><time>2026-05-02T13:49:32Z</time></trkpt><trkpt lat="44.81333277302545" lon="12.251480660490621"><ele>-1.5</ele><time>2026-05-02T13:49:34Z</time></trkpt><trkpt lat="44.81330750187373" lon="12.251388342812172"><ele>-1.3333333333333333</ele><time>2026-05-02T13:49:36Z</time></trkpt><trkpt lat="44.81327799989784" lon="12.251300610780714"><ele>-1.1666666666666665</ele><time>2026-05-02T13:49:38Z</time></trkpt><trkpt lat="44.81323106088757" lon="12.251211000151919"><ele>-1.0</ele><time>2026-05-02T13:49:40Z</time></trkpt><trkpt lat="44.81320496296722" lon="12.251103790250617"><ele>-0.9999999999999999</ele><time>2026-05-02T13:49:42Z</time></trkpt><trkpt lat="44.813195010312" lon="12.250993102965564"><ele>-1.0</ele><time>2026-05-02T13:49:44Z</time></trkpt><trkpt lat="44.81319843858195" lon="12.250883526887943"><ele>-1.0</ele><time>2026-05-02T13:49:46Z</time></trkpt><trkpt lat="44.813227955833014" lon="12.250766092255606"><ele>-1.0</ele><time>2026-05-02T13:49:48Z</time></trkpt><trkpt lat="44.81325431797481" lon="12.250645320251698"><ele>-0.9999999999999999</ele><time>2026-05-02T13:49:50Z</time></trkpt><trkpt lat="44.81329537596611" lon="12.250541902493927"><ele>-1.0</ele><time>2026-05-02T13:49:52Z</time></trkpt><trkpt lat="44.81334589068101" lon="12.250449520603436"><ele>-1.0</ele><time>2026-05-02T13:49:54Z</time></trkpt><trkpt lat="44.81339507960005" lon="12.250367691112128"><ele>-0.9999999999999999</ele><time>2026-05-02T13:49:56Z</time></trkpt><trkpt lat="44.81345458077053" lon="12.250297985546423"><ele>-1.0</ele><time>2026-05-02T13:49:58Z</time></trkpt><trkpt lat="44.81350687528137" lon="12.250220153245676"><ele>-1.0</ele><time>2026-05-02T13:50:00Z</time></trkpt><trkpt lat="44.81356411975804" lon="12.250155712807969"><ele>-0.9999999999999999</ele><time>2026-05-02T13:50:02Z</time></trkpt><trkpt lat="44.813621650150395" lon="12.250103997971111"><ele>-1.0</ele><time>2026-05-02T13:50:04Z</time></trkpt><trkpt lat="44.813674439309374" lon="12.250031509728718"><ele>-1.0</ele><time>2026-05-02T13:50:06Z</time></trkpt><trkpt lat="44.813726222569855" lon="12.249964414874086"><ele>-1.0</ele><time>2026-05-02T13:50:08Z</time></trkpt><trkpt lat="44.81377320180898" lon="12.249899555828"><ele>-0.9999999999999999</ele><time>2026-05-02T13:50:10Z</time></trkpt><trkpt lat="44.813833390314215" lon="12.249827298107364"><ele>-1.0</ele><time>2026-05-02T13:50:12Z</time></trkpt><trkpt lat="44.813880709271295" lon="12.249760623405727"><ele>-1.0</ele><time>2026-05-02T13:50:14Z</time></trkpt><trkpt lat="44.8139387083539" lon="12.249719618168372"><ele>-0.9999999999999999</ele><time>2026-05-02T13:50:15.999Z</time></trkpt><trkpt lat="44.813995567800546" lon="12.249645363368378"><ele>-1.0</ele><time>2026-05-02T13:50:17.999Z</time></trkpt><trkpt lat="44.814048029219684" lon="12.249566509022715"><ele>-1.0</ele><time>2026-05-02T13:50:19.999Z</time></trkpt><trkpt lat="44.81410058897508" lon="12.249470512567743"><ele>-0.8</ele><time>2026-05-02T13:50:21.999Z</time></trkpt><trkpt lat="44.81415976490606" lon="12.249378026094297"><ele>-0.6000000000000001</ele><time>2026-05-02T13:50:23.999Z</time></trkpt><trkpt lat="44.814221407193514" lon="12.249284075712861"><ele>-0.4</ele><time>2026-05-02T13:50:25.999Z</time></trkpt><trkpt lat="44.81429760398731" lon="12.249189147550924"><ele>-0.2</ele><time>2026-05-02T13:50:27.999Z</time></trkpt><trkpt lat="44.81437527641767" lon="12.249099688377054"><ele>0.0</ele><time>2026-05-02T13:50:29.999Z</time></trkpt><trkpt lat="44.814451227839086" lon="12.249020426898138"><ele>0.0</ele><time>2026-05-02T13:50:31.999Z</time></trkpt><trkpt lat="44.81452435565457" lon="12.248935948216962"><ele>0.0</ele><time>2026-05-02T13:50:33.999Z</time></trkpt><trkpt lat="44.814607943665415" lon="12.248876439541228"><ele>0.0</ele><time>2026-05-02T13:50:35.999Z</time></trkpt><trkpt lat="44.814687344730544" lon="12.248830746090647"><ele>0.0</ele><time>2026-05-02T13:50:37.999Z</time></trkpt><trkpt lat="44.81475996491526" lon="12.248784972967417"><ele>0.0</ele><time>2026-05-02T13:50:39.999Z</time></trkpt><trkpt lat="44.814835677043106" lon="12.248743645389933"><ele>0.0</ele><time>2026-05-02T13:50:41.999Z</time></trkpt><trkpt lat="44.81489683214457" lon="12.248688476722606"><ele>0.0</ele><time>2026-05-02T13:50:43.999Z</time></trkpt><trkpt lat="44.81496034341968" lon="12.248627720523132"><ele>0.0</ele><time>2026-05-02T13:50:45.999Z</time></trkpt><trkpt lat="44.815032796804296" lon="12.248583031982033"><ele>0.0</ele><time>2026-05-02T13:50:47.999Z</time></trkpt><trkpt lat="44.815096036812164" lon="12.24853126810463"><ele>0.0</ele><time>2026-05-02T13:50:49.999Z</time></trkpt><trkpt lat="44.815131220799465" lon="12.248451346381685"><ele>0.0</ele><time>2026-05-02T13:50:51.999Z</time></trkpt><trkpt lat="44.81515988518301" lon="12.24835264582472"><ele>0.0</ele><time>2026-05-02T13:50:53.999Z</time></trkpt><trkpt lat="44.815174383863464" lon="12.248252314288994"><ele>0.0</ele><time>2026-05-02T13:50:55.999Z</time></trkpt><trkpt lat="44.81516715873661" lon="12.248159009510628"><ele>0.14285714285714285</ele><time>2026-05-02T13:50:57.999Z</time></trkpt><trkpt lat="44.81515526098557" lon="12.248049271909528"><ele>0.2857142857142857</ele><time>2026-05-02T13:51:00.999Z</time></trkpt><trkpt lat="44.81518428515278" lon="12.247942798986216"><ele>0.42857142857142855</ele><time>2026-05-02T13:51:04.999Z</time></trkpt><trkpt lat="44.815249351460864" lon="12.247890316373676"><ele>0.5714285714285714</ele><time>2026-05-02T13:51:08Z</time></trkpt><trkpt lat="44.81531106495871" lon="12.247834881995034"><ele>0.7142857142857142</ele><time>2026-05-02T13:51:10Z</time></trkpt><trkpt lat="44.815365883994694" lon="12.247786458769061"><ele>0.8571428571428571</ele><time>2026-05-02T13:51:12Z</time></trkpt><trkpt lat="44.815426578833524" lon="12.24774044220187"><ele>1.0</ele><time>2026-05-02T13:51:14Z</time></trkpt><trkpt lat="44.815492839573366" lon="12.247683039241005"><ele>0.9999999999999999</ele><time>2026-05-02T13:51:16Z</time></trkpt><trkpt lat="44.815555718748264" lon="12.247611462434387"><ele>1.0</ele><time>2026-05-02T13:51:18Z</time></trkpt><trkpt lat="44.815622424060734" lon="12.247552775516185"><ele>1.0</ele><time>2026-05-02T13:51:20Z</time></trkpt><trkpt lat="44.81568980126615" lon="12.247482201403601"><ele>1.0</ele><time>2026-05-02T13:51:22Z</time></trkpt><trkpt lat="44.81575875830541" lon="12.247413142952523"><ele>0.9999999999999999</ele><time>2026-05-02T13:51:24Z</time></trkpt><trkpt lat="44.81581834581133" lon="12.247341766431092"><ele>1.0</ele><time>2026-05-02T13:51:26Z</time></trkpt><trkpt lat="44.815891989498446" lon="12.2472930688199"><ele>1.1428571428571428</ele><time>2026-05-02T13:51:28Z</time></trkpt><trkpt lat="44.81595190726706" lon="12.247238393715476"><ele>1.2857142857142856</ele><time>2026-05-02T13:51:30Z</time></trkpt><trkpt lat="44.8160080613322" lon="12.247174885192477"><ele>1.4285714285714284</ele><time>2026-05-02T13:51:32Z</time></trkpt><trkpt lat="44.81607112887172" lon="12.247124332874952"><ele>1.5714285714285714</ele><time>2026-05-02T13:51:34Z</time></trkpt><trkpt lat="44.816132110638364" lon="12.247065303468789"><ele>1.714285714285714</ele><time>2026-05-02T13:51:36Z</time></trkpt><trkpt lat="44.816184733126335" lon="12.247007104851992"><ele>1.857142857142857</ele><time>2026-05-02T13:51:38Z</time></trkpt><trkpt lat="44.81624004979741" lon="12.246957551717582"><ele>2.0</ele><time>2026-05-02T13:51:40Z</time></trkpt><trkpt lat="44.81631502911404" lon="12.2468949324606"><ele>1.6</ele><time>2026-05-02T13:51:42Z</time></trkpt><trkpt lat="44.816394334651974" lon="12.246819654146181"><ele>1.2000000000000002</ele><time>2026-05-02T13:51:44Z</time></trkpt><trkpt lat="44.81647472310059" lon="12.246744697013613"><ele>0.8</ele><time>2026-05-02T13:51:46Z</time></trkpt><trkpt lat="44.81655566668067" lon="12.24667057933454"><ele>0.4</ele><time>2026-05-02T13:51:48Z</time></trkpt><trkpt lat="44.816637704392164" lon="12.246596931221264"><ele>0.0</ele><time>2026-05-02T13:51:50Z</time></trkpt><trkpt lat="44.816716173894804" lon="12.246511018103241"><ele>0.0</ele><time>2026-05-02T13:51:52Z</time></trkpt><trkpt lat="44.81679853401078" lon="12.246437406207908"><ele>0.0</ele><time>2026-05-02T13:51:54Z</time></trkpt><trkpt lat="44.816881289429666" lon="12.246356103496364"><ele>0.0</ele><time>2026-05-02T13:51:56Z</time></trkpt><trkpt lat="44.816963037613725" lon="12.246280997413296"><ele>0.0</ele><time>2026-05-02T13:51:58Z</time></trkpt><trkpt lat="44.817045045788504" lon="12.24620262592868"><ele>0.0</ele><time>2026-05-02T13:52:00Z</time></trkpt><trkpt lat="44.81711895189808" lon="12.246113228466784"><ele>-0.2</ele><time>2026-05-02T13:52:02Z</time></trkpt><trkpt lat="44.81720401401082" lon="12.246036283351508"><ele>-0.4</ele><time>2026-05-02T13:52:04Z</time></trkpt><trkpt lat="44.81727886316158" lon="12.245957185536733"><ele>-0.6000000000000001</ele><time>2026-05-02T13:52:06Z</time></trkpt><trkpt lat="44.81735756443185" lon="12.245879315690932"><ele>-0.8</ele><time>2026-05-02T13:52:08Z</time></trkpt><trkpt lat="44.817438118276506" lon="12.24579196744737"><ele>-1.0</ele><time>2026-05-02T13:52:10Z</time></trkpt><trkpt lat="44.817522842327634" lon="12.245720409300615"><ele>-1.0</ele><time>2026-05-02T13:52:11.999Z</time></trkpt><trkpt lat="44.817598893756625" lon="12.245646120511903"><ele>-1.0</ele><time>2026-05-02T13:52:13.999Z</time></trkpt><trkpt lat="44.817690479181294" lon="12.245568494550183"><ele>-1.0</ele><time>2026-05-02T13:52:15.999Z</time></trkpt><trkpt lat="44.817770368673436" lon="12.245485442183732"><ele>-1.0</ele><time>2026-05-02T13:52:17.999Z</time></trkpt><trkpt lat="44.8178558705025" lon="12.245399575735846"><ele>-1.0</ele><time>2026-05-02T13:52:19.999Z</time></trkpt><trkpt lat="44.817939379666484" lon="12.245329966808152"><ele>-1.0</ele><time>2026-05-02T13:52:21.999Z</time></trkpt><trkpt lat="44.818020441488365" lon="12.245256305169"><ele>-1.0</ele><time>2026-05-02T13:52:23.999Z</time></trkpt><trkpt lat="44.81810362435543" lon="12.245182890619695"><ele>-1.0</ele><time>2026-05-02T13:52:25.999Z</time></trkpt><trkpt lat="44.81817839673436" lon="12.245099869750181"><ele>-1.0</ele><time>2026-05-02T13:52:27.999Z</time></trkpt><trkpt lat="44.81825889907406" lon="12.245033878955436"><ele>-1.0</ele><time>2026-05-02T13:52:29.999Z</time></trkpt><trkpt lat="44.818335529559626" lon="12.244968488595253"><ele>-0.9999999999999999</ele><time>2026-05-02T13:52:31.999Z</time></trkpt><trkpt lat="44.81841105613888" lon="12.244907125767378"><ele>-1.0</ele><time>2026-05-02T13:52:33.999Z</time></trkpt><trkpt lat="44.818487171628426" lon="12.244847237149747"><ele>-1.0</ele><time>2026-05-02T13:52:35.999Z</time></trkpt><trkpt lat="44.818557931059196" lon="12.244787376307555"><ele>-1.0</ele><time>2026-05-02T13:52:37.999Z</time></trkpt><trkpt lat="44.81862760122442" lon="12.244727577569524"><ele>-0.9999999999999999</ele><time>2026-05-02T13:52:39.999Z</time></trkpt><trkpt lat="44.81869942450223" lon="12.244680681444548"><ele>-1.0</ele><time>2026-05-02T13:52:41.999Z</time></trkpt><trkpt lat="44.81877006716302" lon="12.24463028284514"><ele>-0.9999999999999999</ele><time>2026-05-02T13:52:43.999Z</time></trkpt><trkpt lat="44.81884847778985" lon="12.244576514651868"><ele>-1.0</ele><time>2026-05-02T13:52:45.999Z</time></trkpt><trkpt lat="44.81892480604533" lon="12.244498378044494"><ele>-1.0</ele><time>2026-05-02T13:52:47.999Z</time></trkpt><trkpt lat="44.819005006686616" lon="12.244437370783928"><ele>-1.0</ele><time>2026-05-02T13:52:49.999Z</time></trkpt><trkpt lat="44.819081761195946" lon="12.244371294507795"><ele>-0.9999999999999999</ele><time>2026-05-02T13:52:51.999Z</time></trkpt><trkpt lat="44.81915819353226" lon="12.244314738507573"><ele>-1.0</ele><time>2026-05-02T13:52:53.999Z</time></trkpt><trkpt lat="44.81923022397226" lon="12.24426388663373"><ele>-0.9999999999999999</ele><time>2026-05-02T13:52:55.999Z</time></trkpt><trkpt lat="44.81929894422211" lon="12.244205658045288"><ele>-1.0</ele><time>2026-05-02T13:52:57.999Z</time></trkpt><trkpt lat="44.81937030667905" lon="12.244171145441173"><ele>-1.0</ele><time>2026-05-02T13:52:59.999Z</time></trkpt><trkpt lat="44.81943900067351" lon="12.24413261305762"><ele>-1.0</ele><time>2026-05-02T13:53:01.999Z</time></trkpt><trkpt lat="44.81950943792156" lon="12.244082731682644"><ele>-0.9999999999999999</ele><time>2026-05-02T13:53:03.999Z</time></trkpt><trkpt lat="44.819588897045655" lon="12.244021925320988"><ele>-1.0</ele><time>2026-05-02T13:53:05.999Z</time></trkpt><trkpt lat="44.8196684285433" lon="12.243962994024196"><ele>-1.1666666666666665</ele><time>2026-05-02T13:53:07.999Z</time></trkpt><trkpt lat="44.819747989039726" lon="12.243900113816402"><ele>-1.3333333333333333</ele><time>2026-05-02T13:53:09.999Z</time></trkpt><trkpt lat="44.81982231291617" lon="12.243844461071541"><ele>-1.5</ele><time>2026-05-02T13:53:11.999Z</time></trkpt><trkpt lat="44.81989483796243" lon="12.24379318464216"><ele>-1.6666666666666665</ele><time>2026-05-02T13:53:14Z</time></trkpt><trkpt lat="44.81996844082411" lon="12.243752421506187"><ele>-1.8333333333333333</ele><time>2026-05-02T13:53:16Z</time></trkpt><trkpt lat="44.820047496185815" lon="12.24370923999432"><ele>-2.0</ele><time>2026-05-02T13:53:18Z</time></trkpt><trkpt lat="44.82013411377978" lon="12.243649514307728"><ele>-1.8</ele><time>2026-05-02T13:53:20Z</time></trkpt><trkpt lat="44.82021907771518" lon="12.243579088436004"><ele>-1.6</ele><time>2026-05-02T13:53:22Z</time></trkpt><trkpt lat="44.820306682304185" lon="12.243518889760283"><ele>-1.4000000000000001</ele><time>2026-05-02T13:53:24Z</time></trkpt><trkpt lat="44.82039187926313" lon="12.243447664563643"><ele>-1.2000000000000002</ele><time>2026-05-02T13:53:26Z</time></trkpt><trkpt lat="44.820480822347186" lon="12.243391278558677"><ele>-1.0</ele><time>2026-05-02T13:53:28Z</time></trkpt><trkpt lat="44.820570231762545" lon="12.243333953302443"><ele>-1.0</ele><time>2026-05-02T13:53:30Z</time></trkpt><trkpt lat="44.82065649644228" lon="12.243275769692312"><ele>-1.0</ele><time>2026-05-02T13:53:32Z</time></trkpt><trkpt lat="44.820739148179115" lon="12.243205873731396"><ele>-1.0</ele><time>2026-05-02T13:53:34Z</time></trkpt><trkpt lat="44.82083255929405" lon="12.24315226985194"><ele>-1.0</ele><time>2026-05-02T13:53:36Z</time></trkpt><trkpt lat="44.82091443765324" lon="12.243075601704684"><ele>-1.0</ele><time>2026-05-02T13:53:38Z</time></trkpt><trkpt lat="44.82100166134475" lon="12.243007465131916"><ele>-1.0</ele><time>2026-05-02T13:53:40Z</time></trkpt><trkpt lat="44.821090275001936" lon="12.242948452933216"><ele>-1.0</ele><time>2026-05-02T13:53:42Z</time></trkpt><trkpt lat="44.82117956914415" lon="12.24289465617663"><ele>-1.0</ele><time>2026-05-02T13:53:44Z</time></trkpt><trkpt lat="44.82126440810837" lon="12.24284317812479"><ele>-1.0</ele><time>2026-05-02T13:53:46Z</time></trkpt><trkpt lat="44.821343932253576" lon="12.242785012790366"><ele>-1.0</ele><time>2026-05-02T13:53:48Z</time></trkpt><trkpt lat="44.8214228915945" lon="12.242733928856682"><ele>-1.0</ele><time>2026-05-02T13:53:50Z</time></trkpt><trkpt lat="44.8215016263596" lon="12.242685281890308"><ele>-1.0</ele><time>2026-05-02T13:53:52Z</time></trkpt><trkpt lat="44.821573547591505" lon="12.242621885016975"><ele>-1.0</ele><time>2026-05-02T13:53:54Z</time></trkpt><trkpt lat="44.82165367021855" lon="12.242567422431485"><ele>-1.0</ele><time>2026-05-02T13:53:56Z</time></trkpt><trkpt lat="44.8217358292563" lon="12.242500082361916"><ele>-1.0</ele><time>2026-05-02T13:53:58Z</time></trkpt><trkpt lat="44.82182123900922" lon="12.242441305310628"><ele>-1.0</ele><time>2026-05-02T13:54:00Z</time></trkpt><trkpt lat="44.82190286759379" lon="12.242388054439031"><ele>-1.0</ele><time>2026-05-02T13:54:02Z</time></trkpt><trkpt lat="44.82198484776404" lon="12.242337038291412"><ele>-1.0</ele><time>2026-05-02T13:54:04Z</time></trkpt><trkpt lat="44.822068850171526" lon="12.242275206914142"><ele>-1.0</ele><time>2026-05-02T13:54:06Z</time></trkpt><trkpt lat="44.82215562036027" lon="12.242213349617769"><ele>-1.0</ele><time>2026-05-02T13:54:08Z</time></trkpt><trkpt lat="44.822242196740106" lon="12.242145465055263"><ele>-1.0</ele><time>2026-05-02T13:54:10Z</time></trkpt><trkpt lat="44.822332049714724" lon="12.242084072621894"><ele>-1.0</ele><time>2026-05-02T13:54:12Z</time></trkpt><trkpt lat="44.82242331325021" lon="12.242027723903066"><ele>-1.0</ele><time>2026-05-02T13:54:14Z</time></trkpt><trkpt lat="44.822511599030484" lon="12.241964939971071"><ele>-1.0</ele><time>2026-05-02T13:54:16Z</time></trkpt><trkpt lat="44.8226005196156" lon="12.241901136034135"><ele>-1.0</ele><time>2026-05-02T13:54:17.999Z</time></trkpt><trkpt lat="44.82269040521217" lon="12.24183681202516"><ele>-0.6000000000000001</ele><time>2026-05-02T13:54:19.999Z</time></trkpt><trkpt lat="44.82277970273068" lon="12.241770186892776"><ele>-0.20000000000000007</ele><time>2026-05-02T13:54:21.999Z</time></trkpt><trkpt lat="44.82287594822644" lon="12.241713243670523"><ele>0.20000000000000007</ele><time>2026-05-02T13:54:23.999Z</time></trkpt><trkpt lat="44.822971582836864" lon="12.241653989125478"><ele>0.6000000000000001</ele><time>2026-05-02T13:54:25.999Z</time></trkpt><trkpt lat="44.82306355087026" lon="12.241584620796681"><ele>1.0</ele><time>2026-05-02T13:54:27.999Z</time></trkpt><trkpt lat="44.82316065827229" lon="12.241521193704891"><ele>1.0</ele><time>2026-05-02T13:54:29.999Z</time></trkpt><trkpt lat="44.823252581072424" lon="12.241458303013433"><ele>1.0</ele><time>2026-05-02T13:54:31.999Z</time></trkpt><trkpt lat="44.82334417517398" lon="12.241392926682703"><ele>1.0</ele><time>2026-05-02T13:54:33.999Z</time></trkpt><trkpt lat="44.82343244315265" lon="12.241318001863323"><ele>1.0</ele><time>2026-05-02T13:54:35.999Z</time></trkpt><trkpt lat="44.823528202651836" lon="12.241261516324668"><ele>1.0</ele><time>2026-05-02T13:54:37.999Z</time></trkpt><trkpt lat="44.82362007410257" lon="12.241201986706388"><ele>1.0</ele><time>2026-05-02T13:54:39.999Z</time></trkpt><trkpt lat="44.82371024695702" lon="12.241135019524503"><ele>1.0</ele><time>2026-05-02T13:54:41.999Z</time></trkpt><trkpt lat="44.82379846947731" lon="12.241076155039455"><ele>1.0</ele><time>2026-05-02T13:54:43.999Z</time></trkpt><trkpt lat="44.82388258924658" lon="12.241015669384067"><ele>1.0</ele><time>2026-05-02T13:54:45.999Z</time></trkpt><trkpt lat="44.82396239096936" lon="12.240954069598128"><ele>1.0</ele><time>2026-05-02T13:54:47.999Z</time></trkpt><trkpt lat="44.82404596670746" lon="12.24091004638133"><ele>1.0</ele><time>2026-05-02T13:54:49.999Z</time></trkpt><trkpt lat="44.824130488556634" lon="12.240842461498211"><ele>1.0</ele><time>2026-05-02T13:54:51.999Z</time></trkpt><trkpt lat="44.82421801001262" lon="12.240773797122765"><ele>1.0</ele><time>2026-05-02T13:54:53.999Z</time></trkpt><trkpt lat="44.82430479432819" lon="12.240717333169245"><ele>1.0</ele><time>2026-05-02T13:54:55.999Z</time></trkpt><trkpt lat="44.82438757343426" lon="12.240659313000675"><ele>1.0</ele><time>2026-05-02T13:54:57.999Z</time></trkpt><trkpt lat="44.82446080523609" lon="12.240601527619623"><ele>0.8333333333333333</ele><time>2026-05-02T13:54:59.999Z</time></trkpt><trkpt lat="44.82454052800057" lon="12.2405473601871"><ele>0.6666666666666666</ele><time>2026-05-02T13:55:01.999Z</time></trkpt><trkpt lat="44.8246159560115" lon="12.240491398877237"><ele>0.5</ele><time>2026-05-02T13:55:03.999Z</time></trkpt><trkpt lat="44.82468925259508" lon="12.240435844713096"><ele>0.3333333333333333</ele><time>2026-05-02T13:55:05.999Z</time></trkpt><trkpt lat="44.82476833096979" lon="12.240389695359868"><ele>0.16666666666666666</ele><time>2026-05-02T13:55:07.999Z</time></trkpt><trkpt lat="44.82484508184096" lon="12.240338966535854"><ele>0.0</ele><time>2026-05-02T13:55:09.999Z</time></trkpt><trkpt lat="44.824921350404935" lon="12.240280477590685"><ele>0.0</ele><time>2026-05-02T13:55:11.999Z</time></trkpt><trkpt lat="44.824998512667776" lon="12.240229867947587"><ele>0.0</ele><time>2026-05-02T13:55:13.999Z</time></trkpt><trkpt lat="44.82507534940616" lon="12.240186009766"><ele>0.0</ele><time>2026-05-02T13:55:15.999Z</time></trkpt><trkpt lat="44.825149863750596" lon="12.240116770851104"><ele>0.0</ele><time>2026-05-02T13:55:17.999Z</time></trkpt><trkpt lat="44.82522703955124" lon="12.240075422694876"><ele>0.0</ele><time>2026-05-02T13:55:20Z</time></trkpt><trkpt lat="44.82530641691469" lon="12.240025071340906"><ele>0.0</ele><time>2026-05-02T13:55:22Z</time></trkpt><trkpt lat="44.825391945593275" lon="12.239955382879815"><ele>-0.16666666666666666</ele><time>2026-05-02T13:55:24Z</time></trkpt><trkpt lat="44.82547508929059" lon="12.23989958857417"><ele>-0.3333333333333333</ele><time>2026-05-02T13:55:26Z</time></trkpt><trkpt lat="44.82555518909305" lon="12.239844971959206"><ele>-0.5</ele><time>2026-05-02T13:55:28Z</time></trkpt><trkpt lat="44.825631088617804" lon="12.239787483890552"><ele>-0.6666666666666666</ele><time>2026-05-02T13:55:30Z</time></trkpt><trkpt lat="44.82570565573857" lon="12.239737536763919"><ele>-0.8333333333333333</ele><time>2026-05-02T13:55:32Z</time></trkpt><trkpt lat="44.825780321719684" lon="12.23969054067686"><ele>-1.0</ele><time>2026-05-02T13:55:34Z</time></trkpt><trkpt lat="44.825856212941986" lon="12.23962937201694"><ele>-1.2000000000000002</ele><time>2026-05-02T13:55:36Z</time></trkpt><trkpt lat="44.825935553603266" lon="12.23955489956586"><ele>-1.4000000000000001</ele><time>2026-05-02T13:55:38Z</time></trkpt><trkpt lat="44.82602263921153" lon="12.239494339123118"><ele>-1.6</ele><time>2026-05-02T13:55:40Z</time></trkpt><trkpt lat="44.826110343272035" lon="12.23943640783246"><ele>-1.8</ele><time>2026-05-02T13:55:42Z</time></trkpt><trkpt lat="44.8261987268252" lon="12.239368207954055"><ele>-2.0</ele><time>2026-05-02T13:55:44Z</time></trkpt><trkpt lat="44.82628741575805" lon="12.239298146407341"><ele>-1.6</ele><time>2026-05-02T13:55:46Z</time></trkpt><trkpt lat="44.82637832407113" lon="12.23924137148861"><ele>-1.2000000000000002</ele><time>2026-05-02T13:55:48Z</time></trkpt><trkpt lat="44.82646203985371" lon="12.239185573582501"><ele>-0.8</ele><time>2026-05-02T13:55:50Z</time></trkpt><trkpt lat="44.826545695593325" lon="12.239123335397565"><ele>-0.4</ele><time>2026-05-02T13:55:52Z</time></trkpt><trkpt lat="44.82663501383178" lon="12.239053062756517"><ele>0.0</ele><time>2026-05-02T13:55:54Z</time></trkpt><trkpt lat="44.82672454292707" lon="12.239002719383171"><ele>0.0</ele><time>2026-05-02T13:55:56Z</time></trkpt><trkpt lat="44.826804544903936" lon="12.238917096123807"><ele>0.0</ele><time>2026-05-02T13:55:58Z</time></trkpt><trkpt lat="44.82689493672052" lon="12.238857442811153"><ele>0.0</ele><time>2026-05-02T13:56:00Z</time></trkpt><trkpt lat="44.82698642903675" lon="12.238791349821717"><ele>0.0</ele><time>2026-05-02T13:56:02Z</time></trkpt><trkpt lat="44.82707968799153" lon="12.23873992619373"><ele>0.0</ele><time>2026-05-02T13:56:04Z</time></trkpt><trkpt lat="44.827171081589185" lon="12.238674260053573"><ele>0.0</ele><time>2026-05-02T13:56:06Z</time></trkpt><trkpt lat="44.82726472881685" lon="12.238617042046942"><ele>0.0</ele><time>2026-05-02T13:56:08Z</time></trkpt><trkpt lat="44.82735943271049" lon="12.238563288172047"><ele>0.0</ele><time>2026-05-02T13:56:10Z</time></trkpt><trkpt lat="44.82744843287682" lon="12.238492493232206"><ele>0.0</ele><time>2026-05-02T13:56:12Z</time></trkpt><trkpt lat="44.82752694772993" lon="12.238415189277381"><ele>0.0</ele><time>2026-05-02T13:56:14Z</time></trkpt><trkpt lat="44.82760907387741" lon="12.238369611738353"><ele>-0.16666666666666666</ele><time>2026-05-02T13:56:16Z</time></trkpt><trkpt lat="44.82769772996392" lon="12.238325725451476"><ele>-0.3333333333333333</ele><time>2026-05-02T13:56:18Z</time></trkpt><trkpt lat="44.82778261298514" lon="12.238264962504813"><ele>-0.5</ele><time>2026-05-02T13:56:20Z</time></trkpt><trkpt lat="44.82785676575869" lon="12.238205858957185"><ele>-0.6666666666666666</ele><time>2026-05-02T13:56:22Z</time></trkpt><trkpt lat="44.82791649403204" lon="12.23815922407356"><ele>-0.8333333333333333</ele><time>2026-05-02T13:56:24Z</time></trkpt><trkpt lat="44.827986651536044" lon="12.238084253093346"><ele>-1.0</ele><time>2026-05-02T13:56:26.999Z</time></trkpt><trkpt lat="44.827943484676474" lon="12.237972145224779"><ele>-0.9999999999999999</ele><time>2026-05-02T13:56:29.999Z</time></trkpt><trkpt lat="44.82790110418242" lon="12.237885860685592"><ele>-1.0</ele><time>2026-05-02T13:56:31.999Z</time></trkpt><trkpt lat="44.82788030362579" lon="12.237787075795232"><ele>-1.0</ele><time>2026-05-02T13:56:33.999Z</time></trkpt><trkpt lat="44.82785917899433" lon="12.237687008792097"><ele>-1.0</ele><time>2026-05-02T13:56:35.999Z</time></trkpt><trkpt lat="44.82782738776574" lon="12.23757989561306"><ele>-0.9999999999999999</ele><time>2026-05-02T13:56:37.999Z</time></trkpt><trkpt lat="44.82779826554825" lon="12.237469977188137"><ele>-1.0</ele><time>2026-05-02T13:56:39.999Z</time></trkpt><trkpt lat="44.82776017073737" lon="12.237371156341542"><ele>-1.0</ele><time>2026-05-02T13:56:41.999Z</time></trkpt><trkpt lat="44.8277311219833" lon="12.237272260632224"><ele>-0.9999999999999999</ele><time>2026-05-02T13:56:43.999Z</time></trkpt><trkpt lat="44.827716804292365" lon="12.237170811278089"><ele>-1.0</ele><time>2026-05-02T13:56:45.999Z</time></trkpt><trkpt lat="44.82768785767928" lon="12.23707685611602"><ele>-1.0</ele><time>2026-05-02T13:56:47.999Z</time></trkpt><trkpt lat="44.82766835051904" lon="12.23698539262177"><ele>-0.9999999999999999</ele><time>2026-05-02T13:56:49.999Z</time></trkpt><trkpt lat="44.827643265070236" lon="12.236899317872831"><ele>-1.0</ele><time>2026-05-02T13:56:51.999Z</time></trkpt><trkpt lat="44.82762331757659" lon="12.236808210337832"><ele>-1.0</ele><time>2026-05-02T13:56:53.999Z</time></trkpt><trkpt lat="44.82760861699004" lon="12.236716211382097"><ele>-1.1666666666666665</ele><time>2026-05-02T13:56:55.999Z</time></trkpt><trkpt lat="44.8275854398167" lon="12.236614323860008"><ele>-1.3333333333333333</ele><time>2026-05-02T13:56:57.999Z</time></trkpt><trkpt lat="44.82755107427972" lon="12.236510159080115"><ele>-1.5</ele><time>2026-05-02T13:56:59.999Z</time></trkpt><trkpt lat="44.82752094876564" lon="12.236400703314862"><ele>-1.6666666666666665</ele><time>2026-05-02T13:57:01.999Z</time></trkpt><trkpt lat="44.82749490240357" lon="12.236293070351534"><ele>-1.8333333333333333</ele><time>2026-05-02T13:57:03.999Z</time></trkpt><trkpt lat="44.827463001348214" lon="12.236192849836897"><ele>-2.0</ele><time>2026-05-02T13:57:05.999Z</time></trkpt><trkpt lat="44.82744005941472" lon="12.236097020147094"><ele>-1.9999999999999998</ele><time>2026-05-02T13:57:07.999Z</time></trkpt><trkpt lat="44.82741693069976" lon="12.236008274337143"><ele>-2.0</ele><time>2026-05-02T13:57:09.999Z</time></trkpt><trkpt lat="44.82738861791471" lon="12.235922443690718"><ele>-2.0</ele><time>2026-05-02T13:57:11.999Z</time></trkpt><trkpt lat="44.82736756603975" lon="12.23578711478822"><ele>-2.0</ele><time>2026-05-02T13:57:14.999Z</time></trkpt><trkpt lat="44.82733144856319" lon="12.235684370278426"><ele>-1.9999999999999998</ele><time>2026-05-02T13:57:16.999Z</time></trkpt><trkpt lat="44.82730268192792" lon="12.235576694523546"><ele>-2.0</ele><time>2026-05-02T13:57:18.999Z</time></trkpt><trkpt lat="44.82727300906649" lon="12.235477268882983"><ele>-2.1666666666666665</ele><time>2026-05-02T13:57:20.999Z</time></trkpt><trkpt lat="44.82723615420415" lon="12.235366542084758"><ele>-2.333333333333333</ele><time>2026-05-02T13:57:22.999Z</time></trkpt><trkpt lat="44.82721745287864" lon="12.235260273718175"><ele>-2.5</ele><time>2026-05-02T13:57:24.999Z</time></trkpt><trkpt lat="44.82719192730423" lon="12.235147968879543"><ele>-2.6666666666666665</ele><time>2026-05-02T13:57:26.999Z</time></trkpt><trkpt lat="44.82716337728074" lon="12.23503845110051"><ele>-2.8333333333333335</ele><time>2026-05-02T13:57:28.999Z</time></trkpt><trkpt lat="44.827137391287536" lon="12.234924276860735"><ele>-3.0</ele><time>2026-05-02T13:57:30.999Z</time></trkpt><trkpt lat="44.82711109717131" lon="12.234815306574994"><ele>-2.8333333333333335</ele><time>2026-05-02T13:57:32.999Z</time></trkpt><trkpt lat="44.82708099939986" lon="12.23470913709544"><ele>-2.6666666666666665</ele><time>2026-05-02T13:57:34.999Z</time></trkpt><trkpt lat="44.827058034103615" lon="12.234608817554157"><ele>-2.5</ele><time>2026-05-02T13:57:36.999Z</time></trkpt><trkpt lat="44.827036275265904" lon="12.234514712887483"><ele>-2.333333333333333</ele><time>2026-05-02T13:57:38.999Z</time></trkpt><trkpt lat="44.82702597212645" lon="12.234407392500573"><ele>-2.1666666666666665</ele><time>2026-05-02T13:57:41Z</time></trkpt><trkpt lat="44.826990447946045" lon="12.234301952240363"><ele>-2.0</ele><time>2026-05-02T13:57:43Z</time></trkpt><trkpt lat="44.82697375756663" lon="12.234189203180334"><ele>-1.9999999999999998</ele><time>2026-05-02T13:57:45Z</time></trkpt><trkpt lat="44.82694576839735" lon="12.23407745200368"><ele>-2.0</ele><time>2026-05-02T13:57:47Z</time></trkpt><trkpt lat="44.826923950370855" lon="12.233962526164266"><ele>-2.0</ele><time>2026-05-02T13:57:49Z</time></trkpt><trkpt lat="44.826902193378466" lon="12.233851183139748"><ele>-2.0</ele><time>2026-05-02T13:57:51Z</time></trkpt><trkpt lat="44.82688610395097" lon="12.2337362246086"><ele>-1.9999999999999998</ele><time>2026-05-02T13:57:53Z</time></trkpt><trkpt lat="44.82686382913156" lon="12.233605947984907"><ele>-2.0</ele><time>2026-05-02T13:57:55Z</time></trkpt><trkpt lat="44.82684972110451" lon="12.233471384026856"><ele>-2.0</ele><time>2026-05-02T13:57:57Z</time></trkpt><trkpt lat="44.82683703227089" lon="12.23333753517596"><ele>-2.0</ele><time>2026-05-02T13:57:59Z</time></trkpt><trkpt lat="44.82682700621043" lon="12.23320479450563"><ele>-2.0</ele><time>2026-05-02T13:58:01Z</time></trkpt><trkpt lat="44.826808244510616" lon="12.233071208425557"><ele>-2.0</ele><time>2026-05-02T13:58:03Z</time></trkpt><trkpt lat="44.82679927047926" lon="12.232932448356303"><ele>-2.0</ele><time>2026-05-02T13:58:05Z</time></trkpt><trkpt lat="44.82679158327048" lon="12.232794107973067"><ele>-1.9999999999999998</ele><time>2026-05-02T13:58:07Z</time></trkpt><trkpt lat="44.8267870191224" lon="12.232662083153478"><ele>-2.0</ele><time>2026-05-02T13:58:08.999Z</time></trkpt><trkpt lat="44.82678254254153" lon="12.232538095209957"><ele>-2.0</ele><time>2026-05-02T13:58:10.999Z</time></trkpt><trkpt lat="44.826770844044454" lon="12.232421785303643"><ele>-2.0</ele><time>2026-05-02T13:58:12.999Z</time></trkpt><trkpt lat="44.8267745088533" lon="12.23231346688565"><ele>-1.9999999999999998</ele><time>2026-05-02T13:58:14.999Z</time></trkpt><trkpt lat="44.82677149467196" lon="12.232207182344736"><ele>-2.0</ele><time>2026-05-02T13:58:16.999Z</time></trkpt><trkpt lat="44.82676684837556" lon="12.232099775804894"><ele>-2.0</ele><time>2026-05-02T13:58:18.999Z</time></trkpt><trkpt lat="44.82676442083454" lon="12.231972050417099"><ele>-2.0</ele><time>2026-05-02T13:58:20.999Z</time></trkpt><trkpt lat="44.8267540166426" lon="12.231842099200275"><ele>-2.0</ele><time>2026-05-02T13:58:22.999Z</time></trkpt><trkpt lat="44.826752164498295" lon="12.231708412090965"><ele>-2.0</ele><time>2026-05-02T13:58:24.999Z</time></trkpt><trkpt lat="44.826745819763325" lon="12.231573309625595"><ele>-2.0</ele><time>2026-05-02T13:58:26.999Z</time></trkpt><trkpt lat="44.82674021165209" lon="12.23144179912838"><ele>-1.9999999999999998</ele><time>2026-05-02T13:58:28.999Z</time></trkpt><trkpt lat="44.826739418492814" lon="12.231318526217235"><ele>-2.0</ele><time>2026-05-02T13:58:30.999Z</time></trkpt><trkpt lat="44.82673373364475" lon="12.231202882365581"><ele>-2.0</ele><time>2026-05-02T13:58:32.999Z</time></trkpt><trkpt lat="44.82672916945961" lon="12.231090820463322"><ele>-2.0</ele><time>2026-05-02T13:58:34.999Z</time></trkpt><trkpt lat="44.82672226585862" lon="12.230973852870527"><ele>-1.9999999999999998</ele><time>2026-05-02T13:58:36.999Z</time></trkpt><trkpt lat="44.82671487120219" lon="12.230855650984706"><ele>-2.0</ele><time>2026-05-02T13:58:38.999Z</time></trkpt><trkpt lat="44.82671685942455" lon="12.230746801571334"><ele>-1.9999999999999998</ele><time>2026-05-02T13:58:40.999Z</time></trkpt><trkpt lat="44.8267152149571" lon="12.230643110904026"><ele>-2.0</ele><time>2026-05-02T13:58:42.999Z</time></trkpt><trkpt lat="44.826713229493485" lon="12.230536261365751"><ele>-2.0</ele><time>2026-05-02T13:58:44.999Z</time></trkpt><trkpt lat="44.82671795727943" lon="12.230414666734102"><ele>-2.0</ele><time>2026-05-02T13:58:46.999Z</time></trkpt><trkpt lat="44.826714353899" lon="12.230303921869243"><ele>-1.9999999999999998</ele><time>2026-05-02T13:58:48.999Z</time></trkpt><trkpt lat="44.82670746999847" lon="12.230179462970609"><ele>-2.0</ele><time>2026-05-02T13:58:50.999Z</time></trkpt><trkpt lat="44.82669734966661" lon="12.230047172375139"><ele>-1.9999999999999998</ele><time>2026-05-02T13:58:52.999Z</time></trkpt><trkpt lat="44.82668642320205" lon="12.229925804401377"><ele>-2.0</ele><time>2026-05-02T13:58:54.999Z</time></trkpt><trkpt lat="44.82667933236195" lon="12.229813631029748"><ele>-2.0</ele><time>2026-05-02T13:58:56.999Z</time></trkpt><trkpt lat="44.826682938762104" lon="12.229708456268954"><ele>-2.0</ele><time>2026-05-02T13:58:58.999Z</time></trkpt><trkpt lat="44.826688741687384" lon="12.229610337191504"><ele>-1.9999999999999998</ele><time>2026-05-02T13:59:00.999Z</time></trkpt><trkpt lat="44.8266803071726" lon="12.229520086763662"><ele>-2.0</ele><time>2026-05-02T13:59:02.999Z</time></trkpt><trkpt lat="44.82667650674764" lon="12.229413205622915"><ele>-2.0</ele><time>2026-05-02T13:59:04.999Z</time></trkpt><trkpt lat="44.826678858727504" lon="12.229282022901488"><ele>-2.0</ele><time>2026-05-02T13:59:06.999Z</time></trkpt><trkpt lat="44.826673305493095" lon="12.229151248984643"><ele>-2.0</ele><time>2026-05-02T13:59:08.999Z</time></trkpt><trkpt lat="44.82666775596126" lon="12.229018887217343"><ele>-2.0</ele><time>2026-05-02T13:59:10.999Z</time></trkpt><trkpt lat="44.82666003562687" lon="12.228890811210439"><ele>-2.0</ele><time>2026-05-02T13:59:12.999Z</time></trkpt><trkpt lat="44.82665061901125" lon="12.228759403968876"><ele>-1.9999999999999998</ele><time>2026-05-02T13:59:14.999Z</time></trkpt><trkpt lat="44.826653629071444" lon="12.22863838002488"><ele>-2.0</ele><time>2026-05-02T13:59:16.999Z</time></trkpt><trkpt lat="44.82665257898573" lon="12.22852615975239"><ele>-2.0</ele><time>2026-05-02T13:59:18.999Z</time></trkpt><trkpt lat="44.826646756810355" lon="12.228407617035188"><ele>-2.0</ele><time>2026-05-02T13:59:20.999Z</time></trkpt><trkpt lat="44.82663450287836" lon="12.228293209630383"><ele>-1.9999999999999998</ele><time>2026-05-02T13:59:22.999Z</time></trkpt><trkpt lat="44.82662767040404" lon="12.228183387554218"><ele>-2.0</ele><time>2026-05-02T13:59:24.999Z</time></trkpt><trkpt lat="44.82662603929831" lon="12.228087161193278"><ele>-2.1666666666666665</ele><time>2026-05-02T13:59:26.999Z</time></trkpt><trkpt lat="44.82661233546938" lon="12.227969065463927"><ele>-2.333333333333333</ele><time>2026-05-02T13:59:29.999Z</time></trkpt><trkpt lat="44.82656121826262" lon="12.227859358146283"><ele>-2.5</ele><time>2026-05-02T13:59:33Z</time></trkpt><trkpt lat="44.826483221327685" lon="12.22783687887048"><ele>-2.6666666666666665</ele><time>2026-05-02T13:59:35Z</time></trkpt><trkpt lat="44.826404573017896" lon="12.227846316829705"><ele>-2.8333333333333335</ele><time>2026-05-02T13:59:37Z</time></trkpt><trkpt lat="44.82633479393859" lon="12.227852455622989"><ele>-3.0</ele><time>2026-05-02T13:59:39Z</time></trkpt><trkpt lat="44.8262452908511" lon="12.227855557648889"><ele>-3.0</ele><time>2026-05-02T13:59:42Z</time></trkpt><trkpt lat="44.826157372565675" lon="12.227849981513621"><ele>-3.0</ele><time>2026-05-02T13:59:45Z</time></trkpt><trkpt lat="44.826084460054645" lon="12.227887654097637"><ele>-3.0</ele><time>2026-05-02T13:59:47Z</time></trkpt><trkpt lat="44.8260209868961" lon="12.227846993340867"><ele>-3.0</ele><time>2026-05-02T13:59:49Z</time></trkpt><trkpt lat="44.82601559096369" lon="12.227721422405386"><ele>-3.0</ele><time>2026-05-02T13:59:51Z</time></trkpt><trkpt lat="44.82600506200364" lon="12.227599293060367"><ele>-3.0</ele><time>2026-05-02T13:59:53Z</time></trkpt><trkpt lat="44.8260018353347" lon="12.227448997902439"><ele>-2.75</ele><time>2026-05-02T13:59:55Z</time></trkpt><trkpt lat="44.825993300744386" lon="12.227297754135535"><ele>-2.5</ele><time>2026-05-02T13:59:57Z</time></trkpt><trkpt lat="44.825980715326374" lon="12.22713781685851"><ele>-2.25</ele><time>2026-05-02T13:59:59Z</time></trkpt><trkpt lat="44.82598426773403" lon="12.226973578815008"><ele>-2.0</ele><time>2026-05-02T14:00:01Z</time></trkpt><trkpt lat="44.82597606451475" lon="12.226812978042554"><ele>-2.0</ele><time>2026-05-02T14:00:03Z</time></trkpt><trkpt lat="44.82596883893206" lon="12.226663885092076"><ele>-2.0</ele><time>2026-05-02T14:00:05Z</time></trkpt><trkpt lat="44.825959218176784" lon="12.226518242976463"><ele>-2.0</ele><time>2026-05-02T14:00:07Z</time></trkpt><trkpt lat="44.82595375686254" lon="12.226377129883103"><ele>-2.0</ele><time>2026-05-02T14:00:09Z</time></trkpt><trkpt lat="44.825945898821615" lon="12.226238099677406"><ele>-2.0</ele><time>2026-05-02T14:00:11Z</time></trkpt><trkpt lat="44.82594254067155" lon="12.22610221707441"><ele>-2.2</ele><time>2026-05-02T14:00:13Z</time></trkpt><trkpt lat="44.82593445883116" lon="12.225962104710428"><ele>-2.4000000000000004</ele><time>2026-05-02T14:00:15Z</time></trkpt><trkpt lat="44.82592903342305" lon="12.225837716806701"><ele>-2.5999999999999996</ele><time>2026-05-02T14:00:17Z</time></trkpt><trkpt lat="44.82592049888358" lon="12.225705260339716"><ele>-2.8</ele><time>2026-05-02T14:00:19Z</time></trkpt><trkpt lat="44.825904856252855" lon="12.22558244696226"><ele>-3.0</ele><time>2026-05-02T14:00:21Z</time></trkpt><trkpt lat="44.82590397100683" lon="12.225466044099047"><ele>-3.0</ele><time>2026-05-02T14:00:23Z</time></trkpt><trkpt lat="44.82590552065885" lon="12.225340799958678"><ele>-3.0</ele><time>2026-05-02T14:00:25Z</time></trkpt><trkpt lat="44.82589410581192" lon="12.225209877067767"><ele>-3.0</ele><time>2026-05-02T14:00:27Z</time></trkpt><trkpt lat="44.82588688520213" lon="12.225072473322594"><ele>-3.0</ele><time>2026-05-02T14:00:29Z</time></trkpt><trkpt lat="44.82587685469199" lon="12.224936073097604"><ele>-3.0</ele><time>2026-05-02T14:00:31Z</time></trkpt><trkpt lat="44.82587029873095" lon="12.224798959082264"><ele>-3.0</ele><time>2026-05-02T14:00:33Z</time></trkpt><trkpt lat="44.82586236025889" lon="12.224663614796386"><ele>-3.0</ele><time>2026-05-02T14:00:35Z</time></trkpt><trkpt lat="44.82584805548066" lon="12.224523540903144"><ele>-3.0</ele><time>2026-05-02T14:00:37Z</time></trkpt><trkpt lat="44.82587227495017" lon="12.224390789370357"><ele>-3.0</ele><time>2026-05-02T14:00:39Z</time></trkpt><trkpt lat="44.82584582133663" lon="12.22425644996964"><ele>-3.0</ele><time>2026-05-02T14:00:41Z</time></trkpt><trkpt lat="44.82584109864612" lon="12.224128997856754"><ele>-3.0</ele><time>2026-05-02T14:00:43Z</time></trkpt><trkpt lat="44.82584103570547" lon="12.224009500369538"><ele>-3.0</ele><time>2026-05-02T14:00:45Z</time></trkpt><trkpt lat="44.825841942779086" lon="12.22388914542093"><ele>-3.0</ele><time>2026-05-02T14:00:47Z</time></trkpt><trkpt lat="44.8258367544206" lon="12.223761831221728"><ele>-3.0</ele><time>2026-05-02T14:00:49Z</time></trkpt><trkpt lat="44.825830402537726" lon="12.223629293769893"><ele>-3.0</ele><time>2026-05-02T14:00:51Z</time></trkpt><trkpt lat="44.82582313351537" lon="12.223485939351505"><ele>-3.0</ele><time>2026-05-02T14:00:53Z</time></trkpt><trkpt lat="44.825822023162594" lon="12.223348812806382"><ele>-3.0</ele><time>2026-05-02T14:00:55Z</time></trkpt><trkpt lat="44.825809085078305" lon="12.223222661233955"><ele>-3.0</ele><time>2026-05-02T14:00:57Z</time></trkpt><trkpt lat="44.82580795635829" lon="12.223092881127661"><ele>-3.0</ele><time>2026-05-02T14:00:59Z</time></trkpt><trkpt lat="44.825798162675" lon="12.222958906367172"><ele>-3.0</ele><time>2026-05-02T14:01:01Z</time></trkpt><trkpt lat="44.82579632622367" lon="12.222820949932794"><ele>-3.0</ele><time>2026-05-02T14:01:03Z</time></trkpt><trkpt lat="44.82578733600603" lon="12.222692116130697"><ele>-3.0</ele><time>2026-05-02T14:01:05Z</time></trkpt><trkpt lat="44.8257840871228" lon="12.222568823919776"><ele>-3.0</ele><time>2026-05-02T14:01:07Z</time></trkpt><trkpt lat="44.825786370033164" lon="12.222449964311144"><ele>-3.0</ele><time>2026-05-02T14:01:09Z</time></trkpt><trkpt lat="44.825775280824075" lon="12.222335656543777"><ele>-3.0</ele><time>2026-05-02T14:01:11Z</time></trkpt><trkpt lat="44.82577442568662" lon="12.222208330553045"><ele>-3.0</ele><time>2026-05-02T14:01:13Z</time></trkpt><trkpt lat="44.82577019888475" lon="12.222085656570792"><ele>-3.0</ele><time>2026-05-02T14:01:15Z</time></trkpt><trkpt lat="44.82576692699601" lon="12.221962477370475"><ele>-3.0</ele><time>2026-05-02T14:01:16.999Z</time></trkpt><trkpt lat="44.82575885217954" lon="12.22184823938019"><ele>-3.0</ele><time>2026-05-02T14:01:18.999Z</time></trkpt><trkpt lat="44.825739870025146" lon="12.221732933929985"><ele>-3.0</ele><time>2026-05-02T14:01:20.999Z</time></trkpt><trkpt lat="44.82574871444629" lon="12.22161466558008"><ele>-3.0</ele><time>2026-05-02T14:01:22.999Z</time></trkpt><trkpt lat="44.82573390695884" lon="12.221497401620523"><ele>-3.0</ele><time>2026-05-02T14:01:24.999Z</time></trkpt><trkpt lat="44.82573623022269" lon="12.221377052570276"><ele>-3.0</ele><time>2026-05-02T14:01:26.999Z</time></trkpt><trkpt lat="44.825727717281076" lon="12.221239572772857"><ele>-3.0</ele><time>2026-05-02T14:01:28.999Z</time></trkpt><trkpt lat="44.825725535824596" lon="12.221093295306868"><ele>-3.0</ele><time>2026-05-02T14:01:30.999Z</time></trkpt><trkpt lat="44.82571414041715" lon="12.220962290031485"><ele>-3.0</ele><time>2026-05-02T14:01:32.999Z</time></trkpt><trkpt lat="44.82571234769759" lon="12.220835776867803"><ele>-3.0</ele><time>2026-05-02T14:01:34.999Z</time></trkpt><trkpt lat="44.82569983390646" lon="12.22071268771304"><ele>-3.3333333333333335</ele><time>2026-05-02T14:01:37Z</time></trkpt><trkpt lat="44.82569951694466" lon="12.2205939534939"><ele>-3.666666666666667</ele><time>2026-05-02T14:01:39Z</time></trkpt><trkpt lat="44.825695273080704" lon="12.220475077650388"><ele>-4.0</ele><time>2026-05-02T14:01:41Z</time></trkpt><trkpt lat="44.825688561192045" lon="12.22035274150497"><ele>-4.333333333333334</ele><time>2026-05-02T14:01:43Z</time></trkpt><trkpt lat="44.82568308295126" lon="12.220230407995972"><ele>-4.666666666666667</ele><time>2026-05-02T14:01:45Z</time></trkpt><trkpt lat="44.82567913841292" lon="12.220112623872012"><ele>-5.0</ele><time>2026-05-02T14:01:47Z</time></trkpt><trkpt lat="44.8256709286224" lon="12.219992781230033"><ele>-5.0</ele><time>2026-05-02T14:01:49Z</time></trkpt><trkpt lat="44.825663817894274" lon="12.219872762919321"><ele>-5.0</ele><time>2026-05-02T14:01:51Z</time></trkpt><trkpt lat="44.82565809836846" lon="12.219755204898583"><ele>-5.0</ele><time>2026-05-02T14:01:53Z</time></trkpt><trkpt lat="44.825661508087386" lon="12.219631125764272"><ele>-5.0</ele><time>2026-05-02T14:01:55Z</time></trkpt><trkpt lat="44.82565457889395" lon="12.219507979174933"><ele>-5.0</ele><time>2026-05-02T14:01:57Z</time></trkpt><trkpt lat="44.82564684081301" lon="12.219377328130278"><ele>-5.0</ele><time>2026-05-02T14:01:59Z</time></trkpt><trkpt lat="44.82564229317125" lon="12.219244610716927"><ele>-5.0</ele><time>2026-05-02T14:02:01Z</time></trkpt><trkpt lat="44.82563645764941" lon="12.219108654144161"><ele>-5.0</ele><time>2026-05-02T14:02:03Z</time></trkpt><trkpt lat="44.82562923044765" lon="12.218972002938214"><ele>-5.0</ele><time>2026-05-02T14:02:05Z</time></trkpt><trkpt lat="44.825627281838315" lon="12.218839080087454"><ele>-5.0</ele><time>2026-05-02T14:02:07Z</time></trkpt><trkpt lat="44.825620883274205" lon="12.218704092306195"><ele>-5.0</ele><time>2026-05-02T14:02:09Z</time></trkpt><trkpt lat="44.82561507264007" lon="12.218563202810465"><ele>-5.0</ele><time>2026-05-02T14:02:11Z</time></trkpt><trkpt lat="44.825606991659384" lon="12.218427398051963"><ele>-5.0</ele><time>2026-05-02T14:02:13Z</time></trkpt><trkpt lat="44.82559641021283" lon="12.218296038274623"><ele>-5.0</ele><time>2026-05-02T14:02:15Z</time></trkpt><trkpt lat="44.8255911047522" lon="12.218166233543343"><ele>-5.0</ele><time>2026-05-02T14:02:17Z</time></trkpt><trkpt lat="44.82559010807466" lon="12.2180419470313"><ele>-5.0</ele><time>2026-05-02T14:02:19Z</time></trkpt><trkpt lat="44.82558167581438" lon="12.21791815623003"><ele>-4.833333333333334</ele><time>2026-05-02T14:02:21Z</time></trkpt><trkpt lat="44.8255766344028" lon="12.217798613187696"><ele>-4.666666666666667</ele><time>2026-05-02T14:02:23Z</time></trkpt><trkpt lat="44.82557379504877" lon="12.217677610854858"><ele>-4.5</ele><time>2026-05-02T14:02:25Z</time></trkpt><trkpt lat="44.825563861330295" lon="12.217554153079478"><ele>-4.333333333333333</ele><time>2026-05-02T14:02:27Z</time></trkpt><trkpt lat="44.825561163345625" lon="12.217430151669314"><ele>-4.166666666666666</ele><time>2026-05-02T14:02:29Z</time></trkpt><trkpt lat="44.82555695081265" lon="12.217310042813406"><ele>-4.0</ele><time>2026-05-02T14:02:31Z</time></trkpt><trkpt lat="44.82554396651816" lon="12.217190799051236"><ele>-3.833333333333333</ele><time>2026-05-02T14:02:33Z</time></trkpt><trkpt lat="44.82553039758196" lon="12.217078407094718"><ele>-3.6666666666666665</ele><time>2026-05-02T14:02:35Z</time></trkpt><trkpt lat="44.82552980573206" lon="12.216970055567561"><ele>-3.5</ele><time>2026-05-02T14:02:37Z</time></trkpt><trkpt lat="44.82552666510486" lon="12.21686592956933"><ele>-3.333333333333333</ele><time>2026-05-02T14:02:39Z</time></trkpt><trkpt lat="44.82552093819251" lon="12.21677017784078"><ele>-3.1666666666666665</ele><time>2026-05-02T14:02:41Z</time></trkpt><trkpt lat="44.825518279866436" lon="12.216635783754652"><ele>-3.0</ele><time>2026-05-02T14:02:44Z</time></trkpt><trkpt lat="44.8255116340975" lon="12.216533607196663"><ele>-2.8333333333333335</ele><time>2026-05-02T14:02:46Z</time></trkpt><trkpt lat="44.825497525381046" lon="12.216446879194068"><ele>-2.6666666666666665</ele><time>2026-05-02T14:02:48Z</time></trkpt><trkpt lat="44.82549831181488" lon="12.216319596570374"><ele>-2.5</ele><time>2026-05-02T14:02:51Z</time></trkpt><trkpt lat="44.82549690980415" lon="12.216223240742885"><ele>-2.333333333333333</ele><time>2026-05-02T14:02:53Z</time></trkpt><trkpt lat="44.82549570915221" lon="12.216114798777197"><ele>-2.1666666666666665</ele><time>2026-05-02T14:02:55Z</time></trkpt><trkpt lat="44.825485157484536" lon="12.215999441118118"><ele>-2.0</ele><time>2026-05-02T14:02:57Z</time></trkpt><trkpt lat="44.825483395492235" lon="12.215891449442468"><ele>-1.9999999999999998</ele><time>2026-05-02T14:02:59Z</time></trkpt><trkpt lat="44.825479960438415" lon="12.215787174657473"><ele>-2.0</ele><time>2026-05-02T14:03:01Z</time></trkpt><trkpt lat="44.82549675507865" lon="12.215683731394265"><ele>-2.0</ele><time>2026-05-02T14:03:03Z</time></trkpt><trkpt lat="44.82551351821848" lon="12.21556953124285"><ele>-2.0</ele><time>2026-05-02T14:03:05Z</time></trkpt><trkpt lat="44.825527129860305" lon="12.21545046369201"><ele>-1.9999999999999998</ele><time>2026-05-02T14:03:07Z</time></trkpt><trkpt lat="44.82553194927306" lon="12.215330593612181"><ele>-2.0</ele><time>2026-05-02T14:03:09Z</time></trkpt><trkpt lat="44.825548148916084" lon="12.215217004138589"><ele>-1.9999999999999998</ele><time>2026-05-02T14:03:11Z</time></trkpt><trkpt lat="44.82557885098571" lon="12.215105698039622"><ele>-2.0</ele><time>2026-05-02T14:03:13Z</time></trkpt><trkpt lat="44.82559849098119" lon="12.214999117386343"><ele>-2.0</ele><time>2026-05-02T14:03:15Z</time></trkpt><trkpt lat="44.82562213338031" lon="12.21489784265834"><ele>-2.0</ele><time>2026-05-02T14:03:17Z</time></trkpt><trkpt lat="44.82564927882419" lon="12.214801721030703"><ele>-1.9999999999999998</ele><time>2026-05-02T14:03:19Z</time></trkpt><trkpt lat="44.82567724870762" lon="12.214715215523512"><ele>-2.0</ele><time>2026-05-02T14:03:21Z</time></trkpt><trkpt lat="44.825711568001466" lon="12.214620604735025"><ele>-2.1666666666666665</ele><time>2026-05-02T14:03:23Z</time></trkpt><trkpt lat="44.82575318853911" lon="12.21452373019984"><ele>-2.333333333333333</ele><time>2026-05-02T14:03:25Z</time></trkpt><trkpt lat="44.825801017543405" lon="12.214424762560135"><ele>-2.5</ele><time>2026-05-02T14:03:27Z</time></trkpt><trkpt lat="44.825846420475095" lon="12.21432361479444"><ele>-2.6666666666666665</ele><time>2026-05-02T14:03:29Z</time></trkpt><trkpt lat="44.82589821054554" lon="12.214225921216915"><ele>-2.8333333333333335</ele><time>2026-05-02T14:03:31Z</time></trkpt><trkpt lat="44.82594967001324" lon="12.214130899133949"><ele>-3.0</ele><time>2026-05-02T14:03:33Z</time></trkpt><trkpt lat="44.82600628693776" lon="12.21403948459963"><ele>-3.0</ele><time>2026-05-02T14:03:35Z</time></trkpt><trkpt lat="44.8260594808337" lon="12.213944474206693"><ele>-3.0</ele><time>2026-05-02T14:03:37Z</time></trkpt><trkpt lat="44.82611558400436" lon="12.213853610585842"><ele>-3.0</ele><time>2026-05-02T14:03:39Z</time></trkpt><trkpt lat="44.8261661121402" lon="12.213761057960122"><ele>-3.0</ele><time>2026-05-02T14:03:41Z</time></trkpt><trkpt lat="44.826218571099815" lon="12.213675973423081"><ele>-3.0</ele><time>2026-05-02T14:03:43Z</time></trkpt><trkpt lat="44.826261552108505" lon="12.213586247754835"><ele>-3.0</ele><time>2026-05-02T14:03:45Z</time></trkpt><trkpt lat="44.82631461612524" lon="12.213512687494546"><ele>-3.0</ele><time>2026-05-02T14:03:47Z</time></trkpt><trkpt lat="44.82636245396384" lon="12.213440903879091"><ele>-3.0</ele><time>2026-05-02T14:03:49Z</time></trkpt><trkpt lat="44.82642123914453" lon="12.213371262316727"><ele>-3.0</ele><time>2026-05-02T14:03:51Z</time></trkpt><trkpt lat="44.82647646300598" lon="12.213283373351937"><ele>-3.0</ele><time>2026-05-02T14:03:53Z</time></trkpt><trkpt lat="44.82653309860309" lon="12.213193658246015"><ele>-3.0</ele><time>2026-05-02T14:03:55Z</time></trkpt><trkpt lat="44.826588789605324" lon="12.213103430684566"><ele>-3.0</ele><time>2026-05-02T14:03:57Z</time></trkpt><trkpt lat="44.82664674073733" lon="12.213008235621203"><ele>-3.1666666666666665</ele><time>2026-05-02T14:03:59Z</time></trkpt><trkpt lat="44.82670339490641" lon="12.212919903360932"><ele>-3.333333333333333</ele><time>2026-05-02T14:04:01Z</time></trkpt><trkpt lat="44.826759118975325" lon="12.212834325732084"><ele>-3.5</ele><time>2026-05-02T14:04:03Z</time></trkpt><trkpt lat="44.82678918186077" lon="12.212731471037863"><ele>-3.6666666666666665</ele><time>2026-05-02T14:04:05Z</time></trkpt><trkpt lat="44.82683048216277" lon="12.212638183599521"><ele>-3.833333333333333</ele><time>2026-05-02T14:04:07Z</time></trkpt><trkpt lat="44.82686197775262" lon="12.212533053867197"><ele>-4.0</ele><time>2026-05-02T14:04:09Z</time></trkpt><trkpt lat="44.826866966538404" lon="12.21241691438661"><ele>-3.9999999999999996</ele><time>2026-05-02T14:04:11Z</time></trkpt><trkpt lat="44.826850707024875" lon="12.212307773139909"><ele>-4.0</ele><time>2026-05-02T14:04:13Z</time></trkpt><trkpt lat="44.82683063919891" lon="12.21220980753708"><ele>-4.0</ele><time>2026-05-02T14:04:15Z</time></trkpt><trkpt lat="44.82680327329202" lon="12.21211009932811"><ele>-4.0</ele><time>2026-05-02T14:04:17Z</time></trkpt><trkpt lat="44.826771386128655" lon="12.212016961633367"><ele>-3.9999999999999996</ele><time>2026-05-02T14:04:19Z</time></trkpt><trkpt lat="44.82671553290008" lon="12.211930921477654"><ele>-4.0</ele><time>2026-05-02T14:04:21Z</time></trkpt><trkpt lat="44.826646586152414" lon="12.211866235113355"><ele>-3.9999999999999996</ele><time>2026-05-02T14:04:23Z</time></trkpt><trkpt lat="44.826592107127354" lon="12.211785891043027"><ele>-4.0</ele><time>2026-05-02T14:04:25Z</time></trkpt><trkpt lat="44.82653858095164" lon="12.21171677312084"><ele>-4.0</ele><time>2026-05-02T14:04:27Z</time></trkpt><trkpt lat="44.82648501705802" lon="12.21166050586305"><ele>-4.0</ele><time>2026-05-02T14:04:29Z</time></trkpt><trkpt lat="44.82643361448035" lon="12.21160073887763"><ele>-3.9999999999999996</ele><time>2026-05-02T14:04:31Z</time></trkpt><trkpt lat="44.82637517377963" lon="12.21152105923771"><ele>-4.0</ele><time>2026-05-02T14:04:33Z</time></trkpt><trkpt lat="44.826310197006826" lon="12.211446191172751"><ele>-3.9999999999999996</ele><time>2026-05-02T14:04:35Z</time></trkpt><trkpt lat="44.82625691521389" lon="12.211372184933028"><ele>-4.0</ele><time>2026-05-02T14:04:37Z</time></trkpt><trkpt lat="44.82620606924722" lon="12.211308196435283"><ele>-4.0</ele><time>2026-05-02T14:04:39Z</time></trkpt><trkpt lat="44.826161167829206" lon="12.211230232527019"><ele>-4.0</ele><time>2026-05-02T14:04:41Z</time></trkpt><trkpt lat="44.82610416602073" lon="12.21114606937454"><ele>-3.9999999999999996</ele><time>2026-05-02T14:04:43Z</time></trkpt><trkpt lat="44.82604381664878" lon="12.211066004932865"><ele>-4.0</ele><time>2026-05-02T14:04:45Z</time></trkpt><trkpt lat="44.825977466398186" lon="12.210993267470746"><ele>-3.9999999999999996</ele><time>2026-05-02T14:04:47Z</time></trkpt><trkpt lat="44.82591560923382" lon="12.210911843815403"><ele>-4.0</ele><time>2026-05-02T14:04:49Z</time></trkpt><trkpt lat="44.82585307673227" lon="12.21083411927908"><ele>-4.0</ele><time>2026-05-02T14:04:51Z</time></trkpt><trkpt lat="44.82578858392953" lon="12.210757447099978"><ele>-4.0</ele><time>2026-05-02T14:04:53Z</time></trkpt><trkpt lat="44.825723946093774" lon="12.210682575681572"><ele>-3.9999999999999996</ele><time>2026-05-02T14:04:55Z</time></trkpt><trkpt lat="44.825665042779846" lon="12.21060181226643"><ele>-4.0</ele><time>2026-05-02T14:04:57Z</time></trkpt><trkpt lat="44.82560417298193" lon="12.210531217513758"><ele>-4.166666666666666</ele><time>2026-05-02T14:04:59Z</time></trkpt><trkpt lat="44.82554515919504" lon="12.210468299302294"><ele>-4.333333333333333</ele><time>2026-05-02T14:05:01Z</time></trkpt><trkpt lat="44.82549147311028" lon="12.210394138015502"><ele>-4.5</ele><time>2026-05-02T14:05:03Z</time></trkpt><trkpt lat="44.825415715866974" lon="12.210292016771374"><ele>-4.666666666666667</ele><time>2026-05-02T14:05:06Z</time></trkpt><trkpt lat="44.8253550124707" lon="12.210216337840965"><ele>-4.833333333333334</ele><time>2026-05-02T14:05:08Z</time></trkpt><trkpt lat="44.82529395528696" lon="12.210141478478118"><ele>-5.0</ele><time>2026-05-02T14:05:10Z</time></trkpt><trkpt lat="44.82523398007235" lon="12.210069823099662"><ele>-5.0</ele><time>2026-05-02T14:05:12Z</time></trkpt><trkpt lat="44.82518225247901" lon="12.209997799968997"><ele>-5.0</ele><time>2026-05-02T14:05:14Z</time></trkpt><trkpt lat="44.825128634005765" lon="12.20993451009355"><ele>-5.0</ele><time>2026-05-02T14:05:16Z</time></trkpt><trkpt lat="44.8250731910627" lon="12.209870285195091"><ele>-5.0</ele><time>2026-05-02T14:05:18Z</time></trkpt><trkpt lat="44.825015879017236" lon="12.209796318800525"><ele>-5.0</ele><time>2026-05-02T14:05:20Z</time></trkpt><trkpt lat="44.82495897594313" lon="12.209737283612052"><ele>-5.0</ele><time>2026-05-02T14:05:22Z</time></trkpt><trkpt lat="44.82491182615618" lon="12.2096754614302"><ele>-5.0</ele><time>2026-05-02T14:05:24Z</time></trkpt><trkpt lat="44.82483944655675" lon="12.209589454967956"><ele>-4.833333333333334</ele><time>2026-05-02T14:05:27Z</time></trkpt><trkpt lat="44.824783025767374" lon="12.20951706015283"><ele>-4.666666666666667</ele><time>2026-05-02T14:05:29Z</time></trkpt><trkpt lat="44.824722661747685" lon="12.20944523612063"><ele>-4.5</ele><time>2026-05-02T14:05:31Z</time></trkpt><trkpt lat="44.82467817914828" lon="12.209343921825797"><ele>-4.333333333333333</ele><time>2026-05-02T14:05:33Z</time></trkpt><trkpt lat="44.824667954088156" lon="12.209225992366063"><ele>-4.166666666666666</ele><time>2026-05-02T14:05:35Z</time></trkpt><trkpt lat="44.82469714771561" lon="12.209110584210046"><ele>-4.0</ele><time>2026-05-02T14:05:37Z</time></trkpt><trkpt lat="44.82472400231843" lon="12.208993809188751"><ele>-3.9999999999999996</ele><time>2026-05-02T14:05:39Z</time></trkpt><trkpt lat="44.82475221289338" lon="12.208885576560606"><ele>-4.0</ele><time>2026-05-02T14:05:41Z</time></trkpt><trkpt lat="44.824784624999204" lon="12.20877149646857"><ele>-4.0</ele><time>2026-05-02T14:05:43Z</time></trkpt><trkpt lat="44.824819828086376" lon="12.208655423081192"><ele>-4.0</ele><time>2026-05-02T14:05:45Z</time></trkpt><trkpt lat="44.82484829096109" lon="12.208542125339257"><ele>-3.9999999999999996</ele><time>2026-05-02T14:05:47Z</time></trkpt><trkpt lat="44.82487493380537" lon="12.208437905481437"><ele>-4.0</ele><time>2026-05-02T14:05:49Z</time></trkpt><trkpt lat="44.82490130601077" lon="12.208343175937047"><ele>-3.9999999999999996</ele><time>2026-05-02T14:05:51Z</time></trkpt><trkpt lat="44.8249266150156" lon="12.208254227202932"><ele>-4.0</ele><time>2026-05-02T14:05:53Z</time></trkpt><trkpt lat="44.824954750660744" lon="12.208161978559412"><ele>-4.0</ele><time>2026-05-02T14:05:55Z</time></trkpt><trkpt lat="44.82498121523283" lon="12.2080551543647"><ele>-4.0</ele><time>2026-05-02T14:05:57Z</time></trkpt><trkpt lat="44.82501068573375" lon="12.207951165228641"><ele>-3.9999999999999996</ele><time>2026-05-02T14:05:59Z</time></trkpt><trkpt lat="44.825040596678534" lon="12.20784234074085"><ele>-4.0</ele><time>2026-05-02T14:06:01Z</time></trkpt><trkpt lat="44.82507385307045" lon="12.207732910189982"><ele>-3.9999999999999996</ele><time>2026-05-02T14:06:03Z</time></trkpt><trkpt lat="44.82510149071132" lon="12.207621754970933"><ele>-4.0</ele><time>2026-05-02T14:06:05Z</time></trkpt><trkpt lat="44.82513346988314" lon="12.207511071644678"><ele>-4.0</ele><time>2026-05-02T14:06:07Z</time></trkpt><trkpt lat="44.82516404859904" lon="12.207397503979331"><ele>-4.0</ele><time>2026-05-02T14:06:09Z</time></trkpt><trkpt lat="44.82519719355908" lon="12.20728731373182"><ele>-3.9999999999999996</ele><time>2026-05-02T14:06:11Z</time></trkpt><trkpt lat="44.825228790442914" lon="12.20717250492681"><ele>-4.0</ele><time>2026-05-02T14:06:13Z</time></trkpt><trkpt lat="44.82525774391189" lon="12.207059339622372"><ele>-3.9999999999999996</ele><time>2026-05-02T14:06:15Z</time></trkpt><trkpt lat="44.82529157358169" lon="12.206950476878024"><ele>-4.0</ele><time>2026-05-02T14:06:17Z</time></trkpt><trkpt lat="44.82531954766499" lon="12.206842958248789"><ele>-4.0</ele><time>2026-05-02T14:06:19Z</time></trkpt><trkpt lat="44.82534849921674" lon="12.206737604159361"><ele>-4.0</ele><time>2026-05-02T14:06:21Z</time></trkpt><trkpt lat="44.82537872973257" lon="12.206631094801036"><ele>-3.9999999999999996</ele><time>2026-05-02T14:06:23Z</time></trkpt><trkpt lat="44.8254082347437" lon="12.20651751720556"><ele>-4.0</ele><time>2026-05-02T14:06:25Z</time></trkpt><trkpt lat="44.825437191082614" lon="12.20640642619752"><ele>-3.833333333333333</ele><time>2026-05-02T14:06:27Z</time></trkpt><trkpt lat="44.825467370084574" lon="12.206298710195352"><ele>-3.6666666666666665</ele><time>2026-05-02T14:06:29Z</time></trkpt><trkpt lat="44.82549349850117" lon="12.20619941536507"><ele>-3.5</ele><time>2026-05-02T14:06:31Z</time></trkpt><trkpt lat="44.82551880679908" lon="12.206105657833135"><ele>-3.333333333333333</ele><time>2026-05-02T14:06:33Z</time></trkpt><trkpt lat="44.825547449686624" lon="12.206020335176436"><ele>-3.1666666666666665</ele><time>2026-05-02T14:06:35Z</time></trkpt><trkpt lat="44.82556588416037" lon="12.205932278954135"><ele>-3.0</ele><time>2026-05-02T14:06:37Z</time></trkpt><trkpt lat="44.825601641024036" lon="12.205813308240527"><ele>-3.0</ele><time>2026-05-02T14:06:40Z</time></trkpt><trkpt lat="44.825634984493306" lon="12.205698214683546"><ele>-3.0</ele><time>2026-05-02T14:06:43Z</time></trkpt><trkpt lat="44.82565612753495" lon="12.205611404969138"><ele>-3.0</ele><time>2026-05-02T14:06:45Z</time></trkpt><trkpt lat="44.82567221610952" lon="12.20548761000883"><ele>-3.0</ele><time>2026-05-02T14:06:47Z</time></trkpt><trkpt lat="44.8257103112528" lon="12.205375044502574"><ele>-3.0</ele><time>2026-05-02T14:06:49Z</time></trkpt><trkpt lat="44.82574109962834" lon="12.205256563911727"><ele>-3.0</ele><time>2026-05-02T14:06:51Z</time></trkpt><trkpt lat="44.825784394576914" lon="12.205160328794278"><ele>-2.8333333333333335</ele><time>2026-05-02T14:06:53Z</time></trkpt><trkpt lat="44.82580481562186" lon="12.205059179265115"><ele>-2.6666666666666665</ele><time>2026-05-02T14:06:55Z</time></trkpt><trkpt lat="44.825834214007934" lon="12.204961594911795"><ele>-2.5</ele><time>2026-05-02T14:06:57Z</time></trkpt><trkpt lat="44.825864412025176" lon="12.20485429821395"><ele>-2.333333333333333</ele><time>2026-05-02T14:06:59Z</time></trkpt><trkpt lat="44.82589007003515" lon="12.204742098761862"><ele>-2.1666666666666665</ele><time>2026-05-02T14:07:01Z</time></trkpt><trkpt lat="44.82592413371987" lon="12.20463453626515"><ele>-2.0</ele><time>2026-05-02T14:07:03Z</time></trkpt><trkpt lat="44.82595145212713" lon="12.204528786685955"><ele>-2.2</ele><time>2026-05-02T14:07:05Z</time></trkpt><trkpt lat="44.8259849339478" lon="12.20440634626107"><ele>-2.4000000000000004</ele><time>2026-05-02T14:07:07Z</time></trkpt><trkpt lat="44.82601609601592" lon="12.2042827835485"><ele>-2.5999999999999996</ele><time>2026-05-02T14:07:09Z</time></trkpt><trkpt lat="44.82605122763468" lon="12.204169787670025"><ele>-2.8</ele><time>2026-05-02T14:07:11Z</time></trkpt><trkpt lat="44.82608079970492" lon="12.204053449631607"><ele>-3.0</ele><time>2026-05-02T14:07:13Z</time></trkpt><trkpt lat="44.82611068066923" lon="12.203935932008418"><ele>-3.2</ele><time>2026-05-02T14:07:15Z</time></trkpt><trkpt lat="44.82615164442201" lon="12.203817661295217"><ele>-3.4</ele><time>2026-05-02T14:07:17Z</time></trkpt><trkpt lat="44.826181712643894" lon="12.20369039533846"><ele>-3.6000000000000005</ele><time>2026-05-02T14:07:19Z</time></trkpt><trkpt lat="44.826211913283615" lon="12.203569735110392"><ele>-3.8000000000000003</ele><time>2026-05-02T14:07:21Z</time></trkpt><trkpt lat="44.82624502441221" lon="12.203452775882486"><ele>-4.0</ele><time>2026-05-02T14:07:23Z</time></trkpt><trkpt lat="44.82627352360632" lon="12.20333578603117"><ele>-4.0</ele><time>2026-05-02T14:07:25Z</time></trkpt><trkpt lat="44.826301079509086" lon="12.203220761955308"><ele>-4.0</ele><time>2026-05-02T14:07:27Z</time></trkpt><trkpt lat="44.82633371096792" lon="12.203113822762115"><ele>-4.0</ele><time>2026-05-02T14:07:29Z</time></trkpt><trkpt lat="44.82636224958984" lon="12.202991465588429"><ele>-4.0</ele><time>2026-05-02T14:07:31Z</time></trkpt><trkpt lat="44.826404808861284" lon="12.20287188935893"><ele>-4.0</ele><time>2026-05-02T14:07:33Z</time></trkpt><trkpt lat="44.82643503760958" lon="12.202741852177823"><ele>-4.0</ele><time>2026-05-02T14:07:35Z</time></trkpt><trkpt lat="44.826465929663115" lon="12.202612631177354"><ele>-4.0</ele><time>2026-05-02T14:07:37Z</time></trkpt><trkpt lat="44.826505269330816" lon="12.202487868751465"><ele>-4.0</ele><time>2026-05-02T14:07:39Z</time></trkpt><trkpt lat="44.826545456628295" lon="12.202365435527268"><ele>-4.0</ele><time>2026-05-02T14:07:41Z</time></trkpt><trkpt lat="44.82657830798241" lon="12.202246699062204"><ele>-4.0</ele><time>2026-05-02T14:07:43Z</time></trkpt><trkpt lat="44.82661040297091" lon="12.202135535007073"><ele>-3.9999999999999996</ele><time>2026-05-02T14:07:45Z</time></trkpt><trkpt lat="44.8266362114362" lon="12.202025725353028"><ele>-4.0</ele><time>2026-05-02T14:07:47Z</time></trkpt><trkpt lat="44.82665605628325" lon="12.201922074465656"><ele>-4.0</ele><time>2026-05-02T14:07:49Z</time></trkpt><trkpt lat="44.826693683368994" lon="12.201809253516686"><ele>-4.0</ele><time>2026-05-02T14:07:51Z</time></trkpt><trkpt lat="44.82672899238784" lon="12.201695134858019"><ele>-3.9999999999999996</ele><time>2026-05-02T14:07:53Z</time></trkpt><trkpt lat="44.8267602669013" lon="12.201583230805191"><ele>-4.0</ele><time>2026-05-02T14:07:55Z</time></trkpt><trkpt lat="44.826788380441855" lon="12.201474772635914"><ele>-3.8000000000000003</ele><time>2026-05-02T14:07:57Z</time></trkpt><trkpt lat="44.82682474851659" lon="12.201367291392334"><ele>-3.6000000000000005</ele><time>2026-05-02T14:07:59Z</time></trkpt><trkpt lat="44.82685639801663" lon="12.201245969353625"><ele>-3.4</ele><time>2026-05-02T14:08:01Z</time></trkpt><trkpt lat="44.82689039967743" lon="12.201119354400564"><ele>-3.2</ele><time>2026-05-02T14:08:03Z</time></trkpt><trkpt lat="44.82692926656315" lon="12.200992595234196"><ele>-3.0</ele><time>2026-05-02T14:08:05Z</time></trkpt><trkpt lat="44.82696229526828" lon="12.200863229915583"><ele>-3.0</ele><time>2026-05-02T14:08:07Z</time></trkpt><trkpt lat="44.8270011087401" lon="12.200737460011634"><ele>-3.0</ele><time>2026-05-02T14:08:09Z</time></trkpt><trkpt lat="44.82704023640762" lon="12.200610507938604"><ele>-3.0</ele><time>2026-05-02T14:08:11Z</time></trkpt><trkpt lat="44.8270721539176" lon="12.20048189991004"><ele>-3.0</ele><time>2026-05-02T14:08:13Z</time></trkpt><trkpt lat="44.827109518484136" lon="12.200356023749864"><ele>-3.0</ele><time>2026-05-02T14:08:15Z</time></trkpt><trkpt lat="44.82714556728554" lon="12.200228135810866"><ele>-3.0</ele><time>2026-05-02T14:08:17Z</time></trkpt><trkpt lat="44.827183846743814" lon="12.200103919801215"><ele>-3.0</ele><time>2026-05-02T14:08:19Z</time></trkpt><trkpt lat="44.8272177120932" lon="12.199974102963766"><ele>-3.0</ele><time>2026-05-02T14:08:21Z</time></trkpt><trkpt lat="44.827250276699836" lon="12.199850981122298"><ele>-3.0</ele><time>2026-05-02T14:08:23Z</time></trkpt><trkpt lat="44.827278857037314" lon="12.199728459575955"><ele>-3.0</ele><time>2026-05-02T14:08:25Z</time></trkpt><trkpt lat="44.8273082487483" lon="12.199613468695345"><ele>-3.0</ele><time>2026-05-02T14:08:27Z</time></trkpt><trkpt lat="44.82734020659792" lon="12.1995233524117"><ele>-3.0</ele><time>2026-05-02T14:08:29Z</time></trkpt><trkpt lat="44.82735865648309" lon="12.199426272459744"><ele>-3.0</ele><time>2026-05-02T14:08:38Z</time></trkpt><trkpt lat="44.827297024889894" lon="12.19951137753447"><ele>-3.0</ele><time>2026-05-02T14:08:43Z</time></trkpt><trkpt lat="44.82730487613948" lon="12.199612892439019"><ele>-3.0</ele><time>2026-05-02T14:08:45Z</time></trkpt><trkpt lat="44.827279919351604" lon="12.199745825009188"><ele>-3.0</ele><time>2026-05-02T14:08:47Z</time></trkpt><trkpt lat="44.8272631117464" lon="12.199842121978634"><ele>-3.0</ele><time>2026-05-02T14:08:49Z</time></trkpt><trkpt lat="44.82725052806029" lon="12.199969224479135"><ele>-3.0</ele><time>2026-05-02T14:08:52Z</time></trkpt><trkpt lat="44.82724738330438" lon="12.200075380658514"><ele>-3.0</ele><time>2026-05-02T14:08:55Z</time></trkpt><trkpt lat="44.82726444584319" lon="12.199963159001937"><ele>-3.0</ele><time>2026-05-02T14:13:49Z</time></trkpt><trkpt lat="44.82727208648837" lon="12.199836505191046"><ele>-3.0</ele><time>2026-05-02T14:13:52Z</time></trkpt><trkpt lat="44.827298405389485" lon="12.199724186388627"><ele>-3.0</ele><time>2026-05-02T14:13:54Z</time></trkpt><trkpt lat="44.82732349993225" lon="12.199618819945304"><ele>-3.4</ele><time>2026-05-02T14:13:56Z</time></trkpt><trkpt lat="44.827354400445415" lon="12.19949755657698"><ele>-3.8</ele><time>2026-05-02T14:13:58Z</time></trkpt><trkpt lat="44.82738317406768" lon="12.199385747774969"><ele>-4.2</ele><time>2026-05-02T14:14:00Z</time></trkpt><trkpt lat="44.827420598031814" lon="12.199260417845679"><ele>-4.6</ele><time>2026-05-02T14:14:02Z</time></trkpt><trkpt lat="44.82745348449358" lon="12.199130076264867"><ele>-5.0</ele><time>2026-05-02T14:14:04Z</time></trkpt><trkpt lat="44.82748391101797" lon="12.199019255998344"><ele>-4.833333333333334</ele><time>2026-05-02T14:14:06Z</time></trkpt><trkpt lat="44.82751104222841" lon="12.198911576991907"><ele>-4.666666666666667</ele><time>2026-05-02T14:14:08Z</time></trkpt><trkpt lat="44.82753951615515" lon="12.198803744762632"><ele>-4.5</ele><time>2026-05-02T14:14:10Z</time></trkpt><trkpt lat="44.82756615937084" lon="12.19870134512119"><ele>-4.333333333333333</ele><time>2026-05-02T14:14:12Z</time></trkpt><trkpt lat="44.82759269197451" lon="12.198601648948841"><ele>-4.166666666666666</ele><time>2026-05-02T14:14:14Z</time></trkpt><trkpt lat="44.82762532326343" lon="12.198486345952952"><ele>-4.0</ele><time>2026-05-02T14:14:16Z</time></trkpt><trkpt lat="44.827660311427174" lon="12.198372313243118"><ele>-3.9999999999999996</ele><time>2026-05-02T14:14:18Z</time></trkpt><trkpt lat="44.82768935644688" lon="12.19826215242097"><ele>-4.0</ele><time>2026-05-02T14:14:20Z</time></trkpt><trkpt lat="44.82771740786947" lon="12.198154479183447"><ele>-4.0</ele><time>2026-05-02T14:14:22Z</time></trkpt><trkpt lat="44.82774696855375" lon="12.198051464045344"><ele>-4.0</ele><time>2026-05-02T14:14:24Z</time></trkpt><trkpt lat="44.82777051831948" lon="12.197948374133391"><ele>-3.9999999999999996</ele><time>2026-05-02T14:14:26Z</time></trkpt><trkpt lat="44.82780448690637" lon="12.19783023902395"><ele>-4.0</ele><time>2026-05-02T14:14:28Z</time></trkpt><trkpt lat="44.82783904245055" lon="12.197715631132798"><ele>-3.9999999999999996</ele><time>2026-05-02T14:14:30Z</time></trkpt><trkpt lat="44.82786725353622" lon="12.19760698917146"><ele>-4.0</ele><time>2026-05-02T14:14:32Z</time></trkpt><trkpt lat="44.827895806246815" lon="12.19750328401944"><ele>-4.0</ele><time>2026-05-02T14:14:34Z</time></trkpt><trkpt lat="44.82792469821529" lon="12.197399783213966"><ele>-4.0</ele><time>2026-05-02T14:14:36Z</time></trkpt><trkpt lat="44.82795740992619" lon="12.197289502532504"><ele>-3.9999999999999996</ele><time>2026-05-02T14:14:38Z</time></trkpt><trkpt lat="44.82798516586341" lon="12.197174689058263"><ele>-4.0</ele><time>2026-05-02T14:14:40Z</time></trkpt><trkpt lat="44.828013447115765" lon="12.1970716257061"><ele>-3.9999999999999996</ele><time>2026-05-02T14:14:42Z</time></trkpt><trkpt lat="44.82803767704062" lon="12.196969298281186"><ele>-4.0</ele><time>2026-05-02T14:14:44Z</time></trkpt><trkpt lat="44.82807428485672" lon="12.19685457934027"><ele>-4.0</ele><time>2026-05-02T14:14:46Z</time></trkpt><trkpt lat="44.82810542578809" lon="12.196753206849488"><ele>-4.0</ele><time>2026-05-02T14:14:48Z</time></trkpt><trkpt lat="44.828133461353616" lon="12.196648144719012"><ele>-3.9999999999999996</ele><time>2026-05-02T14:14:50Z</time></trkpt><trkpt lat="44.828153033291436" lon="12.196536222379445"><ele>-4.0</ele><time>2026-05-02T14:14:52Z</time></trkpt><trkpt lat="44.8281840704529" lon="12.196430097345813"><ele>-3.6666666666666665</ele><time>2026-05-02T14:14:54Z</time></trkpt><trkpt lat="44.828212610045135" lon="12.196315460611583"><ele>-3.333333333333333</ele><time>2026-05-02T14:14:56Z</time></trkpt><trkpt lat="44.82824413165556" lon="12.19620935551371"><ele>-3.0</ele><time>2026-05-02T14:14:58Z</time></trkpt><trkpt lat="44.828274037581664" lon="12.196099639882274"><ele>-2.6666666666666665</ele><time>2026-05-02T14:15:00Z</time></trkpt><trkpt lat="44.82829434258629" lon="12.19598449355426"><ele>-2.333333333333333</ele><time>2026-05-02T14:15:02Z</time></trkpt><trkpt lat="44.82833634478212" lon="12.195887530071381"><ele>-2.0</ele><time>2026-05-02T14:15:04Z</time></trkpt><trkpt lat="44.828365316146375" lon="12.195782408831061"><ele>-1.9999999999999998</ele><time>2026-05-02T14:15:06Z</time></trkpt><trkpt lat="44.828400173110765" lon="12.19568958458417"><ele>-2.0</ele><time>2026-05-02T14:15:08Z</time></trkpt><trkpt lat="44.82842442411102" lon="12.19559731102584"><ele>-2.0</ele><time>2026-05-02T14:15:11Z</time></trkpt><trkpt lat="44.828454064381916" lon="12.195483810854107"><ele>-2.0</ele><time>2026-05-02T14:15:40Z</time></trkpt><trkpt lat="44.82847858095555" lon="12.195395517362902"><ele>-1.9999999999999998</ele><time>2026-05-02T14:15:42Z</time></trkpt><trkpt lat="44.82850952992902" lon="12.195278153164015"><ele>-2.0</ele><time>2026-05-02T14:15:44Z</time></trkpt><trkpt lat="44.828544108803605" lon="12.19515240015428"><ele>-2.0</ele><time>2026-05-02T14:15:46Z</time></trkpt><trkpt lat="44.82857799168539" lon="12.195019274823254"><ele>-2.0</ele><time>2026-05-02T14:15:48Z</time></trkpt><trkpt lat="44.828614459515165" lon="12.194894571140052"><ele>-2.0</ele><time>2026-05-02T14:15:50Z</time></trkpt><trkpt lat="44.82864879441228" lon="12.194776026151828"><ele>-2.0</ele><time>2026-05-02T14:15:52Z</time></trkpt><trkpt lat="44.828679345227464" lon="12.194656855670956"><ele>-2.0</ele><time>2026-05-02T14:15:54Z</time></trkpt><trkpt lat="44.828709056530386" lon="12.194549863021651"><ele>-2.0</ele><time>2026-05-02T14:15:56Z</time></trkpt><trkpt lat="44.82874016480545" lon="12.194430933289937"><ele>-2.0</ele><time>2026-05-02T14:15:58Z</time></trkpt><trkpt lat="44.82877777957942" lon="12.194305631204564"><ele>-2.0</ele><time>2026-05-02T14:16:00Z</time></trkpt><trkpt lat="44.828817143870545" lon="12.194175900047926"><ele>-2.0</ele><time>2026-05-02T14:16:02Z</time></trkpt><trkpt lat="44.82885251244913" lon="12.194045919927568"><ele>-2.0</ele><time>2026-05-02T14:16:04Z</time></trkpt><trkpt lat="44.82888849094745" lon="12.19392466674973"><ele>-1.8</ele><time>2026-05-02T14:16:06Z</time></trkpt><trkpt lat="44.82892340864831" lon="12.193800383879124"><ele>-1.6</ele><time>2026-05-02T14:16:08Z</time></trkpt><trkpt lat="44.82896525346407" lon="12.193614539559931"><ele>-1.4000000000000001</ele><time>2026-05-02T14:16:11Z</time></trkpt><trkpt lat="44.82900309068136" lon="12.19349723318307"><ele>-1.2000000000000002</ele><time>2026-05-02T14:16:13Z</time></trkpt><trkpt lat="44.82902999151323" lon="12.193376593657577"><ele>-1.0</ele><time>2026-05-02T14:16:15Z</time></trkpt><trkpt lat="44.8290477820916" lon="12.193256331041047"><ele>-0.9999999999999999</ele><time>2026-05-02T14:16:16.999Z</time></trkpt><trkpt lat="44.82904662173234" lon="12.193141975210784"><ele>-1.0</ele><time>2026-05-02T14:16:19Z</time></trkpt><trkpt lat="44.829042081963486" lon="12.193026759471076"><ele>-1.0</ele><time>2026-05-02T14:16:21Z</time></trkpt><trkpt lat="44.82904342654868" lon="12.192909088812504"><ele>-1.0</ele><time>2026-05-02T14:16:23Z</time></trkpt><trkpt lat="44.82903601788119" lon="12.192799373822208"><ele>-0.9999999999999999</ele><time>2026-05-02T14:16:25Z</time></trkpt><trkpt lat="44.829030459432346" lon="12.192693973657176"><ele>-1.0</ele><time>2026-05-02T14:16:27Z</time></trkpt><trkpt lat="44.82903185874914" lon="12.1925897131631"><ele>-0.9999999999999999</ele><time>2026-05-02T14:16:29Z</time></trkpt><trkpt lat="44.829029332425335" lon="12.192481971037676"><ele>-1.0</ele><time>2026-05-02T14:16:31Z</time></trkpt><trkpt lat="44.829040286285846" lon="12.192372428021795"><ele>-1.0</ele><time>2026-05-02T14:16:33Z</time></trkpt><trkpt lat="44.82905688620232" lon="12.192253522740383"><ele>-1.0</ele><time>2026-05-02T14:16:35Z</time></trkpt><trkpt lat="44.82908440464277" lon="12.192140239200915"><ele>-0.9999999999999999</ele><time>2026-05-02T14:16:37Z</time></trkpt><trkpt lat="44.82911435588602" lon="12.192024699747998"><ele>-1.0</ele><time>2026-05-02T14:16:39Z</time></trkpt><trkpt lat="44.82914537825969" lon="12.191909698037174"><ele>-1.4</ele><time>2026-05-02T14:16:41Z</time></trkpt><trkpt lat="44.829177349840364" lon="12.19179023614579"><ele>-1.8</ele><time>2026-05-02T14:16:43Z</time></trkpt><trkpt lat="44.82921027809343" lon="12.191669262455392"><ele>-2.1999999999999997</ele><time>2026-05-02T14:16:45Z</time></trkpt><trkpt lat="44.82924488012375" lon="12.191550970366714"><ele>-2.6</ele><time>2026-05-02T14:16:47Z</time></trkpt><trkpt lat="44.82927429563097" lon="12.191430956902535"><ele>-3.0</ele><time>2026-05-02T14:16:49Z</time></trkpt><trkpt lat="44.82931019275163" lon="12.191320110526972"><ele>-3.3333333333333335</ele><time>2026-05-02T14:16:51Z</time></trkpt><trkpt lat="44.8293363755359" lon="12.191210937025673"><ele>-3.666666666666667</ele><time>2026-05-02T14:16:53Z</time></trkpt><trkpt lat="44.82936405722004" lon="12.191111208178139"><ele>-4.0</ele><time>2026-05-02T14:16:55Z</time></trkpt><trkpt lat="44.82939411151313" lon="12.191009281835623"><ele>-4.333333333333334</ele><time>2026-05-02T14:16:57Z</time></trkpt><trkpt lat="44.82943017847773" lon="12.19089696321076"><ele>-4.666666666666667</ele><time>2026-05-02T14:16:59Z</time></trkpt><trkpt lat="44.82945741543612" lon="12.1907837781383"><ele>-5.0</ele><time>2026-05-02T14:17:01Z</time></trkpt><trkpt lat="44.829487761262165" lon="12.190681011342974"><ele>-4.833333333333334</ele><time>2026-05-02T14:17:03Z</time></trkpt><trkpt lat="44.829516933760985" lon="12.19058093739439"><ele>-4.666666666666667</ele><time>2026-05-02T14:17:05Z</time></trkpt><trkpt lat="44.82954787207496" lon="12.190484987432573"><ele>-4.5</ele><time>2026-05-02T14:17:07Z</time></trkpt><trkpt lat="44.82956888338972" lon="12.19039141853212"><ele>-4.333333333333333</ele><time>2026-05-02T14:17:09Z</time></trkpt><trkpt lat="44.82959316962106" lon="12.190299730367157"><ele>-4.166666666666666</ele><time>2026-05-02T14:17:11Z</time></trkpt><trkpt lat="44.82962672106599" lon="12.190186514531758"><ele>-4.0</ele><time>2026-05-02T14:17:13Z</time></trkpt><trkpt lat="44.82965625254832" lon="12.190073988866478"><ele>-3.9999999999999996</ele><time>2026-05-02T14:17:15Z</time></trkpt><trkpt lat="44.82968372485043" lon="12.189967623626902"><ele>-4.0</ele><time>2026-05-02T14:17:17Z</time></trkpt><trkpt lat="44.82971451303016" lon="12.189868033765102"><ele>-4.0</ele><time>2026-05-02T14:17:19Z</time></trkpt><trkpt lat="44.829742025320726" lon="12.189764729196678"><ele>-4.0</ele><time>2026-05-02T14:17:21Z</time></trkpt><trkpt lat="44.829774766939906" lon="12.189653824258707"><ele>-3.9999999999999996</ele><time>2026-05-02T14:17:23Z</time></trkpt><trkpt lat="44.829806399025315" lon="12.189539126241986"><ele>-4.0</ele><time>2026-05-02T14:17:25Z</time></trkpt><trkpt lat="44.82983933998836" lon="12.189422848335113"><ele>-4.0</ele><time>2026-05-02T14:17:27Z</time></trkpt><trkpt lat="44.82987085404724" lon="12.189304934993034"><ele>-4.0</ele><time>2026-05-02T14:17:29Z</time></trkpt><trkpt lat="44.82990441354142" lon="12.18918549227232"><ele>-4.0</ele><time>2026-05-02T14:17:31Z</time></trkpt><trkpt lat="44.82993876472097" lon="12.189061923900322"><ele>-4.0</ele><time>2026-05-02T14:17:33Z</time></trkpt><trkpt lat="44.82997465903936" lon="12.188941912414913"><ele>-4.0</ele><time>2026-05-02T14:17:35Z</time></trkpt><trkpt lat="44.83000795163412" lon="12.188818847183985"><ele>-3.9999999999999996</ele><time>2026-05-02T14:17:37Z</time></trkpt><trkpt lat="44.83004086032494" lon="12.18869936860696"><ele>-4.0</ele><time>2026-05-02T14:17:39Z</time></trkpt><trkpt lat="44.83007292330525" lon="12.188579443725375"><ele>-4.0</ele><time>2026-05-02T14:17:41Z</time></trkpt><trkpt lat="44.83010235829598" lon="12.188466446259541"><ele>-4.0</ele><time>2026-05-02T14:17:43Z</time></trkpt><trkpt lat="44.830132502894614" lon="12.188356710686486"><ele>-3.9999999999999996</ele><time>2026-05-02T14:17:45Z</time></trkpt><trkpt lat="44.83016179637217" lon="12.188246561635264"><ele>-4.0</ele><time>2026-05-02T14:17:47Z</time></trkpt><trkpt lat="44.830194493865015" lon="12.188131852725167"><ele>-4.0</ele><time>2026-05-02T14:17:49Z</time></trkpt><trkpt lat="44.830229865841844" lon="12.188007804506555"><ele>-4.0</ele><time>2026-05-02T14:17:51Z</time></trkpt><trkpt lat="44.83025719566759" lon="12.18788779274244"><ele>-4.0</ele><time>2026-05-02T14:17:53Z</time></trkpt><trkpt lat="44.83029455139292" lon="12.18777246865397"><ele>-4.0</ele><time>2026-05-02T14:17:55Z</time></trkpt><trkpt lat="44.83032360091642" lon="12.187652129597058"><ele>-4.0</ele><time>2026-05-02T14:17:57Z</time></trkpt><trkpt lat="44.83035585367301" lon="12.187533804965732"><ele>-4.0</ele><time>2026-05-02T14:17:59Z</time></trkpt><trkpt lat="44.830389628484554" lon="12.187416015339181"><ele>-4.0</ele><time>2026-05-02T14:18:01Z</time></trkpt><trkpt lat="44.83042331528081" lon="12.187293948447381"><ele>-4.0</ele><time>2026-05-02T14:18:03Z</time></trkpt><trkpt lat="44.8304601363677" lon="12.187175137394842"><ele>-4.0</ele><time>2026-05-02T14:18:05Z</time></trkpt><trkpt lat="44.83049267974267" lon="12.187060302399349"><ele>-4.0</ele><time>2026-05-02T14:18:07Z</time></trkpt><trkpt lat="44.830526165979755" lon="12.186940928525516"><ele>-4.0</ele><time>2026-05-02T14:18:08.999Z</time></trkpt><trkpt lat="44.830558706879124" lon="12.186821366070024"><ele>-4.0</ele><time>2026-05-02T14:18:10.999Z</time></trkpt><trkpt lat="44.83059327187867" lon="12.186697996302666"><ele>-4.0</ele><time>2026-05-02T14:18:12.999Z</time></trkpt><trkpt lat="44.830627407819435" lon="12.186573740924777"><ele>-4.0</ele><time>2026-05-02T14:18:14.999Z</time></trkpt><trkpt lat="44.83066117093937" lon="12.186451508240921"><ele>-4.0</ele><time>2026-05-02T14:18:16.999Z</time></trkpt><trkpt lat="44.830695931748195" lon="12.186328249194515"><ele>-4.0</ele><time>2026-05-02T14:18:18.999Z</time></trkpt><trkpt lat="44.830728818135306" lon="12.186205130849086"><ele>-4.0</ele><time>2026-05-02T14:18:20.999Z</time></trkpt><trkpt lat="44.830767323184965" lon="12.186083047948102"><ele>-4.0</ele><time>2026-05-02T14:18:22.999Z</time></trkpt><trkpt lat="44.830801622148996" lon="12.185957871911596"><ele>-4.0</ele><time>2026-05-02T14:18:25Z</time></trkpt><trkpt lat="44.83083741229629" lon="12.1858285522686"><ele>-4.0</ele><time>2026-05-02T14:18:27Z</time></trkpt><trkpt lat="44.83086896133053" lon="12.185708130550312"><ele>-4.0</ele><time>2026-05-02T14:18:29Z</time></trkpt><trkpt lat="44.830903447782084" lon="12.185589994848346"><ele>-4.0</ele><time>2026-05-02T14:18:31Z</time></trkpt><trkpt lat="44.83093313522364" lon="12.1854657732789"><ele>-4.0</ele><time>2026-05-02T14:18:33Z</time></trkpt><trkpt lat="44.83097296501781" lon="12.185340298445592"><ele>-4.0</ele><time>2026-05-02T14:18:35Z</time></trkpt><trkpt lat="44.83100270853535" lon="12.185214649609069"><ele>-4.0</ele><time>2026-05-02T14:18:37Z</time></trkpt><trkpt lat="44.83103650213524" lon="12.185094771430268"><ele>-4.166666666666666</ele><time>2026-05-02T14:18:39Z</time></trkpt><trkpt lat="44.83107233481896" lon="12.184978840465597"><ele>-4.333333333333333</ele><time>2026-05-02T14:18:41Z</time></trkpt><trkpt lat="44.83110466309929" lon="12.18486571591424"><ele>-4.5</ele><time>2026-05-02T14:18:43Z</time></trkpt><trkpt lat="44.831132827650706" lon="12.184753945201976"><ele>-4.666666666666667</ele><time>2026-05-02T14:18:45Z</time></trkpt><trkpt lat="44.83116501893598" lon="12.184642360022542"><ele>-4.833333333333334</ele><time>2026-05-02T14:18:47Z</time></trkpt><trkpt lat="44.83119461462204" lon="12.184523260895645"><ele>-5.0</ele><time>2026-05-02T14:18:49Z</time></trkpt><trkpt lat="44.83122638886652" lon="12.184401427239983"><ele>-4.833333333333334</ele><time>2026-05-02T14:18:51Z</time></trkpt><trkpt lat="44.83126114305891" lon="12.184276088759487"><ele>-4.666666666666667</ele><time>2026-05-02T14:18:53Z</time></trkpt><trkpt lat="44.83129001708074" lon="12.184153684560629"><ele>-4.5</ele><time>2026-05-02T14:18:55Z</time></trkpt><trkpt lat="44.831317534344755" lon="12.184037032029336"><ele>-4.333333333333333</ele><time>2026-05-02T14:18:57Z</time></trkpt><trkpt lat="44.831342622938855" lon="12.183924024340708"><ele>-4.166666666666666</ele><time>2026-05-02T14:18:59Z</time></trkpt><trkpt lat="44.83137820320314" lon="12.183821349958963"><ele>-4.0</ele><time>2026-05-02T14:19:01Z</time></trkpt><trkpt lat="44.83141131672917" lon="12.183714593922007"><ele>-4.0</ele><time>2026-05-02T14:19:03Z</time></trkpt><trkpt lat="44.83143825848932" lon="12.183613558626778"><ele>-3.9999999999999996</ele><time>2026-05-02T14:19:05Z</time></trkpt><trkpt lat="44.83146573611276" lon="12.183519072672796"><ele>-4.0</ele><time>2026-05-02T14:19:07Z</time></trkpt><trkpt lat="44.831498773223444" lon="12.183435152301463"><ele>-4.0</ele><time>2026-05-02T14:19:09Z</time></trkpt><trkpt lat="44.83151021065925" lon="12.183336775921703"><ele>-3.9999999999999996</ele><time>2026-05-02T14:19:12Z</time></trkpt><trkpt lat="44.831540472605035" lon="12.183244299645576"><ele>-4.0</ele><time>2026-05-02T14:19:14Z</time></trkpt><trkpt lat="44.83156750724802" lon="12.183146925301095"><ele>-4.0</ele><time>2026-05-02T14:19:16Z</time></trkpt><trkpt lat="44.83159375486689" lon="12.183056769873525"><ele>-3.9999999999999996</ele><time>2026-05-02T14:19:18Z</time></trkpt><trkpt lat="44.83161579549211" lon="12.182969939708673"><ele>-4.0</ele><time>2026-05-02T14:19:20Z</time></trkpt><trkpt lat="44.83164514982462" lon="12.1828518502083"><ele>-4.0</ele><time>2026-05-02T14:19:23Z</time></trkpt><trkpt lat="44.83166609213024" lon="12.18276740707453"><ele>-4.0</ele><time>2026-05-02T14:19:25Z</time></trkpt><trkpt lat="44.83169484221849" lon="12.18265553249379"><ele>-3.9999999999999996</ele><time>2026-05-02T14:19:27Z</time></trkpt><trkpt lat="44.83172099472131" lon="12.182547235942318"><ele>-4.0</ele><time>2026-05-02T14:19:29Z</time></trkpt><trkpt lat="44.831755399069735" lon="12.182449575969919"><ele>-3.9999999999999996</ele><time>2026-05-02T14:19:31Z</time></trkpt><trkpt lat="44.83178383852501" lon="12.18234900579266"><ele>-4.0</ele><time>2026-05-02T14:19:33Z</time></trkpt><trkpt lat="44.831812189730236" lon="12.18225135902656"><ele>-4.0</ele><time>2026-05-02T14:19:35Z</time></trkpt><trkpt lat="44.83183052232661" lon="12.182148257757959"><ele>-4.0</ele><time>2026-05-02T14:19:37Z</time></trkpt><trkpt lat="44.831861715544356" lon="12.182037736986528"><ele>-3.9999999999999996</ele><time>2026-05-02T14:19:39Z</time></trkpt><trkpt lat="44.83189902739794" lon="12.181935957837785"><ele>-4.0</ele><time>2026-05-02T14:19:41Z</time></trkpt><trkpt lat="44.83193082529001" lon="12.181833662047824"><ele>-4.166666666666666</ele><time>2026-05-02T14:19:43Z</time></trkpt><trkpt lat="44.831962747732824" lon="12.181738294067005"><ele>-4.333333333333333</ele><time>2026-05-02T14:19:45Z</time></trkpt><trkpt lat="44.83198567765165" lon="12.181624964608192"><ele>-4.5</ele><time>2026-05-02T14:19:47Z</time></trkpt><trkpt lat="44.83201437150625" lon="12.18150733649879"><ele>-4.666666666666667</ele><time>2026-05-02T14:19:49Z</time></trkpt><trkpt lat="44.832045383143026" lon="12.181391000884293"><ele>-4.833333333333334</ele><time>2026-05-02T14:19:51Z</time></trkpt><trkpt lat="44.83207422619295" lon="12.181269561689403"><ele>-5.0</ele><time>2026-05-02T14:19:53Z</time></trkpt><trkpt lat="44.832103656462735" lon="12.181154236501891"><ele>-5.0</ele><time>2026-05-02T14:19:55Z</time></trkpt><trkpt lat="44.83213441491603" lon="12.181046186561192"><ele>-5.0</ele><time>2026-05-02T14:19:57Z</time></trkpt><trkpt lat="44.83216262654574" lon="12.180942752181043"><ele>-5.0</ele><time>2026-05-02T14:19:59Z</time></trkpt><trkpt lat="44.83219504243605" lon="12.180844862403662"><ele>-5.0</ele><time>2026-05-02T14:20:01Z</time></trkpt><trkpt lat="44.83222365584052" lon="12.18074760419158"><ele>-5.0</ele><time>2026-05-02T14:20:03Z</time></trkpt><trkpt lat="44.83224939906041" lon="12.180638628291243"><ele>-5.0</ele><time>2026-05-02T14:20:05Z</time></trkpt><trkpt lat="44.83227849932969" lon="12.180533331530903"><ele>-4.833333333333334</ele><time>2026-05-02T14:20:07Z</time></trkpt><trkpt lat="44.83230577254467" lon="12.180431077359057"><ele>-4.666666666666667</ele><time>2026-05-02T14:20:09Z</time></trkpt><trkpt lat="44.83232730123369" lon="12.180330813197017"><ele>-4.5</ele><time>2026-05-02T14:20:11Z</time></trkpt><trkpt lat="44.83236725721189" lon="12.18022695365465"><ele>-4.333333333333333</ele><time>2026-05-02T14:20:13Z</time></trkpt><trkpt lat="44.83239843867827" lon="12.18011784546897"><ele>-4.166666666666666</ele><time>2026-05-02T14:20:15Z</time></trkpt><trkpt lat="44.832426649036435" lon="12.180011230218453"><ele>-4.0</ele><time>2026-05-02T14:20:17Z</time></trkpt><trkpt lat="44.83245543915925" lon="12.17990950387385"><ele>-3.8571428571428568</ele><time>2026-05-02T14:20:18.999Z</time></trkpt><trkpt lat="44.832474623451816" lon="12.179809906470783"><ele>-3.714285714285714</ele><time>2026-05-02T14:20:20.999Z</time></trkpt><trkpt lat="44.83250255299005" lon="12.179716858049664"><ele>-3.571428571428571</ele><time>2026-05-02T14:20:22.999Z</time></trkpt><trkpt lat="44.83253426824974" lon="12.179631851303512"><ele>-3.4285714285714284</ele><time>2026-05-02T14:20:24.999Z</time></trkpt><trkpt lat="44.83256140691178" lon="12.17954300700965"><ele>-3.2857142857142856</ele><time>2026-05-02T14:20:26.999Z</time></trkpt><trkpt lat="44.83258617504631" lon="12.179445248370964"><ele>-3.1428571428571423</ele><time>2026-05-02T14:20:28.999Z</time></trkpt><trkpt lat="44.83261028197924" lon="12.179328778327244"><ele>-3.0</ele><time>2026-05-02T14:20:31Z</time></trkpt><trkpt lat="44.83263452687516" lon="12.17922192556753"><ele>-3.1666666666666665</ele><time>2026-05-02T14:20:33Z</time></trkpt><trkpt lat="44.8326602271429" lon="12.179118984379095"><ele>-3.333333333333333</ele><time>2026-05-02T14:20:35Z</time></trkpt><trkpt lat="44.832691913536756" lon="12.179024875681304"><ele>-3.5</ele><time>2026-05-02T14:20:37Z</time></trkpt><trkpt lat="44.83271813821474" lon="12.178914667940312"><ele>-3.6666666666666665</ele><time>2026-05-02T14:20:39Z</time></trkpt><trkpt lat="44.8327258074424" lon="12.17879352580259"><ele>-3.833333333333333</ele><time>2026-05-02T14:20:41Z</time></trkpt><trkpt lat="44.83276209619431" lon="12.178696095894521"><ele>-4.0</ele><time>2026-05-02T14:20:43Z</time></trkpt><trkpt lat="44.8328018978262" lon="12.178596728499874"><ele>-3.9999999999999996</ele><time>2026-05-02T14:20:45Z</time></trkpt><trkpt lat="44.832827053663415" lon="12.178479459185846"><ele>-4.0</ele><time>2026-05-02T14:20:47Z</time></trkpt><trkpt lat="44.83286621806624" lon="12.178372700127651"><ele>-4.0</ele><time>2026-05-02T14:20:49Z</time></trkpt><trkpt lat="44.83289633943952" lon="12.178274671813163"><ele>-4.0</ele><time>2026-05-02T14:20:51Z</time></trkpt><trkpt lat="44.83293117861309" lon="12.178182761259437"><ele>-3.9999999999999996</ele><time>2026-05-02T14:20:53Z</time></trkpt><trkpt lat="44.83295363240216" lon="12.178073117778201"><ele>-4.0</ele><time>2026-05-02T14:20:55Z</time></trkpt><trkpt lat="44.83299176732947" lon="12.177972800402555"><ele>-3.4999999999999996</ele><time>2026-05-02T14:20:57Z</time></trkpt><trkpt lat="44.83300859512153" lon="12.177871399807437"><ele>-3.0</ele><time>2026-05-02T14:20:59Z</time></trkpt><trkpt lat="44.83303421585068" lon="12.17777515257962"><ele>-2.5</ele><time>2026-05-02T14:21:01Z</time></trkpt><trkpt lat="44.8330380024951" lon="12.177664042127361"><ele>-2.0</ele><time>2026-05-02T14:21:03Z</time></trkpt><trkpt lat="44.83306196396582" lon="12.177546898377752"><ele>-1.5</ele><time>2026-05-02T14:21:05Z</time></trkpt><trkpt lat="44.833070132029306" lon="12.177426524095308"><ele>-1.0</ele><time>2026-05-02T14:21:07Z</time></trkpt><trkpt lat="44.833078694785684" lon="12.177311327785088"><ele>-0.8333333333333333</ele><time>2026-05-02T14:21:09Z</time></trkpt><trkpt lat="44.83308236912258" lon="12.177193199613342"><ele>-0.6666666666666666</ele><time>2026-05-02T14:21:11Z</time></trkpt><trkpt lat="44.83310937664488" lon="12.177078808227783"><ele>-0.5</ele><time>2026-05-02T14:21:13Z</time></trkpt><trkpt lat="44.83311635580415" lon="12.176953822173683"><ele>-0.3333333333333333</ele><time>2026-05-02T14:21:15Z</time></trkpt><trkpt lat="44.83312379378449" lon="12.176828657165787"><ele>-0.16666666666666666</ele><time>2026-05-02T14:21:17Z</time></trkpt><trkpt lat="44.83312886271132" lon="12.176706698421826"><ele>0.0</ele><time>2026-05-02T14:21:19Z</time></trkpt><trkpt lat="44.83314238116642" lon="12.176583171668609"><ele>0.16666666666666666</ele><time>2026-05-02T14:21:21Z</time></trkpt><trkpt lat="44.83316411531091" lon="12.17646777963375"><ele>0.3333333333333333</ele><time>2026-05-02T14:21:23Z</time></trkpt><trkpt lat="44.833174574426195" lon="12.17634855069995"><ele>0.5</ele><time>2026-05-02T14:21:25Z</time></trkpt><trkpt lat="44.833186678629005" lon="12.176230779111311"><ele>0.6666666666666666</ele><time>2026-05-02T14:21:27Z</time></trkpt><trkpt lat="44.83319050202386" lon="12.176111785019733"><ele>0.8333333333333333</ele><time>2026-05-02T14:21:29Z</time></trkpt><trkpt lat="44.83320558332154" lon="12.175995450619876"><ele>1.0</ele><time>2026-05-02T14:21:31Z</time></trkpt><trkpt lat="44.83321715554313" lon="12.17588618262183"><ele>0.9999999999999999</ele><time>2026-05-02T14:21:33Z</time></trkpt><trkpt lat="44.83322940844147" lon="12.17576661368336"><ele>1.0</ele><time>2026-05-02T14:21:35Z</time></trkpt><trkpt lat="44.833231786813585" lon="12.175664665423879"><ele>1.0</ele><time>2026-05-02T14:21:37Z</time></trkpt><trkpt lat="44.833233963301986" lon="12.175572790859087"><ele>1.0</ele><time>2026-05-02T14:21:39Z</time></trkpt><trkpt lat="44.8331680971938" lon="12.175476101907606"><ele>0.9999999999999999</ele><time>2026-05-02T14:21:42Z</time></trkpt><trkpt lat="44.83306417886793" lon="12.175458614263686"><ele>1.0</ele><time>2026-05-02T14:21:44Z</time></trkpt><trkpt lat="44.83296992057116" lon="12.175464097096043"><ele>1.0</ele><time>2026-05-02T14:21:46Z</time></trkpt><trkpt lat="44.83288092443314" lon="12.175474610289752"><ele>1.0</ele><time>2026-05-02T14:21:48Z</time></trkpt><trkpt lat="44.832795691017694" lon="12.175499254556213"><ele>1.0</ele><time>2026-05-02T14:21:50Z</time></trkpt><trkpt lat="44.83270336211144" lon="12.175483044862197"><ele>1.0</ele><time>2026-05-02T14:21:52Z</time></trkpt><trkpt lat="44.83261631379672" lon="12.175465823515745"><ele>1.0</ele><time>2026-05-02T14:21:54Z</time></trkpt><trkpt lat="44.83253651283449" lon="12.175399918895508"><ele>1.1666666666666665</ele><time>2026-05-02T14:21:56Z</time></trkpt><trkpt lat="44.83245827728115" lon="12.175347774092375"><ele>1.3333333333333333</ele><time>2026-05-02T14:21:58Z</time></trkpt><trkpt lat="44.8323909118729" lon="12.175339977476618"><ele>1.5</ele><time>2026-05-02T14:22:00Z</time></trkpt><trkpt lat="44.832346424059295" lon="12.175249684648053"><ele>1.6666666666666665</ele><time>2026-05-02T14:22:02Z</time></trkpt><trkpt lat="44.83228310553812" lon="12.175167706734692"><ele>1.8333333333333333</ele><time>2026-05-02T14:22:04Z</time></trkpt><trkpt lat="44.832230427949455" lon="12.175074741423153"><ele>2.0</ele><time>2026-05-02T14:22:06Z</time></trkpt><trkpt lat="44.832177546255544" lon="12.174987163891442"><ele>2.0</ele><time>2026-05-02T14:22:08Z</time></trkpt><trkpt lat="44.832130351276675" lon="12.174903310770588"><ele>1.9999999999999998</ele><time>2026-05-02T14:22:10Z</time></trkpt><trkpt lat="44.83212072434278" lon="12.174800528044686"><ele>2.0</ele><time>2026-05-02T14:22:12Z</time></trkpt><trkpt lat="44.83211552139293" lon="12.174708376207727"><ele>2.0</ele><time>2026-05-02T14:22:14Z</time></trkpt><trkpt lat="44.83211312871714" lon="12.174610131713775"><ele>1.9999999999999998</ele><time>2026-05-02T14:22:16Z</time></trkpt><trkpt lat="44.83214847558556" lon="12.174534911501853"><ele>2.0</ele><time>2026-05-02T14:22:18Z</time></trkpt><trkpt lat="44.832218536506176" lon="12.174533322698673"><ele>2.0</ele><time>2026-05-02T14:22:20Z</time></trkpt><trkpt lat="44.83231302431488" lon="12.174540097478767"><ele>1.6666666666666665</ele><time>2026-05-02T14:22:23Z</time></trkpt><trkpt lat="44.832429120694606" lon="12.174585015566644"><ele>1.3333333333333333</ele><time>2026-05-02T14:22:26Z</time></trkpt><trkpt lat="44.83249684510268" lon="12.174596811531316"><ele>1.0</ele><time>2026-05-02T14:22:28Z</time></trkpt><trkpt lat="44.832571783979155" lon="12.174595234546084"><ele>0.6666666666666666</ele><time>2026-05-02T14:22:30Z</time></trkpt><trkpt lat="44.83263490932376" lon="12.174584694005"><ele>0.3333333333333333</ele><time>2026-05-02T14:22:32Z</time></trkpt><trkpt lat="44.83267818604835" lon="12.174505918651795"><ele>0.0</ele><time>2026-05-02T14:22:36Z</time></trkpt><trkpt lat="44.83261333749615" lon="12.174583474729065"><ele>0.0</ele><time>2026-05-02T14:22:51Z</time></trkpt><trkpt lat="44.83254191891013" lon="12.174591648031226"><ele>0.0</ele><time>2026-05-02T14:22:53Z</time></trkpt><trkpt lat="44.83247952822927" lon="12.174607356610116"><ele>0.0</ele><time>2026-05-02T14:22:55Z</time></trkpt><trkpt lat="44.83240505207431" lon="12.174557029277793"><ele>0.0</ele><time>2026-05-02T14:22:58Z</time></trkpt><trkpt lat="44.83249583337088" lon="12.174596336305733"><ele>0.0</ele><time>2026-05-02T14:23:52Z</time></trkpt><trkpt lat="44.83256547405253" lon="12.174596455251365"><ele>0.0</ele><time>2026-05-02T14:23:54Z</time></trkpt><trkpt lat="44.83265670592065" lon="12.174563227576524"><ele>0.0</ele><time>2026-05-02T14:23:57Z</time></trkpt><trkpt lat="44.83274473664914" lon="12.17453239128027"><ele>0.0</ele><time>2026-05-02T14:24:00Z</time></trkpt><trkpt lat="44.83283004502307" lon="12.174502886657757"><ele>0.0</ele><time>2026-05-02T14:24:03Z</time></trkpt><trkpt lat="44.83291451636228" lon="12.174492840188137"><ele>0.0</ele><time>2026-05-02T14:24:06Z</time></trkpt><trkpt lat="44.83300136180731" lon="12.174491458579284"><ele>0.0</ele><time>2026-05-02T14:24:09Z</time></trkpt><trkpt lat="44.83308244915889" lon="12.174506272843796"><ele>0.0</ele><time>2026-05-02T14:24:12Z</time></trkpt><trkpt lat="44.83315746369307" lon="12.174518142637444"><ele>0.0</ele><time>2026-05-02T14:24:14Z</time></trkpt><trkpt lat="44.83322050827892" lon="12.174528945301988"><ele>0.0</ele><time>2026-05-02T14:24:16Z</time></trkpt><trkpt lat="44.83328612484243" lon="12.174534040702042"><ele>0.0</ele><time>2026-05-02T14:24:18Z</time></trkpt><trkpt lat="44.83337597857834" lon="12.174546777404302"><ele>0.0</ele><time>2026-05-02T14:24:21Z</time></trkpt><trkpt lat="44.83346113613794" lon="12.174565909635612"><ele>0.0</ele><time>2026-05-02T14:24:24Z</time></trkpt><trkpt lat="44.83354615301009" lon="12.174575993284611"><ele>0.0</ele><time>2026-05-02T14:24:27Z</time></trkpt><trkpt lat="44.83362275407183" lon="12.174591304722147"><ele>-0.2857142857142857</ele><time>2026-05-02T14:24:30Z</time></trkpt><trkpt lat="44.83368327001868" lon="12.174617084607112"><ele>-0.5714285714285714</ele><time>2026-05-02T14:24:32Z</time></trkpt><trkpt lat="44.833747198407174" lon="12.174629444793961"><ele>-0.8571428571428571</ele><time>2026-05-02T14:24:34Z</time></trkpt><trkpt lat="44.83381803256726" lon="12.174672786010841"><ele>-1.1428571428571428</ele><time>2026-05-02T14:24:36Z</time></trkpt><trkpt lat="44.833886922924954" lon="12.174711731964745"><ele>-1.4285714285714284</ele><time>2026-05-02T14:24:38Z</time></trkpt><trkpt lat="44.83395337729878" lon="12.174736807618007"><ele>-1.7142857142857142</ele><time>2026-05-02T14:24:40Z</time></trkpt><trkpt lat="44.83401760871313" lon="12.174777238537965"><ele>-2.0</ele><time>2026-05-02T14:24:42Z</time></trkpt><trkpt lat="44.8340815808004" lon="12.174803704466452"><ele>-1.9999999999999998</ele><time>2026-05-02T14:24:44Z</time></trkpt><trkpt lat="44.834166639435864" lon="12.174848984309373"><ele>-2.0</ele><time>2026-05-02T14:24:47Z</time></trkpt><trkpt lat="44.834234425959636" lon="12.174863528735761"><ele>-2.0</ele><time>2026-05-02T14:24:49Z</time></trkpt><trkpt lat="44.83430031804553" lon="12.174892389561746"><ele>-2.0</ele><time>2026-05-02T14:24:51Z</time></trkpt><trkpt lat="44.83437909491428" lon="12.174940190948877"><ele>-1.9999999999999998</ele><time>2026-05-02T14:24:54Z</time></trkpt><trkpt lat="44.834315060615566" lon="12.174950890833138"><ele>-2.0</ele><time>2026-05-02T15:06:03.999Z</time></trkpt><trkpt lat="44.83424277121835" lon="12.17490791347898"><ele>-1.9999999999999998</ele><time>2026-05-02T15:06:07.999Z</time></trkpt><trkpt lat="44.834170126282004" lon="12.174879113932787"><ele>-2.0</ele><time>2026-05-02T15:06:11.999Z</time></trkpt><trkpt lat="44.83410683925777" lon="12.174841105913886"><ele>-2.0</ele><time>2026-05-02T15:06:13.999Z</time></trkpt><trkpt lat="44.83402761900465" lon="12.174817730751242"><ele>-2.0</ele><time>2026-05-02T15:06:17.999Z</time></trkpt><trkpt lat="44.83396220360819" lon="12.174766062310947"><ele>-1.9999999999999998</ele><time>2026-05-02T15:06:21.999Z</time></trkpt><trkpt lat="44.833887903851526" lon="12.174739735370729"><ele>-2.0</ele><time>2026-05-02T15:06:28.999Z</time></trkpt><trkpt lat="44.83381870630206" lon="12.174700226358478"><ele>-1.9999999999999998</ele><time>2026-05-02T15:06:31.999Z</time></trkpt><trkpt lat="44.83374296555032" lon="12.174668241867572"><ele>-2.0</ele><time>2026-05-02T15:06:34.999Z</time></trkpt><trkpt lat="44.83367272663732" lon="12.17463956497371"><ele>-2.0</ele><time>2026-05-02T15:06:37.999Z</time></trkpt><trkpt lat="44.83357992339005" lon="12.174605183965669"><ele>-2.0</ele><time>2026-05-02T15:06:41Z</time></trkpt><trkpt lat="44.833517876891044" lon="12.174579256544952"><ele>-1.9999999999999998</ele><time>2026-05-02T15:06:43Z</time></trkpt><trkpt lat="44.83344158490332" lon="12.174564662195982"><ele>-2.0</ele><time>2026-05-02T15:06:45Z</time></trkpt><trkpt lat="44.83336172775165" lon="12.174549593019488"><ele>-1.6666666666666665</ele><time>2026-05-02T15:06:47Z</time></trkpt><trkpt lat="44.833290429649544" lon="12.17454054897334"><ele>-1.3333333333333333</ele><time>2026-05-02T15:06:49Z</time></trkpt><trkpt lat="44.83322283356255" lon="12.174525935106425"><ele>-1.0</ele><time>2026-05-02T15:06:51Z</time></trkpt><trkpt lat="44.83315511155247" lon="12.174521678631718"><ele>-0.6666666666666666</ele><time>2026-05-02T15:06:53Z</time></trkpt><trkpt lat="44.833076848968325" lon="12.174516094996047"><ele>-0.3333333333333333</ele><time>2026-05-02T15:06:55Z</time></trkpt><trkpt lat="44.83299245785731" lon="12.174504603031362"><ele>0.0</ele><time>2026-05-02T15:06:57Z</time></trkpt><trkpt lat="44.832907757464916" lon="12.174505370395872"><ele>0.0</ele><time>2026-05-02T15:06:59Z</time></trkpt><trkpt lat="44.8328227045171" lon="12.17452569321717"><ele>0.0</ele><time>2026-05-02T15:07:01Z</time></trkpt><trkpt lat="44.83273969053824" lon="12.17455357576372"><ele>0.0</ele><time>2026-05-02T15:07:03Z</time></trkpt><trkpt lat="44.832656314700465" lon="12.174581826168701"><ele>0.0</ele><time>2026-05-02T15:07:05Z</time></trkpt><trkpt lat="44.83258235061338" lon="12.174616157943621"><ele>0.0</ele><time>2026-05-02T15:07:07Z</time></trkpt><trkpt lat="44.8325104906483" lon="12.174623673853446"><ele>0.0</ele><time>2026-05-02T15:07:09Z</time></trkpt><trkpt lat="44.832403573029154" lon="12.174601134790718"><ele>-0.3333333333333333</ele><time>2026-05-02T15:07:12Z</time></trkpt><trkpt lat="44.832333793413625" lon="12.174573157787362"><ele>-0.6666666666666666</ele><time>2026-05-02T15:07:14Z</time></trkpt><trkpt lat="44.83229324741103" lon="12.174498710395754"><ele>-1.0</ele><time>2026-05-02T15:07:16Z</time></trkpt><trkpt lat="44.83231302169264" lon="12.174390750455832"><ele>-1.3333333333333333</ele><time>2026-05-02T15:07:18Z</time></trkpt><trkpt lat="44.83230676543158" lon="12.174285768804664"><ele>-1.6666666666666665</ele><time>2026-05-02T15:07:20Z</time></trkpt><trkpt lat="44.83229544192901" lon="12.17416344467249"><ele>-2.0</ele><time>2026-05-02T15:07:22Z</time></trkpt><trkpt lat="44.83226697209539" lon="12.17400525973625"><ele>-2.1666666666666665</ele><time>2026-05-02T15:07:24Z</time></trkpt><trkpt lat="44.83223720153719" lon="12.173919915125271"><ele>-2.333333333333333</ele><time>2026-05-02T15:07:25Z</time></trkpt><trkpt lat="44.83218598125041" lon="12.17376220269304"><ele>-2.5</ele><time>2026-05-02T15:07:27Z</time></trkpt><trkpt lat="44.83215500746678" lon="12.173667930313847"><ele>-2.6666666666666665</ele><time>2026-05-02T15:07:28Z</time></trkpt><trkpt lat="44.83211438604143" lon="12.173516479529617"><ele>-2.8333333333333335</ele><time>2026-05-02T15:07:30Z</time></trkpt><trkpt lat="44.83210222114632" lon="12.173419660408817"><ele>-3.0</ele><time>2026-05-02T15:07:32Z</time></trkpt><trkpt lat="44.8321004119787" lon="12.17332815421467"><ele>-3.0</ele><time>2026-05-02T15:07:34Z</time></trkpt><trkpt lat="44.83210885167526" lon="12.173231735621169"><ele>-3.0</ele><time>2026-05-02T15:07:36Z</time></trkpt><trkpt lat="44.83210270038472" lon="12.173110535882643"><ele>-3.0</ele><time>2026-05-02T15:07:38Z</time></trkpt><trkpt lat="44.83210271476751" lon="12.172990959367047"><ele>-3.0</ele><time>2026-05-02T15:07:39.999Z</time></trkpt><trkpt lat="44.832106947264414" lon="12.172873977268225"><ele>-3.0</ele><time>2026-05-02T15:07:41.999Z</time></trkpt><trkpt lat="44.832113029584036" lon="12.172768624974616"><ele>-3.0</ele><time>2026-05-02T15:07:43.999Z</time></trkpt><trkpt lat="44.832111846110394" lon="12.172668987077886"><ele>-3.0</ele><time>2026-05-02T15:07:45.999Z</time></trkpt><trkpt lat="44.832106332705116" lon="12.172572849969741"><ele>-3.0</ele><time>2026-05-02T15:07:47.999Z</time></trkpt><trkpt lat="44.83209813998847" lon="12.172475819411943"><ele>-3.0</ele><time>2026-05-02T15:07:49.999Z</time></trkpt><trkpt lat="44.83210118749891" lon="12.172367009050333"><ele>-3.0</ele><time>2026-05-02T15:07:51.999Z</time></trkpt><trkpt lat="44.83209999739982" lon="12.17224855166695"><ele>-3.0</ele><time>2026-05-02T15:07:53.999Z</time></trkpt><trkpt lat="44.8321035487368" lon="12.172135797422309"><ele>-3.0</ele><time>2026-05-02T15:07:55.999Z</time></trkpt><trkpt lat="44.83210173903436" lon="12.172018438041581"><ele>-3.0</ele><time>2026-05-02T15:07:57.999Z</time></trkpt><trkpt lat="44.83210444589474" lon="12.171901737678201"><ele>-3.0</ele><time>2026-05-02T15:07:59.999Z</time></trkpt><trkpt lat="44.83210064029603" lon="12.171784394828073"><ele>-3.0</ele><time>2026-05-02T15:08:01.999Z</time></trkpt><trkpt lat="44.8320920360415" lon="12.171673931019734"><ele>-3.0</ele><time>2026-05-02T15:08:03.999Z</time></trkpt><trkpt lat="44.83209298701478" lon="12.171547761245453"><ele>-3.0</ele><time>2026-05-02T15:08:05.999Z</time></trkpt><trkpt lat="44.83209625601426" lon="12.171414801701713"><ele>-3.0</ele><time>2026-05-02T15:08:07.999Z</time></trkpt><trkpt lat="44.832090508949015" lon="12.171291169633331"><ele>-3.1666666666666665</ele><time>2026-05-02T15:08:09.999Z</time></trkpt><trkpt lat="44.83208909969166" lon="12.171172147464556"><ele>-3.333333333333333</ele><time>2026-05-02T15:08:11.999Z</time></trkpt><trkpt lat="44.83209475241927" lon="12.17105659047243"><ele>-3.5</ele><time>2026-05-02T15:08:13.999Z</time></trkpt><trkpt lat="44.83209250674061" lon="12.170942498441283"><ele>-3.6666666666666665</ele><time>2026-05-02T15:08:15.999Z</time></trkpt><trkpt lat="44.83210224286766" lon="12.17083447096613"><ele>-3.833333333333333</ele><time>2026-05-02T15:08:17.999Z</time></trkpt><trkpt lat="44.832089769819405" lon="12.170721929767039"><ele>-4.0</ele><time>2026-05-02T15:08:19.999Z</time></trkpt><trkpt lat="44.83208478612043" lon="12.170585440126052"><ele>-3.9999999999999996</ele><time>2026-05-02T15:08:21.999Z</time></trkpt><trkpt lat="44.83208932425983" lon="12.170455663886335"><ele>-4.0</ele><time>2026-05-02T15:08:23.999Z</time></trkpt><trkpt lat="44.832093593666485" lon="12.17033595492137"><ele>-4.0</ele><time>2026-05-02T15:08:25.999Z</time></trkpt><trkpt lat="44.83209053201215" lon="12.170221320312747"><ele>-4.0</ele><time>2026-05-02T15:08:27.999Z</time></trkpt><trkpt lat="44.832089216665416" lon="12.170105289308495"><ele>-3.9999999999999996</ele><time>2026-05-02T15:08:29.999Z</time></trkpt><trkpt lat="44.832089093319546" lon="12.169995488742192"><ele>-4.0</ele><time>2026-05-02T15:08:31.999Z</time></trkpt><trkpt lat="44.83208378454724" lon="12.169878441577938"><ele>-4.0</ele><time>2026-05-02T15:08:33.999Z</time></trkpt><trkpt lat="44.83208757225677" lon="12.169754549525395"><ele>-4.0</ele><time>2026-05-02T15:08:35.999Z</time></trkpt><trkpt lat="44.83208789552248" lon="12.169629229646677"><ele>-4.0</ele><time>2026-05-02T15:08:37.999Z</time></trkpt><trkpt lat="44.832083621932846" lon="12.169503253968342"><ele>-4.0</ele><time>2026-05-02T15:08:39.999Z</time></trkpt><trkpt lat="44.8320828451775" lon="12.1693683029012"><ele>-4.0</ele><time>2026-05-02T15:08:41.999Z</time></trkpt><trkpt lat="44.83208174786549" lon="12.169241547167703"><ele>-3.9999999999999996</ele><time>2026-05-02T15:08:43.999Z</time></trkpt><trkpt lat="44.83207745788597" lon="12.169124130776998"><ele>-4.0</ele><time>2026-05-02T15:08:45.999Z</time></trkpt><trkpt lat="44.83207955705521" lon="12.169011437173316"><ele>-4.0</ele><time>2026-05-02T15:08:48Z</time></trkpt><trkpt lat="44.83208006738579" lon="12.168899804697231"><ele>-4.0</ele><time>2026-05-02T15:08:50Z</time></trkpt><trkpt lat="44.83207371077124" lon="12.16879575621461"><ele>-3.9999999999999996</ele><time>2026-05-02T15:08:52Z</time></trkpt><trkpt lat="44.83207782776741" lon="12.168692600169432"><ele>-4.0</ele><time>2026-05-02T15:08:54Z</time></trkpt><trkpt lat="44.832078403918345" lon="12.168597040313157"><ele>-3.833333333333333</ele><time>2026-05-02T15:08:56Z</time></trkpt><trkpt lat="44.83206596380414" lon="12.168503862651265"><ele>-3.6666666666666665</ele><time>2026-05-02T15:08:58Z</time></trkpt><trkpt lat="44.83210583758336" lon="12.168391078889753"><ele>-3.5</ele><time>2026-05-02T15:09:01Z</time></trkpt><trkpt lat="44.83217220443399" lon="12.168370777600533"><ele>-3.333333333333333</ele><time>2026-05-02T15:09:03Z</time></trkpt><trkpt lat="44.832264972000694" lon="12.16833397257228"><ele>-3.1666666666666665</ele><time>2026-05-02T15:09:05Z</time></trkpt><trkpt lat="44.83237195619052" lon="12.168287318292663"><ele>-3.0</ele><time>2026-05-02T15:09:07Z</time></trkpt><trkpt lat="44.832466409943635" lon="12.168262268386577"><ele>-3.0</ele><time>2026-05-02T15:09:09Z</time></trkpt><trkpt lat="44.83255319284675" lon="12.16822300325072"><ele>-3.0</ele><time>2026-05-02T15:09:11Z</time></trkpt><trkpt lat="44.8326384838006" lon="12.168184580611529"><ele>-3.0</ele><time>2026-05-02T15:09:13Z</time></trkpt><trkpt lat="44.83271973137312" lon="12.168148080712301"><ele>-3.0</ele><time>2026-05-02T15:09:15Z</time></trkpt><trkpt lat="44.832811126786346" lon="12.168109726045536"><ele>-3.0</ele><time>2026-05-02T15:09:17Z</time></trkpt><trkpt lat="44.83289947724316" lon="12.168079553691975"><ele>-2.4</ele><time>2026-05-02T15:09:19Z</time></trkpt><trkpt lat="44.832981365567484" lon="12.168047194800295"><ele>-1.7999999999999998</ele><time>2026-05-02T15:09:21Z</time></trkpt><trkpt lat="44.83306706085222" lon="12.168004814267697"><ele>-1.2</ele><time>2026-05-02T15:09:23Z</time></trkpt><trkpt lat="44.83316277844648" lon="12.167972107446236"><ele>-0.6</ele><time>2026-05-02T15:09:25Z</time></trkpt><trkpt lat="44.8332541459241" lon="12.167938955971016"><ele>0.0</ele><time>2026-05-02T15:09:27Z</time></trkpt><trkpt lat="44.83334240335518" lon="12.167900908958993"><ele>0.0</ele><time>2026-05-02T15:09:29Z</time></trkpt><trkpt lat="44.83342594566937" lon="12.167863988222635"><ele>0.0</ele><time>2026-05-02T15:09:31Z</time></trkpt><trkpt lat="44.833510883183514" lon="12.167831554938394"><ele>0.0</ele><time>2026-05-02T15:09:33Z</time></trkpt><trkpt lat="44.83359774473026" lon="12.167798120690696"><ele>0.0</ele><time>2026-05-02T15:09:35Z</time></trkpt><trkpt lat="44.83368186752014" lon="12.167769277901074"><ele>0.0</ele><time>2026-05-02T15:09:37Z</time></trkpt><trkpt lat="44.83375595358963" lon="12.167733078121408"><ele>0.0</ele><time>2026-05-02T15:09:39Z</time></trkpt><trkpt lat="44.83383477981173" lon="12.16769343523029"><ele>-0.16666666666666666</ele><time>2026-05-02T15:09:41Z</time></trkpt><trkpt lat="44.833914856444636" lon="12.167672228202294"><ele>-0.3333333333333333</ele><time>2026-05-02T15:09:42.999Z</time></trkpt><trkpt lat="44.833986114591866" lon="12.167637302241294"><ele>-0.5</ele><time>2026-05-02T15:09:44.999Z</time></trkpt><trkpt lat="44.83405933169167" lon="12.167602006995322"><ele>-0.6666666666666666</ele><time>2026-05-02T15:09:46.999Z</time></trkpt><trkpt lat="44.834126205350344" lon="12.167571834923509"><ele>-0.8333333333333333</ele><time>2026-05-02T15:09:48.999Z</time></trkpt><trkpt lat="44.834198453595214" lon="12.16753723658475"><ele>-1.0</ele><time>2026-05-02T15:09:50.999Z</time></trkpt><trkpt lat="44.83422463436339" lon="12.167443491659151"><ele>-0.9999999999999999</ele><time>2026-05-02T15:09:52.999Z</time></trkpt><trkpt lat="44.83422141984747" lon="12.167324743421956"><ele>-1.0</ele><time>2026-05-02T15:09:54.999Z</time></trkpt><trkpt lat="44.83425316447187" lon="12.167196132857576"><ele>-1.0</ele><time>2026-05-02T15:09:56.999Z</time></trkpt><trkpt lat="44.83426984019906" lon="12.167084462359341"><ele>-1.0</ele><time>2026-05-02T15:09:58.999Z</time></trkpt><trkpt lat="44.834280180444004" lon="12.166979746109655"><ele>-0.9999999999999999</ele><time>2026-05-02T15:10:01.999Z</time></trkpt><trkpt lat="44.83435906454839" lon="12.166945067292222"><ele>-1.0</ele><time>2026-05-02T15:10:22.999Z</time></trkpt><trkpt lat="44.83439476167378" lon="12.166866829991985"><ele>-1.0</ele><time>2026-05-02T15:10:24.999Z</time></trkpt><trkpt lat="44.83444517166905" lon="12.166771581139182"><ele>-1.0</ele><time>2026-05-02T15:10:26.999Z</time></trkpt><trkpt lat="44.83449938995898" lon="12.166678795496738"><ele>-1.0</ele><time>2026-05-02T15:10:28.999Z</time></trkpt><trkpt lat="44.8345203516392" lon="12.166561447130452"><ele>-1.0</ele><time>2026-05-02T15:10:30.999Z</time></trkpt><trkpt lat="44.834536180438946" lon="12.166421261532857"><ele>-1.0</ele><time>2026-05-02T15:10:32.999Z</time></trkpt><trkpt lat="44.834564000982134" lon="12.16627456675261"><ele>-1.2000000000000002</ele><time>2026-05-02T15:10:34.999Z</time></trkpt><trkpt lat="44.834574101047245" lon="12.16612447468278"><ele>-1.4000000000000001</ele><time>2026-05-02T15:10:36.999Z</time></trkpt><trkpt lat="44.834596821104114" lon="12.165973392184435"><ele>-1.6</ele><time>2026-05-02T15:10:38.999Z</time></trkpt><trkpt lat="44.83461559626921" lon="12.165818945810695"><ele>-1.8</ele><time>2026-05-02T15:10:40.999Z</time></trkpt><trkpt lat="44.83464022535336" lon="12.165668191377048"><ele>-2.0</ele><time>2026-05-02T15:10:42.999Z</time></trkpt><trkpt lat="44.834653021429595" lon="12.165515289189553"><ele>-2.2</ele><time>2026-05-02T15:10:44.999Z</time></trkpt><trkpt lat="44.83464856986706" lon="12.165362832523131"><ele>-2.4000000000000004</ele><time>2026-05-02T15:10:46.999Z</time></trkpt><trkpt lat="44.83465219708729" lon="12.165216007381574"><ele>-2.5999999999999996</ele><time>2026-05-02T15:10:48.999Z</time></trkpt><trkpt lat="44.834669762305694" lon="12.165073976950389"><ele>-2.8</ele><time>2026-05-02T15:10:50.999Z</time></trkpt><trkpt lat="44.83467041519079" lon="12.164931226287178"><ele>-3.0</ele><time>2026-05-02T15:10:53Z</time></trkpt><trkpt lat="44.83468314224784" lon="12.164797683359831"><ele>-3.0</ele><time>2026-05-02T15:10:55Z</time></trkpt><trkpt lat="44.83468519537359" lon="12.164670519800763"><ele>-3.0</ele><time>2026-05-02T15:10:57Z</time></trkpt><trkpt lat="44.83470160249674" lon="12.164543879854609"><ele>-3.0</ele><time>2026-05-02T15:10:59Z</time></trkpt><trkpt lat="44.83470008232128" lon="12.164416049848766"><ele>-3.0</ele><time>2026-05-02T15:11:01Z</time></trkpt><trkpt lat="44.83471069156664" lon="12.164281434874196"><ele>-3.0</ele><time>2026-05-02T15:11:03Z</time></trkpt><trkpt lat="44.834716697625915" lon="12.16414454966185"><ele>-2.8</ele><time>2026-05-02T15:11:05Z</time></trkpt><trkpt lat="44.83472041482483" lon="12.164009535728244"><ele>-2.5999999999999996</ele><time>2026-05-02T15:11:07Z</time></trkpt><trkpt lat="44.83473289947881" lon="12.163873388268454"><ele>-2.4000000000000004</ele><time>2026-05-02T15:11:09Z</time></trkpt><trkpt lat="44.83473333484038" lon="12.163738618662663"><ele>-2.2</ele><time>2026-05-02T15:11:11Z</time></trkpt><trkpt lat="44.8347414227054" lon="12.16360278806329"><ele>-2.0</ele><time>2026-05-02T15:11:13Z</time></trkpt><trkpt lat="44.83474664054516" lon="12.163470055835376"><ele>-2.0</ele><time>2026-05-02T15:11:15Z</time></trkpt><trkpt lat="44.8347507414559" lon="12.16333114972773"><ele>-2.0</ele><time>2026-05-02T15:11:17Z</time></trkpt><trkpt lat="44.83476119450651" lon="12.163195832845666"><ele>-2.0</ele><time>2026-05-02T15:11:19Z</time></trkpt><trkpt lat="44.83476695117865" lon="12.163059500832084"><ele>-2.0</ele><time>2026-05-02T15:11:21Z</time></trkpt><trkpt lat="44.83477334266439" lon="12.162922644980672"><ele>-2.0</ele><time>2026-05-02T15:11:23Z</time></trkpt><trkpt lat="44.834778791834026" lon="12.16278801522406"><ele>-2.4000000000000004</ele><time>2026-05-02T15:11:25Z</time></trkpt><trkpt lat="44.83478434818049" lon="12.162651318725056"><ele>-2.8000000000000003</ele><time>2026-05-02T15:11:27Z</time></trkpt><trkpt lat="44.83478874636587" lon="12.162520029298744"><ele>-3.2</ele><time>2026-05-02T15:11:29Z</time></trkpt><trkpt lat="44.83479569136212" lon="12.162380410113668"><ele>-3.6</ele><time>2026-05-02T15:11:31Z</time></trkpt><trkpt lat="44.83479957837111" lon="12.162242436370741"><ele>-4.0</ele><time>2026-05-02T15:11:33Z</time></trkpt><trkpt lat="44.834803401361555" lon="12.16210324658481"><ele>-4.0</ele><time>2026-05-02T15:11:35Z</time></trkpt><trkpt lat="44.834812197334784" lon="12.161961673584733"><ele>-4.0</ele><time>2026-05-02T15:11:37Z</time></trkpt><trkpt lat="44.83482448696752" lon="12.16181786266101"><ele>-4.0</ele><time>2026-05-02T15:11:39Z</time></trkpt><trkpt lat="44.83483144666853" lon="12.161673066636292"><ele>-4.0</ele><time>2026-05-02T15:11:41Z</time></trkpt><trkpt lat="44.83483778252178" lon="12.161532854711714"><ele>-4.0</ele><time>2026-05-02T15:11:43Z</time></trkpt><trkpt lat="44.83484104000734" lon="12.161398571610796"><ele>-3.8000000000000003</ele><time>2026-05-02T15:11:44.999Z</time></trkpt><trkpt lat="44.83484752725076" lon="12.161265634169522"><ele>-3.6000000000000005</ele><time>2026-05-02T15:11:46.999Z</time></trkpt><trkpt lat="44.83484725789677" lon="12.161133908437787"><ele>-3.4</ele><time>2026-05-02T15:11:48.999Z</time></trkpt><trkpt lat="44.834852547091515" lon="12.160997381294472"><ele>-3.2</ele><time>2026-05-02T15:11:50.999Z</time></trkpt><trkpt lat="44.834858180862206" lon="12.160854593221"><ele>-3.0</ele><time>2026-05-02T15:11:52.999Z</time></trkpt><trkpt lat="44.834874707117876" lon="12.160716299167628"><ele>-3.0</ele><time>2026-05-02T15:11:54.999Z</time></trkpt><trkpt lat="44.83488665349979" lon="12.160574862033135"><ele>-3.0</ele><time>2026-05-02T15:11:56.999Z</time></trkpt><trkpt lat="44.83488781934813" lon="12.160435073266841"><ele>-3.0</ele><time>2026-05-02T15:11:58.999Z</time></trkpt><trkpt lat="44.83489487691088" lon="12.160301745505425"><ele>-3.0</ele><time>2026-05-02T15:12:00.999Z</time></trkpt><trkpt lat="44.834905511737574" lon="12.160166155031478"><ele>-3.0</ele><time>2026-05-02T15:12:02.999Z</time></trkpt><trkpt lat="44.83490723633247" lon="12.160024279910079"><ele>-3.0</ele><time>2026-05-02T15:12:04.999Z</time></trkpt><trkpt lat="44.8349163666428" lon="12.159886755854577"><ele>-3.0</ele><time>2026-05-02T15:12:06.999Z</time></trkpt><trkpt lat="44.8349246101094" lon="12.159748339683505"><ele>-3.0</ele><time>2026-05-02T15:12:08.999Z</time></trkpt><trkpt lat="44.834926583316886" lon="12.159613638831448"><ele>-3.0</ele><time>2026-05-02T15:12:10.999Z</time></trkpt><trkpt lat="44.83493395557057" lon="12.159484150300012"><ele>-3.0</ele><time>2026-05-02T15:12:12.999Z</time></trkpt><trkpt lat="44.834940511643914" lon="12.159366583079946"><ele>-3.1666666666666665</ele><time>2026-05-02T15:12:14.999Z</time></trkpt><trkpt lat="44.834943116632466" lon="12.159250772757469"><ele>-3.333333333333333</ele><time>2026-05-02T15:12:16.999Z</time></trkpt><trkpt lat="44.83494968594465" lon="12.159153519626551"><ele>-3.5</ele><time>2026-05-02T15:12:18.999Z</time></trkpt><trkpt lat="44.83495263735662" lon="12.15905061247917"><ele>-3.6666666666666665</ele><time>2026-05-02T15:12:20.999Z</time></trkpt><trkpt lat="44.8349551434423" lon="12.158920442195452"><ele>-3.833333333333333</ele><time>2026-05-02T15:12:22.999Z</time></trkpt><trkpt lat="44.834954505260235" lon="12.15878248305815"><ele>-4.0</ele><time>2026-05-02T15:12:24.999Z</time></trkpt><trkpt lat="44.834962852341185" lon="12.1586303672572"><ele>-4.2</ele><time>2026-05-02T15:12:26.999Z</time></trkpt><trkpt lat="44.834971602357186" lon="12.158483208753944"><ele>-4.4</ele><time>2026-05-02T15:12:28.999Z</time></trkpt><trkpt lat="44.83498188196834" lon="12.15833814346527"><ele>-4.6</ele><time>2026-05-02T15:12:30.999Z</time></trkpt><trkpt lat="44.83499001524081" lon="12.158194536211601"><ele>-4.8</ele><time>2026-05-02T15:12:32.999Z</time></trkpt><trkpt lat="44.834991627117994" lon="12.158055392697252"><ele>-5.0</ele><time>2026-05-02T15:12:34.999Z</time></trkpt><trkpt lat="44.83500170002296" lon="12.157924254549892"><ele>-4.6</ele><time>2026-05-02T15:12:36.999Z</time></trkpt><trkpt lat="44.835000287174154" lon="12.157792295196916"><ele>-4.2</ele><time>2026-05-02T15:12:38.999Z</time></trkpt><trkpt lat="44.83501023813927" lon="12.157662603285724"><ele>-3.8</ele><time>2026-05-02T15:12:40.999Z</time></trkpt><trkpt lat="44.8350168485243" lon="12.157536718443406"><ele>-3.4</ele><time>2026-05-02T15:12:42.999Z</time></trkpt><trkpt lat="44.83502677517033" lon="12.157413429685192"><ele>-3.0</ele><time>2026-05-02T15:12:44.999Z</time></trkpt><trkpt lat="44.83503315157142" lon="12.157284328866112"><ele>-3.0</ele><time>2026-05-02T15:12:46.999Z</time></trkpt><trkpt lat="44.83503637280056" lon="12.157145282713628"><ele>-3.0</ele><time>2026-05-02T15:12:48.999Z</time></trkpt><trkpt lat="44.83504256443896" lon="12.15700812297425"><ele>-3.0</ele><time>2026-05-02T15:12:50.999Z</time></trkpt><trkpt lat="44.835047756562155" lon="12.156875028431068"><ele>-3.0</ele><time>2026-05-02T15:12:52.999Z</time></trkpt><trkpt lat="44.83505326091602" lon="12.156746685385215"><ele>-3.0</ele><time>2026-05-02T15:12:54.999Z</time></trkpt><trkpt lat="44.83506080240989" lon="12.156618750289873"><ele>-3.0</ele><time>2026-05-02T15:12:56.999Z</time></trkpt><trkpt lat="44.83506589062695" lon="12.15649714842125"><ele>-3.0</ele><time>2026-05-02T15:12:59Z</time></trkpt><trkpt lat="44.8350727832619" lon="12.156389308499485"><ele>-3.0</ele><time>2026-05-02T15:13:01Z</time></trkpt><trkpt lat="44.835080194026425" lon="12.156296606568342"><ele>-3.0</ele><time>2026-05-02T15:13:03Z</time></trkpt><trkpt lat="44.835086348291505" lon="12.156177435390555"><ele>-3.0</ele><time>2026-05-02T15:13:05Z</time></trkpt><trkpt lat="44.835094890692005" lon="12.156050175241377"><ele>-3.0</ele><time>2026-05-02T15:13:07Z</time></trkpt><trkpt lat="44.83510435046641" lon="12.155916676605383"><ele>-3.0</ele><time>2026-05-02T15:13:09Z</time></trkpt><trkpt lat="44.83511073421416" lon="12.155786242578927"><ele>-3.0</ele><time>2026-05-02T15:13:11Z</time></trkpt><trkpt lat="44.83511834667932" lon="12.155655138815492"><ele>-3.0</ele><time>2026-05-02T15:13:13Z</time></trkpt><trkpt lat="44.83512434934644" lon="12.155526814291987"><ele>-3.0</ele><time>2026-05-02T15:13:15Z</time></trkpt><trkpt lat="44.83512893161646" lon="12.155403475577273"><ele>-3.0</ele><time>2026-05-02T15:13:17Z</time></trkpt><trkpt lat="44.83513799523918" lon="12.155274641684503"><ele>-2.8</ele><time>2026-05-02T15:13:19Z</time></trkpt><trkpt lat="44.835138324706605" lon="12.155137189054583"><ele>-2.5999999999999996</ele><time>2026-05-02T15:13:21Z</time></trkpt><trkpt lat="44.83514407921367" lon="12.15500094924385"><ele>-2.4000000000000004</ele><time>2026-05-02T15:13:23Z</time></trkpt><trkpt lat="44.835146351990666" lon="12.154864602640735"><ele>-2.2</ele><time>2026-05-02T15:13:25Z</time></trkpt><trkpt lat="44.835150712807454" lon="12.154726367181205"><ele>-2.0</ele><time>2026-05-02T15:13:27Z</time></trkpt><trkpt lat="44.8351442442231" lon="12.15458617948119"><ele>-2.0</ele><time>2026-05-02T15:13:29Z</time></trkpt><trkpt lat="44.83515231753991" lon="12.15445230967125"><ele>-2.0</ele><time>2026-05-02T15:13:31Z</time></trkpt><trkpt lat="44.83516309676638" lon="12.15432618215388"><ele>-2.0</ele><time>2026-05-02T15:13:33Z</time></trkpt><trkpt lat="44.8351679500877" lon="12.154195964757958"><ele>-2.0</ele><time>2026-05-02T15:13:35Z</time></trkpt><trkpt lat="44.83519255257395" lon="12.154076681599147"><ele>-2.0</ele><time>2026-05-02T15:13:37Z</time></trkpt><trkpt lat="44.83520515522146" lon="12.153956947127769"><ele>-1.8333333333333333</ele><time>2026-05-02T15:13:39Z</time></trkpt><trkpt lat="44.83520722424165" lon="12.153839427513814"><ele>-1.6666666666666665</ele><time>2026-05-02T15:13:41Z</time></trkpt><trkpt lat="44.83519815222446" lon="12.153741772908235"><ele>-1.5</ele><time>2026-05-02T15:13:43Z</time></trkpt><trkpt lat="44.83520398435152" lon="12.15362844567184"><ele>-1.3333333333333333</ele><time>2026-05-02T15:13:45Z</time></trkpt><trkpt lat="44.835201010122965" lon="12.153526274482529"><ele>-1.1666666666666665</ele><time>2026-05-02T15:13:47Z</time></trkpt><trkpt lat="44.83519422468561" lon="12.15340579300892"><ele>-1.0</ele><time>2026-05-02T15:13:49Z</time></trkpt><trkpt lat="44.835205296405455" lon="12.15328611623384"><ele>-0.8333333333333333</ele><time>2026-05-02T15:13:51Z</time></trkpt><trkpt lat="44.83524501597052" lon="12.15318394910929"><ele>-0.6666666666666666</ele><time>2026-05-02T15:13:53Z</time></trkpt><trkpt lat="44.835271288837816" lon="12.153069832069527"><ele>-0.5</ele><time>2026-05-02T15:13:55Z</time></trkpt><trkpt lat="44.83529757110519" lon="12.152952015772414"><ele>-0.3333333333333333</ele><time>2026-05-02T15:13:57Z</time></trkpt><trkpt lat="44.83532849504796" lon="12.15282084329138"><ele>-0.16666666666666666</ele><time>2026-05-02T15:13:59Z</time></trkpt><trkpt lat="44.83535006812517" lon="12.152696063682285"><ele>0.0</ele><time>2026-05-02T15:14:00.999Z</time></trkpt><trkpt lat="44.83535821984932" lon="12.152574104816502"><ele>0.0</ele><time>2026-05-02T15:14:03.999Z</time></trkpt><trkpt lat="44.83537312468254" lon="12.152460116935194"><ele>0.0</ele><time>2026-05-02T15:14:06.999Z</time></trkpt><trkpt lat="44.83536457729001" lon="12.152350848393167"><ele>0.0</ele><time>2026-05-02T15:14:08.999Z</time></trkpt><trkpt lat="44.83533980639544" lon="12.152218826774899"><ele>0.0</ele><time>2026-05-02T15:14:10.999Z</time></trkpt><trkpt lat="44.8353157359478" lon="12.152096861057771"><ele>0.0</ele><time>2026-05-02T15:14:12.999Z</time></trkpt><trkpt lat="44.835294019487485" lon="12.151962251594886"><ele>0.0</ele><time>2026-05-02T15:14:14.999Z</time></trkpt><trkpt lat="44.835307600922256" lon="12.15183330560416"><ele>-0.2</ele><time>2026-05-02T15:14:16.999Z</time></trkpt><trkpt lat="44.83531892451423" lon="12.151706895711987"><ele>-0.4</ele><time>2026-05-02T15:14:18.999Z</time></trkpt><trkpt lat="44.835339541943775" lon="12.151571865462008"><ele>-0.6000000000000001</ele><time>2026-05-02T15:14:20.999Z</time></trkpt><trkpt lat="44.83534641146929" lon="12.151437133551658"><ele>-0.8</ele><time>2026-05-02T15:14:22.999Z</time></trkpt><trkpt lat="44.835354947176874" lon="12.15131062740075"><ele>-1.0</ele><time>2026-05-02T15:14:24.999Z</time></trkpt><trkpt lat="44.83536442423916" lon="12.151174406999846"><ele>-1.0</ele><time>2026-05-02T15:14:26.999Z</time></trkpt><trkpt lat="44.835369119011624" lon="12.151037898216547"><ele>-1.0</ele><time>2026-05-02T15:14:28.999Z</time></trkpt><trkpt lat="44.835380491719434" lon="12.150908933332158"><ele>-1.0</ele><time>2026-05-02T15:14:30.999Z</time></trkpt><trkpt lat="44.83538602160813" lon="12.150780112026514"><ele>-1.0</ele><time>2026-05-02T15:14:32.999Z</time></trkpt><trkpt lat="44.8353943374984" lon="12.150656316852528"><ele>-1.0</ele><time>2026-05-02T15:14:34.999Z</time></trkpt><trkpt lat="44.8354030430751" lon="12.150528937812972"><ele>-1.0</ele><time>2026-05-02T15:14:36.999Z</time></trkpt><trkpt lat="44.83540947072615" lon="12.150395909729271"><ele>-1.0</ele><time>2026-05-02T15:14:38.999Z</time></trkpt><trkpt lat="44.83541919375019" lon="12.150271109787179"><ele>-1.0</ele><time>2026-05-02T15:14:40.999Z</time></trkpt><trkpt lat="44.83542723863161" lon="12.150144602154352"><ele>-1.0</ele><time>2026-05-02T15:14:42.999Z</time></trkpt><trkpt lat="44.83543628781155" lon="12.150017453707544"><ele>-1.0</ele><time>2026-05-02T15:14:44.999Z</time></trkpt><trkpt lat="44.835442543880866" lon="12.149886745459211"><ele>-1.2000000000000002</ele><time>2026-05-02T15:14:46.999Z</time></trkpt><trkpt lat="44.835448144396295" lon="12.149759269105104"><ele>-1.4000000000000001</ele><time>2026-05-02T15:14:48.999Z</time></trkpt><trkpt lat="44.83544688772771" lon="12.14962917405393"><ele>-1.6</ele><time>2026-05-02T15:14:50.999Z</time></trkpt><trkpt lat="44.8354565413043" lon="12.14950507134355"><ele>-1.8</ele><time>2026-05-02T15:14:52.999Z</time></trkpt><trkpt lat="44.83547278872026" lon="12.149378865241212"><ele>-2.0</ele><time>2026-05-02T15:14:54.999Z</time></trkpt><trkpt lat="44.83548327238194" lon="12.14925464960804"><ele>-1.9999999999999998</ele><time>2026-05-02T15:14:56.999Z</time></trkpt><trkpt lat="44.83549372498551" lon="12.149134227639022"><ele>-2.0</ele><time>2026-05-02T15:14:58.999Z</time></trkpt><trkpt lat="44.83549633987046" lon="12.149010716248897"><ele>-2.0</ele><time>2026-05-02T15:15:00.999Z</time></trkpt><trkpt lat="44.835504500952126" lon="12.148889231148123"><ele>-2.0</ele><time>2026-05-02T15:15:02.999Z</time></trkpt><trkpt lat="44.83551367862191" lon="12.148755473309548"><ele>-1.9999999999999998</ele><time>2026-05-02T15:15:05Z</time></trkpt><trkpt lat="44.83552179415724" lon="12.148632533594999"><ele>-2.0</ele><time>2026-05-02T15:15:07Z</time></trkpt><trkpt lat="44.83552180106184" lon="12.148496806986277"><ele>-1.9999999999999998</ele><time>2026-05-02T15:15:09Z</time></trkpt><trkpt lat="44.83553302169509" lon="12.14837083487766"><ele>-2.0</ele><time>2026-05-02T15:15:11Z</time></trkpt><trkpt lat="44.83552521754394" lon="12.14825607301543"><ele>-2.0</ele><time>2026-05-02T15:15:13Z</time></trkpt><trkpt lat="44.8354650103731" lon="12.148113675901952"><ele>-2.0</ele><time>2026-05-02T15:15:16Z</time></trkpt><trkpt lat="44.83545480323414" lon="12.148006007208714"><ele>-1.9999999999999998</ele><time>2026-05-02T15:15:18Z</time></trkpt><trkpt lat="44.83545953258134" lon="12.147889114471806"><ele>-2.0</ele><time>2026-05-02T15:15:20Z</time></trkpt><trkpt lat="44.83545331337282" lon="12.147768421737744"><ele>-1.8</ele><time>2026-05-02T15:15:22Z</time></trkpt><trkpt lat="44.83545532183079" lon="12.147640983735444"><ele>-1.6</ele><time>2026-05-02T15:15:24Z</time></trkpt><trkpt lat="44.83546770253949" lon="12.14750895894494"><ele>-1.4000000000000001</ele><time>2026-05-02T15:15:26Z</time></trkpt><trkpt lat="44.8354704119289" lon="12.147373791261234"><ele>-1.2000000000000002</ele><time>2026-05-02T15:15:28Z</time></trkpt><trkpt lat="44.83548681778084" lon="12.147248993717252"><ele>-1.0</ele><time>2026-05-02T15:15:30Z</time></trkpt><trkpt lat="44.83548853693325" lon="12.147119458650968"><ele>-1.4</ele><time>2026-05-02T15:15:32Z</time></trkpt><trkpt lat="44.8355046601264" lon="12.147000183861243"><ele>-1.8</ele><time>2026-05-02T15:15:34Z</time></trkpt><trkpt lat="44.835498068159126" lon="12.14688087465024"><ele>-2.1999999999999997</ele><time>2026-05-02T15:15:36Z</time></trkpt><trkpt lat="44.835504660795024" lon="12.14675932863191"><ele>-2.6</ele><time>2026-05-02T15:15:38Z</time></trkpt><trkpt lat="44.83553130559028" lon="12.14663253797342"><ele>-3.0</ele><time>2026-05-02T15:15:40Z</time></trkpt><trkpt lat="44.835534786623725" lon="12.14648854821214"><ele>-3.0</ele><time>2026-05-02T15:15:42Z</time></trkpt><trkpt lat="44.83553927387261" lon="12.146347379299481"><ele>-3.0</ele><time>2026-05-02T15:15:44Z</time></trkpt><trkpt lat="44.83555166374925" lon="12.146212562172275"><ele>-3.0</ele><time>2026-05-02T15:15:46Z</time></trkpt><trkpt lat="44.83555488292166" lon="12.146080817237808"><ele>-3.0</ele><time>2026-05-02T15:15:48Z</time></trkpt><trkpt lat="44.835563375459486" lon="12.145948319364207"><ele>-3.0</ele><time>2026-05-02T15:15:50Z</time></trkpt><trkpt lat="44.8355649848101" lon="12.145816234168548"><ele>-3.0</ele><time>2026-05-02T15:15:52Z</time></trkpt><trkpt lat="44.83555715918661" lon="12.145687474617597"><ele>-3.0</ele><time>2026-05-02T15:15:54Z</time></trkpt><trkpt lat="44.835576042119484" lon="12.145559528454736"><ele>-3.0</ele><time>2026-05-02T15:15:56Z</time></trkpt><trkpt lat="44.83557973235767" lon="12.1454405330722"><ele>-3.0</ele><time>2026-05-02T15:15:58Z</time></trkpt><trkpt lat="44.83558307289359" lon="12.145323299886186"><ele>-3.0</ele><time>2026-05-02T15:16:00Z</time></trkpt><trkpt lat="44.835583938242266" lon="12.145204422576322"><ele>-3.0</ele><time>2026-05-02T15:16:02Z</time></trkpt><trkpt lat="44.83559225293786" lon="12.145089018121356"><ele>-3.0</ele><time>2026-05-02T15:16:04Z</time></trkpt><trkpt lat="44.83560124473192" lon="12.144974601489546"><ele>-3.0</ele><time>2026-05-02T15:16:06Z</time></trkpt><trkpt lat="44.83560749940112" lon="12.14485222367319"><ele>-3.0</ele><time>2026-05-02T15:16:08Z</time></trkpt><trkpt lat="44.835614093301416" lon="12.144728032369075"><ele>-3.0</ele><time>2026-05-02T15:16:10Z</time></trkpt><trkpt lat="44.835624711936866" lon="12.144604973088088"><ele>-3.0</ele><time>2026-05-02T15:16:12Z</time></trkpt><trkpt lat="44.83562659903395" lon="12.144476766296096"><ele>-3.0</ele><time>2026-05-02T15:16:14Z</time></trkpt><trkpt lat="44.83563686825123" lon="12.144347492794404"><ele>-2.8</ele><time>2026-05-02T15:16:16Z</time></trkpt><trkpt lat="44.83565011776454" lon="12.144219115852135"><ele>-2.5999999999999996</ele><time>2026-05-02T15:16:18Z</time></trkpt><trkpt lat="44.835654609613485" lon="12.144093328872215"><ele>-2.4000000000000004</ele><time>2026-05-02T15:16:20Z</time></trkpt><trkpt lat="44.83566340927502" lon="12.143965619858134"><ele>-2.2</ele><time>2026-05-02T15:16:21.999Z</time></trkpt><trkpt lat="44.835671533221266" lon="12.143837459079672"><ele>-2.0</ele><time>2026-05-02T15:16:23.999Z</time></trkpt><trkpt lat="44.83567806641831" lon="12.143704824361274"><ele>-1.9999999999999998</ele><time>2026-05-02T15:16:25.999Z</time></trkpt><trkpt lat="44.83568046479983" lon="12.143574933782427"><ele>-2.0</ele><time>2026-05-02T15:16:27.999Z</time></trkpt><trkpt lat="44.835688938555954" lon="12.143447866601377"><ele>-2.0</ele><time>2026-05-02T15:16:29.999Z</time></trkpt><trkpt lat="44.83569706104654" lon="12.143325817330254"><ele>-2.0</ele><time>2026-05-02T15:16:31.999Z</time></trkpt><trkpt lat="44.83570242997979" lon="12.143211722294634"><ele>-1.9999999999999998</ele><time>2026-05-02T15:16:33.999Z</time></trkpt><trkpt lat="44.83569945268566" lon="12.14310646222093"><ele>-2.0</ele><time>2026-05-02T15:16:35.999Z</time></trkpt><trkpt lat="44.83572369381531" lon="12.1430127634513"><ele>-1.8333333333333333</ele><time>2026-05-02T15:16:37.999Z</time></trkpt><trkpt lat="44.83572619425203" lon="12.142918797159998"><ele>-1.6666666666666665</ele><time>2026-05-02T15:16:39.999Z</time></trkpt><trkpt lat="44.83571434367813" lon="12.1428064581754"><ele>-1.5</ele><time>2026-05-02T15:16:41.999Z</time></trkpt><trkpt lat="44.83574390211734" lon="12.142706256662603"><ele>-1.3333333333333333</ele><time>2026-05-02T15:16:43.999Z</time></trkpt><trkpt lat="44.83573903812785" lon="12.142615390190363"><ele>-1.1666666666666665</ele><time>2026-05-02T15:16:46.999Z</time></trkpt><trkpt lat="44.835763838628814" lon="12.142505676260631"><ele>-1.0</ele><time>2026-05-02T15:16:50.999Z</time></trkpt><trkpt lat="44.8357300950202" lon="12.1423954798898"><ele>-0.9999999999999999</ele><time>2026-05-02T15:16:52.999Z</time></trkpt><trkpt lat="44.835730875003044" lon="12.14227926031427"><ele>-1.0</ele><time>2026-05-02T15:16:54.999Z</time></trkpt><trkpt lat="44.8357338007289" lon="12.14215935831852"><ele>-1.0</ele><time>2026-05-02T15:16:56.999Z</time></trkpt><trkpt lat="44.83576611869351" lon="12.142057934849417"><ele>-1.0</ele><time>2026-05-02T15:16:58.999Z</time></trkpt><trkpt lat="44.835750755435534" lon="12.141951622770073"><ele>-0.9999999999999999</ele><time>2026-05-02T15:17:01.999Z</time></trkpt><trkpt lat="44.83570578847329" lon="12.142014156393873"><ele>-1.0</ele><time>2026-05-02T15:17:04.999Z</time></trkpt><trkpt lat="44.835754117970914" lon="12.142073956659816"><ele>-0.9999999999999999</ele><time>2026-05-02T15:17:06.999Z</time></trkpt><trkpt lat="44.83575440012605" lon="12.142179578475494"><ele>-1.0</ele><time>2026-05-02T15:17:08.999Z</time></trkpt><trkpt lat="44.83574171105586" lon="12.142273570294398"><ele>-1.0</ele><time>2026-05-02T15:17:11Z</time></trkpt><trkpt lat="44.83573502965833" lon="12.142392607496902"><ele>-1.0</ele><time>2026-05-02T15:17:14Z</time></trkpt><trkpt lat="44.835677926384804" lon="12.142455077690663"><ele>-0.9999999999999999</ele><time>2026-05-02T15:17:18Z</time></trkpt><trkpt lat="44.835669614607696" lon="12.142337607499083"><ele>-1.0</ele><time>2026-05-02T15:17:21Z</time></trkpt><trkpt lat="44.835693213759704" lon="12.142244117120743"><ele>-0.9999999999999999</ele><time>2026-05-02T15:17:23Z</time></trkpt><trkpt lat="44.83568257634846" lon="12.142138428919598"><ele>-1.0</ele><time>2026-05-02T15:17:25Z</time></trkpt><trkpt lat="44.83568760513418" lon="12.142029304131396"><ele>-1.0</ele><time>2026-05-02T15:17:27Z</time></trkpt><trkpt lat="44.83569631486319" lon="12.141919029197625"><ele>-1.0</ele><time>2026-05-02T15:17:29Z</time></trkpt><trkpt lat="44.83569489391817" lon="12.141815289707983"><ele>-0.9999999999999999</ele><time>2026-05-02T15:17:31Z</time></trkpt><trkpt lat="44.83569837380885" lon="12.141711922713215"><ele>-1.0</ele><time>2026-05-02T15:17:33Z</time></trkpt><trkpt lat="44.83570858407564" lon="12.14161305459265"><ele>-1.1666666666666665</ele><time>2026-05-02T15:17:35Z</time></trkpt><trkpt lat="44.83571249974005" lon="12.141512285752945"><ele>-1.3333333333333333</ele><time>2026-05-02T15:17:37Z</time></trkpt><trkpt lat="44.835717776411315" lon="12.14141153901984"><ele>-1.5</ele><time>2026-05-02T15:17:39Z</time></trkpt><trkpt lat="44.83572205787937" lon="12.14129865752001"><ele>-1.6666666666666665</ele><time>2026-05-02T15:17:41Z</time></trkpt><trkpt lat="44.83572860459607" lon="12.141172715329349"><ele>-1.8333333333333333</ele><time>2026-05-02T15:17:43Z</time></trkpt><trkpt lat="44.83573501097804" lon="12.141054867772711"><ele>-2.0</ele><time>2026-05-02T15:17:45Z</time></trkpt><trkpt lat="44.83574281747827" lon="12.140942466142958"><ele>-1.9999999999999998</ele><time>2026-05-02T15:17:47Z</time></trkpt><trkpt lat="44.835740055484294" lon="12.140828955138524"><ele>-2.0</ele><time>2026-05-02T15:17:49Z</time></trkpt><trkpt lat="44.835747904363714" lon="12.140713815706047"><ele>-2.0</ele><time>2026-05-02T15:17:51Z</time></trkpt><trkpt lat="44.83575533281125" lon="12.140591259715196"><ele>-2.0</ele><time>2026-05-02T15:17:53Z</time></trkpt><trkpt lat="44.835760962768106" lon="12.140474827638792"><ele>-1.9999999999999998</ele><time>2026-05-02T15:17:55Z</time></trkpt><trkpt lat="44.83576100067069" lon="12.140359716918427"><ele>-2.0</ele><time>2026-05-02T15:17:57Z</time></trkpt><trkpt lat="44.8357710765186" lon="12.14023960188785"><ele>-1.9999999999999998</ele><time>2026-05-02T15:17:59Z</time></trkpt><trkpt lat="44.835778076385736" lon="12.140114704103249"><ele>-2.0</ele><time>2026-05-02T15:18:01Z</time></trkpt><trkpt lat="44.83578287833513" lon="12.139988766416739"><ele>-2.0</ele><time>2026-05-02T15:18:03Z</time></trkpt><trkpt lat="44.83579398067641" lon="12.139862245950098"><ele>-2.0</ele><time>2026-05-02T15:18:05Z</time></trkpt><trkpt lat="44.83579631363136" lon="12.13973307260788"><ele>-1.9999999999999998</ele><time>2026-05-02T15:18:07Z</time></trkpt><trkpt lat="44.83579587472012" lon="12.139610100457952"><ele>-2.0</ele><time>2026-05-02T15:18:09Z</time></trkpt><trkpt lat="44.83580624901024" lon="12.139488367533207"><ele>-2.1666666666666665</ele><time>2026-05-02T15:18:11Z</time></trkpt><trkpt lat="44.835851009538494" lon="12.139395528172543"><ele>-2.333333333333333</ele><time>2026-05-02T15:18:13Z</time></trkpt><trkpt lat="44.83585784101557" lon="12.139289396362605"><ele>-2.5</ele><time>2026-05-02T15:18:15Z</time></trkpt><trkpt lat="44.83585697480712" lon="12.13917000873591"><ele>-2.6666666666666665</ele><time>2026-05-02T15:18:17Z</time></trkpt><trkpt lat="44.835868213318705" lon="12.139031491299026"><ele>-2.8333333333333335</ele><time>2026-05-02T15:18:19Z</time></trkpt><trkpt lat="44.835872339851626" lon="12.13887591877476"><ele>-3.0</ele><time>2026-05-02T15:18:21Z</time></trkpt><trkpt lat="44.835868887933394" lon="12.138705444156168"><ele>-3.25</ele><time>2026-05-02T15:18:22.999Z</time></trkpt><trkpt lat="44.835873006923656" lon="12.138538247330871"><ele>-3.5</ele><time>2026-05-02T15:18:24.999Z</time></trkpt><trkpt lat="44.83587710297319" lon="12.138370228486203"><ele>-3.75</ele><time>2026-05-02T15:18:26.999Z</time></trkpt><trkpt lat="44.83588709276534" lon="12.138206366730882"><ele>-4.0</ele><time>2026-05-02T15:18:28.999Z</time></trkpt><trkpt lat="44.83589494893339" lon="12.138035811251351"><ele>-4.0</ele><time>2026-05-02T15:18:30.999Z</time></trkpt><trkpt lat="44.8359081667268" lon="12.13786612930288"><ele>-4.0</ele><time>2026-05-02T15:18:32.999Z</time></trkpt><trkpt lat="44.83579950089921" lon="12.137773734440186"><ele>-4.0</ele><time>2026-05-02T15:18:33.999Z</time></trkpt><trkpt lat="44.83580861953374" lon="12.137608289654839"><ele>-4.0</ele><time>2026-05-02T15:18:35.999Z</time></trkpt><trkpt lat="44.8358172133842" lon="12.137452366239625"><ele>-4.25</ele><time>2026-05-02T15:18:37.999Z</time></trkpt><trkpt lat="44.8358262081936" lon="12.137289168176228"><ele>-4.5</ele><time>2026-05-02T15:18:39.999Z</time></trkpt><trkpt lat="44.83583568643674" lon="12.137117198723931"><ele>-4.75</ele><time>2026-05-02T15:18:41.999Z</time></trkpt><trkpt lat="44.83584403151456" lon="12.136960615763357"><ele>-5.0</ele><time>2026-05-02T15:18:43.999Z</time></trkpt><trkpt lat="44.835851253630274" lon="12.136804873816823"><ele>-5.0</ele><time>2026-05-02T15:18:45.999Z</time></trkpt><trkpt lat="44.83585822601416" lon="12.136654517191596"><ele>-5.0</ele><time>2026-05-02T15:18:47.999Z</time></trkpt><trkpt lat="44.83586497731932" lon="12.136511099132635"><ele>-5.0</ele><time>2026-05-02T15:18:49.999Z</time></trkpt><trkpt lat="44.835871917012724" lon="12.136371209472456"><ele>-5.0</ele><time>2026-05-02T15:18:51.999Z</time></trkpt><trkpt lat="44.835878643945186" lon="12.136235608704505"><ele>-5.0</ele><time>2026-05-02T15:18:53.999Z</time></trkpt><trkpt lat="44.83588548359341" lon="12.136097735793257"><ele>-5.0</ele><time>2026-05-02T15:18:55.999Z</time></trkpt><trkpt lat="44.83589225692031" lon="12.13596119973978"><ele>-5.0</ele><time>2026-05-02T15:18:57.999Z</time></trkpt><trkpt lat="44.83589871209077" lon="12.135828549003495"><ele>-5.0</ele><time>2026-05-02T15:18:59.999Z</time></trkpt><trkpt lat="44.835904686650764" lon="12.1356940332831"><ele>-5.0</ele><time>2026-05-02T15:19:01.999Z</time></trkpt><trkpt lat="44.83591101722578" lon="12.135551501954241"><ele>-5.0</ele><time>2026-05-02T15:19:03.999Z</time></trkpt><trkpt lat="44.8359171912297" lon="12.135412495849181"><ele>-5.0</ele><time>2026-05-02T15:19:05.999Z</time></trkpt><trkpt lat="44.83592355735453" lon="12.135269164133527"><ele>-5.0</ele><time>2026-05-02T15:19:07.999Z</time></trkpt><trkpt lat="44.83592989386575" lon="12.13512787700044"><ele>-5.0</ele><time>2026-05-02T15:19:09.999Z</time></trkpt><trkpt lat="44.835936489146754" lon="12.13498459294529"><ele>-5.0</ele><time>2026-05-02T15:19:11.999Z</time></trkpt><trkpt lat="44.835943052303215" lon="12.134842006838912"><ele>-5.0</ele><time>2026-05-02T15:19:13.999Z</time></trkpt><trkpt lat="44.83611744774805" lon="12.134787024985048"><ele>-5.0</ele><time>2026-05-02T15:19:14.999Z</time></trkpt><trkpt lat="44.83612068771881" lon="12.134648027968304"><ele>-5.0</ele><time>2026-05-02T15:19:17Z</time></trkpt><trkpt lat="44.836127100141674" lon="12.134507249947415"><ele>-5.0</ele><time>2026-05-02T15:19:19Z</time></trkpt><trkpt lat="44.83614044399895" lon="12.134369836192043"><ele>-5.0</ele><time>2026-05-02T15:19:21Z</time></trkpt><trkpt lat="44.83614683385305" lon="12.134231252545378"><ele>-5.0</ele><time>2026-05-02T15:19:23Z</time></trkpt><trkpt lat="44.836148317259465" lon="12.134092674654497"><ele>-5.4</ele><time>2026-05-02T15:19:25Z</time></trkpt><trkpt lat="44.83615620851952" lon="12.133953651046989"><ele>-5.8</ele><time>2026-05-02T15:19:27Z</time></trkpt><trkpt lat="44.83616984325746" lon="12.133812550275078"><ele>-6.199999999999999</ele><time>2026-05-02T15:19:29Z</time></trkpt><trkpt lat="44.836174376535055" lon="12.13367133595512"><ele>-6.6</ele><time>2026-05-02T15:19:31Z</time></trkpt><trkpt lat="44.83617881681791" lon="12.133531825536242"><ele>-7.0</ele><time>2026-05-02T15:19:33Z</time></trkpt><trkpt lat="44.83618466773953" lon="12.133392421274154"><ele>-7.0</ele><time>2026-05-02T15:19:35Z</time></trkpt><trkpt lat="44.83618872919682" lon="12.13325231096855"><ele>-6.999999999999999</ele><time>2026-05-02T15:19:37Z</time></trkpt><trkpt lat="44.83619713057637" lon="12.133110834737243"><ele>-6.999999999999999</ele><time>2026-05-02T15:19:39Z</time></trkpt><trkpt lat="44.83621251366727" lon="12.132971330288925"><ele>-7.0</ele><time>2026-05-02T15:19:41Z</time></trkpt><trkpt lat="44.83621990513372" lon="12.132832497607396"><ele>-7.0</ele><time>2026-05-02T15:19:43Z</time></trkpt><trkpt lat="44.83622829170553" lon="12.132696404776317"><ele>-7.000000000000001</ele><time>2026-05-02T15:19:45Z</time></trkpt><trkpt lat="44.83622117702225" lon="12.132573352660993"><ele>-7.0</ele><time>2026-05-02T15:19:47Z</time></trkpt><trkpt lat="44.836239509236286" lon="12.132454972016772"><ele>-7.0</ele><time>2026-05-02T15:19:49Z</time></trkpt><trkpt lat="44.83624084505683" lon="12.132336103884624"><ele>-7.0</ele><time>2026-05-02T15:19:51Z</time></trkpt><trkpt lat="44.83625197330209" lon="12.132220476437576"><ele>-7.000000000000001</ele><time>2026-05-02T15:19:53Z</time></trkpt><trkpt lat="44.83624922142881" lon="12.132099919645807"><ele>-7.0</ele><time>2026-05-02T15:19:55Z</time></trkpt><trkpt lat="44.83626408732443" lon="12.13197337607703"><ele>-7.0</ele><time>2026-05-02T15:19:57Z</time></trkpt><trkpt lat="44.83626946838926" lon="12.131837325386757"><ele>-6.999999999999999</ele><time>2026-05-02T15:19:59Z</time></trkpt><trkpt lat="44.83627694268841" lon="12.13170124956473"><ele>-6.999999999999999</ele><time>2026-05-02T15:20:01Z</time></trkpt><trkpt lat="44.83628498931765" lon="12.1315629280002"><ele>-7.0</ele><time>2026-05-02T15:20:03Z</time></trkpt><trkpt lat="44.836292126858005" lon="12.131428744583665"><ele>-7.0</ele><time>2026-05-02T15:20:05Z</time></trkpt><trkpt lat="44.83629270021707" lon="12.131298054303365"><ele>-7.000000000000001</ele><time>2026-05-02T15:20:07Z</time></trkpt><trkpt lat="44.83630044540297" lon="12.131172139916758"><ele>-7.0</ele><time>2026-05-02T15:20:09Z</time></trkpt><trkpt lat="44.83631067829966" lon="12.13105113444509"><ele>-7.0</ele><time>2026-05-02T15:20:11Z</time></trkpt><trkpt lat="44.83630684669777" lon="12.130931434434924"><ele>-7.0</ele><time>2026-05-02T15:20:13Z</time></trkpt><trkpt lat="44.83632033369097" lon="12.130815333368352"><ele>-7.000000000000001</ele><time>2026-05-02T15:20:15Z</time></trkpt><trkpt lat="44.836321099157686" lon="12.13069673346658"><ele>-7.0</ele><time>2026-05-02T15:20:17Z</time></trkpt><trkpt lat="44.836331881230585" lon="12.130579381712142"><ele>-6.500000000000001</ele><time>2026-05-02T15:20:19Z</time></trkpt><trkpt lat="44.836336089083964" lon="12.130459597324899"><ele>-6.0</ele><time>2026-05-02T15:20:21Z</time></trkpt><trkpt lat="44.836339273858975" lon="12.130342111108137"><ele>-5.5</ele><time>2026-05-02T15:20:23Z</time></trkpt><trkpt lat="44.83635472252556" lon="12.13022695491571"><ele>-5.0</ele><time>2026-05-02T15:20:25Z</time></trkpt><trkpt lat="44.836353048020236" lon="12.130112256667246"><ele>-4.5</ele><time>2026-05-02T15:20:27Z</time></trkpt><trkpt lat="44.83636337618907" lon="12.129990460550308"><ele>-4.0</ele><time>2026-05-02T15:20:29Z</time></trkpt><trkpt lat="44.83636896028444" lon="12.129856108321652"><ele>-3.833333333333333</ele><time>2026-05-02T15:20:31Z</time></trkpt><trkpt lat="44.83637793020226" lon="12.129721273540149"><ele>-3.6666666666666665</ele><time>2026-05-02T15:20:33Z</time></trkpt><trkpt lat="44.83638464727889" lon="12.129584335014064"><ele>-3.5</ele><time>2026-05-02T15:20:35Z</time></trkpt><trkpt lat="44.83639060837427" lon="12.129459158580937"><ele>-3.333333333333333</ele><time>2026-05-02T15:20:37Z</time></trkpt><trkpt lat="44.83639436638665" lon="12.129338072255141"><ele>-3.1666666666666665</ele><time>2026-05-02T15:20:39Z</time></trkpt><trkpt lat="44.836407848958885" lon="12.129230280826924"><ele>-3.0</ele><time>2026-05-02T15:20:41Z</time></trkpt><trkpt lat="44.836408528646935" lon="12.12912712532651"><ele>-3.1428571428571423</ele><time>2026-05-02T15:20:43Z</time></trkpt><trkpt lat="44.836416838831774" lon="12.129028753896579"><ele>-3.2857142857142856</ele><time>2026-05-02T15:20:45Z</time></trkpt><trkpt lat="44.8364199928526" lon="12.12893645059812"><ele>-3.4285714285714284</ele><time>2026-05-02T15:20:47Z</time></trkpt><trkpt lat="44.83642627897737" lon="12.128847299089296"><ele>-3.571428571428571</ele><time>2026-05-02T15:20:48.999Z</time></trkpt><trkpt lat="44.83642989377777" lon="12.128724773501963"><ele>-3.714285714285714</ele><time>2026-05-02T15:20:50.999Z</time></trkpt><trkpt lat="44.836445883995225" lon="12.128611220771756"><ele>-3.8571428571428568</ele><time>2026-05-02T15:20:52.999Z</time></trkpt><trkpt lat="44.83645148244366" lon="12.128501695597084"><ele>-4.0</ele><time>2026-05-02T15:20:54.999Z</time></trkpt><trkpt lat="44.83646380627826" lon="12.1284006291714"><ele>-3.9999999999999996</ele><time>2026-05-02T15:20:56.999Z</time></trkpt><trkpt lat="44.83647076994517" lon="12.12830397328335"><ele>-4.0</ele><time>2026-05-02T15:20:58.999Z</time></trkpt><trkpt lat="44.83647506061568" lon="12.12821189346348"><ele>-4.0</ele><time>2026-05-02T15:21:00.999Z</time></trkpt><trkpt lat="44.83649955225922" lon="12.128112419719821"><ele>-4.0</ele><time>2026-05-02T15:21:02.999Z</time></trkpt><trkpt lat="44.83651138335421" lon="12.127998246187735"><ele>-3.9999999999999996</ele><time>2026-05-02T15:21:04.999Z</time></trkpt><trkpt lat="44.83652899788245" lon="12.127881807105371"><ele>-4.0</ele><time>2026-05-02T15:21:06.999Z</time></trkpt><trkpt lat="44.836565326560766" lon="12.127778870504075"><ele>-3.9999999999999996</ele><time>2026-05-02T15:21:08.999Z</time></trkpt><trkpt lat="44.83658570381875" lon="12.12767328387719"><ele>-4.0</ele><time>2026-05-02T15:21:10.999Z</time></trkpt><trkpt lat="44.836614978190596" lon="12.127573250631576"><ele>-4.0</ele><time>2026-05-02T15:21:12.999Z</time></trkpt><trkpt lat="44.83664674365575" lon="12.127470036927916"><ele>-4.0</ele><time>2026-05-02T15:21:14.999Z</time></trkpt><trkpt lat="44.83667251551536" lon="12.127350838481414"><ele>-3.9999999999999996</ele><time>2026-05-02T15:21:16.999Z</time></trkpt><trkpt lat="44.83671786600601" lon="12.127229413035495"><ele>-4.0</ele><time>2026-05-02T15:21:18.999Z</time></trkpt><trkpt lat="44.83675066342257" lon="12.127113588619435"><ele>-3.9999999999999996</ele><time>2026-05-02T15:21:20.999Z</time></trkpt><trkpt lat="44.83679123184508" lon="12.12700714206639"><ele>-4.0</ele><time>2026-05-02T15:21:23Z</time></trkpt><trkpt lat="44.83681852263508" lon="12.126898444570129"><ele>-4.0</ele><time>2026-05-02T15:21:25Z</time></trkpt><trkpt lat="44.836858041637605" lon="12.126804087664068"><ele>-4.0</ele><time>2026-05-02T15:21:27Z</time></trkpt><trkpt lat="44.836883302625345" lon="12.126705790900738"><ele>-3.9999999999999996</ele><time>2026-05-02T15:21:29Z</time></trkpt><trkpt lat="44.83691395907066" lon="12.126604430388683"><ele>-4.0</ele><time>2026-05-02T15:21:31Z</time></trkpt><trkpt lat="44.836950671852534" lon="12.126510714704294"><ele>-4.0</ele><time>2026-05-02T15:21:33Z</time></trkpt><trkpt lat="44.83697361874985" lon="12.126425332053474"><ele>-3.9999999999999996</ele><time>2026-05-02T15:21:35Z</time></trkpt><trkpt lat="44.837010563674646" lon="12.126351631440297"><ele>-4.0</ele><time>2026-05-02T15:21:37Z</time></trkpt><trkpt lat="44.83698826005212" lon="12.126250666481448"><ele>-4.0</ele><time>2026-05-02T15:21:39Z</time></trkpt><trkpt lat="44.8369193410863" lon="12.126196972360367"><ele>-3.9999999999999996</ele><time>2026-05-02T15:21:41Z</time></trkpt><trkpt lat="44.83686235290167" lon="12.126127826650464"><ele>-4.0</ele><time>2026-05-02T15:21:43Z</time></trkpt><trkpt lat="44.83679467213659" lon="12.126071704613231"><ele>-4.0</ele><time>2026-05-02T15:21:45Z</time></trkpt><trkpt lat="44.8367196190584" lon="12.1260084573278"><ele>-3.6</ele><time>2026-05-02T15:21:47Z</time></trkpt><trkpt lat="44.8366446080237" lon="12.125929155598723"><ele>-3.2</ele><time>2026-05-02T15:21:49Z</time></trkpt><trkpt lat="44.83657069355643" lon="12.125839768056633"><ele>-2.8000000000000003</ele><time>2026-05-02T15:21:51Z</time></trkpt><trkpt lat="44.83649778530347" lon="12.12574765366859"><ele>-2.4000000000000004</ele><time>2026-05-02T15:21:53Z</time></trkpt><trkpt lat="44.83642740245785" lon="12.12564954056492"><ele>-2.0</ele><time>2026-05-02T15:21:55Z</time></trkpt><trkpt lat="44.836347852646085" lon="12.125566027393392"><ele>-2.0</ele><time>2026-05-02T15:21:57Z</time></trkpt><trkpt lat="44.83626731586584" lon="12.125488196812594"><ele>-2.0</ele><time>2026-05-02T15:21:59Z</time></trkpt><trkpt lat="44.83618885733236" lon="12.125403418934882"><ele>-2.0</ele><time>2026-05-02T15:22:01Z</time></trkpt><trkpt lat="44.836111790394284" lon="12.12531771182065"><ele>-2.0</ele><time>2026-05-02T15:22:03Z</time></trkpt><trkpt lat="44.836025452775075" lon="12.125250587479599"><ele>-2.0</ele><time>2026-05-02T15:22:05Z</time></trkpt><trkpt lat="44.8359592426448" lon="12.125158069288926"><ele>-2.0</ele><time>2026-05-02T15:22:07Z</time></trkpt><trkpt lat="44.83589388894808" lon="12.12508261008889"><ele>-2.0</ele><time>2026-05-02T15:22:09Z</time></trkpt><trkpt lat="44.835823997518176" lon="12.1249927602177"><ele>-2.0</ele><time>2026-05-02T15:22:11Z</time></trkpt><trkpt lat="44.835762300990886" lon="12.124891070508228"><ele>-2.0</ele><time>2026-05-02T15:22:13Z</time></trkpt><trkpt lat="44.835702065808746" lon="12.124788466434904"><ele>-2.0</ele><time>2026-05-02T15:22:15Z</time></trkpt><trkpt lat="44.83563189337432" lon="12.124690650095442"><ele>-2.0</ele><time>2026-05-02T15:22:17Z</time></trkpt><trkpt lat="44.835567831394066" lon="12.124584782871835"><ele>-2.0</ele><time>2026-05-02T15:22:19Z</time></trkpt><trkpt lat="44.83549977994306" lon="12.124497396391625"><ele>-2.0</ele><time>2026-05-02T15:22:21Z</time></trkpt><trkpt lat="44.83542951031813" lon="12.124418135357315"><ele>-2.0</ele><time>2026-05-02T15:22:23Z</time></trkpt><trkpt lat="44.83536840126374" lon="12.124336780022198"><ele>-2.0</ele><time>2026-05-02T15:22:25Z</time></trkpt><trkpt lat="44.835300485591574" lon="12.124258900175413"><ele>-2.0</ele><time>2026-05-02T15:22:27Z</time></trkpt><trkpt lat="44.835227837728006" lon="12.124179577037404"><ele>-2.0</ele><time>2026-05-02T15:22:29Z</time></trkpt><trkpt lat="44.835159697635056" lon="12.124092942189598"><ele>-2.0</ele><time>2026-05-02T15:22:31Z</time></trkpt><trkpt lat="44.835093670129005" lon="12.124020733823649"><ele>-2.0</ele><time>2026-05-02T15:22:33Z</time></trkpt><trkpt lat="44.835025081565966" lon="12.123935383487572"><ele>-2.0</ele><time>2026-05-02T15:22:35Z</time></trkpt><trkpt lat="44.8349430237683" lon="12.12386644952965"><ele>-2.1666666666666665</ele><time>2026-05-02T15:22:37Z</time></trkpt><trkpt lat="44.83488679439796" lon="12.123771367709876"><ele>-2.333333333333333</ele><time>2026-05-02T15:22:39Z</time></trkpt><trkpt lat="44.83481564556998" lon="12.123699141936568"><ele>-2.5</ele><time>2026-05-02T15:22:41Z</time></trkpt><trkpt lat="44.834756330577505" lon="12.123618997622124"><ele>-2.6666666666666665</ele><time>2026-05-02T15:22:43Z</time></trkpt><trkpt lat="44.83469007925887" lon="12.123544798970938"><ele>-2.8333333333333335</ele><time>2026-05-02T15:22:45Z</time></trkpt><trkpt lat="44.83462906880996" lon="12.1234746601457"><ele>-3.0</ele><time>2026-05-02T15:22:47Z</time></trkpt><trkpt lat="44.834565428665094" lon="12.123402856783578"><ele>-3.0</ele><time>2026-05-02T15:22:49Z</time></trkpt><trkpt lat="44.834498042194305" lon="12.123336211400241"><ele>-3.0</ele><time>2026-05-02T15:22:51Z</time></trkpt><trkpt lat="44.834440433547186" lon="12.123267217881969"><ele>-3.0</ele><time>2026-05-02T15:22:53Z</time></trkpt><trkpt lat="44.8343705750519" lon="12.123182144793471"><ele>-3.0</ele><time>2026-05-02T15:22:55Z</time></trkpt><trkpt lat="44.83430339550163" lon="12.123109332487333"><ele>-3.0</ele><time>2026-05-02T15:22:57Z</time></trkpt><trkpt lat="44.83423685672461" lon="12.123034977448427"><ele>-3.0</ele><time>2026-05-02T15:22:59Z</time></trkpt><trkpt lat="44.834176664865964" lon="12.122953890475364"><ele>-2.8333333333333335</ele><time>2026-05-02T15:23:01Z</time></trkpt><trkpt lat="44.83412183058082" lon="12.12287151713008"><ele>-2.6666666666666665</ele><time>2026-05-02T15:23:03Z</time></trkpt><trkpt lat="44.83406978838877" lon="12.122786899621305"><ele>-2.5</ele><time>2026-05-02T15:23:05Z</time></trkpt><trkpt lat="44.834009211037284" lon="12.122715606051175"><ele>-2.333333333333333</ele><time>2026-05-02T15:23:07Z</time></trkpt><trkpt lat="44.83394391047395" lon="12.12263560340602"><ele>-2.1666666666666665</ele><time>2026-05-02T15:23:09Z</time></trkpt><trkpt lat="44.83387968619205" lon="12.122557370981358"><ele>-2.0</ele><time>2026-05-02T15:23:11Z</time></trkpt><trkpt lat="44.83382372528973" lon="12.12246265728858"><ele>-2.1666666666666665</ele><time>2026-05-02T15:23:13Z</time></trkpt><trkpt lat="44.8337756304875" lon="12.122361222495101"><ele>-2.333333333333333</ele><time>2026-05-02T15:23:15Z</time></trkpt><trkpt lat="44.833740194967866" lon="12.122259968628398"><ele>-2.5</ele><time>2026-05-02T15:23:17Z</time></trkpt><trkpt lat="44.83369199766691" lon="12.122157860170306"><ele>-2.6666666666666665</ele><time>2026-05-02T15:23:19Z</time></trkpt><trkpt lat="44.83365904945042" lon="12.1220302159311"><ele>-2.8333333333333335</ele><time>2026-05-02T15:23:21Z</time></trkpt><trkpt lat="44.83362941760294" lon="12.121903117873018"><ele>-3.0</ele><time>2026-05-02T15:23:23Z</time></trkpt><trkpt lat="44.833604349140714" lon="12.12176652624942"><ele>-3.0</ele><time>2026-05-02T15:23:25Z</time></trkpt><trkpt lat="44.83358108885546" lon="12.1216411020602"><ele>-3.0</ele><time>2026-05-02T15:23:27Z</time></trkpt><trkpt lat="44.83356172432994" lon="12.121517354395786"><ele>-3.0</ele><time>2026-05-02T15:23:29Z</time></trkpt><trkpt lat="44.83353709826702" lon="12.121392737554782"><ele>-3.0</ele><time>2026-05-02T15:23:31Z</time></trkpt><trkpt lat="44.83351568209836" lon="12.12126131774841"><ele>-3.0</ele><time>2026-05-02T15:23:33Z</time></trkpt><trkpt lat="44.83349946968038" lon="12.121136562219744"><ele>-2.8333333333333335</ele><time>2026-05-02T15:23:35Z</time></trkpt><trkpt lat="44.83347350583222" lon="12.121019847373868"><ele>-2.6666666666666665</ele><time>2026-05-02T15:23:37Z</time></trkpt><trkpt lat="44.833458352524346" lon="12.120902336753133"><ele>-2.5</ele><time>2026-05-02T15:23:39Z</time></trkpt><trkpt lat="44.83344593655356" lon="12.120798473338963"><ele>-2.333333333333333</ele><time>2026-05-02T15:23:41Z</time></trkpt><trkpt lat="44.83343093220739" lon="12.12069595072142"><ele>-2.1666666666666665</ele><time>2026-05-02T15:23:43Z</time></trkpt><trkpt lat="44.833418040848784" lon="12.120589650308913"><ele>-2.0</ele><time>2026-05-02T15:23:45Z</time></trkpt><trkpt lat="44.83340475963921" lon="12.120481959574612"><ele>-1.9999999999999998</ele><time>2026-05-02T15:23:47Z</time></trkpt><trkpt lat="44.833383202551104" lon="12.120382045977449"><ele>-2.0</ele><time>2026-05-02T15:23:49Z</time></trkpt><trkpt lat="44.83337563367485" lon="12.120288350986993"><ele>-2.0</ele><time>2026-05-02T15:23:51Z</time></trkpt><trkpt lat="44.83336831908792" lon="12.120180732434148"><ele>-2.0</ele><time>2026-05-02T15:23:53Z</time></trkpt><trkpt lat="44.833339234468355" lon="12.120056535452377"><ele>-1.9999999999999998</ele><time>2026-05-02T15:23:55Z</time></trkpt><trkpt lat="44.83332184403837" lon="12.119949332812556"><ele>-2.0</ele><time>2026-05-02T15:23:57Z</time></trkpt><trkpt lat="44.83330882312456" lon="12.119834579824744"><ele>-2.0</ele><time>2026-05-02T15:23:59Z</time></trkpt><trkpt lat="44.83329339222415" lon="12.119699493817869"><ele>-2.0</ele><time>2026-05-02T15:24:01Z</time></trkpt><trkpt lat="44.833273386099876" lon="12.119566524697293"><ele>-2.0</ele><time>2026-05-02T15:24:03Z</time></trkpt><trkpt lat="44.83325523661108" lon="12.119437847107612"><ele>-2.0</ele><time>2026-05-02T15:24:05Z</time></trkpt><trkpt lat="44.833238431369246" lon="12.11931799222085"><ele>-2.0</ele><time>2026-05-02T15:24:07Z</time></trkpt><trkpt lat="44.833215695948354" lon="12.119205541323097"><ele>-1.9999999999999998</ele><time>2026-05-02T15:24:09Z</time></trkpt><trkpt lat="44.833194050828304" lon="12.119068143333358"><ele>-2.0</ele><time>2026-05-02T15:24:11Z</time></trkpt><trkpt lat="44.83317143964837" lon="12.11893497045613"><ele>-2.0</ele><time>2026-05-02T15:24:13Z</time></trkpt><trkpt lat="44.833150835434864" lon="12.118809798118127"><ele>-2.0</ele><time>2026-05-02T15:24:15Z</time></trkpt><trkpt lat="44.83312770079616" lon="12.118704137718417"><ele>-1.9999999999999998</ele><time>2026-05-02T15:24:17Z</time></trkpt><trkpt lat="44.833114434883186" lon="12.11860207472309"><ele>-2.0</ele><time>2026-05-02T15:24:19Z</time></trkpt><trkpt lat="44.833100271716326" lon="12.118512801393711"><ele>-2.0</ele><time>2026-05-02T15:24:21Z</time></trkpt><trkpt lat="44.83308441010274" lon="12.118395789741772"><ele>-2.0</ele><time>2026-05-02T15:24:23Z</time></trkpt><trkpt lat="44.83306951529925" lon="12.118266443762977"><ele>-2.0</ele><time>2026-05-02T15:24:25Z</time></trkpt><trkpt lat="44.833053819517836" lon="12.118129872124971"><ele>-2.0</ele><time>2026-05-02T15:24:27Z</time></trkpt><trkpt lat="44.833032979747955" lon="12.117999921712874"><ele>-2.0</ele><time>2026-05-02T15:24:29Z</time></trkpt><trkpt lat="44.8330129948913" lon="12.11786321476376"><ele>-1.9999999999999998</ele><time>2026-05-02T15:24:31Z</time></trkpt><trkpt lat="44.83299658777796" lon="12.117729734269234"><ele>-2.0</ele><time>2026-05-02T15:24:33Z</time></trkpt><trkpt lat="44.83297796219253" lon="12.117606807464204"><ele>-2.0</ele><time>2026-05-02T15:24:35Z</time></trkpt><trkpt lat="44.832965795141014" lon="12.117490389920933"><ele>-2.0</ele><time>2026-05-02T15:24:37Z</time></trkpt><trkpt lat="44.83295704087252" lon="12.117382035325685"><ele>-1.9999999999999998</ele><time>2026-05-02T15:24:39Z</time></trkpt><trkpt lat="44.83293465330301" lon="12.11727587831891"><ele>-2.0</ele><time>2026-05-02T15:24:41Z</time></trkpt><trkpt lat="44.832917448095934" lon="12.117157910644082"><ele>-1.9999999999999998</ele><time>2026-05-02T15:24:43Z</time></trkpt><trkpt lat="44.83289863714893" lon="12.117041005619456"><ele>-2.0</ele><time>2026-05-02T15:24:45Z</time></trkpt><trkpt lat="44.832874595457334" lon="12.116921442679871"><ele>-2.0</ele><time>2026-05-02T15:24:47Z</time></trkpt><trkpt lat="44.83285410947649" lon="12.11678994502027"><ele>-2.0</ele><time>2026-05-02T15:24:49Z</time></trkpt><trkpt lat="44.83283199228361" lon="12.116665742301617"><ele>-1.9999999999999998</ele><time>2026-05-02T15:24:51Z</time></trkpt><trkpt lat="44.83282738598384" lon="12.116540602682933"><ele>-2.0</ele><time>2026-05-02T15:24:53Z</time></trkpt><trkpt lat="44.832808338622954" lon="12.116412180148105"><ele>-2.0</ele><time>2026-05-02T15:24:55Z</time></trkpt><trkpt lat="44.832777627424036" lon="12.116286692015745"><ele>-2.0</ele><time>2026-05-02T15:24:57Z</time></trkpt><trkpt lat="44.8327551055194" lon="12.116160883464756"><ele>-2.0</ele><time>2026-05-02T15:24:59Z</time></trkpt><trkpt lat="44.83273386331274" lon="12.116043693881855"><ele>-2.0</ele><time>2026-05-02T15:25:01Z</time></trkpt><trkpt lat="44.83272112825633" lon="12.115926847103514"><ele>-2.0</ele><time>2026-05-02T15:25:03Z</time></trkpt><trkpt lat="44.832710650916894" lon="12.1157920628521"><ele>-2.0</ele><time>2026-05-02T15:25:05Z</time></trkpt><trkpt lat="44.832703156648144" lon="12.115658440622601"><ele>-2.0</ele><time>2026-05-02T15:25:07Z</time></trkpt><trkpt lat="44.83270251205394" lon="12.115527098148325"><ele>-2.0</ele><time>2026-05-02T15:25:09Z</time></trkpt><trkpt lat="44.83271956140355" lon="12.115403161025219"><ele>-2.0</ele><time>2026-05-02T15:25:11Z</time></trkpt><trkpt lat="44.832727104656634" lon="12.115281913128555"><ele>-2.0</ele><time>2026-05-02T15:25:13Z</time></trkpt><trkpt lat="44.83274483194617" lon="12.115161777459369"><ele>-1.9999999999999998</ele><time>2026-05-02T15:25:15Z</time></trkpt><trkpt lat="44.832768602185325" lon="12.115035626708902"><ele>-2.0</ele><time>2026-05-02T15:25:17Z</time></trkpt><trkpt lat="44.83278475556548" lon="12.114924848578076"><ele>-2.0</ele><time>2026-05-02T15:25:19Z</time></trkpt><trkpt lat="44.83280682320551" lon="12.114816344652912"><ele>-2.0</ele><time>2026-05-02T15:25:21Z</time></trkpt><trkpt lat="44.832828817053645" lon="12.114704435421919"><ele>-1.9999999999999998</ele><time>2026-05-02T15:25:23Z</time></trkpt><trkpt lat="44.83284079555228" lon="12.114587244019763"><ele>-2.0</ele><time>2026-05-02T15:25:25Z</time></trkpt><trkpt lat="44.83287696050803" lon="12.114479499246752"><ele>-1.9999999999999998</ele><time>2026-05-02T15:25:27Z</time></trkpt><trkpt lat="44.832902367147675" lon="12.114369288702633"><ele>-2.0</ele><time>2026-05-02T15:25:28.999Z</time></trkpt><trkpt lat="44.83291975224106" lon="12.114257042951946"><ele>-2.0</ele><time>2026-05-02T15:25:30.999Z</time></trkpt><trkpt lat="44.83293585594392" lon="12.114131638381462"><ele>-2.0</ele><time>2026-05-02T15:25:32.999Z</time></trkpt><trkpt lat="44.83295170596309" lon="12.114007223646782"><ele>-1.9999999999999998</ele><time>2026-05-02T15:25:35Z</time></trkpt><trkpt lat="44.83294815193995" lon="12.113876676971273"><ele>-2.0</ele><time>2026-05-02T15:25:37Z</time></trkpt><trkpt lat="44.832952460804115" lon="12.11375550592175"><ele>-2.0</ele><time>2026-05-02T15:25:39Z</time></trkpt><trkpt lat="44.8329585654544" lon="12.113631167716997"><ele>-2.0</ele><time>2026-05-02T15:25:41Z</time></trkpt><trkpt lat="44.83295846741382" lon="12.113487671647285"><ele>-2.0</ele><time>2026-05-02T15:25:43Z</time></trkpt><trkpt lat="44.83295020184731" lon="12.113356410259964"><ele>-2.0</ele><time>2026-05-02T15:25:45Z</time></trkpt><trkpt lat="44.83294881165374" lon="12.113226427031506"><ele>-2.0</ele><time>2026-05-02T15:25:47Z</time></trkpt><trkpt lat="44.8329439594844" lon="12.113111781356492"><ele>-1.4000000000000001</ele><time>2026-05-02T15:25:49Z</time></trkpt><trkpt lat="44.83293660409366" lon="12.11298896473967"><ele>-0.8000000000000002</ele><time>2026-05-02T15:25:51Z</time></trkpt><trkpt lat="44.832926490918666" lon="12.112855732086418"><ele>-0.19999999999999996</ele><time>2026-05-02T15:25:53Z</time></trkpt><trkpt lat="44.83291921515641" lon="12.112718810597372"><ele>0.4</ele><time>2026-05-02T15:25:55Z</time></trkpt><trkpt lat="44.832911552930945" lon="12.11258347591661"><ele>1.0</ele><time>2026-05-02T15:25:57Z</time></trkpt><trkpt lat="44.832900554539314" lon="12.11244512102277"><ele>0.6000000000000001</ele><time>2026-05-02T15:25:59Z</time></trkpt><trkpt lat="44.832888748952506" lon="12.112302198703302"><ele>0.20000000000000007</ele><time>2026-05-02T15:26:01Z</time></trkpt><trkpt lat="44.832875108792784" lon="12.112168282550702"><ele>-0.20000000000000007</ele><time>2026-05-02T15:26:03Z</time></trkpt><trkpt lat="44.83287118013112" lon="12.112040666842567"><ele>-0.6000000000000001</ele><time>2026-05-02T15:26:05Z</time></trkpt><trkpt lat="44.832859468802106" lon="12.111917379573944"><ele>-1.0</ele><time>2026-05-02T15:26:07Z</time></trkpt><trkpt lat="44.832844522540555" lon="12.111810542642743"><ele>-0.9999999999999999</ele><time>2026-05-02T15:26:09Z</time></trkpt><trkpt lat="44.832836006156896" lon="12.111704575610554"><ele>-1.0</ele><time>2026-05-02T15:26:11Z</time></trkpt><trkpt lat="44.832847854889074" lon="12.11160992488526"><ele>-1.0</ele><time>2026-05-02T15:26:14Z</time></trkpt><trkpt lat="44.83286784107381" lon="12.111510132818902"><ele>-1.0</ele><time>2026-05-02T15:26:17Z</time></trkpt><trkpt lat="44.832797634212035" lon="12.11145991225351"><ele>-0.9999999999999999</ele><time>2026-05-02T15:27:03Z</time></trkpt><trkpt lat="44.83272493559616" lon="12.111419022094577"><ele>-1.0</ele><time>2026-05-02T15:27:06Z</time></trkpt><trkpt lat="44.83265496119788" lon="12.111358165674828"><ele>-1.4</ele><time>2026-05-02T15:27:08Z</time></trkpt><trkpt lat="44.83259549680177" lon="12.111269370934096"><ele>-1.8</ele><time>2026-05-02T15:27:10Z</time></trkpt><trkpt lat="44.832533980482886" lon="12.11118371738128"><ele>-2.1999999999999997</ele><time>2026-05-02T15:27:12Z</time></trkpt><trkpt lat="44.832474101101475" lon="12.11107736216538"><ele>-2.6</ele><time>2026-05-02T15:27:14Z</time></trkpt><trkpt lat="44.83239654012843" lon="12.11099677538264"><ele>-3.0</ele><time>2026-05-02T15:27:16Z</time></trkpt><trkpt lat="44.832328378690306" lon="12.110909890866145"><ele>-3.0</ele><time>2026-05-02T15:27:17.999Z</time></trkpt><trkpt lat="44.83226823959827" lon="12.110831592874932"><ele>-3.0</ele><time>2026-05-02T15:27:19.999Z</time></trkpt><trkpt lat="44.83220033519274" lon="12.110753624109904"><ele>-3.0</ele><time>2026-05-02T15:27:21.999Z</time></trkpt><trkpt lat="44.832131047289536" lon="12.110669072024573"><ele>-3.0</ele><time>2026-05-02T15:27:23.999Z</time></trkpt><trkpt lat="44.83206945785053" lon="12.110589981171204"><ele>-3.0</ele><time>2026-05-02T15:27:25.999Z</time></trkpt><trkpt lat="44.83200798754259" lon="12.110509452040034"><ele>-3.0</ele><time>2026-05-02T15:27:27.999Z</time></trkpt><trkpt lat="44.831950643026055" lon="12.110436674687136"><ele>-2.8333333333333335</ele><time>2026-05-02T15:27:29.999Z</time></trkpt><trkpt lat="44.83189828769944" lon="12.110366522102545"><ele>-2.6666666666666665</ele><time>2026-05-02T15:27:31.999Z</time></trkpt><trkpt lat="44.83183071037628" lon="12.110275982131146"><ele>-2.5</ele><time>2026-05-02T15:27:33.999Z</time></trkpt><trkpt lat="44.831769332619665" lon="12.110184916499916"><ele>-2.333333333333333</ele><time>2026-05-02T15:27:35.999Z</time></trkpt><trkpt lat="44.83170930718591" lon="12.11010367509631"><ele>-2.1666666666666665</ele><time>2026-05-02T15:27:37.999Z</time></trkpt><trkpt lat="44.831659806084176" lon="12.110036915177291"><ele>-2.0</ele><time>2026-05-02T15:27:42Z</time></trkpt><trkpt lat="44.831629178100705" lon="12.10992773843208"><ele>-1.8333333333333333</ele><time>2026-05-02T15:27:48Z</time></trkpt><trkpt lat="44.83155082184773" lon="12.109870239994274"><ele>-1.6666666666666665</ele><time>2026-05-02T15:27:51Z</time></trkpt><trkpt lat="44.83148518364053" lon="12.109767906446846"><ele>-1.5</ele><time>2026-05-02T15:27:54Z</time></trkpt><trkpt lat="44.83143632759333" lon="12.109684641761719"><ele>-1.3333333333333333</ele><time>2026-05-02T15:27:56Z</time></trkpt><trkpt lat="44.83139360901089" lon="12.10960836214984"><ele>-1.1666666666666665</ele><time>2026-05-02T15:27:58Z</time></trkpt><trkpt lat="44.83132077449235" lon="12.10952269143992"><ele>-1.0</ele><time>2026-05-02T15:28:01Z</time></trkpt><trkpt lat="44.831258107987004" lon="12.109439992762956"><ele>-0.9999999999999999</ele><time>2026-05-02T15:28:03Z</time></trkpt><trkpt lat="44.83120516702319" lon="12.109335235492313"><ele>-1.0</ele><time>2026-05-02T15:28:05Z</time></trkpt><trkpt lat="44.831153727235744" lon="12.109241635173813"><ele>-1.0</ele><time>2026-05-02T15:28:07Z</time></trkpt><trkpt lat="44.83110255234265" lon="12.109152555105283"><ele>-1.0</ele><time>2026-05-02T15:28:09Z</time></trkpt><trkpt lat="44.83105307172255" lon="12.109061485523403"><ele>-0.9999999999999999</ele><time>2026-05-02T15:28:11Z</time></trkpt><trkpt lat="44.831005579201346" lon="12.108972743798077"><ele>-1.0</ele><time>2026-05-02T15:28:13Z</time></trkpt><trkpt lat="44.83095352374439" lon="12.10888456866086"><ele>-0.6666666666666666</ele><time>2026-05-02T15:28:15Z</time></trkpt><trkpt lat="44.83091280617512" lon="12.10879098740271"><ele>-0.3333333333333333</ele><time>2026-05-02T15:28:17Z</time></trkpt><trkpt lat="44.83085686343968" lon="12.108705409249275"><ele>0.0</ele><time>2026-05-02T15:28:19Z</time></trkpt><trkpt lat="44.830801559478736" lon="12.108603905737615"><ele>0.3333333333333333</ele><time>2026-05-02T15:28:21Z</time></trkpt><trkpt lat="44.83074473014669" lon="12.108496771151183"><ele>0.6666666666666666</ele><time>2026-05-02T15:28:23Z</time></trkpt><trkpt lat="44.83067932496608" lon="12.108397116936489"><ele>1.0</ele><time>2026-05-02T15:28:25Z</time></trkpt><trkpt lat="44.83062016651183" lon="12.108292454995572"><ele>0.9999999999999999</ele><time>2026-05-02T15:28:27Z</time></trkpt><trkpt lat="44.83056831142118" lon="12.108183143142442"><ele>1.0</ele><time>2026-05-02T15:28:29Z</time></trkpt><trkpt lat="44.83052023422095" lon="12.108089508157486"><ele>1.0</ele><time>2026-05-02T15:28:31Z</time></trkpt><trkpt lat="44.83048120369002" lon="12.108005478222214"><ele>1.0</ele><time>2026-05-02T15:28:33Z</time></trkpt><trkpt lat="44.83043922038393" lon="12.107925762567158"><ele>0.9999999999999999</ele><time>2026-05-02T15:28:35Z</time></trkpt><trkpt lat="44.83040298615975" lon="12.107828305878485"><ele>1.0</ele><time>2026-05-02T15:28:37Z</time></trkpt><trkpt lat="44.83036978786424" lon="12.107730500516439"><ele>0.9999999999999999</ele><time>2026-05-02T15:28:39Z</time></trkpt><trkpt lat="44.830326337154105" lon="12.107651861719193"><ele>1.0</ele><time>2026-05-02T15:28:41Z</time></trkpt><trkpt lat="44.83027733299247" lon="12.107555664612725"><ele>1.0</ele><time>2026-05-02T15:28:44Z</time></trkpt><trkpt lat="44.83023932984717" lon="12.107472819285137"><ele>1.0</ele><time>2026-05-02T15:28:46Z</time></trkpt><trkpt lat="44.830186909298305" lon="12.1073649732134"><ele>0.9999999999999999</ele><time>2026-05-02T15:28:48Z</time></trkpt><trkpt lat="44.8301270931683" lon="12.107264931844067"><ele>1.0</ele><time>2026-05-02T15:28:50Z</time></trkpt><trkpt lat="44.830057699957464" lon="12.107183150776779"><ele>1.0</ele><time>2026-05-02T15:28:52Z</time></trkpt><trkpt lat="44.829990340461514" lon="12.107112838471327"><ele>1.0</ele><time>2026-05-02T15:28:54Z</time></trkpt><trkpt lat="44.829917307457066" lon="12.107028304676646"><ele>1.0</ele><time>2026-05-02T15:28:56Z</time></trkpt><trkpt lat="44.82983795296857" lon="12.106939707690685"><ele>1.0</ele><time>2026-05-02T15:28:58Z</time></trkpt><trkpt lat="44.829748539457064" lon="12.106841415178017"><ele>1.0</ele><time>2026-05-02T15:29:00Z</time></trkpt><trkpt lat="44.82966020664559" lon="12.106735771222928"><ele>1.0</ele><time>2026-05-02T15:29:02Z</time></trkpt><trkpt lat="44.82956757142925" lon="12.106648122411707"><ele>1.0</ele><time>2026-05-02T15:29:04Z</time></trkpt><trkpt lat="44.82948160470403" lon="12.106552581889579"><ele>1.0</ele><time>2026-05-02T15:29:06Z</time></trkpt><trkpt lat="44.829398280895546" lon="12.106462101926835"><ele>1.0</ele><time>2026-05-02T15:29:08Z</time></trkpt><trkpt lat="44.82931827193315" lon="12.10637533250033"><ele>1.0</ele><time>2026-05-02T15:29:10Z</time></trkpt><trkpt lat="44.829244349257536" lon="12.10628961947037"><ele>0.9999999999999999</ele><time>2026-05-02T15:29:12Z</time></trkpt><trkpt lat="44.82917177905154" lon="12.106212666776283"><ele>1.0</ele><time>2026-05-02T15:29:14Z</time></trkpt><trkpt lat="44.829103972637746" lon="12.10613459289573"><ele>1.0</ele><time>2026-05-02T15:29:16Z</time></trkpt><trkpt lat="44.82903887547395" lon="12.106055497267867"><ele>1.0</ele><time>2026-05-02T15:29:18Z</time></trkpt><trkpt lat="44.828963918509764" lon="12.105976719232274"><ele>0.9999999999999999</ele><time>2026-05-02T15:29:20Z</time></trkpt><trkpt lat="44.828894701868656" lon="12.105892190328525"><ele>1.0</ele><time>2026-05-02T15:29:22Z</time></trkpt><trkpt lat="44.828824236796876" lon="12.10581926181088"><ele>0.9999999999999999</ele><time>2026-05-02T15:29:24Z</time></trkpt><trkpt lat="44.82880125620184" lon="12.105724979461508"><ele>1.0</ele><time>2026-05-02T15:29:26Z</time></trkpt><trkpt lat="44.828833678166646" lon="12.105624147318428"><ele>1.0</ele><time>2026-05-02T15:29:28Z</time></trkpt><trkpt lat="44.82890207155431" lon="12.105553495343914"><ele>1.0</ele><time>2026-05-02T15:29:30Z</time></trkpt><trkpt lat="44.82895247541223" lon="12.10545680041328"><ele>0.9999999999999999</ele><time>2026-05-02T15:29:32Z</time></trkpt><trkpt lat="44.82900165177406" lon="12.105363852918993"><ele>1.0</ele><time>2026-05-02T15:29:34Z</time></trkpt><trkpt lat="44.82903785989232" lon="12.105267997314494"><ele>1.0</ele><time>2026-05-02T15:29:36Z</time></trkpt><trkpt lat="44.82907823377871" lon="12.105171328045365"><ele>0.9999999999999999</ele><time>2026-05-02T15:29:38Z</time></trkpt><trkpt lat="44.829113666193614" lon="12.105075197436799"><ele>1.0</ele><time>2026-05-02T15:29:39.999Z</time></trkpt><trkpt lat="44.8291444781035" lon="12.104979033307195"><ele>1.0</ele><time>2026-05-02T15:29:41.999Z</time></trkpt><trkpt lat="44.82916826059224" lon="12.104886672322388"><ele>0.9999999999999999</ele><time>2026-05-02T15:29:43.999Z</time></trkpt><trkpt lat="44.82919481500399" lon="12.104800308930168"><ele>1.0</ele><time>2026-05-02T15:29:45.999Z</time></trkpt><trkpt lat="44.82921969208643" lon="12.104714385972146"><ele>1.0</ele><time>2026-05-02T15:29:48Z</time></trkpt><trkpt lat="44.82925106023149" lon="12.104618434278597"><ele>0.9999999999999999</ele><time>2026-05-02T15:29:50Z</time></trkpt><trkpt lat="44.82926655488478" lon="12.104505379591652"><ele>1.0</ele><time>2026-05-02T15:29:52Z</time></trkpt><trkpt lat="44.82930574716441" lon="12.104397129721814"><ele>1.0</ele><time>2026-05-02T15:29:54Z</time></trkpt><trkpt lat="44.82934558428408" lon="12.104291620521131"><ele>1.0</ele><time>2026-05-02T15:29:56Z</time></trkpt><trkpt lat="44.82936333178225" lon="12.104164734231185"><ele>0.9999999999999999</ele><time>2026-05-02T15:29:58Z</time></trkpt><trkpt lat="44.82939447389882" lon="12.104065128111236"><ele>1.0</ele><time>2026-05-02T15:30:00Z</time></trkpt><trkpt lat="44.829427380129815" lon="12.10394906810446"><ele>0.9999999999999999</ele><time>2026-05-02T15:30:02Z</time></trkpt><trkpt lat="44.829461959795175" lon="12.10384298608145"><ele>1.0</ele><time>2026-05-02T15:30:04Z</time></trkpt><trkpt lat="44.829493145004115" lon="12.10373049975492"><ele>1.0</ele><time>2026-05-02T15:30:06Z</time></trkpt><trkpt lat="44.82952956120729" lon="12.103609553424349"><ele>1.0</ele><time>2026-05-02T15:30:08Z</time></trkpt><trkpt lat="44.82955807064591" lon="12.103491206781342"><ele>0.9999999999999999</ele><time>2026-05-02T15:30:10Z</time></trkpt><trkpt lat="44.82959151798731" lon="12.103383613492646"><ele>1.0</ele><time>2026-05-02T15:30:12Z</time></trkpt><trkpt lat="44.82962075761442" lon="12.103260853805507"><ele>1.0</ele><time>2026-05-02T15:30:14Z</time></trkpt><trkpt lat="44.82965746587095" lon="12.103135844362116"><ele>1.0</ele><time>2026-05-02T15:30:16Z</time></trkpt><trkpt lat="44.82969004010878" lon="12.103017301356084"><ele>1.0</ele><time>2026-05-02T15:30:18Z</time></trkpt><trkpt lat="44.8297259624264" lon="12.102897565435901"><ele>1.0</ele><time>2026-05-02T15:30:20Z</time></trkpt><trkpt lat="44.82975602847845" lon="12.102781430484324"><ele>1.0</ele><time>2026-05-02T15:30:22Z</time></trkpt><trkpt lat="44.82978831798855" lon="12.102672023744546"><ele>0.9999999999999999</ele><time>2026-05-02T15:30:24Z</time></trkpt><trkpt lat="44.82982049311444" lon="12.102565074651263"><ele>1.0</ele><time>2026-05-02T15:30:26Z</time></trkpt><trkpt lat="44.82985709249471" lon="12.102442693967765"><ele>1.0</ele><time>2026-05-02T15:30:28Z</time></trkpt><trkpt lat="44.829887961101775" lon="12.102332341682564"><ele>1.0</ele><time>2026-05-02T15:30:30Z</time></trkpt><trkpt lat="44.82991691324322" lon="12.102211498925781"><ele>0.9999999999999999</ele><time>2026-05-02T15:30:32Z</time></trkpt><trkpt lat="44.82995405288478" lon="12.102089216188725"><ele>1.0</ele><time>2026-05-02T15:30:34Z</time></trkpt><trkpt lat="44.82998430578019" lon="12.101965802410541"><ele>0.9999999999999999</ele><time>2026-05-02T15:30:36Z</time></trkpt><trkpt lat="44.83002262390523" lon="12.101858066492994"><ele>1.0</ele><time>2026-05-02T15:30:38Z</time></trkpt><trkpt lat="44.83005242614331" lon="12.101753610803458"><ele>1.0</ele><time>2026-05-02T15:30:40Z</time></trkpt><trkpt lat="44.83007845074619" lon="12.101641737821385"><ele>1.0</ele><time>2026-05-02T15:30:42Z</time></trkpt><trkpt lat="44.83010891016962" lon="12.10152721867337"><ele>0.9999999999999999</ele><time>2026-05-02T15:30:44Z</time></trkpt><trkpt lat="44.83014213304156" lon="12.101403451101936"><ele>1.0</ele><time>2026-05-02T15:30:46Z</time></trkpt><trkpt lat="44.830165131392974" lon="12.10126997020903"><ele>1.0</ele><time>2026-05-02T15:30:48Z</time></trkpt><trkpt lat="44.83020418245441" lon="12.10114151209909"><ele>1.0</ele><time>2026-05-02T15:30:50Z</time></trkpt><trkpt lat="44.830232198015096" lon="12.101012466942928"><ele>1.0</ele><time>2026-05-02T15:30:52Z</time></trkpt><trkpt lat="44.83026458297398" lon="12.100889022339658"><ele>1.0</ele><time>2026-05-02T15:30:54Z</time></trkpt><trkpt lat="44.830305212048025" lon="12.100762803023358"><ele>1.0</ele><time>2026-05-02T15:30:56Z</time></trkpt><trkpt lat="44.83033983397956" lon="12.100633912609759"><ele>0.9999999999999999</ele><time>2026-05-02T15:30:58Z</time></trkpt><trkpt lat="44.830370543883824" lon="12.10050910903351"><ele>1.0</ele><time>2026-05-02T15:31:00Z</time></trkpt><trkpt lat="44.83039664262184" lon="12.100391366582384"><ele>1.0</ele><time>2026-05-02T15:31:02Z</time></trkpt><trkpt lat="44.83042506781345" lon="12.100283681105484"><ele>1.0</ele><time>2026-05-02T15:31:04Z</time></trkpt><trkpt lat="44.83045154358765" lon="12.100180777687148"><ele>0.9999999999999999</ele><time>2026-05-02T15:31:06Z</time></trkpt><trkpt lat="44.830480614891236" lon="12.100080868954446"><ele>1.0</ele><time>2026-05-02T15:31:08Z</time></trkpt><trkpt lat="44.83051226053387" lon="12.099982326440697"><ele>0.6666666666666666</ele><time>2026-05-02T15:31:10Z</time></trkpt><trkpt lat="44.83054382313949" lon="12.099882385614098"><ele>0.3333333333333333</ele><time>2026-05-02T15:31:12Z</time></trkpt><trkpt lat="44.83057296020137" lon="12.099777189274857"><ele>0.0</ele><time>2026-05-02T15:31:14Z</time></trkpt><trkpt lat="44.83060485064233" lon="12.09967659354337"><ele>-0.3333333333333333</ele><time>2026-05-02T15:31:16Z</time></trkpt><trkpt lat="44.83063318616928" lon="12.09957730395722"><ele>-0.6666666666666666</ele><time>2026-05-02T15:31:18Z</time></trkpt><trkpt lat="44.830661273791854" lon="12.099477791303157"><ele>-1.0</ele><time>2026-05-02T15:31:20Z</time></trkpt><trkpt lat="44.830686279742494" lon="12.099386434217639"><ele>-0.9999999999999999</ele><time>2026-05-02T15:31:22Z</time></trkpt><trkpt lat="44.83071329147639" lon="12.099298632829845"><ele>-1.0</ele><time>2026-05-02T15:31:24Z</time></trkpt><trkpt lat="44.83073532242552" lon="12.099214145380953"><ele>-1.0</ele><time>2026-05-02T15:31:25.999Z</time></trkpt><trkpt lat="44.83077678535469" lon="12.099107698224508"><ele>-1.0</ele><time>2026-05-02T15:31:28.999Z</time></trkpt><trkpt lat="44.83080035784275" lon="12.0990073538008"><ele>-0.9999999999999999</ele><time>2026-05-02T15:31:30.999Z</time></trkpt><trkpt lat="44.83083124918542" lon="12.09890169072417"><ele>-1.0</ele><time>2026-05-02T15:31:32.999Z</time></trkpt><trkpt lat="44.83086487025221" lon="12.098795205149623"><ele>-0.8333333333333333</ele><time>2026-05-02T15:31:34.999Z</time></trkpt><trkpt lat="44.8309042097963" lon="12.098679657512264"><ele>-0.6666666666666666</ele><time>2026-05-02T15:31:36.999Z</time></trkpt><trkpt lat="44.83093601813186" lon="12.098551638164386"><ele>-0.5</ele><time>2026-05-02T15:31:38.999Z</time></trkpt><trkpt lat="44.8309661870619" lon="12.098431840229935"><ele>-0.3333333333333333</ele><time>2026-05-02T15:31:40.999Z</time></trkpt><trkpt lat="44.83099856578376" lon="12.098319360402845"><ele>-0.16666666666666666</ele><time>2026-05-02T15:31:42.999Z</time></trkpt><trkpt lat="44.8310142650527" lon="12.09820451014211"><ele>0.0</ele><time>2026-05-02T15:31:44.999Z</time></trkpt><trkpt lat="44.83103891459466" lon="12.09809434657153"><ele>0.0</ele><time>2026-05-02T15:31:46.999Z</time></trkpt><trkpt lat="44.83105860194378" lon="12.09798000092647"><ele>0.0</ele><time>2026-05-02T15:31:48.999Z</time></trkpt><trkpt lat="44.831065085411176" lon="12.097867236075501"><ele>0.0</ele><time>2026-05-02T15:31:50.999Z</time></trkpt><trkpt lat="44.831073339856516" lon="12.097756641763393"><ele>0.0</ele><time>2026-05-02T15:31:53Z</time></trkpt><trkpt lat="44.831034484225086" lon="12.097650543127225"><ele>0.0</ele><time>2026-05-02T15:31:55Z</time></trkpt><trkpt lat="44.83100551526607" lon="12.097544641296512"><ele>0.0</ele><time>2026-05-02T15:31:57Z</time></trkpt><trkpt lat="44.83098760348881" lon="12.097433831305594"><ele>0.0</ele><time>2026-05-02T15:31:59Z</time></trkpt><trkpt lat="44.830996827401776" lon="12.097316340167083"><ele>0.0</ele><time>2026-05-02T15:32:01Z</time></trkpt><trkpt lat="44.83101988547818" lon="12.09721037944719"><ele>0.0</ele><time>2026-05-02T15:32:03Z</time></trkpt><trkpt lat="44.8310447328633" lon="12.097107477907361"><ele>0.0</ele><time>2026-05-02T15:32:05Z</time></trkpt><trkpt lat="44.831069441638235" lon="12.097007921414955"><ele>0.0</ele><time>2026-05-02T15:32:07Z</time></trkpt><trkpt lat="44.83109313540405" lon="12.096907766312105"><ele>0.0</ele><time>2026-05-02T15:32:09Z</time></trkpt><trkpt lat="44.83111434861723" lon="12.096812857428999"><ele>0.0</ele><time>2026-05-02T15:32:11Z</time></trkpt><trkpt lat="44.83112953563294" lon="12.096720620124978"><ele>0.0</ele><time>2026-05-02T15:32:13Z</time></trkpt><trkpt lat="44.83114968835717" lon="12.096618031931218"><ele>0.0</ele><time>2026-05-02T15:32:15Z</time></trkpt><trkpt lat="44.831168753114426" lon="12.096514525462174"><ele>0.0</ele><time>2026-05-02T15:32:17Z</time></trkpt><trkpt lat="44.831191667208564" lon="12.09641382928433"><ele>0.0</ele><time>2026-05-02T15:32:19Z</time></trkpt><trkpt lat="44.83121042712331" lon="12.09632259293659"><ele>0.0</ele><time>2026-05-02T15:32:21Z</time></trkpt><trkpt lat="44.83122196733223" lon="12.096230909291316"><ele>0.0</ele><time>2026-05-02T15:32:23Z</time></trkpt><trkpt lat="44.83123043756268" lon="12.096138555378694"><ele>0.0</ele><time>2026-05-02T15:32:25Z</time></trkpt><trkpt lat="44.83124713513561" lon="12.096050022378616"><ele>0.0</ele><time>2026-05-02T15:32:27Z</time></trkpt><trkpt lat="44.83126158498519" lon="12.095945174038212"><ele>0.0</ele><time>2026-05-02T15:32:29Z</time></trkpt><trkpt lat="44.83127067967759" lon="12.095843598109763"><ele>0.0</ele><time>2026-05-02T15:32:31Z</time></trkpt><trkpt lat="44.83131131748138" lon="12.095763676910439"><ele>0.0</ele><time>2026-05-02T15:32:33Z</time></trkpt><trkpt lat="44.83133583003909" lon="12.09565252777526"><ele>0.0</ele><time>2026-05-02T15:32:36Z</time></trkpt><trkpt lat="44.83135580168266" lon="12.095553285824487"><ele>0.0</ele><time>2026-05-02T15:33:17.999Z</time></trkpt><trkpt lat="44.83137092180427" lon="12.095453193249117"><ele>0.0</ele><time>2026-05-02T15:33:22.999Z</time></trkpt><trkpt lat="44.831391768217095" lon="12.095362515089828"><ele>0.0</ele><time>2026-05-02T15:33:27.999Z</time></trkpt><trkpt lat="44.831416157861256" lon="12.095280019888708"><ele>0.0</ele><time>2026-05-02T15:33:30.999Z</time></trkpt><trkpt lat="44.831438881292485" lon="12.095154157111825"><ele>0.0</ele><time>2026-05-02T15:33:32.999Z</time></trkpt><trkpt lat="44.83146765183365" lon="12.095032658768623"><ele>0.0</ele><time>2026-05-02T15:33:34.999Z</time></trkpt><trkpt lat="44.831491558344716" lon="12.094919712152087"><ele>0.0</ele><time>2026-05-02T15:33:36.999Z</time></trkpt><trkpt lat="44.83150044152212" lon="12.094803967490302"><ele>-0.3333333333333333</ele><time>2026-05-02T15:33:38.999Z</time></trkpt><trkpt lat="44.8315191100984" lon="12.094691645458608"><ele>-0.6666666666666666</ele><time>2026-05-02T15:33:40.999Z</time></trkpt><trkpt lat="44.831551122700226" lon="12.09459026716839"><ele>-1.0</ele><time>2026-05-02T15:33:42.999Z</time></trkpt><trkpt lat="44.83157581823607" lon="12.094482686444"><ele>-1.3333333333333333</ele><time>2026-05-02T15:33:44.999Z</time></trkpt><trkpt lat="44.83158744546644" lon="12.09437081219738"><ele>-1.6666666666666665</ele><time>2026-05-02T15:33:46.999Z</time></trkpt><trkpt lat="44.83161476316924" lon="12.094266448891572"><ele>-2.0</ele><time>2026-05-02T15:33:48.999Z</time></trkpt><trkpt lat="44.83163928542597" lon="12.094155451372744"><ele>-1.9999999999999998</ele><time>2026-05-02T15:33:50.999Z</time></trkpt><trkpt lat="44.83166044195617" lon="12.094041918954806"><ele>-2.0</ele><time>2026-05-02T15:33:52.999Z</time></trkpt><trkpt lat="44.8316991901701" lon="12.09393621438927"><ele>-2.0</ele><time>2026-05-02T15:33:54.999Z</time></trkpt><trkpt lat="44.83172354417009" lon="12.09382524436659"><ele>-2.0</ele><time>2026-05-02T15:33:56.999Z</time></trkpt><trkpt lat="44.83173909850881" lon="12.093711418892998"><ele>-1.9999999999999998</ele><time>2026-05-02T15:33:59Z</time></trkpt><trkpt lat="44.83175984766989" lon="12.093600044523468"><ele>-2.0</ele><time>2026-05-02T15:34:01Z</time></trkpt><trkpt lat="44.831784273167" lon="12.0934915164285"><ele>-2.0</ele><time>2026-05-02T15:34:03Z</time></trkpt><trkpt lat="44.83180134647745" lon="12.093356262938352"><ele>-2.0</ele><time>2026-05-02T15:34:05Z</time></trkpt><trkpt lat="44.83182503275559" lon="12.093227562474167"><ele>-2.0</ele><time>2026-05-02T15:34:07Z</time></trkpt><trkpt lat="44.83184370192108" lon="12.093096362344852"><ele>-2.0</ele><time>2026-05-02T15:34:09Z</time></trkpt><trkpt lat="44.83186448387441" lon="12.092966579307351"><ele>-2.0</ele><time>2026-05-02T15:34:11Z</time></trkpt><trkpt lat="44.83189028045441" lon="12.092834467878001"><ele>-1.9999999999999998</ele><time>2026-05-02T15:34:13Z</time></trkpt><trkpt lat="44.83191834392768" lon="12.092702948410622"><ele>-2.0</ele><time>2026-05-02T15:34:15Z</time></trkpt><trkpt lat="44.83192631120533" lon="12.09258558195077"><ele>-2.0</ele><time>2026-05-02T15:34:17Z</time></trkpt><trkpt lat="44.83195102414625" lon="12.092478209947249"><ele>-2.0</ele><time>2026-05-02T15:34:19Z</time></trkpt><trkpt lat="44.83195507073787" lon="12.092364320580515"><ele>-1.9999999999999998</ele><time>2026-05-02T15:34:21Z</time></trkpt><trkpt lat="44.83197417821729" lon="12.092244840684419"><ele>-2.0</ele><time>2026-05-02T15:34:23Z</time></trkpt><trkpt lat="44.83198677930167" lon="12.092113052705384"><ele>-1.8</ele><time>2026-05-02T15:34:25Z</time></trkpt><trkpt lat="44.83200887814532" lon="12.091991382520117"><ele>-1.6</ele><time>2026-05-02T15:34:27Z</time></trkpt><trkpt lat="44.832019635492266" lon="12.09185091618037"><ele>-1.4000000000000001</ele><time>2026-05-02T15:34:29Z</time></trkpt><trkpt lat="44.83204874521535" lon="12.091714615922724"><ele>-1.2000000000000002</ele><time>2026-05-02T15:34:31Z</time></trkpt><trkpt lat="44.83208162237856" lon="12.091592445964809"><ele>-1.0</ele><time>2026-05-02T15:34:33Z</time></trkpt><trkpt lat="44.832094983930645" lon="12.091465602271622"><ele>-0.9999999999999999</ele><time>2026-05-02T15:34:35Z</time></trkpt><trkpt lat="44.83211668776604" lon="12.09134908971941"><ele>-1.0</ele><time>2026-05-02T15:34:37Z</time></trkpt><trkpt lat="44.83214174513746" lon="12.091234989185784"><ele>-1.0</ele><time>2026-05-02T15:34:39Z</time></trkpt><trkpt lat="44.832147696457234" lon="12.091121802791994"><ele>-1.0</ele><time>2026-05-02T15:34:41Z</time></trkpt><trkpt lat="44.83217009990882" lon="12.091008780276677"><ele>-0.9999999999999999</ele><time>2026-05-02T15:34:43Z</time></trkpt><trkpt lat="44.83219040287732" lon="12.090881725895555"><ele>-1.0</ele><time>2026-05-02T15:34:45Z</time></trkpt><trkpt lat="44.83221099048959" lon="12.090753965024138"><ele>-0.9999999999999999</ele><time>2026-05-02T15:34:47Z</time></trkpt><trkpt lat="44.83222620585446" lon="12.090627265492753"><ele>-1.0</ele><time>2026-05-02T15:34:49Z</time></trkpt><trkpt lat="44.83224460207689" lon="12.090511757942252"><ele>-1.0</ele><time>2026-05-02T15:34:51Z</time></trkpt><trkpt lat="44.83226384252704" lon="12.090399933025534"><ele>-1.0</ele><time>2026-05-02T15:34:53Z</time></trkpt><trkpt lat="44.832277457304215" lon="12.090287181476363"><ele>-0.9999999999999999</ele><time>2026-05-02T15:34:55Z</time></trkpt><trkpt lat="44.83229853831108" lon="12.090177037920965"><ele>-1.0</ele><time>2026-05-02T15:34:57Z</time></trkpt><trkpt lat="44.83231894360679" lon="12.090061809238094"><ele>-0.9999999999999999</ele><time>2026-05-02T15:34:59Z</time></trkpt><trkpt lat="44.832331651218674" lon="12.089944803441877"><ele>-1.0</ele><time>2026-05-02T15:35:01Z</time></trkpt><trkpt lat="44.83235510612007" lon="12.089833347684362"><ele>-1.0</ele><time>2026-05-02T15:35:03Z</time></trkpt><trkpt lat="44.832374487843104" lon="12.089725350741263"><ele>-1.0</ele><time>2026-05-02T15:35:05Z</time></trkpt><trkpt lat="44.83239556241425" lon="12.08961639336339"><ele>-0.9999999999999999</ele><time>2026-05-02T15:35:07Z</time></trkpt><trkpt lat="44.83241496511748" lon="12.08950355828249"><ele>-1.0</ele><time>2026-05-02T15:35:09Z</time></trkpt><trkpt lat="44.83242927807705" lon="12.0893996578279"><ele>-0.9999999999999999</ele><time>2026-05-02T15:35:11Z</time></trkpt><trkpt lat="44.832451296367054" lon="12.089308577392844"><ele>-1.0</ele><time>2026-05-02T15:35:13Z</time></trkpt><trkpt lat="44.832469848796315" lon="12.089209109589648"><ele>-1.0</ele><time>2026-05-02T15:35:15Z</time></trkpt><trkpt lat="44.83249022891056" lon="12.089100427169654"><ele>-1.0</ele><time>2026-05-02T15:35:17Z</time></trkpt><trkpt lat="44.832519634545136" lon="12.088987095525436"><ele>-0.9999999999999999</ele><time>2026-05-02T15:35:19Z</time></trkpt><trkpt lat="44.832539933695905" lon="12.08887874614813"><ele>-1.0</ele><time>2026-05-02T15:35:21Z</time></trkpt><trkpt lat="44.83256285180338" lon="12.088771024329056"><ele>-0.9999999999999999</ele><time>2026-05-02T15:35:23Z</time></trkpt><trkpt lat="44.83259040481632" lon="12.088658323379997"><ele>-1.0</ele><time>2026-05-02T15:35:25Z</time></trkpt><trkpt lat="44.83260654333878" lon="12.08853823679272"><ele>-1.0</ele><time>2026-05-02T15:35:27Z</time></trkpt><trkpt lat="44.83263641095102" lon="12.088427939703369"><ele>-1.0</ele><time>2026-05-02T15:35:29Z</time></trkpt><trkpt lat="44.83265560268225" lon="12.088317403569441"><ele>-0.9999999999999999</ele><time>2026-05-02T15:35:31Z</time></trkpt><trkpt lat="44.83269185938739" lon="12.088209511061713"><ele>-1.0</ele><time>2026-05-02T15:35:33Z</time></trkpt><trkpt lat="44.83270247971544" lon="12.088094750475854"><ele>-1.1666666666666665</ele><time>2026-05-02T15:35:35Z</time></trkpt><trkpt lat="44.8327236672915" lon="12.087991271463183"><ele>-1.3333333333333333</ele><time>2026-05-02T15:35:37Z</time></trkpt><trkpt lat="44.832753398819854" lon="12.087880662931777"><ele>-1.5</ele><time>2026-05-02T15:35:38.999Z</time></trkpt><trkpt lat="44.832781979687155" lon="12.087768952397482"><ele>-1.6666666666666665</ele><time>2026-05-02T15:35:40.999Z</time></trkpt><trkpt lat="44.83279998347081" lon="12.087662382303455"><ele>-1.8333333333333333</ele><time>2026-05-02T15:35:42.999Z</time></trkpt><trkpt lat="44.83281949314746" lon="12.087566176583202"><ele>-2.0</ele><time>2026-05-02T15:35:44.999Z</time></trkpt><trkpt lat="44.8328384246814" lon="12.087477804492128"><ele>-1.9999999999999998</ele><time>2026-05-02T15:35:46.999Z</time></trkpt><trkpt lat="44.832846786892794" lon="12.087383060131481"><ele>-2.0</ele><time>2026-05-02T15:35:48.999Z</time></trkpt><trkpt lat="44.83287004599022" lon="12.087259541701208"><ele>-2.0</ele><time>2026-05-02T15:35:50.999Z</time></trkpt><trkpt lat="44.83289518174812" lon="12.087138397001443"><ele>-2.0</ele><time>2026-05-02T15:35:52.999Z</time></trkpt><trkpt lat="44.83291016601594" lon="12.087021743089288"><ele>-1.9999999999999998</ele><time>2026-05-02T15:35:54.999Z</time></trkpt><trkpt lat="44.83292906681989" lon="12.0869215940889"><ele>-2.0</ele><time>2026-05-02T15:35:56.999Z</time></trkpt><trkpt lat="44.83294254899585" lon="12.086821426725654"><ele>-1.9999999999999998</ele><time>2026-05-02T15:35:58.999Z</time></trkpt><trkpt lat="44.832957628302765" lon="12.08671203653268"><ele>-2.0</ele><time>2026-05-02T15:36:00.999Z</time></trkpt><trkpt lat="44.83296826833732" lon="12.086582687158597"><ele>-2.0</ele><time>2026-05-02T15:36:02.999Z</time></trkpt><trkpt lat="44.83298603147321" lon="12.086461185166863"><ele>-2.0</ele><time>2026-05-02T15:36:05Z</time></trkpt><trkpt lat="44.83299429108984" lon="12.08634786349518"><ele>-1.9999999999999998</ele><time>2026-05-02T15:36:07Z</time></trkpt><trkpt lat="44.83301317033743" lon="12.086236741223681"><ele>-2.0</ele><time>2026-05-02T15:36:09Z</time></trkpt><trkpt lat="44.83302684949153" lon="12.086134762617535"><ele>-1.9999999999999998</ele><time>2026-05-02T15:36:11Z</time></trkpt><trkpt lat="44.83302709346872" lon="12.086035624549039"><ele>-2.0</ele><time>2026-05-02T15:36:13Z</time></trkpt><trkpt lat="44.83304011085225" lon="12.085942137561743"><ele>-2.0</ele><time>2026-05-02T15:36:15Z</time></trkpt><trkpt lat="44.83305572510226" lon="12.085834662269287"><ele>-2.0</ele><time>2026-05-02T15:36:17Z</time></trkpt><trkpt lat="44.833068755619024" lon="12.085724612680204"><ele>-1.9999999999999998</ele><time>2026-05-02T15:36:19Z</time></trkpt><trkpt lat="44.83306939167278" lon="12.085611266571156"><ele>-2.0</ele><time>2026-05-02T15:36:21Z</time></trkpt><trkpt lat="44.83309634934275" lon="12.085502743492967"><ele>-1.857142857142857</ele><time>2026-05-02T15:36:23Z</time></trkpt><trkpt lat="44.83310033505821" lon="12.085392180142396"><ele>-1.714285714285714</ele><time>2026-05-02T15:36:25Z</time></trkpt><trkpt lat="44.833110543950994" lon="12.085284460596847"><ele>-1.5714285714285714</ele><time>2026-05-02T15:36:27Z</time></trkpt><trkpt lat="44.83312254764696" lon="12.085185855264987"><ele>-1.4285714285714284</ele><time>2026-05-02T15:36:29Z</time></trkpt><trkpt lat="44.83313564098391" lon="12.085096527739388"><ele>-1.2857142857142856</ele><time>2026-05-02T15:36:31Z</time></trkpt><trkpt lat="44.833148250580706" lon="12.085006823114373"><ele>-1.1428571428571428</ele><time>2026-05-02T15:36:33Z</time></trkpt><trkpt lat="44.833156827128605" lon="12.084897185461791"><ele>-1.0</ele><time>2026-05-02T15:36:36Z</time></trkpt><trkpt lat="44.83316409344303" lon="12.084805153920824"><ele>-0.9999999999999999</ele><time>2026-05-02T15:36:39Z</time></trkpt><trkpt lat="44.83317747247351" lon="12.08469790103051"><ele>-1.0</ele><time>2026-05-02T15:36:43Z</time></trkpt><trkpt lat="44.83318673716793" lon="12.084606754011705"><ele>-1.0</ele><time>2026-05-02T15:36:45Z</time></trkpt><trkpt lat="44.83320002565353" lon="12.084508373084796"><ele>-1.0</ele><time>2026-05-02T15:36:47Z</time></trkpt><trkpt lat="44.83321482591435" lon="12.08440372609295"><ele>-0.9999999999999999</ele><time>2026-05-02T15:36:49Z</time></trkpt><trkpt lat="44.83322613141955" lon="12.084307581611323"><ele>-1.0</ele><time>2026-05-02T15:36:51Z</time></trkpt><trkpt lat="44.83323573667293" lon="12.084169559300511"><ele>-1.1666666666666665</ele><time>2026-05-02T15:36:54Z</time></trkpt><trkpt lat="44.83326340257084" lon="12.084067820102959"><ele>-1.3333333333333333</ele><time>2026-05-02T15:36:56Z</time></trkpt><trkpt lat="44.83327586421699" lon="12.083961094625792"><ele>-1.5</ele><time>2026-05-02T15:36:58Z</time></trkpt><trkpt lat="44.83328460850978" lon="12.083833311677411"><ele>-1.6666666666666665</ele><time>2026-05-02T15:37:00Z</time></trkpt><trkpt lat="44.833305317905555" lon="12.083708843780435"><ele>-1.8333333333333333</ele><time>2026-05-02T15:37:02Z</time></trkpt><trkpt lat="44.833306236640894" lon="12.083593043034123"><ele>-2.0</ele><time>2026-05-02T15:37:04Z</time></trkpt><trkpt lat="44.833322180920746" lon="12.08349171631708"><ele>-1.9999999999999998</ele><time>2026-05-02T15:37:06Z</time></trkpt><trkpt lat="44.83332674372448" lon="12.083395002764306"><ele>-2.0</ele><time>2026-05-02T15:37:08Z</time></trkpt><trkpt lat="44.833339585165405" lon="12.083299258608902"><ele>-2.0</ele><time>2026-05-02T15:37:10Z</time></trkpt><trkpt lat="44.83335241772809" lon="12.08319240067883"><ele>-2.0</ele><time>2026-05-02T15:37:12Z</time></trkpt><trkpt lat="44.83336453186978" lon="12.083070116160561"><ele>-1.9999999999999998</ele><time>2026-05-02T15:37:14Z</time></trkpt><trkpt lat="44.833378120427426" lon="12.082939766334684"><ele>-2.0</ele><time>2026-05-02T15:37:16Z</time></trkpt><trkpt lat="44.83339529532087" lon="12.082817741419444"><ele>-1.9999999999999998</ele><time>2026-05-02T15:37:18Z</time></trkpt><trkpt lat="44.83340667031048" lon="12.082688261697498"><ele>-2.0</ele><time>2026-05-02T15:37:20Z</time></trkpt><trkpt lat="44.83342436234273" lon="12.082557388932685"><ele>-2.0</ele><time>2026-05-02T15:37:22Z</time></trkpt><trkpt lat="44.833436929810595" lon="12.082427586190386"><ele>-2.0</ele><time>2026-05-02T15:37:24Z</time></trkpt><trkpt lat="44.833449227187224" lon="12.08230747192888"><ele>-1.9999999999999998</ele><time>2026-05-02T15:37:26Z</time></trkpt><trkpt lat="44.8334635243823" lon="12.082193866787126"><ele>-2.0</ele><time>2026-05-02T15:37:28Z</time></trkpt><trkpt lat="44.833474232934" lon="12.082070394720162"><ele>-1.8333333333333333</ele><time>2026-05-02T15:37:30Z</time></trkpt><trkpt lat="44.83348808845434" lon="12.081938721692852"><ele>-1.6666666666666665</ele><time>2026-05-02T15:37:32Z</time></trkpt><trkpt lat="44.833501568000905" lon="12.081804120512512"><ele>-1.5</ele><time>2026-05-02T15:37:34Z</time></trkpt><trkpt lat="44.83351415209579" lon="12.081683219555964"><ele>-1.3333333333333333</ele><time>2026-05-02T15:37:36Z</time></trkpt><trkpt lat="44.833526065354555" lon="12.081571725534662"><ele>-1.1666666666666665</ele><time>2026-05-02T15:37:38Z</time></trkpt><trkpt lat="44.83353750830782" lon="12.081456111807753"><ele>-1.0</ele><time>2026-05-02T15:37:40Z</time></trkpt><trkpt lat="44.833549357067504" lon="12.081341900205794"><ele>-0.9999999999999999</ele><time>2026-05-02T15:37:42Z</time></trkpt><trkpt lat="44.833561808225724" lon="12.081227165255939"><ele>-1.0</ele><time>2026-05-02T15:37:44Z</time></trkpt><trkpt lat="44.83359005554148" lon="12.081117358093108"><ele>-1.0</ele><time>2026-05-02T15:37:46Z</time></trkpt><trkpt lat="44.83358866988153" lon="12.081002490087045"><ele>-1.0</ele><time>2026-05-02T15:37:47.999Z</time></trkpt><trkpt lat="44.83361482449016" lon="12.080894757607819"><ele>-0.9999999999999999</ele><time>2026-05-02T15:37:49.999Z</time></trkpt><trkpt lat="44.83362656865317" lon="12.080789211942154"><ele>-1.0</ele><time>2026-05-02T15:37:51.999Z</time></trkpt><trkpt lat="44.8336407707172" lon="12.080661576865038"><ele>-0.9999999999999999</ele><time>2026-05-02T15:37:53.999Z</time></trkpt><trkpt lat="44.83365469849166" lon="12.0805364071266"><ele>-1.0</ele><time>2026-05-02T15:37:55.999Z</time></trkpt><trkpt lat="44.83366711624963" lon="12.080424807819453"><ele>-1.0</ele><time>2026-05-02T15:37:57.999Z</time></trkpt><trkpt lat="44.833679037243165" lon="12.080317673039506"><ele>-1.0</ele><time>2026-05-02T15:37:59.999Z</time></trkpt><trkpt lat="44.83369177563694" lon="12.080201001758507"><ele>-0.9999999999999999</ele><time>2026-05-02T15:38:01.999Z</time></trkpt><trkpt lat="44.833705870220726" lon="12.080071282727232"><ele>-1.0</ele><time>2026-05-02T15:38:03.999Z</time></trkpt><trkpt lat="44.833719987850614" lon="12.079941351973641"><ele>-0.8333333333333333</ele><time>2026-05-02T15:38:05.999Z</time></trkpt><trkpt lat="44.83373352634707" lon="12.079816751142843"><ele>-0.6666666666666666</ele><time>2026-05-02T15:38:07.999Z</time></trkpt><trkpt lat="44.83374622661983" lon="12.079698116566304"><ele>-0.5</ele><time>2026-05-02T15:38:09.999Z</time></trkpt><trkpt lat="44.833741809027515" lon="12.079584047228963"><ele>-0.3333333333333333</ele><time>2026-05-02T15:38:12Z</time></trkpt><trkpt lat="44.83375860075485" lon="12.079476174000416"><ele>-0.16666666666666666</ele><time>2026-05-02T15:38:14Z</time></trkpt><trkpt lat="44.83376684458737" lon="12.079379515745332"><ele>0.0</ele><time>2026-05-02T15:38:16Z</time></trkpt><trkpt lat="44.83379039425378" lon="12.079279859318303"><ele>0.0</ele><time>2026-05-02T15:38:18Z</time></trkpt><trkpt lat="44.83379547071989" lon="12.079166858169646"><ele>0.0</ele><time>2026-05-02T15:38:20Z</time></trkpt><trkpt lat="44.83380485769208" lon="12.079056127540328"><ele>0.0</ele><time>2026-05-02T15:38:22Z</time></trkpt><trkpt lat="44.83382538629285" lon="12.078948492819876"><ele>0.0</ele><time>2026-05-02T15:38:24Z</time></trkpt><trkpt lat="44.83382697375852" lon="12.078836766232008"><ele>0.0</ele><time>2026-05-02T15:38:26Z</time></trkpt><trkpt lat="44.833837822660534" lon="12.07872517675435"><ele>0.0</ele><time>2026-05-02T15:38:28Z</time></trkpt><trkpt lat="44.83384947938482" lon="12.078612570355181"><ele>0.0</ele><time>2026-05-02T15:38:30Z</time></trkpt><trkpt lat="44.8338573631984" lon="12.07850327201857"><ele>0.0</ele><time>2026-05-02T15:38:32Z</time></trkpt><trkpt lat="44.833869503297045" lon="12.078400054762275"><ele>0.0</ele><time>2026-05-02T15:38:34Z</time></trkpt><trkpt lat="44.83388283638561" lon="12.078301108113076"><ele>0.0</ele><time>2026-05-02T15:38:36Z</time></trkpt><trkpt lat="44.83389538232384" lon="12.078170948343518"><ele>0.0</ele><time>2026-05-02T15:38:39Z</time></trkpt><trkpt lat="44.833909249309144" lon="12.07803169248548"><ele>0.0</ele><time>2026-05-02T15:38:42Z</time></trkpt><trkpt lat="44.83392529806381" lon="12.077927529100041"><ele>-0.16666666666666666</ele><time>2026-05-02T15:38:44Z</time></trkpt><trkpt lat="44.83394147224792" lon="12.077816392046273"><ele>-0.3333333333333333</ele><time>2026-05-02T15:38:46Z</time></trkpt><trkpt lat="44.83394925766971" lon="12.07770469845567"><ele>-0.5</ele><time>2026-05-02T15:38:48Z</time></trkpt><trkpt lat="44.83396122876712" lon="12.077595928010409"><ele>-0.6666666666666666</ele><time>2026-05-02T15:38:50Z</time></trkpt><trkpt lat="44.83397253340627" lon="12.077483632336072"><ele>-0.8333333333333333</ele><time>2026-05-02T15:38:52Z</time></trkpt><trkpt lat="44.833981391303254" lon="12.077375768799932"><ele>-1.0</ele><time>2026-05-02T15:38:54Z</time></trkpt><trkpt lat="44.83399342568878" lon="12.077273567685038"><ele>-1.1666666666666665</ele><time>2026-05-02T15:38:56Z</time></trkpt><trkpt lat="44.834004683883634" lon="12.07716875527178"><ele>-1.3333333333333333</ele><time>2026-05-02T15:38:58Z</time></trkpt><trkpt lat="44.834016854376976" lon="12.077055233901582"><ele>-1.5</ele><time>2026-05-02T15:39:00Z</time></trkpt><trkpt lat="44.8340427381803" lon="12.076945995789357"><ele>-1.6666666666666665</ele><time>2026-05-02T15:39:02Z</time></trkpt><trkpt lat="44.83405532476535" lon="12.076832021681826"><ele>-1.8333333333333333</ele><time>2026-05-02T15:39:04Z</time></trkpt><trkpt lat="44.83406690623321" lon="12.076718148089766"><ele>-2.0</ele><time>2026-05-02T15:39:06Z</time></trkpt><trkpt lat="44.834078729260284" lon="12.076601899654639"><ele>-2.0</ele><time>2026-05-02T15:39:08Z</time></trkpt><trkpt lat="44.83409036694072" lon="12.076487021085427"><ele>-2.0</ele><time>2026-05-02T15:39:10Z</time></trkpt><trkpt lat="44.83410285247132" lon="12.076360777631992"><ele>-2.0</ele><time>2026-05-02T15:39:12Z</time></trkpt><trkpt lat="44.83410123969375" lon="12.076217485172291"><ele>-2.0</ele><time>2026-05-02T15:39:14Z</time></trkpt><trkpt lat="44.834112857867915" lon="12.076078246928343"><ele>-2.0</ele><time>2026-05-02T15:39:16Z</time></trkpt><trkpt lat="44.83412747652854" lon="12.075949518804508"><ele>-1.9999999999999998</ele><time>2026-05-02T15:39:18Z</time></trkpt><trkpt lat="44.83415055014465" lon="12.075827890518283"><ele>-2.0</ele><time>2026-05-02T15:39:20Z</time></trkpt><trkpt lat="44.834159403387545" lon="12.075713456881273"><ele>-2.0</ele><time>2026-05-02T15:39:22Z</time></trkpt><trkpt lat="44.83416776293427" lon="12.075600019740547"><ele>-2.0</ele><time>2026-05-02T15:39:24Z</time></trkpt><trkpt lat="44.834170268792555" lon="12.075501045619777"><ele>-1.9999999999999998</ele><time>2026-05-02T15:39:26Z</time></trkpt><trkpt lat="44.8341802539952" lon="12.075405237033312"><ele>-2.0</ele><time>2026-05-02T15:39:28Z</time></trkpt><trkpt lat="44.83419165869665" lon="12.075284379099454"><ele>-1.8333333333333333</ele><time>2026-05-02T15:39:30Z</time></trkpt><trkpt lat="44.83420367651587" lon="12.07516644739929"><ele>-1.6666666666666665</ele><time>2026-05-02T15:39:32Z</time></trkpt><trkpt lat="44.83422159682181" lon="12.075060989191194"><ele>-1.5</ele><time>2026-05-02T15:39:34Z</time></trkpt><trkpt lat="44.83423018480644" lon="12.074964592488069"><ele>-1.3333333333333333</ele><time>2026-05-02T15:39:36Z</time></trkpt><trkpt lat="44.83424074705342" lon="12.074846035060903"><ele>-1.1666666666666665</ele><time>2026-05-02T15:39:39Z</time></trkpt><trkpt lat="44.83424986760618" lon="12.074744138106919"><ele>-1.0</ele><time>2026-05-02T15:39:42Z</time></trkpt><trkpt lat="44.8342610417945" lon="12.074621084066628"><ele>-0.9999999999999999</ele><time>2026-05-02T15:39:46Z</time></trkpt><trkpt lat="44.834270059679284" lon="12.074513229518645"><ele>-1.0</ele><time>2026-05-02T15:39:48Z</time></trkpt><trkpt lat="44.834278887696584" lon="12.074403904729882"><ele>-1.0</ele><time>2026-05-02T15:39:50Z</time></trkpt><trkpt lat="44.83428798185501" lon="12.07429128418569"><ele>-1.0</ele><time>2026-05-02T15:39:52Z</time></trkpt><trkpt lat="44.834282010915274" lon="12.074173554668816"><ele>-0.9999999999999999</ele><time>2026-05-02T15:39:54Z</time></trkpt><trkpt lat="44.83430613716874" lon="12.074066451781816"><ele>-1.0</ele><time>2026-05-02T15:39:56Z</time></trkpt><trkpt lat="44.834315188008425" lon="12.073952929567497"><ele>-0.8333333333333333</ele><time>2026-05-02T15:39:58Z</time></trkpt><trkpt lat="44.83432291526236" lon="12.073851199209619"><ele>-0.6666666666666666</ele><time>2026-05-02T15:40:00Z</time></trkpt><trkpt lat="44.83433018805122" lon="12.073755451828962"><ele>-0.5</ele><time>2026-05-02T15:40:02Z</time></trkpt><trkpt lat="44.834340616754666" lon="12.073617126514133"><ele>-0.3333333333333333</ele><time>2026-05-02T15:40:04.999Z</time></trkpt><trkpt lat="44.834348695468385" lon="12.073509245976606"><ele>-0.16666666666666666</ele><time>2026-05-02T15:40:06.999Z</time></trkpt><trkpt lat="44.83435709328415" lon="12.073397103763275"><ele>0.0</ele><time>2026-05-02T15:40:08.999Z</time></trkpt><trkpt lat="44.83436509588659" lon="12.073283257452234"><ele>-0.16666666666666666</ele><time>2026-05-02T15:40:10.999Z</time></trkpt><trkpt lat="44.83437283495204" lon="12.073172230117885"><ele>-0.3333333333333333</ele><time>2026-05-02T15:40:12.999Z</time></trkpt><trkpt lat="44.83438032459667" lon="12.073064780951501"><ele>-0.5</ele><time>2026-05-02T15:40:14.999Z</time></trkpt><trkpt lat="44.83438730019378" lon="12.072964706630893"><ele>-0.6666666666666666</ele><time>2026-05-02T15:40:17Z</time></trkpt><trkpt lat="44.83439444022144" lon="12.07286227334861"><ele>-0.8333333333333333</ele><time>2026-05-02T15:40:19Z</time></trkpt><trkpt lat="44.8344016639771" lon="12.072758638761453"><ele>-1.0</ele><time>2026-05-02T15:40:21Z</time></trkpt><trkpt lat="44.83440918854729" lon="12.072650688618426"><ele>-1.0</ele><time>2026-05-02T15:40:23Z</time></trkpt><trkpt lat="44.83441704347601" lon="12.07253799928787"><ele>-0.9999999999999999</ele><time>2026-05-02T15:40:25Z</time></trkpt><trkpt lat="44.83442349230411" lon="12.072430529908578"><ele>-1.0</ele><time>2026-05-02T15:40:27Z</time></trkpt><trkpt lat="44.834430115803734" lon="12.072320301814667"><ele>-1.0</ele><time>2026-05-02T15:40:29Z</time></trkpt><trkpt lat="44.834435637706385" lon="12.072218201454465"><ele>-0.9999999999999999</ele><time>2026-05-02T15:40:31Z</time></trkpt><trkpt lat="44.83444038986266" lon="12.072119220744163"><ele>-1.0</ele><time>2026-05-02T15:40:33Z</time></trkpt><trkpt lat="44.8344450687418" lon="12.072019060219956"><ele>-1.0</ele><time>2026-05-02T15:40:35Z</time></trkpt><trkpt lat="44.83444910990709" lon="12.071926822395078"><ele>-1.0</ele><time>2026-05-02T15:40:37Z</time></trkpt><trkpt lat="44.83445464234746" lon="12.071800546768706"><ele>-0.9999999999999999</ele><time>2026-05-02T15:40:40Z</time></trkpt><trkpt lat="44.83444813214117" lon="12.07170367111106"><ele>-1.0</ele><time>2026-05-02T15:40:42Z</time></trkpt><trkpt lat="44.83444803189593" lon="12.071595555787985"><ele>-1.0</ele><time>2026-05-02T15:40:44Z</time></trkpt><trkpt lat="44.83446248769736" lon="12.071500599030019"><ele>-0.9999999999999999</ele><time>2026-05-02T15:40:46Z</time></trkpt><trkpt lat="44.834448702865785" lon="12.071409615284942"><ele>-1.0</ele><time>2026-05-02T15:40:48Z</time></trkpt><trkpt lat="44.83445035565986" lon="12.071301976478342"><ele>-1.0</ele><time>2026-05-02T15:40:50Z</time></trkpt><trkpt lat="44.834450195636165" lon="12.071189881161791"><ele>-0.8571428571428571</ele><time>2026-05-02T15:40:52Z</time></trkpt><trkpt lat="44.83445731669521" lon="12.071082536400828"><ele>-0.7142857142857142</ele><time>2026-05-02T15:40:54Z</time></trkpt><trkpt lat="44.83445182804426" lon="12.070982801488785"><ele>-0.5714285714285714</ele><time>2026-05-02T15:40:56Z</time></trkpt><trkpt lat="44.834442483352376" lon="12.070881270169753"><ele>-0.42857142857142855</ele><time>2026-05-02T15:40:58Z</time></trkpt><trkpt lat="44.83442751532064" lon="12.07078645665683"><ele>-0.2857142857142857</ele><time>2026-05-02T15:41:00Z</time></trkpt><trkpt lat="44.83440615882931" lon="12.070666600062642"><ele>-0.14285714285714285</ele><time>2026-05-02T15:41:03Z</time></trkpt><trkpt lat="44.83439313544889" lon="12.070576046561353"><ele>0.0</ele><time>2026-05-02T15:41:05Z</time></trkpt><trkpt lat="44.8343797983966" lon="12.070476243593564"><ele>0.0</ele><time>2026-05-02T15:41:08Z</time></trkpt><trkpt lat="44.83436525396765" lon="12.070357950864162"><ele>0.0</ele><time>2026-05-02T15:41:11Z</time></trkpt><trkpt lat="44.83435448560024" lon="12.070267798479954"><ele>0.0</ele><time>2026-05-02T15:41:14Z</time></trkpt><trkpt lat="44.83434118432774" lon="12.070156440992125"><ele>0.0</ele><time>2026-05-02T15:41:18Z</time></trkpt><trkpt lat="44.834328105806215" lon="12.07004694816314"><ele>0.0</ele><time>2026-05-02T15:41:22Z</time></trkpt><trkpt lat="44.8343142438469" lon="12.069930896328092"><ele>0.0</ele><time>2026-05-02T15:41:25Z</time></trkpt><trkpt lat="44.83429838660875" lon="12.069798140255298"><ele>0.0</ele><time>2026-05-02T15:41:28Z</time></trkpt><trkpt lat="44.83428077219154" lon="12.069683095676092"><ele>0.0</ele><time>2026-05-02T15:41:31Z</time></trkpt><trkpt lat="44.83427025269572" lon="12.06957896901543"><ele>0.0</ele><time>2026-05-02T15:41:34Z</time></trkpt><trkpt lat="44.83425855326332" lon="12.069478213253797"><ele>0.0</ele><time>2026-05-02T15:41:38Z</time></trkpt><trkpt lat="44.83424622229702" lon="12.06938105732857"><ele>0.0</ele><time>2026-05-02T15:41:42Z</time></trkpt><trkpt lat="44.834230701504325" lon="12.069276700626029"><ele>0.0</ele><time>2026-05-02T15:41:46Z</time></trkpt><trkpt lat="44.83422003401828" lon="12.06917487446628"><ele>0.0</ele><time>2026-05-02T15:48:33.999Z</time></trkpt><trkpt lat="44.834204046816375" lon="12.069060071382756"><ele>0.0</ele><time>2026-05-02T15:48:36.999Z</time></trkpt><trkpt lat="44.83418920994298" lon="12.068973536672198"><ele>0.0</ele><time>2026-05-02T15:48:38.999Z</time></trkpt><trkpt lat="44.83417292651117" lon="12.068871237902416"><ele>0.0</ele><time>2026-05-02T15:48:41Z</time></trkpt><trkpt lat="44.83415019804451" lon="12.068751715812615"><ele>0.0</ele><time>2026-05-02T15:48:43Z</time></trkpt><trkpt lat="44.8341334181878" lon="12.068640346558258"><ele>0.0</ele><time>2026-05-02T15:48:45Z</time></trkpt><trkpt lat="44.83412132277752" lon="12.068536961254408"><ele>0.0</ele><time>2026-05-02T15:48:47Z</time></trkpt><trkpt lat="44.83410163336189" lon="12.068442390528373"><ele>0.0</ele><time>2026-05-02T15:48:49Z</time></trkpt><trkpt lat="44.83408880651832" lon="12.06834272699497"><ele>0.0</ele><time>2026-05-02T15:48:51Z</time></trkpt><trkpt lat="44.83407254568874" lon="12.068226111098056"><ele>0.0</ele><time>2026-05-02T15:48:53Z</time></trkpt><trkpt lat="44.83405632676085" lon="12.068122676170384"><ele>0.0</ele><time>2026-05-02T15:48:55Z</time></trkpt><trkpt lat="44.83403770107315" lon="12.068017973746366"><ele>0.0</ele><time>2026-05-02T15:48:57Z</time></trkpt><trkpt lat="44.83401780461315" lon="12.067892014941728"><ele>0.0</ele><time>2026-05-02T15:48:59Z</time></trkpt><trkpt lat="44.833999966515826" lon="12.067772035255498"><ele>0.0</ele><time>2026-05-02T15:49:01Z</time></trkpt><trkpt lat="44.83397910214254" lon="12.067661257705716"><ele>0.0</ele><time>2026-05-02T15:49:03Z</time></trkpt><trkpt lat="44.8339642637395" lon="12.067540388633725"><ele>0.0</ele><time>2026-05-02T15:49:05Z</time></trkpt><trkpt lat="44.833944593307784" lon="12.067427392989956"><ele>0.0</ele><time>2026-05-02T15:49:07Z</time></trkpt><trkpt lat="44.83393129210071" lon="12.06732055428484"><ele>0.0</ele><time>2026-05-02T15:49:09Z</time></trkpt><trkpt lat="44.833918811114884" lon="12.067226044923153"><ele>0.0</ele><time>2026-05-02T15:49:11Z</time></trkpt><trkpt lat="44.83390905406513" lon="12.06713400188217"><ele>-0.16666666666666666</ele><time>2026-05-02T15:49:13Z</time></trkpt><trkpt lat="44.83387714544184" lon="12.067007115707657"><ele>-0.3333333333333333</ele><time>2026-05-02T15:49:16Z</time></trkpt><trkpt lat="44.83385997333345" lon="12.066880884078696"><ele>-0.5</ele><time>2026-05-02T15:49:19Z</time></trkpt><trkpt lat="44.83384973716842" lon="12.066777375282417"><ele>-0.6666666666666666</ele><time>2026-05-02T15:49:21Z</time></trkpt><trkpt lat="44.83382308755108" lon="12.066657177644258"><ele>-0.8333333333333333</ele><time>2026-05-02T15:49:24Z</time></trkpt><trkpt lat="44.83379904534075" lon="12.066568089063754"><ele>-1.0</ele><time>2026-05-02T15:49:26Z</time></trkpt><trkpt lat="44.83378210337434" lon="12.066458714659145"><ele>-0.9999999999999999</ele><time>2026-05-02T15:49:28Z</time></trkpt><trkpt lat="44.833754621694986" lon="12.066354895625105"><ele>-1.0</ele><time>2026-05-02T15:49:30Z</time></trkpt><trkpt lat="44.83372863312015" lon="12.066266582264479"><ele>-1.0</ele><time>2026-05-02T15:49:32Z</time></trkpt><trkpt lat="44.83370870448932" lon="12.066178872650184"><ele>-1.0</ele><time>2026-05-02T15:49:34Z</time></trkpt><trkpt lat="44.83368610648905" lon="12.06609581853586"><ele>-0.9999999999999999</ele><time>2026-05-02T15:49:36Z</time></trkpt><trkpt lat="44.83365697508109" lon="12.065982130830715"><ele>-1.0</ele><time>2026-05-02T15:49:38Z</time></trkpt><trkpt lat="44.83362956923179" lon="12.065859858718344"><ele>-0.8333333333333333</ele><time>2026-05-02T15:49:40Z</time></trkpt><trkpt lat="44.83359334156799" lon="12.065734927632596"><ele>-0.6666666666666666</ele><time>2026-05-02T15:49:42Z</time></trkpt><trkpt lat="44.833565547087744" lon="12.06561363201981"><ele>-0.5</ele><time>2026-05-02T15:49:44Z</time></trkpt><trkpt lat="44.83354177715955" lon="12.065495095042865"><ele>-0.3333333333333333</ele><time>2026-05-02T15:49:46Z</time></trkpt><trkpt lat="44.83351258416329" lon="12.065385131957099"><ele>-0.16666666666666666</ele><time>2026-05-02T15:49:48Z</time></trkpt><trkpt lat="44.83350496302953" lon="12.06527175912316"><ele>0.0</ele><time>2026-05-02T15:49:50Z</time></trkpt><trkpt lat="44.833483522347336" lon="12.065161612301864"><ele>0.0</ele><time>2026-05-02T15:49:52Z</time></trkpt><trkpt lat="44.833480398800106" lon="12.06504456709977"><ele>0.0</ele><time>2026-05-02T15:49:54Z</time></trkpt><trkpt lat="44.83346417732958" lon="12.0649330403785"><ele>0.0</ele><time>2026-05-02T15:49:56Z</time></trkpt><trkpt lat="44.833461065433696" lon="12.064818129708469"><ele>0.0</ele><time>2026-05-02T15:49:58Z</time></trkpt><trkpt lat="44.83345470017747" lon="12.064702857808296"><ele>0.0</ele><time>2026-05-02T15:49:59.999Z</time></trkpt><trkpt lat="44.833454743227385" lon="12.064587949200014"><ele>0.0</ele><time>2026-05-02T15:50:01.999Z</time></trkpt><trkpt lat="44.833455395530684" lon="12.064470170713642"><ele>-0.3333333333333333</ele><time>2026-05-02T15:50:03.999Z</time></trkpt><trkpt lat="44.83345683257694" lon="12.064355935134458"><ele>-0.6666666666666666</ele><time>2026-05-02T15:50:05.999Z</time></trkpt><trkpt lat="44.83345346484323" lon="12.064256101704911"><ele>-1.0</ele><time>2026-05-02T15:50:07.999Z</time></trkpt><trkpt lat="44.83346176382375" lon="12.064158779241888"><ele>-1.3333333333333333</ele><time>2026-05-02T15:50:11.999Z</time></trkpt><trkpt lat="44.83344722227485" lon="12.064274900163873"><ele>-1.6666666666666665</ele><time>2026-05-02T15:50:18.999Z</time></trkpt><trkpt lat="44.83341640789909" lon="12.064375711227793"><ele>-2.0</ele><time>2026-05-02T15:50:21.999Z</time></trkpt><trkpt lat="44.833466527218235" lon="12.064473557006144"><ele>-1.9999999999999998</ele><time>2026-05-02T15:50:49Z</time></trkpt><trkpt lat="44.83345637705933" lon="12.064573278836267"><ele>-2.0</ele><time>2026-05-02T15:50:53Z</time></trkpt><trkpt lat="44.83344785262538" lon="12.064483083085086"><ele>-2.0</ele><time>2026-05-02T15:55:31Z</time></trkpt><trkpt lat="44.83345225057798" lon="12.064375450210242"><ele>-2.0</ele><time>2026-05-02T15:55:33Z</time></trkpt><trkpt lat="44.83344486400395" lon="12.06426530030114"><ele>-1.9999999999999998</ele><time>2026-05-02T15:55:36Z</time></trkpt><trkpt lat="44.833446355034596" lon="12.064144168168966"><ele>-2.0</ele><time>2026-05-02T15:55:40Z</time></trkpt><trkpt lat="44.83344640834959" lon="12.06401802504029"><ele>-2.1666666666666665</ele><time>2026-05-02T15:55:43Z</time></trkpt><trkpt lat="44.83344457032626" lon="12.063916055370301"><ele>-2.333333333333333</ele><time>2026-05-02T15:55:45Z</time></trkpt><trkpt lat="44.8334411847261" lon="12.063790631061977"><ele>-2.5</ele><time>2026-05-02T15:55:48Z</time></trkpt><trkpt lat="44.83344990637222" lon="12.063651968698558"><ele>-2.6666666666666665</ele><time>2026-05-02T15:55:51Z</time></trkpt><trkpt lat="44.83344864128514" lon="12.063525650966984"><ele>-2.8333333333333335</ele><time>2026-05-02T15:55:53Z</time></trkpt><trkpt lat="44.833452237751445" lon="12.063409455821375"><ele>-3.0</ele><time>2026-05-02T15:55:55Z</time></trkpt><trkpt lat="44.83346092832316" lon="12.063299011668143"><ele>-2.6666666666666665</ele><time>2026-05-02T15:55:57Z</time></trkpt><trkpt lat="44.83347336921957" lon="12.063202049169409"><ele>-2.3333333333333335</ele><time>2026-05-02T15:55:59Z</time></trkpt><trkpt lat="44.833487925396135" lon="12.063111292024361"><ele>-2.0</ele><time>2026-05-02T15:56:01Z</time></trkpt><trkpt lat="44.83350970531308" lon="12.06300059329651"><ele>-1.6666666666666665</ele><time>2026-05-02T15:56:04Z</time></trkpt><trkpt lat="44.83353949685866" lon="12.062891081876423"><ele>-1.3333333333333333</ele><time>2026-05-02T15:56:07Z</time></trkpt><trkpt lat="44.833570178443445" lon="12.062776629473879"><ele>-1.0</ele><time>2026-05-02T15:56:10Z</time></trkpt><trkpt lat="44.83359607129007" lon="12.062679211067307"><ele>-0.9999999999999999</ele><time>2026-05-02T15:56:13Z</time></trkpt><trkpt lat="44.83362857127548" lon="12.06259485555918"><ele>-1.0</ele><time>2026-05-02T15:56:15Z</time></trkpt><trkpt lat="44.8336655209036" lon="12.062481523917377"><ele>-1.0</ele><time>2026-05-02T15:56:17Z</time></trkpt><trkpt lat="44.833700433686815" lon="12.062367676709044"><ele>-1.0</ele><time>2026-05-02T15:56:19Z</time></trkpt><trkpt lat="44.83373537860157" lon="12.062261059303585"><ele>-0.9999999999999999</ele><time>2026-05-02T15:56:21Z</time></trkpt><trkpt lat="44.83377249287709" lon="12.062155759633054"><ele>-1.0</ele><time>2026-05-02T15:56:22.999Z</time></trkpt><trkpt lat="44.83381069978775" lon="12.062037567667632"><ele>-0.8</ele><time>2026-05-02T15:56:24.999Z</time></trkpt><trkpt lat="44.83385137284465" lon="12.061919693433854"><ele>-0.6000000000000001</ele><time>2026-05-02T15:56:26.999Z</time></trkpt><trkpt lat="44.833889914149104" lon="12.06180039745356"><ele>-0.4</ele><time>2026-05-02T15:56:28.999Z</time></trkpt><trkpt lat="44.833924905606864" lon="12.061678999310567"><ele>-0.2</ele><time>2026-05-02T15:56:30.999Z</time></trkpt><trkpt lat="44.83396295821571" lon="12.06156544886569"><ele>0.0</ele><time>2026-05-02T15:56:32.999Z</time></trkpt><trkpt lat="44.83399303477512" lon="12.061453162332306"><ele>0.0</ele><time>2026-05-02T15:56:34.999Z</time></trkpt><trkpt lat="44.83402109841037" lon="12.061347555459381"><ele>0.0</ele><time>2026-05-02T15:56:36.999Z</time></trkpt><trkpt lat="44.834044472979116" lon="12.061243616828989"><ele>0.0</ele><time>2026-05-02T15:56:38.999Z</time></trkpt><trkpt lat="44.8340668128211" lon="12.061121995183615"><ele>0.0</ele><time>2026-05-02T15:56:40.999Z</time></trkpt><trkpt lat="44.834087633336786" lon="12.061000687933618"><ele>0.0</ele><time>2026-05-02T15:56:42.999Z</time></trkpt><trkpt lat="44.834101390307616" lon="12.060887900384845"><ele>0.0</ele><time>2026-05-02T15:56:44.999Z</time></trkpt><trkpt lat="44.83412070553772" lon="12.06078537456111"><ele>-0.16666666666666666</ele><time>2026-05-02T15:56:46.999Z</time></trkpt><trkpt lat="44.834127189804654" lon="12.060681571319126"><ele>-0.3333333333333333</ele><time>2026-05-02T15:56:48.999Z</time></trkpt><trkpt lat="44.83414180880222" lon="12.060567854081775"><ele>-0.5</ele><time>2026-05-02T15:56:50.999Z</time></trkpt><trkpt lat="44.83415310763293" lon="12.06043949039538"><ele>-0.6666666666666666</ele><time>2026-05-02T15:56:52.999Z</time></trkpt><trkpt lat="44.83416934102358" lon="12.060310448215462"><ele>-0.8333333333333333</ele><time>2026-05-02T15:56:54.999Z</time></trkpt><trkpt lat="44.83418064987753" lon="12.060189066093105"><ele>-1.0</ele><time>2026-05-02T15:56:56.999Z</time></trkpt><trkpt lat="44.83419525617711" lon="12.060057216421855"><ele>-0.9999999999999999</ele><time>2026-05-02T15:56:58.999Z</time></trkpt><trkpt lat="44.83421111925266" lon="12.05992736273642"><ele>-1.0</ele><time>2026-05-02T15:57:00.999Z</time></trkpt><trkpt lat="44.834225415887296" lon="12.059800796230236"><ele>-1.0</ele><time>2026-05-02T15:57:02.999Z</time></trkpt><trkpt lat="44.83423957787093" lon="12.059684572200497"><ele>-1.0</ele><time>2026-05-02T15:57:05Z</time></trkpt><trkpt lat="44.83424568992814" lon="12.059572618659343"><ele>-0.9999999999999999</ele><time>2026-05-02T15:57:07Z</time></trkpt><trkpt lat="44.83425994087091" lon="12.059448422627012"><ele>-1.0</ele><time>2026-05-02T15:57:09Z</time></trkpt><trkpt lat="44.83427714419214" lon="12.059319003898782"><ele>-0.9999999999999999</ele><time>2026-05-02T15:57:11Z</time></trkpt><trkpt lat="44.83428313993198" lon="12.059192968627196"><ele>-1.0</ele><time>2026-05-02T15:57:13Z</time></trkpt><trkpt lat="44.834299567492955" lon="12.059077693000537"><ele>-1.0</ele><time>2026-05-02T15:57:15Z</time></trkpt><trkpt lat="44.83430860741142" lon="12.058970696435582"><ele>-1.0</ele><time>2026-05-02T15:57:17Z</time></trkpt><trkpt lat="44.83431571114021" lon="12.058867865211221"><ele>-0.9999999999999999</ele><time>2026-05-02T15:57:19Z</time></trkpt><trkpt lat="44.83432555353954" lon="12.05875228016504"><ele>-1.0</ele><time>2026-05-02T15:57:21Z</time></trkpt><trkpt lat="44.83433819514126" lon="12.05862434890711"><ele>-0.8333333333333333</ele><time>2026-05-02T15:57:23Z</time></trkpt><trkpt lat="44.83434680279735" lon="12.058495352493173"><ele>-0.6666666666666666</ele><time>2026-05-02T15:57:25Z</time></trkpt><trkpt lat="44.834353860365056" lon="12.058375952557006"><ele>-0.5</ele><time>2026-05-02T15:57:27Z</time></trkpt><trkpt lat="44.83436032214667" lon="12.058262186778967"><ele>-0.3333333333333333</ele><time>2026-05-02T15:57:29Z</time></trkpt><trkpt lat="44.8343672960053" lon="12.058157075401747"><ele>-0.16666666666666666</ele><time>2026-05-02T15:57:31Z</time></trkpt><trkpt lat="44.8343687602456" lon="12.058055155827791"><ele>0.0</ele><time>2026-05-02T15:57:33Z</time></trkpt><trkpt lat="44.83437457211675" lon="12.057959817781166"><ele>-0.16666666666666666</ele><time>2026-05-02T15:57:35Z</time></trkpt><trkpt lat="44.83437849357207" lon="12.0578643613104"><ele>-0.3333333333333333</ele><time>2026-05-02T15:57:37Z</time></trkpt><trkpt lat="44.834381699011814" lon="12.057746746685542"><ele>-0.5</ele><time>2026-05-02T15:57:39Z</time></trkpt><trkpt lat="44.83437920468608" lon="12.057613537878948"><ele>-0.6666666666666666</ele><time>2026-05-02T15:57:41Z</time></trkpt><trkpt lat="44.83438259090239" lon="12.057479005717267"><ele>-0.8333333333333333</ele><time>2026-05-02T15:57:43Z</time></trkpt><trkpt lat="44.83438234001871" lon="12.057342234392664"><ele>-1.0</ele><time>2026-05-02T15:57:45Z</time></trkpt><trkpt lat="44.834381244871565" lon="12.057212305152555"><ele>-1.0</ele><time>2026-05-02T15:57:47Z</time></trkpt><trkpt lat="44.8343841290142" lon="12.057087294183418"><ele>-1.0</ele><time>2026-05-02T15:57:49Z</time></trkpt><trkpt lat="44.83438835270604" lon="12.056959827231434"><ele>-1.0</ele><time>2026-05-02T15:57:51Z</time></trkpt><trkpt lat="44.834388281096366" lon="12.056823881871859"><ele>-1.0</ele><time>2026-05-02T15:57:53Z</time></trkpt><trkpt lat="44.83438957325337" lon="12.056688304056916"><ele>-1.0</ele><time>2026-05-02T15:57:55Z</time></trkpt><trkpt lat="44.83439152685418" lon="12.05655244284955"><ele>-1.0</ele><time>2026-05-02T15:57:57Z</time></trkpt><trkpt lat="44.83438944032132" lon="12.05641860668661"><ele>-1.0</ele><time>2026-05-02T15:57:59Z</time></trkpt><trkpt lat="44.83439015162994" lon="12.056281105975607"><ele>-1.0</ele><time>2026-05-02T15:58:01Z</time></trkpt><trkpt lat="44.8343933990612" lon="12.056146300733165"><ele>-1.0</ele><time>2026-05-02T15:58:03Z</time></trkpt><trkpt lat="44.83438548980438" lon="12.056011578213367"><ele>-1.0</ele><time>2026-05-02T15:58:05Z</time></trkpt><trkpt lat="44.83439132556227" lon="12.055876729789638"><ele>-0.8333333333333333</ele><time>2026-05-02T15:58:07Z</time></trkpt><trkpt lat="44.834389659802085" lon="12.055743058173508"><ele>-0.6666666666666666</ele><time>2026-05-02T15:58:09Z</time></trkpt><trkpt lat="44.8343889220376" lon="12.055606466642567"><ele>-0.5</ele><time>2026-05-02T15:58:10.999Z</time></trkpt><trkpt lat="44.83438656111759" lon="12.055477033634533"><ele>-0.3333333333333333</ele><time>2026-05-02T15:58:12.999Z</time></trkpt><trkpt lat="44.83438953859197" lon="12.055358148347224"><ele>-0.16666666666666666</ele><time>2026-05-02T15:58:14.999Z</time></trkpt><trkpt lat="44.83438678371401" lon="12.055245677377444"><ele>0.0</ele><time>2026-05-02T15:58:16.999Z</time></trkpt><trkpt lat="44.834383415557596" lon="12.055145326925471"><ele>0.0</ele><time>2026-05-02T15:58:18.999Z</time></trkpt><trkpt lat="44.83438605108961" lon="12.055047988145581"><ele>0.0</ele><time>2026-05-02T15:58:20.999Z</time></trkpt><trkpt lat="44.834380371007" lon="12.054933321644093"><ele>0.0</ele><time>2026-05-02T15:58:22.999Z</time></trkpt><trkpt lat="44.83437832494431" lon="12.054800208324146"><ele>0.0</ele><time>2026-05-02T15:58:24.999Z</time></trkpt><trkpt lat="44.83437217187185" lon="12.054665919064226"><ele>0.0</ele><time>2026-05-02T15:58:26.999Z</time></trkpt><trkpt lat="44.83436704400204" lon="12.054529752737183"><ele>0.0</ele><time>2026-05-02T15:58:28.999Z</time></trkpt><trkpt lat="44.83435614915942" lon="12.054394518149289"><ele>0.0</ele><time>2026-05-02T15:58:30.999Z</time></trkpt><trkpt lat="44.834355010308734" lon="12.054259997912228"><ele>0.0</ele><time>2026-05-02T15:58:32.999Z</time></trkpt><trkpt lat="44.83434288843452" lon="12.054123979162283"><ele>0.0</ele><time>2026-05-02T15:58:34.999Z</time></trkpt><trkpt lat="44.83433659275038" lon="12.053990424101965"><ele>0.0</ele><time>2026-05-02T15:58:36.999Z</time></trkpt><trkpt lat="44.834328528161045" lon="12.05385837404725"><ele>0.0</ele><time>2026-05-02T15:58:38.999Z</time></trkpt><trkpt lat="44.834318911741946" lon="12.05372631384902"><ele>0.0</ele><time>2026-05-02T15:58:40.999Z</time></trkpt><trkpt lat="44.83431579961892" lon="12.053593884194747"><ele>0.0</ele><time>2026-05-02T15:58:42.999Z</time></trkpt><trkpt lat="44.83430153295239" lon="12.053460569484415"><ele>0.0</ele><time>2026-05-02T15:58:44.999Z</time></trkpt><trkpt lat="44.83428837919068" lon="12.053323786149077"><ele>0.0</ele><time>2026-05-02T15:58:46.999Z</time></trkpt><trkpt lat="44.83427787294085" lon="12.053190376344705"><ele>0.0</ele><time>2026-05-02T15:58:48.999Z</time></trkpt><trkpt lat="44.83426186005014" lon="12.053056313284658"><ele>0.0</ele><time>2026-05-02T15:58:50.999Z</time></trkpt><trkpt lat="44.83424377819892" lon="12.052924005697985"><ele>0.0</ele><time>2026-05-02T15:58:52.999Z</time></trkpt><trkpt lat="44.83422930297462" lon="12.052793220323363"><ele>0.0</ele><time>2026-05-02T15:58:54.999Z</time></trkpt><trkpt lat="44.83421121734868" lon="12.052659045194853"><ele>0.0</ele><time>2026-05-02T15:58:56.999Z</time></trkpt><trkpt lat="44.834184709653016" lon="12.052529025261862"><ele>0.0</ele><time>2026-05-02T15:58:58.999Z</time></trkpt><trkpt lat="44.834164098236855" lon="12.052399383496152"><ele>0.0</ele><time>2026-05-02T15:59:00.999Z</time></trkpt><trkpt lat="44.83414191238648" lon="12.052272266758608"><ele>0.0</ele><time>2026-05-02T15:59:02.999Z</time></trkpt><trkpt lat="44.83411283477335" lon="12.052158819531462"><ele>0.0</ele><time>2026-05-02T15:59:04.999Z</time></trkpt><trkpt lat="44.83409079046299" lon="12.052049057350091"><ele>0.0</ele><time>2026-05-02T15:59:06.999Z</time></trkpt><trkpt lat="44.83405595886837" lon="12.051950188973764"><ele>0.0</ele><time>2026-05-02T15:59:08.999Z</time></trkpt><trkpt lat="44.83403578012285" lon="12.051848157246004"><ele>0.0</ele><time>2026-05-02T15:59:11Z</time></trkpt><trkpt lat="44.834001460715506" lon="12.051743728773124"><ele>0.0</ele><time>2026-05-02T15:59:13Z</time></trkpt><trkpt lat="44.833979274591854" lon="12.051636240969346"><ele>0.0</ele><time>2026-05-02T15:59:15Z</time></trkpt><trkpt lat="44.833949468988365" lon="12.05153204990593"><ele>0.0</ele><time>2026-05-02T15:59:17Z</time></trkpt><trkpt lat="44.83392500246695" lon="12.051428427775082"><ele>0.0</ele><time>2026-05-02T15:59:19Z</time></trkpt><trkpt lat="44.83389597303464" lon="12.051334120595342"><ele>0.0</ele><time>2026-05-02T15:59:21Z</time></trkpt><trkpt lat="44.83387236638941" lon="12.05125084980764"><ele>0.0</ele><time>2026-05-02T15:59:23Z</time></trkpt><trkpt lat="44.83383959589282" lon="12.051161022866975"><ele>0.0</ele><time>2026-05-02T15:59:25Z</time></trkpt><trkpt lat="44.833815539381426" lon="12.05105875201825"><ele>0.0</ele><time>2026-05-02T15:59:27Z</time></trkpt><trkpt lat="44.833785214156585" lon="12.050965390210692"><ele>0.0</ele><time>2026-05-02T15:59:29Z</time></trkpt><trkpt lat="44.83375610520397" lon="12.050877820379952"><ele>0.0</ele><time>2026-05-02T15:59:31Z</time></trkpt><trkpt lat="44.833725929881" lon="12.05078111059608"><ele>0.0</ele><time>2026-05-02T15:59:33Z</time></trkpt><trkpt lat="44.8336871084398" lon="12.050696573858048"><ele>0.0</ele><time>2026-05-02T15:59:35Z</time></trkpt><trkpt lat="44.83365975953586" lon="12.05061204607729"><ele>0.0</ele><time>2026-05-02T15:59:37Z</time></trkpt><trkpt lat="44.83362721846522" lon="12.050529685325792"><ele>0.0</ele><time>2026-05-02T15:59:39Z</time></trkpt><trkpt lat="44.83359428191191" lon="12.05043606344303"><ele>0.0</ele><time>2026-05-02T15:59:41Z</time></trkpt><trkpt lat="44.83355768455997" lon="12.050351179893104"><ele>0.0</ele><time>2026-05-02T15:59:43Z</time></trkpt><trkpt lat="44.83352733330783" lon="12.050271484675891"><ele>0.0</ele><time>2026-05-02T15:59:45Z</time></trkpt><trkpt lat="44.83349269353526" lon="12.050177940441154"><ele>0.0</ele><time>2026-05-02T15:59:47Z</time></trkpt><trkpt lat="44.833448276682745" lon="12.050083862122559"><ele>0.0</ele><time>2026-05-02T15:59:49Z</time></trkpt><trkpt lat="44.83341054964849" lon="12.04998837261485"><ele>0.0</ele><time>2026-05-02T15:59:51Z</time></trkpt><trkpt lat="44.83337703111573" lon="12.049896355184213"><ele>0.0</ele><time>2026-05-02T15:59:53Z</time></trkpt><trkpt lat="44.83333839336339" lon="12.049812645294741"><ele>0.16666666666666666</ele><time>2026-05-02T15:59:55Z</time></trkpt><trkpt lat="44.83330097698146" lon="12.049719350032131"><ele>0.3333333333333333</ele><time>2026-05-02T15:59:57Z</time></trkpt><trkpt lat="44.83326082420313" lon="12.049621737201797"><ele>0.5</ele><time>2026-05-02T15:59:59Z</time></trkpt><trkpt lat="44.833227587888715" lon="12.049519592498468"><ele>0.6666666666666666</ele><time>2026-05-02T16:00:01Z</time></trkpt><trkpt lat="44.833185016387866" lon="12.04942199275578"><ele>0.8333333333333333</ele><time>2026-05-02T16:00:03Z</time></trkpt><trkpt lat="44.833141965980765" lon="12.049327127173475"><ele>1.0</ele><time>2026-05-02T16:00:05Z</time></trkpt><trkpt lat="44.83310781655493" lon="12.049224814178514"><ele>0.9999999999999999</ele><time>2026-05-02T16:00:07Z</time></trkpt><trkpt lat="44.833069522737865" lon="12.049132989894181"><ele>1.0</ele><time>2026-05-02T16:00:09Z</time></trkpt><trkpt lat="44.83303782998674" lon="12.049038574206103"><ele>1.0</ele><time>2026-05-02T16:00:11Z</time></trkpt><trkpt lat="44.83299616522405" lon="12.048944164132873"><ele>1.0</ele><time>2026-05-02T16:00:13Z</time></trkpt><trkpt lat="44.83296070624405" lon="12.04884351535934"><ele>0.9999999999999999</ele><time>2026-05-02T16:00:15Z</time></trkpt><trkpt lat="44.83291753529731" lon="12.048748594991704"><ele>1.0</ele><time>2026-05-02T16:00:16.999Z</time></trkpt><trkpt lat="44.83288156078686" lon="12.04864605180593"><ele>0.8333333333333333</ele><time>2026-05-02T16:00:18.999Z</time></trkpt><trkpt lat="44.83283444871321" lon="12.048549798012925"><ele>0.6666666666666666</ele><time>2026-05-02T16:00:20.999Z</time></trkpt><trkpt lat="44.83279509585579" lon="12.048447584253314"><ele>0.5</ele><time>2026-05-02T16:00:22.999Z</time></trkpt><trkpt lat="44.83275525149855" lon="12.04834609681233"><ele>0.3333333333333333</ele><time>2026-05-02T16:00:24.999Z</time></trkpt><trkpt lat="44.83270909839787" lon="12.048250228084845"><ele>0.16666666666666666</ele><time>2026-05-02T16:00:26.999Z</time></trkpt><trkpt lat="44.832668442260044" lon="12.048146589661087"><ele>0.0</ele><time>2026-05-02T16:00:28.999Z</time></trkpt><trkpt lat="44.83262253346312" lon="12.048050912354498"><ele>-0.42857142857142855</ele><time>2026-05-02T16:00:30.999Z</time></trkpt><trkpt lat="44.83257871703288" lon="12.047949632743304"><ele>-0.8571428571428571</ele><time>2026-05-02T16:00:32.999Z</time></trkpt><trkpt lat="44.832533167797855" lon="12.047863166983475"><ele>-1.2857142857142856</ele><time>2026-05-02T16:00:34.999Z</time></trkpt><trkpt lat="44.83249784456489" lon="12.047776940788204"><ele>-1.7142857142857142</ele><time>2026-05-02T16:00:36.999Z</time></trkpt><trkpt lat="44.832453192638184" lon="12.047712748828568"><ele>-2.142857142857143</ele><time>2026-05-02T16:00:38.999Z</time></trkpt><trkpt lat="44.8324103037978" lon="12.047637013025351"><ele>-2.571428571428571</ele><time>2026-05-02T16:00:40.999Z</time></trkpt><trkpt lat="44.8323698135961" lon="12.047547814936774"><ele>-3.0</ele><time>2026-05-02T16:00:42.999Z</time></trkpt><trkpt lat="44.83231929056086" lon="12.047463789452378"><ele>-2.8571428571428568</ele><time>2026-05-02T16:00:44.999Z</time></trkpt><trkpt lat="44.832270308553724" lon="12.047376789894766"><ele>-2.7142857142857144</ele><time>2026-05-02T16:00:46.999Z</time></trkpt><trkpt lat="44.832214989421246" lon="12.047296311072952"><ele>-2.571428571428571</ele><time>2026-05-02T16:00:48.999Z</time></trkpt><trkpt lat="44.83216824879422" lon="12.047214396633482"><ele>-2.4285714285714284</ele><time>2026-05-02T16:00:50.999Z</time></trkpt><trkpt lat="44.832116210431636" lon="12.047147727048053"><ele>-2.2857142857142856</ele><time>2026-05-02T16:00:52.999Z</time></trkpt><trkpt lat="44.8320691079119" lon="12.047062133628588"><ele>-2.142857142857143</ele><time>2026-05-02T16:00:54.999Z</time></trkpt><trkpt lat="44.832023346460986" lon="12.046991334822318"><ele>-2.0</ele><time>2026-05-02T16:00:56.999Z</time></trkpt><trkpt lat="44.831968412592516" lon="12.046920226415104"><ele>-1.9999999999999998</ele><time>2026-05-02T16:00:58.999Z</time></trkpt><trkpt lat="44.83192064521596" lon="12.046838033439837"><ele>-2.0</ele><time>2026-05-02T16:01:00.999Z</time></trkpt><trkpt lat="44.83187236863132" lon="12.046767591699313"><ele>-2.0</ele><time>2026-05-02T16:01:02.999Z</time></trkpt><trkpt lat="44.83181903257389" lon="12.046690072792655"><ele>-2.0</ele><time>2026-05-02T16:01:04.999Z</time></trkpt><trkpt lat="44.83176799104547" lon="12.046616442301795"><ele>-1.9999999999999998</ele><time>2026-05-02T16:01:06.999Z</time></trkpt><trkpt lat="44.83171714165666" lon="12.046550775234397"><ele>-2.0</ele><time>2026-05-02T16:01:08.999Z</time></trkpt><trkpt lat="44.8316557744112" lon="12.046454707701646"><ele>-1.8333333333333333</ele><time>2026-05-02T16:01:11.999Z</time></trkpt><trkpt lat="44.831608449837645" lon="12.046389286266797"><ele>-1.6666666666666665</ele><time>2026-05-02T16:01:13.999Z</time></trkpt><trkpt lat="44.83154633430692" lon="12.046293748516693"><ele>-1.5</ele><time>2026-05-02T16:01:17Z</time></trkpt><trkpt lat="44.831473498539104" lon="12.046203997662126"><ele>-1.3333333333333333</ele><time>2026-05-02T16:01:20Z</time></trkpt><trkpt lat="44.831411652501934" lon="12.046103108408193"><ele>-1.1666666666666665</ele><time>2026-05-02T16:01:23Z</time></trkpt><trkpt lat="44.83135450222972" lon="12.046039599708525"><ele>-1.0</ele><time>2026-05-02T16:01:25Z</time></trkpt><trkpt lat="44.83131015880009" lon="12.045972618654295"><ele>-1.0</ele><time>2026-05-02T16:01:27Z</time></trkpt><trkpt lat="44.83126810152005" lon="12.04590232662863"><ele>-0.9999999999999999</ele><time>2026-05-02T16:01:29Z</time></trkpt><trkpt lat="44.831212893993175" lon="12.045829702498652"><ele>-1.0</ele><time>2026-05-02T16:01:31Z</time></trkpt><trkpt lat="44.831157438969484" lon="12.045752045601004"><ele>-1.0</ele><time>2026-05-02T16:01:33Z</time></trkpt><trkpt lat="44.831109401859216" lon="12.045683444065611"><ele>-0.9999999999999999</ele><time>2026-05-02T16:01:35Z</time></trkpt><trkpt lat="44.83106322490091" lon="12.045621414345586"><ele>-1.0</ele><time>2026-05-02T16:01:37Z</time></trkpt><trkpt lat="44.83101895660728" lon="12.045553622974802"><ele>-1.0</ele><time>2026-05-02T16:01:39Z</time></trkpt><trkpt lat="44.83096403800528" lon="12.045475360735065"><ele>-0.8333333333333333</ele><time>2026-05-02T16:01:41Z</time></trkpt><trkpt lat="44.83091420933721" lon="12.045405160079214"><ele>-0.6666666666666666</ele><time>2026-05-02T16:01:43Z</time></trkpt><trkpt lat="44.83084879310429" lon="12.045312234657224"><ele>-0.5</ele><time>2026-05-02T16:01:46Z</time></trkpt><trkpt lat="44.83079892422549" lon="12.045233798531845"><ele>-0.3333333333333333</ele><time>2026-05-02T16:01:48Z</time></trkpt><trkpt lat="44.830741986944076" lon="12.04516286024803"><ele>-0.16666666666666666</ele><time>2026-05-02T16:01:50Z</time></trkpt><trkpt lat="44.83068994867642" lon="12.045079879262595"><ele>0.0</ele><time>2026-05-02T16:01:52Z</time></trkpt><trkpt lat="44.83063456696883" lon="12.04501147609351"><ele>-0.16666666666666666</ele><time>2026-05-02T16:01:54Z</time></trkpt><trkpt lat="44.83059363171825" lon="12.044936995643871"><ele>-0.3333333333333333</ele><time>2026-05-02T16:01:56Z</time></trkpt><trkpt lat="44.83052658948388" lon="12.044854617863148"><ele>-0.5</ele><time>2026-05-02T16:01:59Z</time></trkpt><trkpt lat="44.83045784148429" lon="12.044754256484415"><ele>-0.6666666666666666</ele><time>2026-05-02T16:02:02Z</time></trkpt><trkpt lat="44.83040558647439" lon="12.044684149873989"><ele>-0.8333333333333333</ele><time>2026-05-02T16:02:04Z</time></trkpt><trkpt lat="44.830361404688546" lon="12.044616982452034"><ele>-1.0</ele><time>2026-05-02T16:02:06Z</time></trkpt><trkpt lat="44.83031314404913" lon="12.044541056003183"><ele>-0.9999999999999999</ele><time>2026-05-02T16:02:08Z</time></trkpt><trkpt lat="44.83026668350585" lon="12.044468119326568"><ele>-1.0</ele><time>2026-05-02T16:02:10Z</time></trkpt><trkpt lat="44.83021159413755" lon="12.044396450514892"><ele>-1.0</ele><time>2026-05-02T16:02:12Z</time></trkpt><trkpt lat="44.830160622451515" lon="12.044318048287435"><ele>-1.0</ele><time>2026-05-02T16:02:14Z</time></trkpt><trkpt lat="44.83010825578163" lon="12.04424047677649"><ele>-0.9999999999999999</ele><time>2026-05-02T16:02:16Z</time></trkpt><trkpt lat="44.83005118206737" lon="12.044170790938155"><ele>-1.0</ele><time>2026-05-02T16:02:18Z</time></trkpt><trkpt lat="44.8299947221645" lon="12.04408562928514"><ele>-1.1428571428571428</ele><time>2026-05-02T16:02:20Z</time></trkpt><trkpt lat="44.82994129868455" lon="12.044004815610116"><ele>-1.2857142857142856</ele><time>2026-05-02T16:02:22Z</time></trkpt><trkpt lat="44.82988814052234" lon="12.043929680119215"><ele>-1.4285714285714284</ele><time>2026-05-02T16:02:24Z</time></trkpt><trkpt lat="44.829838223384314" lon="12.043864595610572"><ele>-1.5714285714285714</ele><time>2026-05-02T16:02:26Z</time></trkpt><trkpt lat="44.8297856750036" lon="12.04380421627347"><ele>-1.714285714285714</ele><time>2026-05-02T16:02:28Z</time></trkpt><trkpt lat="44.82974449477573" lon="12.043730382981778"><ele>-1.857142857142857</ele><time>2026-05-02T16:02:30Z</time></trkpt><trkpt lat="44.829697093656065" lon="12.04366719333432"><ele>-2.0</ele><time>2026-05-02T16:02:32Z</time></trkpt><trkpt lat="44.829651889114835" lon="12.043602176675034"><ele>-1.9999999999999998</ele><time>2026-05-02T16:02:34Z</time></trkpt><trkpt lat="44.82960503746204" lon="12.043534666972995"><ele>-2.0</ele><time>2026-05-02T16:02:36Z</time></trkpt><trkpt lat="44.829540773185194" lon="12.043444197145636"><ele>-2.0</ele><time>2026-05-02T16:02:39Z</time></trkpt><trkpt lat="44.82948978562179" lon="12.043372552868655"><ele>-2.0</ele><time>2026-05-02T16:02:40.999Z</time></trkpt><trkpt lat="44.82943533712713" lon="12.043286774013664"><ele>-1.9999999999999998</ele><time>2026-05-02T16:02:42.999Z</time></trkpt><trkpt lat="44.829376981092715" lon="12.04321298889917"><ele>-2.0</ele><time>2026-05-02T16:02:44.999Z</time></trkpt><trkpt lat="44.82932646639" lon="12.043142038279177"><ele>-1.857142857142857</ele><time>2026-05-02T16:02:46.999Z</time></trkpt><trkpt lat="44.82927656325436" lon="12.04307077812273"><ele>-1.714285714285714</ele><time>2026-05-02T16:02:48.999Z</time></trkpt><trkpt lat="44.82922910203076" lon="12.04300780531529"><ele>-1.5714285714285714</ele><time>2026-05-02T16:02:50.999Z</time></trkpt><trkpt lat="44.82917908195641" lon="12.042933231589572"><ele>-1.4285714285714284</ele><time>2026-05-02T16:02:52.999Z</time></trkpt><trkpt lat="44.829126252127" lon="12.04285916639365"><ele>-1.2857142857142856</ele><time>2026-05-02T16:02:54.999Z</time></trkpt><trkpt lat="44.829077671283656" lon="12.042785963948909"><ele>-1.1428571428571428</ele><time>2026-05-02T16:02:56.999Z</time></trkpt><trkpt lat="44.829032397174636" lon="12.042719875546071"><ele>-1.0</ele><time>2026-05-02T16:02:58.999Z</time></trkpt><trkpt lat="44.82898108173686" lon="12.042659376866414"><ele>-0.9999999999999999</ele><time>2026-05-02T16:03:00.999Z</time></trkpt><trkpt lat="44.82892584339214" lon="12.042576927214718"><ele>-1.0</ele><time>2026-05-02T16:03:02.999Z</time></trkpt><trkpt lat="44.828866017725126" lon="12.042500744766341"><ele>-1.0</ele><time>2026-05-02T16:03:04.999Z</time></trkpt><trkpt lat="44.82881220304745" lon="12.042418347495442"><ele>-1.0</ele><time>2026-05-02T16:03:06.999Z</time></trkpt><trkpt lat="44.828755903069684" lon="12.042333119491875"><ele>-0.9999999999999999</ele><time>2026-05-02T16:03:08.999Z</time></trkpt><trkpt lat="44.82869551247547" lon="12.04225865430734"><ele>-1.0</ele><time>2026-05-02T16:03:10.999Z</time></trkpt><trkpt lat="44.828640827032395" lon="12.042174493372585"><ele>-0.9999999999999999</ele><time>2026-05-02T16:03:12.999Z</time></trkpt><trkpt lat="44.82858295321342" lon="12.04209718283697"><ele>-1.0</ele><time>2026-05-02T16:03:14.999Z</time></trkpt><trkpt lat="44.82852545270691" lon="12.042017055292797"><ele>-1.0</ele><time>2026-05-02T16:03:16.999Z</time></trkpt><trkpt lat="44.82846811211728" lon="12.041936726944764"><ele>-1.0</ele><time>2026-05-02T16:03:18.999Z</time></trkpt><trkpt lat="44.82841213899405" lon="12.041864344962674"><ele>-0.9999999999999999</ele><time>2026-05-02T16:03:20.999Z</time></trkpt><trkpt lat="44.82835792548791" lon="12.041784800045356"><ele>-1.0</ele><time>2026-05-02T16:03:23Z</time></trkpt><trkpt lat="44.82829768145848" lon="12.041705588695825"><ele>-0.8333333333333333</ele><time>2026-05-02T16:03:25Z</time></trkpt><trkpt lat="44.828239891356624" lon="12.041629498564573"><ele>-0.6666666666666666</ele><time>2026-05-02T16:03:27Z</time></trkpt><trkpt lat="44.82818153163208" lon="12.041553004909943"><ele>-0.5</ele><time>2026-05-02T16:03:29Z</time></trkpt><trkpt lat="44.82812783021045" lon="12.04147105860252"><ele>-0.3333333333333333</ele><time>2026-05-02T16:03:31Z</time></trkpt><trkpt lat="44.828075171667244" lon="12.041396130565943"><ele>-0.16666666666666666</ele><time>2026-05-02T16:03:33Z</time></trkpt><trkpt lat="44.82802292436789" lon="12.041327777347915"><ele>0.0</ele><time>2026-05-02T16:03:35Z</time></trkpt><trkpt lat="44.82797077493751" lon="12.041246407781268"><ele>0.0</ele><time>2026-05-02T16:03:37Z</time></trkpt><trkpt lat="44.82790980509565" lon="12.041176102975994"><ele>0.0</ele><time>2026-05-02T16:03:39Z</time></trkpt><trkpt lat="44.82786242581645" lon="12.041098546629017"><ele>0.0</ele><time>2026-05-02T16:03:41Z</time></trkpt><trkpt lat="44.82780868919553" lon="12.041021297955199"><ele>0.0</ele><time>2026-05-02T16:03:43Z</time></trkpt><trkpt lat="44.827755242210465" lon="12.040952562499854"><ele>0.0</ele><time>2026-05-02T16:03:45Z</time></trkpt><trkpt lat="44.82770956628116" lon="12.040879344144326"><ele>0.0</ele><time>2026-05-02T16:03:47Z</time></trkpt><trkpt lat="44.82765975505085" lon="12.040820931547891"><ele>0.0</ele><time>2026-05-02T16:03:49Z</time></trkpt><trkpt lat="44.827600618576305" lon="12.040728879096683"><ele>0.14285714285714285</ele><time>2026-05-02T16:03:52Z</time></trkpt><trkpt lat="44.82754922743636" lon="12.040655960722043"><ele>0.2857142857142857</ele><time>2026-05-02T16:03:54Z</time></trkpt><trkpt lat="44.82749496482977" lon="12.04058758138418"><ele>0.42857142857142855</ele><time>2026-05-02T16:03:56Z</time></trkpt><trkpt lat="44.82744471251935" lon="12.040522990318133"><ele>0.5714285714285714</ele><time>2026-05-02T16:03:58Z</time></trkpt><trkpt lat="44.82740429038724" lon="12.04044872942828"><ele>0.7142857142857142</ele><time>2026-05-02T16:04:00Z</time></trkpt><trkpt lat="44.82743021499755" lon="12.040348290796434"><ele>0.8571428571428571</ele><time>2026-05-02T16:04:04Z</time></trkpt><trkpt lat="44.827501702898644" lon="12.040289036740408"><ele>1.0</ele><time>2026-05-02T16:04:07Z</time></trkpt><trkpt lat="44.827566444245825" lon="12.04028797027802"><ele>0.9999999999999999</ele><time>2026-05-02T16:04:11Z</time></trkpt><trkpt lat="44.82762565920797" lon="12.040347507402213"><ele>1.0</ele><time>2026-05-02T16:04:14Z</time></trkpt><trkpt lat="44.827686077232855" lon="12.040293593848197"><ele>1.0</ele><time>2026-05-02T16:04:33Z</time></trkpt><trkpt lat="44.82765088251995" lon="12.040382373213573"><ele>1.0</ele><time>2026-05-02T16:22:51Z</time></trkpt><trkpt lat="44.82756143481998" lon="12.04038040701396"><ele>0.9999999999999999</ele><time>2026-05-02T16:22:54Z</time></trkpt><trkpt lat="44.82748041437896" lon="12.040351071748953"><ele>1.0</ele><time>2026-05-02T16:22:56Z</time></trkpt><trkpt lat="44.8274033573613" lon="12.040375007428912"><ele>0.9999999999999999</ele><time>2026-05-02T16:23:00Z</time></trkpt><trkpt lat="44.82732411507419" lon="12.040350294356678"><ele>1.0</ele><time>2026-05-02T16:23:04Z</time></trkpt><trkpt lat="44.82727012617833" lon="12.040281839471456"><ele>1.0</ele><time>2026-05-02T16:23:06Z</time></trkpt><trkpt lat="44.82722805497502" lon="12.040195615313438"><ele>1.0</ele><time>2026-05-02T16:23:08Z</time></trkpt><trkpt lat="44.827185193449424" lon="12.040128778341751"><ele>0.9999999999999999</ele><time>2026-05-02T16:23:10Z</time></trkpt><trkpt lat="44.82712221255943" lon="12.040042200052781"><ele>1.0</ele><time>2026-05-02T16:23:13Z</time></trkpt><trkpt lat="44.82706605927457" lon="12.039964472154209"><ele>0.8333333333333333</ele><time>2026-05-02T16:23:16Z</time></trkpt><trkpt lat="44.82701360095162" lon="12.039896101711133"><ele>0.6666666666666666</ele><time>2026-05-02T16:23:18Z</time></trkpt><trkpt lat="44.82696665886516" lon="12.039807045466352"><ele>0.5</ele><time>2026-05-02T16:23:20Z</time></trkpt><trkpt lat="44.826909315128994" lon="12.039727491025243"><ele>0.3333333333333333</ele><time>2026-05-02T16:23:22Z</time></trkpt><trkpt lat="44.826848345780576" lon="12.039650946799282"><ele>0.16666666666666666</ele><time>2026-05-02T16:23:24Z</time></trkpt><trkpt lat="44.82679630688139" lon="12.039566088930059"><ele>0.0</ele><time>2026-05-02T16:23:26Z</time></trkpt><trkpt lat="44.82673328196519" lon="12.039489585118064"><ele>-0.16666666666666666</ele><time>2026-05-02T16:23:28Z</time></trkpt><trkpt lat="44.82668252508969" lon="12.03940268503097"><ele>-0.3333333333333333</ele><time>2026-05-02T16:23:30Z</time></trkpt><trkpt lat="44.826623216594676" lon="12.039320991037213"><ele>-0.5</ele><time>2026-05-02T16:23:32Z</time></trkpt><trkpt lat="44.82656301857351" lon="12.039244535115394"><ele>-0.6666666666666666</ele><time>2026-05-02T16:23:34Z</time></trkpt><trkpt lat="44.82650785888325" lon="12.039162019606321"><ele>-0.8333333333333333</ele><time>2026-05-02T16:23:36Z</time></trkpt><trkpt lat="44.82644763914503" lon="12.039082244952127"><ele>-1.0</ele><time>2026-05-02T16:23:38Z</time></trkpt><trkpt lat="44.82638771692938" lon="12.039005711654097"><ele>-1.0</ele><time>2026-05-02T16:23:40Z</time></trkpt><trkpt lat="44.826324500683924" lon="12.038927176440966"><ele>-1.0</ele><time>2026-05-02T16:23:42Z</time></trkpt><trkpt lat="44.82625658671242" lon="12.03883385510566"><ele>-1.0</ele><time>2026-05-02T16:23:44Z</time></trkpt><trkpt lat="44.82618369924921" lon="12.03874601250526"><ele>-1.0</ele><time>2026-05-02T16:23:46Z</time></trkpt><trkpt lat="44.82610880702262" lon="12.03865918940917"><ele>-1.0</ele><time>2026-05-02T16:23:48Z</time></trkpt><trkpt lat="44.82603599774256" lon="12.03859194917803"><ele>-0.9999999999999999</ele><time>2026-05-02T16:23:50Z</time></trkpt><trkpt lat="44.82596571890827" lon="12.038533201083236"><ele>-1.0</ele><time>2026-05-02T16:23:52Z</time></trkpt><trkpt lat="44.8258981232476" lon="12.038481149731656"><ele>-1.0</ele><time>2026-05-02T16:23:54Z</time></trkpt><trkpt lat="44.82584247409844" lon="12.038427918897739"><ele>-1.0</ele><time>2026-05-02T16:23:56Z</time></trkpt><trkpt lat="44.82578150773821" lon="12.038386322470888"><ele>-0.9999999999999999</ele><time>2026-05-02T16:23:58Z</time></trkpt><trkpt lat="44.82570210694526" lon="12.038331391038081"><ele>-1.0</ele><time>2026-05-02T16:24:01Z</time></trkpt><trkpt lat="44.825625985758236" lon="12.038289430951156"><ele>-0.8333333333333333</ele><time>2026-05-02T16:24:03Z</time></trkpt><trkpt lat="44.825541496746695" lon="12.038235092739056"><ele>-0.6666666666666666</ele><time>2026-05-02T16:24:05Z</time></trkpt><trkpt lat="44.825462094096366" lon="12.038193537419767"><ele>-0.5</ele><time>2026-05-02T16:24:07Z</time></trkpt><trkpt lat="44.82538892473601" lon="12.038146512179384"><ele>-0.3333333333333333</ele><time>2026-05-02T16:24:09Z</time></trkpt><trkpt lat="44.82531608975887" lon="12.038119210308334"><ele>-0.16666666666666666</ele><time>2026-05-02T16:24:10.999Z</time></trkpt><trkpt lat="44.82525491650087" lon="12.03807423336638"><ele>0.0</ele><time>2026-05-02T16:24:12.999Z</time></trkpt><trkpt lat="44.82518454762168" lon="12.038041041277992"><ele>0.3333333333333333</ele><time>2026-05-02T16:24:14.999Z</time></trkpt><trkpt lat="44.82510983250976" lon="12.038005484197624"><ele>0.6666666666666666</ele><time>2026-05-02T16:24:16.999Z</time></trkpt><trkpt lat="44.825038030414255" lon="12.037967617000689"><ele>1.0</ele><time>2026-05-02T16:24:18.999Z</time></trkpt><trkpt lat="44.82496160148065" lon="12.037929491304041"><ele>1.3333333333333333</ele><time>2026-05-02T16:24:21Z</time></trkpt><trkpt lat="44.82488406190237" lon="12.037899490502243"><ele>1.6666666666666665</ele><time>2026-05-02T16:24:23Z</time></trkpt><trkpt lat="44.82480547613347" lon="12.037862469719267"><ele>2.0</ele><time>2026-05-02T16:24:25Z</time></trkpt><trkpt lat="44.824727280663865" lon="12.037828643013826"><ele>1.9999999999999998</ele><time>2026-05-02T16:24:27Z</time></trkpt><trkpt lat="44.82464731039391" lon="12.037801644268454"><ele>2.0</ele><time>2026-05-02T16:24:29Z</time></trkpt><trkpt lat="44.824570627614996" lon="12.037781105088145"><ele>2.0</ele><time>2026-05-02T16:24:31Z</time></trkpt><trkpt lat="44.82449690366567" lon="12.03775776685287"><ele>2.0</ele><time>2026-05-02T16:24:33Z</time></trkpt><trkpt lat="44.82442465187446" lon="12.037748894089985"><ele>1.9999999999999998</ele><time>2026-05-02T16:24:35Z</time></trkpt><trkpt lat="44.824348476749705" lon="12.03773876904499"><ele>2.0</ele><time>2026-05-02T16:24:37Z</time></trkpt><trkpt lat="44.824276632663086" lon="12.03773438643908"><ele>1.9999999999999998</ele><time>2026-05-02T16:24:39Z</time></trkpt><trkpt lat="44.8241982225861" lon="12.037744924723578"><ele>2.0</ele><time>2026-05-02T16:24:41Z</time></trkpt><trkpt lat="44.82411565095309" lon="12.037744911051218"><ele>2.0</ele><time>2026-05-02T16:24:43Z</time></trkpt><trkpt lat="44.824035884062624" lon="12.037749935642841"><ele>2.0</ele><time>2026-05-02T16:24:45Z</time></trkpt><trkpt lat="44.82395858437168" lon="12.0377796987365"><ele>1.9999999999999998</ele><time>2026-05-02T16:24:47Z</time></trkpt><trkpt lat="44.82388266908386" lon="12.037812206374968"><ele>2.0</ele><time>2026-05-02T16:24:49Z</time></trkpt><trkpt lat="44.82380779373871" lon="12.037859101339732"><ele>2.0</ele><time>2026-05-02T16:24:51Z</time></trkpt><trkpt lat="44.82373787427609" lon="12.037907359640393"><ele>1.9999999999999998</ele><time>2026-05-02T16:24:53Z</time></trkpt><trkpt lat="44.8236682805484" lon="12.037937806658691"><ele>2.0</ele><time>2026-05-02T16:24:55Z</time></trkpt><trkpt lat="44.82360700838127" lon="12.037969439282675"><ele>2.0</ele><time>2026-05-02T16:24:57Z</time></trkpt><trkpt lat="44.82353911594847" lon="12.038001231816615"><ele>1.9999999999999998</ele><time>2026-05-02T16:25:00Z</time></trkpt><trkpt lat="44.8234812004267" lon="12.038045001810719"><ele>2.0</ele><time>2026-05-02T16:25:03Z</time></trkpt><trkpt lat="44.823557113774385" lon="12.038002131014025"><ele>2.0</ele><time>2026-05-02T16:25:15Z</time></trkpt><trkpt lat="44.82362402234575" lon="12.037938595712735"><ele>1.9999999999999998</ele><time>2026-05-02T16:25:17Z</time></trkpt><trkpt lat="44.82370286296248" lon="12.037895224342304"><ele>2.0</ele><time>2026-05-02T16:25:19Z</time></trkpt><trkpt lat="44.8237740951985" lon="12.03786630366102"><ele>2.0</ele><time>2026-05-02T16:25:21Z</time></trkpt><trkpt lat="44.82384034482081" lon="12.03781972824738"><ele>2.0</ele><time>2026-05-02T16:25:23Z</time></trkpt><trkpt lat="44.823874498910385" lon="12.037723859692406"><ele>1.9999999999999998</ele><time>2026-05-02T16:25:25Z</time></trkpt><trkpt lat="44.8238776512645" lon="12.03760797840166"><ele>2.0</ele><time>2026-05-02T16:25:27Z</time></trkpt><trkpt lat="44.823842497280985" lon="12.037499573253115"><ele>1.857142857142857</ele><time>2026-05-02T16:25:29Z</time></trkpt><trkpt lat="44.82381282412421" lon="12.037411457248194"><ele>1.714285714285714</ele><time>2026-05-02T16:25:31Z</time></trkpt><trkpt lat="44.8237658221294" lon="12.037339523995477"><ele>1.5714285714285714</ele><time>2026-05-02T16:25:33Z</time></trkpt><trkpt lat="44.82373453968028" lon="12.037243865498912"><ele>1.4285714285714284</ele><time>2026-05-02T16:25:35Z</time></trkpt><trkpt lat="44.82370334302934" lon="12.037155269783158"><ele>1.2857142857142856</ele><time>2026-05-02T16:25:37Z</time></trkpt><trkpt lat="44.82366084286215" lon="12.037054674548646"><ele>1.1428571428571428</ele><time>2026-05-02T16:25:39Z</time></trkpt><trkpt lat="44.82361387730093" lon="12.036962651633404"><ele>1.0</ele><time>2026-05-02T16:25:41Z</time></trkpt><trkpt lat="44.82358453575926" lon="12.03687977405703"><ele>1.0</ele><time>2026-05-02T16:25:43Z</time></trkpt><trkpt lat="44.82354699529759" lon="12.03679281530005"><ele>0.9999999999999999</ele><time>2026-05-02T16:25:45Z</time></trkpt><trkpt lat="44.82352065282941" lon="12.036688711627969"><ele>1.0</ele><time>2026-05-02T16:25:47Z</time></trkpt><trkpt lat="44.82348938596957" lon="12.036603244502253"><ele>1.0</ele><time>2026-05-02T16:25:49Z</time></trkpt><trkpt lat="44.82345908026574" lon="12.036511748481466"><ele>0.9999999999999999</ele><time>2026-05-02T16:25:51Z</time></trkpt><trkpt lat="44.8234323346556" lon="12.03642090560867"><ele>1.0</ele><time>2026-05-02T16:25:53Z</time></trkpt><trkpt lat="44.82339802348785" lon="12.036327308423704"><ele>1.0</ele><time>2026-05-02T16:25:55Z</time></trkpt><trkpt lat="44.82336343340624" lon="12.036237981172302"><ele>0.42857142857142855</ele><time>2026-05-02T16:25:57Z</time></trkpt><trkpt lat="44.82331710322254" lon="12.036148065901171"><ele>-0.1428571428571429</ele><time>2026-05-02T16:25:59Z</time></trkpt><trkpt lat="44.8232841086632" lon="12.036055867135666"><ele>-0.7142857142857142</ele><time>2026-05-02T16:26:01Z</time></trkpt><trkpt lat="44.823241979287964" lon="12.035982223111276"><ele>-1.2857142857142856</ele><time>2026-05-02T16:26:03Z</time></trkpt><trkpt lat="44.823192139934854" lon="12.035918802048636"><ele>-1.8571428571428572</ele><time>2026-05-02T16:26:05Z</time></trkpt><trkpt lat="44.82311463901813" lon="12.0358989436064"><ele>-2.4285714285714284</ele><time>2026-05-02T16:26:07Z</time></trkpt><trkpt lat="44.82304353399183" lon="12.035928670609854"><ele>-3.0</ele><time>2026-05-02T16:26:09Z</time></trkpt><trkpt lat="44.82296849732863" lon="12.035943630123716"><ele>-3.0</ele><time>2026-05-02T16:26:11.999Z</time></trkpt><trkpt lat="44.82289451164789" lon="12.035971918892297"><ele>-3.0</ele><time>2026-05-02T16:26:15.999Z</time></trkpt><trkpt lat="44.8228198025998" lon="12.035988267971097"><ele>-3.0</ele><time>2026-05-02T16:26:18.999Z</time></trkpt><trkpt lat="44.82273857512385" lon="12.036009581446155"><ele>-3.0</ele><time>2026-05-02T16:26:20.999Z</time></trkpt><trkpt lat="44.8226631107995" lon="12.036032629443312"><ele>-3.0</ele><time>2026-05-02T16:26:22.999Z</time></trkpt><trkpt lat="44.82258433119258" lon="12.036057798388963"><ele>-3.0</ele><time>2026-05-02T16:26:24.999Z</time></trkpt><trkpt lat="44.82249405696351" lon="12.036082493671731"><ele>-2.5</ele><time>2026-05-02T16:26:27Z</time></trkpt><trkpt lat="44.82241191518019" lon="12.036108546978614"><ele>-2.0</ele><time>2026-05-02T16:26:29Z</time></trkpt><trkpt lat="44.82232873499527" lon="12.036133944350034"><ele>-1.5</ele><time>2026-05-02T16:26:31Z</time></trkpt><trkpt lat="44.822245372885384" lon="12.036159059411801"><ele>-1.0</ele><time>2026-05-02T16:26:33Z</time></trkpt><trkpt lat="44.8221689960556" lon="12.036204462583422"><ele>-0.5</ele><time>2026-05-02T16:26:35Z</time></trkpt><trkpt lat="44.82209911649075" lon="12.03623999481857"><ele>0.0</ele><time>2026-05-02T16:26:37Z</time></trkpt><trkpt lat="44.82201107216593" lon="12.036261648880274"><ele>0.0</ele><time>2026-05-02T16:26:40Z</time></trkpt><trkpt lat="44.82195072339745" lon="12.03629028784458"><ele>0.0</ele><time>2026-05-02T16:26:42Z</time></trkpt><trkpt lat="44.82186398123481" lon="12.0363166319831"><ele>0.0</ele><time>2026-05-02T16:26:45Z</time></trkpt><trkpt lat="44.82178243632773" lon="12.036332561141217"><ele>0.0</ele><time>2026-05-02T16:26:48Z</time></trkpt><trkpt lat="44.82169313303555" lon="12.036351362465561"><ele>0.0</ele><time>2026-05-02T16:26:51Z</time></trkpt><trkpt lat="44.8216105913629" lon="12.03637593704083"><ele>0.0</ele><time>2026-05-02T16:26:54Z</time></trkpt><trkpt lat="44.821538702931065" lon="12.036386276706628"><ele>0.0</ele><time>2026-05-02T16:26:57Z</time></trkpt><trkpt lat="44.82146790618394" lon="12.036394213321401"><ele>0.0</ele><time>2026-05-02T16:27:00Z</time></trkpt><trkpt lat="44.821403111041384" lon="12.036392133816072"><ele>0.0</ele><time>2026-05-02T16:27:03Z</time></trkpt><trkpt lat="44.82132957149103" lon="12.036405350084342"><ele>0.0</ele><time>2026-05-02T16:27:06Z</time></trkpt><trkpt lat="44.82124449234285" lon="12.036408478150356"><ele>0.0</ele><time>2026-05-02T16:27:09Z</time></trkpt><trkpt lat="44.82117750102926" lon="12.036421672698319"><ele>0.0</ele><time>2026-05-02T16:27:12Z</time></trkpt><trkpt lat="44.821091582930784" lon="12.036405177585607"><ele>0.0</ele><time>2026-05-02T16:27:15Z</time></trkpt><trkpt lat="44.821071856621884" lon="12.036277752154865"><ele>0.0</ele><time>2026-05-02T16:27:18Z</time></trkpt><trkpt lat="44.82108402720766" lon="12.036179352580362"><ele>0.0</ele><time>2026-05-02T16:27:20Z</time></trkpt><trkpt lat="44.821088129285826" lon="12.036086787651445"><ele>0.0</ele><time>2026-05-02T16:27:23Z</time></trkpt><trkpt lat="44.82108795160652" lon="12.035981115571337"><ele>0.0</ele><time>2026-05-02T16:27:25Z</time></trkpt><trkpt lat="44.82109858243568" lon="12.035846777061431"><ele>0.0</ele><time>2026-05-02T16:27:28Z</time></trkpt><trkpt lat="44.82108629129506" lon="12.035717993671653"><ele>0.0</ele><time>2026-05-02T16:27:31Z</time></trkpt><trkpt lat="44.82108315575273" lon="12.035603227075965"><ele>-0.3333333333333333</ele><time>2026-05-02T16:27:34Z</time></trkpt><trkpt lat="44.82109981972677" lon="12.035477086733373"><ele>-0.6666666666666666</ele><time>2026-05-02T16:27:37Z</time></trkpt><trkpt lat="44.821095562903146" lon="12.03536904404458"><ele>-1.0</ele><time>2026-05-02T16:27:39Z</time></trkpt><trkpt lat="44.821118108370776" lon="12.03525725940921"><ele>-1.3333333333333333</ele><time>2026-05-02T16:27:41Z</time></trkpt><trkpt lat="44.821133220159545" lon="12.035135591162792"><ele>-1.6666666666666665</ele><time>2026-05-02T16:27:43Z</time></trkpt><trkpt lat="44.82114464847437" lon="12.03501662498442"><ele>-2.0</ele><time>2026-05-02T16:27:45Z</time></trkpt><trkpt lat="44.821140752892894" lon="12.034873239762595"><ele>-2.0</ele><time>2026-05-02T16:27:47Z</time></trkpt><trkpt lat="44.82117118007156" lon="12.034716266601267"><ele>-2.0</ele><time>2026-05-02T16:27:49Z</time></trkpt><trkpt lat="44.821172602803045" lon="12.03454995943725"><ele>-2.0</ele><time>2026-05-02T16:27:51Z</time></trkpt><trkpt lat="44.821173419285586" lon="12.034383025516236"><ele>-2.0</ele><time>2026-05-02T16:27:53Z</time></trkpt><trkpt lat="44.82116641493085" lon="12.034214077654223"><ele>-2.0</ele><time>2026-05-02T16:27:55Z</time></trkpt><trkpt lat="44.82117295014827" lon="12.034053356977244"><ele>-2.0</ele><time>2026-05-02T16:27:57Z</time></trkpt><trkpt lat="44.821168891414786" lon="12.033917305415677"><ele>-2.0</ele><time>2026-05-02T16:27:59Z</time></trkpt><trkpt lat="44.82115446603734" lon="12.033820737894914"><ele>-2.0</ele><time>2026-05-02T16:28:01Z</time></trkpt><trkpt lat="44.82117854408032" lon="12.033735339108977"><ele>-2.0</ele><time>2026-05-02T16:28:03Z</time></trkpt><trkpt lat="44.82129355431484" lon="12.033680861076052"><ele>-2.0</ele><time>2026-05-02T16:28:06Z</time></trkpt><trkpt lat="44.82137185228402" lon="12.033639514196114"><ele>-2.0</ele><time>2026-05-02T16:28:08Z</time></trkpt><trkpt lat="44.82146372806676" lon="12.03360366654138"><ele>-2.0</ele><time>2026-05-02T16:28:10Z</time></trkpt><trkpt lat="44.821553788157686" lon="12.033567124933223"><ele>-2.0</ele><time>2026-05-02T16:28:12Z</time></trkpt><trkpt lat="44.82164234522867" lon="12.033536283500792"><ele>-2.0</ele><time>2026-05-02T16:28:14Z</time></trkpt><trkpt lat="44.82173283872278" lon="12.033490336380984"><ele>-2.2</ele><time>2026-05-02T16:28:15.999Z</time></trkpt><trkpt lat="44.82182617121055" lon="12.033453105587094"><ele>-2.4000000000000004</ele><time>2026-05-02T16:28:17.999Z</time></trkpt><trkpt lat="44.821921707519245" lon="12.033414319036776"><ele>-2.5999999999999996</ele><time>2026-05-02T16:28:19.999Z</time></trkpt><trkpt lat="44.82201478986847" lon="12.033367009691432"><ele>-2.8</ele><time>2026-05-02T16:28:21.999Z</time></trkpt><trkpt lat="44.82211117862492" lon="12.033326843599996"><ele>-3.0</ele><time>2026-05-02T16:28:23.999Z</time></trkpt><trkpt lat="44.822207043596556" lon="12.03329127105308"><ele>-3.0</ele><time>2026-05-02T16:28:25.999Z</time></trkpt><trkpt lat="44.82229389515809" lon="12.033243335168265"><ele>-3.0</ele><time>2026-05-02T16:28:27.999Z</time></trkpt><trkpt lat="44.82237925084042" lon="12.033201985052703"><ele>-3.0</ele><time>2026-05-02T16:28:29.999Z</time></trkpt><trkpt lat="44.82246175761695" lon="12.033160515047598"><ele>-3.0</ele><time>2026-05-02T16:28:31.999Z</time></trkpt><trkpt lat="44.82254073904061" lon="12.033122512432918"><ele>-3.0</ele><time>2026-05-02T16:28:34Z</time></trkpt><trkpt lat="44.822622482753154" lon="12.03310567434523"><ele>-3.0</ele><time>2026-05-02T16:28:36Z</time></trkpt><trkpt lat="44.82270333556844" lon="12.033074552388626"><ele>-3.0</ele><time>2026-05-02T16:28:38Z</time></trkpt><trkpt lat="44.822783654403366" lon="12.033030919051672"><ele>-3.0</ele><time>2026-05-02T16:28:40Z</time></trkpt><trkpt lat="44.822863793585704" lon="12.033005286132516"><ele>-3.0</ele><time>2026-05-02T16:28:42Z</time></trkpt><trkpt lat="44.82294693118462" lon="12.032969994085239"><ele>-3.0</ele><time>2026-05-02T16:28:44Z</time></trkpt><trkpt lat="44.82302445526615" lon="12.032934897005335"><ele>-3.0</ele><time>2026-05-02T16:28:46Z</time></trkpt><trkpt lat="44.82310331838426" lon="12.032900599095985"><ele>-3.0</ele><time>2026-05-02T16:28:48Z</time></trkpt><trkpt lat="44.82317699036749" lon="12.032854232569388"><ele>-3.0</ele><time>2026-05-02T16:28:50Z</time></trkpt><trkpt lat="44.823253009348385" lon="12.032827258415097"><ele>-3.0</ele><time>2026-05-02T16:28:52Z</time></trkpt><trkpt lat="44.823328640475935" lon="12.032799991677729"><ele>-3.0</ele><time>2026-05-02T16:28:54Z</time></trkpt><trkpt lat="44.82340287759738" lon="12.032767241031943"><ele>-3.0</ele><time>2026-05-02T16:28:56Z</time></trkpt><trkpt lat="44.82347739639256" lon="12.03272833828267"><ele>-3.0</ele><time>2026-05-02T16:28:58Z</time></trkpt><trkpt lat="44.82355211881605" lon="12.032699863263021"><ele>-3.0</ele><time>2026-05-02T16:29:00Z</time></trkpt><trkpt lat="44.82363397903872" lon="12.03266801402271"><ele>-3.1666666666666665</ele><time>2026-05-02T16:29:02Z</time></trkpt><trkpt lat="44.82371516815593" lon="12.032640150868552"><ele>-3.333333333333333</ele><time>2026-05-02T16:29:04Z</time></trkpt><trkpt lat="44.823792542228865" lon="12.03259731445269"><ele>-3.5</ele><time>2026-05-02T16:29:06Z</time></trkpt><trkpt lat="44.823873900115395" lon="12.032563045409653"><ele>-3.6666666666666665</ele><time>2026-05-02T16:29:08Z</time></trkpt><trkpt lat="44.823958259830455" lon="12.032535274913974"><ele>-3.833333333333333</ele><time>2026-05-02T16:29:10Z</time></trkpt><trkpt lat="44.824039547512044" lon="12.03249820599487"><ele>-4.0</ele><time>2026-05-02T16:29:12Z</time></trkpt><trkpt lat="44.82411408469243" lon="12.032458656610737"><ele>-4.166666666666666</ele><time>2026-05-02T16:29:14Z</time></trkpt><trkpt lat="44.82418993744553" lon="12.032426235619932"><ele>-4.333333333333333</ele><time>2026-05-02T16:29:16Z</time></trkpt><trkpt lat="44.824270215356826" lon="12.032397225265282"><ele>-4.5</ele><time>2026-05-02T16:29:18Z</time></trkpt><trkpt lat="44.82435084101653" lon="12.03236154540925"><ele>-4.666666666666667</ele><time>2026-05-02T16:29:20Z</time></trkpt><trkpt lat="44.82443226706676" lon="12.032331840361188"><ele>-4.833333333333334</ele><time>2026-05-02T16:29:22Z</time></trkpt><trkpt lat="44.824514714589945" lon="12.0322944614509"><ele>-5.0</ele><time>2026-05-02T16:29:24Z</time></trkpt><trkpt lat="44.82459684739545" lon="12.032268311826185"><ele>-4.666666666666667</ele><time>2026-05-02T16:29:26Z</time></trkpt><trkpt lat="44.82467562146172" lon="12.032233090950244"><ele>-4.333333333333334</ele><time>2026-05-02T16:29:28Z</time></trkpt><trkpt lat="44.824750886790376" lon="12.032185813426869"><ele>-4.0</ele><time>2026-05-02T16:29:30Z</time></trkpt><trkpt lat="44.82483044805693" lon="12.032155818464444"><ele>-3.666666666666667</ele><time>2026-05-02T16:29:32Z</time></trkpt><trkpt lat="44.82490863270952" lon="12.032117990088356"><ele>-3.3333333333333335</ele><time>2026-05-02T16:29:34Z</time></trkpt><trkpt lat="44.824986094352376" lon="12.032083964378183"><ele>-3.0</ele><time>2026-05-02T16:29:36Z</time></trkpt><trkpt lat="44.825060250835584" lon="12.032046318938685"><ele>-3.0</ele><time>2026-05-02T16:29:38Z</time></trkpt><trkpt lat="44.82513861089201" lon="12.032018667082886"><ele>-3.0</ele><time>2026-05-02T16:29:40Z</time></trkpt><trkpt lat="44.825210319934044" lon="12.031988978991734"><ele>-3.0</ele><time>2026-05-02T16:29:42Z</time></trkpt><trkpt lat="44.825286936253" lon="12.03196140650174"><ele>-3.0</ele><time>2026-05-02T16:29:44Z</time></trkpt><trkpt lat="44.82536469797104" lon="12.031925848368502"><ele>-3.0</ele><time>2026-05-02T16:29:46Z</time></trkpt><trkpt lat="44.82543935616986" lon="12.031898743717846"><ele>-3.0</ele><time>2026-05-02T16:29:48Z</time></trkpt><trkpt lat="44.82551155205457" lon="12.031865706353836"><ele>-3.0</ele><time>2026-05-02T16:29:50Z</time></trkpt><trkpt lat="44.82558391539221" lon="12.03182466387171"><ele>-3.0</ele><time>2026-05-02T16:29:52Z</time></trkpt><trkpt lat="44.82566590503207" lon="12.031785455584004"><ele>-3.0</ele><time>2026-05-02T16:29:54Z</time></trkpt><trkpt lat="44.825743352979174" lon="12.031751189760074"><ele>-3.0</ele><time>2026-05-02T16:29:56Z</time></trkpt><trkpt lat="44.82582382608587" lon="12.031727137163081"><ele>-3.0</ele><time>2026-05-02T16:29:58Z</time></trkpt><trkpt lat="44.82589622903249" lon="12.031664575245648"><ele>-3.0</ele><time>2026-05-02T16:30:00Z</time></trkpt><trkpt lat="44.82598213468786" lon="12.031651215488564"><ele>-3.1666666666666665</ele><time>2026-05-02T16:30:02Z</time></trkpt><trkpt lat="44.82606185113722" lon="12.031617107709918"><ele>-3.333333333333333</ele><time>2026-05-02T16:30:04Z</time></trkpt><trkpt lat="44.82614603774722" lon="12.031573672554545"><ele>-3.5</ele><time>2026-05-02T16:30:06Z</time></trkpt><trkpt lat="44.826222267082144" lon="12.031521065640726"><ele>-3.6666666666666665</ele><time>2026-05-02T16:30:08Z</time></trkpt><trkpt lat="44.82630953850816" lon="12.03150967911205"><ele>-3.833333333333333</ele><time>2026-05-02T16:30:10Z</time></trkpt><trkpt lat="44.82639096320702" lon="12.031472597376592"><ele>-4.0</ele><time>2026-05-02T16:30:12Z</time></trkpt><trkpt lat="44.82646724287052" lon="12.03142107897191"><ele>-4.0</ele><time>2026-05-02T16:30:13.999Z</time></trkpt><trkpt lat="44.82654907458004" lon="12.031384751498683"><ele>-4.0</ele><time>2026-05-02T16:30:15.999Z</time></trkpt><trkpt lat="44.82663447768635" lon="12.03137413117514"><ele>-4.0</ele><time>2026-05-02T16:30:17.999Z</time></trkpt><trkpt lat="44.82671777755517" lon="12.03133778828504"><ele>-4.0</ele><time>2026-05-02T16:30:19.999Z</time></trkpt><trkpt lat="44.82681174175399" lon="12.03129389551476"><ele>-4.0</ele><time>2026-05-02T16:30:21.999Z</time></trkpt><trkpt lat="44.826906363121566" lon="12.031250473803551"><ele>-4.2</ele><time>2026-05-02T16:30:23.999Z</time></trkpt><trkpt lat="44.82700762715125" lon="12.031210076229371"><ele>-4.4</ele><time>2026-05-02T16:30:25.999Z</time></trkpt><trkpt lat="44.827110979040285" lon="12.031174302150525"><ele>-4.6</ele><time>2026-05-02T16:30:27.999Z</time></trkpt><trkpt lat="44.82721382661954" lon="12.03113690641888"><ele>-4.8</ele><time>2026-05-02T16:30:29.999Z</time></trkpt><trkpt lat="44.827314943049274" lon="12.031088545888935"><ele>-5.0</ele><time>2026-05-02T16:30:31.999Z</time></trkpt><trkpt lat="44.82741159950545" lon="12.031040770633812"><ele>-5.0</ele><time>2026-05-02T16:30:33.999Z</time></trkpt><trkpt lat="44.827509665014894" lon="12.031002816904708"><ele>-5.0</ele><time>2026-05-02T16:30:35.999Z</time></trkpt><trkpt lat="44.827602711325106" lon="12.030945106554249"><ele>-5.0</ele><time>2026-05-02T16:30:37.999Z</time></trkpt><trkpt lat="44.82770619046315" lon="12.030908940648365"><ele>-5.0</ele><time>2026-05-02T16:30:40Z</time></trkpt><trkpt lat="44.82779691657471" lon="12.03087542908968"><ele>-5.0</ele><time>2026-05-02T16:30:42Z</time></trkpt><trkpt lat="44.82787937083137" lon="12.030826928711761"><ele>-5.333333333333334</ele><time>2026-05-02T16:30:44Z</time></trkpt><trkpt lat="44.82796539578072" lon="12.03080056508874"><ele>-5.666666666666667</ele><time>2026-05-02T16:30:46Z</time></trkpt><trkpt lat="44.82804784994156" lon="12.030763137657598"><ele>-6.0</ele><time>2026-05-02T16:30:48Z</time></trkpt><trkpt lat="44.82813278876313" lon="12.030727366157402"><ele>-6.333333333333334</ele><time>2026-05-02T16:30:50Z</time></trkpt><trkpt lat="44.82821273201876" lon="12.03069281635699"><ele>-6.666666666666667</ele><time>2026-05-02T16:30:52Z</time></trkpt><trkpt lat="44.82829226435023" lon="12.030662527647928"><ele>-7.0</ele><time>2026-05-02T16:30:54Z</time></trkpt><trkpt lat="44.82836391680412" lon="12.030606772505141"><ele>-7.000000000000001</ele><time>2026-05-02T16:30:56Z</time></trkpt><trkpt lat="44.8284372206581" lon="12.030559606212432"><ele>-7.0</ele><time>2026-05-02T16:30:58Z</time></trkpt><trkpt lat="44.8285217486514" lon="12.030539384359317"><ele>-7.0</ele><time>2026-05-02T16:31:00Z</time></trkpt><trkpt lat="44.82860667069504" lon="12.030532387184463"><ele>-7.0</ele><time>2026-05-02T16:31:02Z</time></trkpt><trkpt lat="44.82868589570452" lon="12.030495917418673"><ele>-7.000000000000001</ele><time>2026-05-02T16:31:04Z</time></trkpt><trkpt lat="44.82876500422256" lon="12.03046301931336"><ele>-7.0</ele><time>2026-05-02T16:31:06Z</time></trkpt><trkpt lat="44.82884471726064" lon="12.03041895407774"><ele>-6.666666666666667</ele><time>2026-05-02T16:31:08Z</time></trkpt><trkpt lat="44.82892681772667" lon="12.030395375170208"><ele>-6.333333333333334</ele><time>2026-05-02T16:31:10Z</time></trkpt><trkpt lat="44.82900251383286" lon="12.030351478366082"><ele>-6.0</ele><time>2026-05-02T16:31:12Z</time></trkpt><trkpt lat="44.82908013966331" lon="12.030328021799427"><ele>-5.666666666666667</ele><time>2026-05-02T16:31:14Z</time></trkpt><trkpt lat="44.82915340835305" lon="12.030285120230216"><ele>-5.333333333333334</ele><time>2026-05-02T16:31:16Z</time></trkpt><trkpt lat="44.82922505094252" lon="12.0302583136679"><ele>-5.0</ele><time>2026-05-02T16:31:18Z</time></trkpt><trkpt lat="44.82929258661818" lon="12.030227826675103"><ele>-4.833333333333334</ele><time>2026-05-02T16:31:20Z</time></trkpt><trkpt lat="44.82937065383738" lon="12.030185737397733"><ele>-4.666666666666667</ele><time>2026-05-02T16:31:22Z</time></trkpt><trkpt lat="44.82946052816082" lon="12.030148951321738"><ele>-4.5</ele><time>2026-05-02T16:31:24Z</time></trkpt><trkpt lat="44.82953782097146" lon="12.030098861083482"><ele>-4.333333333333333</ele><time>2026-05-02T16:31:26Z</time></trkpt><trkpt lat="44.829617310375745" lon="12.030068626106734"><ele>-4.166666666666666</ele><time>2026-05-02T16:31:28Z</time></trkpt><trkpt lat="44.82969399098005" lon="12.03003106537445"><ele>-4.0</ele><time>2026-05-02T16:31:30Z</time></trkpt><trkpt lat="44.82977303767048" lon="12.030015546532406"><ele>-3.9999999999999996</ele><time>2026-05-02T16:31:32Z</time></trkpt><trkpt lat="44.82985280990899" lon="12.029987637995777"><ele>-4.0</ele><time>2026-05-02T16:31:34Z</time></trkpt><trkpt lat="44.82993118370496" lon="12.029932551166656"><ele>-4.0</ele><time>2026-05-02T16:31:36Z</time></trkpt><trkpt lat="44.83001231623621" lon="12.029901214174005"><ele>-4.0</ele><time>2026-05-02T16:31:38Z</time></trkpt><trkpt lat="44.8300960106384" lon="12.029882324120798"><ele>-3.9999999999999996</ele><time>2026-05-02T16:31:40Z</time></trkpt><trkpt lat="44.83017373195715" lon="12.029844672374738"><ele>-4.0</ele><time>2026-05-02T16:31:42Z</time></trkpt><trkpt lat="44.83025457370066" lon="12.029813522882142"><ele>-4.166666666666666</ele><time>2026-05-02T16:31:44Z</time></trkpt><trkpt lat="44.83033258400944" lon="12.029773570721417"><ele>-4.333333333333333</ele><time>2026-05-02T16:31:46Z</time></trkpt><trkpt lat="44.83041153867229" lon="12.029733756167388"><ele>-4.5</ele><time>2026-05-02T16:31:48Z</time></trkpt><trkpt lat="44.83048917356926" lon="12.029696807183685"><ele>-4.666666666666667</ele><time>2026-05-02T16:31:50Z</time></trkpt><trkpt lat="44.830569118663924" lon="12.02966966805229"><ele>-4.833333333333334</ele><time>2026-05-02T16:31:52Z</time></trkpt><trkpt lat="44.83064894212999" lon="12.02963848081419"><ele>-5.0</ele><time>2026-05-02T16:31:54Z</time></trkpt><trkpt lat="44.83072946704043" lon="12.029603539396806"><ele>-5.0</ele><time>2026-05-02T16:31:56Z</time></trkpt><trkpt lat="44.83081194775026" lon="12.02957293043662"><ele>-5.0</ele><time>2026-05-02T16:31:58Z</time></trkpt><trkpt lat="44.830891135772994" lon="12.029531609572802"><ele>-5.0</ele><time>2026-05-02T16:32:00Z</time></trkpt><trkpt lat="44.83096958309427" lon="12.029486493688959"><ele>-5.0</ele><time>2026-05-02T16:32:02Z</time></trkpt><trkpt lat="44.831047877443766" lon="12.02944297415657"><ele>-5.0</ele><time>2026-05-02T16:32:04Z</time></trkpt><trkpt lat="44.83113219570156" lon="12.029438622519947"><ele>-5.0</ele><time>2026-05-02T16:32:06Z</time></trkpt><trkpt lat="44.8312128145374" lon="12.02939424399423"><ele>-5.166666666666667</ele><time>2026-05-02T16:32:08Z</time></trkpt><trkpt lat="44.83129634369449" lon="12.029363376790295"><ele>-5.333333333333334</ele><time>2026-05-02T16:32:10Z</time></trkpt><trkpt lat="44.83137705570712" lon="12.029317305447062"><ele>-5.5</ele><time>2026-05-02T16:32:11.999Z</time></trkpt><trkpt lat="44.83146191549997" lon="12.029293234031469"><ele>-5.666666666666667</ele><time>2026-05-02T16:32:13.999Z</time></trkpt><trkpt lat="44.83154068136184" lon="12.029249315617307"><ele>-5.833333333333333</ele><time>2026-05-02T16:32:15.999Z</time></trkpt><trkpt lat="44.83162014844762" lon="12.029210983587912"><ele>-6.0</ele><time>2026-05-02T16:32:17.999Z</time></trkpt><trkpt lat="44.83170118900276" lon="12.02917718894443"><ele>-6.0</ele><time>2026-05-02T16:32:19.999Z</time></trkpt><trkpt lat="44.83178392268247" lon="12.029141324695567"><ele>-6.0</ele><time>2026-05-02T16:32:21.999Z</time></trkpt><trkpt lat="44.83187905507085" lon="12.029103813729268"><ele>-6.0</ele><time>2026-05-02T16:32:23.999Z</time></trkpt><trkpt lat="44.83197184232634" lon="12.029066746364194"><ele>-6.0</ele><time>2026-05-02T16:32:25.999Z</time></trkpt><trkpt lat="44.83206018264542" lon="12.029023106979725"><ele>-6.0</ele><time>2026-05-02T16:32:27.999Z</time></trkpt><trkpt lat="44.832141626342676" lon="12.028983173331277"><ele>-5.666666666666667</ele><time>2026-05-02T16:32:29.999Z</time></trkpt><trkpt lat="44.83222123486744" lon="12.028953268426003"><ele>-5.333333333333333</ele><time>2026-05-02T16:32:31.999Z</time></trkpt><trkpt lat="44.83230323802589" lon="12.028918976302574"><ele>-5.0</ele><time>2026-05-02T16:32:33.999Z</time></trkpt><trkpt lat="44.83239189378482" lon="12.02887482002112"><ele>-4.666666666666666</ele><time>2026-05-02T16:32:35.999Z</time></trkpt><trkpt lat="44.832472679271696" lon="12.028843186980342"><ele>-4.333333333333333</ele><time>2026-05-02T16:32:37.999Z</time></trkpt><trkpt lat="44.83254524519985" lon="12.028813991683027"><ele>-4.0</ele><time>2026-05-02T16:32:39.999Z</time></trkpt><trkpt lat="44.83263300059856" lon="12.028792753898161"><ele>-3.833333333333333</ele><time>2026-05-02T16:32:42.999Z</time></trkpt><trkpt lat="44.83271135024391" lon="12.02884529234979"><ele>-3.6666666666666665</ele><time>2026-05-02T16:32:46Z</time></trkpt><trkpt lat="44.83274372608517" lon="12.028954877686932"><ele>-3.5</ele><time>2026-05-02T16:32:48Z</time></trkpt><trkpt lat="44.832770450788935" lon="12.029083244887467"><ele>-3.333333333333333</ele><time>2026-05-02T16:32:50Z</time></trkpt><trkpt lat="44.83279860689543" lon="12.029198881821012"><ele>-3.1666666666666665</ele><time>2026-05-02T16:32:52Z</time></trkpt><trkpt lat="44.83283020472522" lon="12.029309494753488"><ele>-3.0</ele><time>2026-05-02T16:32:54Z</time></trkpt><trkpt lat="44.83285767885813" lon="12.029421053781283"><ele>-3.0</ele><time>2026-05-02T16:32:56Z</time></trkpt><trkpt lat="44.8328761861853" lon="12.029531037942187"><ele>-3.0</ele><time>2026-05-02T16:32:58Z</time></trkpt><trkpt lat="44.83289300336095" lon="12.029638147109962"><ele>-3.0</ele><time>2026-05-02T16:33:00Z</time></trkpt><trkpt lat="44.83292092844731" lon="12.029736717637443"><ele>-3.0</ele><time>2026-05-02T16:33:02Z</time></trkpt><trkpt lat="44.83294381095446" lon="12.029845198271035"><ele>-3.0</ele><time>2026-05-02T16:33:04Z</time></trkpt><trkpt lat="44.83296257979996" lon="12.02995847342844"><ele>-3.0</ele><time>2026-05-02T16:33:06Z</time></trkpt><trkpt lat="44.8329898376997" lon="12.030066917337967"><ele>-3.3333333333333335</ele><time>2026-05-02T16:33:08Z</time></trkpt><trkpt lat="44.83301579712094" lon="12.030182956630304"><ele>-3.666666666666667</ele><time>2026-05-02T16:33:10Z</time></trkpt><trkpt lat="44.83303480192331" lon="12.03029629987567"><ele>-4.0</ele><time>2026-05-02T16:33:12Z</time></trkpt><trkpt lat="44.83305634239256" lon="12.030403581106349"><ele>-4.333333333333334</ele><time>2026-05-02T16:33:14Z</time></trkpt><trkpt lat="44.8330720302236" lon="12.030508122698555"><ele>-4.666666666666667</ele><time>2026-05-02T16:33:16Z</time></trkpt><trkpt lat="44.833100383166524" lon="12.03060289926869"><ele>-5.0</ele><time>2026-05-02T16:33:18Z</time></trkpt><trkpt lat="44.833116430248005" lon="12.030699844506577"><ele>-5.0</ele><time>2026-05-02T16:33:20Z</time></trkpt><trkpt lat="44.833146228070724" lon="12.030790313014377"><ele>-5.0</ele><time>2026-05-02T16:33:22Z</time></trkpt><trkpt lat="44.83317059711423" lon="12.030889846137534"><ele>-5.0</ele><time>2026-05-02T16:33:24Z</time></trkpt><trkpt lat="44.83319044831014" lon="12.030995727310483"><ele>-5.0</ele><time>2026-05-02T16:33:26Z</time></trkpt><trkpt lat="44.83320688756798" lon="12.031096894141756"><ele>-5.0</ele><time>2026-05-02T16:33:28Z</time></trkpt><trkpt lat="44.83323451168909" lon="12.03120095679975"><ele>-5.0</ele><time>2026-05-02T16:33:30Z</time></trkpt><trkpt lat="44.83324489447864" lon="12.031304357099804"><ele>-5.0</ele><time>2026-05-02T16:33:32Z</time></trkpt><trkpt lat="44.8332712255665" lon="12.031404997208622"><ele>-5.0</ele><time>2026-05-02T16:33:34Z</time></trkpt><trkpt lat="44.833301917152106" lon="12.031509473843677"><ele>-5.0</ele><time>2026-05-02T16:33:36Z</time></trkpt><trkpt lat="44.83332365487248" lon="12.031621367222087"><ele>-5.0</ele><time>2026-05-02T16:33:38Z</time></trkpt><trkpt lat="44.833352545778965" lon="12.031732001534385"><ele>-5.0</ele><time>2026-05-02T16:33:40Z</time></trkpt><trkpt lat="44.833378159925665" lon="12.031841376241118"><ele>-5.0</ele><time>2026-05-02T16:33:42Z</time></trkpt><trkpt lat="44.83339640198102" lon="12.031943936182854"><ele>-5.0</ele><time>2026-05-02T16:33:44Z</time></trkpt><trkpt lat="44.83342523555387" lon="12.032046189900695"><ele>-5.0</ele><time>2026-05-02T16:33:46Z</time></trkpt><trkpt lat="44.83344547970637" lon="12.03215015103928"><ele>-5.0</ele><time>2026-05-02T16:33:48Z</time></trkpt><trkpt lat="44.833461270578674" lon="12.032244300967374"><ele>-5.0</ele><time>2026-05-02T16:33:50Z</time></trkpt><trkpt lat="44.833487874319005" lon="12.03234212465746"><ele>-5.0</ele><time>2026-05-02T16:33:52Z</time></trkpt><trkpt lat="44.83350967719768" lon="12.032442350982343"><ele>-5.0</ele><time>2026-05-02T16:33:54Z</time></trkpt><trkpt lat="44.833530688648274" lon="12.032555608292949"><ele>-4.833333333333334</ele><time>2026-05-02T16:33:56Z</time></trkpt><trkpt lat="44.833552861176344" lon="12.032665480328314"><ele>-4.666666666666667</ele><time>2026-05-02T16:33:58Z</time></trkpt><trkpt lat="44.833577842861004" lon="12.032768253126756"><ele>-4.5</ele><time>2026-05-02T16:34:00Z</time></trkpt><trkpt lat="44.8336014282078" lon="12.032869529035283"><ele>-4.333333333333333</ele><time>2026-05-02T16:34:02Z</time></trkpt><trkpt lat="44.833624897264485" lon="12.032969253269956"><ele>-4.166666666666666</ele><time>2026-05-02T16:34:04Z</time></trkpt><trkpt lat="44.83364706537002" lon="12.033076438810102"><ele>-4.0</ele><time>2026-05-02T16:34:06Z</time></trkpt><trkpt lat="44.833679756912595" lon="12.033177722211454"><ele>-3.9999999999999996</ele><time>2026-05-02T16:34:08Z</time></trkpt><trkpt lat="44.83370304997597" lon="12.033284992320683"><ele>-4.0</ele><time>2026-05-02T16:34:10Z</time></trkpt><trkpt lat="44.833739964960095" lon="12.033390305804334"><ele>-4.0</ele><time>2026-05-02T16:34:12Z</time></trkpt><trkpt lat="44.8337607279025" lon="12.033507616994424"><ele>-4.0</ele><time>2026-05-02T16:34:14Z</time></trkpt><trkpt lat="44.833783843854505" lon="12.033614902924425"><ele>-3.9999999999999996</ele><time>2026-05-02T16:34:16Z</time></trkpt><trkpt lat="44.83380847382417" lon="12.033729837615796"><ele>-4.0</ele><time>2026-05-02T16:34:18Z</time></trkpt><trkpt lat="44.83383426823809" lon="12.033834556502754"><ele>-4.166666666666666</ele><time>2026-05-02T16:34:20Z</time></trkpt><trkpt lat="44.83390975866893" lon="12.033911879821847"><ele>-4.333333333333333</ele><time>2026-05-02T16:34:23Z</time></trkpt><trkpt lat="44.83398235292573" lon="12.033901603999887"><ele>-4.5</ele><time>2026-05-02T16:34:26Z</time></trkpt><trkpt lat="44.83405391518376" lon="12.0338494547457"><ele>-4.666666666666667</ele><time>2026-05-02T16:34:28.999Z</time></trkpt><trkpt lat="44.83412721505109" lon="12.033820105953088"><ele>-4.833333333333334</ele><time>2026-05-02T16:34:30.999Z</time></trkpt><trkpt lat="44.83420184456156" lon="12.033819343365211"><ele>-5.0</ele><time>2026-05-02T16:34:32.999Z</time></trkpt><trkpt lat="44.83427667813378" lon="12.03378660216173"><ele>-4.833333333333334</ele><time>2026-05-02T16:34:34.999Z</time></trkpt><trkpt lat="44.834348161692134" lon="12.033745817242325"><ele>-4.666666666666667</ele><time>2026-05-02T16:34:36.999Z</time></trkpt><trkpt lat="44.834426752754545" lon="12.033720594227072"><ele>-4.5</ele><time>2026-05-02T16:34:38.999Z</time></trkpt><trkpt lat="44.83450263396658" lon="12.033699507355157"><ele>-4.333333333333333</ele><time>2026-05-02T16:34:40.999Z</time></trkpt><trkpt lat="44.83458373795092" lon="12.03365786570106"><ele>-4.166666666666666</ele><time>2026-05-02T16:34:42.999Z</time></trkpt><trkpt lat="44.83466526815039" lon="12.033627527192305"><ele>-4.0</ele><time>2026-05-02T16:34:44.999Z</time></trkpt><trkpt lat="44.83473733363906" lon="12.033597148884965"><ele>-3.9999999999999996</ele><time>2026-05-02T16:34:46.999Z</time></trkpt><trkpt lat="44.83481086200147" lon="12.033566746249727"><ele>-4.0</ele><time>2026-05-02T16:34:48.999Z</time></trkpt><trkpt lat="44.834896599448484" lon="12.033526721663469"><ele>-4.0</ele><time>2026-05-02T16:34:51Z</time></trkpt><trkpt lat="44.83498269403434" lon="12.033483962055882"><ele>-4.0</ele><time>2026-05-02T16:34:53Z</time></trkpt><trkpt lat="44.835067139185675" lon="12.03344020825107"><ele>-3.9999999999999996</ele><time>2026-05-02T16:34:55Z</time></trkpt><trkpt lat="44.835151417126255" lon="12.033398143107709"><ele>-4.0</ele><time>2026-05-02T16:34:57Z</time></trkpt><trkpt lat="44.83523846973765" lon="12.033369120390393"><ele>-4.333333333333333</ele><time>2026-05-02T16:34:59Z</time></trkpt><trkpt lat="44.835321925869714" lon="12.033333339852748"><ele>-4.666666666666666</ele><time>2026-05-02T16:35:01Z</time></trkpt><trkpt lat="44.835406612818346" lon="12.033292634780931"><ele>-5.0</ele><time>2026-05-02T16:35:03Z</time></trkpt><trkpt lat="44.83548572606549" lon="12.033258028187115"><ele>-5.333333333333333</ele><time>2026-05-02T16:35:05Z</time></trkpt><trkpt lat="44.83556962732879" lon="12.03323295847722"><ele>-5.666666666666667</ele><time>2026-05-02T16:35:08Z</time></trkpt><trkpt lat="44.8356385840237" lon="12.033212934702902"><ele>-6.0</ele><time>2026-05-02T16:35:11Z</time></trkpt><trkpt lat="44.83570889630945" lon="12.03317926446088"><ele>-6.0</ele><time>2026-05-02T16:35:15Z</time></trkpt><trkpt lat="44.83577632420034" lon="12.033118197982018"><ele>-6.0</ele><time>2026-05-02T16:35:19Z</time></trkpt><trkpt lat="44.83584262255159" lon="12.033100140398425"><ele>-6.0</ele><time>2026-05-02T16:35:22Z</time></trkpt><trkpt lat="44.835915261541984" lon="12.03308419536478"><ele>-6.0</ele><time>2026-05-02T16:35:24Z</time></trkpt><trkpt lat="44.83600608372367" lon="12.033061469114047"><ele>-6.0</ele><time>2026-05-02T16:35:26Z</time></trkpt><trkpt lat="44.83610461862894" lon="12.033019415611854"><ele>-6.0</ele><time>2026-05-02T16:35:28Z</time></trkpt><trkpt lat="44.836195403867436" lon="12.032970232191342"><ele>-5.833333333333333</ele><time>2026-05-02T16:35:30Z</time></trkpt><trkpt lat="44.836283354817304" lon="12.032925136375924"><ele>-5.666666666666667</ele><time>2026-05-02T16:35:32Z</time></trkpt><trkpt lat="44.83636674522244" lon="12.03288658563041"><ele>-5.5</ele><time>2026-05-02T16:35:34Z</time></trkpt><trkpt lat="44.83644627126015" lon="12.03284948127414"><ele>-5.333333333333334</ele><time>2026-05-02T16:35:36Z</time></trkpt><trkpt lat="44.83652446016062" lon="12.032826644153934"><ele>-5.166666666666667</ele><time>2026-05-02T16:35:38Z</time></trkpt><trkpt lat="44.83660702211393" lon="12.032795260245836"><ele>-5.0</ele><time>2026-05-02T16:35:40Z</time></trkpt><trkpt lat="44.83667856221991" lon="12.032754250259753"><ele>-5.0</ele><time>2026-05-02T16:35:42Z</time></trkpt><trkpt lat="44.83676223249918" lon="12.03271587020908"><ele>-5.0</ele><time>2026-05-02T16:35:44Z</time></trkpt><trkpt lat="44.836848859417" lon="12.03268280748748"><ele>-5.0</ele><time>2026-05-02T16:35:46Z</time></trkpt><trkpt lat="44.836933560576526" lon="12.03264481600673"><ele>-5.0</ele><time>2026-05-02T16:35:48Z</time></trkpt><trkpt lat="44.837019334666664" lon="12.032605334357172"><ele>-5.0</ele><time>2026-05-02T16:35:50Z</time></trkpt><trkpt lat="44.83710494566903" lon="12.032575158013413"><ele>-5.0</ele><time>2026-05-02T16:35:52Z</time></trkpt><trkpt lat="44.83718878315899" lon="12.03254273627496"><ele>-5.0</ele><time>2026-05-02T16:35:54Z</time></trkpt><trkpt lat="44.83727508798588" lon="12.032505936507432"><ele>-5.0</ele><time>2026-05-02T16:35:56Z</time></trkpt><trkpt lat="44.83735674623541" lon="12.032462514204466"><ele>-5.0</ele><time>2026-05-02T16:35:58Z</time></trkpt><trkpt lat="44.837440625451855" lon="12.03243210827368"><ele>-5.0</ele><time>2026-05-02T16:36:00Z</time></trkpt><trkpt lat="44.83751677426674" lon="12.032398991021504"><ele>-5.0</ele><time>2026-05-02T16:36:02Z</time></trkpt><trkpt lat="44.83759484921783" lon="12.03236494365135"><ele>-5.0</ele><time>2026-05-02T16:36:04Z</time></trkpt><trkpt lat="44.837676568516315" lon="12.03233029909105"><ele>-5.166666666666667</ele><time>2026-05-02T16:36:06Z</time></trkpt><trkpt lat="44.83775280616406" lon="12.032303240348869"><ele>-5.333333333333334</ele><time>2026-05-02T16:36:08Z</time></trkpt><trkpt lat="44.83783682355271" lon="12.032258449181661"><ele>-5.5</ele><time>2026-05-02T16:36:10Z</time></trkpt><trkpt lat="44.83792402620789" lon="12.032214336495896"><ele>-5.666666666666667</ele><time>2026-05-02T16:36:12Z</time></trkpt><trkpt lat="44.83800969040493" lon="12.0321800331139"><ele>-5.833333333333333</ele><time>2026-05-02T16:36:14Z</time></trkpt><trkpt lat="44.838082237901354" lon="12.032150563988719"><ele>-6.0</ele><time>2026-05-02T16:36:16Z</time></trkpt><trkpt lat="44.83815433819144" lon="12.032122107883641"><ele>-6.0</ele><time>2026-05-02T16:36:18Z</time></trkpt><trkpt lat="44.838224511852104" lon="12.032105698886598"><ele>-6.0</ele><time>2026-05-02T16:36:20Z</time></trkpt><trkpt lat="44.83829642199458" lon="12.032082957241737"><ele>-6.0</ele><time>2026-05-02T16:36:22Z</time></trkpt><trkpt lat="44.83837658147879" lon="12.03205729104939"><ele>-6.0</ele><time>2026-05-02T16:36:24Z</time></trkpt><trkpt lat="44.83845412981843" lon="12.032020678602658"><ele>-6.0</ele><time>2026-05-02T16:36:25.999Z</time></trkpt><trkpt lat="44.83852751323229" lon="12.031973011610564"><ele>-6.0</ele><time>2026-05-02T16:36:27.999Z</time></trkpt><trkpt lat="44.838605210636544" lon="12.031939493839763"><ele>-5.833333333333333</ele><time>2026-05-02T16:36:29.999Z</time></trkpt><trkpt lat="44.83868309900146" lon="12.031916748313826"><ele>-5.666666666666667</ele><time>2026-05-02T16:36:31.999Z</time></trkpt><trkpt lat="44.8387534066213" lon="12.031880578776079"><ele>-5.5</ele><time>2026-05-02T16:36:33.999Z</time></trkpt><trkpt lat="44.838823244044285" lon="12.031833477266014"><ele>-5.333333333333334</ele><time>2026-05-02T16:36:35.999Z</time></trkpt><trkpt lat="44.838901019171225" lon="12.031805646296656"><ele>-5.166666666666667</ele><time>2026-05-02T16:36:37.999Z</time></trkpt><trkpt lat="44.8389833624679" lon="12.031772968905859"><ele>-5.0</ele><time>2026-05-02T16:36:39.999Z</time></trkpt><trkpt lat="44.83906606801849" lon="12.031737838940991"><ele>-5.0</ele><time>2026-05-02T16:36:41.999Z</time></trkpt><trkpt lat="44.839142311179586" lon="12.031703704963006"><ele>-5.0</ele><time>2026-05-02T16:36:43.999Z</time></trkpt><trkpt lat="44.839211351238994" lon="12.031667253284406"><ele>-5.0</ele><time>2026-05-02T16:36:45.999Z</time></trkpt><trkpt lat="44.83929414468098" lon="12.031637047303064"><ele>-5.0</ele><time>2026-05-02T16:36:47.999Z</time></trkpt><trkpt lat="44.839370404837595" lon="12.031597967885324"><ele>-5.0</ele><time>2026-05-02T16:36:49.999Z</time></trkpt><trkpt lat="44.839442157071566" lon="12.031585218481256"><ele>-5.0</ele><time>2026-05-02T16:36:51.999Z</time></trkpt><trkpt lat="44.839513393238" lon="12.031553344617734"><ele>-5.0</ele><time>2026-05-02T16:36:53.999Z</time></trkpt><trkpt lat="44.83960318545033" lon="12.031513168047855"><ele>-5.0</ele><time>2026-05-02T16:36:55.999Z</time></trkpt><trkpt lat="44.839688098582656" lon="12.031475565794091"><ele>-5.0</ele><time>2026-05-02T16:36:58Z</time></trkpt><trkpt lat="44.83976334909147" lon="12.031429451400236"><ele>-5.0</ele><time>2026-05-02T16:37:00Z</time></trkpt><trkpt lat="44.839845586100644" lon="12.031392773413923"><ele>-5.0</ele><time>2026-05-02T16:37:02Z</time></trkpt><trkpt lat="44.839922947465794" lon="12.03137794315733"><ele>-5.0</ele><time>2026-05-02T16:37:04Z</time></trkpt><trkpt lat="44.84000342106485" lon="12.031339071184611"><ele>-5.0</ele><time>2026-05-02T16:37:06Z</time></trkpt><trkpt lat="44.840098178409825" lon="12.031296912366885"><ele>-5.0</ele><time>2026-05-02T16:37:08Z</time></trkpt><trkpt lat="44.84019239800534" lon="12.031253428482083"><ele>-5.0</ele><time>2026-05-02T16:37:10Z</time></trkpt><trkpt lat="44.84028526256444" lon="12.031211305222973"><ele>-5.0</ele><time>2026-05-02T16:37:12Z</time></trkpt><trkpt lat="44.84037301893124" lon="12.031179621858143"><ele>-5.0</ele><time>2026-05-02T16:37:14Z</time></trkpt><trkpt lat="44.84046631566885" lon="12.031138377845146"><ele>-5.0</ele><time>2026-05-02T16:37:16Z</time></trkpt><trkpt lat="44.840555875575305" lon="12.031096829541523"><ele>-5.0</ele><time>2026-05-02T16:37:18Z</time></trkpt><trkpt lat="44.840647539470645" lon="12.03104720463592"><ele>-5.0</ele><time>2026-05-02T16:37:20Z</time></trkpt><trkpt lat="44.84073347005034" lon="12.031004074355858"><ele>-5.0</ele><time>2026-05-02T16:37:22Z</time></trkpt><trkpt lat="44.840817303213875" lon="12.03097051950583"><ele>-5.0</ele><time>2026-05-02T16:37:24Z</time></trkpt><trkpt lat="44.84089461422896" lon="12.030937489336479"><ele>-5.0</ele><time>2026-05-02T16:37:26Z</time></trkpt><trkpt lat="44.840969302165504" lon="12.0308994950344"><ele>-5.0</ele><time>2026-05-02T16:37:28Z</time></trkpt><trkpt lat="44.841050100483294" lon="12.03086889990922"><ele>-5.0</ele><time>2026-05-02T16:37:30Z</time></trkpt><trkpt lat="44.84112649844903" lon="12.030840438368475"><ele>-5.0</ele><time>2026-05-02T16:37:32Z</time></trkpt><trkpt lat="44.84120414903933" lon="12.03080586100163"><ele>-5.0</ele><time>2026-05-02T16:37:34Z</time></trkpt><trkpt lat="44.84128895444991" lon="12.030762151041628"><ele>-5.0</ele><time>2026-05-02T16:37:36Z</time></trkpt><trkpt lat="44.841381616458975" lon="12.030732906838423"><ele>-5.0</ele><time>2026-05-02T16:37:38Z</time></trkpt><trkpt lat="44.84147359355923" lon="12.030696496151476"><ele>-5.0</ele><time>2026-05-02T16:37:40Z</time></trkpt><trkpt lat="44.84155298028366" lon="12.030646634860759"><ele>-5.0</ele><time>2026-05-02T16:37:42Z</time></trkpt><trkpt lat="44.841632863265104" lon="12.030625357952912"><ele>-5.0</ele><time>2026-05-02T16:37:44Z</time></trkpt><trkpt lat="44.841716608319224" lon="12.030579696692552"><ele>-5.0</ele><time>2026-05-02T16:37:46Z</time></trkpt><trkpt lat="44.84180958752127" lon="12.030549689635265"><ele>-5.0</ele><time>2026-05-02T16:37:48Z</time></trkpt><trkpt lat="44.841895528687225" lon="12.03050657162608"><ele>-5.0</ele><time>2026-05-02T16:37:50Z</time></trkpt><trkpt lat="44.84196649455439" lon="12.030468359323907"><ele>-5.0</ele><time>2026-05-02T16:37:52Z</time></trkpt><trkpt lat="44.84203778630407" lon="12.030451015934142"><ele>-5.0</ele><time>2026-05-02T16:37:54Z</time></trkpt><trkpt lat="44.842115959538724" lon="12.030412677820834"><ele>-5.0</ele><time>2026-05-02T16:37:56Z</time></trkpt><trkpt lat="44.84219769538174" lon="12.030383233240034"><ele>-5.0</ele><time>2026-05-02T16:37:58Z</time></trkpt><trkpt lat="44.8422673160308" lon="12.030323320316255"><ele>-5.0</ele><time>2026-05-02T16:38:00Z</time></trkpt><trkpt lat="44.842335936763554" lon="12.030263018742072"><ele>-5.0</ele><time>2026-05-02T16:38:02Z</time></trkpt><trkpt lat="44.84240543312373" lon="12.030198234879471"><ele>-5.0</ele><time>2026-05-02T16:38:04Z</time></trkpt><trkpt lat="44.84247143541247" lon="12.03012514263931"><ele>-5.0</ele><time>2026-05-02T16:38:06Z</time></trkpt><trkpt lat="44.8425256805971" lon="12.03004281748901"><ele>-5.0</ele><time>2026-05-02T16:38:08Z</time></trkpt><trkpt lat="44.8425801046873" lon="12.029962717850319"><ele>-5.0</ele><time>2026-05-02T16:38:10Z</time></trkpt><trkpt lat="44.842626916841446" lon="12.029883208014459"><ele>-5.0</ele><time>2026-05-02T16:38:12Z</time></trkpt><trkpt lat="44.842672624511366" lon="12.02978439354978"><ele>-5.0</ele><time>2026-05-02T16:38:14Z</time></trkpt><trkpt lat="44.8427361291718" lon="12.029709945906088"><ele>-5.0</ele><time>2026-05-02T16:38:16Z</time></trkpt><trkpt lat="44.84278888369664" lon="12.02961822884935"><ele>-5.0</ele><time>2026-05-02T16:38:18Z</time></trkpt><trkpt lat="44.84283829331027" lon="12.029528927736871"><ele>-5.0</ele><time>2026-05-02T16:38:19.999Z</time></trkpt><trkpt lat="44.84287981680511" lon="12.02945387968915"><ele>-5.0</ele><time>2026-05-02T16:38:21.999Z</time></trkpt><trkpt lat="44.84290877775052" lon="12.029367610953646"><ele>-5.0</ele><time>2026-05-02T16:38:23.999Z</time></trkpt><trkpt lat="44.8429560347442" lon="12.029293282503376"><ele>-5.0</ele><time>2026-05-02T16:38:25.999Z</time></trkpt><trkpt lat="44.842994817365756" lon="12.029216627990833"><ele>-5.0</ele><time>2026-05-02T16:38:27.999Z</time></trkpt><trkpt lat="44.843047510200606" lon="12.029118355828892"><ele>-5.0</ele><time>2026-05-02T16:38:29.999Z</time></trkpt><trkpt lat="44.84309560311357" lon="12.02903450168774"><ele>-5.0</ele><time>2026-05-02T16:38:31.999Z</time></trkpt><trkpt lat="44.843141553921214" lon="12.028958072026743"><ele>-5.0</ele><time>2026-05-02T16:38:33.999Z</time></trkpt><trkpt lat="44.84320397933105" lon="12.028851063113256"><ele>-5.0</ele><time>2026-05-02T16:38:36.999Z</time></trkpt><trkpt lat="44.84326981442985" lon="12.028766449978427"><ele>-4.833333333333334</ele><time>2026-05-02T16:38:38.999Z</time></trkpt><trkpt lat="44.8433093541304" lon="12.0286608571309"><ele>-4.666666666666667</ele><time>2026-05-02T16:38:40.999Z</time></trkpt><trkpt lat="44.84336478278824" lon="12.0285847057876"><ele>-4.5</ele><time>2026-05-02T16:38:42.999Z</time></trkpt><trkpt lat="44.843404351794774" lon="12.028507558688176"><ele>-4.333333333333333</ele><time>2026-05-02T16:38:44.999Z</time></trkpt><trkpt lat="44.843456977779404" lon="12.028440526263877"><ele>-4.166666666666666</ele><time>2026-05-02T16:38:46.999Z</time></trkpt><trkpt lat="44.843498260207134" lon="12.028331427851427"><ele>-4.0</ele><time>2026-05-02T16:38:48.999Z</time></trkpt><trkpt lat="44.843558444330284" lon="12.028231735537307"><ele>-4.333333333333333</ele><time>2026-05-02T16:38:50.999Z</time></trkpt><trkpt lat="44.84362495933559" lon="12.028148005411996"><ele>-4.666666666666666</ele><time>2026-05-02T16:38:52.999Z</time></trkpt><trkpt lat="44.84367716406484" lon="12.028057096805643"><ele>-5.0</ele><time>2026-05-02T16:38:54.999Z</time></trkpt><trkpt lat="44.84372349466204" lon="12.02797641732009"><ele>-5.333333333333333</ele><time>2026-05-02T16:38:56.999Z</time></trkpt><trkpt lat="44.84376352777047" lon="12.027885161211293"><ele>-5.666666666666667</ele><time>2026-05-02T16:38:58.999Z</time></trkpt><trkpt lat="44.843814194021036" lon="12.027788331710113"><ele>-6.0</ele><time>2026-05-02T16:39:00.999Z</time></trkpt><trkpt lat="44.843876848766335" lon="12.027688058125975"><ele>-6.0</ele><time>2026-05-02T16:39:03Z</time></trkpt><trkpt lat="44.843927793617134" lon="12.02758985706048"><ele>-6.0</ele><time>2026-05-02T16:39:05Z</time></trkpt><trkpt lat="44.843977369048325" lon="12.027502383117495"><ele>-6.0</ele><time>2026-05-02T16:39:07Z</time></trkpt><trkpt lat="44.84402194921994" lon="12.02742311189403"><ele>-6.0</ele><time>2026-05-02T16:39:09Z</time></trkpt><trkpt lat="44.844073704922614" lon="12.027344863123828"><ele>-6.0</ele><time>2026-05-02T16:39:11Z</time></trkpt><trkpt lat="44.84412871350797" lon="12.027248922842606"><ele>-6.0</ele><time>2026-05-02T16:39:13Z</time></trkpt><trkpt lat="44.84418199698957" lon="12.02714570540751"><ele>-6.0</ele><time>2026-05-02T16:39:15Z</time></trkpt><trkpt lat="44.84424571801068" lon="12.027040682974205"><ele>-6.0</ele><time>2026-05-02T16:39:17Z</time></trkpt><trkpt lat="44.84430542829863" lon="12.026941276809993"><ele>-6.0</ele><time>2026-05-02T16:39:19Z</time></trkpt><trkpt lat="44.84435958614077" lon="12.026837337942775"><ele>-6.0</ele><time>2026-05-02T16:39:21Z</time></trkpt><trkpt lat="44.84441762530264" lon="12.026734906642172"><ele>-6.0</ele><time>2026-05-02T16:39:23Z</time></trkpt><trkpt lat="44.84447433750831" lon="12.026636338880339"><ele>-6.0</ele><time>2026-05-02T16:39:25Z</time></trkpt><trkpt lat="44.84453239485018" lon="12.026536230709443"><ele>-6.0</ele><time>2026-05-02T16:39:27Z</time></trkpt><trkpt lat="44.84459228171703" lon="12.026435834879955"><ele>-6.0</ele><time>2026-05-02T16:39:29Z</time></trkpt><trkpt lat="44.844657045155635" lon="12.02634049374716"><ele>-6.0</ele><time>2026-05-02T16:39:31Z</time></trkpt><trkpt lat="44.844719478827734" lon="12.026244433958858"><ele>-6.0</ele><time>2026-05-02T16:39:33Z</time></trkpt><trkpt lat="44.844777607964964" lon="12.026151731179322"><ele>-6.0</ele><time>2026-05-02T16:39:35Z</time></trkpt><trkpt lat="44.84483848134498" lon="12.026067076800205"><ele>-6.0</ele><time>2026-05-02T16:39:37Z</time></trkpt><trkpt lat="44.844902209131455" lon="12.025993694584818"><ele>-6.0</ele><time>2026-05-02T16:39:39Z</time></trkpt><trkpt lat="44.844957032340446" lon="12.025920703200063"><ele>-6.0</ele><time>2026-05-02T16:39:41Z</time></trkpt><trkpt lat="44.8450276612721" lon="12.025872477062034"><ele>-6.0</ele><time>2026-05-02T16:39:43Z</time></trkpt><trkpt lat="44.84508757301737" lon="12.025813756910477"><ele>-6.0</ele><time>2026-05-02T16:39:45Z</time></trkpt><trkpt lat="44.8451510154129" lon="12.025751961272388"><ele>-5.833333333333333</ele><time>2026-05-02T16:39:47Z</time></trkpt><trkpt lat="44.84522066219457" lon="12.025685623923318"><ele>-5.666666666666667</ele><time>2026-05-02T16:39:49Z</time></trkpt><trkpt lat="44.8452798680973" lon="12.025603306863637"><ele>-5.5</ele><time>2026-05-02T16:39:51Z</time></trkpt><trkpt lat="44.845340853723535" lon="12.025545987747666"><ele>-5.333333333333334</ele><time>2026-05-02T16:39:53Z</time></trkpt><trkpt lat="44.845404554033614" lon="12.02549335201594"><ele>-5.166666666666667</ele><time>2026-05-02T16:39:55Z</time></trkpt><trkpt lat="44.845468765757005" lon="12.025432379792948"><ele>-5.0</ele><time>2026-05-02T16:39:57Z</time></trkpt><trkpt lat="44.84553815120816" lon="12.025377042424573"><ele>-5.0</ele><time>2026-05-02T16:39:59Z</time></trkpt><trkpt lat="44.84560650990301" lon="12.025315669167233"><ele>-5.0</ele><time>2026-05-02T16:40:01Z</time></trkpt><trkpt lat="44.84567643957648" lon="12.025255915463491"><ele>-5.0</ele><time>2026-05-02T16:40:03Z</time></trkpt><trkpt lat="44.84574749498216" lon="12.02519505108495"><ele>-5.0</ele><time>2026-05-02T16:40:05Z</time></trkpt><trkpt lat="44.84581463903615" lon="12.02513120906747"><ele>-5.0</ele><time>2026-05-02T16:40:07Z</time></trkpt><trkpt lat="44.845883168123265" lon="12.02507243591387"><ele>-5.0</ele><time>2026-05-02T16:40:09Z</time></trkpt><trkpt lat="44.845951881747844" lon="12.025034283875948"><ele>-5.0</ele><time>2026-05-02T16:40:11Z</time></trkpt><trkpt lat="44.84600894953263" lon="12.024984491065108"><ele>-5.0</ele><time>2026-05-02T16:40:13Z</time></trkpt><trkpt lat="44.84606914915416" lon="12.024931965663214"><ele>-5.0</ele><time>2026-05-02T16:40:15Z</time></trkpt><trkpt lat="44.84613022664124" lon="12.024863298035786"><ele>-5.0</ele><time>2026-05-02T16:40:17Z</time></trkpt><trkpt lat="44.846194408433824" lon="12.024800318942523"><ele>-5.0</ele><time>2026-05-02T16:40:19Z</time></trkpt><trkpt lat="44.846262285102135" lon="12.024750178952761"><ele>-5.0</ele><time>2026-05-02T16:40:20.999Z</time></trkpt><trkpt lat="44.84633190720048" lon="12.024690890369849"><ele>-5.333333333333334</ele><time>2026-05-02T16:40:22.999Z</time></trkpt><trkpt lat="44.84640515977476" lon="12.024642393259734"><ele>-5.666666666666667</ele><time>2026-05-02T16:40:24.999Z</time></trkpt><trkpt lat="44.846474000752956" lon="12.024598639779967"><ele>-6.0</ele><time>2026-05-02T16:40:26.999Z</time></trkpt><trkpt lat="44.846541719201575" lon="12.024551201164106"><ele>-6.333333333333334</ele><time>2026-05-02T16:40:28.999Z</time></trkpt><trkpt lat="44.84661308536613" lon="12.024510777462712"><ele>-6.666666666666667</ele><time>2026-05-02T16:40:30.999Z</time></trkpt><trkpt lat="44.84669820310892" lon="12.024478256549504"><ele>-7.0</ele><time>2026-05-02T16:40:32.999Z</time></trkpt><trkpt lat="44.84677018336893" lon="12.024443659055255"><ele>-6.833333333333334</ele><time>2026-05-02T16:40:34.999Z</time></trkpt><trkpt lat="44.84685045821793" lon="12.024431083432846"><ele>-6.666666666666667</ele><time>2026-05-02T16:40:36.999Z</time></trkpt><trkpt lat="44.8469312719667" lon="12.024396330265565"><ele>-6.5</ele><time>2026-05-02T16:40:38.999Z</time></trkpt><trkpt lat="44.84700814811404" lon="12.024362060175726"><ele>-6.333333333333334</ele><time>2026-05-02T16:40:40.999Z</time></trkpt><trkpt lat="44.84708089268382" lon="12.024305917885432"><ele>-6.166666666666667</ele><time>2026-05-02T16:40:42.999Z</time></trkpt><trkpt lat="44.847166012982456" lon="12.024291686677953"><ele>-6.0</ele><time>2026-05-02T16:40:44.999Z</time></trkpt><trkpt lat="44.8472393384267" lon="12.02424567217426"><ele>-5.999999999999999</ele><time>2026-05-02T16:40:46.999Z</time></trkpt><trkpt lat="44.84730779069536" lon="12.02421696739883"><ele>-6.0</ele><time>2026-05-02T16:40:48.999Z</time></trkpt><trkpt lat="44.84737499139469" lon="12.024207269941146"><ele>-6.0</ele><time>2026-05-02T16:40:50.999Z</time></trkpt><trkpt lat="44.84746698930732" lon="12.024170029965699"><ele>-6.0</ele><time>2026-05-02T16:40:53.999Z</time></trkpt><trkpt lat="44.84752469007231" lon="12.024121556395238"><ele>-6.0</ele><time>2026-05-02T16:40:55.999Z</time></trkpt><trkpt lat="44.84759068304332" lon="12.024117417213796"><ele>-5.999999999999999</ele><time>2026-05-02T16:40:57.999Z</time></trkpt><trkpt lat="44.84766143295171" lon="12.024061908217897"><ele>-6.0</ele><time>2026-05-02T16:41:00.999Z</time></trkpt><trkpt lat="44.84775070434782" lon="12.024026925025325"><ele>-6.0</ele><time>2026-05-02T16:41:03.999Z</time></trkpt><trkpt lat="44.84783906798847" lon="12.024006917637278"><ele>-6.0</ele><time>2026-05-02T16:41:06.999Z</time></trkpt><trkpt lat="44.84789902954418" lon="12.023979376875156"><ele>-6.0</ele><time>2026-05-02T16:41:09Z</time></trkpt><trkpt lat="44.847989431441846" lon="12.02393785464734"><ele>-6.0</ele><time>2026-05-02T16:41:12Z</time></trkpt><trkpt lat="44.848068423577686" lon="12.023901573003789"><ele>-6.0</ele><time>2026-05-02T16:41:15Z</time></trkpt><trkpt lat="44.84814674683388" lon="12.023842621100727"><ele>-6.0</ele><time>2026-05-02T16:41:18Z</time></trkpt><trkpt lat="44.84821477787963" lon="12.023814703410798"><ele>-5.999999999999999</ele><time>2026-05-02T16:41:20Z</time></trkpt><trkpt lat="44.84828060538649" lon="12.023787849205082"><ele>-6.0</ele><time>2026-05-02T16:41:22Z</time></trkpt><trkpt lat="44.848371918217566" lon="12.023751756710062"><ele>-6.0</ele><time>2026-05-02T16:41:25Z</time></trkpt><trkpt lat="44.84843833567357" lon="12.023722771189044"><ele>-6.0</ele><time>2026-05-02T16:41:27Z</time></trkpt><trkpt lat="44.84850800583469" lon="12.023687605574201"><ele>-6.0</ele><time>2026-05-02T16:41:29Z</time></trkpt><trkpt lat="44.848571520374875" lon="12.023664862500246"><ele>-5.999999999999999</ele><time>2026-05-02T16:41:31Z</time></trkpt><trkpt lat="44.848645067818794" lon="12.023632246043546"><ele>-6.0</ele><time>2026-05-02T16:41:34Z</time></trkpt><trkpt lat="44.848723811432926" lon="12.023619553735669"><ele>-6.142857142857142</ele><time>2026-05-02T16:42:36.999Z</time></trkpt><trkpt lat="44.84878915422016" lon="12.023592251265896"><ele>-6.285714285714286</ele><time>2026-05-02T16:42:39.999Z</time></trkpt><trkpt lat="44.84885249664518" lon="12.023565603393102"><ele>-6.428571428571429</ele><time>2026-05-02T16:42:57.999Z</time></trkpt><trkpt lat="44.84893506082419" lon="12.02352860017858"><ele>-6.571428571428571</ele><time>2026-05-02T16:43:01.999Z</time></trkpt><trkpt lat="44.8490020366192" lon="12.023496526294723"><ele>-6.714285714285714</ele><time>2026-05-02T16:43:03.999Z</time></trkpt><trkpt lat="44.8490688306871" lon="12.023461166608449"><ele>-6.857142857142857</ele><time>2026-05-02T16:43:05.999Z</time></trkpt><trkpt lat="44.84913661118724" lon="12.023422367653417"><ele>-7.0</ele><time>2026-05-02T16:43:07.999Z</time></trkpt><trkpt lat="44.84921181659271" lon="12.023371296967213"><ele>-7.000000000000001</ele><time>2026-05-02T16:43:09.999Z</time></trkpt><trkpt lat="44.84928087589628" lon="12.023306875287448"><ele>-7.0</ele><time>2026-05-02T16:43:11.999Z</time></trkpt><trkpt lat="44.84934504079017" lon="12.023238626358253"><ele>-7.0</ele><time>2026-05-02T16:43:13.999Z</time></trkpt><trkpt lat="44.849395815629514" lon="12.023157536228606"><ele>-7.0</ele><time>2026-05-02T16:43:16Z</time></trkpt><trkpt lat="44.84946600749551" lon="12.02309827796926"><ele>-7.000000000000001</ele><time>2026-05-02T16:43:18Z</time></trkpt><trkpt lat="44.849526644318374" lon="12.023020479459335"><ele>-7.0</ele><time>2026-05-02T16:43:20Z</time></trkpt><trkpt lat="44.84958783606307" lon="12.022933646691595"><ele>-7.166666666666667</ele><time>2026-05-02T16:43:22Z</time></trkpt><trkpt lat="44.84964383259312" lon="12.022851448192643"><ele>-7.333333333333334</ele><time>2026-05-02T16:43:24Z</time></trkpt><trkpt lat="44.84970114924552" lon="12.022766676842751"><ele>-7.5</ele><time>2026-05-02T16:43:26Z</time></trkpt><trkpt lat="44.84976376237533" lon="12.022673567672832"><ele>-7.666666666666666</ele><time>2026-05-02T16:43:28Z</time></trkpt><trkpt lat="44.84983132750972" lon="12.022573601150162"><ele>-7.833333333333333</ele><time>2026-05-02T16:43:30Z</time></trkpt><trkpt lat="44.84989821174703" lon="12.02247499284709"><ele>-8.0</ele><time>2026-05-02T16:43:32Z</time></trkpt><trkpt lat="44.849951396060426" lon="12.022363182994193"><ele>-7.6000000000000005</ele><time>2026-05-02T16:43:34Z</time></trkpt><trkpt lat="44.85002773176247" lon="12.02228403980111"><ele>-7.200000000000001</ele><time>2026-05-02T16:43:36Z</time></trkpt><trkpt lat="44.85009534426494" lon="12.022184357808044"><ele>-6.8</ele><time>2026-05-02T16:43:38Z</time></trkpt><trkpt lat="44.850146048916486" lon="12.022079049426143"><ele>-6.4</ele><time>2026-05-02T16:43:40Z</time></trkpt><trkpt lat="44.850216876211285" lon="12.022009108038151"><ele>-6.0</ele><time>2026-05-02T16:43:42Z</time></trkpt><trkpt lat="44.85027430190324" lon="12.02192693181959"><ele>-6.0</ele><time>2026-05-02T16:43:44Z</time></trkpt><trkpt lat="44.85032920439875" lon="12.021848366431934"><ele>-6.0</ele><time>2026-05-02T16:43:46Z</time></trkpt><trkpt lat="44.850387079909666" lon="12.021765546688046"><ele>-6.0</ele><time>2026-05-02T16:43:48Z</time></trkpt><trkpt lat="44.85045372083207" lon="12.021670183649931"><ele>-6.0</ele><time>2026-05-02T16:43:50Z</time></trkpt><trkpt lat="44.850507642954646" lon="12.021560146887447"><ele>-6.0</ele><time>2026-05-02T16:43:52Z</time></trkpt><trkpt lat="44.850587548322146" lon="12.021478676747602"><ele>-6.0</ele><time>2026-05-02T16:43:54Z</time></trkpt><trkpt lat="44.85065607429445" lon="12.021380417236697"><ele>-6.0</ele><time>2026-05-02T16:43:56Z</time></trkpt><trkpt lat="44.850721839984566" lon="12.021284100633276"><ele>-6.0</ele><time>2026-05-02T16:43:58Z</time></trkpt><trkpt lat="44.85078773109625" lon="12.021187600324916"><ele>-6.0</ele><time>2026-05-02T16:44:00Z</time></trkpt><trkpt lat="44.85085347622451" lon="12.021091313857616"><ele>-6.0</ele><time>2026-05-02T16:44:02Z</time></trkpt><trkpt lat="44.85091954184678" lon="12.020995566419034"><ele>-6.0</ele><time>2026-05-02T16:44:04Z</time></trkpt><trkpt lat="44.85098637145631" lon="12.020901346125523"><ele>-5.8</ele><time>2026-05-02T16:44:06Z</time></trkpt><trkpt lat="44.85105199949192" lon="12.020808819865726"><ele>-5.6</ele><time>2026-05-02T16:44:08Z</time></trkpt><trkpt lat="44.851112186673184" lon="12.020701687207376"><ele>-5.4</ele><time>2026-05-02T16:44:10Z</time></trkpt><trkpt lat="44.85118680504537" lon="12.020618931884497"><ele>-5.2</ele><time>2026-05-02T16:44:12Z</time></trkpt><trkpt lat="44.85123859182822" lon="12.020512230372848"><ele>-5.0</ele><time>2026-05-02T16:44:14Z</time></trkpt><trkpt lat="44.85129895813499" lon="12.020431861021022"><ele>-5.0</ele><time>2026-05-02T16:44:16Z</time></trkpt><trkpt lat="44.85135168742591" lon="12.020356946771818"><ele>-5.0</ele><time>2026-05-02T16:44:18Z</time></trkpt><trkpt lat="44.85140825647381" lon="12.020280871796896"><ele>-5.0</ele><time>2026-05-02T16:44:20Z</time></trkpt><trkpt lat="44.85146020962825" lon="12.020199141281491"><ele>-5.0</ele><time>2026-05-02T16:44:22Z</time></trkpt><trkpt lat="44.851519295192816" lon="12.020107497354422"><ele>-5.0</ele><time>2026-05-02T16:44:24Z</time></trkpt><trkpt lat="44.851582685681805" lon="12.020017182948127"><ele>-5.0</ele><time>2026-05-02T16:44:26Z</time></trkpt><trkpt lat="44.8516454457805" lon="12.019936375710914"><ele>-5.0</ele><time>2026-05-02T16:44:28Z</time></trkpt><trkpt lat="44.851707099087804" lon="12.019865253855428"><ele>-5.0</ele><time>2026-05-02T16:44:30Z</time></trkpt><trkpt lat="44.85174877289046" lon="12.019775835974588"><ele>-5.0</ele><time>2026-05-02T16:44:32Z</time></trkpt><trkpt lat="44.851806871689064" lon="12.019696273173146"><ele>-5.0</ele><time>2026-05-02T16:44:34Z</time></trkpt><trkpt lat="44.85187178839652" lon="12.019602525144494"><ele>-5.0</ele><time>2026-05-02T16:44:36Z</time></trkpt><trkpt lat="44.851932416570314" lon="12.019517727711888"><ele>-5.0</ele><time>2026-05-02T16:44:38Z</time></trkpt><trkpt lat="44.85199830216216" lon="12.019437037182794"><ele>-4.833333333333334</ele><time>2026-05-02T16:44:40Z</time></trkpt><trkpt lat="44.8520552100514" lon="12.019341130370831"><ele>-4.666666666666667</ele><time>2026-05-02T16:44:42Z</time></trkpt><trkpt lat="44.85211781244795" lon="12.01924993738503"><ele>-4.5</ele><time>2026-05-02T16:44:44Z</time></trkpt><trkpt lat="44.85217819130236" lon="12.01916875817708"><ele>-4.333333333333333</ele><time>2026-05-02T16:44:46Z</time></trkpt><trkpt lat="44.85223279298225" lon="12.01908984379461"><ele>-4.166666666666666</ele><time>2026-05-02T16:44:48Z</time></trkpt><trkpt lat="44.8522933675177" lon="12.01899763987523"><ele>-4.0</ele><time>2026-05-02T16:44:50Z</time></trkpt><trkpt lat="44.852345614003795" lon="12.018923002519124"><ele>-4.0</ele><time>2026-05-02T16:44:52Z</time></trkpt><trkpt lat="44.852389171981066" lon="12.018857898687955"><ele>-3.9999999999999996</ele><time>2026-05-02T16:44:54Z</time></trkpt><trkpt lat="44.85243579594626" lon="12.01879419165215"><ele>-4.0</ele><time>2026-05-02T16:44:56Z</time></trkpt><trkpt lat="44.85248331884443" lon="12.01871879691369"><ele>-4.0</ele><time>2026-05-02T16:44:57.999Z</time></trkpt><trkpt lat="44.85253395625858" lon="12.018645808036224"><ele>-3.9999999999999996</ele><time>2026-05-02T16:44:59.999Z</time></trkpt><trkpt lat="44.85258618727437" lon="12.018575469271145"><ele>-4.0</ele><time>2026-05-02T16:45:01.999Z</time></trkpt><trkpt lat="44.852634611472446" lon="12.018503800861662"><ele>-4.0</ele><time>2026-05-02T16:45:03.999Z</time></trkpt><trkpt lat="44.852685880715285" lon="12.01843102926219"><ele>-4.333333333333333</ele><time>2026-05-02T16:45:05.999Z</time></trkpt><trkpt lat="44.852737237761275" lon="12.018351764262329"><ele>-4.666666666666666</ele><time>2026-05-02T16:45:07.999Z</time></trkpt><trkpt lat="44.852789798304464" lon="12.018268518324541"><ele>-5.0</ele><time>2026-05-02T16:45:09.999Z</time></trkpt><trkpt lat="44.85284815484416" lon="12.018191736435478"><ele>-5.333333333333333</ele><time>2026-05-02T16:45:11.999Z</time></trkpt><trkpt lat="44.85291243225833" lon="12.018123006606501"><ele>-5.666666666666667</ele><time>2026-05-02T16:45:13.999Z</time></trkpt><trkpt lat="44.85296799821989" lon="12.018042994069653"><ele>-6.0</ele><time>2026-05-02T16:45:15.999Z</time></trkpt><trkpt lat="44.85301680414652" lon="12.017972460532217"><ele>-5.999999999999999</ele><time>2026-05-02T16:45:17.999Z</time></trkpt><trkpt lat="44.85307821212509" lon="12.017881953377849"><ele>-6.0</ele><time>2026-05-02T16:45:21Z</time></trkpt><trkpt lat="44.85312268511651" lon="12.017816406125341"><ele>-6.0</ele><time>2026-05-02T16:45:23Z</time></trkpt><trkpt lat="44.85316847330091" lon="12.017748920453526"><ele>-6.0</ele><time>2026-05-02T16:45:25Z</time></trkpt><trkpt lat="44.8532143725159" lon="12.017681271135205"><ele>-6.0</ele><time>2026-05-02T16:45:27Z</time></trkpt><trkpt lat="44.85324619898308" lon="12.017603163520524"><ele>-5.999999999999999</ele><time>2026-05-02T16:45:29Z</time></trkpt><trkpt lat="44.85330172880012" lon="12.017552519630772"><ele>-6.0</ele><time>2026-05-02T16:45:31Z</time></trkpt><trkpt lat="44.85334807885897" lon="12.017485102124514"><ele>-6.0</ele><time>2026-05-02T16:45:33Z</time></trkpt><trkpt lat="44.853397928201716" lon="12.017413736765409"><ele>-6.0</ele><time>2026-05-02T16:45:35Z</time></trkpt><trkpt lat="44.853455585263745" lon="12.017331193782626"><ele>-6.0</ele><time>2026-05-02T16:45:37Z</time></trkpt><trkpt lat="44.85350823040516" lon="12.017257669982072"><ele>-6.0</ele><time>2026-05-02T16:45:39Z</time></trkpt><trkpt lat="44.85356069186422" lon="12.017184215695737"><ele>-6.0</ele><time>2026-05-02T16:45:41Z</time></trkpt><trkpt lat="44.85361644244586" lon="12.017103171678547"><ele>-6.0</ele><time>2026-05-02T16:45:43Z</time></trkpt><trkpt lat="44.85367413637863" lon="12.017010489162752"><ele>-6.0</ele><time>2026-05-02T16:45:45Z</time></trkpt><trkpt lat="44.85372367057809" lon="12.016923583202669"><ele>-6.0</ele><time>2026-05-02T16:45:47Z</time></trkpt><trkpt lat="44.85376225036498" lon="12.016842236231147"><ele>-6.0</ele><time>2026-05-02T16:45:49Z</time></trkpt><trkpt lat="44.85379633289835" lon="12.016764626888731"><ele>-6.0</ele><time>2026-05-02T16:45:51Z</time></trkpt><trkpt lat="44.85383050414446" lon="12.01667282884795"><ele>-6.0</ele><time>2026-05-02T16:45:53Z</time></trkpt><trkpt lat="44.85386635024343" lon="12.01655488524116"><ele>-6.0</ele><time>2026-05-02T16:45:55Z</time></trkpt><trkpt lat="44.8538979565066" lon="12.016429660723041"><ele>-5.666666666666667</ele><time>2026-05-02T16:45:57Z</time></trkpt><trkpt lat="44.853923306087175" lon="12.01630168691639"><ele>-5.333333333333333</ele><time>2026-05-02T16:45:59Z</time></trkpt><trkpt lat="44.85393955991729" lon="12.01618172456418"><ele>-5.0</ele><time>2026-05-02T16:46:01Z</time></trkpt><trkpt lat="44.853943576406316" lon="12.016064391725369"><ele>-4.666666666666666</ele><time>2026-05-02T16:46:03Z</time></trkpt><trkpt lat="44.85395610651961" lon="12.015951735424832"><ele>-4.333333333333333</ele><time>2026-05-02T16:46:05Z</time></trkpt><trkpt lat="44.85396809989965" lon="12.01585236017253"><ele>-4.0</ele><time>2026-05-02T16:46:07Z</time></trkpt><trkpt lat="44.853972496061786" lon="12.015761956310147"><ele>-3.8571428571428568</ele><time>2026-05-02T16:46:09Z</time></trkpt><trkpt lat="44.85395860566975" lon="12.015657485811875"><ele>-3.714285714285714</ele><time>2026-05-02T16:46:11Z</time></trkpt><trkpt lat="44.8539667172858" lon="12.015565506835415"><ele>-3.571428571428571</ele><time>2026-05-02T16:46:13Z</time></trkpt><trkpt lat="44.85397529196336" lon="12.015476778472236"><ele>-3.4285714285714284</ele><time>2026-05-02T16:46:16Z</time></trkpt><trkpt lat="44.854062625107105" lon="12.015490595305428"><ele>-3.2857142857142856</ele><time>2026-05-02T16:46:18Z</time></trkpt><trkpt lat="44.854135002769894" lon="12.015482816708158"><ele>-3.1428571428571423</ele><time>2026-05-02T16:46:22Z</time></trkpt><trkpt lat="44.85421134011045" lon="12.015477769366724"><ele>-3.0</ele><time>2026-05-02T16:46:24Z</time></trkpt><trkpt lat="44.85427961916619" lon="12.015479320500306"><ele>-3.5</ele><time>2026-05-02T16:46:26Z</time></trkpt><trkpt lat="44.85436616868591" lon="12.015478900827754"><ele>-4.0</ele><time>2026-05-02T16:46:29Z</time></trkpt><trkpt lat="44.854449582614656" lon="12.015478496357623"><ele>-4.5</ele><time>2026-05-02T16:46:32Z</time></trkpt><trkpt lat="44.85453982813608" lon="12.015475908621376"><ele>-5.0</ele><time>2026-05-02T16:46:35Z</time></trkpt><trkpt lat="44.85462494641417" lon="12.015473492013788"><ele>-5.5</ele><time>2026-05-02T16:46:38Z</time></trkpt><trkpt lat="44.85471296119253" lon="12.015468980974985"><ele>-6.0</ele><time>2026-05-02T16:46:41Z</time></trkpt><trkpt lat="44.85481564747182" lon="12.015463273891157"><ele>-5.999999999999999</ele><time>2026-05-02T16:46:44Z</time></trkpt><trkpt lat="44.854891075603646" lon="12.01545908037751"><ele>-6.0</ele><time>2026-05-02T16:46:46Z</time></trkpt><trkpt lat="44.85496805113279" lon="12.015454800833783"><ele>-6.0</ele><time>2026-05-02T16:46:48Z</time></trkpt><trkpt lat="44.85504428082776" lon="12.015450562752864"><ele>-6.0</ele><time>2026-05-02T16:46:50Z</time></trkpt><trkpt lat="44.85512068675071" lon="12.015446314873456"><ele>-6.0</ele><time>2026-05-02T16:46:52Z</time></trkpt><trkpt lat="44.8551902785327" lon="12.015442445831692"><ele>-5.999999999999999</ele><time>2026-05-02T16:46:54Z</time></trkpt><trkpt lat="44.85525586649054" lon="12.015438799394698"><ele>-6.0</ele><time>2026-05-02T16:46:55.999Z</time></trkpt><trkpt lat="44.855324397932456" lon="12.01543498930537"><ele>-6.166666666666667</ele><time>2026-05-02T16:46:57.999Z</time></trkpt><trkpt lat="44.85541399345814" lon="12.015430008132949"><ele>-6.333333333333334</ele><time>2026-05-02T16:47:00.999Z</time></trkpt><trkpt lat="44.855500805551294" lon="12.01542518171438"><ele>-6.5</ele><time>2026-05-02T16:47:03.999Z</time></trkpt><trkpt lat="44.85558332768049" lon="12.015420593797897"><ele>-6.666666666666667</ele><time>2026-05-02T16:47:06.999Z</time></trkpt><trkpt lat="44.85565415422485" lon="12.015416656111663"><ele>-6.833333333333334</ele><time>2026-05-02T16:47:09.999Z</time></trkpt><trkpt lat="44.85574381720778" lon="12.015390035220353"><ele>-7.0</ele><time>2026-05-02T16:47:12.999Z</time></trkpt><trkpt lat="44.85581605306303" lon="12.015388448963458"><ele>-7.000000000000001</ele><time>2026-05-02T16:47:14.999Z</time></trkpt><trkpt lat="44.85588909882376" lon="12.015388851351917"><ele>-7.0</ele><time>2026-05-02T16:47:16.999Z</time></trkpt><trkpt lat="44.85596676211143" lon="12.015383159057327"><ele>-7.0</ele><time>2026-05-02T16:47:18.999Z</time></trkpt><trkpt lat="44.85604530368684" lon="12.015377519093414"><ele>-7.0</ele><time>2026-05-02T16:47:20.999Z</time></trkpt><trkpt lat="44.85612236404105" lon="12.015377384259235"><ele>-7.000000000000001</ele><time>2026-05-02T16:47:22.999Z</time></trkpt><trkpt lat="44.85620120994685" lon="12.015370046263753"><ele>-7.0</ele><time>2026-05-02T16:47:24.999Z</time></trkpt><trkpt lat="44.85628027816216" lon="12.015362294853375"><ele>-7.000000000000001</ele><time>2026-05-02T16:47:27Z</time></trkpt><trkpt lat="44.85636082383908" lon="12.015358453708679"><ele>-7.0</ele><time>2026-05-02T16:47:29Z</time></trkpt><trkpt lat="44.85644425619718" lon="12.015355889088086"><ele>-7.0</ele><time>2026-05-02T16:47:31Z</time></trkpt><trkpt lat="44.856540242717635" lon="12.015354720932038"><ele>-7.0</ele><time>2026-05-02T16:47:33Z</time></trkpt><trkpt lat="44.8566316691611" lon="12.015345633316548"><ele>-7.000000000000001</ele><time>2026-05-02T16:47:35Z</time></trkpt><trkpt lat="44.85672670871906" lon="12.015342172648609"><ele>-7.0</ele><time>2026-05-02T16:47:37Z</time></trkpt><trkpt lat="44.856823933315255" lon="12.015340180040196"><ele>-6.833333333333334</ele><time>2026-05-02T16:47:39Z</time></trkpt><trkpt lat="44.856916979911595" lon="12.015334230207932"><ele>-6.666666666666667</ele><time>2026-05-02T16:47:41Z</time></trkpt><trkpt lat="44.857002678876896" lon="12.015327833264607"><ele>-6.5</ele><time>2026-05-02T16:47:43Z</time></trkpt><trkpt lat="44.857083885798524" lon="12.015323748002809"><ele>-6.333333333333334</ele><time>2026-05-02T16:47:45Z</time></trkpt><trkpt lat="44.85715827238201" lon="12.015320844409779"><ele>-6.166666666666667</ele><time>2026-05-02T16:47:47Z</time></trkpt><trkpt lat="44.85725234258507" lon="12.015335905364998"><ele>-6.0</ele><time>2026-05-02T16:47:49Z</time></trkpt><trkpt lat="44.8573471579628" lon="12.015331540762768"><ele>-6.0</ele><time>2026-05-02T16:47:51Z</time></trkpt><trkpt lat="44.857441287879844" lon="12.01532720771584"><ele>-6.0</ele><time>2026-05-02T16:47:53Z</time></trkpt><trkpt lat="44.857539588272914" lon="12.015322682691414"><ele>-6.0</ele><time>2026-05-02T16:47:55Z</time></trkpt><trkpt lat="44.857639555783415" lon="12.01531808092736"><ele>-6.0</ele><time>2026-05-02T16:47:57Z</time></trkpt><trkpt lat="44.857734959246535" lon="12.015313689255985"><ele>-6.0</ele><time>2026-05-02T16:47:59Z</time></trkpt><trkpt lat="44.8578318013781" lon="12.015309231359108"><ele>-5.833333333333333</ele><time>2026-05-02T16:48:01Z</time></trkpt><trkpt lat="44.857929499254354" lon="12.01530473407062"><ele>-5.666666666666667</ele><time>2026-05-02T16:48:03Z</time></trkpt><trkpt lat="44.858026057641375" lon="12.015300289236578"><ele>-5.5</ele><time>2026-05-02T16:48:05Z</time></trkpt><trkpt lat="44.85811457330655" lon="12.01529621462831"><ele>-5.333333333333334</ele><time>2026-05-02T16:48:07Z</time></trkpt><trkpt lat="44.85819335893711" lon="12.015292587922305"><ele>-5.166666666666667</ele><time>2026-05-02T16:48:09Z</time></trkpt><trkpt lat="44.85826792964895" lon="12.015289155236877"><ele>-5.0</ele><time>2026-05-02T16:48:11Z</time></trkpt><trkpt lat="44.858347093397455" lon="12.015285297362144"><ele>-5.0</ele><time>2026-05-02T16:48:13Z</time></trkpt><trkpt lat="44.858427694976385" lon="12.015280914020092"><ele>-5.0</ele><time>2026-05-02T16:48:15Z</time></trkpt><trkpt lat="44.858505276394" lon="12.015276694923"><ele>-5.0</ele><time>2026-05-02T16:48:17Z</time></trkpt><trkpt lat="44.858585361695056" lon="12.015272339657464"><ele>-5.0</ele><time>2026-05-02T16:48:19Z</time></trkpt><trkpt lat="44.858667522672704" lon="12.015267871511032"><ele>-5.0</ele><time>2026-05-02T16:48:21Z</time></trkpt><trkpt lat="44.85874551863701" lon="12.0152636298693"><ele>-5.0</ele><time>2026-05-02T16:48:23Z</time></trkpt><trkpt lat="44.85882186519244" lon="12.015259477927357"><ele>-5.166666666666667</ele><time>2026-05-02T16:48:25Z</time></trkpt><trkpt lat="44.858890436226126" lon="12.015255748841069"><ele>-5.333333333333334</ele><time>2026-05-02T16:48:27Z</time></trkpt><trkpt lat="44.85896385929941" lon="12.015251755888393"><ele>-5.5</ele><time>2026-05-02T16:48:29Z</time></trkpt><trkpt lat="44.85904966124333" lon="12.015247089735094"><ele>-5.666666666666667</ele><time>2026-05-02T16:48:31Z</time></trkpt><trkpt lat="44.85914248258946" lon="12.015242041846806"><ele>-5.833333333333333</ele><time>2026-05-02T16:48:33Z</time></trkpt><trkpt lat="44.85923762401403" lon="12.015236959057804"><ele>-6.0</ele><time>2026-05-02T16:48:35Z</time></trkpt><trkpt lat="44.85932994862709" lon="12.01523204679184"><ele>-6.166666666666667</ele><time>2026-05-02T16:48:37Z</time></trkpt><trkpt lat="44.85941506717905" lon="12.015227517930759"><ele>-6.333333333333334</ele><time>2026-05-02T16:48:39Z</time></trkpt><trkpt lat="44.859501580425444" lon="12.015222916759887"><ele>-6.5</ele><time>2026-05-02T16:48:41Z</time></trkpt><trkpt lat="44.85958092402207" lon="12.015218695166212"><ele>-6.666666666666667</ele><time>2026-05-02T16:48:43Z</time></trkpt><trkpt lat="44.8596520013059" lon="12.015214913395905"><ele>-6.833333333333334</ele><time>2026-05-02T16:48:45Z</time></trkpt><trkpt lat="44.85972421535609" lon="12.015211071137564"><ele>-7.0</ele><time>2026-05-02T16:48:47Z</time></trkpt><trkpt lat="44.85980634378655" lon="12.01520670137194"><ele>-7.000000000000001</ele><time>2026-05-02T16:48:49Z</time></trkpt><trkpt lat="44.85989782523294" lon="12.015201833967176"><ele>-7.0</ele><time>2026-05-02T16:48:51Z</time></trkpt><trkpt lat="44.85998970618155" lon="12.015196945306306"><ele>-7.0</ele><time>2026-05-02T16:48:53Z</time></trkpt><trkpt lat="44.86008274353498" lon="12.0151919951148"><ele>-7.0</ele><time>2026-05-02T16:48:55Z</time></trkpt><trkpt lat="44.86016645439063" lon="12.015187541159694"><ele>-7.000000000000001</ele><time>2026-05-02T16:48:57Z</time></trkpt><trkpt lat="44.860247053043636" lon="12.015159831784167"><ele>-7.0</ele><time>2026-05-02T16:48:59Z</time></trkpt><trkpt lat="44.86033123033562" lon="12.015179427905085"><ele>-7.000000000000001</ele><time>2026-05-02T16:49:01Z</time></trkpt><trkpt lat="44.86042610009382" lon="12.015176098269036"><ele>-7.0</ele><time>2026-05-02T16:49:02.999Z</time></trkpt><trkpt lat="44.860519726391985" lon="12.01517281227715"><ele>-7.0</ele><time>2026-05-02T16:49:04.999Z</time></trkpt><trkpt lat="44.86060530360102" lon="12.0151698087799"><ele>-7.0</ele><time>2026-05-02T16:49:06.999Z</time></trkpt><trkpt lat="44.86068256335433" lon="12.015167097202909"><ele>-7.000000000000001</ele><time>2026-05-02T16:49:08.999Z</time></trkpt><trkpt lat="44.86075835200175" lon="12.015164437254938"><ele>-7.0</ele><time>2026-05-02T16:49:10.999Z</time></trkpt><trkpt lat="44.86082555438888" lon="12.015162078658404"><ele>-7.000000000000001</ele><time>2026-05-02T16:49:12.999Z</time></trkpt><trkpt lat="44.86089596253724" lon="12.015159607549979"><ele>-7.0</ele><time>2026-05-02T16:49:14.999Z</time></trkpt><trkpt lat="44.860974177875654" lon="12.015156862435074"><ele>-7.0</ele><time>2026-05-02T16:49:16.999Z</time></trkpt><trkpt lat="44.86105463173059" lon="12.015154038752529"><ele>-7.0</ele><time>2026-05-02T16:49:18.999Z</time></trkpt><trkpt lat="44.861133127393906" lon="12.015151283797218"><ele>-7.000000000000001</ele><time>2026-05-02T16:49:20.999Z</time></trkpt><trkpt lat="44.86121189658071" lon="12.015148519243716"><ele>-7.0</ele><time>2026-05-02T16:49:22.999Z</time></trkpt><trkpt lat="44.8612913414168" lon="12.015144747697615"><ele>-6.833333333333334</ele><time>2026-05-02T16:49:24.999Z</time></trkpt><trkpt lat="44.86137062016111" lon="12.01514009527714"><ele>-6.666666666666667</ele><time>2026-05-02T16:49:26.999Z</time></trkpt><trkpt lat="44.861451330822284" lon="12.015135358823942"><ele>-6.5</ele><time>2026-05-02T16:49:28.999Z</time></trkpt><trkpt lat="44.86152845924533" lon="12.015130832593444"><ele>-6.333333333333334</ele><time>2026-05-02T16:49:30.999Z</time></trkpt><trkpt lat="44.86160802595569" lon="12.015126163273969"><ele>-6.166666666666667</ele><time>2026-05-02T16:49:33Z</time></trkpt><trkpt lat="44.861689399670055" lon="12.015121387913295"><ele>-6.0</ele><time>2026-05-02T16:49:35Z</time></trkpt><trkpt lat="44.861770173458765" lon="12.015116647755987"><ele>-5.8</ele><time>2026-05-02T16:49:37Z</time></trkpt><trkpt lat="44.86185925798498" lon="12.01511141988911"><ele>-5.6</ele><time>2026-05-02T16:49:39Z</time></trkpt><trkpt lat="44.86195433551512" lon="12.015105840329669"><ele>-5.4</ele><time>2026-05-02T16:49:41Z</time></trkpt><trkpt lat="44.8620499828783" lon="12.015100227328103"><ele>-5.2</ele><time>2026-05-02T16:49:43Z</time></trkpt><trkpt lat="44.86213912713858" lon="12.015095027685181"><ele>-5.0</ele><time>2026-05-02T16:49:45Z</time></trkpt><trkpt lat="44.8622221901232" lon="12.015090212902221"><ele>-5.0</ele><time>2026-05-02T16:49:47Z</time></trkpt><trkpt lat="44.86230532062177" lon="12.01508539420457"><ele>-5.0</ele><time>2026-05-02T16:49:49Z</time></trkpt><trkpt lat="44.86239747365325" lon="12.015080052514111"><ele>-5.0</ele><time>2026-05-02T16:49:51Z</time></trkpt><trkpt lat="44.862494960199676" lon="12.01507440166388"><ele>-5.0</ele><time>2026-05-02T16:49:53Z</time></trkpt><trkpt lat="44.8625909894226" lon="12.015068835288595"><ele>-5.0</ele><time>2026-05-02T16:49:55Z</time></trkpt><trkpt lat="44.862680091659136" lon="12.015063670433198"><ele>-5.333333333333334</ele><time>2026-05-02T16:49:57Z</time></trkpt><trkpt lat="44.86276725335445" lon="12.015058618067432"><ele>-5.666666666666667</ele><time>2026-05-02T16:49:59Z</time></trkpt><trkpt lat="44.86285135090549" lon="12.015053743312562"><ele>-6.0</ele><time>2026-05-02T16:50:01Z</time></trkpt><trkpt lat="44.86293170839788" lon="12.015049085355201"><ele>-6.333333333333334</ele><time>2026-05-02T16:50:03Z</time></trkpt><trkpt lat="44.863015361182" lon="12.015044236383357"><ele>-6.666666666666667</ele><time>2026-05-02T16:50:05Z</time></trkpt><trkpt lat="44.86309693647029" lon="12.015039507831812"><ele>-7.0</ele><time>2026-05-02T16:50:07Z</time></trkpt><trkpt lat="44.86318206347071" lon="12.015034976287854"><ele>-7.0</ele><time>2026-05-02T16:50:09Z</time></trkpt><trkpt lat="44.863274685166935" lon="12.015030434256827"><ele>-6.999999999999999</ele><time>2026-05-02T16:50:11Z</time></trkpt><trkpt lat="44.863371849376755" lon="12.015025669479074"><ele>-6.999999999999999</ele><time>2026-05-02T16:50:13Z</time></trkpt><trkpt lat="44.86346374591339" lon="12.015021163012095"><ele>-7.0</ele><time>2026-05-02T16:50:15Z</time></trkpt><trkpt lat="44.86354427663368" lon="12.015017213910488"><ele>-7.0</ele><time>2026-05-02T16:50:17Z</time></trkpt><trkpt lat="44.86363178565375" lon="12.015012922600018"><ele>-7.000000000000001</ele><time>2026-05-02T16:50:19Z</time></trkpt><trkpt lat="44.86371382291451" lon="12.015008520347024"><ele>-7.0</ele><time>2026-05-02T16:50:21Z</time></trkpt><trkpt lat="44.86379348293438" lon="12.015004082987058"><ele>-7.0</ele><time>2026-05-02T16:50:23Z</time></trkpt><trkpt lat="44.86387702536624" lon="12.014999429365584"><ele>-7.0</ele><time>2026-05-02T16:50:25Z</time></trkpt><trkpt lat="44.86395710327051" lon="12.014994970585432"><ele>-7.000000000000001</ele><time>2026-05-02T16:50:27Z</time></trkpt><trkpt lat="44.86404904803708" lon="12.014989150844547"><ele>-7.0</ele><time>2026-05-02T16:50:29Z</time></trkpt><trkpt lat="44.86413983876016" lon="12.01498293085169"><ele>-7.0</ele><time>2026-05-02T16:50:31Z</time></trkpt><trkpt lat="44.86422190901296" lon="12.014977308311082"><ele>-7.0</ele><time>2026-05-02T16:50:33Z</time></trkpt><trkpt lat="44.864296898094516" lon="12.014948766614427"><ele>-7.0</ele><time>2026-05-02T16:50:35Z</time></trkpt><trkpt lat="44.86438179714511" lon="12.01494941573248"><ele>-7.0</ele><time>2026-05-02T16:50:37Z</time></trkpt><trkpt lat="44.864455632822924" lon="12.014942022526336"><ele>-7.0</ele><time>2026-05-02T16:50:39Z</time></trkpt><trkpt lat="44.86452028904358" lon="12.014938826822949"><ele>-7.0</ele><time>2026-05-02T16:50:41Z</time></trkpt><trkpt lat="44.86458457793858" lon="12.014940129682468"><ele>-7.0</ele><time>2026-05-02T16:50:43Z</time></trkpt><trkpt lat="44.86466651800266" lon="12.01493299341054"><ele>-6.666666666666667</ele><time>2026-05-02T16:50:46Z</time></trkpt><trkpt lat="44.86475555582324" lon="12.014932391968145"><ele>-6.333333333333334</ele><time>2026-05-02T16:50:49Z</time></trkpt><trkpt lat="44.86483879441105" lon="12.01493436258232"><ele>-6.0</ele><time>2026-05-02T16:50:51Z</time></trkpt><trkpt lat="44.86491517989953" lon="12.014939862790882"><ele>-5.666666666666667</ele><time>2026-05-02T16:50:52.999Z</time></trkpt><trkpt lat="44.864990008864815" lon="12.01493954277714"><ele>-5.333333333333334</ele><time>2026-05-02T16:50:54.999Z</time></trkpt><trkpt lat="44.86506560639063" lon="12.014953271986665"><ele>-5.0</ele><time>2026-05-02T16:50:56.999Z</time></trkpt><trkpt lat="44.865140925909074" lon="12.01497619714207"><ele>-5.0</ele><time>2026-05-02T16:50:58.999Z</time></trkpt><trkpt lat="44.865221162594224" lon="12.014983697366123"><ele>-5.0</ele><time>2026-05-02T16:51:00.999Z</time></trkpt><trkpt lat="44.8652959130991" lon="12.015006397465104"><ele>-5.0</ele><time>2026-05-02T16:51:02.999Z</time></trkpt><trkpt lat="44.865366453931195" lon="12.015057461529045"><ele>-5.0</ele><time>2026-05-02T16:51:04.999Z</time></trkpt><trkpt lat="44.86544422339115" lon="12.015090251320576"><ele>-5.0</ele><time>2026-05-02T16:51:06.999Z</time></trkpt><trkpt lat="44.86552113254937" lon="12.015129449055586"><ele>-5.0</ele><time>2026-05-02T16:51:08.999Z</time></trkpt><trkpt lat="44.865599193038754" lon="12.015176974499834"><ele>-5.166666666666667</ele><time>2026-05-02T16:51:10.999Z</time></trkpt><trkpt lat="44.86567622879576" lon="12.015226732710872"><ele>-5.333333333333334</ele><time>2026-05-02T16:51:12.999Z</time></trkpt><trkpt lat="44.86575116440354" lon="12.015279681392006"><ele>-5.5</ele><time>2026-05-02T16:51:14.999Z</time></trkpt><trkpt lat="44.86582066824342" lon="12.015335637433244"><ele>-5.666666666666667</ele><time>2026-05-02T16:51:16.999Z</time></trkpt><trkpt lat="44.865893815738914" lon="12.015396145446715"><ele>-5.833333333333333</ele><time>2026-05-02T16:51:18.999Z</time></trkpt><trkpt lat="44.86596430366936" lon="12.015458065384397"><ele>-6.0</ele><time>2026-05-02T16:51:20.999Z</time></trkpt><trkpt lat="44.866039648173455" lon="12.015500351319504"><ele>-6.166666666666667</ele><time>2026-05-02T16:51:22.999Z</time></trkpt><trkpt lat="44.866099017548464" lon="12.015582241345294"><ele>-6.333333333333334</ele><time>2026-05-02T16:51:24.999Z</time></trkpt><trkpt lat="44.86616863071507" lon="12.015643199464929"><ele>-6.5</ele><time>2026-05-02T16:51:26.999Z</time></trkpt><trkpt lat="44.86624325171222" lon="12.015679544197601"><ele>-6.666666666666667</ele><time>2026-05-02T16:51:28.999Z</time></trkpt><trkpt lat="44.86630568340512" lon="12.015750663848884"><ele>-6.833333333333334</ele><time>2026-05-02T16:51:30.999Z</time></trkpt><trkpt lat="44.86638020993024" lon="12.015801565643354"><ele>-7.0</ele><time>2026-05-02T16:51:32.999Z</time></trkpt><trkpt lat="44.86645533040087" lon="12.015847418673996"><ele>-7.000000000000001</ele><time>2026-05-02T16:51:34.999Z</time></trkpt><trkpt lat="44.86653166344572" lon="12.015887628960474"><ele>-7.0</ele><time>2026-05-02T16:51:36.999Z</time></trkpt><trkpt lat="44.866611362522825" lon="12.015923506953708"><ele>-7.0</ele><time>2026-05-02T16:51:39Z</time></trkpt><trkpt lat="44.86668849082099" lon="12.015953371250312"><ele>-7.0</ele><time>2026-05-02T16:51:41Z</time></trkpt><trkpt lat="44.86676717274572" lon="12.01597909520601"><ele>-7.000000000000001</ele><time>2026-05-02T16:51:43Z</time></trkpt><trkpt lat="44.86684665424041" lon="12.016001911355476"><ele>-7.0</ele><time>2026-05-02T16:51:45Z</time></trkpt><trkpt lat="44.866928278295354" lon="12.016019743606597"><ele>-7.000000000000001</ele><time>2026-05-02T16:51:47Z</time></trkpt><trkpt lat="44.867009853849865" lon="12.01603074082484"><ele>-7.0</ele><time>2026-05-02T16:51:49Z</time></trkpt><trkpt lat="44.86709522528875" lon="12.016030770106983"><ele>-7.0</ele><time>2026-05-02T16:51:51Z</time></trkpt><trkpt lat="44.86717420592947" lon="12.01602847957994"><ele>-7.0</ele><time>2026-05-02T16:51:53Z</time></trkpt><trkpt lat="44.867262423089585" lon="12.016024191552738"><ele>-7.000000000000001</ele><time>2026-05-02T16:51:55Z</time></trkpt><trkpt lat="44.86734867918534" lon="12.01600908150165"><ele>-7.0</ele><time>2026-05-02T16:51:57Z</time></trkpt><trkpt lat="44.86741352512154" lon="12.016014780571382"><ele>-7.000000000000001</ele><time>2026-05-02T16:51:59Z</time></trkpt><trkpt lat="44.867479443040935" lon="12.015996149018836"><ele>-7.0</ele><time>2026-05-02T16:52:01Z</time></trkpt><trkpt lat="44.867553703205544" lon="12.016018057610582"><ele>-7.0</ele><time>2026-05-02T16:52:03Z</time></trkpt><trkpt lat="44.867648068244065" lon="12.016016760053363"><ele>-7.0</ele><time>2026-05-02T16:52:05Z</time></trkpt><trkpt lat="44.8677449060174" lon="12.0160154284931"><ele>-7.000000000000001</ele><time>2026-05-02T16:52:07Z</time></trkpt><trkpt lat="44.86783657555418" lon="12.016014167997268"><ele>-7.0</ele><time>2026-05-02T16:52:09Z</time></trkpt><trkpt lat="44.86792778588199" lon="12.016012913815759"><ele>-6.833333333333334</ele><time>2026-05-02T16:52:11Z</time></trkpt><trkpt lat="44.86801221385398" lon="12.016011752894919"><ele>-6.666666666666667</ele><time>2026-05-02T16:52:13Z</time></trkpt><trkpt lat="44.86809416801709" lon="12.016011469683098"><ele>-6.5</ele><time>2026-05-02T16:52:15Z</time></trkpt><trkpt lat="44.86817827829293" lon="12.016012858050395"><ele>-6.333333333333334</ele><time>2026-05-02T16:52:17Z</time></trkpt><trkpt lat="44.868262708921314" lon="12.01601425170962"><ele>-6.166666666666667</ele><time>2026-05-02T16:52:19Z</time></trkpt><trkpt lat="44.86834677251979" lon="12.016015639305627"><ele>-6.0</ele><time>2026-05-02T16:52:21Z</time></trkpt><trkpt lat="44.868429547479" lon="12.016017005634435"><ele>-5.833333333333333</ele><time>2026-05-02T16:52:23Z</time></trkpt><trkpt lat="44.868510250344976" lon="12.016016888190931"><ele>-5.666666666666667</ele><time>2026-05-02T16:52:25Z</time></trkpt><trkpt lat="44.86860059673798" lon="12.016014934915106"><ele>-5.5</ele><time>2026-05-02T16:52:27Z</time></trkpt><trkpt lat="44.86868626423135" lon="12.016013082790524"><ele>-5.333333333333334</ele><time>2026-05-02T16:52:29Z</time></trkpt><trkpt lat="44.868768092371596" lon="12.016011315574486"><ele>-5.166666666666667</ele><time>2026-05-02T16:52:31Z</time></trkpt><trkpt lat="44.86884048558572" lon="12.016009750442732"><ele>-5.0</ele><time>2026-05-02T16:52:33Z</time></trkpt><trkpt lat="44.86891234456542" lon="12.016008196860286"><ele>-5.0</ele><time>2026-05-02T16:52:35Z</time></trkpt><trkpt lat="44.8690017817046" lon="12.01600626323672"><ele>-5.0</ele><time>2026-05-02T16:52:38Z</time></trkpt><trkpt lat="44.86906513296252" lon="12.016004893595053"><ele>-5.0</ele><time>2026-05-02T16:52:40Z</time></trkpt><trkpt lat="44.869140013312304" lon="12.016003160921102"><ele>-5.0</ele><time>2026-05-02T16:52:42Z</time></trkpt><trkpt lat="44.86921487221686" lon="12.01600136409636"><ele>-5.0</ele><time>2026-05-02T16:52:44Z</time></trkpt><trkpt lat="44.869290852271284" lon="12.015999540363428"><ele>-5.0</ele><time>2026-05-02T16:52:46Z</time></trkpt><trkpt lat="44.86937150633887" lon="12.015988385659282"><ele>-5.142857142857142</ele><time>2026-05-02T16:52:48Z</time></trkpt><trkpt lat="44.86945122636724" lon="12.015997237880898"><ele>-5.285714285714286</ele><time>2026-05-02T16:52:50Z</time></trkpt><trkpt lat="44.86952762868252" lon="12.01597376757474"><ele>-5.428571428571429</ele><time>2026-05-02T16:52:52Z</time></trkpt><trkpt lat="44.86959621624163" lon="12.01599671815618"><ele>-5.571428571428571</ele><time>2026-05-02T16:53:37.999Z</time></trkpt><trkpt lat="44.869659674833294" lon="12.01599649068482"><ele>-5.714285714285714</ele><time>2026-05-02T16:53:40.999Z</time></trkpt><trkpt lat="44.86974632347774" lon="12.015996180088273"><ele>-5.857142857142857</ele><time>2026-05-02T16:53:45Z</time></trkpt><trkpt lat="44.869811113632245" lon="12.015995947845651"><ele>-6.0</ele><time>2026-05-02T16:53:47Z</time></trkpt><trkpt lat="44.86988470800551" lon="12.015995684042062"><ele>-6.0</ele><time>2026-05-02T16:53:49Z</time></trkpt><trkpt lat="44.869960595932625" lon="12.015995412018661"><ele>-6.0</ele><time>2026-05-02T16:53:51Z</time></trkpt><trkpt lat="44.87002782719976" lon="12.01599517102442"><ele>-6.0</ele><time>2026-05-02T16:53:53Z</time></trkpt><trkpt lat="44.87010463035714" lon="12.015994895720148"><ele>-6.0</ele><time>2026-05-02T16:53:55Z</time></trkpt><trkpt lat="44.87018437277394" lon="12.015994609878446"><ele>-6.0</ele><time>2026-05-02T16:53:57Z</time></trkpt><trkpt lat="44.87026274709692" lon="12.015994328942444"><ele>-6.0</ele><time>2026-05-02T16:53:59Z</time></trkpt><trkpt lat="44.87034685892386" lon="12.015994027438893"><ele>-5.666666666666667</ele><time>2026-05-02T16:54:01Z</time></trkpt><trkpt lat="44.87042733270777" lon="12.015993738978562"><ele>-5.333333333333333</ele><time>2026-05-02T16:54:03Z</time></trkpt><trkpt lat="44.87050702190243" lon="12.015993377373963"><ele>-5.0</ele><time>2026-05-02T16:54:05Z</time></trkpt><trkpt lat="44.87059197216992" lon="12.015992663201951"><ele>-4.666666666666666</ele><time>2026-05-02T16:54:07Z</time></trkpt><trkpt lat="44.87067335620705" lon="12.015991979016011"><ele>-4.333333333333333</ele><time>2026-05-02T16:54:09Z</time></trkpt><trkpt lat="44.87074873497539" lon="12.015991345314175"><ele>-4.0</ele><time>2026-05-02T16:54:11Z</time></trkpt><trkpt lat="44.87082780875479" lon="12.01599068055063"><ele>-3.9999999999999996</ele><time>2026-05-02T16:54:13Z</time></trkpt><trkpt lat="44.87090824963911" lon="12.01599000429218"><ele>-4.0</ele><time>2026-05-02T16:54:15Z</time></trkpt><trkpt lat="44.87098468223434" lon="12.015989361732668"><ele>-4.0</ele><time>2026-05-02T16:54:17Z</time></trkpt><trkpt lat="44.87106175130453" lon="12.01598871381997"><ele>-4.0</ele><time>2026-05-02T16:54:19Z</time></trkpt><trkpt lat="44.87114132550948" lon="12.015988044846624"><ele>-3.9999999999999996</ele><time>2026-05-02T16:54:21Z</time></trkpt><trkpt lat="44.87122542026356" lon="12.015987337871875"><ele>-4.0</ele><time>2026-05-02T16:54:23Z</time></trkpt><trkpt lat="44.871305374747216" lon="12.015986665703386"><ele>-4.333333333333333</ele><time>2026-05-02T16:54:25Z</time></trkpt><trkpt lat="44.87138780992911" lon="12.015985972678546"><ele>-4.666666666666666</ele><time>2026-05-02T16:54:27Z</time></trkpt><trkpt lat="44.87147054554115" lon="12.015985281327517"><ele>-5.0</ele><time>2026-05-02T16:54:29Z</time></trkpt><trkpt lat="44.87156303446179" lon="12.01598451782998"><ele>-5.333333333333333</ele><time>2026-05-02T16:54:31Z</time></trkpt><trkpt lat="44.87164986368865" lon="12.01598380105223"><ele>-5.666666666666667</ele><time>2026-05-02T16:54:33Z</time></trkpt><trkpt lat="44.87173795330866" lon="12.015983073869432"><ele>-6.0</ele><time>2026-05-02T16:54:35Z</time></trkpt><trkpt lat="44.87183171949018" lon="12.015982299827611"><ele>-6.0</ele><time>2026-05-02T16:54:37Z</time></trkpt><trkpt lat="44.871926490259675" lon="12.015981517492493"><ele>-6.0</ele><time>2026-05-02T16:54:39Z</time></trkpt><trkpt lat="44.87201340410947" lon="12.015980800015551"><ele>-6.0</ele><time>2026-05-02T16:54:41Z</time></trkpt><trkpt lat="44.87209039699973" lon="12.015980164437185"><ele>-6.0</ele><time>2026-05-02T16:54:43Z</time></trkpt><trkpt lat="44.87215933418241" lon="12.015979595357983"><ele>-6.0</ele><time>2026-05-02T16:54:45Z</time></trkpt><trkpt lat="44.872240157520515" lon="12.015978928157901"><ele>-6.0</ele><time>2026-05-02T16:54:47Z</time></trkpt><trkpt lat="44.87232254499866" lon="12.015978248048395"><ele>-6.0</ele><time>2026-05-02T16:54:49Z</time></trkpt><trkpt lat="44.872392671458925" lon="12.015977669152399"><ele>-6.0</ele><time>2026-05-02T16:54:51Z</time></trkpt><trkpt lat="44.87246536340087" lon="12.01597706907915"><ele>-6.0</ele><time>2026-05-02T16:54:53Z</time></trkpt><trkpt lat="44.87255103476137" lon="12.015976361860107"><ele>-6.0</ele><time>2026-05-02T16:54:55Z</time></trkpt><trkpt lat="44.87262997580433" lon="12.015975588150793"><ele>-6.0</ele><time>2026-05-02T16:54:57Z</time></trkpt><trkpt lat="44.87270980727105" lon="12.015974727674733"><ele>-6.0</ele><time>2026-05-02T16:54:59Z</time></trkpt><trkpt lat="44.87277478450908" lon="12.015974027308873"><ele>-5.833333333333333</ele><time>2026-05-02T16:55:01Z</time></trkpt><trkpt lat="44.87286295826318" lon="12.015973076915154"><ele>-5.666666666666667</ele><time>2026-05-02T16:55:04Z</time></trkpt><trkpt lat="44.87294309104056" lon="12.01597221319427"><ele>-5.5</ele><time>2026-05-02T16:55:06Z</time></trkpt><trkpt lat="44.87301392331894" lon="12.015971449720048"><ele>-5.333333333333334</ele><time>2026-05-02T16:55:08Z</time></trkpt><trkpt lat="44.87308075041381" lon="12.015970729416003"><ele>-5.166666666666667</ele><time>2026-05-02T16:55:10Z</time></trkpt><trkpt lat="44.87315540278269" lon="12.015969924763022"><ele>-5.0</ele><time>2026-05-02T16:55:12Z</time></trkpt><trkpt lat="44.87324445474475" lon="12.015968964976304"><ele>-5.0</ele><time>2026-05-02T16:55:14Z</time></trkpt><trkpt lat="44.87332608989467" lon="12.01596808520253"><ele>-5.0</ele><time>2026-05-02T16:55:16Z</time></trkpt><trkpt lat="44.87340146825886" lon="12.015967272857438"><ele>-5.0</ele><time>2026-05-02T16:55:18Z</time></trkpt><trkpt lat="44.87350008341508" lon="12.015966212007084"><ele>-5.0</ele><time>2026-05-02T16:55:21Z</time></trkpt><trkpt lat="44.873588920404515" lon="12.015965254620097"><ele>-5.0</ele><time>2026-05-02T16:55:22.999Z</time></trkpt><trkpt lat="44.87367632512374" lon="12.015964312669784"><ele>-5.0</ele><time>2026-05-02T16:55:24.999Z</time></trkpt><trkpt lat="44.873753303677084" lon="12.015963483079396"><ele>-5.166666666666667</ele><time>2026-05-02T16:55:26.999Z</time></trkpt><trkpt lat="44.87383576359515" lon="12.01596264534791"><ele>-5.333333333333334</ele><time>2026-05-02T16:55:28.999Z</time></trkpt><trkpt lat="44.873916409108844" lon="12.01596215432764"><ele>-5.5</ele><time>2026-05-02T16:55:30.999Z</time></trkpt><trkpt lat="44.87399095164955" lon="12.015961700462775"><ele>-5.666666666666667</ele><time>2026-05-02T16:55:32.999Z</time></trkpt><trkpt lat="44.874059539275024" lon="12.015961282856903"><ele>-5.833333333333333</ele><time>2026-05-02T16:55:34.999Z</time></trkpt><trkpt lat="44.874129676509334" lon="12.01596085581538"><ele>-6.0</ele><time>2026-05-02T16:55:36.999Z</time></trkpt><trkpt lat="44.87420931938893" lon="12.01596037089752"><ele>-6.0</ele><time>2026-05-02T16:55:38.999Z</time></trkpt><trkpt lat="44.87428472310814" lon="12.015959911790933"><ele>-6.0</ele><time>2026-05-02T16:55:40.999Z</time></trkpt><trkpt lat="44.87436390157733" lon="12.015959429700704"><ele>-6.0</ele><time>2026-05-02T16:55:42.999Z</time></trkpt><trkpt lat="44.87444740176863" lon="12.015958921296644"><ele>-6.0</ele><time>2026-05-02T16:55:44.999Z</time></trkpt><trkpt lat="44.87452432727185" lon="12.015958452924787"><ele>-6.0</ele><time>2026-05-02T16:55:46.999Z</time></trkpt><trkpt lat="44.87460316443421" lon="12.015957972912735"><ele>-6.0</ele><time>2026-05-02T16:55:48.999Z</time></trkpt><trkpt lat="44.87468229176147" lon="12.01595749113491"><ele>-6.0</ele><time>2026-05-02T16:55:51Z</time></trkpt><trkpt lat="44.874753328452236" lon="12.01595705861638"><ele>-6.0</ele><time>2026-05-02T16:55:53Z</time></trkpt><trkpt lat="44.874827795606684" lon="12.015956605212578"><ele>-6.0</ele><time>2026-05-02T16:55:55Z</time></trkpt><trkpt lat="44.8749059961835" lon="12.01595612907647"><ele>-6.0</ele><time>2026-05-02T16:55:57Z</time></trkpt><trkpt lat="44.8749909292244" lon="12.0159556119496"><ele>-6.0</ele><time>2026-05-02T16:55:59Z</time></trkpt><trkpt lat="44.87507837820766" lon="12.01595507950171"><ele>-6.0</ele><time>2026-05-02T16:56:01Z</time></trkpt><trkpt lat="44.875158462440176" lon="12.015954591898218"><ele>-5.833333333333333</ele><time>2026-05-02T16:56:03Z</time></trkpt><trkpt lat="44.87523206561147" lon="12.015954143753893"><ele>-5.666666666666667</ele><time>2026-05-02T16:56:05Z</time></trkpt><trkpt lat="44.875308199503756" lon="12.015953680201578"><ele>-5.5</ele><time>2026-05-02T16:56:07Z</time></trkpt><trkpt lat="44.87540095416463" lon="12.015953115450344"><ele>-5.333333333333334</ele><time>2026-05-02T16:56:09Z</time></trkpt><trkpt lat="44.87547999363946" lon="12.015952634207718"><ele>-5.166666666666667</ele><time>2026-05-02T16:56:11Z</time></trkpt><trkpt lat="44.87554763140099" lon="12.015952222384765"><ele>-5.0</ele><time>2026-05-02T16:56:13Z</time></trkpt><trkpt lat="44.875628713427446" lon="12.015951728704819"><ele>-5.0</ele><time>2026-05-02T16:56:15Z</time></trkpt><trkpt lat="44.87570529584681" lon="12.015951262419865"><ele>-5.0</ele><time>2026-05-02T16:56:17Z</time></trkpt><trkpt lat="44.87577515387743" lon="12.015950837081359"><ele>-5.0</ele><time>2026-05-02T16:56:19Z</time></trkpt><trkpt lat="44.87584914996798" lon="12.015950386543631"><ele>-5.0</ele><time>2026-05-02T16:56:21Z</time></trkpt><trkpt lat="44.875920830789966" lon="12.015949950104133"><ele>-5.0</ele><time>2026-05-02T16:56:23Z</time></trkpt><trkpt lat="44.87598408393501" lon="12.015949564976879"><ele>-5.0</ele><time>2026-05-02T16:56:25Z</time></trkpt><trkpt lat="44.87605341577664" lon="12.015949142839467"><ele>-5.0</ele><time>2026-05-02T16:56:27Z</time></trkpt><trkpt lat="44.87614395889625" lon="12.015948591553625"><ele>-5.0</ele><time>2026-05-02T16:56:30Z</time></trkpt><trkpt lat="44.87621517430925" lon="12.015948157951128"><ele>-5.0</ele><time>2026-05-02T16:58:13Z</time></trkpt><trkpt lat="44.87628903306547" lon="12.015947708250248"><ele>-5.0</ele><time>2026-05-02T16:58:16Z</time></trkpt><trkpt lat="44.87635250561977" lon="12.015947321787987"><ele>-5.0</ele><time>2026-05-02T16:58:18Z</time></trkpt><trkpt lat="44.87642172582461" lon="12.015946900329485"><ele>-5.0</ele><time>2026-05-02T16:58:20Z</time></trkpt><trkpt lat="44.87650301534154" lon="12.015946405385026"><ele>-5.0</ele><time>2026-05-02T16:58:22Z</time></trkpt><trkpt lat="44.87657894958108" lon="12.015945943047504"><ele>-5.0</ele><time>2026-05-02T16:58:24Z</time></trkpt><trkpt lat="44.87665086414921" lon="12.015945505183677"><ele>-5.0</ele><time>2026-05-02T16:58:26Z</time></trkpt><trkpt lat="44.876725384161674" lon="12.015944928839177"><ele>-5.0</ele><time>2026-05-02T16:58:28Z</time></trkpt><trkpt lat="44.876795138188726" lon="12.01594417872852"><ele>-5.0</ele><time>2026-05-02T16:58:30Z</time></trkpt><trkpt lat="44.87687678298347" lon="12.01594330074829"><ele>-5.0</ele><time>2026-05-02T16:58:32Z</time></trkpt><trkpt lat="44.876967926041246" lon="12.015942320627591"><ele>-5.0</ele><time>2026-05-02T16:58:34Z</time></trkpt><trkpt lat="44.87705891248087" lon="12.015941342189425"><ele>-5.0</ele><time>2026-05-02T16:58:36Z</time></trkpt><trkpt lat="44.877137758475726" lon="12.015940494306586"><ele>-4.833333333333334</ele><time>2026-05-02T16:58:38Z</time></trkpt><trkpt lat="44.877230165406246" lon="12.015939500595936"><ele>-4.666666666666667</ele><time>2026-05-02T16:58:40Z</time></trkpt><trkpt lat="44.87731768351441" lon="12.015938559455423"><ele>-4.5</ele><time>2026-05-02T16:58:42Z</time></trkpt><trkpt lat="44.87739703290479" lon="12.015937706159313"><ele>-4.333333333333333</ele><time>2026-05-02T16:58:44Z</time></trkpt><trkpt lat="44.877491034459304" lon="12.015936695299558"><ele>-4.166666666666666</ele><time>2026-05-02T16:58:46Z</time></trkpt><trkpt lat="44.87758201409662" lon="12.01593571693649"><ele>-4.0</ele><time>2026-05-02T16:58:48Z</time></trkpt><trkpt lat="44.87768140767189" lon="12.015934648094795"><ele>-3.833333333333333</ele><time>2026-05-02T16:58:50Z</time></trkpt><trkpt lat="44.87777048456107" lon="12.015933690191835"><ele>-3.6666666666666665</ele><time>2026-05-02T16:58:52Z</time></trkpt><trkpt lat="44.877847537542415" lon="12.015934393686393"><ele>-3.5</ele><time>2026-05-02T16:58:54Z</time></trkpt><trkpt lat="44.87791872951509" lon="12.015936954842045"><ele>-3.333333333333333</ele><time>2026-05-02T16:58:56Z</time></trkpt><trkpt lat="44.87799674534788" lon="12.01593976148834"><ele>-3.1666666666666665</ele><time>2026-05-02T16:58:58Z</time></trkpt><trkpt lat="44.878081234876845" lon="12.015942801032503"><ele>-3.0</ele><time>2026-05-02T16:59:00Z</time></trkpt><trkpt lat="44.878158935599565" lon="12.015945596346679"><ele>-3.0</ele><time>2026-05-02T16:59:02Z</time></trkpt><trkpt lat="44.87822883885596" lon="12.015948111140593"><ele>-3.0</ele><time>2026-05-02T16:59:04Z</time></trkpt><trkpt lat="44.87830830093547" lon="12.015950969819485"><ele>-3.0</ele><time>2026-05-02T16:59:07Z</time></trkpt><trkpt lat="44.87837406100668" lon="12.015953335524342"><ele>-3.0</ele><time>2026-05-02T16:59:11Z</time></trkpt><trkpt lat="44.87838782501237" lon="12.015773550834377"><ele>-3.0</ele><time>2026-05-02T16:59:12Z</time></trkpt><trkpt lat="44.878433434568294" lon="12.015636547945027"><ele>-3.0</ele><time>2026-05-02T16:59:15Z</time></trkpt><trkpt lat="44.878465409937554" lon="12.015511066499338"><ele>-3.0</ele><time>2026-05-02T16:59:17Z</time></trkpt><trkpt lat="44.878496764451356" lon="12.015388609224875"><ele>-3.0</ele><time>2026-05-02T16:59:19Z</time></trkpt><trkpt lat="44.878530851657516" lon="12.015259464873747"><ele>-3.0</ele><time>2026-05-02T16:59:21Z</time></trkpt><trkpt lat="44.878563679353974" lon="12.015128250671802"><ele>-3.0</ele><time>2026-05-02T16:59:23Z</time></trkpt><trkpt lat="44.878598348712885" lon="12.014998708991"><ele>-3.4</ele><time>2026-05-02T16:59:25Z</time></trkpt><trkpt lat="44.87862975223755" lon="12.014871441249495"><ele>-3.8</ele><time>2026-05-02T16:59:26.999Z</time></trkpt><trkpt lat="44.87866227918313" lon="12.014748796463445"><ele>-4.2</ele><time>2026-05-02T16:59:28.999Z</time></trkpt><trkpt lat="44.87868920546628" lon="12.014629977223544"><ele>-4.6</ele><time>2026-05-02T16:59:30.999Z</time></trkpt><trkpt lat="44.878726429224756" lon="12.01451105247901"><ele>-5.0</ele><time>2026-05-02T16:59:32.999Z</time></trkpt><trkpt lat="44.87875637395683" lon="12.014380982305376"><ele>-5.0</ele><time>2026-05-02T16:59:34.999Z</time></trkpt><trkpt lat="44.87878921897019" lon="12.014253120442632"><ele>-5.0</ele><time>2026-05-02T16:59:36.999Z</time></trkpt><trkpt lat="44.87881972831187" lon="12.01412253728662"><ele>-5.0</ele><time>2026-05-02T16:59:38.999Z</time></trkpt><trkpt lat="44.87885383496003" lon="12.01399653174737"><ele>-5.0</ele><time>2026-05-02T16:59:40.999Z</time></trkpt><trkpt lat="44.87888822003535" lon="12.013869478821093"><ele>-5.0</ele><time>2026-05-02T16:59:42.999Z</time></trkpt><trkpt lat="44.87892439581463" lon="12.013736831566668"><ele>-5.0</ele><time>2026-05-02T16:59:44.999Z</time></trkpt><trkpt lat="44.87896058642684" lon="12.013586325016583"><ele>-5.0</ele><time>2026-05-02T16:59:46.999Z</time></trkpt><trkpt lat="44.87898175401197" lon="12.013502348733807"><ele>-5.0</ele><time>2026-05-02T16:59:47.999Z</time></trkpt><trkpt lat="44.87900504527605" lon="12.013416908341128"><ele>-5.0</ele><time>2026-05-02T16:59:48.999Z</time></trkpt><trkpt lat="44.879028167617214" lon="12.01332946496182"><ele>-5.0</ele><time>2026-05-02T16:59:49.999Z</time></trkpt><trkpt lat="44.87905596744649" lon="12.013237514097773"><ele>-5.0</ele><time>2026-05-02T16:59:50.999Z</time></trkpt><trkpt lat="44.879080944208155" lon="12.013144044273197"><ele>-5.0</ele><time>2026-05-02T16:59:51.999Z</time></trkpt><trkpt lat="44.879106285492696" lon="12.013043410947715"><ele>-4.833333333333334</ele><time>2026-05-02T16:59:52.999Z</time></trkpt><trkpt lat="44.879133130670766" lon="12.012943307727005"><ele>-4.666666666666667</ele><time>2026-05-02T16:59:53.999Z</time></trkpt><trkpt lat="44.879158966687456" lon="12.012844403935855"><ele>-4.5</ele><time>2026-05-02T16:59:54.999Z</time></trkpt><trkpt lat="44.87918408853366" lon="12.012741838634511"><ele>-4.333333333333333</ele><time>2026-05-02T16:59:55.999Z</time></trkpt><trkpt lat="44.87921226373653" lon="12.012640041804069"><ele>-4.166666666666666</ele><time>2026-05-02T16:59:56.999Z</time></trkpt><trkpt lat="44.87923725994764" lon="12.01253906084283"><ele>-4.0</ele><time>2026-05-02T16:59:57.999Z</time></trkpt><trkpt lat="44.87926287175954" lon="12.012436049562293"><ele>-4.166666666666666</ele><time>2026-05-02T16:59:58.999Z</time></trkpt><trkpt lat="44.87928563421085" lon="12.012338598413127"><ele>-4.333333333333333</ele><time>2026-05-02T16:59:59.999Z</time></trkpt><trkpt lat="44.87931162875579" lon="12.012243434482414"><ele>-4.5</ele><time>2026-05-02T17:00:00.999Z</time></trkpt><trkpt lat="44.87933622573175" lon="12.012155027438762"><ele>-4.666666666666667</ele><time>2026-05-02T17:00:02Z</time></trkpt><trkpt lat="44.87935806645887" lon="12.01206791975169"><ele>-4.833333333333334</ele><time>2026-05-02T17:00:03Z</time></trkpt><trkpt lat="44.879397787291076" lon="12.01191104859146"><ele>-5.0</ele><time>2026-05-02T17:00:05Z</time></trkpt><trkpt lat="44.8794371716001" lon="12.011764546965546"><ele>-4.8</ele><time>2026-05-02T17:00:07Z</time></trkpt><trkpt lat="44.87947020481544" lon="12.011625916151765"><ele>-4.6</ele><time>2026-05-02T17:00:09Z</time></trkpt><trkpt lat="44.87950863588313" lon="12.011499888061264"><ele>-4.4</ele><time>2026-05-02T17:00:11Z</time></trkpt><trkpt lat="44.87953684448874" lon="12.0113573849229"><ele>-4.2</ele><time>2026-05-02T17:00:13Z</time></trkpt><trkpt lat="44.87957559442311" lon="12.01122008713515"><ele>-4.0</ele><time>2026-05-02T17:00:15Z</time></trkpt><trkpt lat="44.879605196358085" lon="12.011085745392919"><ele>-4.0</ele><time>2026-05-02T17:00:17Z</time></trkpt><trkpt lat="44.8796402722033" lon="12.010962904541806"><ele>-4.0</ele><time>2026-05-02T17:00:19Z</time></trkpt><trkpt lat="44.87967786807841" lon="12.010846281068561"><ele>-4.0</ele><time>2026-05-02T17:00:21Z</time></trkpt><trkpt lat="44.87971211562291" lon="12.010711968168287"><ele>-4.0</ele><time>2026-05-02T17:00:23Z</time></trkpt><trkpt lat="44.879744793974744" lon="12.01058528021208"><ele>-4.0</ele><time>2026-05-02T17:00:25Z</time></trkpt><trkpt lat="44.8797698878149" lon="12.010465755337536"><ele>-4.0</ele><time>2026-05-02T17:00:27Z</time></trkpt><trkpt lat="44.87979731067079" lon="12.010354864054882"><ele>-3.9999999999999996</ele><time>2026-05-02T17:00:29Z</time></trkpt><trkpt lat="44.879826416309726" lon="12.010251657587714"><ele>-4.0</ele><time>2026-05-02T17:00:31Z</time></trkpt><trkpt lat="44.87985361802359" lon="12.010154789704806"><ele>-4.0</ele><time>2026-05-02T17:00:33Z</time></trkpt><trkpt lat="44.87987893831469" lon="12.010067920989295"><ele>-3.9999999999999996</ele><time>2026-05-02T17:00:35Z</time></trkpt><trkpt lat="44.879900238363554" lon="12.009978882992781"><ele>-4.0</ele><time>2026-05-02T17:00:37Z</time></trkpt><trkpt lat="44.87992363616009" lon="12.009880432413505"><ele>-4.0</ele><time>2026-05-02T17:00:39Z</time></trkpt><trkpt lat="44.87995017573613" lon="12.009776681981315"><ele>-4.0</ele><time>2026-05-02T17:00:41Z</time></trkpt><trkpt lat="44.87997325261649" lon="12.009671871162388"><ele>-4.0</ele><time>2026-05-02T17:00:43Z</time></trkpt><trkpt lat="44.880013286213995" lon="12.009552861080074"><ele>-4.0</ele><time>2026-05-02T17:00:45Z</time></trkpt><trkpt lat="44.88005213667817" lon="12.00942648132403"><ele>-4.0</ele><time>2026-05-02T17:00:47Z</time></trkpt><trkpt lat="44.880093624716515" lon="12.009281051705456"><ele>-4.0</ele><time>2026-05-02T17:00:49Z</time></trkpt><trkpt lat="44.8801330584408" lon="12.009118967734265"><ele>-4.0</ele><time>2026-05-02T17:00:51Z</time></trkpt><trkpt lat="44.88017891599714" lon="12.008953583886825"><ele>-4.0</ele><time>2026-05-02T17:00:53Z</time></trkpt><trkpt lat="44.880218561149206" lon="12.008790039277141"><ele>-4.0</ele><time>2026-05-02T17:00:55Z</time></trkpt><trkpt lat="44.880270089436536" lon="12.008640331525369"><ele>-4.0</ele><time>2026-05-02T17:00:57Z</time></trkpt><trkpt lat="44.88031536836693" lon="12.008488759461104"><ele>-4.0</ele><time>2026-05-02T17:00:59Z</time></trkpt><trkpt lat="44.880342894790736" lon="12.00832775413011"><ele>-4.0</ele><time>2026-05-02T17:01:01Z</time></trkpt><trkpt lat="44.88038374433372" lon="12.008163119156116"><ele>-4.0</ele><time>2026-05-02T17:01:03Z</time></trkpt><trkpt lat="44.880421208822256" lon="12.007991952048167"><ele>-4.0</ele><time>2026-05-02T17:01:05Z</time></trkpt><trkpt lat="44.88044954029167" lon="12.007816893597465"><ele>-3.8000000000000003</ele><time>2026-05-02T17:01:07Z</time></trkpt><trkpt lat="44.88046180649168" lon="12.007724829702658"><ele>-3.6000000000000005</ele><time>2026-05-02T17:01:08Z</time></trkpt><trkpt lat="44.8804953686534" lon="12.007562197946344"><ele>-3.4</ele><time>2026-05-02T17:01:10Z</time></trkpt><trkpt lat="44.880522549999405" lon="12.007406005141302"><ele>-3.2</ele><time>2026-05-02T17:01:12Z</time></trkpt><trkpt lat="44.88055646029412" lon="12.00725125009694"><ele>-3.0</ele><time>2026-05-02T17:01:14Z</time></trkpt><trkpt lat="44.88058102054984" lon="12.007098922656288"><ele>-3.0</ele><time>2026-05-02T17:01:16Z</time></trkpt><trkpt lat="44.88060130451497" lon="12.006946806962844"><ele>-3.0</ele><time>2026-05-02T17:01:18Z</time></trkpt><trkpt lat="44.880633871557" lon="12.006801905458582"><ele>-3.0</ele><time>2026-05-02T17:01:20Z</time></trkpt><trkpt lat="44.88066021135247" lon="12.006660286744458"><ele>-3.0</ele><time>2026-05-02T17:01:22Z</time></trkpt><trkpt lat="44.88068634424454" lon="12.006524140246242"><ele>-3.0</ele><time>2026-05-02T17:01:24Z</time></trkpt><trkpt lat="44.88070755477283" lon="12.006385279348091"><ele>-3.0</ele><time>2026-05-02T17:01:26Z</time></trkpt><trkpt lat="44.88073340980907" lon="12.00623872834084"><ele>-3.0</ele><time>2026-05-02T17:01:28Z</time></trkpt><trkpt lat="44.88075725948697" lon="12.006082029041497"><ele>-3.0</ele><time>2026-05-02T17:01:30Z</time></trkpt><trkpt lat="44.8807854466394" lon="12.005914468213957"><ele>-3.0</ele><time>2026-05-02T17:01:32Z</time></trkpt><trkpt lat="44.88081093194956" lon="12.005745822497413"><ele>-3.2</ele><time>2026-05-02T17:01:34Z</time></trkpt><trkpt lat="44.880836474812284" lon="12.005589609544295"><ele>-3.4</ele><time>2026-05-02T17:01:36Z</time></trkpt><trkpt lat="44.88086133834298" lon="12.005432857927396"><ele>-3.6000000000000005</ele><time>2026-05-02T17:01:38Z</time></trkpt><trkpt lat="44.88088651982287" lon="12.005265092554959"><ele>-3.8000000000000003</ele><time>2026-05-02T17:01:40Z</time></trkpt><trkpt lat="44.88090051052255" lon="12.005177449064403"><ele>-4.0</ele><time>2026-05-02T17:01:40.999Z</time></trkpt><trkpt lat="44.88092384480596" lon="12.005016173090484"><ele>-3.8000000000000003</ele><time>2026-05-02T17:01:42.999Z</time></trkpt><trkpt lat="44.880947864533766" lon="12.004869998713133"><ele>-3.6000000000000005</ele><time>2026-05-02T17:01:44.999Z</time></trkpt><trkpt lat="44.880965560914966" lon="12.004732702350749"><ele>-3.4</ele><time>2026-05-02T17:01:46.999Z</time></trkpt><trkpt lat="44.88099065549174" lon="12.004605763234093"><ele>-3.2</ele><time>2026-05-02T17:01:48.999Z</time></trkpt><trkpt lat="44.88100436086941" lon="12.00448327707337"><ele>-3.0</ele><time>2026-05-02T17:01:50.999Z</time></trkpt><trkpt lat="44.88102231476799" lon="12.00436967125924"><ele>-3.0</ele><time>2026-05-02T17:01:52.999Z</time></trkpt><trkpt lat="44.88105208269983" lon="12.004252157901998"><ele>-3.0</ele><time>2026-05-02T17:01:54.999Z</time></trkpt><trkpt lat="44.881074870408774" lon="12.004111069880883"><ele>-3.0</ele><time>2026-05-02T17:01:56.999Z</time></trkpt><trkpt lat="44.88109540619968" lon="12.00395504892053"><ele>-3.0</ele><time>2026-05-02T17:01:58.999Z</time></trkpt><trkpt lat="44.88111986279392" lon="12.003791507391655"><ele>-3.0</ele><time>2026-05-02T17:02:00.999Z</time></trkpt><trkpt lat="44.881144373264135" lon="12.003638833025532"><ele>-3.0</ele><time>2026-05-02T17:02:02.999Z</time></trkpt><trkpt lat="44.88116636277302" lon="12.003494848045396"><ele>-3.0</ele><time>2026-05-02T17:02:04.999Z</time></trkpt><trkpt lat="44.8811904985718" lon="12.003350031269262"><ele>-3.0</ele><time>2026-05-02T17:02:06.999Z</time></trkpt><trkpt lat="44.88121069839322" lon="12.003209789524218"><ele>-3.0</ele><time>2026-05-02T17:02:09Z</time></trkpt><trkpt lat="44.88122743406933" lon="12.003072110641329"><ele>-3.0</ele><time>2026-05-02T17:02:11Z</time></trkpt><trkpt lat="44.88125325114907" lon="12.002941529460498"><ele>-3.0</ele><time>2026-05-02T17:02:13Z</time></trkpt><trkpt lat="44.88127941412537" lon="12.002815622214966"><ele>-3.0</ele><time>2026-05-02T17:02:15Z</time></trkpt><trkpt lat="44.88130740179184" lon="12.002673568078176"><ele>-3.0</ele><time>2026-05-02T17:02:17Z</time></trkpt><trkpt lat="44.88133542230851" lon="12.002517248673998"><ele>-3.0</ele><time>2026-05-02T17:02:19Z</time></trkpt><trkpt lat="44.881364555800886" lon="12.002345833732308"><ele>-3.0</ele><time>2026-05-02T17:02:21Z</time></trkpt><trkpt lat="44.88139878502273" lon="12.002188652039482"><ele>-3.2</ele><time>2026-05-02T17:02:23Z</time></trkpt><trkpt lat="44.88142964308534" lon="12.002035065283563"><ele>-3.4</ele><time>2026-05-02T17:02:25Z</time></trkpt><trkpt lat="44.88146766981035" lon="12.001875592447215"><ele>-3.6000000000000005</ele><time>2026-05-02T17:02:27Z</time></trkpt><trkpt lat="44.881486020112106" lon="12.001785426623194"><ele>-3.8000000000000003</ele><time>2026-05-02T17:02:28Z</time></trkpt><trkpt lat="44.88149838877728" lon="12.001695199921858"><ele>-4.0</ele><time>2026-05-02T17:02:29Z</time></trkpt><trkpt lat="44.8815427303324" lon="12.001531164764936"><ele>-4.0</ele><time>2026-05-02T17:02:31Z</time></trkpt><trkpt lat="44.881579102908" lon="12.00137576919288"><ele>-4.0</ele><time>2026-05-02T17:02:33Z</time></trkpt><trkpt lat="44.881625740313254" lon="12.001226096238643"><ele>-4.0</ele><time>2026-05-02T17:02:35Z</time></trkpt><trkpt lat="44.8816647559763" lon="12.001084559548865"><ele>-4.0</ele><time>2026-05-02T17:02:37Z</time></trkpt><trkpt lat="44.881710052395555" lon="12.000952368959867"><ele>-4.0</ele><time>2026-05-02T17:02:39Z</time></trkpt><trkpt lat="44.88174800341587" lon="12.000809721919424"><ele>-3.833333333333333</ele><time>2026-05-02T17:02:41Z</time></trkpt><trkpt lat="44.88179018171488" lon="12.000649231449831"><ele>-3.6666666666666665</ele><time>2026-05-02T17:02:43Z</time></trkpt><trkpt lat="44.881813257136045" lon="12.000564585662136"><ele>-3.5</ele><time>2026-05-02T17:02:44Z</time></trkpt><trkpt lat="44.881831236052776" lon="12.000475280125324"><ele>-3.333333333333333</ele><time>2026-05-02T17:02:45Z</time></trkpt><trkpt lat="44.88185348776032" lon="12.00038440784215"><ele>-3.1666666666666665</ele><time>2026-05-02T17:02:46Z</time></trkpt><trkpt lat="44.88187944057791" lon="12.00029340917977"><ele>-3.0</ele><time>2026-05-02T17:02:47Z</time></trkpt><trkpt lat="44.88190167037094" lon="12.000200646300906"><ele>-3.0</ele><time>2026-05-02T17:02:48Z</time></trkpt><trkpt lat="44.88192511880482" lon="12.000111186392502"><ele>-3.0</ele><time>2026-05-02T17:02:49Z</time></trkpt><trkpt lat="44.88194915436956" lon="12.000018279013746"><ele>-3.0</ele><time>2026-05-02T17:02:50Z</time></trkpt><trkpt lat="44.881971779908035" lon="11.999930368350926"><ele>-3.0</ele><time>2026-05-02T17:02:51Z</time></trkpt><trkpt lat="44.881992463277726" lon="11.999841914987542"><ele>-3.0</ele><time>2026-05-02T17:02:52Z</time></trkpt><trkpt lat="44.88201265202131" lon="11.99975690815881"><ele>-3.0</ele><time>2026-05-02T17:02:53Z</time></trkpt><trkpt lat="44.88205575305231" lon="11.999595252695354"><ele>-3.0</ele><time>2026-05-02T17:02:55Z</time></trkpt><trkpt lat="44.88209714850986" lon="11.999442366405344"><ele>-3.0</ele><time>2026-05-02T17:02:57Z</time></trkpt><trkpt lat="44.88213757599967" lon="11.999302192719107"><ele>-3.0</ele><time>2026-05-02T17:02:59Z</time></trkpt><trkpt lat="44.88217964203253" lon="11.999156238434761"><ele>-3.0</ele><time>2026-05-02T17:03:01Z</time></trkpt><trkpt lat="44.88221672572114" lon="11.999008892977841"><ele>-3.0</ele><time>2026-05-02T17:03:03Z</time></trkpt><trkpt lat="44.88225177479248" lon="11.998869593176318"><ele>-3.0</ele><time>2026-05-02T17:03:05Z</time></trkpt><trkpt lat="44.882285536872054" lon="11.998736321487428"><ele>-3.0</ele><time>2026-05-02T17:03:07Z</time></trkpt><trkpt lat="44.88231991511369" lon="11.998612468951734"><ele>-3.0</ele><time>2026-05-02T17:03:09Z</time></trkpt><trkpt lat="44.882353344479576" lon="11.99849057654776"><ele>-3.0</ele><time>2026-05-02T17:03:11Z</time></trkpt><trkpt lat="44.882383283047325" lon="11.998374302429458"><ele>-3.0</ele><time>2026-05-02T17:03:13Z</time></trkpt><trkpt lat="44.882415966880586" lon="11.998265643321833"><ele>-3.0</ele><time>2026-05-02T17:03:15Z</time></trkpt><trkpt lat="44.88245190161925" lon="11.998135764986815"><ele>-3.0</ele><time>2026-05-02T17:03:17Z</time></trkpt><trkpt lat="44.88248801084652" lon="11.99798797054615"><ele>-3.0</ele><time>2026-05-02T17:03:19Z</time></trkpt><trkpt lat="44.88253140078797" lon="11.997839032894827"><ele>-3.0</ele><time>2026-05-02T17:03:21Z</time></trkpt><trkpt lat="44.88257308679856" lon="11.99767934798863"><ele>-3.0</ele><time>2026-05-02T17:03:23Z</time></trkpt><trkpt lat="44.882600496773016" lon="11.997591330228914"><ele>-3.0</ele><time>2026-05-02T17:03:24Z</time></trkpt><trkpt lat="44.8826212528771" lon="11.997503431953506"><ele>-3.0</ele><time>2026-05-02T17:03:25Z</time></trkpt><trkpt lat="44.88265289128376" lon="11.997336470002857"><ele>-3.0</ele><time>2026-05-02T17:03:27Z</time></trkpt><trkpt lat="44.882687444171815" lon="11.997181028285015"><ele>-3.0</ele><time>2026-05-02T17:03:29Z</time></trkpt><trkpt lat="44.882722703572945" lon="11.997020007720728"><ele>-3.0</ele><time>2026-05-02T17:03:31Z</time></trkpt><trkpt lat="44.88272612980984" lon="11.996861891534015"><ele>-3.0</ele><time>2026-05-02T17:03:33Z</time></trkpt><trkpt lat="44.88271443272518" lon="11.99668856230216"><ele>-3.0</ele><time>2026-05-02T17:03:35Z</time></trkpt><trkpt lat="44.88270427364527" lon="11.996600237177649"><ele>-3.0</ele><time>2026-05-02T17:03:36Z</time></trkpt><trkpt lat="44.882690240653226" lon="11.996510582312741"><ele>-3.0</ele><time>2026-05-02T17:03:37Z</time></trkpt><trkpt lat="44.882664163277575" lon="11.996417516166815"><ele>-3.0</ele><time>2026-05-02T17:03:38Z</time></trkpt><trkpt lat="44.882642293427665" lon="11.996328400286643"><ele>-3.0</ele><time>2026-05-02T17:03:39Z</time></trkpt><trkpt lat="44.88260849708599" lon="11.996232880502165"><ele>-2.9999999999999996</ele><time>2026-05-02T17:03:40Z</time></trkpt><trkpt lat="44.88257670352205" lon="11.996142589584116"><ele>-3.0</ele><time>2026-05-02T17:03:40.999Z</time></trkpt><trkpt lat="44.88254198583088" lon="11.996057833603741"><ele>-3.0</ele><time>2026-05-02T17:03:41.999Z</time></trkpt><trkpt lat="44.882507759845446" lon="11.995967674799415"><ele>-3.0</ele><time>2026-05-02T17:03:42.999Z</time></trkpt><trkpt lat="44.88246955753595" lon="11.99588091527921"><ele>-3.0</ele><time>2026-05-02T17:03:43.999Z</time></trkpt><trkpt lat="44.882431204878884" lon="11.995795516837797"><ele>-2.9999999999999996</ele><time>2026-05-02T17:03:44.999Z</time></trkpt><trkpt lat="44.88240328161856" lon="11.995708561379836"><ele>-3.0</ele><time>2026-05-02T17:03:45.999Z</time></trkpt><trkpt lat="44.882371451062916" lon="11.99562863756446"><ele>-3.1666666666666665</ele><time>2026-05-02T17:03:46.999Z</time></trkpt><trkpt lat="44.88233654337702" lon="11.995551414565758"><ele>-3.333333333333333</ele><time>2026-05-02T17:03:47.999Z</time></trkpt><trkpt lat="44.88230592652788" lon="11.995472378318668"><ele>-3.5</ele><time>2026-05-02T17:03:48.999Z</time></trkpt><trkpt lat="44.88224212322542" lon="11.995316593909738"><ele>-3.6666666666666665</ele><time>2026-05-02T17:03:50.999Z</time></trkpt><trkpt lat="44.88217506220546" lon="11.995174624173677"><ele>-3.833333333333333</ele><time>2026-05-02T17:03:52.999Z</time></trkpt><trkpt lat="44.8821433888723" lon="11.995090422117725"><ele>-4.0</ele><time>2026-05-02T17:03:53.999Z</time></trkpt><trkpt lat="44.88208869838535" lon="11.994945472895107"><ele>-4.0</ele><time>2026-05-02T17:03:55.999Z</time></trkpt><trkpt lat="44.8820306934379" lon="11.994805920358075"><ele>-4.0</ele><time>2026-05-02T17:03:57.999Z</time></trkpt><trkpt lat="44.88196473631016" lon="11.994662399087607"><ele>-4.0</ele><time>2026-05-02T17:03:59.999Z</time></trkpt><trkpt lat="44.88190658010702" lon="11.994506235018223"><ele>-4.0</ele><time>2026-05-02T17:04:01.999Z</time></trkpt><trkpt lat="44.88187222490771" lon="11.994430967318314"><ele>-4.0</ele><time>2026-05-02T17:04:02.999Z</time></trkpt><trkpt lat="44.881833580422345" lon="11.994352071290171"><ele>-4.0</ele><time>2026-05-02T17:04:03.999Z</time></trkpt><trkpt lat="44.881799397566226" lon="11.994267672665305"><ele>-3.9999999999999996</ele><time>2026-05-02T17:04:04.999Z</time></trkpt><trkpt lat="44.881762270281286" lon="11.994178322810015"><ele>-4.0</ele><time>2026-05-02T17:04:05.999Z</time></trkpt><trkpt lat="44.881730852882576" lon="11.994090925793774"><ele>-4.0</ele><time>2026-05-02T17:04:06.999Z</time></trkpt><trkpt lat="44.88169411779046" lon="11.99400052107783"><ele>-3.9999999999999996</ele><time>2026-05-02T17:04:07.999Z</time></trkpt><trkpt lat="44.88165704498236" lon="11.99391433015753"><ele>-4.0</ele><time>2026-05-02T17:04:08.999Z</time></trkpt><trkpt lat="44.8816188604112" lon="11.99382727960451"><ele>-4.0</ele><time>2026-05-02T17:04:09.999Z</time></trkpt><trkpt lat="44.88157617199557" lon="11.993734147743742"><ele>-3.6666666666666665</ele><time>2026-05-02T17:04:10.999Z</time></trkpt><trkpt lat="44.88154107324488" lon="11.993641282268248"><ele>-3.333333333333333</ele><time>2026-05-02T17:04:11.999Z</time></trkpt><trkpt lat="44.88150077023814" lon="11.993546933230663"><ele>-3.0</ele><time>2026-05-02T17:04:12.999Z</time></trkpt><trkpt lat="44.88146336087565" lon="11.99345264523119"><ele>-2.6666666666666665</ele><time>2026-05-02T17:04:14Z</time></trkpt><trkpt lat="44.8814210273457" lon="11.99335941302894"><ele>-2.333333333333333</ele><time>2026-05-02T17:04:15Z</time></trkpt><trkpt lat="44.88138777003024" lon="11.99326508844176"><ele>-2.0</ele><time>2026-05-02T17:04:16Z</time></trkpt><trkpt lat="44.88134956112364" lon="11.993171175351941"><ele>-1.9999999999999998</ele><time>2026-05-02T17:04:17Z</time></trkpt><trkpt lat="44.8813130925875" lon="11.99307749443601"><ele>-2.0</ele><time>2026-05-02T17:04:18Z</time></trkpt><trkpt lat="44.88127493130216" lon="11.992984351835663"><ele>-2.0</ele><time>2026-05-02T17:04:19Z</time></trkpt><trkpt lat="44.88123465210022" lon="11.992892253829279"><ele>-2.0</ele><time>2026-05-02T17:04:20Z</time></trkpt><trkpt lat="44.881196186063924" lon="11.99280063288951"><ele>-1.9999999999999998</ele><time>2026-05-02T17:04:21Z</time></trkpt><trkpt lat="44.88116096735311" lon="11.992707338565642"><ele>-2.0</ele><time>2026-05-02T17:04:22Z</time></trkpt><trkpt lat="44.88112495942872" lon="11.992618342486098"><ele>-1.9999999999999998</ele><time>2026-05-02T17:04:23Z</time></trkpt><trkpt lat="44.881087288092615" lon="11.992525529164435"><ele>-2.0</ele><time>2026-05-02T17:04:24Z</time></trkpt><trkpt lat="44.8810495008103" lon="11.992434176539215"><ele>-2.0</ele><time>2026-05-02T17:04:25Z</time></trkpt><trkpt lat="44.881016089726394" lon="11.992339416246375"><ele>-2.0</ele><time>2026-05-02T17:04:26Z</time></trkpt><trkpt lat="44.8809796650959" lon="11.992245114091121"><ele>-1.9999999999999998</ele><time>2026-05-02T17:04:27Z</time></trkpt><trkpt lat="44.88094721381917" lon="11.992149587520688"><ele>-2.0</ele><time>2026-05-02T17:04:28Z</time></trkpt><trkpt lat="44.88091590624586" lon="11.992052341576994"><ele>-2.333333333333333</ele><time>2026-05-02T17:04:29Z</time></trkpt><trkpt lat="44.88088563400407" lon="11.991954562860892"><ele>-2.6666666666666665</ele><time>2026-05-02T17:04:30Z</time></trkpt><trkpt lat="44.88085274978772" lon="11.991853451136867"><ele>-3.0</ele><time>2026-05-02T17:04:31Z</time></trkpt><trkpt lat="44.880825631187946" lon="11.99175506997726"><ele>-3.333333333333333</ele><time>2026-05-02T17:04:32Z</time></trkpt><trkpt lat="44.880797630967535" lon="11.991656670436923"><ele>-3.6666666666666665</ele><time>2026-05-02T17:04:33Z</time></trkpt><trkpt lat="44.88076824792357" lon="11.991556920387167"><ele>-4.0</ele><time>2026-05-02T17:04:34Z</time></trkpt><trkpt lat="44.88074098705784" lon="11.991456334444681"><ele>-4.166666666666666</ele><time>2026-05-02T17:04:35Z</time></trkpt><trkpt lat="44.880714921760216" lon="11.991355583615386"><ele>-4.333333333333333</ele><time>2026-05-02T17:04:36Z</time></trkpt><trkpt lat="44.88068695732458" lon="11.99125449795236"><ele>-4.5</ele><time>2026-05-02T17:04:37Z</time></trkpt><trkpt lat="44.88066455858503" lon="11.991162025945956"><ele>-4.666666666666667</ele><time>2026-05-02T17:04:38Z</time></trkpt><trkpt lat="44.88063795023272" lon="11.99105682327004"><ele>-4.833333333333334</ele><time>2026-05-02T17:04:39Z</time></trkpt><trkpt lat="44.88060969544454" lon="11.990953750250691"><ele>-5.0</ele><time>2026-05-02T17:04:40Z</time></trkpt><trkpt lat="44.88058746417221" lon="11.99085112646405"><ele>-5.0</ele><time>2026-05-02T17:04:41Z</time></trkpt><trkpt lat="44.88056726204171" lon="11.990756854230689"><ele>-5.0</ele><time>2026-05-02T17:04:42Z</time></trkpt><trkpt lat="44.880544824056784" lon="11.990661509527932"><ele>-5.0</ele><time>2026-05-02T17:04:43Z</time></trkpt><trkpt lat="44.880525568078525" lon="11.99056243879361"><ele>-5.0</ele><time>2026-05-02T17:04:44Z</time></trkpt><trkpt lat="44.88050738006474" lon="11.990464138289"><ele>-5.0</ele><time>2026-05-02T17:04:45Z</time></trkpt><trkpt lat="44.88049144380735" lon="11.990355100918306"><ele>-5.0</ele><time>2026-05-02T17:04:46Z</time></trkpt><trkpt lat="44.880486458173664" lon="11.990255377295485"><ele>-5.0</ele><time>2026-05-02T17:04:47Z</time></trkpt><trkpt lat="44.88048327951086" lon="11.990155806630797"><ele>-5.0</ele><time>2026-05-02T17:04:48Z</time></trkpt><trkpt lat="44.880482250616666" lon="11.990060287046594"><ele>-5.0</ele><time>2026-05-02T17:04:49Z</time></trkpt><trkpt lat="44.880479074771934" lon="11.989966582268474"><ele>-5.0</ele><time>2026-05-02T17:04:50Z</time></trkpt><trkpt lat="44.88048053296171" lon="11.989869074484444"><ele>-5.0</ele><time>2026-05-02T17:04:51Z</time></trkpt><trkpt lat="44.880479475913575" lon="11.989770424177244"><ele>-5.0</ele><time>2026-05-02T17:04:52Z</time></trkpt><trkpt lat="44.880477884957536" lon="11.989664621699086"><ele>-5.0</ele><time>2026-05-02T17:04:53Z</time></trkpt><trkpt lat="44.880474599887826" lon="11.989564698301946"><ele>-5.0</ele><time>2026-05-02T17:04:54Z</time></trkpt><trkpt lat="44.88047048484821" lon="11.989467232165525"><ele>-5.0</ele><time>2026-05-02T17:04:55Z</time></trkpt><trkpt lat="44.88046606283097" lon="11.989374489487844"><ele>-5.0</ele><time>2026-05-02T17:04:56Z</time></trkpt><trkpt lat="44.88046228249664" lon="11.989281243459514"><ele>-5.0</ele><time>2026-05-02T17:04:57Z</time></trkpt><trkpt lat="44.88046137158859" lon="11.989102428111304"><ele>-5.0</ele><time>2026-05-02T17:04:59Z</time></trkpt><trkpt lat="44.880465868025354" lon="11.989009117775712"><ele>-5.0</ele><time>2026-05-02T17:05:00Z</time></trkpt><trkpt lat="44.88046407724177" lon="11.988919227268424"><ele>-5.0</ele><time>2026-05-02T17:05:01Z</time></trkpt><trkpt lat="44.88045829137696" lon="11.988746038446791"><ele>-4.8</ele><time>2026-05-02T17:05:03Z</time></trkpt><trkpt lat="44.88046125394515" lon="11.98857657110792"><ele>-4.6</ele><time>2026-05-02T17:05:05Z</time></trkpt><trkpt lat="44.880459361410615" lon="11.988412594314987"><ele>-4.4</ele><time>2026-05-02T17:05:07Z</time></trkpt><trkpt lat="44.88045783569037" lon="11.988239871725428"><ele>-4.2</ele><time>2026-05-02T17:05:09Z</time></trkpt><trkpt lat="44.88045561322146" lon="11.988150897765092"><ele>-4.0</ele><time>2026-05-02T17:05:10Z</time></trkpt><trkpt lat="44.88045390213717" lon="11.988059455958183"><ele>-3.9999999999999996</ele><time>2026-05-02T17:05:11Z</time></trkpt><trkpt lat="44.88045363831664" lon="11.98796213715261"><ele>-4.0</ele><time>2026-05-02T17:05:12Z</time></trkpt><trkpt lat="44.880451973612054" lon="11.98785913648245"><ele>-4.0</ele><time>2026-05-02T17:05:13Z</time></trkpt><trkpt lat="44.88045059413017" lon="11.98775317455344"><ele>-4.0</ele><time>2026-05-02T17:05:14Z</time></trkpt><trkpt lat="44.88045000220013" lon="11.98764293763524"><ele>-3.9999999999999996</ele><time>2026-05-02T17:05:15Z</time></trkpt><trkpt lat="44.88044784835486" lon="11.987532647810138"><ele>-4.0</ele><time>2026-05-02T17:05:16Z</time></trkpt><trkpt lat="44.880446054721475" lon="11.987422901501525"><ele>-3.8571428571428568</ele><time>2026-05-02T17:05:17Z</time></trkpt><trkpt lat="44.88044635200648" lon="11.987312624549677"><ele>-3.714285714285714</ele><time>2026-05-02T17:05:18Z</time></trkpt><trkpt lat="44.88044530370965" lon="11.987208513108204"><ele>-3.571428571428571</ele><time>2026-05-02T17:05:19Z</time></trkpt><trkpt lat="44.880444084770794" lon="11.987104534112195"><ele>-3.4285714285714284</ele><time>2026-05-02T17:05:20Z</time></trkpt><trkpt lat="44.880437559360274" lon="11.987000444330722"><ele>-3.2857142857142856</ele><time>2026-05-02T17:05:21Z</time></trkpt><trkpt lat="44.88043528872846" lon="11.986904483528722"><ele>-3.1428571428571423</ele><time>2026-05-02T17:05:22Z</time></trkpt><trkpt lat="44.8804367185315" lon="11.98680831198447"><ele>-3.0</ele><time>2026-05-02T17:05:23Z</time></trkpt><trkpt lat="44.880436839462774" lon="11.986716846838764"><ele>-2.9999999999999996</ele><time>2026-05-02T17:05:24Z</time></trkpt><trkpt lat="44.88043459559026" lon="11.986622681906557"><ele>-3.0</ele><time>2026-05-02T17:05:25Z</time></trkpt><trkpt lat="44.88043178737529" lon="11.98652332239549"><ele>-3.0</ele><time>2026-05-02T17:05:26Z</time></trkpt><trkpt lat="44.88043019300926" lon="11.98642402242688"><ele>-3.0</ele><time>2026-05-02T17:05:27Z</time></trkpt><trkpt lat="44.88042750463971" lon="11.986322578000758"><ele>-3.0</ele><time>2026-05-02T17:05:28Z</time></trkpt><trkpt lat="44.88042834529376" lon="11.98622485940804"><ele>-2.9999999999999996</ele><time>2026-05-02T17:05:29Z</time></trkpt><trkpt lat="44.88042730747776" lon="11.98612194836218"><ele>-3.0</ele><time>2026-05-02T17:05:30Z</time></trkpt><trkpt lat="44.880423917386985" lon="11.986019795292618"><ele>-2.9999999999999996</ele><time>2026-05-02T17:05:31Z</time></trkpt><trkpt lat="44.88042011744305" lon="11.985916212341422"><ele>-3.0</ele><time>2026-05-02T17:05:32Z</time></trkpt><trkpt lat="44.88042015807522" lon="11.985811359499476"><ele>-3.0</ele><time>2026-05-02T17:05:33Z</time></trkpt><trkpt lat="44.88041922135565" lon="11.985706914865814"><ele>-3.0</ele><time>2026-05-02T17:05:34Z</time></trkpt><trkpt lat="44.880417988458625" lon="11.985603879977585"><ele>-3.0</ele><time>2026-05-02T17:05:35Z</time></trkpt><trkpt lat="44.88041754715653" lon="11.985500374216373"><ele>-2.9999999999999996</ele><time>2026-05-02T17:05:36Z</time></trkpt><trkpt lat="44.880417515825535" lon="11.985402340382098"><ele>-3.0</ele><time>2026-05-02T17:05:37Z</time></trkpt><trkpt lat="44.88041417436686" lon="11.985303549553588"><ele>-2.8571428571428568</ele><time>2026-05-02T17:05:38Z</time></trkpt><trkpt lat="44.880412656585136" lon="11.985210763641492"><ele>-2.7142857142857144</ele><time>2026-05-02T17:05:39Z</time></trkpt><trkpt lat="44.88041064829344" lon="11.985118780248959"><ele>-2.571428571428571</ele><time>2026-05-02T17:05:40Z</time></trkpt><trkpt lat="44.880410454005904" lon="11.985026593341468"><ele>-2.4285714285714284</ele><time>2026-05-02T17:05:41Z</time></trkpt><trkpt lat="44.88041175955284" lon="11.98492934820274"><ele>-2.2857142857142856</ele><time>2026-05-02T17:05:42Z</time></trkpt><trkpt lat="44.88041057639221" lon="11.984833750106812"><ele>-2.142857142857143</ele><time>2026-05-02T17:05:43Z</time></trkpt><trkpt lat="44.88040688714" lon="11.984737426648179"><ele>-2.0</ele><time>2026-05-02T17:05:44Z</time></trkpt><trkpt lat="44.880401271401134" lon="11.984641819196531"><ele>-1.9999999999999998</ele><time>2026-05-02T17:05:45Z</time></trkpt><trkpt lat="44.8804063018112" lon="11.984543691541576"><ele>-2.0</ele><time>2026-05-02T17:05:46Z</time></trkpt><trkpt lat="44.880403620129535" lon="11.984444547472958"><ele>-2.0</ele><time>2026-05-02T17:05:46.999Z</time></trkpt><trkpt lat="44.8803981962861" lon="11.984348286654383"><ele>-2.0</ele><time>2026-05-02T17:05:47.999Z</time></trkpt><trkpt lat="44.88039447090422" lon="11.98425616938855"><ele>-1.9999999999999998</ele><time>2026-05-02T17:05:48.999Z</time></trkpt><trkpt lat="44.88039218827533" lon="11.984094764517039"><ele>-2.0</ele><time>2026-05-02T17:05:50.999Z</time></trkpt><trkpt lat="44.880391873690456" lon="11.983933814151962"><ele>-2.0</ele><time>2026-05-02T17:05:52.999Z</time></trkpt><trkpt lat="44.880415537599" lon="11.98377993775401"><ele>-2.0</ele><time>2026-05-02T17:05:54.999Z</time></trkpt><trkpt lat="44.88045892094649" lon="11.983640516586503"><ele>-2.0</ele><time>2026-05-02T17:05:56.999Z</time></trkpt><trkpt lat="44.88050420155213" lon="11.983508956632036"><ele>-2.0</ele><time>2026-05-02T17:05:58.999Z</time></trkpt><trkpt lat="44.880591118043775" lon="11.983411990901898"><ele>-2.0</ele><time>2026-05-02T17:06:00.999Z</time></trkpt><trkpt lat="44.88066530016964" lon="11.983311564223373"><ele>-2.2</ele><time>2026-05-02T17:06:02.999Z</time></trkpt><trkpt lat="44.88073870469855" lon="11.983169090353474"><ele>-2.4000000000000004</ele><time>2026-05-02T17:06:04.999Z</time></trkpt><trkpt lat="44.880777698056306" lon="11.983095476440383"><ele>-2.5999999999999996</ele><time>2026-05-02T17:06:05.999Z</time></trkpt><trkpt lat="44.880856703224566" lon="11.982947195881442"><ele>-2.8</ele><time>2026-05-02T17:06:07.999Z</time></trkpt><trkpt lat="44.880896698160626" lon="11.9828743709427"><ele>-3.0</ele><time>2026-05-02T17:06:08.999Z</time></trkpt><trkpt lat="44.88097117719106" lon="11.982738755693038"><ele>-3.0</ele><time>2026-05-02T17:06:10.999Z</time></trkpt><trkpt lat="44.88104049318959" lon="11.982612541440963"><ele>-3.0</ele><time>2026-05-02T17:06:12.999Z</time></trkpt><trkpt lat="44.88110438220926" lon="11.982496208981491"><ele>-3.0</ele><time>2026-05-02T17:06:14.999Z</time></trkpt><trkpt lat="44.88116946130567" lon="11.982377709504506"><ele>-3.0</ele><time>2026-05-02T17:06:16.999Z</time></trkpt><trkpt lat="44.88123775030054" lon="11.982253365333094"><ele>-3.0</ele><time>2026-05-02T17:06:18.999Z</time></trkpt><trkpt lat="44.88131369455551" lon="11.982115082023228"><ele>-2.9999999999999996</ele><time>2026-05-02T17:06:21Z</time></trkpt><trkpt lat="44.88135411267566" lon="11.982041486553078"><ele>-3.0</ele><time>2026-05-02T17:06:22Z</time></trkpt><trkpt lat="44.88139347674638" lon="11.981969235385112"><ele>-3.0</ele><time>2026-05-02T17:06:23Z</time></trkpt><trkpt lat="44.88143331555974" lon="11.981895909639793"><ele>-3.0</ele><time>2026-05-02T17:06:24Z</time></trkpt><trkpt lat="44.88147338800718" lon="11.98182215387383"><ele>-3.0</ele><time>2026-05-02T17:06:25Z</time></trkpt><trkpt lat="44.881514888823304" lon="11.981745769029212"><ele>-2.9999999999999996</ele><time>2026-05-02T17:06:26Z</time></trkpt><trkpt lat="44.881553207630006" lon="11.981675240908165"><ele>-3.0</ele><time>2026-05-02T17:06:27Z</time></trkpt><trkpt lat="44.881624012808686" lon="11.98154491959511"><ele>-3.0</ele><time>2026-05-02T17:06:29Z</time></trkpt><trkpt lat="44.88169353502759" lon="11.981416959637608"><ele>-3.0</ele><time>2026-05-02T17:06:31Z</time></trkpt><trkpt lat="44.88176979666429" lon="11.981276595455588"><ele>-3.0</ele><time>2026-05-02T17:06:33Z</time></trkpt><trkpt lat="44.88181160794145" lon="11.981199639198751"><ele>-3.0</ele><time>2026-05-02T17:06:34Z</time></trkpt><trkpt lat="44.88185246081557" lon="11.981124446919319"><ele>-3.0</ele><time>2026-05-02T17:06:35Z</time></trkpt><trkpt lat="44.88189436510577" lon="11.981047319528995"><ele>-3.0</ele><time>2026-05-02T17:06:36Z</time></trkpt><trkpt lat="44.88193490675873" lon="11.980972575597924"><ele>-3.1428571428571423</ele><time>2026-05-02T17:06:37Z</time></trkpt><trkpt lat="44.881976820846425" lon="11.980894764602013"><ele>-3.2857142857142856</ele><time>2026-05-02T17:06:38Z</time></trkpt><trkpt lat="44.882022821518376" lon="11.980809367035995"><ele>-3.4285714285714284</ele><time>2026-05-02T17:06:39Z</time></trkpt><trkpt lat="44.882068724886665" lon="11.980724150079148"><ele>-3.571428571428571</ele><time>2026-05-02T17:06:40Z</time></trkpt><trkpt lat="44.88211162388729" lon="11.980644510613226"><ele>-3.714285714285714</ele><time>2026-05-02T17:06:41Z</time></trkpt><trkpt lat="44.882154460275245" lon="11.980564987314107"><ele>-3.8571428571428568</ele><time>2026-05-02T17:06:42Z</time></trkpt><trkpt lat="44.88219844817563" lon="11.980483326397682"><ele>-4.0</ele><time>2026-05-02T17:06:43Z</time></trkpt><trkpt lat="44.88224009597628" lon="11.980406009669379"><ele>-3.9999999999999996</ele><time>2026-05-02T17:06:44Z</time></trkpt><trkpt lat="44.88227997231534" lon="11.980331981622175"><ele>-4.0</ele><time>2026-05-02T17:06:45Z</time></trkpt><trkpt lat="44.882320652868145" lon="11.980256460585553"><ele>-4.0</ele><time>2026-05-02T17:06:46Z</time></trkpt><trkpt lat="44.882389688841016" lon="11.980130945867865"><ele>-4.0</ele><time>2026-05-02T17:06:48Z</time></trkpt><trkpt lat="44.882438057803476" lon="11.980040245263982"><ele>-3.9999999999999996</ele><time>2026-05-02T17:06:50Z</time></trkpt><trkpt lat="44.88248111660835" lon="11.97996028354504"><ele>-4.0</ele><time>2026-05-02T17:06:53Z</time></trkpt><trkpt lat="44.88252358683611" lon="11.979881413317239"><ele>-4.0</ele><time>2026-05-02T17:06:55Z</time></trkpt><trkpt lat="44.88257956319938" lon="11.979777461160959"><ele>-4.0</ele><time>2026-05-02T17:06:57Z</time></trkpt><trkpt lat="44.882642310703595" lon="11.979660934488994"><ele>-4.0</ele><time>2026-05-02T17:06:59Z</time></trkpt><trkpt lat="44.88271314491323" lon="11.979529390298287"><ele>-4.0</ele><time>2026-05-02T17:07:01Z</time></trkpt><trkpt lat="44.8827885771038" lon="11.979389307286324"><ele>-4.0</ele><time>2026-05-02T17:07:03Z</time></trkpt><trkpt lat="44.88286292665429" lon="11.979251234384678"><ele>-3.6</ele><time>2026-05-02T17:07:05Z</time></trkpt><trkpt lat="44.88292232837686" lon="11.979141024561125"><ele>-3.2</ele><time>2026-05-02T17:07:07Z</time></trkpt><trkpt lat="44.88297225915424" lon="11.979048362322473"><ele>-2.8000000000000003</ele><time>2026-05-02T17:07:09Z</time></trkpt><trkpt lat="44.88301672202825" lon="11.978966091995018"><ele>-2.4000000000000004</ele><time>2026-05-02T17:07:11Z</time></trkpt><trkpt lat="44.88306900648426" lon="11.978871878557106"><ele>-2.0</ele><time>2026-05-02T17:07:14Z</time></trkpt><trkpt lat="44.88321522132918" lon="11.979010370827071"><ele>-2.0</ele><time>2026-05-02T17:07:16Z</time></trkpt><trkpt lat="44.88329198765656" lon="11.979089169080423"><ele>-2.0</ele><time>2026-05-02T17:07:18Z</time></trkpt><trkpt lat="44.88338537739454" lon="11.979169837228401"><ele>-2.0</ele><time>2026-05-02T17:07:20Z</time></trkpt><trkpt lat="44.883499470288314" lon="11.979188386702717"><ele>-2.0</ele><time>2026-05-02T17:07:22Z</time></trkpt><trkpt lat="44.883607845419625" lon="11.97918661961385"><ele>-2.0</ele><time>2026-05-02T17:07:24Z</time></trkpt><trkpt lat="44.883714920474645" lon="11.979205484782575"><ele>-2.2</ele><time>2026-05-02T17:07:26Z</time></trkpt><trkpt lat="44.883821971285634" lon="11.979202003571134"><ele>-2.4000000000000004</ele><time>2026-05-02T17:07:28Z</time></trkpt><trkpt lat="44.883922482743515" lon="11.979199396645082"><ele>-2.5999999999999996</ele><time>2026-05-02T17:07:30Z</time></trkpt><trkpt lat="44.88402258012603" lon="11.979196775929502"><ele>-2.8</ele><time>2026-05-02T17:07:32Z</time></trkpt><trkpt lat="44.884126590282285" lon="11.979194039585517"><ele>-3.0</ele><time>2026-05-02T17:07:34Z</time></trkpt><trkpt lat="44.88423319343906" lon="11.979191235026095"><ele>-3.0</ele><time>2026-05-02T17:07:35.999Z</time></trkpt><trkpt lat="44.88434722973626" lon="11.979188234908433"><ele>-3.0</ele><time>2026-05-02T17:07:37.999Z</time></trkpt><trkpt lat="44.88445313594798" lon="11.979177257411138"><ele>-3.0</ele><time>2026-05-02T17:07:39.999Z</time></trkpt><trkpt lat="44.884559684733176" lon="11.979180055374457"><ele>-3.0</ele><time>2026-05-02T17:07:41.999Z</time></trkpt><trkpt lat="44.88465532362394" lon="11.979123088868159"><ele>-3.0</ele><time>2026-05-02T17:07:43.999Z</time></trkpt><trkpt lat="44.88470093642327" lon="11.978981405311865"><ele>-3.0</ele><time>2026-05-02T17:07:45.999Z</time></trkpt><trkpt lat="44.88470066996009" lon="11.978828521458873"><ele>-3.0</ele><time>2026-05-02T17:07:47.999Z</time></trkpt><trkpt lat="44.884697339193735" lon="11.978669262466187"><ele>-3.0</ele><time>2026-05-02T17:07:49.999Z</time></trkpt><trkpt lat="44.88468826283817" lon="11.978502894064546"><ele>-3.0</ele><time>2026-05-02T17:07:51.999Z</time></trkpt><trkpt lat="44.88468360270421" lon="11.978343799951702"><ele>-3.0</ele><time>2026-05-02T17:07:53.999Z</time></trkpt><trkpt lat="44.88468684758096" lon="11.978174477105753"><ele>-3.0</ele><time>2026-05-02T17:07:55.999Z</time></trkpt><trkpt lat="44.88468298041508" lon="11.978083577278152"><ele>-3.0</ele><time>2026-05-02T17:07:56.999Z</time></trkpt><trkpt lat="44.8846791166885" lon="11.977912455651916"><ele>-3.0</ele><time>2026-05-02T17:07:58.999Z</time></trkpt><trkpt lat="44.88468008087056" lon="11.977821390953679"><ele>-3.0</ele><time>2026-05-02T17:07:59.999Z</time></trkpt><trkpt lat="44.88467286928395" lon="11.977652453519463"><ele>-3.0</ele><time>2026-05-02T17:08:01.999Z</time></trkpt><trkpt lat="44.884668473899204" lon="11.977497558044615"><ele>-3.0</ele><time>2026-05-02T17:08:03.999Z</time></trkpt><trkpt lat="44.88467638732529" lon="11.977375018385082"><ele>-3.0</ele><time>2026-05-02T17:08:05.999Z</time></trkpt><trkpt lat="44.884759122770134" lon="11.977314682028936"><ele>-3.0</ele><time>2026-05-02T17:08:07.999Z</time></trkpt><trkpt lat="44.88485966189858" lon="11.977375965905722"><ele>-3.0</ele><time>2026-05-02T17:08:09.999Z</time></trkpt><trkpt lat="44.884967764663806" lon="11.977375122437353"><ele>-3.0</ele><time>2026-05-02T17:08:11.999Z</time></trkpt><trkpt lat="44.88508592528487" lon="11.97730690015169"><ele>-3.0</ele><time>2026-05-02T17:08:13.999Z</time></trkpt><trkpt lat="44.885148272791334" lon="11.97737110561713"><ele>-3.0</ele><time>2026-05-02T17:08:14.999Z</time></trkpt><trkpt lat="44.88527389538308" lon="11.97736385451813"><ele>-3.0</ele><time>2026-05-02T17:08:16.999Z</time></trkpt><trkpt lat="44.8853426149114" lon="11.977359842703825"><ele>-3.0</ele><time>2026-05-02T17:08:17.999Z</time></trkpt><trkpt lat="44.88541643649111" lon="11.977367342111123"><ele>-3.0</ele><time>2026-05-02T17:08:18.999Z</time></trkpt><trkpt lat="44.88549187502392" lon="11.977362190696633"><ele>-3.0</ele><time>2026-05-02T17:08:19.999Z</time></trkpt><trkpt lat="44.88556570567903" lon="11.977360666497669"><ele>-3.0</ele><time>2026-05-02T17:08:20.999Z</time></trkpt><trkpt lat="44.88563986040362" lon="11.977368841690332"><ele>-3.0</ele><time>2026-05-02T17:08:21.999Z</time></trkpt><trkpt lat="44.88571853832953" lon="11.977358576379222"><ele>-3.0</ele><time>2026-05-02T17:08:22.999Z</time></trkpt><trkpt lat="44.88579481881048" lon="11.977358214468179"><ele>-3.0</ele><time>2026-05-02T17:08:23.999Z</time></trkpt><trkpt lat="44.885868844721216" lon="11.977350926589788"><ele>-2.8333333333333335</ele><time>2026-05-02T17:08:24.999Z</time></trkpt><trkpt lat="44.885944463301996" lon="11.977347255205707"><ele>-2.6666666666666665</ele><time>2026-05-02T17:08:26Z</time></trkpt><trkpt lat="44.886019158934445" lon="11.977280114066563"><ele>-2.5</ele><time>2026-05-02T17:08:27Z</time></trkpt><trkpt lat="44.88609876701754" lon="11.977345780746115"><ele>-2.333333333333333</ele><time>2026-05-02T17:08:28Z</time></trkpt><trkpt lat="44.8861766331853" lon="11.977351625447985"><ele>-2.1666666666666665</ele><time>2026-05-02T17:08:29Z</time></trkpt><trkpt lat="44.88625532135745" lon="11.977345552662754"><ele>-2.0</ele><time>2026-05-02T17:08:30Z</time></trkpt><trkpt lat="44.88633023321928" lon="11.977343816855608"><ele>-2.0</ele><time>2026-05-02T17:08:31Z</time></trkpt><trkpt lat="44.88640192842471" lon="11.977269655889433"><ele>-1.9999999999999998</ele><time>2026-05-02T17:08:32Z</time></trkpt><trkpt lat="44.88647634629748" lon="11.977267614398352"><ele>-2.0</ele><time>2026-05-02T17:08:33Z</time></trkpt><trkpt lat="44.886545436199924" lon="11.977265719069287"><ele>-2.0</ele><time>2026-05-02T17:08:34Z</time></trkpt><trkpt lat="44.886615940354694" lon="11.977263784943293"><ele>-1.9999999999999998</ele><time>2026-05-02T17:08:35Z</time></trkpt><trkpt lat="44.8866905367491" lon="11.97726173855881"><ele>-2.0</ele><time>2026-05-02T17:08:36Z</time></trkpt><trkpt lat="44.88675495393044" lon="11.977259971508484"><ele>-2.0</ele><time>2026-05-02T17:08:37Z</time></trkpt><trkpt lat="44.88682536853906" lon="11.977257963434331"><ele>-2.142857142857143</ele><time>2026-05-02T17:08:38Z</time></trkpt><trkpt lat="44.88689753368433" lon="11.97725593308742"><ele>-2.2857142857142856</ele><time>2026-05-02T17:08:39Z</time></trkpt><trkpt lat="44.88697225890012" lon="11.97725383070416"><ele>-2.4285714285714284</ele><time>2026-05-02T17:08:40Z</time></trkpt><trkpt lat="44.88704527429505" lon="11.977251971205362"><ele>-2.571428571428571</ele><time>2026-05-02T17:08:41Z</time></trkpt><trkpt lat="44.887114599293554" lon="11.97724991884614"><ele>-2.7142857142857144</ele><time>2026-05-02T17:08:42Z</time></trkpt><trkpt lat="44.88718403065287" lon="11.977247871204405"><ele>-2.8571428571428568</ele><time>2026-05-02T17:08:43Z</time></trkpt><trkpt lat="44.88725160792968" lon="11.977245877296003"><ele>-3.0</ele><time>2026-05-02T17:08:44Z</time></trkpt><trkpt lat="44.88731488780282" lon="11.977244010167528"><ele>-3.0</ele><time>2026-05-02T17:08:45Z</time></trkpt><trkpt lat="44.88743365869242" lon="11.977240509775488"><ele>-3.0</ele><time>2026-05-02T17:08:47Z</time></trkpt><trkpt lat="44.88751614260275" lon="11.977238076020011"><ele>-3.0</ele><time>2026-05-02T17:08:49Z</time></trkpt><trkpt lat="44.88759927513014" lon="11.977236002602417"><ele>-3.0</ele><time>2026-05-02T17:08:52Z</time></trkpt><trkpt lat="44.88769256988715" lon="11.977233651104193"><ele>-3.0</ele><time>2026-05-02T17:09:00Z</time></trkpt><trkpt lat="44.88777894198791" lon="11.977229860408439"><ele>-3.1666666666666665</ele><time>2026-05-02T17:09:02Z</time></trkpt><trkpt lat="44.88788266217863" lon="11.977230309127847"><ele>-3.333333333333333</ele><time>2026-05-02T17:09:04Z</time></trkpt><trkpt lat="44.8879992775176" lon="11.977232490891847"><ele>-3.5</ele><time>2026-05-02T17:09:06Z</time></trkpt><trkpt lat="44.888063215510286" lon="11.977252664691454"><ele>-3.6666666666666665</ele><time>2026-05-02T17:09:07Z</time></trkpt><trkpt lat="44.888131837063014" lon="11.977245132614813"><ele>-3.833333333333333</ele><time>2026-05-02T17:09:08Z</time></trkpt><trkpt lat="44.8881970648295" lon="11.977248973837012"><ele>-4.0</ele><time>2026-05-02T17:09:09Z</time></trkpt><trkpt lat="44.88826695524346" lon="11.977227415369944"><ele>-3.9999999999999996</ele><time>2026-05-02T17:09:10Z</time></trkpt><trkpt lat="44.88834007745701" lon="11.977246447689076"><ele>-4.0</ele><time>2026-05-02T17:09:11Z</time></trkpt><trkpt lat="44.88841491958893" lon="11.977242192812588"><ele>-4.0</ele><time>2026-05-02T17:09:12Z</time></trkpt><trkpt lat="44.888491818398606" lon="11.97723404258804"><ele>-4.0</ele><time>2026-05-02T17:09:13Z</time></trkpt><trkpt lat="44.8885657070009" lon="11.977235523168641"><ele>-3.9999999999999996</ele><time>2026-05-02T17:09:14Z</time></trkpt><trkpt lat="44.888641589275885" lon="11.977236556329792"><ele>-4.0</ele><time>2026-05-02T17:09:15Z</time></trkpt><trkpt lat="44.88871950398343" lon="11.977226511819177"><ele>-3.9999999999999996</ele><time>2026-05-02T17:09:16Z</time></trkpt><trkpt lat="44.88879666485173" lon="11.977220866286416"><ele>-4.0</ele><time>2026-05-02T17:09:17Z</time></trkpt><trkpt lat="44.88887416676883" lon="11.977225752603305"><ele>-4.0</ele><time>2026-05-02T17:09:18Z</time></trkpt><trkpt lat="44.888952740496684" lon="11.977221400696376"><ele>-4.0</ele><time>2026-05-02T17:09:19Z</time></trkpt><trkpt lat="44.889028423832" lon="11.977220310861902"><ele>-3.9999999999999996</ele><time>2026-05-02T17:09:20Z</time></trkpt><trkpt lat="44.88910630073966" lon="11.977211509982022"><ele>-4.0</ele><time>2026-05-02T17:09:21Z</time></trkpt><trkpt lat="44.889185616879935" lon="11.977212733524146"><ele>-4.285714285714286</ele><time>2026-05-02T17:09:22Z</time></trkpt><trkpt lat="44.88926226339843" lon="11.977211805489713"><ele>-4.571428571428571</ele><time>2026-05-02T17:09:23Z</time></trkpt><trkpt lat="44.88933767319973" lon="11.977214359098843"><ele>-4.857142857142857</ele><time>2026-05-02T17:09:24Z</time></trkpt><trkpt lat="44.8894139937511" lon="11.97720915718001"><ele>-5.142857142857142</ele><time>2026-05-02T17:09:25Z</time></trkpt><trkpt lat="44.889486909815496" lon="11.977200114847681"><ele>-5.428571428571429</ele><time>2026-05-02T17:09:26Z</time></trkpt><trkpt lat="44.889556064688804" lon="11.97717345387207"><ele>-5.7142857142857135</ele><time>2026-05-02T17:09:27Z</time></trkpt><trkpt lat="44.889618364490026" lon="11.977153461538968"><ele>-6.0</ele><time>2026-05-02T17:09:28Z</time></trkpt><trkpt lat="44.88969277367765" lon="11.977153181906328"><ele>-5.999999999999999</ele><time>2026-05-02T17:09:29Z</time></trkpt><trkpt lat="44.889765695529434" lon="11.97715836705597"><ele>-6.0</ele><time>2026-05-02T17:09:30Z</time></trkpt><trkpt lat="44.88984150603336" lon="11.977153734827237"><ele>-6.0</ele><time>2026-05-02T17:09:31Z</time></trkpt><trkpt lat="44.88991671059598" lon="11.97714724551356"><ele>-6.0</ele><time>2026-05-02T17:09:31.999Z</time></trkpt><trkpt lat="44.88999130148248" lon="11.97714875674849"><ele>-6.0</ele><time>2026-05-02T17:09:32.999Z</time></trkpt><trkpt lat="44.89006564803372" lon="11.97714220789915"><ele>-5.999999999999999</ele><time>2026-05-02T17:09:33.999Z</time></trkpt><trkpt lat="44.89014074591009" lon="11.97714824080919"><ele>-6.0</ele><time>2026-05-02T17:09:34.999Z</time></trkpt><trkpt lat="44.89021844489514" lon="11.977146344076868"><ele>-5.999999999999999</ele><time>2026-05-02T17:09:35.999Z</time></trkpt><trkpt lat="44.8902952859706" lon="11.97714456525819"><ele>-6.0</ele><time>2026-05-02T17:09:36.999Z</time></trkpt><trkpt lat="44.890371868888096" lon="11.977140516811568"><ele>-6.0</ele><time>2026-05-02T17:09:37.999Z</time></trkpt><trkpt lat="44.890445794662206" lon="11.97714166013239"><ele>-6.0</ele><time>2026-05-02T17:09:38.999Z</time></trkpt><trkpt lat="44.890519015031145" lon="11.977139951720417"><ele>-6.0</ele><time>2026-05-02T17:09:39.999Z</time></trkpt><trkpt lat="44.890592567844195" lon="11.977135642441766"><ele>-5.999999999999999</ele><time>2026-05-02T17:09:40.999Z</time></trkpt><trkpt lat="44.89066470485614" lon="11.977133733192565"><ele>-6.0</ele><time>2026-05-02T17:09:41.999Z</time></trkpt><trkpt lat="44.89073645383306" lon="11.977131243453757"><ele>-5.999999999999999</ele><time>2026-05-02T17:09:42.999Z</time></trkpt><trkpt lat="44.89080808518003" lon="11.977131128569756"><ele>-6.0</ele><time>2026-05-02T17:09:43.999Z</time></trkpt><trkpt lat="44.890879583127166" lon="11.977135888222309"><ele>-6.0</ele><time>2026-05-02T17:09:44.999Z</time></trkpt><trkpt lat="44.89094990649837" lon="11.97713037163237"><ele>-6.0</ele><time>2026-05-02T17:09:45.999Z</time></trkpt><trkpt lat="44.89102154207583" lon="11.977127825037106"><ele>-6.0</ele><time>2026-05-02T17:09:46.999Z</time></trkpt><trkpt lat="44.89109644806376" lon="11.9771266235273"><ele>-5.999999999999999</ele><time>2026-05-02T17:09:47.999Z</time></trkpt><trkpt lat="44.891173082127715" lon="11.977124711595998"><ele>-6.0</ele><time>2026-05-02T17:09:48.999Z</time></trkpt><trkpt lat="44.891249578504485" lon="11.97712424309997"><ele>-5.833333333333333</ele><time>2026-05-02T17:09:49.999Z</time></trkpt><trkpt lat="44.89132976364084" lon="11.977120080939049"><ele>-5.666666666666667</ele><time>2026-05-02T17:09:50.999Z</time></trkpt><trkpt lat="44.891407642500496" lon="11.977117928225756"><ele>-5.5</ele><time>2026-05-02T17:09:51.999Z</time></trkpt><trkpt lat="44.89148385132568" lon="11.977119849935987"><ele>-5.333333333333334</ele><time>2026-05-02T17:09:52.999Z</time></trkpt><trkpt lat="44.891559835058295" lon="11.977116739843664"><ele>-5.166666666666667</ele><time>2026-05-02T17:09:53.999Z</time></trkpt><trkpt lat="44.891637039700576" lon="11.977111933080662"><ele>-5.0</ele><time>2026-05-02T17:09:54.999Z</time></trkpt><trkpt lat="44.89171256257678" lon="11.977106313637988"><ele>-5.166666666666667</ele><time>2026-05-02T17:09:55.999Z</time></trkpt><trkpt lat="44.89178808538288" lon="11.977103008599187"><ele>-5.333333333333334</ele><time>2026-05-02T17:09:56.999Z</time></trkpt><trkpt lat="44.891865064875326" lon="11.977102500656068"><ele>-5.5</ele><time>2026-05-02T17:09:57.999Z</time></trkpt><trkpt lat="44.891941190622916" lon="11.977099330778657"><ele>-5.666666666666667</ele><time>2026-05-02T17:09:58.999Z</time></trkpt><trkpt lat="44.89201823963982" lon="11.977098095172956"><ele>-5.833333333333333</ele><time>2026-05-02T17:09:59.999Z</time></trkpt><trkpt lat="44.89209434469248" lon="11.977098822376673"><ele>-6.0</ele><time>2026-05-02T17:10:00.999Z</time></trkpt><trkpt lat="44.89216983118738" lon="11.977098268667874"><ele>-6.0</ele><time>2026-05-02T17:10:01.999Z</time></trkpt><trkpt lat="44.8922465396304" lon="11.977095943945047"><ele>-6.0</ele><time>2026-05-02T17:10:02.999Z</time></trkpt><trkpt lat="44.89232224569989" lon="11.97709534670695"><ele>-6.0</ele><time>2026-05-02T17:10:03.999Z</time></trkpt><trkpt lat="44.89239904637055" lon="11.977093453262338"><ele>-6.0</ele><time>2026-05-02T17:10:04.999Z</time></trkpt><trkpt lat="44.892475558915976" lon="11.977092865062687"><ele>-6.0</ele><time>2026-05-02T17:10:05.999Z</time></trkpt><trkpt lat="44.8925526040192" lon="11.977087743196265"><ele>-6.0</ele><time>2026-05-02T17:10:06.999Z</time></trkpt><trkpt lat="44.89263101223508" lon="11.977086234171898"><ele>-6.166666666666667</ele><time>2026-05-02T17:10:07.999Z</time></trkpt><trkpt lat="44.89270525806234" lon="11.977084840924784"><ele>-6.333333333333334</ele><time>2026-05-02T17:10:08.999Z</time></trkpt><trkpt lat="44.89277965815243" lon="11.977085962584084"><ele>-6.5</ele><time>2026-05-02T17:10:09.999Z</time></trkpt><trkpt lat="44.89285404032256" lon="11.97708614187005"><ele>-6.666666666666667</ele><time>2026-05-02T17:10:10.999Z</time></trkpt><trkpt lat="44.89293144393014" lon="11.977084051941032"><ele>-6.833333333333334</ele><time>2026-05-02T17:10:11.999Z</time></trkpt><trkpt lat="44.893007849504876" lon="11.977080798718903"><ele>-7.0</ele><time>2026-05-02T17:10:12.999Z</time></trkpt><trkpt lat="44.89308376776069" lon="11.977077489997463"><ele>-7.000000000000001</ele><time>2026-05-02T17:10:13.999Z</time></trkpt><trkpt lat="44.893158702376475" lon="11.977071508064844"><ele>-7.0</ele><time>2026-05-02T17:10:14.999Z</time></trkpt><trkpt lat="44.893233498482395" lon="11.977072057599257"><ele>-7.0</ele><time>2026-05-02T17:10:15.999Z</time></trkpt><trkpt lat="44.89330794837004" lon="11.977064922666338"><ele>-7.0</ele><time>2026-05-02T17:10:16.999Z</time></trkpt><trkpt lat="44.89338822400243" lon="11.977066409608263"><ele>-7.000000000000001</ele><time>2026-05-02T17:10:17.999Z</time></trkpt><trkpt lat="44.89346292189811" lon="11.97706567654312"><ele>-7.0</ele><time>2026-05-02T17:10:18.999Z</time></trkpt><trkpt lat="44.893543433146604" lon="11.977059303883898"><ele>-6.666666666666667</ele><time>2026-05-02T17:10:19.999Z</time></trkpt><trkpt lat="44.89362040254783" lon="11.977058254678713"><ele>-6.333333333333334</ele><time>2026-05-02T17:10:20.999Z</time></trkpt><trkpt lat="44.89369766044366" lon="11.977056626785453"><ele>-6.0</ele><time>2026-05-02T17:10:21.999Z</time></trkpt><trkpt lat="44.89377270897952" lon="11.977054827171468"><ele>-5.666666666666667</ele><time>2026-05-02T17:10:22.999Z</time></trkpt><trkpt lat="44.893847467603536" lon="11.977054783183577"><ele>-5.333333333333334</ele><time>2026-05-02T17:10:23.999Z</time></trkpt><trkpt lat="44.893920643182284" lon="11.977051217813624"><ele>-5.0</ele><time>2026-05-02T17:10:24.999Z</time></trkpt><trkpt lat="44.893994183256595" lon="11.977046238509937"><ele>-5.0</ele><time>2026-05-02T17:10:25.999Z</time></trkpt><trkpt lat="44.89407105741457" lon="11.977043745440577"><ele>-5.0</ele><time>2026-05-02T17:10:26.999Z</time></trkpt><trkpt lat="44.89415073089616" lon="11.977042375112243"><ele>-5.0</ele><time>2026-05-02T17:10:27.999Z</time></trkpt><trkpt lat="44.89422964480934" lon="11.977037578388341"><ele>-5.0</ele><time>2026-05-02T17:10:28.999Z</time></trkpt><trkpt lat="44.89431068138019" lon="11.977035367152105"><ele>-5.0</ele><time>2026-05-02T17:10:29.999Z</time></trkpt><trkpt lat="44.89438884984479" lon="11.977031033796376"><ele>-5.0</ele><time>2026-05-02T17:10:30.999Z</time></trkpt><trkpt lat="44.89446805559307" lon="11.977024424252354"><ele>-5.166666666666667</ele><time>2026-05-02T17:10:32Z</time></trkpt><trkpt lat="44.89454556931169" lon="11.977024383249864"><ele>-5.333333333333334</ele><time>2026-05-02T17:10:33Z</time></trkpt><trkpt lat="44.8946226743134" lon="11.977028217138907"><ele>-5.5</ele><time>2026-05-02T17:10:34Z</time></trkpt><trkpt lat="44.894699736067025" lon="11.977025816230821"><ele>-5.666666666666667</ele><time>2026-05-02T17:10:35Z</time></trkpt><trkpt lat="44.89477708319026" lon="11.97701927449843"><ele>-5.833333333333333</ele><time>2026-05-02T17:10:36Z</time></trkpt><trkpt lat="44.894852902144045" lon="11.977018742470397"><ele>-6.0</ele><time>2026-05-02T17:10:37Z</time></trkpt><trkpt lat="44.8949285762416" lon="11.977014803213361"><ele>-5.999999999999999</ele><time>2026-05-02T17:10:38Z</time></trkpt><trkpt lat="44.895000042795125" lon="11.977018092855486"><ele>-6.0</ele><time>2026-05-02T17:10:39Z</time></trkpt><trkpt lat="44.895073003249976" lon="11.97701611307696"><ele>-6.0</ele><time>2026-05-02T17:10:40Z</time></trkpt><trkpt lat="44.89514637656355" lon="11.977012804234263"><ele>-6.0</ele><time>2026-05-02T17:10:41Z</time></trkpt><trkpt lat="44.89521278976075" lon="11.9770065342235"><ele>-6.0</ele><time>2026-05-02T17:10:42Z</time></trkpt><trkpt lat="44.895279817470374" lon="11.977004656356373"><ele>-5.999999999999999</ele><time>2026-05-02T17:10:43Z</time></trkpt><trkpt lat="44.895345480493525" lon="11.977001015870142"><ele>-6.0</ele><time>2026-05-02T17:10:44Z</time></trkpt><trkpt lat="44.89541322529353" lon="11.977000840644353"><ele>-6.142857142857142</ele><time>2026-05-02T17:10:45Z</time></trkpt><trkpt lat="44.895481593862044" lon="11.977001636145523"><ele>-6.285714285714286</ele><time>2026-05-02T17:10:46Z</time></trkpt><trkpt lat="44.895555163037315" lon="11.976998981119914"><ele>-6.428571428571429</ele><time>2026-05-02T17:10:47Z</time></trkpt><trkpt lat="44.895629150188974" lon="11.976999317318322"><ele>-6.571428571428571</ele><time>2026-05-02T17:10:48Z</time></trkpt><trkpt lat="44.89570224115659" lon="11.97699493650519"><ele>-6.714285714285714</ele><time>2026-05-02T17:10:49Z</time></trkpt><trkpt lat="44.89577642277273" lon="11.976992133590267"><ele>-6.857142857142857</ele><time>2026-05-02T17:10:50Z</time></trkpt><trkpt lat="44.89585097688916" lon="11.976993222235794"><ele>-7.0</ele><time>2026-05-02T17:10:51Z</time></trkpt><trkpt lat="44.89592862536251" lon="11.976989753563617"><ele>-6.666666666666667</ele><time>2026-05-02T17:10:52Z</time></trkpt><trkpt lat="44.896005715314736" lon="11.976989641083916"><ele>-6.333333333333334</ele><time>2026-05-02T17:10:53Z</time></trkpt><trkpt lat="44.89608153262473" lon="11.976990361480087"><ele>-6.0</ele><time>2026-05-02T17:10:54Z</time></trkpt><trkpt lat="44.89615905789018" lon="11.976984201373448"><ele>-5.666666666666667</ele><time>2026-05-02T17:10:55Z</time></trkpt><trkpt lat="44.89623682070673" lon="11.976981284418569"><ele>-5.333333333333334</ele><time>2026-05-02T17:10:56Z</time></trkpt><trkpt lat="44.89631490238457" lon="11.97698150010673"><ele>-5.0</ele><time>2026-05-02T17:10:57Z</time></trkpt><trkpt lat="44.8963936436541" lon="11.976978366158667"><ele>-5.0</ele><time>2026-05-02T17:10:58Z</time></trkpt><trkpt lat="44.8964716734147" lon="11.976975089399863"><ele>-5.0</ele><time>2026-05-02T17:10:59Z</time></trkpt><trkpt lat="44.89654825748529" lon="11.976968245848132"><ele>-5.0</ele><time>2026-05-02T17:11:00Z</time></trkpt><trkpt lat="44.896624110795024" lon="11.976959998451546"><ele>-5.0</ele><time>2026-05-02T17:11:01Z</time></trkpt><trkpt lat="44.8966980785847" lon="11.976956483763463"><ele>-5.0</ele><time>2026-05-02T17:11:02Z</time></trkpt><trkpt lat="44.89677113005355" lon="11.976951826409872"><ele>-5.0</ele><time>2026-05-02T17:11:03Z</time></trkpt><trkpt lat="44.89684438110211" lon="11.97694982299285"><ele>-4.857142857142857</ele><time>2026-05-02T17:11:04Z</time></trkpt><trkpt lat="44.89691573692443" lon="11.976953338824826"><ele>-4.714285714285714</ele><time>2026-05-02T17:11:05Z</time></trkpt><trkpt lat="44.89698793214345" lon="11.976954409734912"><ele>-4.571428571428571</ele><time>2026-05-02T17:11:06Z</time></trkpt><trkpt lat="44.89705835049451" lon="11.976954998669836"><ele>-4.428571428571429</ele><time>2026-05-02T17:11:07Z</time></trkpt><trkpt lat="44.8971290078292" lon="11.976955936279616"><ele>-4.285714285714286</ele><time>2026-05-02T17:11:08Z</time></trkpt><trkpt lat="44.897197174049786" lon="11.976955990829188"><ele>-4.142857142857142</ele><time>2026-05-02T17:11:09Z</time></trkpt><trkpt lat="44.89726618722016" lon="11.97695705603127"><ele>-4.0</ele><time>2026-05-02T17:11:10Z</time></trkpt><trkpt lat="44.8973433887881" lon="11.976953637329196"><ele>-3.9999999999999996</ele><time>2026-05-02T17:11:11Z</time></trkpt><trkpt lat="44.89742012136405" lon="11.976950734579063"><ele>-4.0</ele><time>2026-05-02T17:11:12Z</time></trkpt><trkpt lat="44.89749699312668" lon="11.976946263867497"><ele>-4.0</ele><time>2026-05-02T17:11:13Z</time></trkpt><trkpt lat="44.89757484693028" lon="11.976943685071552"><ele>-4.0</ele><time>2026-05-02T17:11:14Z</time></trkpt><trkpt lat="44.89765395395358" lon="11.976938782991974"><ele>-3.9999999999999996</ele><time>2026-05-02T17:11:15Z</time></trkpt><trkpt lat="44.89773120575767" lon="11.976934443663241"><ele>-4.0</ele><time>2026-05-02T17:11:16Z</time></trkpt><trkpt lat="44.89780816792726" lon="11.976935314253831"><ele>-4.142857142857142</ele><time>2026-05-02T17:11:17Z</time></trkpt><trkpt lat="44.897883891501486" lon="11.976938288945114"><ele>-4.285714285714286</ele><time>2026-05-02T17:11:18Z</time></trkpt><trkpt lat="44.897960225956886" lon="11.976936290233967"><ele>-4.428571428571429</ele><time>2026-05-02T17:11:19Z</time></trkpt><trkpt lat="44.89803619956656" lon="11.976927574359582"><ele>-4.571428571428571</ele><time>2026-05-02T17:11:20Z</time></trkpt><trkpt lat="44.898108621335226" lon="11.976925374302517"><ele>-4.714285714285714</ele><time>2026-05-02T17:11:21Z</time></trkpt><trkpt lat="44.89818128450573" lon="11.976929498412655"><ele>-4.857142857142857</ele><time>2026-05-02T17:11:22Z</time></trkpt><trkpt lat="44.898250343637365" lon="11.97692688765191"><ele>-5.0</ele><time>2026-05-02T17:11:23Z</time></trkpt><trkpt lat="44.89832497910614" lon="11.976923159702743"><ele>-5.0</ele><time>2026-05-02T17:11:24Z</time></trkpt><trkpt lat="44.898399432476516" lon="11.976922522315393"><ele>-5.0</ele><time>2026-05-02T17:11:25Z</time></trkpt><trkpt lat="44.898474473477805" lon="11.976921539956962"><ele>-5.0</ele><time>2026-05-02T17:11:26Z</time></trkpt><trkpt lat="44.898549725659876" lon="11.976915053281761"><ele>-5.0</ele><time>2026-05-02T17:11:27Z</time></trkpt><trkpt lat="44.89862368849575" lon="11.976913022819868"><ele>-5.0</ele><time>2026-05-02T17:11:28Z</time></trkpt><trkpt lat="44.89869773934881" lon="11.976915845293899"><ele>-5.0</ele><time>2026-05-02T17:11:29Z</time></trkpt><trkpt lat="44.89876959485147" lon="11.976915445057436"><ele>-5.0</ele><time>2026-05-02T17:11:30Z</time></trkpt><trkpt lat="44.89884598529891" lon="11.976914874165193"><ele>-5.166666666666667</ele><time>2026-05-02T17:11:31Z</time></trkpt><trkpt lat="44.898922131529694" lon="11.97691236725335"><ele>-5.333333333333334</ele><time>2026-05-02T17:11:32Z</time></trkpt><trkpt lat="44.898998451562015" lon="11.976906790576828"><ele>-5.5</ele><time>2026-05-02T17:11:32.999Z</time></trkpt><trkpt lat="44.89907450014559" lon="11.976903652514359"><ele>-5.666666666666667</ele><time>2026-05-02T17:11:33.999Z</time></trkpt><trkpt lat="44.89914882058735" lon="11.976903721517226"><ele>-5.833333333333333</ele><time>2026-05-02T17:11:34.999Z</time></trkpt><trkpt lat="44.899225343510444" lon="11.976901099346964"><ele>-6.0</ele><time>2026-05-02T17:11:35.999Z</time></trkpt><trkpt lat="44.899298733660494" lon="11.976903753119643"><ele>-6.0</ele><time>2026-05-02T17:11:36.999Z</time></trkpt><trkpt lat="44.89937564860823" lon="11.976901750440737"><ele>-6.0</ele><time>2026-05-02T17:11:37.999Z</time></trkpt><trkpt lat="44.89945046704239" lon="11.976902423407198"><ele>-6.0</ele><time>2026-05-02T17:11:38.999Z</time></trkpt><trkpt lat="44.89952732708142" lon="11.976899309819407"><ele>-6.0</ele><time>2026-05-02T17:11:39.999Z</time></trkpt><trkpt lat="44.899600868667086" lon="11.976900058781338"><ele>-6.0</ele><time>2026-05-02T17:11:40.999Z</time></trkpt><trkpt lat="44.899677493041665" lon="11.976900503758218"><ele>-6.0</ele><time>2026-05-02T17:11:41.999Z</time></trkpt><trkpt lat="44.89975194966358" lon="11.97689478512373"><ele>-5.999999999999999</ele><time>2026-05-02T17:11:42.999Z</time></trkpt><trkpt lat="44.8998247834214" lon="11.97689334139606"><ele>-6.0</ele><time>2026-05-02T17:11:43.999Z</time></trkpt><trkpt lat="44.89989733032641" lon="11.976893719056593"><ele>-6.0</ele><time>2026-05-02T17:11:44.999Z</time></trkpt><trkpt lat="44.899970111845015" lon="11.976892874000505"><ele>-6.0</ele><time>2026-05-02T17:11:45.999Z</time></trkpt><trkpt lat="44.90004496947506" lon="11.976889170460433"><ele>-6.0</ele><time>2026-05-02T17:11:46.999Z</time></trkpt><trkpt lat="44.900117693760656" lon="11.97688525796968"><ele>-5.999999999999999</ele><time>2026-05-02T17:11:47.999Z</time></trkpt><trkpt lat="44.90019072732707" lon="11.976883281118589"><ele>-6.0</ele><time>2026-05-02T17:11:48.999Z</time></trkpt><trkpt lat="44.90026485738677" lon="11.976880032296657"><ele>-6.0</ele><time>2026-05-02T17:11:49.999Z</time></trkpt><trkpt lat="44.90033931866137" lon="11.976878456119232"><ele>-6.0</ele><time>2026-05-02T17:11:50.999Z</time></trkpt><trkpt lat="44.900410405411925" lon="11.976877756114193"><ele>-6.0</ele><time>2026-05-02T17:11:51.999Z</time></trkpt><trkpt lat="44.90048638557634" lon="11.97687556613211"><ele>-6.0</ele><time>2026-05-02T17:11:52.999Z</time></trkpt><trkpt lat="44.90056344797054" lon="11.976874328065449"><ele>-6.0</ele><time>2026-05-02T17:11:53.999Z</time></trkpt><trkpt lat="44.9006405441108" lon="11.9768701336563"><ele>-6.0</ele><time>2026-05-02T17:11:54.999Z</time></trkpt><trkpt lat="44.90071721131819" lon="11.976867717756956"><ele>-6.0</ele><time>2026-05-02T17:11:55.999Z</time></trkpt><trkpt lat="44.900794493009926" lon="11.976864823939191"><ele>-6.0</ele><time>2026-05-02T17:11:56.999Z</time></trkpt><trkpt lat="44.90087234920313" lon="11.97686499502301"><ele>-6.0</ele><time>2026-05-02T17:11:57.999Z</time></trkpt><trkpt lat="44.900949372503234" lon="11.97686316279643"><ele>-6.0</ele><time>2026-05-02T17:11:58.999Z</time></trkpt><trkpt lat="44.90102558759901" lon="11.976858678218337"><ele>-6.0</ele><time>2026-05-02T17:11:59.999Z</time></trkpt><trkpt lat="44.90110387790053" lon="11.976852373424503"><ele>-6.0</ele><time>2026-05-02T17:12:00.999Z</time></trkpt><trkpt lat="44.901183010234185" lon="11.976843449750334"><ele>-6.0</ele><time>2026-05-02T17:12:01.999Z</time></trkpt><trkpt lat="44.90126133962839" lon="11.97683829568562"><ele>-6.0</ele><time>2026-05-02T17:12:02.999Z</time></trkpt><trkpt lat="44.90133959062521" lon="11.976842289594785"><ele>-6.0</ele><time>2026-05-02T17:12:03.999Z</time></trkpt><trkpt lat="44.90141677057551" lon="11.976849176188606"><ele>-6.0</ele><time>2026-05-02T17:12:04.999Z</time></trkpt><trkpt lat="44.901494835331995" lon="11.976845568640224"><ele>-6.0</ele><time>2026-05-02T17:12:05.999Z</time></trkpt><trkpt lat="44.90156863186555" lon="11.976834908629481"><ele>-6.0</ele><time>2026-05-02T17:12:06.999Z</time></trkpt><trkpt lat="44.901641853192714" lon="11.976834538628127"><ele>-6.0</ele><time>2026-05-02T17:12:07.999Z</time></trkpt><trkpt lat="44.901717599982554" lon="11.976837651915242"><ele>-6.0</ele><time>2026-05-02T17:12:08.999Z</time></trkpt><trkpt lat="44.901792363019716" lon="11.97683533566028"><ele>-6.0</ele><time>2026-05-02T17:12:09.999Z</time></trkpt><trkpt lat="44.90186552881851" lon="11.976831062255771"><ele>-6.0</ele><time>2026-05-02T17:12:10.999Z</time></trkpt><trkpt lat="44.90194268743653" lon="11.976822080924233"><ele>-6.0</ele><time>2026-05-02T17:12:11.999Z</time></trkpt><trkpt lat="44.90201861852705" lon="11.976825335835487"><ele>-6.0</ele><time>2026-05-02T17:12:12.999Z</time></trkpt><trkpt lat="44.90209540482791" lon="11.976830866163008"><ele>-6.0</ele><time>2026-05-02T17:12:13.999Z</time></trkpt><trkpt lat="44.90217323854958" lon="11.976826605505414"><ele>-6.0</ele><time>2026-05-02T17:12:14.999Z</time></trkpt><trkpt lat="44.902251171869295" lon="11.976822999722962"><ele>-6.0</ele><time>2026-05-02T17:12:15.999Z</time></trkpt><trkpt lat="44.90232975033599" lon="11.976817553461089"><ele>-6.0</ele><time>2026-05-02T17:12:16.999Z</time></trkpt><trkpt lat="44.90240730738912" lon="11.976818298802868"><ele>-6.0</ele><time>2026-05-02T17:12:17.999Z</time></trkpt><trkpt lat="44.902483905148934" lon="11.976812134201483"><ele>-6.0</ele><time>2026-05-02T17:12:18.999Z</time></trkpt><trkpt lat="44.90255884043724" lon="11.976807994409949"><ele>-5.999999999999999</ele><time>2026-05-02T17:12:19.999Z</time></trkpt><trkpt lat="44.90263313594092" lon="11.976809455417877"><ele>-6.0</ele><time>2026-05-02T17:12:20.999Z</time></trkpt><trkpt lat="44.90270484857633" lon="11.97681089975908"><ele>-6.0</ele><time>2026-05-02T17:12:21.999Z</time></trkpt><trkpt lat="44.90277457456999" lon="11.97680451773451"><ele>-6.0</ele><time>2026-05-02T17:12:22.999Z</time></trkpt><trkpt lat="44.902842563865356" lon="11.976793238049606"><ele>-6.0</ele><time>2026-05-02T17:12:23.999Z</time></trkpt><trkpt lat="44.90291807090907" lon="11.976807046632993"><ele>-5.999999999999999</ele><time>2026-05-02T17:12:24.999Z</time></trkpt><trkpt lat="44.90298249074599" lon="11.976784040753543"><ele>-6.0</ele><time>2026-05-02T17:12:25.999Z</time></trkpt><trkpt lat="44.90304611501415" lon="11.976785696120903"><ele>-6.0</ele><time>2026-05-02T17:12:26.999Z</time></trkpt><trkpt lat="44.90311154392296" lon="11.97678604391611"><ele>-6.0</ele><time>2026-05-02T17:12:27.999Z</time></trkpt><trkpt lat="44.90317491898004" lon="11.976784870860467"><ele>-6.0</ele><time>2026-05-02T17:12:28.999Z</time></trkpt><trkpt lat="44.903286559293385" lon="11.97677806598512"><ele>-6.0</ele><time>2026-05-02T17:12:30.999Z</time></trkpt><trkpt lat="44.9033883429561" lon="11.976796006179534"><ele>-6.0</ele><time>2026-05-02T17:12:32.999Z</time></trkpt><trkpt lat="44.90348005205703" lon="11.976793853149209"><ele>-6.0</ele><time>2026-05-02T17:12:34.999Z</time></trkpt><trkpt lat="44.90356417508641" lon="11.976776939621116"><ele>-6.0</ele><time>2026-05-02T17:12:36.999Z</time></trkpt><trkpt lat="44.903649306468054" lon="11.976769503027374"><ele>-6.0</ele><time>2026-05-02T17:12:39Z</time></trkpt><trkpt lat="44.90373342461025" lon="11.976767248187041"><ele>-6.0</ele><time>2026-05-02T17:12:41Z</time></trkpt><trkpt lat="44.90381773936156" lon="11.976766719727118"><ele>-6.0</ele><time>2026-05-02T17:12:43Z</time></trkpt><trkpt lat="44.90389836603727" lon="11.976762174585678"><ele>-6.0</ele><time>2026-05-02T17:12:45Z</time></trkpt><trkpt lat="44.90397645412082" lon="11.976765970124054"><ele>-6.0</ele><time>2026-05-02T17:12:47Z</time></trkpt><trkpt lat="44.90405576074683" lon="11.97676232323859"><ele>-5.999999999999999</ele><time>2026-05-02T17:12:49Z</time></trkpt><trkpt lat="44.90412758300003" lon="11.976758958517248"><ele>-6.0</ele><time>2026-05-02T17:12:51Z</time></trkpt><trkpt lat="44.9042000646059" lon="11.976755688490098"><ele>-6.0</ele><time>2026-05-02T17:12:53Z</time></trkpt><trkpt lat="44.90427076867365" lon="11.976754506803466"><ele>-6.0</ele><time>2026-05-02T17:12:55Z</time></trkpt><trkpt lat="44.90433829308438" lon="11.976751839539716"><ele>-6.0</ele><time>2026-05-02T17:12:57Z</time></trkpt><trkpt lat="44.90441307487027" lon="11.976747915443672"><ele>-5.999999999999999</ele><time>2026-05-02T17:12:59Z</time></trkpt><trkpt lat="44.90448826386893" lon="11.976746547166112"><ele>-6.0</ele><time>2026-05-02T17:13:01Z</time></trkpt><trkpt lat="44.90455757556414" lon="11.976767629553413"><ele>-5.857142857142857</ele><time>2026-05-02T17:13:03Z</time></trkpt><trkpt lat="44.9046307291052" lon="11.976752639708089"><ele>-5.714285714285714</ele><time>2026-05-02T17:13:05Z</time></trkpt><trkpt lat="44.90470379913353" lon="11.976746801982648"><ele>-5.571428571428571</ele><time>2026-05-02T17:13:07Z</time></trkpt><trkpt lat="44.9047732785387" lon="11.976750256309217"><ele>-5.428571428571429</ele><time>2026-05-02T17:13:09Z</time></trkpt><trkpt lat="44.90484672411229" lon="11.976743162092633"><ele>-5.285714285714286</ele><time>2026-05-02T17:13:11Z</time></trkpt><trkpt lat="44.904909751928955" lon="11.976743585576589"><ele>-5.142857142857142</ele><time>2026-05-02T17:13:13Z</time></trkpt><trkpt lat="44.90499513412468" lon="11.976746782748128"><ele>-5.0</ele><time>2026-05-02T17:13:16Z</time></trkpt><trkpt lat="44.905089829801305" lon="11.976738196839042"><ele>-4.833333333333334</ele><time>2026-05-02T17:13:19Z</time></trkpt><trkpt lat="44.90517274043521" lon="11.97673375679666"><ele>-4.666666666666667</ele><time>2026-05-02T17:13:22Z</time></trkpt><trkpt lat="44.905253380195695" lon="11.976733569691866"><ele>-4.5</ele><time>2026-05-02T17:13:25Z</time></trkpt><trkpt lat="44.90534180432139" lon="11.976731621790185"><ele>-4.333333333333333</ele><time>2026-05-02T17:13:28Z</time></trkpt><trkpt lat="44.90542372848306" lon="11.976730915372277"><ele>-4.166666666666666</ele><time>2026-05-02T17:13:31Z</time></trkpt><trkpt lat="44.90550580819866" lon="11.976721289547148"><ele>-4.0</ele><time>2026-05-02T17:13:34Z</time></trkpt><trkpt lat="44.90558762320661" lon="11.976717474203731"><ele>-3.9999999999999996</ele><time>2026-05-02T17:13:37Z</time></trkpt><trkpt lat="44.90566416375396" lon="11.976712893408314"><ele>-4.0</ele><time>2026-05-02T17:13:39.999Z</time></trkpt><trkpt lat="44.90574381235429" lon="11.97672978341997"><ele>-4.0</ele><time>2026-05-02T17:13:42.999Z</time></trkpt><trkpt lat="44.90580147652796" lon="11.976770904986866"><ele>-4.0</ele><time>2026-05-02T17:13:45.999Z</time></trkpt><trkpt lat="44.90577815903726" lon="11.976874225441431"><ele>-3.9999999999999996</ele><time>2026-05-02T17:13:47.999Z</time></trkpt><trkpt lat="44.905798557011025" lon="11.976978677649834"><ele>-4.0</ele><time>2026-05-02T17:13:50.999Z</time></trkpt><trkpt lat="44.90581910863001" lon="11.977089367945833"><ele>-3.9999999999999996</ele><time>2026-05-02T17:13:53.999Z</time></trkpt><trkpt lat="44.90583605604878" lon="11.977180646151503"><ele>-4.0</ele><time>2026-05-02T17:13:56.999Z</time></trkpt><trkpt lat="44.90585554015825" lon="11.977289772879484"><ele>-4.0</ele><time>2026-05-02T17:13:59.999Z</time></trkpt><trkpt lat="44.90587580605423" lon="11.977404170471791"><ele>-4.0</ele><time>2026-05-02T17:14:01.999Z</time></trkpt><trkpt lat="44.905897943131166" lon="11.977529130575643"><ele>-3.9999999999999996</ele><time>2026-05-02T17:14:03.999Z</time></trkpt><trkpt lat="44.90591653718476" lon="11.977634090895481"><ele>-4.0</ele><time>2026-05-02T17:14:05.999Z</time></trkpt><trkpt lat="44.90593461354863" lon="11.977736128954087"><ele>-4.333333333333333</ele><time>2026-05-02T17:14:07.999Z</time></trkpt><trkpt lat="44.90595154503964" lon="11.977831704389299"><ele>-4.666666666666666</ele><time>2026-05-02T17:14:09.999Z</time></trkpt><trkpt lat="44.90596696459314" lon="11.977918745188571"><ele>-5.0</ele><time>2026-05-02T17:14:11.999Z</time></trkpt><trkpt lat="44.9059993085625" lon="11.978013383037636"><ele>-5.333333333333333</ele><time>2026-05-02T17:14:14.999Z</time></trkpt><trkpt lat="44.906021586347585" lon="11.978139884012824"><ele>-5.666666666666667</ele><time>2026-05-02T17:14:17.999Z</time></trkpt><trkpt lat="44.90602886912144" lon="11.978268185921173"><ele>-6.0</ele><time>2026-05-02T17:14:20.999Z</time></trkpt><trkpt lat="44.90604634351387" lon="11.97836682594449"><ele>-5.999999999999999</ele><time>2026-05-02T17:14:22.999Z</time></trkpt><trkpt lat="44.906063228534144" lon="11.978462139067597"><ele>-6.0</ele><time>2026-05-02T17:14:24.999Z</time></trkpt><trkpt lat="44.9060805430716" lon="11.978559876737283"><ele>-6.0</ele><time>2026-05-02T17:14:26.999Z</time></trkpt><trkpt lat="44.906097914595975" lon="11.978657936093818"><ele>-6.0</ele><time>2026-05-02T17:14:28.999Z</time></trkpt><trkpt lat="44.90611445205894" lon="11.97875128730759"><ele>-6.0</ele><time>2026-05-02T17:14:30.999Z</time></trkpt><trkpt lat="44.90613150209803" lon="11.9788475319397"><ele>-5.999999999999999</ele><time>2026-05-02T17:14:32.999Z</time></trkpt><trkpt lat="44.906149774572654" lon="11.978950677009308"><ele>-6.0</ele><time>2026-05-02T17:14:34.999Z</time></trkpt><trkpt lat="44.906184850303816" lon="11.97905449488912"><ele>-5.999999999999999</ele><time>2026-05-02T17:14:36.999Z</time></trkpt><trkpt lat="44.90620084280414" lon="11.979147308057197"><ele>-6.0</ele><time>2026-05-02T17:14:38.999Z</time></trkpt><trkpt lat="44.906212685976705" lon="11.979239730042718"><ele>-6.0</ele><time>2026-05-02T17:14:40.999Z</time></trkpt><trkpt lat="44.90623402127328" lon="11.979342467004203"><ele>-6.0</ele><time>2026-05-02T17:14:42.999Z</time></trkpt><trkpt lat="44.906253758612785" lon="11.979447733544225"><ele>-6.0</ele><time>2026-05-02T17:14:45Z</time></trkpt><trkpt lat="44.90625705182419" lon="11.979556239166167"><ele>-5.999999999999999</ele><time>2026-05-02T17:14:47Z</time></trkpt><trkpt lat="44.90627509123475" lon="11.979658068623163"><ele>-6.0</ele><time>2026-05-02T17:14:49Z</time></trkpt><trkpt lat="44.90629295989583" lon="11.979758934222128"><ele>-5.833333333333333</ele><time>2026-05-02T17:14:51Z</time></trkpt><trkpt lat="44.9063097188039" lon="11.979853535454026"><ele>-5.666666666666667</ele><time>2026-05-02T17:14:53Z</time></trkpt><trkpt lat="44.906326568424774" lon="11.979948648745443"><ele>-5.5</ele><time>2026-05-02T17:14:55Z</time></trkpt><trkpt lat="44.9063436380628" lon="11.98004500400018"><ele>-5.333333333333334</ele><time>2026-05-02T17:14:57Z</time></trkpt><trkpt lat="44.90635916770223" lon="11.98013266621223"><ele>-5.166666666666667</ele><time>2026-05-02T17:14:59Z</time></trkpt><trkpt lat="44.90639711805615" lon="11.980248747721626"><ele>-5.0</ele><time>2026-05-02T17:15:02Z</time></trkpt><trkpt lat="44.906402158460445" lon="11.980372557552942"><ele>-5.0</ele><time>2026-05-02T17:15:05Z</time></trkpt><trkpt lat="44.90642253207513" lon="11.980486219174809"><ele>-5.0</ele><time>2026-05-02T17:15:08Z</time></trkpt><trkpt lat="44.90645426803225" lon="11.980599393912671"><ele>-5.0</ele><time>2026-05-02T17:15:11Z</time></trkpt><trkpt lat="44.906464029991646" lon="11.980717730366951"><ele>-5.0</ele><time>2026-05-02T17:15:14Z</time></trkpt><trkpt lat="44.90649955675315" lon="11.980828407132494"><ele>-5.0</ele><time>2026-05-02T17:15:17Z</time></trkpt><trkpt lat="44.906500874051716" lon="11.980923278338553"><ele>-5.0</ele><time>2026-05-02T17:15:19Z</time></trkpt><trkpt lat="44.906523120251435" lon="11.981047386813248"><ele>-5.0</ele><time>2026-05-02T17:15:22Z</time></trkpt><trkpt lat="44.90655983027915" lon="11.981159598852953"><ele>-5.0</ele><time>2026-05-02T17:15:25Z</time></trkpt><trkpt lat="44.90657656067291" lon="11.981283319452825"><ele>-5.0</ele><time>2026-05-02T17:15:28Z</time></trkpt><trkpt lat="44.906599832897435" lon="11.981400157378902"><ele>-5.0</ele><time>2026-05-02T17:15:31Z</time></trkpt><trkpt lat="44.90661678183904" lon="11.981524328839965"><ele>-5.0</ele><time>2026-05-02T17:15:34Z</time></trkpt><trkpt lat="44.90663860697484" lon="11.981618529182446"><ele>-5.0</ele><time>2026-05-02T17:15:36Z</time></trkpt><trkpt lat="44.906652100308825" lon="11.981706861570997"><ele>-5.2</ele><time>2026-05-02T17:15:38Z</time></trkpt><trkpt lat="44.906672769373586" lon="11.981834101328442"><ele>-5.4</ele><time>2026-05-02T17:15:41Z</time></trkpt><trkpt lat="44.906698996783724" lon="11.981951979584522"><ele>-5.6</ele><time>2026-05-02T17:15:43.999Z</time></trkpt><trkpt lat="44.906717785222334" lon="11.982073935553924"><ele>-5.8</ele><time>2026-05-02T17:15:46.999Z</time></trkpt><trkpt lat="44.906739064879744" lon="11.982195474383735"><ele>-6.0</ele><time>2026-05-02T17:15:49.999Z</time></trkpt><trkpt lat="44.90676345597815" lon="11.982324950297976"><ele>-6.0</ele><time>2026-05-02T17:15:52.999Z</time></trkpt><trkpt lat="44.906777125865176" lon="11.982412741927261"><ele>-6.0</ele><time>2026-05-02T17:15:54.999Z</time></trkpt><trkpt lat="44.906797380068355" lon="11.982538474271992"><ele>-6.0</ele><time>2026-05-02T17:15:57.999Z</time></trkpt><trkpt lat="44.906817973919196" lon="11.982655925081819"><ele>-6.0</ele><time>2026-05-02T17:16:00.999Z</time></trkpt><trkpt lat="44.9068385335231" lon="11.982775591065128"><ele>-6.0</ele><time>2026-05-02T17:16:03.999Z</time></trkpt><trkpt lat="44.906856681440814" lon="11.982875986779266"><ele>-6.0</ele><time>2026-05-02T17:16:06.999Z</time></trkpt><trkpt lat="44.90687659341466" lon="11.982990679807399"><ele>-5.999999999999999</ele><time>2026-05-02T17:16:09.999Z</time></trkpt><trkpt lat="44.90689326644058" lon="11.983080438152315"><ele>-6.0</ele><time>2026-05-02T17:16:11.999Z</time></trkpt><trkpt lat="44.906904208106525" lon="11.983179964952306"><ele>-6.0</ele><time>2026-05-02T17:16:13.999Z</time></trkpt><trkpt lat="44.90692084382921" lon="11.98328462933813"><ele>-6.0</ele><time>2026-05-02T17:16:15.999Z</time></trkpt><trkpt lat="44.90694074427291" lon="11.983383661134697"><ele>-6.0</ele><time>2026-05-02T17:16:17.999Z</time></trkpt><trkpt lat="44.906951944595995" lon="11.98348178395249"><ele>-5.999999999999999</ele><time>2026-05-02T17:16:19.999Z</time></trkpt><trkpt lat="44.90697660426123" lon="11.983590086691454"><ele>-6.0</ele><time>2026-05-02T17:16:21.999Z</time></trkpt><trkpt lat="44.90699924625506" lon="11.98370148842823"><ele>-6.0</ele><time>2026-05-02T17:16:23.999Z</time></trkpt><trkpt lat="44.907015770307936" lon="11.98382005671995"><ele>-6.0</ele><time>2026-05-02T17:16:25.999Z</time></trkpt><trkpt lat="44.907041688276784" lon="11.983967505289845"><ele>-6.0</ele><time>2026-05-02T17:16:27.999Z</time></trkpt><trkpt lat="44.9070697987232" lon="11.984120696861627"><ele>-6.0</ele><time>2026-05-02T17:16:29.999Z</time></trkpt><trkpt lat="44.90709458693587" lon="11.984280428722428"><ele>-6.0</ele><time>2026-05-02T17:16:31.999Z</time></trkpt><trkpt lat="44.90712699702769" lon="11.984448410047888"><ele>-5.857142857142857</ele><time>2026-05-02T17:16:33.999Z</time></trkpt><trkpt lat="44.90714197342831" lon="11.984541218386209"><ele>-5.714285714285714</ele><time>2026-05-02T17:16:34.999Z</time></trkpt><trkpt lat="44.90715675929237" lon="11.984636464557093"><ele>-5.571428571428571</ele><time>2026-05-02T17:16:35.999Z</time></trkpt><trkpt lat="44.90717393379734" lon="11.984734629412179"><ele>-5.428571428571429</ele><time>2026-05-02T17:16:36.999Z</time></trkpt><trkpt lat="44.90719083835871" lon="11.98483353326218"><ele>-5.285714285714286</ele><time>2026-05-02T17:16:37.999Z</time></trkpt><trkpt lat="44.9072096269559" lon="11.984934132909036"><ele>-5.142857142857142</ele><time>2026-05-02T17:16:38.999Z</time></trkpt><trkpt lat="44.907229849307754" lon="11.985036021316889"><ele>-5.0</ele><time>2026-05-02T17:16:39.999Z</time></trkpt><trkpt lat="44.907249196195615" lon="11.985139934150007"><ele>-5.0</ele><time>2026-05-02T17:16:40.999Z</time></trkpt><trkpt lat="44.90726357238817" lon="11.985246052752082"><ele>-5.0</ele><time>2026-05-02T17:16:41.999Z</time></trkpt><trkpt lat="44.90727889448917" lon="11.985350338303704"><ele>-5.0</ele><time>2026-05-02T17:16:42.999Z</time></trkpt><trkpt lat="44.90730015257909" lon="11.985454046911114"><ele>-5.0</ele><time>2026-05-02T17:16:43.999Z</time></trkpt><trkpt lat="44.907321052265026" lon="11.985556343437615"><ele>-5.0</ele><time>2026-05-02T17:16:44.999Z</time></trkpt><trkpt lat="44.90733817271801" lon="11.985659849084495"><ele>-5.0</ele><time>2026-05-02T17:16:45.999Z</time></trkpt><trkpt lat="44.907354362849304" lon="11.985765083001327"><ele>-5.166666666666667</ele><time>2026-05-02T17:16:46.999Z</time></trkpt><trkpt lat="44.90737201860966" lon="11.985870019281736"><ele>-5.333333333333334</ele><time>2026-05-02T17:16:47.999Z</time></trkpt><trkpt lat="44.90739376414373" lon="11.985974334886734"><ele>-5.5</ele><time>2026-05-02T17:16:48.999Z</time></trkpt><trkpt lat="44.90741430581593" lon="11.986076569468358"><ele>-5.666666666666667</ele><time>2026-05-02T17:16:50Z</time></trkpt><trkpt lat="44.907430465401596" lon="11.986184680168954"><ele>-5.833333333333333</ele><time>2026-05-02T17:16:51Z</time></trkpt><trkpt lat="44.90744980618447" lon="11.986286711928878"><ele>-6.0</ele><time>2026-05-02T17:16:52Z</time></trkpt><trkpt lat="44.907462581098045" lon="11.986396734613487"><ele>-6.0</ele><time>2026-05-02T17:16:53Z</time></trkpt><trkpt lat="44.90748009756613" lon="11.986502896452627"><ele>-6.0</ele><time>2026-05-02T17:16:54Z</time></trkpt><trkpt lat="44.90750103628135" lon="11.986605422187298"><ele>-6.0</ele><time>2026-05-02T17:16:55Z</time></trkpt><trkpt lat="44.907519524814994" lon="11.986708988658838"><ele>-6.0</ele><time>2026-05-02T17:16:56Z</time></trkpt><trkpt lat="44.90753882161292" lon="11.986813196099426"><ele>-6.0</ele><time>2026-05-02T17:16:57Z</time></trkpt><trkpt lat="44.907557974333585" lon="11.986914935749489"><ele>-6.0</ele><time>2026-05-02T17:16:58Z</time></trkpt><trkpt lat="44.90757471855742" lon="11.98701693747308"><ele>-5.833333333333333</ele><time>2026-05-02T17:16:59Z</time></trkpt><trkpt lat="44.90759326241899" lon="11.987118110462093"><ele>-5.666666666666667</ele><time>2026-05-02T17:17:00Z</time></trkpt><trkpt lat="44.90761057091707" lon="11.987222282236647"><ele>-5.5</ele><time>2026-05-02T17:17:01Z</time></trkpt><trkpt lat="44.907630500030834" lon="11.987329166728948"><ele>-5.333333333333334</ele><time>2026-05-02T17:17:02Z</time></trkpt><trkpt lat="44.90765077326439" lon="11.987434805348707"><ele>-5.166666666666667</ele><time>2026-05-02T17:17:03Z</time></trkpt><trkpt lat="44.90766763109539" lon="11.987542826715451"><ele>-5.0</ele><time>2026-05-02T17:17:04Z</time></trkpt><trkpt lat="44.9076829095642" lon="11.987650680343716"><ele>-5.0</ele><time>2026-05-02T17:17:05Z</time></trkpt><trkpt lat="44.907703458879034" lon="11.987755318126206"><ele>-5.0</ele><time>2026-05-02T17:17:06Z</time></trkpt><trkpt lat="44.907726573073155" lon="11.987858876233574"><ele>-5.0</ele><time>2026-05-02T17:17:07Z</time></trkpt><trkpt lat="44.907745815621574" lon="11.987956549280916"><ele>-5.0</ele><time>2026-05-02T17:17:08Z</time></trkpt><trkpt lat="44.90776367678308" lon="11.988058971325712"><ele>-5.0</ele><time>2026-05-02T17:17:09Z</time></trkpt><trkpt lat="44.90778277183327" lon="11.988162196103305"><ele>-5.0</ele><time>2026-05-02T17:17:10Z</time></trkpt><trkpt lat="44.90778475498469" lon="11.988270032092966"><ele>-5.0</ele><time>2026-05-02T17:17:11Z</time></trkpt><trkpt lat="44.90781915209288" lon="11.98837133198576"><ele>-5.0</ele><time>2026-05-02T17:17:12Z</time></trkpt><trkpt lat="44.90782125085652" lon="11.988477038130036"><ele>-5.0</ele><time>2026-05-02T17:17:13Z</time></trkpt><trkpt lat="44.90783964548114" lon="11.988581373186088"><ele>-5.0</ele><time>2026-05-02T17:17:14Z</time></trkpt><trkpt lat="44.90787172947728" lon="11.988682100084864"><ele>-5.0</ele><time>2026-05-02T17:17:15Z</time></trkpt><trkpt lat="44.9078860558657" lon="11.988783246342601"><ele>-5.0</ele><time>2026-05-02T17:17:16Z</time></trkpt><trkpt lat="44.90790173846638" lon="11.988885938951332"><ele>-5.0</ele><time>2026-05-02T17:17:17Z</time></trkpt><trkpt lat="44.90792280786768" lon="11.988987140003402"><ele>-5.0</ele><time>2026-05-02T17:17:18Z</time></trkpt><trkpt lat="44.90794367409817" lon="11.989087186976406"><ele>-5.0</ele><time>2026-05-02T17:17:19Z</time></trkpt><trkpt lat="44.90796017993347" lon="11.989188542546362"><ele>-5.0</ele><time>2026-05-02T17:17:20Z</time></trkpt><trkpt lat="44.907977168273746" lon="11.989294577445886"><ele>-5.0</ele><time>2026-05-02T17:17:21Z</time></trkpt><trkpt lat="44.907994814736305" lon="11.989401495369165"><ele>-5.0</ele><time>2026-05-02T17:17:22Z</time></trkpt><trkpt lat="44.90801287288702" lon="11.989510211096638"><ele>-4.857142857142857</ele><time>2026-05-02T17:17:23Z</time></trkpt><trkpt lat="44.90803062716857" lon="11.989612643991503"><ele>-4.714285714285714</ele><time>2026-05-02T17:17:24Z</time></trkpt><trkpt lat="44.90804438571563" lon="11.989717627835283"><ele>-4.571428571428571</ele><time>2026-05-02T17:17:25Z</time></trkpt><trkpt lat="44.90806761673921" lon="11.989813260109123"><ele>-4.428571428571429</ele><time>2026-05-02T17:17:26Z</time></trkpt><trkpt lat="44.908083235047876" lon="11.989905802830169"><ele>-4.285714285714286</ele><time>2026-05-02T17:17:27Z</time></trkpt><trkpt lat="44.908098284421975" lon="11.989997566081387"><ele>-4.142857142857142</ele><time>2026-05-02T17:17:28Z</time></trkpt><trkpt lat="44.90811507366961" lon="11.990086103963955"><ele>-4.0</ele><time>2026-05-02T17:17:29Z</time></trkpt><trkpt lat="44.90814130890938" lon="11.99025263548608"><ele>-4.0</ele><time>2026-05-02T17:17:31Z</time></trkpt><trkpt lat="44.908170464294514" lon="11.990413548147902"><ele>-4.0</ele><time>2026-05-02T17:17:33Z</time></trkpt><trkpt lat="44.90818317079344" lon="11.990569591711587"><ele>-4.0</ele><time>2026-05-02T17:17:35Z</time></trkpt><trkpt lat="44.90820822796409" lon="11.990715954214933"><ele>-4.0</ele><time>2026-05-02T17:17:37Z</time></trkpt><trkpt lat="44.908232039381396" lon="11.990855040128313"><ele>-4.0</ele><time>2026-05-02T17:17:39Z</time></trkpt><trkpt lat="44.9082543683633" lon="11.990985466843878"><ele>-4.0</ele><time>2026-05-02T17:17:41Z</time></trkpt><trkpt lat="44.90837999484644" lon="11.99104396934782"><ele>-4.0</ele><time>2026-05-02T17:17:44Z</time></trkpt><trkpt lat="44.908468799724176" lon="11.991026384466496"><ele>-4.0</ele><time>2026-05-02T17:17:46Z</time></trkpt><trkpt lat="44.90858562144591" lon="11.991053518926424"><ele>-4.0</ele><time>2026-05-02T17:17:47.999Z</time></trkpt><trkpt lat="44.90864967446551" lon="11.9910350489691"><ele>-4.0</ele><time>2026-05-02T17:17:48.999Z</time></trkpt><trkpt lat="44.90877741287414" lon="11.991043042006607"><ele>-4.0</ele><time>2026-05-02T17:17:50.999Z</time></trkpt><trkpt lat="44.90884579346629" lon="11.99105757724691"><ele>-3.9999999999999996</ele><time>2026-05-02T17:17:51.999Z</time></trkpt><trkpt lat="44.90891361393767" lon="11.991075094082895"><ele>-4.0</ele><time>2026-05-02T17:17:52.999Z</time></trkpt><trkpt lat="44.908984665019204" lon="11.991056746911395"><ele>-4.0</ele><time>2026-05-02T17:17:53.999Z</time></trkpt><trkpt lat="44.90905499764579" lon="11.99106983041722"><ele>-3.9999999999999996</ele><time>2026-05-02T17:17:54.999Z</time></trkpt><trkpt lat="44.9091277070686" lon="11.99108917700604"><ele>-4.0</ele><time>2026-05-02T17:17:55.999Z</time></trkpt><trkpt lat="44.90919930862739" lon="11.991075424599423"><ele>-4.0</ele><time>2026-05-02T17:17:56.999Z</time></trkpt><trkpt lat="44.909268928051674" lon="11.991082188221371"><ele>-4.4</ele><time>2026-05-02T17:17:57.999Z</time></trkpt><trkpt lat="44.909338611609854" lon="11.991103050185034"><ele>-4.800000000000001</ele><time>2026-05-02T17:17:58.999Z</time></trkpt><trkpt lat="44.90940400477791" lon="11.991084742411665"><ele>-5.199999999999999</ele><time>2026-05-02T17:17:59.999Z</time></trkpt><trkpt lat="44.90946866378711" lon="11.99109217576564"><ele>-5.6</ele><time>2026-05-02T17:18:00.999Z</time></trkpt><trkpt lat="44.909595640334906" lon="11.991095192161334"><ele>-6.0</ele><time>2026-05-02T17:18:02.999Z</time></trkpt><trkpt lat="44.90971806277682" lon="11.991098382567175"><ele>-6.0</ele><time>2026-05-02T17:18:04.999Z</time></trkpt><trkpt lat="44.90983861347607" lon="11.9911009941292"><ele>-6.0</ele><time>2026-05-02T17:18:06.999Z</time></trkpt><trkpt lat="44.90995287439186" lon="11.991111690022858"><ele>-6.0</ele><time>2026-05-02T17:18:08.999Z</time></trkpt><trkpt lat="44.91006496713307" lon="11.991147428289734"><ele>-6.0</ele><time>2026-05-02T17:18:10.999Z</time></trkpt><trkpt lat="44.91019290821409" lon="11.991155220607853"><ele>-6.333333333333333</ele><time>2026-05-02T17:18:12.999Z</time></trkpt><trkpt lat="44.910326506668845" lon="11.991163357489908"><ele>-6.666666666666666</ele><time>2026-05-02T17:18:14.999Z</time></trkpt><trkpt lat="44.91039277422907" lon="11.991167327390487"><ele>-7.0</ele><time>2026-05-02T17:18:15.999Z</time></trkpt><trkpt lat="44.91046162897582" lon="11.991171388146565"><ele>-7.333333333333333</ele><time>2026-05-02T17:18:16.999Z</time></trkpt><trkpt lat="44.91053576388047" lon="11.99117576030429"><ele>-7.666666666666666</ele><time>2026-05-02T17:18:17.999Z</time></trkpt><trkpt lat="44.91060633227631" lon="11.991179922123267"><ele>-8.0</ele><time>2026-05-02T17:18:18.999Z</time></trkpt><trkpt lat="44.91067526572234" lon="11.99118398752194"><ele>-8.0</ele><time>2026-05-02T17:18:19.999Z</time></trkpt><trkpt lat="44.910743035169034" lon="11.991187984269859"><ele>-8.0</ele><time>2026-05-02T17:18:20.999Z</time></trkpt><trkpt lat="44.91086528165771" lon="11.991195289071827"><ele>-8.0</ele><time>2026-05-02T17:18:22.999Z</time></trkpt><trkpt lat="44.91098512383975" lon="11.991202563008201"><ele>-8.0</ele><time>2026-05-02T17:18:24.999Z</time></trkpt><trkpt lat="44.91110445140241" lon="11.991210531031232"><ele>-8.0</ele><time>2026-05-02T17:18:26.999Z</time></trkpt><trkpt lat="44.91122036294176" lon="11.991218270950919"><ele>-7.75</ele><time>2026-05-02T17:18:28.999Z</time></trkpt><trkpt lat="44.9113297660624" lon="11.991225576275173"><ele>-7.5</ele><time>2026-05-02T17:18:30.999Z</time></trkpt><trkpt lat="44.91144731532105" lon="11.99121042387227"><ele>-7.25</ele><time>2026-05-02T17:18:32.999Z</time></trkpt><trkpt lat="44.91156988684618" lon="11.991241610188595"><ele>-7.0</ele><time>2026-05-02T17:18:34.999Z</time></trkpt><trkpt lat="44.91168394054983" lon="11.9912492260528"><ele>-6.8</ele><time>2026-05-02T17:18:36.999Z</time></trkpt><trkpt lat="44.911791562049864" lon="11.991256077929918"><ele>-6.6</ele><time>2026-05-02T17:18:38.999Z</time></trkpt><trkpt lat="44.91189267901484" lon="11.991239446531264"><ele>-6.3999999999999995</ele><time>2026-05-02T17:18:40.999Z</time></trkpt><trkpt lat="44.91199802397209" lon="11.99126899593295"><ele>-6.199999999999999</ele><time>2026-05-02T17:18:42.999Z</time></trkpt><trkpt lat="44.912109042036356" lon="11.991275942162074"><ele>-6.0</ele><time>2026-05-02T17:18:44.999Z</time></trkpt><trkpt lat="44.91221606065673" lon="11.99128263815169"><ele>-6.0</ele><time>2026-05-02T17:18:46.999Z</time></trkpt><trkpt lat="44.91232008225428" lon="11.991289146621776"><ele>-6.0</ele><time>2026-05-02T17:18:48.999Z</time></trkpt><trkpt lat="44.91243942731347" lon="11.99129661385802"><ele>-6.0</ele><time>2026-05-02T17:18:50.999Z</time></trkpt><trkpt lat="44.9125636195591" lon="11.991303031668748"><ele>-6.0</ele><time>2026-05-02T17:18:52.999Z</time></trkpt><trkpt lat="44.912627796445825" lon="11.991306330210097"><ele>-6.0</ele><time>2026-05-02T17:18:53.999Z</time></trkpt><trkpt lat="44.91269174868049" lon="11.991309617205236"><ele>-5.8</ele><time>2026-05-02T17:18:54.999Z</time></trkpt><trkpt lat="44.91275584220047" lon="11.991312911461694"><ele>-5.6</ele><time>2026-05-02T17:18:56Z</time></trkpt><trkpt lat="44.91287377752233" lon="11.991300024741617"><ele>-5.4</ele><time>2026-05-02T17:18:58Z</time></trkpt><trkpt lat="44.91298281282163" lon="11.991303371795572"><ele>-5.2</ele><time>2026-05-02T17:19:00Z</time></trkpt><trkpt lat="44.9130873647258" lon="11.991304167282768"><ele>-5.0</ele><time>2026-05-02T17:19:02Z</time></trkpt><trkpt lat="44.913183081259014" lon="11.991310222011833"><ele>-5.0</ele><time>2026-05-02T17:19:04Z</time></trkpt><trkpt lat="44.913258219216594" lon="11.99131111904451"><ele>-5.0</ele><time>2026-05-02T17:19:06Z</time></trkpt><trkpt lat="44.91333785768772" lon="11.991316513184534"><ele>-5.0</ele><time>2026-05-02T17:19:08Z</time></trkpt><trkpt lat="44.91344727829961" lon="11.99131257522132"><ele>-5.0</ele><time>2026-05-02T17:19:10Z</time></trkpt><trkpt lat="44.91357166540895" lon="11.991317024452387"><ele>-5.0</ele><time>2026-05-02T17:19:12Z</time></trkpt><trkpt lat="44.91363744861943" lon="11.991318030429554"><ele>-5.0</ele><time>2026-05-02T17:19:13Z</time></trkpt><trkpt lat="44.913761215944746" lon="11.991315092653611"><ele>-5.0</ele><time>2026-05-02T17:19:15Z</time></trkpt><trkpt lat="44.91388459011711" lon="11.991337762669625"><ele>-5.0</ele><time>2026-05-02T17:19:17Z</time></trkpt><trkpt lat="44.91394808949922" lon="11.991317760925789"><ele>-5.0</ele><time>2026-05-02T17:19:18Z</time></trkpt><trkpt lat="44.91406716300996" lon="11.991327634704144"><ele>-5.0</ele><time>2026-05-02T17:19:20Z</time></trkpt><trkpt lat="44.91417888990439" lon="11.991335792374084"><ele>-4.8</ele><time>2026-05-02T17:19:22Z</time></trkpt><trkpt lat="44.914282154301894" lon="11.991315892229073"><ele>-4.6</ele><time>2026-05-02T17:19:24Z</time></trkpt><trkpt lat="44.91437816649486" lon="11.991313401666233"><ele>-4.4</ele><time>2026-05-02T17:19:26Z</time></trkpt><trkpt lat="44.91447737843969" lon="11.991331737930535"><ele>-4.2</ele><time>2026-05-02T17:19:28Z</time></trkpt><trkpt lat="44.9145914052445" lon="11.991329811101693"><ele>-4.0</ele><time>2026-05-02T17:19:30Z</time></trkpt><trkpt lat="44.914712211502795" lon="11.991327769712967"><ele>-3.9999999999999996</ele><time>2026-05-02T17:19:32Z</time></trkpt><trkpt lat="44.91483604209041" lon="11.991302729333194"><ele>-4.0</ele><time>2026-05-02T17:19:34Z</time></trkpt><trkpt lat="44.914900931630626" lon="11.99132458071258"><ele>-4.0</ele><time>2026-05-02T17:19:35Z</time></trkpt><trkpt lat="44.914966667710274" lon="11.991323469900898"><ele>-4.0</ele><time>2026-05-02T17:19:36Z</time></trkpt><trkpt lat="44.915033902160744" lon="11.991322333770626"><ele>-3.9999999999999996</ele><time>2026-05-02T17:19:37Z</time></trkpt><trkpt lat="44.915102877969744" lon="11.991321168214482"><ele>-4.0</ele><time>2026-05-02T17:19:38Z</time></trkpt><trkpt lat="44.91517256801631" lon="11.991319990589156"><ele>-4.142857142857142</ele><time>2026-05-02T17:19:39Z</time></trkpt><trkpt lat="44.915246348540826" lon="11.991318743843571"><ele>-4.285714285714286</ele><time>2026-05-02T17:19:40Z</time></trkpt><trkpt lat="44.915314343953405" lon="11.991317594853085"><ele>-4.428571428571429</ele><time>2026-05-02T17:19:41Z</time></trkpt><trkpt lat="44.91538972423662" lon="11.9913163210739"><ele>-4.571428571428571</ele><time>2026-05-02T17:19:42Z</time></trkpt><trkpt lat="44.91546157793257" lon="11.991315106886415"><ele>-4.714285714285714</ele><time>2026-05-02T17:19:43Z</time></trkpt><trkpt lat="44.915533283845804" lon="11.991313895197312"><ele>-4.857142857142857</ele><time>2026-05-02T17:19:44Z</time></trkpt><trkpt lat="44.91560556235188" lon="11.991312673831507"><ele>-5.0</ele><time>2026-05-02T17:19:45Z</time></trkpt><trkpt lat="44.91567896574655" lon="11.991311433458582"><ele>-5.0</ele><time>2026-05-02T17:19:46Z</time></trkpt><trkpt lat="44.91574978745991" lon="11.991310236709591"><ele>-5.0</ele><time>2026-05-02T17:19:47Z</time></trkpt><trkpt lat="44.915821278111956" lon="11.991309028657888"><ele>-5.0</ele><time>2026-05-02T17:19:48Z</time></trkpt><trkpt lat="44.91589389623937" lon="11.991307801553353"><ele>-5.0</ele><time>2026-05-02T17:19:49Z</time></trkpt><trkpt lat="44.915967998431995" lon="11.991306549370872"><ele>-5.0</ele><time>2026-05-02T17:19:50Z</time></trkpt><trkpt lat="44.916038969205054" lon="11.991305691665882"><ele>-5.0</ele><time>2026-05-02T17:19:51Z</time></trkpt><trkpt lat="44.916111231766266" lon="11.991305006985533"><ele>-5.0</ele><time>2026-05-02T17:19:52Z</time></trkpt><trkpt lat="44.9161801401961" lon="11.991304354084319"><ele>-5.166666666666667</ele><time>2026-05-02T17:19:53Z</time></trkpt><trkpt lat="44.91625444447108" lon="11.99130365006061"><ele>-5.333333333333334</ele><time>2026-05-02T17:19:54Z</time></trkpt><trkpt lat="44.91633317063068" lon="11.991302904140062"><ele>-5.5</ele><time>2026-05-02T17:19:54.999Z</time></trkpt><trkpt lat="44.9164129799365" lon="11.991302147955876"><ele>-5.666666666666667</ele><time>2026-05-02T17:19:55.999Z</time></trkpt><trkpt lat="44.91648977203695" lon="11.991301420357795"><ele>-5.833333333333333</ele><time>2026-05-02T17:19:56.999Z</time></trkpt><trkpt lat="44.91656604780338" lon="11.991300697652527"><ele>-6.0</ele><time>2026-05-02T17:19:57.999Z</time></trkpt><trkpt lat="44.91664233517279" lon="11.991299974836945"><ele>-5.999999999999999</ele><time>2026-05-02T17:19:58.999Z</time></trkpt><trkpt lat="44.91671964047892" lon="11.99129924237709"><ele>-6.0</ele><time>2026-05-02T17:19:59.999Z</time></trkpt><trkpt lat="44.91679568926504" lon="11.99129852182066"><ele>-6.0</ele><time>2026-05-02T17:20:00.999Z</time></trkpt><trkpt lat="44.91686671918224" lon="11.99129784882047"><ele>-6.0</ele><time>2026-05-02T17:20:01.999Z</time></trkpt><trkpt lat="44.91693841788287" lon="11.991297169484733"><ele>-6.0</ele><time>2026-05-02T17:20:02.999Z</time></trkpt><trkpt lat="44.917008478214676" lon="11.991296505669425"><ele>-5.999999999999999</ele><time>2026-05-02T17:20:03.999Z</time></trkpt><trkpt lat="44.917079511468366" lon="11.991295832633769"><ele>-6.0</ele><time>2026-05-02T17:20:04.999Z</time></trkpt><trkpt lat="44.917207646238595" lon="11.991294021757273"><ele>-6.142857142857142</ele><time>2026-05-02T17:20:06.999Z</time></trkpt><trkpt lat="44.91727599328864" lon="11.991292896495333"><ele>-6.285714285714286</ele><time>2026-05-02T17:20:07.999Z</time></trkpt><trkpt lat="44.91734186443547" lon="11.991291811997094"><ele>-6.428571428571429</ele><time>2026-05-02T17:20:08.999Z</time></trkpt><trkpt lat="44.9174105757431" lon="11.991290680737114"><ele>-6.571428571428571</ele><time>2026-05-02T17:20:09.999Z</time></trkpt><trkpt lat="44.91747385442354" lon="11.991289638919552"><ele>-6.714285714285714</ele><time>2026-05-02T17:20:10.999Z</time></trkpt><trkpt lat="44.91754646581508" lon="11.991288443455046"><ele>-6.857142857142857</ele><time>2026-05-02T17:20:11.999Z</time></trkpt><trkpt lat="44.91762061271272" lon="11.991287222704843"><ele>-7.0</ele><time>2026-05-02T17:20:12.999Z</time></trkpt><trkpt lat="44.9176846006983" lon="11.991286169208678"><ele>-7.142857142857142</ele><time>2026-05-02T17:20:13.999Z</time></trkpt><trkpt lat="44.917751253734544" lon="11.991285071837"><ele>-7.285714285714286</ele><time>2026-05-02T17:20:14.999Z</time></trkpt><trkpt lat="44.91781771029596" lon="11.991283977698274"><ele>-7.428571428571429</ele><time>2026-05-02T17:20:15.999Z</time></trkpt><trkpt lat="44.917883365626984" lon="11.99128289675441"><ele>-7.571428571428571</ele><time>2026-05-02T17:20:16.999Z</time></trkpt><trkpt lat="44.91794714418709" lon="11.991281881621765"><ele>-7.7142857142857135</ele><time>2026-05-02T17:20:17.999Z</time></trkpt><trkpt lat="44.9180690621414" lon="11.991280262446292"><ele>-7.857142857142857</ele><time>2026-05-02T17:20:19.999Z</time></trkpt><trkpt lat="44.91813294058111" lon="11.99127941408491"><ele>-8.0</ele><time>2026-05-02T17:20:20.999Z</time></trkpt><trkpt lat="44.91819777746263" lon="11.991261034710858"><ele>-8.0</ele><time>2026-05-02T17:20:21.999Z</time></trkpt><trkpt lat="44.91826098751468" lon="11.991265531747933"><ele>-8.0</ele><time>2026-05-02T17:20:22.999Z</time></trkpt><trkpt lat="44.918384852780214" lon="11.991277106126786"><ele>-8.0</ele><time>2026-05-02T17:20:24.999Z</time></trkpt><trkpt lat="44.91850823000753" lon="11.991275989216382"><ele>-8.0</ele><time>2026-05-02T17:20:26.999Z</time></trkpt><trkpt lat="44.91857264525444" lon="11.99127540607633"><ele>-8.0</ele><time>2026-05-02T17:20:27.999Z</time></trkpt><trkpt lat="44.918688388023135" lon="11.99127435828029"><ele>-7.5</ele><time>2026-05-02T17:20:29.999Z</time></trkpt><trkpt lat="44.91880600708016" lon="11.991272606400075"><ele>-7.0</ele><time>2026-05-02T17:20:31.999Z</time></trkpt><trkpt lat="44.9189195477625" lon="11.991270464726258"><ele>-6.5</ele><time>2026-05-02T17:20:33.999Z</time></trkpt><trkpt lat="44.919037263248896" lon="11.991268244305358"><ele>-6.0</ele><time>2026-05-02T17:20:35.999Z</time></trkpt><trkpt lat="44.919156195485314" lon="11.991266000932763"><ele>-6.199999999999999</ele><time>2026-05-02T17:20:37.999Z</time></trkpt><trkpt lat="44.91928358774835" lon="11.991263597981229"><ele>-6.3999999999999995</ele><time>2026-05-02T17:20:39.999Z</time></trkpt><trkpt lat="44.9193492123267" lon="11.991262360131694"><ele>-6.6</ele><time>2026-05-02T17:20:40.999Z</time></trkpt><trkpt lat="44.91941347813641" lon="11.991261147911306"><ele>-6.8</ele><time>2026-05-02T17:20:41.999Z</time></trkpt><trkpt lat="44.919532700154974" lon="11.991258899072136"><ele>-7.0</ele><time>2026-05-02T17:20:43.999Z</time></trkpt><trkpt lat="44.919645181552525" lon="11.991256779351437"><ele>-7.0</ele><time>2026-05-02T17:20:45.999Z</time></trkpt><trkpt lat="44.91975470336254" lon="11.991254713486782"><ele>-7.0</ele><time>2026-05-02T17:20:47.999Z</time></trkpt><trkpt lat="44.91986169329664" lon="11.991252695376826"><ele>-7.0</ele><time>2026-05-02T17:20:49.999Z</time></trkpt><trkpt lat="44.919984672549226" lon="11.991250375670846"><ele>-7.0</ele><time>2026-05-02T17:20:51.999Z</time></trkpt><trkpt lat="44.9201089587294" lon="11.991248031305942"><ele>-6.857142857142857</ele><time>2026-05-02T17:20:53.999Z</time></trkpt><trkpt lat="44.92017420807051" lon="11.991246842350966"><ele>-6.714285714285714</ele><time>2026-05-02T17:20:54.999Z</time></trkpt><trkpt lat="44.920240310461956" lon="11.991245754375766"><ele>-6.571428571428571</ele><time>2026-05-02T17:20:55.999Z</time></trkpt><trkpt lat="44.92031288706854" lon="11.991244559837003"><ele>-6.428571428571429</ele><time>2026-05-02T17:20:56.999Z</time></trkpt><trkpt lat="44.92038281726272" lon="11.99124340885633"><ele>-6.285714285714286</ele><time>2026-05-02T17:20:57.999Z</time></trkpt><trkpt lat="44.9204510299414" lon="11.991242286143063"><ele>-6.142857142857142</ele><time>2026-05-02T17:20:58.999Z</time></trkpt><trkpt lat="44.92052309109295" lon="11.991241100087747"><ele>-6.0</ele><time>2026-05-02T17:20:59.999Z</time></trkpt><trkpt lat="44.92059430727153" lon="11.991239927940759"><ele>-5.999999999999999</ele><time>2026-05-02T17:21:00.999Z</time></trkpt><trkpt lat="44.92066715151219" lon="11.99123872899654"><ele>-6.0</ele><time>2026-05-02T17:21:02Z</time></trkpt><trkpt lat="44.920739632255525" lon="11.991237536035708"><ele>-6.0</ele><time>2026-05-02T17:21:03Z</time></trkpt><trkpt lat="44.920811921930266" lon="11.991236346219614"><ele>-6.0</ele><time>2026-05-02T17:21:04Z</time></trkpt><trkpt lat="44.9208840008639" lon="11.991235159870886"><ele>-6.0</ele><time>2026-05-02T17:21:05Z</time></trkpt><trkpt lat="44.920953798098665" lon="11.991234011076099"><ele>-5.999999999999999</ele><time>2026-05-02T17:21:06Z</time></trkpt><trkpt lat="44.92102537074946" lon="11.991232833059634"><ele>-6.0</ele><time>2026-05-02T17:21:07Z</time></trkpt><trkpt lat="44.921091742378124" lon="11.9912317406455"><ele>-6.0</ele><time>2026-05-02T17:21:08Z</time></trkpt><trkpt lat="44.921221801121156" lon="11.991229600010861"><ele>-6.0</ele><time>2026-05-02T17:21:10Z</time></trkpt><trkpt lat="44.92129884592137" lon="11.991205162989964"><ele>-6.0</ele><time>2026-05-02T17:21:11Z</time></trkpt><trkpt lat="44.9213806152572" lon="11.99121412385391"><ele>-6.0</ele><time>2026-05-02T17:21:12Z</time></trkpt><trkpt lat="44.92145755023327" lon="11.991203332209837"><ele>-6.0</ele><time>2026-05-02T17:21:13Z</time></trkpt><trkpt lat="44.92153549573463" lon="11.991206922404396"><ele>-6.0</ele><time>2026-05-02T17:21:14Z</time></trkpt><trkpt lat="44.921608139687734" lon="11.991203245222938"><ele>-6.0</ele><time>2026-05-02T17:21:15Z</time></trkpt><trkpt lat="44.92168508020492" lon="11.991223004645924"><ele>-6.0</ele><time>2026-05-02T17:21:16Z</time></trkpt><trkpt lat="44.92175812779482" lon="11.991222132105928"><ele>-6.0</ele><time>2026-05-02T17:21:17Z</time></trkpt><trkpt lat="44.921830950316696" lon="11.991221262256577"><ele>-6.0</ele><time>2026-05-02T17:21:18Z</time></trkpt><trkpt lat="44.92190575811202" lon="11.991220368691673"><ele>-6.0</ele><time>2026-05-02T17:21:19Z</time></trkpt><trkpt lat="44.92198256631001" lon="11.991219451234329"><ele>-6.0</ele><time>2026-05-02T17:21:20Z</time></trkpt><trkpt lat="44.92205665889183" lon="11.991218566212938"><ele>-6.0</ele><time>2026-05-02T17:21:21Z</time></trkpt><trkpt lat="44.92213197696705" lon="11.991198488396169"><ele>-6.0</ele><time>2026-05-02T17:21:22Z</time></trkpt><trkpt lat="44.92220816371997" lon="11.991203255283969"><ele>-6.0</ele><time>2026-05-02T17:21:23Z</time></trkpt><trkpt lat="44.92228098156134" lon="11.991193049433013"><ele>-6.0</ele><time>2026-05-02T17:21:24Z</time></trkpt><trkpt lat="44.92235933209973" lon="11.991214950841524"><ele>-6.0</ele><time>2026-05-02T17:21:25Z</time></trkpt><trkpt lat="44.922433616206874" lon="11.991214063532986"><ele>-6.0</ele><time>2026-05-02T17:21:26Z</time></trkpt><trkpt lat="44.922507783909325" lon="11.99121317761534"><ele>-6.166666666666667</ele><time>2026-05-02T17:21:27Z</time></trkpt><trkpt lat="44.92258390969721" lon="11.991212268308002"><ele>-6.333333333333334</ele><time>2026-05-02T17:21:28Z</time></trkpt><trkpt lat="44.922660188485054" lon="11.991211357172771"><ele>-6.5</ele><time>2026-05-02T17:21:29Z</time></trkpt><trkpt lat="44.92273580322302" lon="11.99121045396999"><ele>-6.666666666666667</ele><time>2026-05-02T17:21:30Z</time></trkpt><trkpt lat="44.92281211009756" lon="11.991186475717148"><ele>-6.833333333333334</ele><time>2026-05-02T17:21:31Z</time></trkpt><trkpt lat="44.92288464283251" lon="11.991208676112329"><ele>-7.0</ele><time>2026-05-02T17:21:32Z</time></trkpt><trkpt lat="44.92295745657898" lon="11.991207806365837"><ele>-7.0</ele><time>2026-05-02T17:21:33Z</time></trkpt><trkpt lat="44.92302554232745" lon="11.991206993095062"><ele>-7.0</ele><time>2026-05-02T17:21:34Z</time></trkpt><trkpt lat="44.92309316766629" lon="11.99120618532374"><ele>-7.0</ele><time>2026-05-02T17:21:35Z</time></trkpt><trkpt lat="44.92315965585175" lon="11.991188308716083"><ele>-7.0</ele><time>2026-05-02T17:21:36Z</time></trkpt><trkpt lat="44.92322939660721" lon="11.991190732669164"><ele>-7.0</ele><time>2026-05-02T17:21:37Z</time></trkpt><trkpt lat="44.92330047933377" lon="11.991188930112857"><ele>-7.0</ele><time>2026-05-02T17:21:38Z</time></trkpt><trkpt lat="44.92337206742531" lon="11.99118423194754"><ele>-7.0</ele><time>2026-05-02T17:21:39Z</time></trkpt><trkpt lat="44.923443630875646" lon="11.991180197752875"><ele>-7.0</ele><time>2026-05-02T17:21:40Z</time></trkpt><trkpt lat="44.92351613438662" lon="11.99118944315432"><ele>-7.0</ele><time>2026-05-02T17:21:41Z</time></trkpt><trkpt lat="44.923589799084034" lon="11.991190517122934"><ele>-7.0</ele><time>2026-05-02T17:21:42Z</time></trkpt><trkpt lat="44.92366270149425" lon="11.99118559011901"><ele>-7.0</ele><time>2026-05-02T17:21:43Z</time></trkpt><trkpt lat="44.92373775948669" lon="11.991186891048708"><ele>-7.0</ele><time>2026-05-02T17:21:44Z</time></trkpt><trkpt lat="44.92380801762979" lon="11.991184297278261"><ele>-7.0</ele><time>2026-05-02T17:21:45Z</time></trkpt><trkpt lat="44.923878240705854" lon="11.991185444849723"><ele>-7.0</ele><time>2026-05-02T17:21:46Z</time></trkpt><trkpt lat="44.92394421434587" lon="11.991187321621199"><ele>-7.000000000000001</ele><time>2026-05-02T17:21:47Z</time></trkpt><trkpt lat="44.92401243283996" lon="11.991191555933582"><ele>-7.0</ele><time>2026-05-02T17:21:48Z</time></trkpt><trkpt lat="44.92407862511398" lon="11.991187767868128"><ele>-7.0</ele><time>2026-05-02T17:21:49Z</time></trkpt><trkpt lat="44.92420416601297" lon="11.9912001253365"><ele>-7.0</ele><time>2026-05-02T17:21:51Z</time></trkpt><trkpt lat="44.92426885221488" lon="11.991191058583487"><ele>-7.000000000000001</ele><time>2026-05-02T17:21:52Z</time></trkpt><trkpt lat="44.92433323621358" lon="11.991184135869055"><ele>-7.0</ele><time>2026-05-02T17:21:53Z</time></trkpt><trkpt lat="44.924455643545244" lon="11.991135666602673"><ele>-7.0</ele><time>2026-05-02T17:21:55Z</time></trkpt><trkpt lat="44.92449345537998" lon="11.99104595767482"><ele>-6.999999999999999</ele><time>2026-05-02T17:21:56Z</time></trkpt><trkpt lat="44.924483184404735" lon="11.990941146770933"><ele>-6.999999999999999</ele><time>2026-05-02T17:21:57Z</time></trkpt><trkpt lat="44.92447588314748" lon="11.990776971891448"><ele>-7.0</ele><time>2026-05-02T17:21:59Z</time></trkpt><trkpt lat="44.9244610629476" lon="11.990611858472507"><ele>-7.0</ele><time>2026-05-02T17:22:00.999Z</time></trkpt><trkpt lat="44.924450705639536" lon="11.990442015571748"><ele>-7.0</ele><time>2026-05-02T17:22:02.999Z</time></trkpt><trkpt lat="44.924451863253836" lon="11.990347946037815"><ele>-7.0</ele><time>2026-05-02T17:22:03.999Z</time></trkpt><trkpt lat="44.92444973680136" lon="11.990258407062973"><ele>-7.0</ele><time>2026-05-02T17:22:04.999Z</time></trkpt><trkpt lat="44.92446105916483" lon="11.9901594013438"><ele>-7.0</ele><time>2026-05-02T17:22:05.999Z</time></trkpt><trkpt lat="44.92445935661043" lon="11.990068238551945"><ele>-7.0</ele><time>2026-05-02T17:22:06.999Z</time></trkpt><trkpt lat="44.92444123201907" lon="11.989973011981265"><ele>-7.0</ele><time>2026-05-02T17:22:07.999Z</time></trkpt><trkpt lat="44.92445577498317" lon="11.989876461235644"><ele>-7.0</ele><time>2026-05-02T17:22:08.999Z</time></trkpt><trkpt lat="44.92445395427686" lon="11.989778971864927"><ele>-7.000000000000001</ele><time>2026-05-02T17:22:09.999Z</time></trkpt><trkpt lat="44.924452258391696" lon="11.989688166335212"><ele>-7.0</ele><time>2026-05-02T17:22:10.999Z</time></trkpt><trkpt lat="44.92445056648731" lon="11.98959757362278"><ele>-7.0</ele><time>2026-05-02T17:22:11.999Z</time></trkpt><trkpt lat="44.92443365810904" lon="11.989428179699466"><ele>-7.0</ele><time>2026-05-02T17:22:13.999Z</time></trkpt><trkpt lat="44.92443056484881" lon="11.98925965765098"><ele>-7.000000000000001</ele><time>2026-05-02T17:22:15.999Z</time></trkpt><trkpt lat="44.92442971799289" lon="11.989168505159414"><ele>-7.0</ele><time>2026-05-02T17:22:16.999Z</time></trkpt><trkpt lat="44.92443920490755" lon="11.988989220748751"><ele>-6.8</ele><time>2026-05-02T17:22:18.999Z</time></trkpt><trkpt lat="44.92442140050187" lon="11.988829532582923"><ele>-6.6</ele><time>2026-05-02T17:22:20.999Z</time></trkpt><trkpt lat="44.92441969947124" lon="11.988676594846133"><ele>-6.3999999999999995</ele><time>2026-05-02T17:22:22.999Z</time></trkpt><trkpt lat="44.924415921369544" lon="11.98853241638798"><ele>-6.199999999999999</ele><time>2026-05-02T17:22:24.999Z</time></trkpt><trkpt lat="44.924309545306166" lon="11.988474968315694"><ele>-6.0</ele><time>2026-05-02T17:22:27.999Z</time></trkpt><trkpt lat="44.92422478629806" lon="11.988472345524952"><ele>-6.0</ele><time>2026-05-02T17:22:29.999Z</time></trkpt><trkpt lat="44.92422351128605" lon="11.988301054379978"><ele>-6.0</ele><time>2026-05-02T17:22:35.999Z</time></trkpt><trkpt lat="44.92422254802495" lon="11.988178607784056"><ele>-6.0</ele><time>2026-05-02T17:22:38.999Z</time></trkpt><trkpt lat="44.92422704229545" lon="11.988067849089342"><ele>-6.0</ele><time>2026-05-02T17:22:41.999Z</time></trkpt></trkseg></trk></gpx>